<?xml version='1.0' encoding='UTF-8'?><gpx version="1.1" creator="JPX - https://github.com/jenetics/jpx" xmlns="http://www.topografix.com/GPX/1/1"><trk><trkseg><trkpt lat="44.896508787602365" lon="11.832235029436207"><ele>3.9999999999999996</ele><time>2026-04-04T12:25:41.999Z</time></trkpt><trkpt lat="44.89655821422395" lon="11.832296187301047"><ele>4.0</ele><time>2026-04-04T12:25:52.999Z</time></trkpt><trkpt lat="44.89662597918663" lon="11.832315227609724"><ele>4.0</ele><time>2026-04-04T12:25:55.999Z</time></trkpt><trkpt lat="44.896660171076704" lon="11.832425797130457"><ele>4.0</ele><time>2026-04-04T12:25:57.999Z</time></trkpt><trkpt lat="44.89669871671148" lon="11.83255924733556"><ele>3.9999999999999996</ele><time>2026-04-04T12:25:59.999Z</time></trkpt><trkpt lat="44.89672236258986" lon="11.832664323896186"><ele>4.0</ele><time>2026-04-04T12:26:01.999Z</time></trkpt><trkpt lat="44.89676114556783" lon="11.832802867331926"><ele>3.833333333333333</ele><time>2026-04-04T12:26:03.999Z</time></trkpt><trkpt lat="44.896795524960176" lon="11.832906100532146"><ele>3.6666666666666665</ele><time>2026-04-04T12:26:05.999Z</time></trkpt><trkpt lat="44.89685235401019" lon="11.83295111077012"><ele>3.5</ele><time>2026-04-04T12:26:11.999Z</time></trkpt><trkpt lat="44.89695365732004" lon="11.832887259692887"><ele>3.333333333333333</ele><time>2026-04-04T12:26:13.999Z</time></trkpt><trkpt lat="44.89701668016701" lon="11.832841220604662"><ele>3.1666666666666665</ele><time>2026-04-04T12:26:14.999Z</time></trkpt><trkpt lat="44.89707028411252" lon="11.832770527633198"><ele>3.0</ele><time>2026-04-04T12:26:15.999Z</time></trkpt><trkpt lat="44.897224921324906" lon="11.832688562060724"><ele>3.0</ele><time>2026-04-04T12:26:16.999Z</time></trkpt><trkpt lat="44.89728286887164" lon="11.8326409588231"><ele>3.0</ele><time>2026-04-04T12:26:17.999Z</time></trkpt><trkpt lat="44.89736964635116" lon="11.832570231309203"><ele>3.0</ele><time>2026-04-04T12:26:19.999Z</time></trkpt><trkpt lat="44.89743268663193" lon="11.832518024924394"><ele>3.0</ele><time>2026-04-04T12:26:22.999Z</time></trkpt><trkpt lat="44.897455074723744" lon="11.83232294764656"><ele>3.0</ele><time>2026-04-04T12:26:28.999Z</time></trkpt><trkpt lat="44.89743104872286" lon="11.832203754476652"><ele>3.0</ele><time>2026-04-04T12:26:29.999Z</time></trkpt><trkpt lat="44.897396001702205" lon="11.832063559866219"><ele>3.0</ele><time>2026-04-04T12:26:30.999Z</time></trkpt><trkpt lat="44.89735934289852" lon="11.831906983904094"><ele>3.0</ele><time>2026-04-04T12:26:31.999Z</time></trkpt><trkpt lat="44.8973270428157" lon="11.831721425333606"><ele>3.0</ele><time>2026-04-04T12:26:32.999Z</time></trkpt><trkpt lat="44.89729259001136" lon="11.831534726621792"><ele>3.0</ele><time>2026-04-04T12:26:33.999Z</time></trkpt><trkpt lat="44.89726242720912" lon="11.83134386807817"><ele>3.0</ele><time>2026-04-04T12:26:34.999Z</time></trkpt><trkpt lat="44.897228523735016" lon="11.831148753841205"><ele>3.0</ele><time>2026-04-04T12:26:35.999Z</time></trkpt><trkpt lat="44.897194663336585" lon="11.830952173362551"><ele>3.0</ele><time>2026-04-04T12:26:36.999Z</time></trkpt><trkpt lat="44.89716881033843" lon="11.830753959286097"><ele>3.333333333333333</ele><time>2026-04-04T12:26:37.999Z</time></trkpt><trkpt lat="44.89712639618975" lon="11.830544284398542"><ele>3.6666666666666665</ele><time>2026-04-04T12:26:38.999Z</time></trkpt><trkpt lat="44.89708536940233" lon="11.830335215354149"><ele>4.0</ele><time>2026-04-04T12:26:39.999Z</time></trkpt><trkpt lat="44.89705100781169" lon="11.830119181364319"><ele>4.0</ele><time>2026-04-04T12:26:40.999Z</time></trkpt><trkpt lat="44.89702118908901" lon="11.829902126421985"><ele>4.0</ele><time>2026-04-04T12:26:41.999Z</time></trkpt><trkpt lat="44.89698649334886" lon="11.829694269921365"><ele>4.0</ele><time>2026-04-04T12:26:42.999Z</time></trkpt><trkpt lat="44.8969488773131" lon="11.829489306758292"><ele>3.75</ele><time>2026-04-04T12:26:43.999Z</time></trkpt><trkpt lat="44.896915789744526" lon="11.829282958749092"><ele>3.5</ele><time>2026-04-04T12:26:44.999Z</time></trkpt><trkpt lat="44.89689186964082" lon="11.829075991437968"><ele>3.25</ele><time>2026-04-04T12:26:45.999Z</time></trkpt><trkpt lat="44.896857603428934" lon="11.828883698130126"><ele>3.0</ele><time>2026-04-04T12:26:46.999Z</time></trkpt><trkpt lat="44.89683209881523" lon="11.828698472948039"><ele>3.0</ele><time>2026-04-04T12:26:47.999Z</time></trkpt><trkpt lat="44.896799108536904" lon="11.828509148373538"><ele>3.0</ele><time>2026-04-04T12:26:48.999Z</time></trkpt><trkpt lat="44.89677241258208" lon="11.828328047157882"><ele>3.0</ele><time>2026-04-04T12:26:49.999Z</time></trkpt><trkpt lat="44.89674593628984" lon="11.828145423360182"><ele>3.0</ele><time>2026-04-04T12:26:50.999Z</time></trkpt><trkpt lat="44.896707289526404" lon="11.827965164643508"><ele>3.25</ele><time>2026-04-04T12:26:51.999Z</time></trkpt><trkpt lat="44.89667570023622" lon="11.82777135026821"><ele>3.5</ele><time>2026-04-04T12:26:52.999Z</time></trkpt><trkpt lat="44.89664732265819" lon="11.827578031002341"><ele>3.75</ele><time>2026-04-04T12:26:53.999Z</time></trkpt><trkpt lat="44.89661719036342" lon="11.82738444236505"><ele>4.0</ele><time>2026-04-04T12:26:54.999Z</time></trkpt><trkpt lat="44.896583931224384" lon="11.827195222306154"><ele>4.0</ele><time>2026-04-04T12:26:55.999Z</time></trkpt><trkpt lat="44.896552383621916" lon="11.827018932399763"><ele>4.0</ele><time>2026-04-04T12:26:56.999Z</time></trkpt><trkpt lat="44.89653054850515" lon="11.826863710144828"><ele>4.0</ele><time>2026-04-04T12:26:57.999Z</time></trkpt><trkpt lat="44.89650855140288" lon="11.82672921994232"><ele>4.0</ele><time>2026-04-04T12:26:58.999Z</time></trkpt><trkpt lat="44.89649152902011" lon="11.826616647601918"><ele>4.0</ele><time>2026-04-04T12:26:59.999Z</time></trkpt><trkpt lat="44.89647019256408" lon="11.82650762991178"><ele>3.9999999999999996</ele><time>2026-04-04T12:27:00.999Z</time></trkpt><trkpt lat="44.896445435158604" lon="11.826356262315324"><ele>4.0</ele><time>2026-04-04T12:27:02.999Z</time></trkpt><trkpt lat="44.89642464772935" lon="11.826261391390052"><ele>4.0</ele><time>2026-04-04T12:27:04.999Z</time></trkpt><trkpt lat="44.89640716858079" lon="11.82617129779441"><ele>4.0</ele><time>2026-04-04T12:27:09.998Z</time></trkpt><trkpt lat="44.896375325861186" lon="11.826062717186115"><ele>3.9999999999999996</ele><time>2026-04-04T12:27:49.998Z</time></trkpt><trkpt lat="44.89635182848344" lon="11.825943201647057"><ele>4.0</ele><time>2026-04-04T12:27:50.998Z</time></trkpt><trkpt lat="44.896330358045105" lon="11.825816827567424"><ele>4.0</ele><time>2026-04-04T12:27:51.998Z</time></trkpt><trkpt lat="44.896302137336875" lon="11.825682892986713"><ele>4.0</ele><time>2026-04-04T12:27:52.998Z</time></trkpt><trkpt lat="44.89628329189965" lon="11.825533834886977"><ele>4.0</ele><time>2026-04-04T12:27:53.998Z</time></trkpt><trkpt lat="44.8962474928256" lon="11.82537224302263"><ele>4.0</ele><time>2026-04-04T12:27:54.998Z</time></trkpt><trkpt lat="44.89621177112159" lon="11.825208532734628"><ele>4.0</ele><time>2026-04-04T12:27:55.998Z</time></trkpt><trkpt lat="44.89618447080956" lon="11.825049889714434"><ele>4.0</ele><time>2026-04-04T12:27:56.998Z</time></trkpt><trkpt lat="44.89617080152744" lon="11.824903290770584"><ele>4.0</ele><time>2026-04-04T12:27:57.998Z</time></trkpt><trkpt lat="44.89614296081882" lon="11.824747779010453"><ele>4.0</ele><time>2026-04-04T12:27:58.998Z</time></trkpt><trkpt lat="44.89609625619518" lon="11.824611932470798"><ele>4.0</ele><time>2026-04-04T12:27:59.998Z</time></trkpt><trkpt lat="44.896067563790176" lon="11.824429723045657"><ele>4.25</ele><time>2026-04-04T12:28:00.998Z</time></trkpt><trkpt lat="44.89604609466498" lon="11.824269765587633"><ele>4.5</ele><time>2026-04-04T12:28:01.998Z</time></trkpt><trkpt lat="44.896016060148796" lon="11.82410805517515"><ele>4.75</ele><time>2026-04-04T12:28:02.998Z</time></trkpt><trkpt lat="44.89599627223985" lon="11.823945283106841"><ele>5.0</ele><time>2026-04-04T12:28:03.998Z</time></trkpt><trkpt lat="44.89596234148037" lon="11.82379249925476"><ele>5.0</ele><time>2026-04-04T12:28:04.998Z</time></trkpt><trkpt lat="44.895947262791644" lon="11.823623277671608"><ele>5.0</ele><time>2026-04-04T12:28:05.998Z</time></trkpt><trkpt lat="44.89593011973908" lon="11.823467638403637"><ele>5.0</ele><time>2026-04-04T12:28:06.998Z</time></trkpt><trkpt lat="44.8959059057268" lon="11.823323816575174"><ele>5.0</ele><time>2026-04-04T12:28:07.998Z</time></trkpt><trkpt lat="44.89588259440032" lon="11.82318660827384"><ele>5.0</ele><time>2026-04-04T12:28:08.998Z</time></trkpt><trkpt lat="44.89586153802682" lon="11.823075242379304"><ele>4.833333333333334</ele><time>2026-04-04T12:28:09.998Z</time></trkpt><trkpt lat="44.8958475919926" lon="11.82297974675296"><ele>4.666666666666667</ele><time>2026-04-04T12:28:10.998Z</time></trkpt><trkpt lat="44.89584977017386" lon="11.82287902403673"><ele>4.5</ele><time>2026-04-04T12:28:38.997Z</time></trkpt><trkpt lat="44.895841795088934" lon="11.822732467516868"><ele>4.333333333333333</ele><time>2026-04-04T12:28:41.997Z</time></trkpt><trkpt lat="44.89582570290514" lon="11.8226382360218"><ele>4.166666666666666</ele><time>2026-04-04T12:28:42.997Z</time></trkpt><trkpt lat="44.89580065800637" lon="11.822500557635383"><ele>4.0</ele><time>2026-04-04T12:28:43.997Z</time></trkpt><trkpt lat="44.89582221823938" lon="11.822339737615994"><ele>3.75</ele><time>2026-04-04T12:28:44.997Z</time></trkpt><trkpt lat="44.89579474478496" lon="11.822169628263753"><ele>3.5</ele><time>2026-04-04T12:28:45.997Z</time></trkpt><trkpt lat="44.89576757708498" lon="11.822001412058338"><ele>3.25</ele><time>2026-04-04T12:28:46.997Z</time></trkpt><trkpt lat="44.89573750457954" lon="11.821815210005488"><ele>3.0</ele><time>2026-04-04T12:28:47.997Z</time></trkpt><trkpt lat="44.89570448415223" lon="11.821610342522643"><ele>3.0</ele><time>2026-04-04T12:28:48.997Z</time></trkpt><trkpt lat="44.895655507827804" lon="11.821406628315163"><ele>3.0</ele><time>2026-04-04T12:28:49.997Z</time></trkpt><trkpt lat="44.89562612205771" lon="11.8211895129468"><ele>3.0</ele><time>2026-04-04T12:28:50.997Z</time></trkpt><trkpt lat="44.89559989009113" lon="11.820959788744624"><ele>3.0</ele><time>2026-04-04T12:28:51.997Z</time></trkpt><trkpt lat="44.895562533705046" lon="11.820727136107422"><ele>3.0</ele><time>2026-04-04T12:28:52.997Z</time></trkpt><trkpt lat="44.89552621322258" lon="11.820500934960094"><ele>3.0</ele><time>2026-04-04T12:28:53.997Z</time></trkpt><trkpt lat="44.89547296398155" lon="11.820274251031723"><ele>2.3333333333333335</ele><time>2026-04-04T12:28:54.997Z</time></trkpt><trkpt lat="44.89545362915737" lon="11.820036846862344"><ele>1.6666666666666665</ele><time>2026-04-04T12:28:55.997Z</time></trkpt><trkpt lat="44.895412638778815" lon="11.819803409141713"><ele>1.0</ele><time>2026-04-04T12:28:56.997Z</time></trkpt><trkpt lat="44.89537771085422" lon="11.819570118906382"><ele>1.0</ele><time>2026-04-04T12:28:57.997Z</time></trkpt><trkpt lat="44.895342665327995" lon="11.819343595285469"><ele>1.0</ele><time>2026-04-04T12:28:58.997Z</time></trkpt><trkpt lat="44.895296530441364" lon="11.819129709524155"><ele>1.0</ele><time>2026-04-04T12:28:59.997Z</time></trkpt><trkpt lat="44.89524523455002" lon="11.81893250159052"><ele>1.3333333333333333</ele><time>2026-04-04T12:29:00.997Z</time></trkpt><trkpt lat="44.895175848184955" lon="11.818745305726674"><ele>1.6666666666666665</ele><time>2026-04-04T12:29:01.997Z</time></trkpt><trkpt lat="44.895088457432074" lon="11.818553275766543"><ele>2.0</ele><time>2026-04-04T12:29:02.997Z</time></trkpt><trkpt lat="44.894972471194485" lon="11.818373969720144"><ele>2.0</ele><time>2026-04-04T12:29:03.997Z</time></trkpt><trkpt lat="44.89484364769271" lon="11.818226170038365"><ele>2.0</ele><time>2026-04-04T12:29:04.997Z</time></trkpt><trkpt lat="44.89469247793277" lon="11.818098129845504"><ele>2.0</ele><time>2026-04-04T12:29:05.997Z</time></trkpt><trkpt lat="44.89453596603636" lon="11.817964680972379"><ele>2.0</ele><time>2026-04-04T12:29:06.997Z</time></trkpt><trkpt lat="44.89436242362689" lon="11.817853853349469"><ele>2.0</ele><time>2026-04-04T12:29:07.997Z</time></trkpt><trkpt lat="44.89418986067067" lon="11.817716097346619"><ele>2.0</ele><time>2026-04-04T12:29:08.997Z</time></trkpt><trkpt lat="44.89401952668499" lon="11.8175876947289"><ele>2.6666666666666665</ele><time>2026-04-04T12:29:09.997Z</time></trkpt><trkpt lat="44.89386734865593" lon="11.817425156669717"><ele>3.333333333333333</ele><time>2026-04-04T12:29:10.997Z</time></trkpt><trkpt lat="44.893707500867514" lon="11.817290070564123"><ele>4.0</ele><time>2026-04-04T12:29:11.997Z</time></trkpt><trkpt lat="44.89355890031366" lon="11.817173775720509"><ele>3.6666666666666665</ele><time>2026-04-04T12:29:12.997Z</time></trkpt><trkpt lat="44.89341038329119" lon="11.817065618192512"><ele>3.333333333333333</ele><time>2026-04-04T12:29:13.997Z</time></trkpt><trkpt lat="44.89326228798204" lon="11.816942665026666"><ele>3.0</ele><time>2026-04-04T12:29:14.997Z</time></trkpt><trkpt lat="44.89310905387105" lon="11.816822142497406"><ele>3.333333333333333</ele><time>2026-04-04T12:29:15.997Z</time></trkpt><trkpt lat="44.89295018901904" lon="11.81669517972364"><ele>3.6666666666666665</ele><time>2026-04-04T12:29:16.997Z</time></trkpt><trkpt lat="44.89279515371705" lon="11.816570578106436"><ele>4.0</ele><time>2026-04-04T12:29:17.997Z</time></trkpt><trkpt lat="44.89263907024701" lon="11.81644026617084"><ele>4.333333333333333</ele><time>2026-04-04T12:29:18.997Z</time></trkpt><trkpt lat="44.8924802137254" lon="11.816322151905936"><ele>4.666666666666667</ele><time>2026-04-04T12:29:19.997Z</time></trkpt><trkpt lat="44.89232513958419" lon="11.816202128339663"><ele>5.0</ele><time>2026-04-04T12:29:20.997Z</time></trkpt><trkpt lat="44.89217817518489" lon="11.816081907149862"><ele>4.666666666666667</ele><time>2026-04-04T12:29:21.997Z</time></trkpt><trkpt lat="44.89203571011714" lon="11.815965521995595"><ele>4.333333333333333</ele><time>2026-04-04T12:29:22.997Z</time></trkpt><trkpt lat="44.89190290551304" lon="11.815856194328273"><ele>4.0</ele><time>2026-04-04T12:29:23.997Z</time></trkpt><trkpt lat="44.89176804549685" lon="11.815762159210747"><ele>3.75</ele><time>2026-04-04T12:29:24.997Z</time></trkpt><trkpt lat="44.89164653119156" lon="11.815661731087054"><ele>3.5</ele><time>2026-04-04T12:29:25.997Z</time></trkpt><trkpt lat="44.891529834813625" lon="11.815567621650022"><ele>3.25</ele><time>2026-04-04T12:29:26.997Z</time></trkpt><trkpt lat="44.89141395582674" lon="11.815484577335504"><ele>3.0</ele><time>2026-04-04T12:29:27.997Z</time></trkpt><trkpt lat="44.891301923251035" lon="11.81539803464256"><ele>3.0</ele><time>2026-04-04T12:29:28.997Z</time></trkpt><trkpt lat="44.89120124013424" lon="11.81532143643629"><ele>3.0</ele><time>2026-04-04T12:29:29.997Z</time></trkpt><trkpt lat="44.89109880743452" lon="11.815248810823272"><ele>3.0</ele><time>2026-04-04T12:29:30.997Z</time></trkpt><trkpt lat="44.89101086816442" lon="11.815185074377723"><ele>3.0</ele><time>2026-04-04T12:29:31.997Z</time></trkpt><trkpt lat="44.890932897931314" lon="11.815130663506952"><ele>3.0</ele><time>2026-04-04T12:29:32.997Z</time></trkpt><trkpt lat="44.890872304086805" lon="11.815063627794695"><ele>3.0</ele><time>2026-04-04T12:29:33.997Z</time></trkpt><trkpt lat="44.890810504137455" lon="11.815014091489434"><ele>3.0</ele><time>2026-04-04T12:29:34.997Z</time></trkpt><trkpt lat="44.89073416590434" lon="11.814952901890454"><ele>3.0</ele><time>2026-04-04T12:29:36.997Z</time></trkpt><trkpt lat="44.89069239875165" lon="11.815153464959064"><ele>3.0</ele><time>2026-04-04T12:29:40.997Z</time></trkpt><trkpt lat="44.89074327891619" lon="11.815241874962922"><ele>3.0</ele><time>2026-04-04T12:29:42.997Z</time></trkpt><trkpt lat="44.89085151404249" lon="11.815212966280317"><ele>3.0</ele><time>2026-04-04T12:29:45.997Z</time></trkpt><trkpt lat="44.89091007172123" lon="11.815256196559211"><ele>3.0</ele><time>2026-04-04T12:29:48.997Z</time></trkpt><trkpt lat="44.89084853327363" lon="11.815297972021636"><ele>3.0</ele><time>2026-04-04T12:30:19.996Z</time></trkpt><trkpt lat="44.890912333805154" lon="11.815301123233281"><ele>3.0</ele><time>2026-04-04T12:31:00.996Z</time></trkpt><trkpt lat="44.890977893939954" lon="11.815290739049487"><ele>3.0</ele><time>2026-04-04T12:33:46.994Z</time></trkpt><trkpt lat="44.89101775086218" lon="11.815176333283764"><ele>3.0</ele><time>2026-04-04T12:33:54.994Z</time></trkpt><trkpt lat="44.89114799814878" lon="11.815274215251417"><ele>3.0</ele><time>2026-04-04T12:33:56.994Z</time></trkpt><trkpt lat="44.89122141098722" lon="11.815354000719434"><ele>3.0</ele><time>2026-04-04T12:33:57.994Z</time></trkpt><trkpt lat="44.891295059345445" lon="11.815415102984769"><ele>3.0</ele><time>2026-04-04T12:33:58.994Z</time></trkpt><trkpt lat="44.89136534238546" lon="11.815476457653718"><ele>3.0</ele><time>2026-04-04T12:33:59.994Z</time></trkpt><trkpt lat="44.89143980379053" lon="11.815541876728524"><ele>3.0</ele><time>2026-04-04T12:34:00.994Z</time></trkpt><trkpt lat="44.89150049532094" lon="11.815616654835674"><ele>3.0</ele><time>2026-04-04T12:34:01.994Z</time></trkpt><trkpt lat="44.89160345077056" lon="11.81568397214477"><ele>3.0</ele><time>2026-04-04T12:34:03.994Z</time></trkpt><trkpt lat="44.89169904501925" lon="11.815772289285201"><ele>3.0</ele><time>2026-04-04T12:34:05.994Z</time></trkpt><trkpt lat="44.89181683637953" lon="11.815743156810505"><ele>3.0</ele><time>2026-04-04T12:34:07.994Z</time></trkpt><trkpt lat="44.89177394595855" lon="11.815603173269125"><ele>3.0</ele><time>2026-04-04T12:34:08.994Z</time></trkpt><trkpt lat="44.891764806706014" lon="11.81536547732861"><ele>3.0</ele><time>2026-04-04T12:34:10.994Z</time></trkpt><trkpt lat="44.891743847761134" lon="11.815202940101356"><ele>3.0</ele><time>2026-04-04T12:34:11.994Z</time></trkpt><trkpt lat="44.891727491865375" lon="11.815056974199718"><ele>3.0</ele><time>2026-04-04T12:34:12.994Z</time></trkpt><trkpt lat="44.89172355490952" lon="11.814906500375113"><ele>3.0</ele><time>2026-04-04T12:34:13.994Z</time></trkpt><trkpt lat="44.89172794477096" lon="11.814778622340029"><ele>3.0</ele><time>2026-04-04T12:34:14.994Z</time></trkpt><trkpt lat="44.891720581017175" lon="11.814659417227658"><ele>3.0</ele><time>2026-04-04T12:34:15.994Z</time></trkpt><trkpt lat="44.89171951187195" lon="11.814516171455434"><ele>3.0</ele><time>2026-04-04T12:34:16.994Z</time></trkpt><trkpt lat="44.89170269523727" lon="11.814393219002676"><ele>3.0</ele><time>2026-04-04T12:34:17.994Z</time></trkpt><trkpt lat="44.89169370985281" lon="11.81427335031373"><ele>3.0</ele><time>2026-04-04T12:34:18.994Z</time></trkpt><trkpt lat="44.891681426081405" lon="11.814161077540831"><ele>3.0</ele><time>2026-04-04T12:34:19.994Z</time></trkpt><trkpt lat="44.89167822509351" lon="11.814017696215393"><ele>3.0</ele><time>2026-04-04T12:34:20.994Z</time></trkpt><trkpt lat="44.891675060583275" lon="11.813858056522612"><ele>3.0</ele><time>2026-04-04T12:34:21.994Z</time></trkpt><trkpt lat="44.89167245973118" lon="11.813715355854233"><ele>3.0</ele><time>2026-04-04T12:34:22.994Z</time></trkpt><trkpt lat="44.891677860641" lon="11.81359100036038"><ele>3.0</ele><time>2026-04-04T12:34:23.993Z</time></trkpt><trkpt lat="44.89166859423626" lon="11.813453976472363"><ele>3.0</ele><time>2026-04-04T12:34:24.993Z</time></trkpt><trkpt lat="44.891653518257755" lon="11.813312437271362"><ele>2.8333333333333335</ele><time>2026-04-04T12:34:25.993Z</time></trkpt><trkpt lat="44.891650832505896" lon="11.813183013501446"><ele>2.6666666666666665</ele><time>2026-04-04T12:34:26.993Z</time></trkpt><trkpt lat="44.89164574090017" lon="11.813062332555463"><ele>2.5</ele><time>2026-04-04T12:34:27.993Z</time></trkpt><trkpt lat="44.89164169363214" lon="11.812940552486557"><ele>2.333333333333333</ele><time>2026-04-04T12:34:28.993Z</time></trkpt><trkpt lat="44.89163358512582" lon="11.812818496039437"><ele>2.1666666666666665</ele><time>2026-04-04T12:34:29.993Z</time></trkpt><trkpt lat="44.89163123905395" lon="11.812686111231882"><ele>2.0</ele><time>2026-04-04T12:34:30.993Z</time></trkpt><trkpt lat="44.891639944418586" lon="11.812535990865927"><ele>2.0</ele><time>2026-04-04T12:34:31.993Z</time></trkpt><trkpt lat="44.891633830984034" lon="11.812389414614708"><ele>2.0</ele><time>2026-04-04T12:34:32.993Z</time></trkpt><trkpt lat="44.891624243939" lon="11.812257787672461"><ele>2.0</ele><time>2026-04-04T12:34:33.993Z</time></trkpt><trkpt lat="44.89160683271863" lon="11.812116986720541"><ele>2.0</ele><time>2026-04-04T12:34:34.993Z</time></trkpt><trkpt lat="44.89159753826009" lon="11.811977262478285"><ele>2.0</ele><time>2026-04-04T12:34:35.993Z</time></trkpt><trkpt lat="44.8915856384149" lon="11.811862921431077"><ele>1.8</ele><time>2026-04-04T12:34:36.993Z</time></trkpt><trkpt lat="44.89156995773912" lon="11.811761635861671"><ele>1.6</ele><time>2026-04-04T12:34:37.993Z</time></trkpt><trkpt lat="44.89157417907677" lon="11.811621730187674"><ele>1.4000000000000001</ele><time>2026-04-04T12:34:39.993Z</time></trkpt><trkpt lat="44.89157868614597" lon="11.811522574047482"><ele>1.2000000000000002</ele><time>2026-04-04T12:34:41.993Z</time></trkpt><trkpt lat="44.891622304480435" lon="11.811430206325397"><ele>1.0</ele><time>2026-04-04T12:34:43.993Z</time></trkpt><trkpt lat="44.89175936581775" lon="11.811355228162872"><ele>1.0</ele><time>2026-04-04T12:34:45.993Z</time></trkpt><trkpt lat="44.89188465999974" lon="11.811345622820353"><ele>1.0</ele><time>2026-04-04T12:34:46.993Z</time></trkpt><trkpt lat="44.89202105786864" lon="11.81134228151064"><ele>1.0</ele><time>2026-04-04T12:34:47.993Z</time></trkpt><trkpt lat="44.892170797617865" lon="11.811338003162426"><ele>1.0</ele><time>2026-04-04T12:34:48.993Z</time></trkpt><trkpt lat="44.89231404035501" lon="11.811328846091568"><ele>1.0</ele><time>2026-04-04T12:34:49.993Z</time></trkpt><trkpt lat="44.89244866192975" lon="11.811306369165822"><ele>1.0</ele><time>2026-04-04T12:34:50.993Z</time></trkpt><trkpt lat="44.892584107661555" lon="11.811289269999712"><ele>1.0</ele><time>2026-04-04T12:34:51.993Z</time></trkpt><trkpt lat="44.89272211758573" lon="11.811257360431833"><ele>1.0</ele><time>2026-04-04T12:34:52.993Z</time></trkpt><trkpt lat="44.89285050790969" lon="11.811224797394148"><ele>1.0</ele><time>2026-04-04T12:34:53.993Z</time></trkpt><trkpt lat="44.892984800813394" lon="11.811201904745541"><ele>1.0</ele><time>2026-04-04T12:34:54.993Z</time></trkpt><trkpt lat="44.89312291076275" lon="11.8111613796709"><ele>1.0</ele><time>2026-04-04T12:34:55.993Z</time></trkpt><trkpt lat="44.8932739287584" lon="11.811112942029707"><ele>1.0</ele><time>2026-04-04T12:34:56.993Z</time></trkpt><trkpt lat="44.89343327786602" lon="11.811058676477385"><ele>1.0</ele><time>2026-04-04T12:34:57.993Z</time></trkpt><trkpt lat="44.893588069213486" lon="11.81102009478625"><ele>1.0</ele><time>2026-04-04T12:34:58.993Z</time></trkpt><trkpt lat="44.89374779706161" lon="11.810963309911791"><ele>1.0</ele><time>2026-04-04T12:34:59.993Z</time></trkpt><trkpt lat="44.89390162457622" lon="11.810909065566761"><ele>1.0</ele><time>2026-04-04T12:35:00.993Z</time></trkpt><trkpt lat="44.894058543773795" lon="11.810853323612518"><ele>1.0</ele><time>2026-04-04T12:35:01.993Z</time></trkpt><trkpt lat="44.89422469951301" lon="11.810800822612492"><ele>1.0</ele><time>2026-04-04T12:35:02.993Z</time></trkpt><trkpt lat="44.89439556114484" lon="11.810757044930405"><ele>1.3333333333333333</ele><time>2026-04-04T12:35:03.993Z</time></trkpt><trkpt lat="44.89455484786415" lon="11.810710676506792"><ele>1.6666666666666665</ele><time>2026-04-04T12:35:04.993Z</time></trkpt><trkpt lat="44.89472484637005" lon="11.810665067924157"><ele>2.0</ele><time>2026-04-04T12:35:05.993Z</time></trkpt><trkpt lat="44.89489767643539" lon="11.810604969843274"><ele>2.0</ele><time>2026-04-04T12:35:06.993Z</time></trkpt><trkpt lat="44.89506023880593" lon="11.81057369100522"><ele>2.0</ele><time>2026-04-04T12:35:07.993Z</time></trkpt><trkpt lat="44.89524058858805" lon="11.810498185421011"><ele>2.0</ele><time>2026-04-04T12:35:08.993Z</time></trkpt><trkpt lat="44.895410558978135" lon="11.81044857271975"><ele>1.6666666666666665</ele><time>2026-04-04T12:35:09.993Z</time></trkpt><trkpt lat="44.895575847068585" lon="11.810390372846411"><ele>1.3333333333333333</ele><time>2026-04-04T12:35:10.993Z</time></trkpt><trkpt lat="44.895745915972086" lon="11.810352732071479"><ele>1.0</ele><time>2026-04-04T12:35:11.993Z</time></trkpt><trkpt lat="44.895912951938826" lon="11.810295183653412"><ele>1.0</ele><time>2026-04-04T12:35:12.993Z</time></trkpt><trkpt lat="44.896084933958115" lon="11.810226339074434"><ele>1.0</ele><time>2026-04-04T12:35:13.993Z</time></trkpt><trkpt lat="44.89626179767575" lon="11.810169709831152"><ele>1.0</ele><time>2026-04-04T12:35:14.993Z</time></trkpt><trkpt lat="44.89643766175134" lon="11.810125394698526"><ele>1.0</ele><time>2026-04-04T12:35:15.993Z</time></trkpt><trkpt lat="44.89661748798893" lon="11.810081199609211"><ele>1.0</ele><time>2026-04-04T12:35:16.993Z</time></trkpt><trkpt lat="44.89679162004954" lon="11.810048555225471"><ele>1.0</ele><time>2026-04-04T12:35:17.993Z</time></trkpt><trkpt lat="44.89697176020617" lon="11.810040255026582"><ele>1.0</ele><time>2026-04-04T12:35:18.993Z</time></trkpt><trkpt lat="44.89714595489165" lon="11.810029012492398"><ele>1.0</ele><time>2026-04-04T12:35:19.993Z</time></trkpt><trkpt lat="44.897321117369245" lon="11.810019428807289"><ele>1.0</ele><time>2026-04-04T12:35:20.993Z</time></trkpt><trkpt lat="44.89749901508514" lon="11.81001514604471"><ele>1.0</ele><time>2026-04-04T12:35:21.993Z</time></trkpt><trkpt lat="44.8976765005421" lon="11.810014169560406"><ele>1.0</ele><time>2026-04-04T12:35:22.993Z</time></trkpt><trkpt lat="44.897853322854644" lon="11.810009011045196"><ele>1.0</ele><time>2026-04-04T12:35:23.993Z</time></trkpt><trkpt lat="44.89802892331552" lon="11.810001205412764"><ele>1.0</ele><time>2026-04-04T12:35:24.993Z</time></trkpt><trkpt lat="44.898205352579076" lon="11.809991117248048"><ele>1.0</ele><time>2026-04-04T12:35:25.993Z</time></trkpt><trkpt lat="44.89838935937224" lon="11.809990628094125"><ele>1.0</ele><time>2026-04-04T12:35:26.993Z</time></trkpt><trkpt lat="44.89857138403113" lon="11.809990518704282"><ele>1.0</ele><time>2026-04-04T12:35:27.993Z</time></trkpt><trkpt lat="44.89874391171688" lon="11.809969272321748"><ele>1.0</ele><time>2026-04-04T12:35:28.993Z</time></trkpt><trkpt lat="44.898926846445" lon="11.809977063212706"><ele>1.0</ele><time>2026-04-04T12:35:29.993Z</time></trkpt><trkpt lat="44.89911685477126" lon="11.80997793942763"><ele>0.6666666666666666</ele><time>2026-04-04T12:35:30.993Z</time></trkpt><trkpt lat="44.89928930327093" lon="11.80997252847998"><ele>0.3333333333333333</ele><time>2026-04-04T12:35:31.993Z</time></trkpt><trkpt lat="44.89946375536002" lon="11.809956867206067"><ele>0.0</ele><time>2026-04-04T12:35:32.993Z</time></trkpt><trkpt lat="44.89963960441987" lon="11.809951828405392"><ele>0.0</ele><time>2026-04-04T12:35:33.993Z</time></trkpt><trkpt lat="44.89980815336662" lon="11.809944168998458"><ele>0.0</ele><time>2026-04-04T12:35:34.993Z</time></trkpt><trkpt lat="44.89997081401379" lon="11.809939009765996"><ele>0.0</ele><time>2026-04-04T12:35:35.993Z</time></trkpt><trkpt lat="44.90012887320919" lon="11.809942517052852"><ele>0.3333333333333333</ele><time>2026-04-04T12:35:36.993Z</time></trkpt><trkpt lat="44.90028601024486" lon="11.809954444499127"><ele>0.6666666666666666</ele><time>2026-04-04T12:35:37.993Z</time></trkpt><trkpt lat="44.900454049226056" lon="11.80992440781727"><ele>1.0</ele><time>2026-04-04T12:35:38.993Z</time></trkpt><trkpt lat="44.9006285070194" lon="11.809927242373279"><ele>1.0</ele><time>2026-04-04T12:35:39.993Z</time></trkpt><trkpt lat="44.90081521268189" lon="11.809919013392788"><ele>1.0</ele><time>2026-04-04T12:35:40.993Z</time></trkpt><trkpt lat="44.90101390168469" lon="11.809914484375382"><ele>1.0</ele><time>2026-04-04T12:35:41.993Z</time></trkpt><trkpt lat="44.901189275571404" lon="11.809909037002031"><ele>1.0</ele><time>2026-04-04T12:35:42.993Z</time></trkpt><trkpt lat="44.90136694553311" lon="11.809904450043797"><ele>1.0</ele><time>2026-04-04T12:35:43.993Z</time></trkpt><trkpt lat="44.90154824876165" lon="11.809904049401512"><ele>1.0</ele><time>2026-04-04T12:35:44.993Z</time></trkpt><trkpt lat="44.90172133557912" lon="11.809908354869387"><ele>0.6666666666666666</ele><time>2026-04-04T12:35:45.993Z</time></trkpt><trkpt lat="44.901894630884335" lon="11.809929017497288"><ele>0.3333333333333333</ele><time>2026-04-04T12:35:46.993Z</time></trkpt><trkpt lat="44.90205590290051" lon="11.809961521480233"><ele>0.0</ele><time>2026-04-04T12:35:47.993Z</time></trkpt><trkpt lat="44.90221211375951" lon="11.810013112352514"><ele>0.0</ele><time>2026-04-04T12:35:48.993Z</time></trkpt><trkpt lat="44.90237798611035" lon="11.810054832400365"><ele>0.0</ele><time>2026-04-04T12:35:49.993Z</time></trkpt><trkpt lat="44.90252669038829" lon="11.81011626169227"><ele>0.0</ele><time>2026-04-04T12:35:50.993Z</time></trkpt><trkpt lat="44.90267628488128" lon="11.810169213818945"><ele>0.25</ele><time>2026-04-04T12:35:51.992Z</time></trkpt><trkpt lat="44.90282063000605" lon="11.810226590733848"><ele>0.5</ele><time>2026-04-04T12:35:52.992Z</time></trkpt><trkpt lat="44.9029661157098" lon="11.810291163357437"><ele>0.75</ele><time>2026-04-04T12:35:53.992Z</time></trkpt><trkpt lat="44.9030815254857" lon="11.810349212813541"><ele>1.0</ele><time>2026-04-04T12:35:54.992Z</time></trkpt><trkpt lat="44.90317403991087" lon="11.810422679933922"><ele>0.9999999999999999</ele><time>2026-04-04T12:35:55.992Z</time></trkpt><trkpt lat="44.903259088201295" lon="11.81046670162391"><ele>1.0</ele><time>2026-04-04T12:35:56.992Z</time></trkpt><trkpt lat="44.90333991582074" lon="11.810539568948842"><ele>1.0</ele><time>2026-04-04T12:35:57.992Z</time></trkpt><trkpt lat="44.9033811391388" lon="11.810614286826723"><ele>1.0</ele><time>2026-04-04T12:35:58.992Z</time></trkpt><trkpt lat="44.90342784047831" lon="11.81067616983045"><ele>0.9999999999999999</ele><time>2026-04-04T12:35:59.992Z</time></trkpt><trkpt lat="44.9034626176173" lon="11.810766968312993"><ele>1.0</ele><time>2026-04-04T12:36:00.992Z</time></trkpt><trkpt lat="44.90351888311733" lon="11.810873295068479"><ele>1.0</ele><time>2026-04-04T12:36:01.992Z</time></trkpt><trkpt lat="44.90358808910247" lon="11.81096640919316"><ele>1.0</ele><time>2026-04-04T12:36:02.992Z</time></trkpt><trkpt lat="44.90367449910951" lon="11.811012137762555"><ele>1.0</ele><time>2026-04-04T12:36:03.992Z</time></trkpt><trkpt lat="44.90375719622476" lon="11.810998230964906"><ele>1.0</ele><time>2026-04-04T12:36:04.992Z</time></trkpt><trkpt lat="44.90385448342113" lon="11.810927811078615"><ele>1.0</ele><time>2026-04-04T12:36:05.992Z</time></trkpt><trkpt lat="44.903923943532924" lon="11.810798581321395"><ele>1.0</ele><time>2026-04-04T12:36:06.992Z</time></trkpt><trkpt lat="44.903956333361315" lon="11.810674639702162"><ele>1.0</ele><time>2026-04-04T12:36:07.992Z</time></trkpt><trkpt lat="44.90393005863989" lon="11.81048470284187"><ele>1.0</ele><time>2026-04-04T12:36:08.992Z</time></trkpt><trkpt lat="44.90389126565331" lon="11.810312919315146"><ele>1.0</ele><time>2026-04-04T12:36:09.992Z</time></trkpt><trkpt lat="44.90390077344166" lon="11.810126233764663"><ele>1.0</ele><time>2026-04-04T12:36:10.992Z</time></trkpt><trkpt lat="44.90396873796157" lon="11.80996480403507"><ele>1.0</ele><time>2026-04-04T12:36:11.992Z</time></trkpt><trkpt lat="44.904082720221886" lon="11.809794340380494"><ele>1.0</ele><time>2026-04-04T12:36:12.992Z</time></trkpt><trkpt lat="44.90418686614108" lon="11.809603394761336"><ele>2.3333333333333335</ele><time>2026-04-04T12:36:13.992Z</time></trkpt><trkpt lat="44.9042886153732" lon="11.809386454016723"><ele>3.666666666666667</ele><time>2026-04-04T12:36:14.992Z</time></trkpt><trkpt lat="44.90437719645257" lon="11.809168358885985"><ele>5.0</ele><time>2026-04-04T12:36:15.992Z</time></trkpt><trkpt lat="44.90444937292433" lon="11.808918738227847"><ele>5.0</ele><time>2026-04-04T12:36:16.992Z</time></trkpt><trkpt lat="44.90450789265093" lon="11.80869572723057"><ele>5.0</ele><time>2026-04-04T12:36:17.992Z</time></trkpt><trkpt lat="44.904553409072705" lon="11.808482603905615"><ele>5.0</ele><time>2026-04-04T12:36:18.992Z</time></trkpt><trkpt lat="44.90461241695859" lon="11.808295606731416"><ele>4.5</ele><time>2026-04-04T12:36:19.992Z</time></trkpt><trkpt lat="44.90467285005609" lon="11.80812366399762"><ele>4.0</ele><time>2026-04-04T12:36:20.992Z</time></trkpt><trkpt lat="44.90473221340793" lon="11.807942840978576"><ele>3.5</ele><time>2026-04-04T12:36:21.992Z</time></trkpt><trkpt lat="44.904796392222885" lon="11.807740309838739"><ele>3.0</ele><time>2026-04-04T12:36:22.992Z</time></trkpt><trkpt lat="44.90484971835698" lon="11.807528631075783"><ele>3.0</ele><time>2026-04-04T12:36:23.992Z</time></trkpt><trkpt lat="44.90492428011962" lon="11.80731715653265"><ele>3.0</ele><time>2026-04-04T12:36:24.992Z</time></trkpt><trkpt lat="44.90499203511185" lon="11.807085887878563"><ele>3.0</ele><time>2026-04-04T12:36:25.992Z</time></trkpt><trkpt lat="44.90506587692743" lon="11.806852247960252"><ele>2.3333333333333335</ele><time>2026-04-04T12:36:26.992Z</time></trkpt><trkpt lat="44.90514015753449" lon="11.806600839114012"><ele>1.6666666666666665</ele><time>2026-04-04T12:36:27.992Z</time></trkpt><trkpt lat="44.90521397580252" lon="11.806348347386802"><ele>1.0</ele><time>2026-04-04T12:36:28.992Z</time></trkpt><trkpt lat="44.90528908964127" lon="11.806094646478316"><ele>1.3333333333333333</ele><time>2026-04-04T12:36:29.992Z</time></trkpt><trkpt lat="44.90535155381776" lon="11.805840048411634"><ele>1.6666666666666665</ele><time>2026-04-04T12:36:30.992Z</time></trkpt><trkpt lat="44.90541302996047" lon="11.805585086352115"><ele>2.0</ele><time>2026-04-04T12:36:31.992Z</time></trkpt><trkpt lat="44.9054763122866" lon="11.805310134460319"><ele>1.6666666666666665</ele><time>2026-04-04T12:36:32.992Z</time></trkpt><trkpt lat="44.9055314503193" lon="11.805031693182652"><ele>1.3333333333333333</ele><time>2026-04-04T12:36:33.992Z</time></trkpt><trkpt lat="44.90558398510888" lon="11.804762428524691"><ele>1.0</ele><time>2026-04-04T12:36:34.992Z</time></trkpt><trkpt lat="44.905630259438" lon="11.80449559359115"><ele>1.0</ele><time>2026-04-04T12:36:35.992Z</time></trkpt><trkpt lat="44.90566947623608" lon="11.80420906443692"><ele>1.0</ele><time>2026-04-04T12:36:36.992Z</time></trkpt><trkpt lat="44.90570534027147" lon="11.803925502460395"><ele>1.0</ele><time>2026-04-04T12:36:37.992Z</time></trkpt><trkpt lat="44.90573343205494" lon="11.803651350763461"><ele>1.0</ele><time>2026-04-04T12:36:38.992Z</time></trkpt><trkpt lat="44.90576041138697" lon="11.803377361641122"><ele>1.0</ele><time>2026-04-04T12:36:39.992Z</time></trkpt><trkpt lat="44.90578386871538" lon="11.803097146296265"><ele>1.0</ele><time>2026-04-04T12:36:40.992Z</time></trkpt><trkpt lat="44.905798954157355" lon="11.802811508618534"><ele>1.0</ele><time>2026-04-04T12:36:41.992Z</time></trkpt><trkpt lat="44.90580645847804" lon="11.802522126518392"><ele>1.0</ele><time>2026-04-04T12:36:42.992Z</time></trkpt><trkpt lat="44.90581065031876" lon="11.802221248741464"><ele>1.0</ele><time>2026-04-04T12:36:43.992Z</time></trkpt><trkpt lat="44.905808543139095" lon="11.801921922449896"><ele>1.0</ele><time>2026-04-04T12:36:44.992Z</time></trkpt><trkpt lat="44.90580785647022" lon="11.80162486092187"><ele>1.0</ele><time>2026-04-04T12:36:45.992Z</time></trkpt><trkpt lat="44.90581396139327" lon="11.801353852166736"><ele>1.0</ele><time>2026-04-04T12:36:46.992Z</time></trkpt><trkpt lat="44.90581265164003" lon="11.801085591410144"><ele>1.3333333333333333</ele><time>2026-04-04T12:36:47.992Z</time></trkpt><trkpt lat="44.90583772216518" lon="11.800797132354935"><ele>1.6666666666666665</ele><time>2026-04-04T12:36:48.992Z</time></trkpt><trkpt lat="44.905837734380036" lon="11.800504672389163"><ele>2.0</ele><time>2026-04-04T12:36:49.992Z</time></trkpt><trkpt lat="44.90583889984282" lon="11.800231657689936"><ele>2.333333333333333</ele><time>2026-04-04T12:36:50.992Z</time></trkpt><trkpt lat="44.90583530064312" lon="11.799961347392955"><ele>2.6666666666666665</ele><time>2026-04-04T12:36:51.992Z</time></trkpt><trkpt lat="44.90583895961615" lon="11.799673200388472"><ele>3.0</ele><time>2026-04-04T12:36:52.992Z</time></trkpt><trkpt lat="44.905849014333285" lon="11.79940599813987"><ele>3.0</ele><time>2026-04-04T12:36:53.992Z</time></trkpt><trkpt lat="44.90586138833394" lon="11.799150761423675"><ele>3.0</ele><time>2026-04-04T12:36:54.992Z</time></trkpt><trkpt lat="44.90586892591216" lon="11.798889011616245"><ele>3.0</ele><time>2026-04-04T12:36:55.992Z</time></trkpt><trkpt lat="44.90589851366704" lon="11.7986401146539"><ele>2.6666666666666665</ele><time>2026-04-04T12:36:56.992Z</time></trkpt><trkpt lat="44.90596359778493" lon="11.79838550873389"><ele>2.333333333333333</ele><time>2026-04-04T12:36:57.992Z</time></trkpt><trkpt lat="44.906056651554316" lon="11.798125884884785"><ele>2.0</ele><time>2026-04-04T12:36:58.992Z</time></trkpt><trkpt lat="44.90617711891154" lon="11.797873483471143"><ele>2.0</ele><time>2026-04-04T12:36:59.992Z</time></trkpt><trkpt lat="44.90631644997905" lon="11.797671527678922"><ele>2.0</ele><time>2026-04-04T12:37:00.992Z</time></trkpt><trkpt lat="44.90647763797577" lon="11.797489218171556"><ele>2.0</ele><time>2026-04-04T12:37:01.992Z</time></trkpt><trkpt lat="44.90666159510965" lon="11.79733591688954"><ele>1.3333333333333333</ele><time>2026-04-04T12:37:02.992Z</time></trkpt><trkpt lat="44.90686334648943" lon="11.797212990921597"><ele>0.6666666666666666</ele><time>2026-04-04T12:37:03.992Z</time></trkpt><trkpt lat="44.90708182949796" lon="11.797135224100192"><ele>0.0</ele><time>2026-04-04T12:37:04.992Z</time></trkpt><trkpt lat="44.90729217874798" lon="11.797085890930129"><ele>0.0</ele><time>2026-04-04T12:37:05.992Z</time></trkpt><trkpt lat="44.907505918721675" lon="11.797029857055218"><ele>0.0</ele><time>2026-04-04T12:37:06.992Z</time></trkpt><trkpt lat="44.90770623612046" lon="11.796996875786428"><ele>0.0</ele><time>2026-04-04T12:37:07.992Z</time></trkpt><trkpt lat="44.907906465871065" lon="11.796960980189615"><ele>0.0</ele><time>2026-04-04T12:37:08.992Z</time></trkpt><trkpt lat="44.908097827443136" lon="11.796923936796597"><ele>0.0</ele><time>2026-04-04T12:37:09.992Z</time></trkpt><trkpt lat="44.908297767026596" lon="11.796868215693438"><ele>0.0</ele><time>2026-04-04T12:37:10.992Z</time></trkpt><trkpt lat="44.90848667150735" lon="11.796813196744164"><ele>0.3333333333333333</ele><time>2026-04-04T12:37:11.992Z</time></trkpt><trkpt lat="44.90867717701563" lon="11.796726988514305"><ele>0.6666666666666666</ele><time>2026-04-04T12:37:12.992Z</time></trkpt><trkpt lat="44.908864593496965" lon="11.79662480695009"><ele>1.0</ele><time>2026-04-04T12:37:13.992Z</time></trkpt><trkpt lat="44.909040794881385" lon="11.796486621292159"><ele>1.0</ele><time>2026-04-04T12:37:14.992Z</time></trkpt><trkpt lat="44.909208525739274" lon="11.796337509953652"><ele>1.0</ele><time>2026-04-04T12:37:15.992Z</time></trkpt><trkpt lat="44.90937079599799" lon="11.796184101341366"><ele>1.0</ele><time>2026-04-04T12:37:16.992Z</time></trkpt><trkpt lat="44.90952185922899" lon="11.796003669617832"><ele>0.6666666666666666</ele><time>2026-04-04T12:37:17.992Z</time></trkpt><trkpt lat="44.909677521601914" lon="11.79578961691773"><ele>0.3333333333333333</ele><time>2026-04-04T12:37:18.991Z</time></trkpt><trkpt lat="44.90982882981715" lon="11.795559684956615"><ele>0.0</ele><time>2026-04-04T12:37:19.991Z</time></trkpt><trkpt lat="44.90997035194686" lon="11.79528415218402"><ele>1.0</ele><time>2026-04-04T12:37:20.991Z</time></trkpt><trkpt lat="44.91009572015483" lon="11.795004671245366"><ele>2.0</ele><time>2026-04-04T12:37:21.991Z</time></trkpt><trkpt lat="44.910204424895284" lon="11.79470386277927"><ele>2.0</ele><time>2026-04-04T12:37:22.991Z</time></trkpt><trkpt lat="44.910297621662366" lon="11.794408526576326"><ele>2.0</ele><time>2026-04-04T12:37:23.991Z</time></trkpt><trkpt lat="44.91038942775988" lon="11.79411352107727"><ele>2.0</ele><time>2026-04-04T12:37:24.991Z</time></trkpt><trkpt lat="44.91048220016855" lon="11.793816026797675"><ele>2.0</ele><time>2026-04-04T12:37:25.991Z</time></trkpt><trkpt lat="44.91057506306936" lon="11.793516915654576"><ele>1.5</ele><time>2026-04-04T12:37:26.991Z</time></trkpt><trkpt lat="44.91067976390804" lon="11.793226390907552"><ele>1.0</ele><time>2026-04-04T12:37:27.991Z</time></trkpt><trkpt lat="44.91078871035723" lon="11.792940208583216"><ele>1.0</ele><time>2026-04-04T12:37:28.991Z</time></trkpt><trkpt lat="44.91088969939186" lon="11.79266794399637"><ele>1.0</ele><time>2026-04-04T12:37:29.991Z</time></trkpt><trkpt lat="44.91098027393798" lon="11.792384610542978"><ele>1.0</ele><time>2026-04-04T12:37:30.991Z</time></trkpt><trkpt lat="44.911062649326496" lon="11.792087174345111"><ele>0.5</ele><time>2026-04-04T12:37:31.991Z</time></trkpt><trkpt lat="44.91111001178752" lon="11.791786069131481"><ele>0.0</ele><time>2026-04-04T12:37:32.991Z</time></trkpt><trkpt lat="44.91115113288439" lon="11.791452407487322"><ele>0.0</ele><time>2026-04-04T12:37:33.991Z</time></trkpt><trkpt lat="44.91115850230756" lon="11.791126263874526"><ele>0.0</ele><time>2026-04-04T12:37:34.991Z</time></trkpt><trkpt lat="44.911147736756334" lon="11.790800839501523"><ele>0.3333333333333333</ele><time>2026-04-04T12:37:35.991Z</time></trkpt><trkpt lat="44.91113498622003" lon="11.790497236226427"><ele>0.6666666666666666</ele><time>2026-04-04T12:37:36.991Z</time></trkpt><trkpt lat="44.91109313427334" lon="11.790181745407176"><ele>1.0</ele><time>2026-04-04T12:37:37.991Z</time></trkpt><trkpt lat="44.911042468144835" lon="11.7898601579232"><ele>1.5</ele><time>2026-04-04T12:37:38.991Z</time></trkpt><trkpt lat="44.910994753448016" lon="11.789529990465148"><ele>2.0</ele><time>2026-04-04T12:37:39.991Z</time></trkpt><trkpt lat="44.910953773935226" lon="11.789221079678132"><ele>2.0</ele><time>2026-04-04T12:37:40.991Z</time></trkpt><trkpt lat="44.910925496436974" lon="11.788923969206913"><ele>2.0</ele><time>2026-04-04T12:37:41.991Z</time></trkpt><trkpt lat="44.91088171010406" lon="11.7886272656701"><ele>2.0</ele><time>2026-04-04T12:37:42.991Z</time></trkpt><trkpt lat="44.91084393846642" lon="11.78833815425268"><ele>2.0</ele><time>2026-04-04T12:37:43.991Z</time></trkpt><trkpt lat="44.91081168494514" lon="11.788040295085707"><ele>2.0</ele><time>2026-04-04T12:37:44.991Z</time></trkpt><trkpt lat="44.91077106914098" lon="11.787742930285521"><ele>2.0</ele><time>2026-04-04T12:37:45.991Z</time></trkpt><trkpt lat="44.910739392681556" lon="11.787458839696"><ele>2.0</ele><time>2026-04-04T12:37:46.991Z</time></trkpt><trkpt lat="44.91069484165626" lon="11.787171473945373"><ele>2.0</ele><time>2026-04-04T12:37:47.991Z</time></trkpt><trkpt lat="44.910669030739584" lon="11.786880658890563"><ele>2.0</ele><time>2026-04-04T12:37:48.991Z</time></trkpt><trkpt lat="44.91064703701065" lon="11.786595296061593"><ele>2.0</ele><time>2026-04-04T12:37:49.991Z</time></trkpt><trkpt lat="44.910625304925084" lon="11.78631746414219"><ele>2.0</ele><time>2026-04-04T12:37:50.991Z</time></trkpt><trkpt lat="44.91065132498957" lon="11.786030928951691"><ele>2.0</ele><time>2026-04-04T12:37:51.991Z</time></trkpt><trkpt lat="44.91068836007906" lon="11.785729633673046"><ele>1.6666666666666665</ele><time>2026-04-04T12:37:52.991Z</time></trkpt><trkpt lat="44.91073449786278" lon="11.785457387584142"><ele>1.3333333333333333</ele><time>2026-04-04T12:37:53.991Z</time></trkpt><trkpt lat="44.910789486975744" lon="11.785207550099425"><ele>1.0</ele><time>2026-04-04T12:37:54.991Z</time></trkpt><trkpt lat="44.910851418131" lon="11.784965108212784"><ele>0.6666666666666666</ele><time>2026-04-04T12:37:55.991Z</time></trkpt><trkpt lat="44.91092651026864" lon="11.784733682601516"><ele>0.3333333333333333</ele><time>2026-04-04T12:37:56.991Z</time></trkpt><trkpt lat="44.91101608004144" lon="11.78450872704016"><ele>0.0</ele><time>2026-04-04T12:37:57.991Z</time></trkpt><trkpt lat="44.911113223417985" lon="11.784275639855792"><ele>0.0</ele><time>2026-04-04T12:37:58.991Z</time></trkpt><trkpt lat="44.9112448517235" lon="11.784061680427119"><ele>0.0</ele><time>2026-04-04T12:37:59.991Z</time></trkpt><trkpt lat="44.911397471801294" lon="11.783821973761246"><ele>0.0</ele><time>2026-04-04T12:38:00.991Z</time></trkpt><trkpt lat="44.91157968549395" lon="11.78358700236158"><ele>1.0</ele><time>2026-04-04T12:38:01.991Z</time></trkpt><trkpt lat="44.911760719270774" lon="11.78335296954924"><ele>2.0</ele><time>2026-04-04T12:38:02.991Z</time></trkpt><trkpt lat="44.911945052498254" lon="11.783115477342301"><ele>2.0</ele><time>2026-04-04T12:38:03.991Z</time></trkpt><trkpt lat="44.91212664715434" lon="11.782884789056547"><ele>2.0</ele><time>2026-04-04T12:38:04.991Z</time></trkpt><trkpt lat="44.91229269107607" lon="11.782652992571476"><ele>2.0</ele><time>2026-04-04T12:38:05.991Z</time></trkpt><trkpt lat="44.91246741776523" lon="11.782440966744556"><ele>2.0</ele><time>2026-04-04T12:38:06.991Z</time></trkpt><trkpt lat="44.912634873900394" lon="11.782212346321272"><ele>1.5</ele><time>2026-04-04T12:38:07.991Z</time></trkpt><trkpt lat="44.912806424269306" lon="11.781983270027386"><ele>1.0</ele><time>2026-04-04T12:38:08.991Z</time></trkpt><trkpt lat="44.91298866626639" lon="11.781744875668966"><ele>1.0</ele><time>2026-04-04T12:38:09.991Z</time></trkpt><trkpt lat="44.91316704938777" lon="11.781514118705694"><ele>1.0</ele><time>2026-04-04T12:38:10.991Z</time></trkpt><trkpt lat="44.91334364623312" lon="11.781278623287163"><ele>1.0</ele><time>2026-04-04T12:38:11.991Z</time></trkpt><trkpt lat="44.91352054244333" lon="11.781044147404305"><ele>1.0</ele><time>2026-04-04T12:38:12.991Z</time></trkpt><trkpt lat="44.913699579577745" lon="11.780809824296233"><ele>0.5</ele><time>2026-04-04T12:38:13.991Z</time></trkpt><trkpt lat="44.913877221618236" lon="11.780572749512961"><ele>0.0</ele><time>2026-04-04T12:38:14.991Z</time></trkpt><trkpt lat="44.91405660446973" lon="11.780337906686137"><ele>0.5</ele><time>2026-04-04T12:38:15.991Z</time></trkpt><trkpt lat="44.91423205891122" lon="11.780104906258215"><ele>1.0</ele><time>2026-04-04T12:38:16.991Z</time></trkpt><trkpt lat="44.91440470998143" lon="11.779876890452766"><ele>1.0</ele><time>2026-04-04T12:38:17.991Z</time></trkpt><trkpt lat="44.914579653319045" lon="11.779647487082638"><ele>1.0</ele><time>2026-04-04T12:38:18.991Z</time></trkpt><trkpt lat="44.914756664430506" lon="11.779411837258454"><ele>1.5</ele><time>2026-04-04T12:38:19.991Z</time></trkpt><trkpt lat="44.91493479241965" lon="11.77917647482013"><ele>2.0</ele><time>2026-04-04T12:38:20.991Z</time></trkpt><trkpt lat="44.91511405791903" lon="11.778936107175895"><ele>1.5</ele><time>2026-04-04T12:38:21.991Z</time></trkpt><trkpt lat="44.91530033116228" lon="11.778691946086548"><ele>1.0</ele><time>2026-04-04T12:38:22.991Z</time></trkpt><trkpt lat="44.91548629062879" lon="11.778448439528939"><ele>1.0</ele><time>2026-04-04T12:38:23.991Z</time></trkpt><trkpt lat="44.91566613949496" lon="11.778203582625649"><ele>1.0</ele><time>2026-04-04T12:38:24.991Z</time></trkpt><trkpt lat="44.91583861063443" lon="11.777976691491714"><ele>0.5</ele><time>2026-04-04T12:38:25.991Z</time></trkpt><trkpt lat="44.91601315375195" lon="11.777745454599623"><ele>0.0</ele><time>2026-04-04T12:38:26.991Z</time></trkpt><trkpt lat="44.91619311782782" lon="11.777505562967496"><ele>1.0</ele><time>2026-04-04T12:38:27.991Z</time></trkpt><trkpt lat="44.91637479414226" lon="11.777262602393636"><ele>2.0</ele><time>2026-04-04T12:38:28.991Z</time></trkpt><trkpt lat="44.91655499169536" lon="11.777024133759003"><ele>1.5</ele><time>2026-04-04T12:38:29.991Z</time></trkpt><trkpt lat="44.916727764274405" lon="11.776789328917975"><ele>1.0</ele><time>2026-04-04T12:38:30.991Z</time></trkpt><trkpt lat="44.91690577240647" lon="11.776557332049887"><ele>2.0</ele><time>2026-04-04T12:38:31.991Z</time></trkpt><trkpt lat="44.917081040325826" lon="11.776322418826062"><ele>3.0</ele><time>2026-04-04T12:38:32.991Z</time></trkpt><trkpt lat="44.91725039149114" lon="11.776089721910855"><ele>2.5</ele><time>2026-04-04T12:38:33.991Z</time></trkpt><trkpt lat="44.917428706274386" lon="11.77585634481887"><ele>2.0</ele><time>2026-04-04T12:38:34.991Z</time></trkpt><trkpt lat="44.91760263361756" lon="11.775634987585386"><ele>2.0</ele><time>2026-04-04T12:38:35.991Z</time></trkpt><trkpt lat="44.91777458233813" lon="11.775400531709574"><ele>2.0</ele><time>2026-04-04T12:38:36.991Z</time></trkpt><trkpt lat="44.91794337687693" lon="11.775167169606313"><ele>1.5</ele><time>2026-04-04T12:38:37.991Z</time></trkpt><trkpt lat="44.91811026330749" lon="11.774952488474355"><ele>1.0</ele><time>2026-04-04T12:38:38.991Z</time></trkpt><trkpt lat="44.91827652359882" lon="11.774732581029921"><ele>1.0</ele><time>2026-04-04T12:38:39.991Z</time></trkpt><trkpt lat="44.918446562871196" lon="11.77452130719971"><ele>1.0</ele><time>2026-04-04T12:38:40.991Z</time></trkpt><trkpt lat="44.91860767290219" lon="11.77429175830172"><ele>2.0</ele><time>2026-04-04T12:38:41.991Z</time></trkpt><trkpt lat="44.91877426756548" lon="11.774068013632808"><ele>3.0</ele><time>2026-04-04T12:38:42.991Z</time></trkpt><trkpt lat="44.918934379052665" lon="11.773847880084334"><ele>3.0</ele><time>2026-04-04T12:38:43.991Z</time></trkpt><trkpt lat="44.91909283310852" lon="11.773631144148608"><ele>3.0</ele><time>2026-04-04T12:38:44.991Z</time></trkpt><trkpt lat="44.919251017255675" lon="11.773416302451214"><ele>3.0</ele><time>2026-04-04T12:38:45.99Z</time></trkpt><trkpt lat="44.919402655845886" lon="11.773213304894755"><ele>3.333333333333333</ele><time>2026-04-04T12:38:46.99Z</time></trkpt><trkpt lat="44.91955186241688" lon="11.773025284029316"><ele>3.6666666666666665</ele><time>2026-04-04T12:38:47.99Z</time></trkpt><trkpt lat="44.91969164320268" lon="11.772834014534991"><ele>4.0</ele><time>2026-04-04T12:38:48.99Z</time></trkpt><trkpt lat="44.91983206597819" lon="11.772649351290243"><ele>3.0</ele><time>2026-04-04T12:38:49.99Z</time></trkpt><trkpt lat="44.91996943898226" lon="11.772480056089249"><ele>2.0</ele><time>2026-04-04T12:38:50.99Z</time></trkpt><trkpt lat="44.92012738233946" lon="11.772316182742207"><ele>1.0</ele><time>2026-04-04T12:38:51.99Z</time></trkpt><trkpt lat="44.920302462619134" lon="11.772170445317709"><ele>1.0</ele><time>2026-04-04T12:38:52.99Z</time></trkpt><trkpt lat="44.92051026167883" lon="11.772087886835886"><ele>1.0</ele><time>2026-04-04T12:38:53.99Z</time></trkpt><trkpt lat="44.92072663862197" lon="11.772012099480518"><ele>1.0</ele><time>2026-04-04T12:38:54.99Z</time></trkpt><trkpt lat="44.920955725607335" lon="11.771908644091413"><ele>1.0</ele><time>2026-04-04T12:38:55.99Z</time></trkpt><trkpt lat="44.92118223207301" lon="11.77181293345434"><ele>1.0</ele><time>2026-04-04T12:38:56.99Z</time></trkpt><trkpt lat="44.92140768569071" lon="11.771703650863895"><ele>1.0</ele><time>2026-04-04T12:38:57.99Z</time></trkpt><trkpt lat="44.921633522082345" lon="11.77159215441128"><ele>1.0</ele><time>2026-04-04T12:38:58.99Z</time></trkpt><trkpt lat="44.92185566818392" lon="11.771487795579162"><ele>1.0</ele><time>2026-04-04T12:38:59.99Z</time></trkpt><trkpt lat="44.922071581142994" lon="11.771387507782302"><ele>1.0</ele><time>2026-04-04T12:39:00.99Z</time></trkpt><trkpt lat="44.922280754567076" lon="11.771291992897618"><ele>1.0</ele><time>2026-04-04T12:39:01.99Z</time></trkpt><trkpt lat="44.92248850482867" lon="11.771185846824862"><ele>0.6666666666666666</ele><time>2026-04-04T12:39:02.99Z</time></trkpt><trkpt lat="44.92270373898387" lon="11.771084608059553"><ele>0.3333333333333333</ele><time>2026-04-04T12:39:03.99Z</time></trkpt><trkpt lat="44.92291303256613" lon="11.770990545776018"><ele>0.0</ele><time>2026-04-04T12:39:04.99Z</time></trkpt><trkpt lat="44.923120277863525" lon="11.77089232986084"><ele>0.6666666666666666</ele><time>2026-04-04T12:39:05.99Z</time></trkpt><trkpt lat="44.923330709683064" lon="11.770795338171002"><ele>1.3333333333333333</ele><time>2026-04-04T12:39:06.99Z</time></trkpt><trkpt lat="44.92354121922507" lon="11.770694067544422"><ele>2.0</ele><time>2026-04-04T12:39:07.99Z</time></trkpt><trkpt lat="44.923744548572266" lon="11.7705992766037"><ele>2.0</ele><time>2026-04-04T12:39:08.99Z</time></trkpt><trkpt lat="44.92394188597483" lon="11.770508617847462"><ele>2.0</ele><time>2026-04-04T12:39:09.99Z</time></trkpt><trkpt lat="44.92413969504449" lon="11.770412640841188"><ele>2.0</ele><time>2026-04-04T12:39:10.99Z</time></trkpt><trkpt lat="44.92434288277268" lon="11.77031645238456"><ele>2.0</ele><time>2026-04-04T12:39:11.99Z</time></trkpt><trkpt lat="44.924549137223195" lon="11.770215016084029"><ele>2.0</ele><time>2026-04-04T12:39:12.99Z</time></trkpt><trkpt lat="44.9247624718404" lon="11.770119471745023"><ele>2.0</ele><time>2026-04-04T12:39:13.99Z</time></trkpt><trkpt lat="44.924967028951805" lon="11.770020381515694"><ele>2.333333333333333</ele><time>2026-04-04T12:39:14.99Z</time></trkpt><trkpt lat="44.92516796931739" lon="11.76991964520764"><ele>2.6666666666666665</ele><time>2026-04-04T12:39:15.99Z</time></trkpt><trkpt lat="44.925357870771855" lon="11.769835542797132"><ele>3.0</ele><time>2026-04-04T12:39:16.99Z</time></trkpt><trkpt lat="44.925544205930684" lon="11.769755968461608"><ele>3.0</ele><time>2026-04-04T12:39:17.99Z</time></trkpt><trkpt lat="44.925729897313985" lon="11.769675280159657"><ele>3.0</ele><time>2026-04-04T12:39:18.99Z</time></trkpt><trkpt lat="44.925917482036034" lon="11.7695888662007"><ele>3.0</ele><time>2026-04-04T12:39:19.99Z</time></trkpt><trkpt lat="44.926106267634935" lon="11.769497863394646"><ele>2.6666666666666665</ele><time>2026-04-04T12:39:20.99Z</time></trkpt><trkpt lat="44.92629722554883" lon="11.76939373703221"><ele>2.333333333333333</ele><time>2026-04-04T12:39:21.99Z</time></trkpt><trkpt lat="44.92647199794852" lon="11.769225230747391"><ele>2.0</ele><time>2026-04-04T12:39:22.99Z</time></trkpt><trkpt lat="44.92664411592241" lon="11.769034699688085"><ele>2.0</ele><time>2026-04-04T12:39:23.99Z</time></trkpt><trkpt lat="44.926814449029635" lon="11.768855612598703"><ele>2.0</ele><time>2026-04-04T12:39:24.99Z</time></trkpt><trkpt lat="44.92698775086699" lon="11.768699658281388"><ele>2.0</ele><time>2026-04-04T12:39:25.99Z</time></trkpt><trkpt lat="44.927163892379944" lon="11.768530419765487"><ele>2.0</ele><time>2026-04-04T12:39:26.99Z</time></trkpt><trkpt lat="44.92734252532996" lon="11.76836272813693"><ele>2.0</ele><time>2026-04-04T12:39:27.99Z</time></trkpt><trkpt lat="44.927527812646154" lon="11.768188221190865"><ele>2.0</ele><time>2026-04-04T12:39:28.99Z</time></trkpt><trkpt lat="44.92770357438112" lon="11.768014537918678"><ele>2.0</ele><time>2026-04-04T12:39:29.99Z</time></trkpt><trkpt lat="44.92787743497391" lon="11.767848360432446"><ele>2.0</ele><time>2026-04-04T12:39:30.99Z</time></trkpt><trkpt lat="44.92805728308425" lon="11.767674823774927"><ele>2.0</ele><time>2026-04-04T12:39:31.99Z</time></trkpt><trkpt lat="44.928244272065676" lon="11.767494934760432"><ele>2.333333333333333</ele><time>2026-04-04T12:39:32.99Z</time></trkpt><trkpt lat="44.928429333068905" lon="11.767313298241355"><ele>2.6666666666666665</ele><time>2026-04-04T12:39:33.99Z</time></trkpt><trkpt lat="44.92861656078141" lon="11.767140991982812"><ele>3.0</ele><time>2026-04-04T12:39:34.99Z</time></trkpt><trkpt lat="44.92880100924671" lon="11.76695429511994"><ele>3.0</ele><time>2026-04-04T12:39:35.99Z</time></trkpt><trkpt lat="44.92898532030278" lon="11.766775242060737"><ele>3.0</ele><time>2026-04-04T12:39:36.99Z</time></trkpt><trkpt lat="44.929154421685354" lon="11.766608200140272"><ele>3.0</ele><time>2026-04-04T12:39:37.99Z</time></trkpt><trkpt lat="44.92933488985987" lon="11.766439647014144"><ele>3.0</ele><time>2026-04-04T12:39:38.99Z</time></trkpt><trkpt lat="44.92952185910009" lon="11.76626680414226"><ele>3.0</ele><time>2026-04-04T12:39:39.99Z</time></trkpt><trkpt lat="44.92970978336812" lon="11.7660934348815"><ele>3.0</ele><time>2026-04-04T12:39:40.99Z</time></trkpt><trkpt lat="44.929900368395415" lon="11.76594045938432"><ele>2.6666666666666665</ele><time>2026-04-04T12:39:41.99Z</time></trkpt><trkpt lat="44.930085802893295" lon="11.765774559469646"><ele>2.333333333333333</ele><time>2026-04-04T12:39:42.99Z</time></trkpt><trkpt lat="44.93027912934882" lon="11.765636568739724"><ele>2.0</ele><time>2026-04-04T12:39:43.99Z</time></trkpt><trkpt lat="44.93048571731819" lon="11.765492775961349"><ele>2.0</ele><time>2026-04-04T12:39:44.99Z</time></trkpt><trkpt lat="44.930695007042296" lon="11.765357985091871"><ele>2.0</ele><time>2026-04-04T12:39:45.99Z</time></trkpt><trkpt lat="44.93090102140821" lon="11.765239139594811"><ele>1.6666666666666665</ele><time>2026-04-04T12:39:46.99Z</time></trkpt><trkpt lat="44.931107847250885" lon="11.765120101336493"><ele>1.3333333333333333</ele><time>2026-04-04T12:39:47.99Z</time></trkpt><trkpt lat="44.93131183273788" lon="11.765012222115352"><ele>1.0</ele><time>2026-04-04T12:39:48.99Z</time></trkpt><trkpt lat="44.93151245559915" lon="11.764919300948408"><ele>1.0</ele><time>2026-04-04T12:39:49.99Z</time></trkpt><trkpt lat="44.9317179206109" lon="11.76483834172537"><ele>1.0</ele><time>2026-04-04T12:39:50.99Z</time></trkpt><trkpt lat="44.93192451865249" lon="11.76474844264864"><ele>1.0</ele><time>2026-04-04T12:39:51.99Z</time></trkpt><trkpt lat="44.93213370580901" lon="11.764674147559843"><ele>1.3333333333333333</ele><time>2026-04-04T12:39:52.99Z</time></trkpt><trkpt lat="44.93234065691559" lon="11.76460760842053"><ele>1.6666666666666665</ele><time>2026-04-04T12:39:53.99Z</time></trkpt><trkpt lat="44.93255004836582" lon="11.764558631168065"><ele>2.0</ele><time>2026-04-04T12:39:54.99Z</time></trkpt><trkpt lat="44.93275337928474" lon="11.764513942000706"><ele>2.0</ele><time>2026-04-04T12:39:55.99Z</time></trkpt><trkpt lat="44.93296379801931" lon="11.76448120531104"><ele>2.0</ele><time>2026-04-04T12:39:56.99Z</time></trkpt><trkpt lat="44.9331722483408" lon="11.764443358406654"><ele>2.0</ele><time>2026-04-04T12:39:57.99Z</time></trkpt><trkpt lat="44.93341073336753" lon="11.764423617167916"><ele>2.0</ele><time>2026-04-04T12:39:58.99Z</time></trkpt><trkpt lat="44.93364065350658" lon="11.764401449976681"><ele>2.0</ele><time>2026-04-04T12:39:59.99Z</time></trkpt><trkpt lat="44.93387443221353" lon="11.764391487190576"><ele>2.0</ele><time>2026-04-04T12:40:00.99Z</time></trkpt><trkpt lat="44.934094822355576" lon="11.764390482515605"><ele>2.0</ele><time>2026-04-04T12:40:01.99Z</time></trkpt><trkpt lat="44.93431084139407" lon="11.764386636346211"><ele>2.0</ele><time>2026-04-04T12:40:02.99Z</time></trkpt><trkpt lat="44.93453552665172" lon="11.764385213296759"><ele>2.0</ele><time>2026-04-04T12:40:03.99Z</time></trkpt><trkpt lat="44.93476781509084" lon="11.764385099225938"><ele>2.0</ele><time>2026-04-04T12:40:04.99Z</time></trkpt><trkpt lat="44.93499409251294" lon="11.76439201907613"><ele>2.0</ele><time>2026-04-04T12:40:05.99Z</time></trkpt><trkpt lat="44.9352100417896" lon="11.7643861682143"><ele>2.0</ele><time>2026-04-04T12:40:06.99Z</time></trkpt><trkpt lat="44.93541739383711" lon="11.764376705071557"><ele>2.0</ele><time>2026-04-04T12:40:07.99Z</time></trkpt><trkpt lat="44.93563046716683" lon="11.764373578915611"><ele>2.0</ele><time>2026-04-04T12:40:08.99Z</time></trkpt><trkpt lat="44.935839907508225" lon="11.764373886032814"><ele>2.0</ele><time>2026-04-04T12:40:09.99Z</time></trkpt><trkpt lat="44.93606722232692" lon="11.764369331209718"><ele>2.0</ele><time>2026-04-04T12:40:10.99Z</time></trkpt><trkpt lat="44.93629176133918" lon="11.764363739955293"><ele>2.5</ele><time>2026-04-04T12:40:11.99Z</time></trkpt><trkpt lat="44.93651630404968" lon="11.76436068672948"><ele>3.0</ele><time>2026-04-04T12:40:12.99Z</time></trkpt><trkpt lat="44.93674481249773" lon="11.764358798661966"><ele>3.0</ele><time>2026-04-04T12:40:13.989Z</time></trkpt><trkpt lat="44.93697136869043" lon="11.764355883840992"><ele>3.0</ele><time>2026-04-04T12:40:14.989Z</time></trkpt><trkpt lat="44.93720624342745" lon="11.764352100820316"><ele>3.0</ele><time>2026-04-04T12:40:15.989Z</time></trkpt><trkpt lat="44.93744135008626" lon="11.764345117365702"><ele>3.0</ele><time>2026-04-04T12:40:16.989Z</time></trkpt><trkpt lat="44.937677466477645" lon="11.764344786377318"><ele>3.0</ele><time>2026-04-04T12:40:17.989Z</time></trkpt><trkpt lat="44.93791357295247" lon="11.764340545130732"><ele>3.0</ele><time>2026-04-04T12:40:18.989Z</time></trkpt><trkpt lat="44.93814876513455" lon="11.764341708739622"><ele>3.0</ele><time>2026-04-04T12:40:19.989Z</time></trkpt><trkpt lat="44.93838389438454" lon="11.76434931232587"><ele>3.0</ele><time>2026-04-04T12:40:20.989Z</time></trkpt><trkpt lat="44.938612873568786" lon="11.764360150572482"><ele>2.3333333333333335</ele><time>2026-04-04T12:40:21.989Z</time></trkpt><trkpt lat="44.938831790102775" lon="11.764383677025126"><ele>1.6666666666666665</ele><time>2026-04-04T12:40:22.989Z</time></trkpt><trkpt lat="44.939053915381216" lon="11.764401250717754"><ele>1.0</ele><time>2026-04-04T12:40:23.989Z</time></trkpt><trkpt lat="44.93927314494864" lon="11.76442212222238"><ele>1.0</ele><time>2026-04-04T12:40:24.989Z</time></trkpt><trkpt lat="44.93949172813742" lon="11.764444820311835"><ele>1.0</ele><time>2026-04-04T12:40:25.989Z</time></trkpt><trkpt lat="44.939709310431354" lon="11.764467098818624"><ele>1.0</ele><time>2026-04-04T12:40:26.989Z</time></trkpt><trkpt lat="44.939925540769615" lon="11.76448722807176"><ele>1.6666666666666665</ele><time>2026-04-04T12:40:27.989Z</time></trkpt><trkpt lat="44.94014115783889" lon="11.764508632581144"><ele>2.3333333333333335</ele><time>2026-04-04T12:40:28.989Z</time></trkpt><trkpt lat="44.94035655571497" lon="11.764525943254277"><ele>3.0</ele><time>2026-04-04T12:40:29.989Z</time></trkpt><trkpt lat="44.940566800936814" lon="11.764536626897307"><ele>3.0</ele><time>2026-04-04T12:40:30.989Z</time></trkpt><trkpt lat="44.940764325221416" lon="11.764533211744473"><ele>3.0</ele><time>2026-04-04T12:40:31.989Z</time></trkpt><trkpt lat="44.940953023281565" lon="11.764512822796322"><ele>3.0</ele><time>2026-04-04T12:40:32.989Z</time></trkpt><trkpt lat="44.94113056761413" lon="11.764483931911517"><ele>3.0</ele><time>2026-04-04T12:40:33.989Z</time></trkpt><trkpt lat="44.94129967678328" lon="11.764413844957812"><ele>3.0</ele><time>2026-04-04T12:40:34.989Z</time></trkpt><trkpt lat="44.94147095659134" lon="11.764320275240836"><ele>3.0</ele><time>2026-04-04T12:40:35.989Z</time></trkpt><trkpt lat="44.941639511680926" lon="11.764197471981314"><ele>2.6666666666666665</ele><time>2026-04-04T12:40:36.989Z</time></trkpt><trkpt lat="44.94180256562896" lon="11.764048331763615"><ele>2.333333333333333</ele><time>2026-04-04T12:40:37.989Z</time></trkpt><trkpt lat="44.94195476388142" lon="11.763870873928218"><ele>2.0</ele><time>2026-04-04T12:40:38.989Z</time></trkpt><trkpt lat="44.94209878778498" lon="11.763687820277736"><ele>2.0</ele><time>2026-04-04T12:40:39.989Z</time></trkpt><trkpt lat="44.94223644866631" lon="11.763507961664551"><ele>2.0</ele><time>2026-04-04T12:40:40.989Z</time></trkpt><trkpt lat="44.94235815028638" lon="11.763330814748217"><ele>2.0</ele><time>2026-04-04T12:40:41.989Z</time></trkpt><trkpt lat="44.94245529617116" lon="11.763155258618106"><ele>2.0</ele><time>2026-04-04T12:40:42.989Z</time></trkpt><trkpt lat="44.94253813301135" lon="11.762960746875018"><ele>2.0</ele><time>2026-04-04T12:40:43.989Z</time></trkpt><trkpt lat="44.94261739545985" lon="11.762757044519624"><ele>2.0</ele><time>2026-04-04T12:40:44.989Z</time></trkpt><trkpt lat="44.942693805930375" lon="11.762546461185545"><ele>2.333333333333333</ele><time>2026-04-04T12:40:45.989Z</time></trkpt><trkpt lat="44.94276677233414" lon="11.762337687024111"><ele>2.6666666666666665</ele><time>2026-04-04T12:40:46.989Z</time></trkpt><trkpt lat="44.94283712371599" lon="11.762129423701712"><ele>3.0</ele><time>2026-04-04T12:40:47.989Z</time></trkpt><trkpt lat="44.94289893313498" lon="11.761927852882591"><ele>3.0</ele><time>2026-04-04T12:40:48.989Z</time></trkpt><trkpt lat="44.94295594409274" lon="11.761728763704923"><ele>3.0</ele><time>2026-04-04T12:40:49.989Z</time></trkpt><trkpt lat="44.94300903254098" lon="11.761530103171522"><ele>3.0</ele><time>2026-04-04T12:40:50.989Z</time></trkpt><trkpt lat="44.94306268143863" lon="11.761322977864163"><ele>3.0</ele><time>2026-04-04T12:40:51.989Z</time></trkpt><trkpt lat="44.94311113272967" lon="11.761105161323263"><ele>3.0</ele><time>2026-04-04T12:40:52.989Z</time></trkpt><trkpt lat="44.94315653730043" lon="11.760883164996848"><ele>3.0</ele><time>2026-04-04T12:40:53.989Z</time></trkpt><trkpt lat="44.9432015305437" lon="11.760659051505328"><ele>3.666666666666667</ele><time>2026-04-04T12:40:54.989Z</time></trkpt><trkpt lat="44.94326136130069" lon="11.760449226779965"><ele>4.333333333333334</ele><time>2026-04-04T12:40:55.989Z</time></trkpt><trkpt lat="44.94329383064056" lon="11.760240501506631"><ele>5.0</ele><time>2026-04-04T12:40:56.989Z</time></trkpt><trkpt lat="44.9433496250356" lon="11.760055935806742"><ele>4.666666666666667</ele><time>2026-04-04T12:40:57.989Z</time></trkpt><trkpt lat="44.943438698181744" lon="11.759884133061638"><ele>4.333333333333333</ele><time>2026-04-04T12:40:58.989Z</time></trkpt><trkpt lat="44.9435230669842" lon="11.759702095014802"><ele>4.0</ele><time>2026-04-04T12:40:59.989Z</time></trkpt><trkpt lat="44.94360444155521" lon="11.759523173932264"><ele>3.5</ele><time>2026-04-04T12:41:00.989Z</time></trkpt><trkpt lat="44.94368229993011" lon="11.759351982938725"><ele>3.0</ele><time>2026-04-04T12:41:01.989Z</time></trkpt><trkpt lat="44.94376323993624" lon="11.759180574273318"><ele>2.5</ele><time>2026-04-04T12:41:02.989Z</time></trkpt><trkpt lat="44.94384099532554" lon="11.759014075388514"><ele>2.0</ele><time>2026-04-04T12:41:03.989Z</time></trkpt><trkpt lat="44.94392010433496" lon="11.758844678041143"><ele>2.0</ele><time>2026-04-04T12:41:04.989Z</time></trkpt><trkpt lat="44.94400516363399" lon="11.758670250666333"><ele>2.0</ele><time>2026-04-04T12:41:05.989Z</time></trkpt><trkpt lat="44.944095495395445" lon="11.758490604775309"><ele>2.0</ele><time>2026-04-04T12:41:06.989Z</time></trkpt><trkpt lat="44.94419622402787" lon="11.758320517623662"><ele>1.6666666666666665</ele><time>2026-04-04T12:41:07.989Z</time></trkpt><trkpt lat="44.94429824521068" lon="11.758164412048142"><ele>1.3333333333333333</ele><time>2026-04-04T12:41:08.989Z</time></trkpt><trkpt lat="44.944400144598745" lon="11.75801226425549"><ele>1.0</ele><time>2026-04-04T12:41:09.989Z</time></trkpt><trkpt lat="44.94450494983267" lon="11.757856910825852"><ele>1.3333333333333333</ele><time>2026-04-04T12:41:10.989Z</time></trkpt><trkpt lat="44.94461270324938" lon="11.75769787051794"><ele>1.6666666666666665</ele><time>2026-04-04T12:41:11.989Z</time></trkpt><trkpt lat="44.94471166143486" lon="11.757520400441946"><ele>2.0</ele><time>2026-04-04T12:41:12.989Z</time></trkpt><trkpt lat="44.944820459177414" lon="11.757362616902743"><ele>2.0</ele><time>2026-04-04T12:41:13.989Z</time></trkpt><trkpt lat="44.94492433090238" lon="11.757212271199188"><ele>2.0</ele><time>2026-04-04T12:41:14.989Z</time></trkpt><trkpt lat="44.94502672485591" lon="11.757063966873792"><ele>2.0</ele><time>2026-04-04T12:41:15.989Z</time></trkpt><trkpt lat="44.94512743958549" lon="11.756920224226528"><ele>2.0</ele><time>2026-04-04T12:41:16.989Z</time></trkpt><trkpt lat="44.945229003087874" lon="11.75677803200343"><ele>2.5</ele><time>2026-04-04T12:41:17.989Z</time></trkpt><trkpt lat="44.945335347594884" lon="11.756642636336384"><ele>3.0</ele><time>2026-04-04T12:41:18.989Z</time></trkpt><trkpt lat="44.945450529244226" lon="11.756516541140739"><ele>3.5</ele><time>2026-04-04T12:41:19.989Z</time></trkpt><trkpt lat="44.94556834496922" lon="11.75639815668133"><ele>4.0</ele><time>2026-04-04T12:41:20.989Z</time></trkpt><trkpt lat="44.945685567178" lon="11.75628618747607"><ele>4.0</ele><time>2026-04-04T12:41:21.989Z</time></trkpt><trkpt lat="44.94580057483229" lon="11.756182197882959"><ele>4.0</ele><time>2026-04-04T12:41:22.989Z</time></trkpt><trkpt lat="44.9459122192474" lon="11.756079178419283"><ele>4.0</ele><time>2026-04-04T12:41:23.989Z</time></trkpt><trkpt lat="44.94602025364665" lon="11.755974357091073"><ele>4.0</ele><time>2026-04-04T12:41:24.989Z</time></trkpt><trkpt lat="44.94612828715288" lon="11.755876495021331"><ele>3.8000000000000003</ele><time>2026-04-04T12:41:25.989Z</time></trkpt><trkpt lat="44.94623317845748" lon="11.755780108825636"><ele>3.6000000000000005</ele><time>2026-04-04T12:41:26.989Z</time></trkpt><trkpt lat="44.946326832425015" lon="11.755701106217563"><ele>3.4</ele><time>2026-04-04T12:41:27.989Z</time></trkpt><trkpt lat="44.94640898464498" lon="11.755627469150934"><ele>3.2</ele><time>2026-04-04T12:41:28.989Z</time></trkpt><trkpt lat="44.94648724115085" lon="11.75556011680286"><ele>3.0</ele><time>2026-04-04T12:41:29.989Z</time></trkpt><trkpt lat="44.946561400792305" lon="11.755502762533029"><ele>3.0</ele><time>2026-04-04T12:41:30.989Z</time></trkpt><trkpt lat="44.9466316716504" lon="11.755449690911359"><ele>3.0</ele><time>2026-04-04T12:41:31.989Z</time></trkpt><trkpt lat="44.946701478514655" lon="11.75540142403323"><ele>3.0</ele><time>2026-04-04T12:41:32.989Z</time></trkpt><trkpt lat="44.946765207746225" lon="11.75535682213584"><ele>3.0</ele><time>2026-04-04T12:41:33.989Z</time></trkpt><trkpt lat="44.946861701112084" lon="11.755300085215243"><ele>3.0</ele><time>2026-04-04T12:41:35.989Z</time></trkpt><trkpt lat="44.946924615567966" lon="11.755284138322255"><ele>3.0</ele><time>2026-04-04T12:41:38.989Z</time></trkpt><trkpt lat="44.94699688773081" lon="11.755246541744652"><ele>3.2</ele><time>2026-04-04T12:41:47.988Z</time></trkpt><trkpt lat="44.94707641311831" lon="11.755255064801695"><ele>3.4</ele><time>2026-04-04T12:41:48.988Z</time></trkpt><trkpt lat="44.94717467719333" lon="11.755278298069754"><ele>3.6000000000000005</ele><time>2026-04-04T12:41:49.988Z</time></trkpt><trkpt lat="44.9472657283392" lon="11.7553222224568"><ele>3.8000000000000003</ele><time>2026-04-04T12:41:50.988Z</time></trkpt><trkpt lat="44.947365662585355" lon="11.755348535701303"><ele>4.0</ele><time>2026-04-04T12:41:51.988Z</time></trkpt><trkpt lat="44.94748602399639" lon="11.755346888465619"><ele>4.25</ele><time>2026-04-04T12:41:52.988Z</time></trkpt><trkpt lat="44.947609883268434" lon="11.75537625148292"><ele>4.5</ele><time>2026-04-04T12:41:53.988Z</time></trkpt><trkpt lat="44.947737652279855" lon="11.755411911965425"><ele>4.75</ele><time>2026-04-04T12:41:54.988Z</time></trkpt><trkpt lat="44.94787379061868" lon="11.755448153689233"><ele>5.0</ele><time>2026-04-04T12:41:55.988Z</time></trkpt><trkpt lat="44.94800508611745" lon="11.755519374025093"><ele>5.0</ele><time>2026-04-04T12:41:56.988Z</time></trkpt><trkpt lat="44.9481540360264" lon="11.755559228534167"><ele>5.0</ele><time>2026-04-04T12:41:57.988Z</time></trkpt><trkpt lat="44.9483261978595" lon="11.75560529714081"><ele>5.0</ele><time>2026-04-04T12:41:58.988Z</time></trkpt><trkpt lat="44.94850751029249" lon="11.755653814338489"><ele>5.0</ele><time>2026-04-04T12:41:59.988Z</time></trkpt><trkpt lat="44.948694484164626" lon="11.755679174519036"><ele>5.0</ele><time>2026-04-04T12:42:00.988Z</time></trkpt><trkpt lat="44.9488722344569" lon="11.755731953813406"><ele>5.0</ele><time>2026-04-04T12:42:01.988Z</time></trkpt><trkpt lat="44.949064833319575" lon="11.755783506655776"><ele>4.333333333333334</ele><time>2026-04-04T12:42:02.988Z</time></trkpt><trkpt lat="44.94925857155739" lon="11.755840356938853"><ele>3.666666666666667</ele><time>2026-04-04T12:42:03.988Z</time></trkpt><trkpt lat="44.9494544544671" lon="11.755896106757938"><ele>3.0</ele><time>2026-04-04T12:42:04.988Z</time></trkpt><trkpt lat="44.949652372464975" lon="11.75595133719069"><ele>3.0</ele><time>2026-04-04T12:42:05.988Z</time></trkpt><trkpt lat="44.949850411728946" lon="11.756013420202523"><ele>3.0</ele><time>2026-04-04T12:42:06.988Z</time></trkpt><trkpt lat="44.95005554509595" lon="11.756072186897704"><ele>3.0</ele><time>2026-04-04T12:42:07.988Z</time></trkpt><trkpt lat="44.95025991586104" lon="11.75613358315167"><ele>2.6666666666666665</ele><time>2026-04-04T12:42:08.988Z</time></trkpt><trkpt lat="44.95045789512472" lon="11.756191283545546"><ele>2.333333333333333</ele><time>2026-04-04T12:42:09.988Z</time></trkpt><trkpt lat="44.95066619447293" lon="11.75625394849003"><ele>2.0</ele><time>2026-04-04T12:42:10.988Z</time></trkpt><trkpt lat="44.95086286821983" lon="11.756305745066967"><ele>2.333333333333333</ele><time>2026-04-04T12:42:11.988Z</time></trkpt><trkpt lat="44.95106887310663" lon="11.756367818396953"><ele>2.6666666666666665</ele><time>2026-04-04T12:42:12.988Z</time></trkpt><trkpt lat="44.95128006529573" lon="11.756421599090254"><ele>3.0</ele><time>2026-04-04T12:42:13.988Z</time></trkpt><trkpt lat="44.951493699773835" lon="11.756463160275128"><ele>3.0</ele><time>2026-04-04T12:42:14.988Z</time></trkpt><trkpt lat="44.95170576982045" lon="11.75649188687849"><ele>3.0</ele><time>2026-04-04T12:42:15.988Z</time></trkpt><trkpt lat="44.95191490519561" lon="11.756514336400787"><ele>3.0</ele><time>2026-04-04T12:42:16.988Z</time></trkpt><trkpt lat="44.95212645976193" lon="11.756521800587088"><ele>3.333333333333333</ele><time>2026-04-04T12:42:17.988Z</time></trkpt><trkpt lat="44.95233934290403" lon="11.756523952485443"><ele>3.6666666666666665</ele><time>2026-04-04T12:42:18.988Z</time></trkpt><trkpt lat="44.952552500364106" lon="11.756523463181257"><ele>4.0</ele><time>2026-04-04T12:42:19.988Z</time></trkpt><trkpt lat="44.95276342630806" lon="11.756520656641568"><ele>4.333333333333333</ele><time>2026-04-04T12:42:20.988Z</time></trkpt><trkpt lat="44.952964022115445" lon="11.756539554737552"><ele>4.666666666666667</ele><time>2026-04-04T12:42:21.988Z</time></trkpt><trkpt lat="44.95317550324481" lon="11.756527309795654"><ele>5.0</ele><time>2026-04-04T12:42:22.988Z</time></trkpt><trkpt lat="44.953381630080194" lon="11.75651802609646"><ele>5.0</ele><time>2026-04-04T12:42:23.988Z</time></trkpt><trkpt lat="44.95358840948713" lon="11.756506737447927"><ele>5.0</ele><time>2026-04-04T12:42:24.988Z</time></trkpt><trkpt lat="44.95379553704673" lon="11.756499268649184"><ele>5.0</ele><time>2026-04-04T12:42:25.988Z</time></trkpt><trkpt lat="44.953997013627394" lon="11.756492469328066"><ele>5.0</ele><time>2026-04-04T12:42:26.988Z</time></trkpt><trkpt lat="44.95419236900539" lon="11.756478677689207"><ele>5.0</ele><time>2026-04-04T12:42:27.988Z</time></trkpt><trkpt lat="44.95439103385827" lon="11.756466330711383"><ele>5.0</ele><time>2026-04-04T12:42:28.988Z</time></trkpt><trkpt lat="44.95459516720437" lon="11.756456857305807"><ele>5.333333333333334</ele><time>2026-04-04T12:42:29.988Z</time></trkpt><trkpt lat="44.954790996903725" lon="11.75644292591567"><ele>5.666666666666667</ele><time>2026-04-04T12:42:30.988Z</time></trkpt><trkpt lat="44.954980417274" lon="11.75643576215609"><ele>6.0</ele><time>2026-04-04T12:42:31.988Z</time></trkpt><trkpt lat="44.95517928435318" lon="11.7564235229407"><ele>6.0</ele><time>2026-04-04T12:42:32.988Z</time></trkpt><trkpt lat="44.95538526498794" lon="11.756408470693547"><ele>6.0</ele><time>2026-04-04T12:42:33.988Z</time></trkpt><trkpt lat="44.95559231620469" lon="11.756392356132354"><ele>6.0</ele><time>2026-04-04T12:42:34.988Z</time></trkpt><trkpt lat="44.955800876413896" lon="11.756379285536072"><ele>7.0</ele><time>2026-04-04T12:42:35.988Z</time></trkpt><trkpt lat="44.956006962266635" lon="11.756367388505728"><ele>8.0</ele><time>2026-04-04T12:42:36.988Z</time></trkpt><trkpt lat="44.956212501816" lon="11.75635878400397"><ele>9.0</ele><time>2026-04-04T12:42:37.988Z</time></trkpt><trkpt lat="44.956420904438176" lon="11.756369550558665"><ele>9.0</ele><time>2026-04-04T12:42:38.988Z</time></trkpt><trkpt lat="44.95662971719615" lon="11.7563610536877"><ele>9.0</ele><time>2026-04-04T12:42:39.988Z</time></trkpt><trkpt lat="44.95683717793503" lon="11.75635268479271"><ele>9.0</ele><time>2026-04-04T12:42:40.988Z</time></trkpt><trkpt lat="44.957040859784854" lon="11.756344840540791"><ele>9.0</ele><time>2026-04-04T12:42:41.988Z</time></trkpt><trkpt lat="44.95724215656067" lon="11.75633624821536"><ele>9.0</ele><time>2026-04-04T12:42:42.988Z</time></trkpt><trkpt lat="44.95744375176436" lon="11.756327643150579"><ele>9.0</ele><time>2026-04-04T12:42:43.988Z</time></trkpt><trkpt lat="44.95764066501004" lon="11.75631923793632"><ele>7.0</ele><time>2026-04-04T12:42:44.988Z</time></trkpt><trkpt lat="44.95784374105225" lon="11.75628823722897"><ele>5.0</ele><time>2026-04-04T12:42:45.988Z</time></trkpt><trkpt lat="44.958047765570385" lon="11.756302245500075"><ele>3.0</ele><time>2026-04-04T12:42:46.988Z</time></trkpt><trkpt lat="44.958251736158935" lon="11.756293738668804"><ele>2.3333333333333335</ele><time>2026-04-04T12:42:47.988Z</time></trkpt><trkpt lat="44.95845256205557" lon="11.756285070206546"><ele>1.6666666666666665</ele><time>2026-04-04T12:42:48.988Z</time></trkpt><trkpt lat="44.958654509031234" lon="11.756275649669945"><ele>1.0</ele><time>2026-04-04T12:42:49.988Z</time></trkpt><trkpt lat="44.95885649264632" lon="11.756266227427345"><ele>1.0</ele><time>2026-04-04T12:42:50.988Z</time></trkpt><trkpt lat="44.95905849705813" lon="11.756256836030875"><ele>1.0</ele><time>2026-04-04T12:42:51.988Z</time></trkpt><trkpt lat="44.95925965694774" lon="11.756249727669987"><ele>1.0</ele><time>2026-04-04T12:42:52.988Z</time></trkpt><trkpt lat="44.959460483205184" lon="11.75624211505622"><ele>1.0</ele><time>2026-04-04T12:42:53.988Z</time></trkpt><trkpt lat="44.95966307980439" lon="11.756233931295007"><ele>1.0</ele><time>2026-04-04T12:42:54.988Z</time></trkpt><trkpt lat="44.95986376441645" lon="11.756225824759877"><ele>1.0</ele><time>2026-04-04T12:42:55.988Z</time></trkpt><trkpt lat="44.96006911076545" lon="11.75621752993446"><ele>2.0</ele><time>2026-04-04T12:42:56.988Z</time></trkpt><trkpt lat="44.96026843092946" lon="11.756209478520285"><ele>3.0</ele><time>2026-04-04T12:42:57.988Z</time></trkpt><trkpt lat="44.960472515984215" lon="11.756201236584433"><ele>4.0</ele><time>2026-04-04T12:42:58.988Z</time></trkpt><trkpt lat="44.960669822861256" lon="11.756193266502708"><ele>4.0</ele><time>2026-04-04T12:42:59.988Z</time></trkpt><trkpt lat="44.960862715343964" lon="11.756185090142768"><ele>4.0</ele><time>2026-04-04T12:43:00.988Z</time></trkpt><trkpt lat="44.96105965178045" lon="11.756175513375648"><ele>4.0</ele><time>2026-04-04T12:43:01.988Z</time></trkpt><trkpt lat="44.96125370876753" lon="11.756166937200687"><ele>5.0</ele><time>2026-04-04T12:43:02.988Z</time></trkpt><trkpt lat="44.96143978941576" lon="11.75615871353401"><ele>6.0</ele><time>2026-04-04T12:43:03.988Z</time></trkpt><trkpt lat="44.96162329890469" lon="11.756150664025368"><ele>7.0</ele><time>2026-04-04T12:43:04.988Z</time></trkpt><trkpt lat="44.96181489322603" lon="11.756143378481655"><ele>7.0</ele><time>2026-04-04T12:43:05.988Z</time></trkpt><trkpt lat="44.96200865070527" lon="11.756136010683251"><ele>7.0</ele><time>2026-04-04T12:43:06.988Z</time></trkpt><trkpt lat="44.962203940393174" lon="11.756127316523326"><ele>7.0</ele><time>2026-04-04T12:43:07.987Z</time></trkpt><trkpt lat="44.96239301081525" lon="11.756119939498484"><ele>6.666666666666667</ele><time>2026-04-04T12:43:08.987Z</time></trkpt><trkpt lat="44.96257238665773" lon="11.756113055233083"><ele>6.333333333333334</ele><time>2026-04-04T12:43:09.987Z</time></trkpt><trkpt lat="44.96273842268019" lon="11.75610648117104"><ele>6.0</ele><time>2026-04-04T12:43:10.987Z</time></trkpt><trkpt lat="44.96289421503759" lon="11.756100204510584"><ele>6.0</ele><time>2026-04-04T12:43:11.987Z</time></trkpt><trkpt lat="44.96303033920684" lon="11.756094720256453"><ele>6.0</ele><time>2026-04-04T12:43:12.987Z</time></trkpt><trkpt lat="44.963152417837215" lon="11.75608980187577"><ele>6.0</ele><time>2026-04-04T12:43:13.987Z</time></trkpt><trkpt lat="44.96326558002166" lon="11.756085242731727"><ele>6.0</ele><time>2026-04-04T12:43:14.987Z</time></trkpt><trkpt lat="44.96337450648775" lon="11.756081294196909"><ele>5.25</ele><time>2026-04-04T12:43:15.987Z</time></trkpt><trkpt lat="44.963477674695206" lon="11.756077513074638"><ele>4.5</ele><time>2026-04-04T12:43:16.987Z</time></trkpt><trkpt lat="44.96359714825345" lon="11.756072979898523"><ele>3.75</ele><time>2026-04-04T12:43:17.987Z</time></trkpt><trkpt lat="44.96372403151339" lon="11.756068165576025"><ele>3.0</ele><time>2026-04-04T12:43:18.987Z</time></trkpt><trkpt lat="44.96386114136017" lon="11.756062484834791"><ele>2.6666666666666665</ele><time>2026-04-04T12:43:19.987Z</time></trkpt><trkpt lat="44.96401241064341" lon="11.756034623946748"><ele>2.333333333333333</ele><time>2026-04-04T12:43:20.987Z</time></trkpt><trkpt lat="44.9641782051579" lon="11.756026339094754"><ele>2.0</ele><time>2026-04-04T12:43:21.987Z</time></trkpt><trkpt lat="44.964340099761955" lon="11.756021570931585"><ele>2.0</ele><time>2026-04-04T12:43:22.987Z</time></trkpt><trkpt lat="44.96450010096653" lon="11.756018141399025"><ele>2.0</ele><time>2026-04-04T12:43:23.987Z</time></trkpt><trkpt lat="44.96465827747387" lon="11.756014723931292"><ele>2.0</ele><time>2026-04-04T12:43:24.987Z</time></trkpt><trkpt lat="44.96481751876702" lon="11.756010033467863"><ele>2.0</ele><time>2026-04-04T12:43:25.987Z</time></trkpt><trkpt lat="44.96497753523141" lon="11.756006843164966"><ele>2.0</ele><time>2026-04-04T12:43:26.987Z</time></trkpt><trkpt lat="44.96514062837243" lon="11.755996059314727"><ele>2.0</ele><time>2026-04-04T12:43:27.987Z</time></trkpt><trkpt lat="44.96530449689829" lon="11.755987748025996"><ele>2.333333333333333</ele><time>2026-04-04T12:43:28.987Z</time></trkpt><trkpt lat="44.96546171416963" lon="11.755984428512708"><ele>2.6666666666666665</ele><time>2026-04-04T12:43:29.987Z</time></trkpt><trkpt lat="44.965616653141204" lon="11.755979147518962"><ele>3.0</ele><time>2026-04-04T12:43:30.987Z</time></trkpt><trkpt lat="44.96576817462758" lon="11.755976833493836"><ele>3.333333333333333</ele><time>2026-04-04T12:43:31.987Z</time></trkpt><trkpt lat="44.96592738184689" lon="11.755968533750556"><ele>3.6666666666666665</ele><time>2026-04-04T12:43:32.987Z</time></trkpt><trkpt lat="44.966083580341895" lon="11.75596344308435"><ele>4.0</ele><time>2026-04-04T12:43:33.987Z</time></trkpt><trkpt lat="44.9662448645324" lon="11.755956685794121"><ele>4.0</ele><time>2026-04-04T12:43:34.987Z</time></trkpt><trkpt lat="44.96640359925247" lon="11.755952467314694"><ele>4.0</ele><time>2026-04-04T12:43:35.987Z</time></trkpt><trkpt lat="44.96655524020049" lon="11.755944548545985"><ele>4.0</ele><time>2026-04-04T12:43:36.987Z</time></trkpt><trkpt lat="44.96669729492528" lon="11.755927660646325"><ele>3.75</ele><time>2026-04-04T12:43:37.987Z</time></trkpt><trkpt lat="44.966831880722594" lon="11.755910298333387"><ele>3.5</ele><time>2026-04-04T12:43:38.987Z</time></trkpt><trkpt lat="44.96697175163931" lon="11.755875177070154"><ele>3.25</ele><time>2026-04-04T12:43:39.987Z</time></trkpt><trkpt lat="44.96710645949447" lon="11.755823093484736"><ele>3.0</ele><time>2026-04-04T12:43:40.987Z</time></trkpt><trkpt lat="44.96722588776402" lon="11.755764363869615"><ele>3.0</ele><time>2026-04-04T12:43:41.987Z</time></trkpt><trkpt lat="44.96735131013976" lon="11.755699311162072"><ele>3.0</ele><time>2026-04-04T12:43:42.987Z</time></trkpt><trkpt lat="44.96747557653626" lon="11.75561938851692"><ele>3.0</ele><time>2026-04-04T12:43:43.987Z</time></trkpt><trkpt lat="44.96759629929639" lon="11.755537742433223"><ele>3.0</ele><time>2026-04-04T12:43:44.987Z</time></trkpt><trkpt lat="44.96772428500827" lon="11.755456540604586"><ele>3.0</ele><time>2026-04-04T12:43:45.987Z</time></trkpt><trkpt lat="44.967854910990965" lon="11.755371812494065"><ele>3.0</ele><time>2026-04-04T12:43:46.987Z</time></trkpt><trkpt lat="44.96799389275706" lon="11.755278348446128"><ele>3.0</ele><time>2026-04-04T12:43:47.987Z</time></trkpt><trkpt lat="44.96813568914146" lon="11.755179046615089"><ele>2.6666666666666665</ele><time>2026-04-04T12:43:48.987Z</time></trkpt><trkpt lat="44.96828124854753" lon="11.755082837477278"><ele>2.333333333333333</ele><time>2026-04-04T12:43:49.987Z</time></trkpt><trkpt lat="44.968423549450044" lon="11.754993216755146"><ele>2.0</ele><time>2026-04-04T12:43:50.987Z</time></trkpt><trkpt lat="44.96856524422136" lon="11.754895765526381"><ele>2.5</ele><time>2026-04-04T12:43:51.987Z</time></trkpt><trkpt lat="44.96869637882783" lon="11.75480604766297"><ele>3.0</ele><time>2026-04-04T12:43:52.987Z</time></trkpt><trkpt lat="44.96882340533939" lon="11.754720787838211"><ele>3.5</ele><time>2026-04-04T12:43:53.987Z</time></trkpt><trkpt lat="44.96895251682694" lon="11.754636952037881"><ele>4.0</ele><time>2026-04-04T12:43:54.987Z</time></trkpt><trkpt lat="44.96908096487643" lon="11.754557985056595"><ele>3.75</ele><time>2026-04-04T12:43:55.987Z</time></trkpt><trkpt lat="44.969209076532835" lon="11.75447924760167"><ele>3.5</ele><time>2026-04-04T12:43:56.987Z</time></trkpt><trkpt lat="44.96932619395677" lon="11.75440139856838"><ele>3.25</ele><time>2026-04-04T12:43:57.987Z</time></trkpt><trkpt lat="44.969436246948064" lon="11.754330871726435"><ele>3.0</ele><time>2026-04-04T12:43:58.987Z</time></trkpt><trkpt lat="44.96954333516688" lon="11.754266690769226"><ele>3.0</ele><time>2026-04-04T12:43:59.987Z</time></trkpt><trkpt lat="44.969649957139275" lon="11.754193723691133"><ele>3.0</ele><time>2026-04-04T12:44:00.987Z</time></trkpt><trkpt lat="44.969751029950515" lon="11.754140036034862"><ele>3.0</ele><time>2026-04-04T12:44:01.987Z</time></trkpt><trkpt lat="44.96983834488115" lon="11.754071207423205"><ele>3.0</ele><time>2026-04-04T12:44:02.987Z</time></trkpt><trkpt lat="44.96991851200538" lon="11.754012441635572"><ele>3.0</ele><time>2026-04-04T12:44:03.987Z</time></trkpt><trkpt lat="44.969997404406534" lon="11.753947701613622"><ele>3.0</ele><time>2026-04-04T12:44:04.987Z</time></trkpt><trkpt lat="44.97006710637109" lon="11.753907746617008"><ele>3.0</ele><time>2026-04-04T12:44:05.987Z</time></trkpt><trkpt lat="44.97014162010334" lon="11.753879469615734"><ele>3.0</ele><time>2026-04-04T12:44:06.987Z</time></trkpt><trkpt lat="44.97021374865566" lon="11.753861686131422"><ele>3.0</ele><time>2026-04-04T12:44:07.987Z</time></trkpt><trkpt lat="44.970284757163974" lon="11.753836829012556"><ele>3.0</ele><time>2026-04-04T12:44:08.987Z</time></trkpt><trkpt lat="44.97036363609352" lon="11.75382153482988"><ele>3.0</ele><time>2026-04-04T12:44:09.987Z</time></trkpt><trkpt lat="44.97044981860193" lon="11.753811670333548"><ele>3.0</ele><time>2026-04-04T12:44:10.987Z</time></trkpt><trkpt lat="44.970534678093" lon="11.753798159512176"><ele>3.0</ele><time>2026-04-04T12:44:11.987Z</time></trkpt><trkpt lat="44.97063055649459" lon="11.753801756244732"><ele>3.0</ele><time>2026-04-04T12:44:12.987Z</time></trkpt><trkpt lat="44.97072729900709" lon="11.753810141174315"><ele>3.0</ele><time>2026-04-04T12:44:13.987Z</time></trkpt><trkpt lat="44.97082523217539" lon="11.753840900821164"><ele>3.0</ele><time>2026-04-04T12:44:14.987Z</time></trkpt><trkpt lat="44.97092279862593" lon="11.753819853296962"><ele>3.25</ele><time>2026-04-04T12:44:15.987Z</time></trkpt><trkpt lat="44.97102123878777" lon="11.753925570677643"><ele>3.5</ele><time>2026-04-04T12:44:16.987Z</time></trkpt><trkpt lat="44.971131805989074" lon="11.753980372765767"><ele>3.75</ele><time>2026-04-04T12:44:17.987Z</time></trkpt><trkpt lat="44.97124615307248" lon="11.754040788464726"><ele>4.0</ele><time>2026-04-04T12:44:18.987Z</time></trkpt><trkpt lat="44.97135839926424" lon="11.754097823588932"><ele>4.0</ele><time>2026-04-04T12:44:19.987Z</time></trkpt><trkpt lat="44.97147933756984" lon="11.754159234263936"><ele>4.0</ele><time>2026-04-04T12:44:20.987Z</time></trkpt><trkpt lat="44.97160634301228" lon="11.754218093983296"><ele>4.0</ele><time>2026-04-04T12:44:21.987Z</time></trkpt><trkpt lat="44.9717277554968" lon="11.754275342777566"><ele>4.0</ele><time>2026-04-04T12:44:22.987Z</time></trkpt><trkpt lat="44.97184651169439" lon="11.754336740271125"><ele>3.75</ele><time>2026-04-04T12:44:23.987Z</time></trkpt><trkpt lat="44.97196572202259" lon="11.754398586805744"><ele>3.5</ele><time>2026-04-04T12:44:24.987Z</time></trkpt><trkpt lat="44.9720857574987" lon="11.754466265359635"><ele>3.25</ele><time>2026-04-04T12:44:25.987Z</time></trkpt><trkpt lat="44.972210645701615" lon="11.754536401011345"><ele>3.0</ele><time>2026-04-04T12:44:26.987Z</time></trkpt><trkpt lat="44.97233520158021" lon="11.754609710288559"><ele>3.0</ele><time>2026-04-04T12:44:27.987Z</time></trkpt><trkpt lat="44.97245832037858" lon="11.754686533946018"><ele>3.0</ele><time>2026-04-04T12:44:28.987Z</time></trkpt><trkpt lat="44.97257999666985" lon="11.754768079246384"><ele>3.0</ele><time>2026-04-04T12:44:29.987Z</time></trkpt><trkpt lat="44.97270329467281" lon="11.754849083321329"><ele>3.0</ele><time>2026-04-04T12:44:30.987Z</time></trkpt><trkpt lat="44.97282522439201" lon="11.75493087047896"><ele>3.0</ele><time>2026-04-04T12:44:31.987Z</time></trkpt><trkpt lat="44.972947518359334" lon="11.755016439493092"><ele>3.0</ele><time>2026-04-04T12:44:32.987Z</time></trkpt><trkpt lat="44.97307231912444" lon="11.755100270304663"><ele>3.0</ele><time>2026-04-04T12:44:33.987Z</time></trkpt><trkpt lat="44.973195661066455" lon="11.755187926554193"><ele>3.0</ele><time>2026-04-04T12:44:34.986Z</time></trkpt><trkpt lat="44.97332133560591" lon="11.755276877094106"><ele>4.0</ele><time>2026-04-04T12:44:35.986Z</time></trkpt><trkpt lat="44.9734521608805" lon="11.755370869667678"><ele>5.0</ele><time>2026-04-04T12:44:36.986Z</time></trkpt><trkpt lat="44.97359129551437" lon="11.755475200645808"><ele>6.0</ele><time>2026-04-04T12:44:37.986Z</time></trkpt><trkpt lat="44.973732407123634" lon="11.755580329876825"><ele>6.0</ele><time>2026-04-04T12:44:38.986Z</time></trkpt><trkpt lat="44.97387374170471" lon="11.755684850054585"><ele>6.0</ele><time>2026-04-04T12:44:39.986Z</time></trkpt><trkpt lat="44.974014828586576" lon="11.755786638154511"><ele>6.0</ele><time>2026-04-04T12:44:40.986Z</time></trkpt><trkpt lat="44.97415382056975" lon="11.755886482381813"><ele>6.0</ele><time>2026-04-04T12:44:41.986Z</time></trkpt><trkpt lat="44.97430054023844" lon="11.755994188882658"><ele>6.0</ele><time>2026-04-04T12:44:42.986Z</time></trkpt><trkpt lat="44.97444539288889" lon="11.756099956723988"><ele>6.0</ele><time>2026-04-04T12:44:43.986Z</time></trkpt><trkpt lat="44.97459885730542" lon="11.756198109906816"><ele>6.0</ele><time>2026-04-04T12:44:44.986Z</time></trkpt><trkpt lat="44.97474389108527" lon="11.7563084738753"><ele>6.0</ele><time>2026-04-04T12:44:45.986Z</time></trkpt><trkpt lat="44.9748915253723" lon="11.756419590687834"><ele>6.0</ele><time>2026-04-04T12:44:46.986Z</time></trkpt><trkpt lat="44.97503523243231" lon="11.756521572940688"><ele>5.333333333333333</ele><time>2026-04-04T12:44:47.986Z</time></trkpt><trkpt lat="44.975178561250125" lon="11.756628326353121"><ele>4.666666666666666</ele><time>2026-04-04T12:44:48.986Z</time></trkpt><trkpt lat="44.97531920430755" lon="11.756727564663981"><ele>4.0</ele><time>2026-04-04T12:44:49.986Z</time></trkpt><trkpt lat="44.97546997378331" lon="11.756836413770234"><ele>4.333333333333333</ele><time>2026-04-04T12:44:50.986Z</time></trkpt><trkpt lat="44.975616404292474" lon="11.756943621231889"><ele>4.666666666666667</ele><time>2026-04-04T12:44:51.986Z</time></trkpt><trkpt lat="44.975755406860834" lon="11.757048553447852"><ele>5.0</ele><time>2026-04-04T12:44:52.986Z</time></trkpt><trkpt lat="44.97589825074723" lon="11.757153179080673"><ele>4.333333333333334</ele><time>2026-04-04T12:44:53.986Z</time></trkpt><trkpt lat="44.97604358703927" lon="11.757258917851704"><ele>3.666666666666667</ele><time>2026-04-04T12:44:54.986Z</time></trkpt><trkpt lat="44.97618862476871" lon="11.7573722024197"><ele>3.0</ele><time>2026-04-04T12:44:55.986Z</time></trkpt><trkpt lat="44.97633850821791" lon="11.757482104801591"><ele>3.0</ele><time>2026-04-04T12:44:56.986Z</time></trkpt><trkpt lat="44.976484722990406" lon="11.757588020601707"><ele>3.0</ele><time>2026-04-04T12:44:57.986Z</time></trkpt><trkpt lat="44.976628402185995" lon="11.75769175662366"><ele>3.0</ele><time>2026-04-04T12:44:58.986Z</time></trkpt><trkpt lat="44.976771697545495" lon="11.75779323108917"><ele>3.0</ele><time>2026-04-04T12:44:59.986Z</time></trkpt><trkpt lat="44.97691485474515" lon="11.757898811634732"><ele>3.0</ele><time>2026-04-04T12:45:00.986Z</time></trkpt><trkpt lat="44.97706364915727" lon="11.758005485774621"><ele>3.0</ele><time>2026-04-04T12:45:01.986Z</time></trkpt><trkpt lat="44.97721477330081" lon="11.758111630305722"><ele>3.0</ele><time>2026-04-04T12:45:02.986Z</time></trkpt><trkpt lat="44.97736502163228" lon="11.758221862749533"><ele>3.0</ele><time>2026-04-04T12:45:03.986Z</time></trkpt><trkpt lat="44.97750624952028" lon="11.758328794994558"><ele>3.0</ele><time>2026-04-04T12:45:04.986Z</time></trkpt><trkpt lat="44.97764708183457" lon="11.758425008228354"><ele>3.0</ele><time>2026-04-04T12:45:05.986Z</time></trkpt><trkpt lat="44.977787549418494" lon="11.75850382632491"><ele>3.0</ele><time>2026-04-04T12:45:06.986Z</time></trkpt><trkpt lat="44.97791717386029" lon="11.758566096279239"><ele>3.0</ele><time>2026-04-04T12:45:07.986Z</time></trkpt><trkpt lat="44.978061429530094" lon="11.75860808895659"><ele>3.0</ele><time>2026-04-04T12:45:08.986Z</time></trkpt><trkpt lat="44.97819958252879" lon="11.758647498873351"><ele>2.75</ele><time>2026-04-04T12:45:09.986Z</time></trkpt><trkpt lat="44.97834189345253" lon="11.758671416225729"><ele>2.5</ele><time>2026-04-04T12:45:10.986Z</time></trkpt><trkpt lat="44.978486736237706" lon="11.758702356414867"><ele>2.25</ele><time>2026-04-04T12:45:11.986Z</time></trkpt><trkpt lat="44.97862817460459" lon="11.758724559375523"><ele>2.0</ele><time>2026-04-04T12:45:12.986Z</time></trkpt><trkpt lat="44.97875631143551" lon="11.758756375259486"><ele>1.75</ele><time>2026-04-04T12:45:13.986Z</time></trkpt><trkpt lat="44.97889864468049" lon="11.75878776972971"><ele>1.5</ele><time>2026-04-04T12:45:14.986Z</time></trkpt><trkpt lat="44.97904649615699" lon="11.758814987687067"><ele>1.25</ele><time>2026-04-04T12:45:15.986Z</time></trkpt><trkpt lat="44.97919547517682" lon="11.758839845953782"><ele>1.0</ele><time>2026-04-04T12:45:16.986Z</time></trkpt><trkpt lat="44.979340361461965" lon="11.75887575821687"><ele>1.0</ele><time>2026-04-04T12:45:17.986Z</time></trkpt><trkpt lat="44.979481774822" lon="11.758909315635655"><ele>1.0</ele><time>2026-04-04T12:45:18.986Z</time></trkpt><trkpt lat="44.9796178251691" lon="11.758937878655264"><ele>1.0</ele><time>2026-04-04T12:45:19.986Z</time></trkpt><trkpt lat="44.97976146717004" lon="11.758969821625008"><ele>1.0</ele><time>2026-04-04T12:45:21Z</time></trkpt><trkpt lat="44.9799038443999" lon="11.759004399300123"><ele>1.25</ele><time>2026-04-04T12:45:22Z</time></trkpt><trkpt lat="44.98005221334846" lon="11.759034018866252"><ele>1.5</ele><time>2026-04-04T12:45:23Z</time></trkpt><trkpt lat="44.98019296156052" lon="11.759065078777178"><ele>1.75</ele><time>2026-04-04T12:45:24Z</time></trkpt><trkpt lat="44.980332121602515" lon="11.759103201898123"><ele>2.0</ele><time>2026-04-04T12:45:25Z</time></trkpt><trkpt lat="44.980473504385266" lon="11.759125727024541"><ele>2.0</ele><time>2026-04-04T12:45:26Z</time></trkpt><trkpt lat="44.9806205041005" lon="11.759157368901475"><ele>2.0</ele><time>2026-04-04T12:45:27Z</time></trkpt><trkpt lat="44.980762566767886" lon="11.759185647840482"><ele>2.0</ele><time>2026-04-04T12:45:28Z</time></trkpt><trkpt lat="44.98091261927592" lon="11.759216679438827"><ele>2.0</ele><time>2026-04-04T12:45:29Z</time></trkpt><trkpt lat="44.98106499213067" lon="11.759249714250286"><ele>1.6666666666666665</ele><time>2026-04-04T12:45:30Z</time></trkpt><trkpt lat="44.981210913154996" lon="11.759285615628778"><ele>1.3333333333333333</ele><time>2026-04-04T12:45:31Z</time></trkpt><trkpt lat="44.98136349647683" lon="11.759324562882492"><ele>1.0</ele><time>2026-04-04T12:45:32Z</time></trkpt><trkpt lat="44.98151049181913" lon="11.75936195829482"><ele>1.3333333333333333</ele><time>2026-04-04T12:45:33Z</time></trkpt><trkpt lat="44.9816600143801" lon="11.759393424447895"><ele>1.6666666666666665</ele><time>2026-04-04T12:45:34Z</time></trkpt><trkpt lat="44.98181719280848" lon="11.759425307758905"><ele>2.0</ele><time>2026-04-04T12:45:35Z</time></trkpt><trkpt lat="44.98198170909332" lon="11.759462888628898"><ele>1.3333333333333333</ele><time>2026-04-04T12:45:36Z</time></trkpt><trkpt lat="44.98214890189805" lon="11.759495616041788"><ele>0.6666666666666666</ele><time>2026-04-04T12:45:37Z</time></trkpt><trkpt lat="44.98231012215356" lon="11.759534274879796"><ele>0.0</ele><time>2026-04-04T12:45:38Z</time></trkpt><trkpt lat="44.98246913552" lon="11.75956586084452"><ele>0.0</ele><time>2026-04-04T12:45:39Z</time></trkpt><trkpt lat="44.98262900659115" lon="11.75960051518135"><ele>0.0</ele><time>2026-04-04T12:45:40Z</time></trkpt><trkpt lat="44.98278631421361" lon="11.759631294631642"><ele>0.0</ele><time>2026-04-04T12:45:41Z</time></trkpt><trkpt lat="44.9829534863268" lon="11.759666214173345"><ele>0.0</ele><time>2026-04-04T12:45:42Z</time></trkpt><trkpt lat="44.98311840064068" lon="11.759698128166763"><ele>0.0</ele><time>2026-04-04T12:45:43Z</time></trkpt><trkpt lat="44.98328504348791" lon="11.759729517190346"><ele>0.0</ele><time>2026-04-04T12:45:44Z</time></trkpt><trkpt lat="44.98345158402367" lon="11.759758220517822"><ele>0.3333333333333333</ele><time>2026-04-04T12:45:45Z</time></trkpt><trkpt lat="44.9836211910177" lon="11.75979321043752"><ele>0.6666666666666666</ele><time>2026-04-04T12:45:46Z</time></trkpt><trkpt lat="44.98379006404632" lon="11.759833873620144"><ele>1.0</ele><time>2026-04-04T12:45:47Z</time></trkpt><trkpt lat="44.9839611178831" lon="11.759876213547555"><ele>1.0</ele><time>2026-04-04T12:45:48Z</time></trkpt><trkpt lat="44.984131746103344" lon="11.759909725351925"><ele>1.0</ele><time>2026-04-04T12:45:49Z</time></trkpt><trkpt lat="44.984305357375256" lon="11.759938919104005"><ele>1.0</ele><time>2026-04-04T12:45:50Z</time></trkpt><trkpt lat="44.98447515031738" lon="11.75997356723036"><ele>0.6666666666666666</ele><time>2026-04-04T12:45:51Z</time></trkpt><trkpt lat="44.984638481546575" lon="11.760004690762349"><ele>0.3333333333333333</ele><time>2026-04-04T12:45:52Z</time></trkpt><trkpt lat="44.98480105857188" lon="11.760033739574139"><ele>0.0</ele><time>2026-04-04T12:45:53Z</time></trkpt><trkpt lat="44.984963921998066" lon="11.760066076568556"><ele>0.0</ele><time>2026-04-04T12:45:54Z</time></trkpt><trkpt lat="44.98512933707871" lon="11.760096659993275"><ele>0.0</ele><time>2026-04-04T12:45:55Z</time></trkpt><trkpt lat="44.98530150949213" lon="11.760127480663037"><ele>0.0</ele><time>2026-04-04T12:45:56Z</time></trkpt><trkpt lat="44.985467451633596" lon="11.760164190530709"><ele>0.0</ele><time>2026-04-04T12:45:57Z</time></trkpt><trkpt lat="44.9856360726226" lon="11.760198287577914"><ele>0.0</ele><time>2026-04-04T12:45:58Z</time></trkpt><trkpt lat="44.985805828198295" lon="11.760226676764258"><ele>0.0</ele><time>2026-04-04T12:45:59Z</time></trkpt><trkpt lat="44.985973435633696" lon="11.760261281104912"><ele>0.0</ele><time>2026-04-04T12:46:00Z</time></trkpt><trkpt lat="44.98614110745614" lon="11.760295688893244"><ele>0.0</ele><time>2026-04-04T12:46:01Z</time></trkpt><trkpt lat="44.986314516919464" lon="11.760333374341796"><ele>0.0</ele><time>2026-04-04T12:46:02Z</time></trkpt><trkpt lat="44.98648662670288" lon="11.76036716561692"><ele>0.0</ele><time>2026-04-04T12:46:03Z</time></trkpt><trkpt lat="44.986663358916715" lon="11.76040503402847"><ele>0.0</ele><time>2026-04-04T12:46:04Z</time></trkpt><trkpt lat="44.98684002413127" lon="11.760443399621417"><ele>0.0</ele><time>2026-04-04T12:46:04.999Z</time></trkpt><trkpt lat="44.98701117323773" lon="11.760482467218916"><ele>0.0</ele><time>2026-04-04T12:46:05.999Z</time></trkpt><trkpt lat="44.987186866581" lon="11.76051890068101"><ele>0.0</ele><time>2026-04-04T12:46:06.999Z</time></trkpt><trkpt lat="44.987354960131576" lon="11.760551606146048"><ele>0.0</ele><time>2026-04-04T12:46:08.001Z</time></trkpt><trkpt lat="44.987526058711346" lon="11.76058587913726"><ele>-0.3333333333333333</ele><time>2026-04-04T12:46:09.001Z</time></trkpt><trkpt lat="44.987697256364584" lon="11.76062027599898"><ele>-0.6666666666666666</ele><time>2026-04-04T12:46:10.001Z</time></trkpt><trkpt lat="44.98786654866416" lon="11.760655323491399"><ele>-1.0</ele><time>2026-04-04T12:46:11.001Z</time></trkpt><trkpt lat="44.98803041488704" lon="11.76069135619184"><ele>-1.0</ele><time>2026-04-04T12:46:12.001Z</time></trkpt><trkpt lat="44.98819351012076" lon="11.760729521119307"><ele>-1.0</ele><time>2026-04-04T12:46:13.001Z</time></trkpt><trkpt lat="44.9883661927102" lon="11.760761709300361"><ele>-1.0</ele><time>2026-04-04T12:46:14.001Z</time></trkpt><trkpt lat="44.98853946623634" lon="11.760799432331028"><ele>-0.6666666666666666</ele><time>2026-04-04T12:46:15.001Z</time></trkpt><trkpt lat="44.98872058813166" lon="11.760838187817797"><ele>-0.3333333333333333</ele><time>2026-04-04T12:46:16.001Z</time></trkpt><trkpt lat="44.98890133661375" lon="11.760877887385748"><ele>0.0</ele><time>2026-04-04T12:46:17.001Z</time></trkpt><trkpt lat="44.98908291579596" lon="11.760917489804179"><ele>0.0</ele><time>2026-04-04T12:46:18.001Z</time></trkpt><trkpt lat="44.9892667720143" lon="11.76096126284068"><ele>0.0</ele><time>2026-04-04T12:46:19.001Z</time></trkpt><trkpt lat="44.98944818822997" lon="11.760998452769238"><ele>0.0</ele><time>2026-04-04T12:46:20.001Z</time></trkpt><trkpt lat="44.989627574814726" lon="11.761039086902004"><ele>0.3333333333333333</ele><time>2026-04-04T12:46:21.001Z</time></trkpt><trkpt lat="44.989806525984996" lon="11.761072885874286"><ele>0.6666666666666666</ele><time>2026-04-04T12:46:22.001Z</time></trkpt><trkpt lat="44.98998882736964" lon="11.761116303385188"><ele>1.0</ele><time>2026-04-04T12:46:23.001Z</time></trkpt><trkpt lat="44.99016625605633" lon="11.761152732493128"><ele>1.6666666666666665</ele><time>2026-04-04T12:46:24.001Z</time></trkpt><trkpt lat="44.990334193749824" lon="11.761188463854287"><ele>2.3333333333333335</ele><time>2026-04-04T12:46:25.001Z</time></trkpt><trkpt lat="44.990491400275786" lon="11.761219655065839"><ele>3.0</ele><time>2026-04-04T12:46:26.001Z</time></trkpt><trkpt lat="44.99063978958045" lon="11.761248680968995"><ele>3.0</ele><time>2026-04-04T12:46:27.001Z</time></trkpt><trkpt lat="44.99077522229621" lon="11.761278677484338"><ele>3.0</ele><time>2026-04-04T12:46:28.001Z</time></trkpt><trkpt lat="44.990903159939094" lon="11.761308150117298"><ele>3.0</ele><time>2026-04-04T12:46:29.001Z</time></trkpt><trkpt lat="44.9910350573412" lon="11.761333184751756"><ele>3.0</ele><time>2026-04-04T12:46:30.001Z</time></trkpt><trkpt lat="44.99116046075703" lon="11.761362721351828"><ele>3.0</ele><time>2026-04-04T12:46:31.001Z</time></trkpt><trkpt lat="44.99128319014569" lon="11.761388490841012"><ele>3.0</ele><time>2026-04-04T12:46:32.001Z</time></trkpt><trkpt lat="44.99140285454527" lon="11.761410026154955"><ele>3.0</ele><time>2026-04-04T12:46:33.001Z</time></trkpt><trkpt lat="44.991512436351826" lon="11.761432461972987"><ele>3.0</ele><time>2026-04-04T12:46:34.001Z</time></trkpt><trkpt lat="44.99161906768669" lon="11.761452703368931"><ele>3.0</ele><time>2026-04-04T12:46:35.001Z</time></trkpt><trkpt lat="44.9917217362626" lon="11.761475068849006"><ele>3.0</ele><time>2026-04-04T12:46:36.001Z</time></trkpt><trkpt lat="44.991829392504705" lon="11.761497281818025"><ele>3.0</ele><time>2026-04-04T12:46:37.001Z</time></trkpt><trkpt lat="44.991933022082584" lon="11.761519788362989"><ele>3.0</ele><time>2026-04-04T12:46:38.001Z</time></trkpt><trkpt lat="44.99203745426219" lon="11.76154105234951"><ele>3.0</ele><time>2026-04-04T12:46:39.001Z</time></trkpt><trkpt lat="44.99214348144994" lon="11.761562460931874"><ele>3.0</ele><time>2026-04-04T12:46:40.001Z</time></trkpt><trkpt lat="44.99225294888602" lon="11.761588349983052"><ele>3.0</ele><time>2026-04-04T12:46:41.001Z</time></trkpt><trkpt lat="44.992359161626865" lon="11.761611927327573"><ele>3.0</ele><time>2026-04-04T12:46:42.001Z</time></trkpt><trkpt lat="44.99246957875791" lon="11.76163260513962"><ele>3.0</ele><time>2026-04-04T12:46:43.001Z</time></trkpt><trkpt lat="44.99257780068533" lon="11.761653092801001"><ele>3.0</ele><time>2026-04-04T12:46:44.001Z</time></trkpt><trkpt lat="44.99268921094902" lon="11.761674792533913"><ele>3.0</ele><time>2026-04-04T12:46:45.001Z</time></trkpt><trkpt lat="44.99279907669037" lon="11.761698599414842"><ele>3.0</ele><time>2026-04-04T12:46:46Z</time></trkpt><trkpt lat="44.99291210003647" lon="11.761720855886288"><ele>3.0</ele><time>2026-04-04T12:46:47Z</time></trkpt><trkpt lat="44.99301719903642" lon="11.76174594536896"><ele>3.0</ele><time>2026-04-04T12:46:48Z</time></trkpt><trkpt lat="44.99312145080524" lon="11.761771168760614"><ele>3.0</ele><time>2026-04-04T12:46:49Z</time></trkpt><trkpt lat="44.99322267100834" lon="11.761792174448042"><ele>3.0</ele><time>2026-04-04T12:46:50Z</time></trkpt><trkpt lat="44.99332939728717" lon="11.761815369036972"><ele>3.0</ele><time>2026-04-04T12:46:51Z</time></trkpt><trkpt lat="44.993435904477316" lon="11.761834042159279"><ele>3.0</ele><time>2026-04-04T12:46:52Z</time></trkpt><trkpt lat="44.99353921941181" lon="11.761858357673885"><ele>3.0</ele><time>2026-04-04T12:46:53Z</time></trkpt><trkpt lat="44.99365005488106" lon="11.761878830544559"><ele>3.0</ele><time>2026-04-04T12:46:54Z</time></trkpt><trkpt lat="44.99375833121906" lon="11.761901088509576"><ele>3.0</ele><time>2026-04-04T12:46:55Z</time></trkpt><trkpt lat="44.9938688458691" lon="11.761923902335369"><ele>3.0</ele><time>2026-04-04T12:46:56Z</time></trkpt><trkpt lat="44.99397843552986" lon="11.76195052794384"><ele>3.0</ele><time>2026-04-04T12:46:57Z</time></trkpt><trkpt lat="44.99409136625993" lon="11.761977519949914"><ele>3.0</ele><time>2026-04-04T12:46:58Z</time></trkpt><trkpt lat="44.994207792117905" lon="11.761996855970997"><ele>3.0</ele><time>2026-04-04T12:46:59Z</time></trkpt><trkpt lat="44.99432504822885" lon="11.762016788431863"><ele>3.0</ele><time>2026-04-04T12:47:00Z</time></trkpt><trkpt lat="44.99444383729668" lon="11.762033229548368"><ele>3.0</ele><time>2026-04-04T12:47:01Z</time></trkpt><trkpt lat="44.994561861931636" lon="11.762059578689438"><ele>3.0</ele><time>2026-04-04T12:47:02Z</time></trkpt><trkpt lat="44.99468433749802" lon="11.76208524872936"><ele>3.0</ele><time>2026-04-04T12:47:03Z</time></trkpt><trkpt lat="44.994810852147005" lon="11.762112311456235"><ele>3.0</ele><time>2026-04-04T12:47:04Z</time></trkpt><trkpt lat="44.99494295609224" lon="11.762138129287372"><ele>3.0</ele><time>2026-04-04T12:47:05Z</time></trkpt><trkpt lat="44.99507218474655" lon="11.76216750655187"><ele>3.0</ele><time>2026-04-04T12:47:06Z</time></trkpt><trkpt lat="44.99520091192575" lon="11.762195119513018"><ele>3.0</ele><time>2026-04-04T12:47:07Z</time></trkpt><trkpt lat="44.99533097986098" lon="11.76222491467483"><ele>3.0</ele><time>2026-04-04T12:47:08Z</time></trkpt><trkpt lat="44.99547256331799" lon="11.762255641802959"><ele>3.0</ele><time>2026-04-04T12:47:09Z</time></trkpt><trkpt lat="44.99562251839675" lon="11.762287201979284"><ele>3.0</ele><time>2026-04-04T12:47:10Z</time></trkpt><trkpt lat="44.99577468403001" lon="11.762319133360712"><ele>2.75</ele><time>2026-04-04T12:47:11Z</time></trkpt><trkpt lat="44.99592354299906" lon="11.762349822128328"><ele>2.5</ele><time>2026-04-04T12:47:12Z</time></trkpt><trkpt lat="44.996065956405765" lon="11.762380930000099"><ele>2.25</ele><time>2026-04-04T12:47:13Z</time></trkpt><trkpt lat="44.9962086129074" lon="11.76241106769825"><ele>2.0</ele><time>2026-04-04T12:47:14Z</time></trkpt><trkpt lat="44.996348111255294" lon="11.762442400135017"><ele>2.0</ele><time>2026-04-04T12:47:15Z</time></trkpt><trkpt lat="44.99648628901723" lon="11.762468748234948"><ele>2.0</ele><time>2026-04-04T12:47:16Z</time></trkpt><trkpt lat="44.99662282537157" lon="11.762496007265668"><ele>2.0</ele><time>2026-04-04T12:47:17Z</time></trkpt><trkpt lat="44.99675957102664" lon="11.762524129706456"><ele>2.0</ele><time>2026-04-04T12:47:18Z</time></trkpt><trkpt lat="44.996898663450274" lon="11.762554694134664"><ele>2.333333333333333</ele><time>2026-04-04T12:47:19Z</time></trkpt><trkpt lat="44.99704723635032" lon="11.762588172242515"><ele>2.6666666666666665</ele><time>2026-04-04T12:47:20Z</time></trkpt><trkpt lat="44.997200567006054" lon="11.76262183736748"><ele>3.0</ele><time>2026-04-04T12:47:21Z</time></trkpt><trkpt lat="44.997358546221044" lon="11.762653207357918"><ele>2.6666666666666665</ele><time>2026-04-04T12:47:22Z</time></trkpt><trkpt lat="44.99751157388489" lon="11.762686791809857"><ele>2.333333333333333</ele><time>2026-04-04T12:47:23Z</time></trkpt><trkpt lat="44.99766213799701" lon="11.76271990414864"><ele>2.0</ele><time>2026-04-04T12:47:24Z</time></trkpt><trkpt lat="44.99781026810515" lon="11.762751019420277"><ele>2.0</ele><time>2026-04-04T12:47:25Z</time></trkpt><trkpt lat="44.99795450012519" lon="11.762785061653872"><ele>2.0</ele><time>2026-04-04T12:47:26Z</time></trkpt><trkpt lat="44.99809906887465" lon="11.762819430946072"><ele>2.0</ele><time>2026-04-04T12:47:27Z</time></trkpt><trkpt lat="44.99824777217858" lon="11.76285104374057"><ele>2.0</ele><time>2026-04-04T12:47:28Z</time></trkpt><trkpt lat="44.99840074551717" lon="11.762884249710124"><ele>2.333333333333333</ele><time>2026-04-04T12:47:29Z</time></trkpt><trkpt lat="44.99855363680637" lon="11.762916488766534"><ele>2.6666666666666665</ele><time>2026-04-04T12:47:30Z</time></trkpt><trkpt lat="44.9987045413013" lon="11.762946520075221"><ele>3.0</ele><time>2026-04-04T12:47:31Z</time></trkpt><trkpt lat="44.99884858613241" lon="11.762974452642945"><ele>3.0</ele><time>2026-04-04T12:47:32Z</time></trkpt><trkpt lat="44.99898329524567" lon="11.76300341576948"><ele>3.0</ele><time>2026-04-04T12:47:33Z</time></trkpt><trkpt lat="44.99911783929256" lon="11.763029214399749"><ele>3.0</ele><time>2026-04-04T12:47:34Z</time></trkpt><trkpt lat="44.99924144840318" lon="11.763055727994784"><ele>3.0</ele><time>2026-04-04T12:47:35Z</time></trkpt><trkpt lat="44.99937287543026" lon="11.763082275153932"><ele>3.25</ele><time>2026-04-04T12:47:36Z</time></trkpt><trkpt lat="44.99951048272568" lon="11.763111519076178"><ele>3.5</ele><time>2026-04-04T12:47:37Z</time></trkpt><trkpt lat="44.99964631988627" lon="11.763138704910507"><ele>3.75</ele><time>2026-04-04T12:47:38Z</time></trkpt><trkpt lat="44.9997807388212" lon="11.763166730340778"><ele>4.0</ele><time>2026-04-04T12:47:39Z</time></trkpt><trkpt lat="44.99990883111165" lon="11.763190013420527"><ele>4.0</ele><time>2026-04-04T12:47:40Z</time></trkpt><trkpt lat="45.0000320091361" lon="11.76321365912304"><ele>4.0</ele><time>2026-04-04T12:47:41Z</time></trkpt><trkpt lat="45.00014170314356" lon="11.763238221301853"><ele>4.0</ele><time>2026-04-04T12:47:42Z</time></trkpt><trkpt lat="45.00024665137886" lon="11.76326124951825"><ele>4.0</ele><time>2026-04-04T12:47:43Z</time></trkpt><trkpt lat="45.00034664195157" lon="11.763282129077293"><ele>4.0</ele><time>2026-04-04T12:47:44Z</time></trkpt><trkpt lat="45.000435552685545" lon="11.76330133604923"><ele>3.9999999999999996</ele><time>2026-04-04T12:47:45Z</time></trkpt><trkpt lat="45.000524335425666" lon="11.763319004570429"><ele>4.0</ele><time>2026-04-04T12:47:46Z</time></trkpt><trkpt lat="45.0006049012148" lon="11.763332569480209"><ele>4.0</ele><time>2026-04-04T12:47:47Z</time></trkpt><trkpt lat="45.00068262329855" lon="11.763348016065693"><ele>4.0</ele><time>2026-04-04T12:47:48Z</time></trkpt><trkpt lat="45.000756448445266" lon="11.763363884870987"><ele>3.9999999999999996</ele><time>2026-04-04T12:47:49Z</time></trkpt><trkpt lat="45.00087000609841" lon="11.76339134172212"><ele>4.0</ele><time>2026-04-04T12:47:51Z</time></trkpt><trkpt lat="45.00095323549129" lon="11.76340806384148"><ele>4.166666666666666</ele><time>2026-04-04T12:47:53Z</time></trkpt><trkpt lat="45.00102053227069" lon="11.763420178513972"><ele>4.333333333333333</ele><time>2026-04-04T12:47:55Z</time></trkpt><trkpt lat="45.00109676330231" lon="11.763444496083885"><ele>4.5</ele><time>2026-04-04T12:48:30.002Z</time></trkpt><trkpt lat="45.001173609563196" lon="11.763460351007426"><ele>4.666666666666667</ele><time>2026-04-04T12:48:32.002Z</time></trkpt><trkpt lat="45.00123807181198" lon="11.763473650845878"><ele>4.833333333333334</ele><time>2026-04-04T12:48:34.002Z</time></trkpt><trkpt lat="45.00132100074553" lon="11.763490760708539"><ele>5.0</ele><time>2026-04-04T12:48:36.002Z</time></trkpt><trkpt lat="45.00140643693581" lon="11.763508341316044"><ele>4.666666666666667</ele><time>2026-04-04T12:48:38.001Z</time></trkpt><trkpt lat="45.00152477461921" lon="11.763532207078049"><ele>4.333333333333334</ele><time>2026-04-04T12:48:40.001Z</time></trkpt><trkpt lat="45.001637351040614" lon="11.763546457451172"><ele>4.0</ele><time>2026-04-04T12:48:42.001Z</time></trkpt><trkpt lat="45.00170704552507" lon="11.763560284635314"><ele>3.666666666666667</ele><time>2026-04-04T12:48:43.001Z</time></trkpt><trkpt lat="45.00177493739701" lon="11.763580051357422"><ele>3.3333333333333335</ele><time>2026-04-04T12:48:44.001Z</time></trkpt><trkpt lat="45.001844828062914" lon="11.763596893623324"><ele>3.0</ele><time>2026-04-04T12:48:45.001Z</time></trkpt><trkpt lat="45.00190872630175" lon="11.763613715924459"><ele>3.0</ele><time>2026-04-04T12:48:46.001Z</time></trkpt><trkpt lat="45.00197745244244" lon="11.763629816320945"><ele>3.0</ele><time>2026-04-04T12:48:47.001Z</time></trkpt><trkpt lat="45.00205346641584" lon="11.7636471201775"><ele>3.0</ele><time>2026-04-04T12:48:48.001Z</time></trkpt><trkpt lat="45.0021313592924" lon="11.76366687826195"><ele>3.0</ele><time>2026-04-04T12:48:49.001Z</time></trkpt><trkpt lat="45.00220702028697" lon="11.763684257066316"><ele>3.0</ele><time>2026-04-04T12:48:50.001Z</time></trkpt><trkpt lat="45.00228234174454" lon="11.763702591657388"><ele>3.0</ele><time>2026-04-04T12:48:51.001Z</time></trkpt><trkpt lat="45.0023586140106" lon="11.76371928264954"><ele>3.0</ele><time>2026-04-04T12:48:52.001Z</time></trkpt><trkpt lat="45.002437165424624" lon="11.763736191965135"><ele>3.0</ele><time>2026-04-04T12:48:53.001Z</time></trkpt><trkpt lat="45.002524025630585" lon="11.763753744511096"><ele>3.0</ele><time>2026-04-04T12:48:54.001Z</time></trkpt><trkpt lat="45.002620087812026" lon="11.763772709580197"><ele>3.0</ele><time>2026-04-04T12:48:55.001Z</time></trkpt><trkpt lat="45.00271399645392" lon="11.76379519244225"><ele>3.0</ele><time>2026-04-04T12:48:56.001Z</time></trkpt><trkpt lat="45.00280406719597" lon="11.763818535619368"><ele>2.8</ele><time>2026-04-04T12:48:57.001Z</time></trkpt><trkpt lat="45.00288968219193" lon="11.763843014168286"><ele>2.5999999999999996</ele><time>2026-04-04T12:48:58.001Z</time></trkpt><trkpt lat="45.00296820018778" lon="11.763859761305008"><ele>2.4000000000000004</ele><time>2026-04-04T12:48:59.001Z</time></trkpt><trkpt lat="45.00305564198841" lon="11.76387594479079"><ele>2.2</ele><time>2026-04-04T12:49:00.001Z</time></trkpt><trkpt lat="45.00315909628706" lon="11.76389200814203"><ele>2.0</ele><time>2026-04-04T12:49:01.001Z</time></trkpt><trkpt lat="45.003278174926045" lon="11.76391136939807"><ele>2.5</ele><time>2026-04-04T12:49:02.001Z</time></trkpt><trkpt lat="45.003398656467255" lon="11.763937009657534"><ele>3.0</ele><time>2026-04-04T12:49:03.001Z</time></trkpt><trkpt lat="45.00351930511208" lon="11.763962935912971"><ele>3.5</ele><time>2026-04-04T12:49:04.001Z</time></trkpt><trkpt lat="45.00364061882911" lon="11.763985431709383"><ele>4.0</ele><time>2026-04-04T12:49:05.001Z</time></trkpt><trkpt lat="45.0037623575977" lon="11.764007983545532"><ele>4.0</ele><time>2026-04-04T12:49:06.001Z</time></trkpt><trkpt lat="45.00389386041089" lon="11.764027926768849"><ele>4.0</ele><time>2026-04-04T12:49:07.001Z</time></trkpt><trkpt lat="45.0040301949273" lon="11.764056120301326"><ele>4.0</ele><time>2026-04-04T12:49:08.001Z</time></trkpt><trkpt lat="45.00416784337586" lon="11.764083719397801"><ele>4.0</ele><time>2026-04-04T12:49:09.001Z</time></trkpt><trkpt lat="45.00430673446512" lon="11.764114241445125"><ele>3.5</ele><time>2026-04-04T12:49:10.001Z</time></trkpt><trkpt lat="45.004444437473104" lon="11.764145022092439"><ele>3.0</ele><time>2026-04-04T12:49:11.001Z</time></trkpt><trkpt lat="45.00458423834682" lon="11.764177015622394"><ele>2.5</ele><time>2026-04-04T12:49:12.001Z</time></trkpt><trkpt lat="45.004732750682166" lon="11.76420403347295"><ele>2.0</ele><time>2026-04-04T12:49:13.001Z</time></trkpt><trkpt lat="45.00488127898434" lon="11.764232993303594"><ele>1.75</ele><time>2026-04-04T12:49:14.001Z</time></trkpt><trkpt lat="45.00501848854043" lon="11.764260048454053"><ele>1.5</ele><time>2026-04-04T12:49:15.001Z</time></trkpt><trkpt lat="45.00514611184295" lon="11.764285367036674"><ele>1.25</ele><time>2026-04-04T12:49:16.001Z</time></trkpt><trkpt lat="45.0052697568106" lon="11.76430883584786"><ele>1.0</ele><time>2026-04-04T12:49:17.001Z</time></trkpt><trkpt lat="45.00539108143789" lon="11.76433374025895"><ele>1.0</ele><time>2026-04-04T12:49:18.001Z</time></trkpt><trkpt lat="45.005515500695836" lon="11.764362922510609"><ele>1.0</ele><time>2026-04-04T12:49:19.001Z</time></trkpt><trkpt lat="45.00564509645644" lon="11.764395777247008"><ele>1.0</ele><time>2026-04-04T12:49:20.001Z</time></trkpt><trkpt lat="45.005780743711824" lon="11.76442505492579"><ele>1.0</ele><time>2026-04-04T12:49:21.001Z</time></trkpt><trkpt lat="45.00591264849564" lon="11.76445252860564"><ele>1.0</ele><time>2026-04-04T12:49:22.001Z</time></trkpt><trkpt lat="45.00604272472538" lon="11.764478098735252"><ele>1.0</ele><time>2026-04-04T12:49:23.001Z</time></trkpt><trkpt lat="45.006170574990115" lon="11.764505860310766"><ele>1.0</ele><time>2026-04-04T12:49:24.001Z</time></trkpt><trkpt lat="45.00629590670306" lon="11.764537305923122"><ele>1.0</ele><time>2026-04-04T12:49:25.001Z</time></trkpt><trkpt lat="45.00642051989899" lon="11.764569831909869"><ele>1.0</ele><time>2026-04-04T12:49:26.001Z</time></trkpt><trkpt lat="45.006531890058255" lon="11.764602689273161"><ele>1.0</ele><time>2026-04-04T12:49:27.001Z</time></trkpt><trkpt lat="45.006621666164264" lon="11.764633539980528"><ele>1.0</ele><time>2026-04-04T12:49:28.001Z</time></trkpt><trkpt lat="45.00669909345379" lon="11.76466657882513"><ele>1.0</ele><time>2026-04-04T12:49:29.001Z</time></trkpt><trkpt lat="45.00676792918768" lon="11.764697608949092"><ele>1.0</ele><time>2026-04-04T12:49:30.001Z</time></trkpt><trkpt lat="45.006871584317466" lon="11.764746567812153"><ele>1.4</ele><time>2026-04-04T12:49:32.001Z</time></trkpt><trkpt lat="45.006951184665986" lon="11.764783840765576"><ele>1.8</ele><time>2026-04-04T12:49:35.001Z</time></trkpt><trkpt lat="45.00700841360394" lon="11.764832342065318"><ele>2.1999999999999997</ele><time>2026-04-04T12:49:37.001Z</time></trkpt><trkpt lat="45.007088483994295" lon="11.764856799076435"><ele>2.6</ele><time>2026-04-04T12:49:39.001Z</time></trkpt><trkpt lat="45.00716719183811" lon="11.764598780702064"><ele>3.0</ele><time>2026-04-04T12:49:40.001Z</time></trkpt><trkpt lat="45.007203892715836" lon="11.764434484805085"><ele>3.0</ele><time>2026-04-04T12:49:41.001Z</time></trkpt><trkpt lat="45.007229552026764" lon="11.764268901581762"><ele>3.0</ele><time>2026-04-04T12:49:42.001Z</time></trkpt><trkpt lat="45.007264438148134" lon="11.76410193660052"><ele>3.0</ele><time>2026-04-04T12:49:43.001Z</time></trkpt><trkpt lat="45.00731367669045" lon="11.763897677203056"><ele>3.0</ele><time>2026-04-04T12:49:44.001Z</time></trkpt><trkpt lat="45.00737444503473" lon="11.76365288985581"><ele>2.6666666666666665</ele><time>2026-04-04T12:49:45.001Z</time></trkpt><trkpt lat="45.007437324259605" lon="11.763374496923111"><ele>2.333333333333333</ele><time>2026-04-04T12:49:46.001Z</time></trkpt><trkpt lat="45.00750177562734" lon="11.76307984841579"><ele>2.0</ele><time>2026-04-04T12:49:47.001Z</time></trkpt><trkpt lat="45.007576555260314" lon="11.76275078139597"><ele>1.5</ele><time>2026-04-04T12:49:48.001Z</time></trkpt><trkpt lat="45.00765332611019" lon="11.762406464492937"><ele>1.0</ele><time>2026-04-04T12:49:49.001Z</time></trkpt><trkpt lat="45.00773383261948" lon="11.762056778859337"><ele>0.5</ele><time>2026-04-04T12:49:50.001Z</time></trkpt><trkpt lat="45.00781288825842" lon="11.761715621589016"><ele>0.0</ele><time>2026-04-04T12:49:51.001Z</time></trkpt><trkpt lat="45.00788666451574" lon="11.761389031275208"><ele>0.0</ele><time>2026-04-04T12:49:52.001Z</time></trkpt><trkpt lat="45.007959097615036" lon="11.76107189208621"><ele>0.0</ele><time>2026-04-04T12:49:53.001Z</time></trkpt><trkpt lat="45.00805526005139" lon="11.760773860064369"><ele>0.5</ele><time>2026-04-04T12:49:54.001Z</time></trkpt><trkpt lat="45.00812772869105" lon="11.760457750765177"><ele>1.0</ele><time>2026-04-04T12:49:55.001Z</time></trkpt><trkpt lat="45.008200033347464" lon="11.760144712645026"><ele>1.0</ele><time>2026-04-04T12:49:56.001Z</time></trkpt><trkpt lat="45.00826805355518" lon="11.759859026817196"><ele>1.0</ele><time>2026-04-04T12:49:57.001Z</time></trkpt><trkpt lat="45.008328235216425" lon="11.759599830034654"><ele>1.0</ele><time>2026-04-04T12:49:58.001Z</time></trkpt><trkpt lat="45.00838528782799" lon="11.75935775662255"><ele>1.0</ele><time>2026-04-04T12:49:59.001Z</time></trkpt><trkpt lat="45.00843970385593" lon="11.759107187871617"><ele>1.0</ele><time>2026-04-04T12:50:00.001Z</time></trkpt><trkpt lat="45.008496672643204" lon="11.758845848560986"><ele>1.0</ele><time>2026-04-04T12:50:01.001Z</time></trkpt><trkpt lat="45.008554385571664" lon="11.758590250331762"><ele>0.6666666666666666</ele><time>2026-04-04T12:50:02.001Z</time></trkpt><trkpt lat="45.008612288778174" lon="11.758329523805223"><ele>0.3333333333333333</ele><time>2026-04-04T12:50:03.001Z</time></trkpt><trkpt lat="45.008673630986905" lon="11.758062376212141"><ele>0.0</ele><time>2026-04-04T12:50:04.001Z</time></trkpt><trkpt lat="45.00873371637835" lon="11.757793781054334"><ele>-0.3333333333333333</ele><time>2026-04-04T12:50:05.001Z</time></trkpt><trkpt lat="45.00879349241674" lon="11.757526934382678"><ele>-0.6666666666666666</ele><time>2026-04-04T12:50:06Z</time></trkpt><trkpt lat="45.0088523194858" lon="11.757270845359907"><ele>-1.0</ele><time>2026-04-04T12:50:07Z</time></trkpt><trkpt lat="45.00891274345549" lon="11.757006509228475"><ele>-1.0</ele><time>2026-04-04T12:50:08Z</time></trkpt><trkpt lat="45.0089753568891" lon="11.756738820049756"><ele>-1.0</ele><time>2026-04-04T12:50:09Z</time></trkpt><trkpt lat="45.00903717874731" lon="11.756466563383826"><ele>-1.0</ele><time>2026-04-04T12:50:10Z</time></trkpt><trkpt lat="45.00910071392647" lon="11.756190671575576"><ele>0.0</ele><time>2026-04-04T12:50:11Z</time></trkpt><trkpt lat="45.0091646317101" lon="11.755914178148773"><ele>1.0</ele><time>2026-04-04T12:50:12Z</time></trkpt><trkpt lat="45.009230990774796" lon="11.755636286118937"><ele>2.0</ele><time>2026-04-04T12:50:13Z</time></trkpt><trkpt lat="45.00929524366039" lon="11.755368115081437"><ele>2.0</ele><time>2026-04-04T12:50:14Z</time></trkpt><trkpt lat="45.0093575123964" lon="11.755118509409439"><ele>2.0</ele><time>2026-04-04T12:50:15Z</time></trkpt><trkpt lat="45.00941596998828" lon="11.754882735498269"><ele>2.0</ele><time>2026-04-04T12:50:16Z</time></trkpt><trkpt lat="45.00946775681592" lon="11.75465227756923"><ele>2.0</ele><time>2026-04-04T12:50:17Z</time></trkpt><trkpt lat="45.009519613549784" lon="11.754418014261544"><ele>2.0</ele><time>2026-04-04T12:50:18Z</time></trkpt><trkpt lat="45.009569281850325" lon="11.754185092956696"><ele>2.0</ele><time>2026-04-04T12:50:19Z</time></trkpt><trkpt lat="45.00962024570632" lon="11.753945022068752"><ele>1.6666666666666665</ele><time>2026-04-04T12:50:20.002Z</time></trkpt><trkpt lat="45.009674281457364" lon="11.753702542585737"><ele>1.3333333333333333</ele><time>2026-04-04T12:50:21.001Z</time></trkpt><trkpt lat="45.00972483638101" lon="11.753476063067396"><ele>1.0</ele><time>2026-04-04T12:50:22.001Z</time></trkpt><trkpt lat="45.009774338250416" lon="11.753258451634464"><ele>1.0</ele><time>2026-04-04T12:50:23.001Z</time></trkpt><trkpt lat="45.00982240222005" lon="11.753038037139339"><ele>1.0</ele><time>2026-04-04T12:50:24.002Z</time></trkpt><trkpt lat="45.00987278351017" lon="11.752818598973583"><ele>1.0</ele><time>2026-04-04T12:50:25.002Z</time></trkpt><trkpt lat="45.009929526565536" lon="11.752591684488255"><ele>1.3333333333333333</ele><time>2026-04-04T12:50:26.001Z</time></trkpt><trkpt lat="45.0099802203842" lon="11.752367083166012"><ele>1.6666666666666665</ele><time>2026-04-04T12:50:27.002Z</time></trkpt><trkpt lat="45.010030831235454" lon="11.752143675710899"><ele>2.0</ele><time>2026-04-04T12:50:28.002Z</time></trkpt><trkpt lat="45.010081404706156" lon="11.751919009156454"><ele>2.6666666666666665</ele><time>2026-04-04T12:50:29.001Z</time></trkpt><trkpt lat="45.01013478760508" lon="11.751694640593968"><ele>3.333333333333333</ele><time>2026-04-04T12:50:30.001Z</time></trkpt><trkpt lat="45.010184787543174" lon="11.751475976886791"><ele>4.0</ele><time>2026-04-04T12:50:31.001Z</time></trkpt><trkpt lat="45.01023818096603" lon="11.751253165614248"><ele>4.0</ele><time>2026-04-04T12:50:32.001Z</time></trkpt><trkpt lat="45.01028934164902" lon="11.751036006775891"><ele>4.0</ele><time>2026-04-04T12:50:33.002Z</time></trkpt><trkpt lat="45.01035038714952" lon="11.750833657026526"><ele>4.0</ele><time>2026-04-04T12:50:34.002Z</time></trkpt><trkpt lat="45.010397042480626" lon="11.750631844795139"><ele>4.0</ele><time>2026-04-04T12:50:35.002Z</time></trkpt><trkpt lat="45.01044435206123" lon="11.750425143733532"><ele>4.0</ele><time>2026-04-04T12:50:36.002Z</time></trkpt><trkpt lat="45.010496823515794" lon="11.750198562174765"><ele>4.0</ele><time>2026-04-04T12:50:37.002Z</time></trkpt><trkpt lat="45.010549034217725" lon="11.749972506664431"><ele>3.6666666666666665</ele><time>2026-04-04T12:50:38.002Z</time></trkpt><trkpt lat="45.01060372824246" lon="11.749735698815694"><ele>3.333333333333333</ele><time>2026-04-04T12:50:39.002Z</time></trkpt><trkpt lat="45.0106596182332" lon="11.749493712868277"><ele>3.0</ele><time>2026-04-04T12:50:40.002Z</time></trkpt><trkpt lat="45.010717885677266" lon="11.749241433239925"><ele>3.0</ele><time>2026-04-04T12:50:41.002Z</time></trkpt><trkpt lat="45.010776742807884" lon="11.748987069696183"><ele>3.0</ele><time>2026-04-04T12:50:42.002Z</time></trkpt><trkpt lat="45.01083581155181" lon="11.748731839451969"><ele>3.0</ele><time>2026-04-04T12:50:43.002Z</time></trkpt><trkpt lat="45.01089531981887" lon="11.748473510456645"><ele>2.6666666666666665</ele><time>2026-04-04T12:50:44.002Z</time></trkpt><trkpt lat="45.01095276867434" lon="11.748222838234176"><ele>2.333333333333333</ele><time>2026-04-04T12:50:45.002Z</time></trkpt><trkpt lat="45.01101026653391" lon="11.747979792164077"><ele>2.0</ele><time>2026-04-04T12:50:46.002Z</time></trkpt><trkpt lat="45.01106912771948" lon="11.74773098345901"><ele>2.333333333333333</ele><time>2026-04-04T12:50:47.002Z</time></trkpt><trkpt lat="45.01112734698244" lon="11.747480666849924"><ele>2.6666666666666665</ele><time>2026-04-04T12:50:48.002Z</time></trkpt><trkpt lat="45.01118206359192" lon="11.747239682919576"><ele>3.0</ele><time>2026-04-04T12:50:49.002Z</time></trkpt><trkpt lat="45.0112369621187" lon="11.746997897783766"><ele>2.6666666666666665</ele><time>2026-04-04T12:50:50.002Z</time></trkpt><trkpt lat="45.01129199115017" lon="11.746755713579121"><ele>2.333333333333333</ele><time>2026-04-04T12:50:51.002Z</time></trkpt><trkpt lat="45.01134764396988" lon="11.746511356171808"><ele>2.0</ele><time>2026-04-04T12:50:52.002Z</time></trkpt><trkpt lat="45.01140235214109" lon="11.746271145799845"><ele>1.6666666666666665</ele><time>2026-04-04T12:50:53.002Z</time></trkpt><trkpt lat="45.01145666346095" lon="11.746035563285139"><ele>1.3333333333333333</ele><time>2026-04-04T12:50:54.002Z</time></trkpt><trkpt lat="45.01151086021999" lon="11.74580009553209"><ele>1.0</ele><time>2026-04-04T12:50:55.002Z</time></trkpt><trkpt lat="45.01156637959505" lon="11.745561086381857"><ele>1.0</ele><time>2026-04-04T12:50:56.002Z</time></trkpt><trkpt lat="45.01162667720706" lon="11.745314408589598"><ele>1.0</ele><time>2026-04-04T12:50:57.002Z</time></trkpt><trkpt lat="45.01168293636546" lon="11.745077376147124"><ele>1.0</ele><time>2026-04-04T12:50:58.002Z</time></trkpt><trkpt lat="45.011734383575174" lon="11.744840313376471"><ele>1.3333333333333333</ele><time>2026-04-04T12:50:59.002Z</time></trkpt><trkpt lat="45.01177900613058" lon="11.74461592612295"><ele>1.6666666666666665</ele><time>2026-04-04T12:51:00.002Z</time></trkpt><trkpt lat="45.01182084288166" lon="11.74439984491334"><ele>2.0</ele><time>2026-04-04T12:51:01.001Z</time></trkpt><trkpt lat="45.01185788362496" lon="11.744194402091303"><ele>2.0</ele><time>2026-04-04T12:51:02.001Z</time></trkpt><trkpt lat="45.01189364175337" lon="11.743995418258638"><ele>2.0</ele><time>2026-04-04T12:51:03.001Z</time></trkpt><trkpt lat="45.011928418579224" lon="11.743794375713243"><ele>2.0</ele><time>2026-04-04T12:51:04.001Z</time></trkpt><trkpt lat="45.01196257149703" lon="11.743596939950928"><ele>2.0</ele><time>2026-04-04T12:51:05.001Z</time></trkpt><trkpt lat="45.01199715226655" lon="11.743396690377663"><ele>2.25</ele><time>2026-04-04T12:51:06.001Z</time></trkpt><trkpt lat="45.0120298186147" lon="11.7432055188347"><ele>2.5</ele><time>2026-04-04T12:51:07.001Z</time></trkpt><trkpt lat="45.012061491927255" lon="11.743020158718213"><ele>2.75</ele><time>2026-04-04T12:51:08.001Z</time></trkpt><trkpt lat="45.01209085573338" lon="11.742848314448976"><ele>3.0</ele><time>2026-04-04T12:51:09.001Z</time></trkpt><trkpt lat="45.01211823851619" lon="11.742688063594828"><ele>3.0</ele><time>2026-04-04T12:51:10.001Z</time></trkpt><trkpt lat="45.01212701379842" lon="11.742543026605633"><ele>3.0</ele><time>2026-04-04T12:51:11.001Z</time></trkpt><trkpt lat="45.01216128404521" lon="11.742429561297875"><ele>3.0</ele><time>2026-04-04T12:51:12.001Z</time></trkpt><trkpt lat="45.01217915673037" lon="11.742343001523865"><ele>3.0</ele><time>2026-04-04T12:51:13.001Z</time></trkpt><trkpt lat="45.01219152959237" lon="11.74224956423626"><ele>3.0</ele><time>2026-04-04T12:51:15.001Z</time></trkpt><trkpt lat="45.01222685601158" lon="11.742117521683102"><ele>3.0</ele><time>2026-04-04T12:51:18.001Z</time></trkpt><trkpt lat="45.012264525536075" lon="11.741952372174476"><ele>3.75</ele><time>2026-04-04T12:51:20.001Z</time></trkpt><trkpt lat="45.01227814756181" lon="11.741802696462074"><ele>4.5</ele><time>2026-04-04T12:51:21.001Z</time></trkpt><trkpt lat="45.012299968461264" lon="11.74162281808837"><ele>5.25</ele><time>2026-04-04T12:51:22.001Z</time></trkpt><trkpt lat="45.01232599239513" lon="11.741447636254804"><ele>6.0</ele><time>2026-04-04T12:51:23.001Z</time></trkpt><trkpt lat="45.01235501538653" lon="11.741267323222347"><ele>6.0</ele><time>2026-04-04T12:51:24.001Z</time></trkpt><trkpt lat="45.0123872931247" lon="11.74108006501989"><ele>6.0</ele><time>2026-04-04T12:51:25.001Z</time></trkpt><trkpt lat="45.01241654098278" lon="11.74088806202924"><ele>6.0</ele><time>2026-04-04T12:51:26.001Z</time></trkpt><trkpt lat="45.012448959409696" lon="11.740696958478129"><ele>6.0</ele><time>2026-04-04T12:51:27.001Z</time></trkpt><trkpt lat="45.01248188849639" lon="11.740510711487534"><ele>6.0</ele><time>2026-04-04T12:51:28.001Z</time></trkpt><trkpt lat="45.01251396229811" lon="11.740325753315753"><ele>6.0</ele><time>2026-04-04T12:51:29.001Z</time></trkpt><trkpt lat="45.01257012482838" lon="11.740156113065035"><ele>6.0</ele><time>2026-04-04T12:51:30.001Z</time></trkpt><trkpt lat="45.012600558667394" lon="11.739987865347103"><ele>6.0</ele><time>2026-04-04T12:51:31.001Z</time></trkpt><trkpt lat="45.01262921401793" lon="11.739832124246407"><ele>5.75</ele><time>2026-04-04T12:51:32.001Z</time></trkpt><trkpt lat="45.012659176051564" lon="11.739675575434859"><ele>5.5</ele><time>2026-04-04T12:51:33.001Z</time></trkpt><trkpt lat="45.012685837831675" lon="11.739519921848743"><ele>5.25</ele><time>2026-04-04T12:51:34.001Z</time></trkpt><trkpt lat="45.012714432313665" lon="11.739363916414232"><ele>5.0</ele><time>2026-04-04T12:51:35.001Z</time></trkpt><trkpt lat="45.012744390310935" lon="11.739200596521684"><ele>5.0</ele><time>2026-04-04T12:51:36.001Z</time></trkpt><trkpt lat="45.01276960690519" lon="11.73903799908273"><ele>5.0</ele><time>2026-04-04T12:51:37.001Z</time></trkpt><trkpt lat="45.01278750644672" lon="11.73886898184504"><ele>5.0</ele><time>2026-04-04T12:51:38.001Z</time></trkpt><trkpt lat="45.012817004278894" lon="11.738685236545935"><ele>5.0</ele><time>2026-04-04T12:51:39.001Z</time></trkpt><trkpt lat="45.01284672259043" lon="11.738504679448123"><ele>4.75</ele><time>2026-04-04T12:51:40.001Z</time></trkpt><trkpt lat="45.0128792176603" lon="11.738318130139712"><ele>4.5</ele><time>2026-04-04T12:51:41.001Z</time></trkpt><trkpt lat="45.01290390488288" lon="11.738118631782685"><ele>4.25</ele><time>2026-04-04T12:51:42.001Z</time></trkpt><trkpt lat="45.012917974418635" lon="11.737893029975472"><ele>4.0</ele><time>2026-04-04T12:51:43.001Z</time></trkpt><trkpt lat="45.01290984268649" lon="11.737627417619237"><ele>4.0</ele><time>2026-04-04T12:51:44.001Z</time></trkpt><trkpt lat="45.01289492076785" lon="11.737355469461233"><ele>4.0</ele><time>2026-04-04T12:51:45.001Z</time></trkpt><trkpt lat="45.01287369281721" lon="11.737083815782979"><ele>4.0</ele><time>2026-04-04T12:51:46.001Z</time></trkpt><trkpt lat="45.012826296376005" lon="11.736818400016649"><ele>3.6666666666666665</ele><time>2026-04-04T12:51:47.001Z</time></trkpt><trkpt lat="45.01277226029845" lon="11.736556073026092"><ele>3.333333333333333</ele><time>2026-04-04T12:51:48.001Z</time></trkpt><trkpt lat="45.01271167337293" lon="11.73630771963947"><ele>3.0</ele><time>2026-04-04T12:51:49.001Z</time></trkpt><trkpt lat="45.012657724907704" lon="11.736070161646012"><ele>2.6666666666666665</ele><time>2026-04-04T12:51:50.001Z</time></trkpt><trkpt lat="45.01260538817487" lon="11.735828014876269"><ele>2.333333333333333</ele><time>2026-04-04T12:51:51.001Z</time></trkpt><trkpt lat="45.01255828153807" lon="11.735565389782549"><ele>2.0</ele><time>2026-04-04T12:51:52.001Z</time></trkpt><trkpt lat="45.01252298124634" lon="11.73529188656517"><ele>2.333333333333333</ele><time>2026-04-04T12:51:53.001Z</time></trkpt><trkpt lat="45.01250266881212" lon="11.735002014821909"><ele>2.6666666666666665</ele><time>2026-04-04T12:51:54.001Z</time></trkpt><trkpt lat="45.01250585300139" lon="11.734699419527548"><ele>3.0</ele><time>2026-04-04T12:51:55.001Z</time></trkpt><trkpt lat="45.01252535339549" lon="11.734399093225585"><ele>3.0</ele><time>2026-04-04T12:51:56.001Z</time></trkpt><trkpt lat="45.012570214415874" lon="11.734117571298938"><ele>3.0</ele><time>2026-04-04T12:51:57.001Z</time></trkpt><trkpt lat="45.01260414419931" lon="11.733864073069395"><ele>3.0</ele><time>2026-04-04T12:51:58.001Z</time></trkpt><trkpt lat="45.01263599326772" lon="11.733622075504647"><ele>3.0</ele><time>2026-04-04T12:51:59.001Z</time></trkpt><trkpt lat="45.0126557740216" lon="11.733375428241695"><ele>3.0</ele><time>2026-04-04T12:52:00.001Z</time></trkpt><trkpt lat="45.0126848108179" lon="11.733138783138104"><ele>3.0</ele><time>2026-04-04T12:52:01.001Z</time></trkpt><trkpt lat="45.012717533530186" lon="11.732911233674258"><ele>3.0</ele><time>2026-04-04T12:52:02.001Z</time></trkpt><trkpt lat="45.01274930805146" lon="11.732682755999498"><ele>3.0</ele><time>2026-04-04T12:52:03.001Z</time></trkpt><trkpt lat="45.01278441648205" lon="11.732446540386462"><ele>3.0</ele><time>2026-04-04T12:52:04.001Z</time></trkpt><trkpt lat="45.01281783556776" lon="11.73221059843285"><ele>3.0</ele><time>2026-04-04T12:52:05.001Z</time></trkpt><trkpt lat="45.0128486711525" lon="11.731970233062796"><ele>3.0</ele><time>2026-04-04T12:52:06.001Z</time></trkpt><trkpt lat="45.01288072099267" lon="11.73171873574356"><ele>3.0</ele><time>2026-04-04T12:52:07.001Z</time></trkpt><trkpt lat="45.01291877549339" lon="11.731426794777606"><ele>3.0</ele><time>2026-04-04T12:52:08.001Z</time></trkpt><trkpt lat="45.012959077181485" lon="11.731112287346349"><ele>3.0</ele><time>2026-04-04T12:52:09.001Z</time></trkpt><trkpt lat="45.01299996822612" lon="11.730788193427818"><ele>2.6666666666666665</ele><time>2026-04-04T12:52:10.001Z</time></trkpt><trkpt lat="45.013042597956066" lon="11.730479349970143"><ele>2.333333333333333</ele><time>2026-04-04T12:52:11.001Z</time></trkpt><trkpt lat="45.01308267890237" lon="11.730176351840788"><ele>2.0</ele><time>2026-04-04T12:52:12.001Z</time></trkpt><trkpt lat="45.01312082710779" lon="11.729879492558693"><ele>2.6666666666666665</ele><time>2026-04-04T12:52:13.001Z</time></trkpt><trkpt lat="45.01316470679976" lon="11.729600248724866"><ele>3.333333333333333</ele><time>2026-04-04T12:52:14.001Z</time></trkpt><trkpt lat="45.013205106297" lon="11.729329553638381"><ele>4.0</ele><time>2026-04-04T12:52:15.001Z</time></trkpt><trkpt lat="45.01324396081514" lon="11.729087475999775"><ele>4.0</ele><time>2026-04-04T12:52:16.001Z</time></trkpt><trkpt lat="45.0132744794585" lon="11.72885407229491"><ele>4.0</ele><time>2026-04-04T12:52:17.001Z</time></trkpt><trkpt lat="45.0133052001634" lon="11.72861739480321"><ele>4.0</ele><time>2026-04-04T12:52:18.001Z</time></trkpt><trkpt lat="45.01333580670419" lon="11.72837892185933"><ele>4.0</ele><time>2026-04-04T12:52:19.001Z</time></trkpt><trkpt lat="45.01336830628014" lon="11.728122314304654"><ele>4.0</ele><time>2026-04-04T12:52:20.001Z</time></trkpt><trkpt lat="45.01340895250354" lon="11.727843802191634"><ele>4.0</ele><time>2026-04-04T12:52:21.001Z</time></trkpt><trkpt lat="45.01345125026121" lon="11.727545930426912"><ele>4.0</ele><time>2026-04-04T12:52:22.001Z</time></trkpt><trkpt lat="45.01349397220503" lon="11.72724177927575"><ele>4.0</ele><time>2026-04-04T12:52:23.001Z</time></trkpt><trkpt lat="45.01353744541376" lon="11.726930452859566"><ele>4.0</ele><time>2026-04-04T12:52:24.001Z</time></trkpt><trkpt lat="45.01358367487478" lon="11.726616274652082"><ele>4.333333333333333</ele><time>2026-04-04T12:52:25.001Z</time></trkpt><trkpt lat="45.01362325798576" lon="11.726323718084792"><ele>4.666666666666667</ele><time>2026-04-04T12:52:26.002Z</time></trkpt><trkpt lat="45.01366415151094" lon="11.726043728289099"><ele>5.0</ele><time>2026-04-04T12:52:27.002Z</time></trkpt><trkpt lat="45.01370153326352" lon="11.725768575227097"><ele>5.0</ele><time>2026-04-04T12:52:28.002Z</time></trkpt><trkpt lat="45.01374337111179" lon="11.725506288994868"><ele>5.0</ele><time>2026-04-04T12:52:29.001Z</time></trkpt><trkpt lat="45.01378079520247" lon="11.725231325142285"><ele>5.0</ele><time>2026-04-04T12:52:30.002Z</time></trkpt><trkpt lat="45.01381150934608" lon="11.724953719137192"><ele>4.666666666666667</ele><time>2026-04-04T12:52:31.002Z</time></trkpt><trkpt lat="45.01383133240626" lon="11.72467248834134"><ele>4.333333333333333</ele><time>2026-04-04T12:52:32.002Z</time></trkpt><trkpt lat="45.013847865591266" lon="11.724397166373958"><ele>4.0</ele><time>2026-04-04T12:52:33.002Z</time></trkpt><trkpt lat="45.013859956360946" lon="11.724139925938502"><ele>4.0</ele><time>2026-04-04T12:52:34.002Z</time></trkpt><trkpt lat="45.01386738786279" lon="11.723879804636502"><ele>4.0</ele><time>2026-04-04T12:52:35.002Z</time></trkpt><trkpt lat="45.013866523254016" lon="11.723629414347197"><ele>4.0</ele><time>2026-04-04T12:52:36.002Z</time></trkpt><trkpt lat="45.01385762643909" lon="11.723384892474302"><ele>4.333333333333333</ele><time>2026-04-04T12:52:37.002Z</time></trkpt><trkpt lat="45.013815321741845" lon="11.723145622070065"><ele>4.666666666666667</ele><time>2026-04-04T12:52:38.002Z</time></trkpt><trkpt lat="45.01373242197945" lon="11.722906128923281"><ele>5.0</ele><time>2026-04-04T12:52:39.002Z</time></trkpt><trkpt lat="45.01359510743556" lon="11.722667875547607"><ele>5.0</ele><time>2026-04-04T12:52:40.002Z</time></trkpt><trkpt lat="45.013437214704666" lon="11.722404047507741"><ele>5.0</ele><time>2026-04-04T12:52:41.002Z</time></trkpt><trkpt lat="45.0132691157762" lon="11.722127619832861"><ele>5.0</ele><time>2026-04-04T12:52:42.002Z</time></trkpt><trkpt lat="45.013091065640936" lon="11.721848090387358"><ele>5.0</ele><time>2026-04-04T12:52:43.002Z</time></trkpt><trkpt lat="45.01289677883529" lon="11.721579240291934"><ele>5.0</ele><time>2026-04-04T12:52:44.002Z</time></trkpt><trkpt lat="45.01270382317961" lon="11.72132289564346"><ele>5.0</ele><time>2026-04-04T12:52:45.002Z</time></trkpt><trkpt lat="45.0125180073316" lon="11.721083682719879"><ele>4.5</ele><time>2026-04-04T12:52:46.002Z</time></trkpt><trkpt lat="45.012337448274295" lon="11.720863323560613"><ele>4.0</ele><time>2026-04-04T12:52:47.002Z</time></trkpt><trkpt lat="45.012162798827" lon="11.72064259212498"><ele>4.0</ele><time>2026-04-04T12:52:48.002Z</time></trkpt><trkpt lat="45.011982415242244" lon="11.720415543494177"><ele>4.0</ele><time>2026-04-04T12:52:49.002Z</time></trkpt><trkpt lat="45.01179932931991" lon="11.720188361845846"><ele>2.5</ele><time>2026-04-04T12:52:50.002Z</time></trkpt><trkpt lat="45.011612726696164" lon="11.71995630611821"><ele>1.0</ele><time>2026-04-04T12:52:51.002Z</time></trkpt><trkpt lat="45.01143018583804" lon="11.719730600232138"><ele>1.0</ele><time>2026-04-04T12:52:52.002Z</time></trkpt><trkpt lat="45.01124720635091" lon="11.71950341870025"><ele>1.0</ele><time>2026-04-04T12:52:53.002Z</time></trkpt><trkpt lat="45.01106466694967" lon="11.719274364616963"><ele>2.0</ele><time>2026-04-04T12:52:54.002Z</time></trkpt><trkpt lat="45.01088608081777" lon="11.719043513892425"><ele>3.0</ele><time>2026-04-04T12:52:55.002Z</time></trkpt><trkpt lat="45.01070896231333" lon="11.71881132377075"><ele>3.5</ele><time>2026-04-04T12:52:56.002Z</time></trkpt><trkpt lat="45.010537251404365" lon="11.718577176452026"><ele>4.0</ele><time>2026-04-04T12:52:57.002Z</time></trkpt><trkpt lat="45.01037302524753" lon="11.71833457706636"><ele>4.5</ele><time>2026-04-04T12:52:58.002Z</time></trkpt><trkpt lat="45.010211984883846" lon="11.718089006272908"><ele>5.0</ele><time>2026-04-04T12:52:59.002Z</time></trkpt><trkpt lat="45.01004870702706" lon="11.717840840078592"><ele>4.5</ele><time>2026-04-04T12:53:00.002Z</time></trkpt><trkpt lat="45.00988556166267" lon="11.717590232434853"><ele>4.0</ele><time>2026-04-04T12:53:01.002Z</time></trkpt><trkpt lat="45.00972079407458" lon="11.717337331279515"><ele>4.0</ele><time>2026-04-04T12:53:02.002Z</time></trkpt><trkpt lat="45.00955783339937" lon="11.717085995429393"><ele>4.0</ele><time>2026-04-04T12:53:03.002Z</time></trkpt><trkpt lat="45.00938954395598" lon="11.716825379099284"><ele>4.0</ele><time>2026-04-04T12:53:04.002Z</time></trkpt><trkpt lat="45.009224244976174" lon="11.716571810581625"><ele>4.0</ele><time>2026-04-04T12:53:05.002Z</time></trkpt><trkpt lat="45.0090595278334" lon="11.716325620082102"><ele>4.0</ele><time>2026-04-04T12:53:06.002Z</time></trkpt><trkpt lat="45.008907532087136" lon="11.716081500141307"><ele>4.0</ele><time>2026-04-04T12:53:07.002Z</time></trkpt><trkpt lat="45.00876694258947" lon="11.71581788974798"><ele>4.0</ele><time>2026-04-04T12:53:08.001Z</time></trkpt><trkpt lat="45.0086423239575" lon="11.715525020087167"><ele>4.0</ele><time>2026-04-04T12:53:09.001Z</time></trkpt><trkpt lat="45.008537500198145" lon="11.715219945412006"><ele>4.5</ele><time>2026-04-04T12:53:10.001Z</time></trkpt><trkpt lat="45.008456219575535" lon="11.714910619081952"><ele>5.0</ele><time>2026-04-04T12:53:11.001Z</time></trkpt><trkpt lat="45.00838690734989" lon="11.714594327654115"><ele>4.666666666666667</ele><time>2026-04-04T12:53:12.001Z</time></trkpt><trkpt lat="45.0083590053369" lon="11.714272880675653"><ele>4.333333333333333</ele><time>2026-04-04T12:53:13.001Z</time></trkpt><trkpt lat="45.0083420659065" lon="11.713970273441477"><ele>4.0</ele><time>2026-04-04T12:53:14.001Z</time></trkpt><trkpt lat="45.008340270108135" lon="11.71366643005514"><ele>4.0</ele><time>2026-04-04T12:53:15.001Z</time></trkpt><trkpt lat="45.008353956430135" lon="11.713380231464757"><ele>4.0</ele><time>2026-04-04T12:53:16.001Z</time></trkpt><trkpt lat="45.00838965745833" lon="11.713081360845491"><ele>4.0</ele><time>2026-04-04T12:53:17.001Z</time></trkpt><trkpt lat="45.00844832156875" lon="11.712770242528665"><ele>4.0</ele><time>2026-04-04T12:53:18.001Z</time></trkpt><trkpt lat="45.00852386818021" lon="11.712467239327312"><ele>4.0</ele><time>2026-04-04T12:53:19.001Z</time></trkpt><trkpt lat="45.008607495115506" lon="11.712179404327667"><ele>4.0</ele><time>2026-04-04T12:53:20.001Z</time></trkpt><trkpt lat="45.00869720453596" lon="11.71189306486611"><ele>4.0</ele><time>2026-04-04T12:53:21.001Z</time></trkpt><trkpt lat="45.008793211923276" lon="11.711603171593328"><ele>4.0</ele><time>2026-04-04T12:53:22.001Z</time></trkpt><trkpt lat="45.0088841437387" lon="11.711329183562968"><ele>4.0</ele><time>2026-04-04T12:53:23.001Z</time></trkpt><trkpt lat="45.008973717119055" lon="11.711059310487684"><ele>4.0</ele><time>2026-04-04T12:53:24.001Z</time></trkpt><trkpt lat="45.00906566974284" lon="11.710782262417988"><ele>4.0</ele><time>2026-04-04T12:53:25.001Z</time></trkpt><trkpt lat="45.00915678846329" lon="11.71050260018296"><ele>4.0</ele><time>2026-04-04T12:53:26.001Z</time></trkpt><trkpt lat="45.009232309224615" lon="11.710211561240936"><ele>4.0</ele><time>2026-04-04T12:53:27.001Z</time></trkpt><trkpt lat="45.009348669298646" lon="11.709943068249808"><ele>4.0</ele><time>2026-04-04T12:53:28.001Z</time></trkpt><trkpt lat="45.00948726188362" lon="11.709689120730417"><ele>4.0</ele><time>2026-04-04T12:53:29.001Z</time></trkpt><trkpt lat="45.00963447458507" lon="11.709441465431468"><ele>4.0</ele><time>2026-04-04T12:53:30.001Z</time></trkpt><trkpt lat="45.009779168358605" lon="11.70920698994981"><ele>4.0</ele><time>2026-04-04T12:53:31.001Z</time></trkpt><trkpt lat="45.0099331393419" lon="11.708969208558084"><ele>4.0</ele><time>2026-04-04T12:53:32.001Z</time></trkpt><trkpt lat="45.01008260574347" lon="11.708734174658257"><ele>4.333333333333333</ele><time>2026-04-04T12:53:33.001Z</time></trkpt><trkpt lat="45.01022130289347" lon="11.708496197327145"><ele>4.666666666666667</ele><time>2026-04-04T12:53:34.001Z</time></trkpt><trkpt lat="45.01036220398031" lon="11.7082475545849"><ele>5.0</ele><time>2026-04-04T12:53:35.001Z</time></trkpt><trkpt lat="45.010508409616065" lon="11.708001717642931"><ele>5.0</ele><time>2026-04-04T12:53:36.001Z</time></trkpt><trkpt lat="45.01063968678775" lon="11.707743629031663"><ele>5.0</ele><time>2026-04-04T12:53:37.001Z</time></trkpt><trkpt lat="45.01077323523575" lon="11.707486108026565"><ele>4.5</ele><time>2026-04-04T12:53:38.001Z</time></trkpt><trkpt lat="45.010907176467285" lon="11.707232712547025"><ele>4.0</ele><time>2026-04-04T12:53:39.001Z</time></trkpt><trkpt lat="45.01104172812" lon="11.706976002684879"><ele>4.0</ele><time>2026-04-04T12:53:40.001Z</time></trkpt><trkpt lat="45.011171865322204" lon="11.706731314890936"><ele>4.0</ele><time>2026-04-04T12:53:41.001Z</time></trkpt><trkpt lat="45.01128811199327" lon="11.706502683740823"><ele>4.0</ele><time>2026-04-04T12:53:42.001Z</time></trkpt><trkpt lat="45.011395191454945" lon="11.706275410423284"><ele>4.333333333333333</ele><time>2026-04-04T12:53:43.001Z</time></trkpt><trkpt lat="45.011504085676414" lon="11.706066472498168"><ele>4.666666666666667</ele><time>2026-04-04T12:53:44.001Z</time></trkpt><trkpt lat="45.011598017354885" lon="11.70586567892207"><ele>5.0</ele><time>2026-04-04T12:53:45.001Z</time></trkpt><trkpt lat="45.01169725684683" lon="11.705671628694327"><ele>5.0</ele><time>2026-04-04T12:53:46.001Z</time></trkpt><trkpt lat="45.01178922839473" lon="11.705449798538735"><ele>5.0</ele><time>2026-04-04T12:53:47.001Z</time></trkpt><trkpt lat="45.01187374365885" lon="11.705194945505237"><ele>5.0</ele><time>2026-04-04T12:53:48.001Z</time></trkpt><trkpt lat="45.0119547790063" lon="11.704903570648264"><ele>5.0</ele><time>2026-04-04T12:53:49.001Z</time></trkpt><trkpt lat="45.01203912807548" lon="11.704596365696911"><ele>5.0</ele><time>2026-04-04T12:53:50.001Z</time></trkpt><trkpt lat="45.01213125926345" lon="11.704284886518607"><ele>5.0</ele><time>2026-04-04T12:53:51.001Z</time></trkpt><trkpt lat="45.012217108433816" lon="11.70396966364934"><ele>5.0</ele><time>2026-04-04T12:53:52.001Z</time></trkpt><trkpt lat="45.01229307854852" lon="11.703651409120011"><ele>4.5</ele><time>2026-04-04T12:53:53.001Z</time></trkpt><trkpt lat="45.012373542405214" lon="11.703348593501955"><ele>4.0</ele><time>2026-04-04T12:53:54.001Z</time></trkpt><trkpt lat="45.01246610480268" lon="11.703041102773586"><ele>4.5</ele><time>2026-04-04T12:53:55.001Z</time></trkpt><trkpt lat="45.01255713110906" lon="11.70274628423314"><ele>5.0</ele><time>2026-04-04T12:53:56.001Z</time></trkpt><trkpt lat="45.01264175870929" lon="11.702447796351903"><ele>5.0</ele><time>2026-04-04T12:53:57.001Z</time></trkpt><trkpt lat="45.01271990209658" lon="11.702172969572377"><ele>5.0</ele><time>2026-04-04T12:53:58.001Z</time></trkpt><trkpt lat="45.01279393788091" lon="11.701900788864688"><ele>5.0</ele><time>2026-04-04T12:53:59.001Z</time></trkpt><trkpt lat="45.01284926631464" lon="11.701635260113699"><ele>5.0</ele><time>2026-04-04T12:54:00.001Z</time></trkpt><trkpt lat="45.012904104624916" lon="11.701386263960261"><ele>5.0</ele><time>2026-04-04T12:54:01.001Z</time></trkpt><trkpt lat="45.01295999026502" lon="11.701161659634275"><ele>5.0</ele><time>2026-04-04T12:54:02.001Z</time></trkpt><trkpt lat="45.01301784398413" lon="11.700933037566852"><ele>4.666666666666667</ele><time>2026-04-04T12:54:03.001Z</time></trkpt><trkpt lat="45.013074835489" lon="11.700692483812725"><ele>4.333333333333333</ele><time>2026-04-04T12:54:04.001Z</time></trkpt><trkpt lat="45.01312374385865" lon="11.700449082512147"><ele>4.0</ele><time>2026-04-04T12:54:05.001Z</time></trkpt><trkpt lat="45.01317196448293" lon="11.700214018527669"><ele>4.0</ele><time>2026-04-04T12:54:06.001Z</time></trkpt><trkpt lat="45.0132094010668" lon="11.69998064982521"><ele>4.0</ele><time>2026-04-04T12:54:07.001Z</time></trkpt><trkpt lat="45.01325698623171" lon="11.699752721645622"><ele>4.0</ele><time>2026-04-04T12:54:08.001Z</time></trkpt><trkpt lat="45.01330726746588" lon="11.699519241735006"><ele>4.333333333333333</ele><time>2026-04-04T12:54:09.001Z</time></trkpt><trkpt lat="45.01335054660109" lon="11.699286957181938"><ele>4.666666666666667</ele><time>2026-04-04T12:54:10.001Z</time></trkpt><trkpt lat="45.013395816143756" lon="11.699074591864328"><ele>5.0</ele><time>2026-04-04T12:54:11.001Z</time></trkpt><trkpt lat="45.01343637497543" lon="11.698875230836153"><ele>5.0</ele><time>2026-04-04T12:54:12.001Z</time></trkpt><trkpt lat="45.01348304431196" lon="11.698665823494732"><ele>5.0</ele><time>2026-04-04T12:54:13.001Z</time></trkpt><trkpt lat="45.01353397113409" lon="11.698454731873513"><ele>5.0</ele><time>2026-04-04T12:54:14.001Z</time></trkpt><trkpt lat="45.01358965309545" lon="11.698243724229268"><ele>5.0</ele><time>2026-04-04T12:54:15.001Z</time></trkpt><trkpt lat="45.01363762781366" lon="11.698043941561691"><ele>5.0</ele><time>2026-04-04T12:54:16.001Z</time></trkpt><trkpt lat="45.01368165790376" lon="11.697839164601396"><ele>5.0</ele><time>2026-04-04T12:54:17.001Z</time></trkpt><trkpt lat="45.01372644461898" lon="11.697634332885855"><ele>5.0</ele><time>2026-04-04T12:54:18.001Z</time></trkpt><trkpt lat="45.01377112524365" lon="11.697420927014734"><ele>5.0</ele><time>2026-04-04T12:54:19.001Z</time></trkpt><trkpt lat="45.0138189718843" lon="11.69721004282893"><ele>5.0</ele><time>2026-04-04T12:54:20.001Z</time></trkpt><trkpt lat="45.01385566169897" lon="11.696990717317135"><ele>5.0</ele><time>2026-04-04T12:54:21.001Z</time></trkpt><trkpt lat="45.01388319141273" lon="11.696767262001421"><ele>5.0</ele><time>2026-04-04T12:54:22.001Z</time></trkpt><trkpt lat="45.01390944874261" lon="11.69655474663161"><ele>5.0</ele><time>2026-04-04T12:54:23.001Z</time></trkpt><trkpt lat="45.013938761287925" lon="11.696349356779823"><ele>5.0</ele><time>2026-04-04T12:54:24.001Z</time></trkpt><trkpt lat="45.01396754417654" lon="11.696147362685176"><ele>5.0</ele><time>2026-04-04T12:54:25.001Z</time></trkpt><trkpt lat="45.01399716065344" lon="11.69595574373128"><ele>5.0</ele><time>2026-04-04T12:54:26.001Z</time></trkpt><trkpt lat="45.01402535982571" lon="11.69577053097013"><ele>5.0</ele><time>2026-04-04T12:54:27.001Z</time></trkpt><trkpt lat="45.01404859269465" lon="11.695597837239715"><ele>5.0</ele><time>2026-04-04T12:54:28.001Z</time></trkpt><trkpt lat="45.01407536434369" lon="11.695431748741578"><ele>5.0</ele><time>2026-04-04T12:54:29.001Z</time></trkpt><trkpt lat="45.014095453678294" lon="11.69528372783771"><ele>5.0</ele><time>2026-04-04T12:54:30.001Z</time></trkpt><trkpt lat="45.014120435422534" lon="11.69513770929637"><ele>5.0</ele><time>2026-04-04T12:54:31.001Z</time></trkpt><trkpt lat="45.01417170979488" lon="11.694992028902867"><ele>5.0</ele><time>2026-04-04T12:54:32.002Z</time></trkpt><trkpt lat="45.01420444679487" lon="11.694819000637263"><ele>5.25</ele><time>2026-04-04T12:54:33.001Z</time></trkpt><trkpt lat="45.014238157016194" lon="11.694633089695191"><ele>5.5</ele><time>2026-04-04T12:54:34.001Z</time></trkpt><trkpt lat="45.01427006633059" lon="11.694451693020497"><ele>5.75</ele><time>2026-04-04T12:54:35.002Z</time></trkpt><trkpt lat="45.01429754112529" lon="11.694280461795701"><ele>6.0</ele><time>2026-04-04T12:54:36.002Z</time></trkpt><trkpt lat="45.014322815556945" lon="11.694122944280778"><ele>6.199999999999999</ele><time>2026-04-04T12:54:37.002Z</time></trkpt><trkpt lat="45.01434559883951" lon="11.693981587917987"><ele>6.3999999999999995</ele><time>2026-04-04T12:54:38.002Z</time></trkpt><trkpt lat="45.014366194786206" lon="11.693847627892088"><ele>6.6</ele><time>2026-04-04T12:54:39.001Z</time></trkpt><trkpt lat="45.014385748628726" lon="11.693720330467551"><ele>6.8</ele><time>2026-04-04T12:54:40.001Z</time></trkpt><trkpt lat="45.01440543150491" lon="11.693591093004546"><ele>7.0</ele><time>2026-04-04T12:54:41.002Z</time></trkpt><trkpt lat="45.014425639424715" lon="11.69345704814512"><ele>7.0</ele><time>2026-04-04T12:54:42.001Z</time></trkpt><trkpt lat="45.01444859758085" lon="11.693295425236037"><ele>7.0</ele><time>2026-04-04T12:54:43.001Z</time></trkpt><trkpt lat="45.0144722526658" lon="11.693109336848883"><ele>7.0</ele><time>2026-04-04T12:54:44.001Z</time></trkpt><trkpt lat="45.01449616087174" lon="11.692912732092852"><ele>7.0</ele><time>2026-04-04T12:54:45.002Z</time></trkpt><trkpt lat="45.01452090692513" lon="11.692714026013283"><ele>6.5</ele><time>2026-04-04T12:54:46.002Z</time></trkpt><trkpt lat="45.014549339275206" lon="11.692515705892779"><ele>6.0</ele><time>2026-04-04T12:54:47.002Z</time></trkpt><trkpt lat="45.01458573594057" lon="11.692334477000616"><ele>5.5</ele><time>2026-04-04T12:54:48.002Z</time></trkpt><trkpt lat="45.01463007683442" lon="11.692158585057186"><ele>5.0</ele><time>2026-04-04T12:54:49.002Z</time></trkpt><trkpt lat="45.014655363628634" lon="11.691970861494553"><ele>5.0</ele><time>2026-04-04T12:54:50.002Z</time></trkpt><trkpt lat="45.014684968497704" lon="11.691758027363214"><ele>5.0</ele><time>2026-04-04T12:54:51.002Z</time></trkpt><trkpt lat="45.014694883408445" lon="11.691534342834869"><ele>5.0</ele><time>2026-04-04T12:54:52.002Z</time></trkpt><trkpt lat="45.014693294702205" lon="11.691305054604925"><ele>5.0</ele><time>2026-04-04T12:54:53.002Z</time></trkpt><trkpt lat="45.014676662915285" lon="11.691069713264735"><ele>5.0</ele><time>2026-04-04T12:54:54.002Z</time></trkpt><trkpt lat="45.014646178519016" lon="11.690827722612452"><ele>5.0</ele><time>2026-04-04T12:54:55.002Z</time></trkpt><trkpt lat="45.01461184573526" lon="11.690574496550157"><ele>5.0</ele><time>2026-04-04T12:54:56.002Z</time></trkpt><trkpt lat="45.0145905438964" lon="11.690302540694802"><ele>5.0</ele><time>2026-04-04T12:54:57.002Z</time></trkpt><trkpt lat="45.01458077206183" lon="11.690025908490133"><ele>5.0</ele><time>2026-04-04T12:54:58.002Z</time></trkpt><trkpt lat="45.014589349095175" lon="11.68976071727537"><ele>4.666666666666667</ele><time>2026-04-04T12:54:59.002Z</time></trkpt><trkpt lat="45.01461207895485" lon="11.689500353494775"><ele>4.333333333333333</ele><time>2026-04-04T12:55:00.002Z</time></trkpt><trkpt lat="45.01466723729135" lon="11.689242781966438"><ele>4.0</ele><time>2026-04-04T12:55:01.002Z</time></trkpt><trkpt lat="45.01472879006889" lon="11.688990830764515"><ele>4.0</ele><time>2026-04-04T12:55:02.002Z</time></trkpt><trkpt lat="45.014807601219374" lon="11.688733296283894"><ele>4.0</ele><time>2026-04-04T12:55:03.002Z</time></trkpt><trkpt lat="45.01489510756553" lon="11.688493703139223"><ele>4.0</ele><time>2026-04-04T12:55:04.002Z</time></trkpt><trkpt lat="45.014992696231474" lon="11.688259589333345"><ele>5.0</ele><time>2026-04-04T12:55:05.002Z</time></trkpt><trkpt lat="45.015099714823634" lon="11.688025257832166"><ele>6.0</ele><time>2026-04-04T12:55:06.002Z</time></trkpt><trkpt lat="45.01521077658101" lon="11.687794000494799"><ele>7.0</ele><time>2026-04-04T12:55:07.002Z</time></trkpt><trkpt lat="45.01530921455525" lon="11.687549537218494"><ele>7.0</ele><time>2026-04-04T12:55:08.002Z</time></trkpt><trkpt lat="45.0154162969559" lon="11.68733050472471"><ele>7.0</ele><time>2026-04-04T12:55:09.002Z</time></trkpt><trkpt lat="45.015514012822905" lon="11.687123950179508"><ele>7.0</ele><time>2026-04-04T12:55:10.002Z</time></trkpt><trkpt lat="45.01561663256478" lon="11.686943105763577"><ele>6.333333333333334</ele><time>2026-04-04T12:55:11.002Z</time></trkpt><trkpt lat="45.01571240142183" lon="11.686739469057194"><ele>5.666666666666667</ele><time>2026-04-04T12:55:12.002Z</time></trkpt><trkpt lat="45.01581098626965" lon="11.686526845197276"><ele>5.0</ele><time>2026-04-04T12:55:13.002Z</time></trkpt><trkpt lat="45.015913034795176" lon="11.686310699465338"><ele>5.0</ele><time>2026-04-04T12:55:14.002Z</time></trkpt><trkpt lat="45.01602373028243" lon="11.6860965249118"><ele>5.0</ele><time>2026-04-04T12:55:15.002Z</time></trkpt><trkpt lat="45.016148405216" lon="11.685883078087253"><ele>5.0</ele><time>2026-04-04T12:55:16.002Z</time></trkpt><trkpt lat="45.01629150336233" lon="11.685678564464002"><ele>5.0</ele><time>2026-04-04T12:55:17.002Z</time></trkpt><trkpt lat="45.01645331618755" lon="11.685494936245242"><ele>5.0</ele><time>2026-04-04T12:55:18.002Z</time></trkpt><trkpt lat="45.01662240249463" lon="11.685311152222265"><ele>5.0</ele><time>2026-04-04T12:55:19.002Z</time></trkpt><trkpt lat="45.01680040524374" lon="11.685123319362477"><ele>5.0</ele><time>2026-04-04T12:55:20.002Z</time></trkpt><trkpt lat="45.01698047528419" lon="11.684932652125395"><ele>5.0</ele><time>2026-04-04T12:55:21.002Z</time></trkpt><trkpt lat="45.0171600927516" lon="11.684744224603953"><ele>5.0</ele><time>2026-04-04T12:55:22.002Z</time></trkpt><trkpt lat="45.017346229287966" lon="11.684544660789665"><ele>5.0</ele><time>2026-04-04T12:55:23.001Z</time></trkpt><trkpt lat="45.017536076817336" lon="11.684340055925391"><ele>5.0</ele><time>2026-04-04T12:55:24.001Z</time></trkpt><trkpt lat="45.01773000958533" lon="11.684130780795611"><ele>5.0</ele><time>2026-04-04T12:55:25.001Z</time></trkpt><trkpt lat="45.017920314626046" lon="11.683924215141117"><ele>5.0</ele><time>2026-04-04T12:55:26.001Z</time></trkpt><trkpt lat="45.01811184603271" lon="11.683716318408441"><ele>5.0</ele><time>2026-04-04T12:55:27.001Z</time></trkpt><trkpt lat="45.01829735564622" lon="11.683514957942803"><ele>5.0</ele><time>2026-04-04T12:55:28.001Z</time></trkpt><trkpt lat="45.01847263113433" lon="11.683324636198767"><ele>5.0</ele><time>2026-04-04T12:55:29.001Z</time></trkpt><trkpt lat="45.018641298010316" lon="11.683137802604545"><ele>5.0</ele><time>2026-04-04T12:55:30.001Z</time></trkpt><trkpt lat="45.01880281083046" lon="11.682956306910565"><ele>5.0</ele><time>2026-04-04T12:55:31.001Z</time></trkpt><trkpt lat="45.018948326737615" lon="11.68277883219346"><ele>5.0</ele><time>2026-04-04T12:55:32.001Z</time></trkpt><trkpt lat="45.01907290618068" lon="11.682586612472269"><ele>5.0</ele><time>2026-04-04T12:55:33.001Z</time></trkpt><trkpt lat="45.019180146445464" lon="11.68238812878049"><ele>5.0</ele><time>2026-04-04T12:55:34.001Z</time></trkpt><trkpt lat="45.019275301763116" lon="11.682164852018271"><ele>5.0</ele><time>2026-04-04T12:55:35.001Z</time></trkpt><trkpt lat="45.0193573619021" lon="11.68192674820866"><ele>5.0</ele><time>2026-04-04T12:55:36.001Z</time></trkpt><trkpt lat="45.01941180251355" lon="11.681670819122651"><ele>5.0</ele><time>2026-04-04T12:55:37.001Z</time></trkpt><trkpt lat="45.019476583606085" lon="11.681410171081476"><ele>5.0</ele><time>2026-04-04T12:55:38.001Z</time></trkpt><trkpt lat="45.019559366431864" lon="11.681135406427982"><ele>5.0</ele><time>2026-04-04T12:55:39.001Z</time></trkpt><trkpt lat="45.01962589418818" lon="11.680854259971216"><ele>5.0</ele><time>2026-04-04T12:55:40.001Z</time></trkpt><trkpt lat="45.019567984656035" lon="11.680500019270092"><ele>4.5</ele><time>2026-04-04T12:55:41.001Z</time></trkpt><trkpt lat="45.019562785653996" lon="11.680177353718262"><ele>4.0</ele><time>2026-04-04T12:55:42.001Z</time></trkpt><trkpt lat="45.01955583777664" lon="11.679858680176586"><ele>4.0</ele><time>2026-04-04T12:55:43.001Z</time></trkpt><trkpt lat="45.01954225517983" lon="11.67954641067535"><ele>4.0</ele><time>2026-04-04T12:55:44.001Z</time></trkpt><trkpt lat="45.01953063706711" lon="11.679235150466171"><ele>4.0</ele><time>2026-04-04T12:55:45.001Z</time></trkpt><trkpt lat="45.01951606328719" lon="11.678934047042866"><ele>4.0</ele><time>2026-04-04T12:55:46.001Z</time></trkpt><trkpt lat="45.01950303674199" lon="11.67868770503062"><ele>4.0</ele><time>2026-04-04T12:55:47.001Z</time></trkpt><trkpt lat="45.0194894042945" lon="11.678467224360892"><ele>4.0</ele><time>2026-04-04T12:55:48.001Z</time></trkpt><trkpt lat="45.01948296527604" lon="11.678296230919932"><ele>3.6</ele><time>2026-04-04T12:55:49.001Z</time></trkpt><trkpt lat="45.019471524653426" lon="11.678169448387214"><ele>3.2</ele><time>2026-04-04T12:55:50.001Z</time></trkpt><trkpt lat="45.01947372587872" lon="11.678074706228852"><ele>2.8000000000000003</ele><time>2026-04-04T12:55:51.001Z</time></trkpt><trkpt lat="45.019511313500225" lon="11.677935210601593"><ele>2.4000000000000004</ele><time>2026-04-04T12:55:53.001Z</time></trkpt><trkpt lat="45.01961675006561" lon="11.67788187755765"><ele>2.0</ele><time>2026-04-04T12:55:55.001Z</time></trkpt><trkpt lat="45.019700687267594" lon="11.677896682342508"><ele>2.0</ele><time>2026-04-04T12:55:56.001Z</time></trkpt><trkpt lat="45.01980704421794" lon="11.67793114171346"><ele>2.0</ele><time>2026-04-04T12:55:57.001Z</time></trkpt><trkpt lat="45.01993385195995" lon="11.67796539946047"><ele>2.0</ele><time>2026-04-04T12:55:58.001Z</time></trkpt><trkpt lat="45.02007005166428" lon="11.677993967446763"><ele>2.0</ele><time>2026-04-04T12:55:59.001Z</time></trkpt><trkpt lat="45.02021715271355" lon="11.678029241920754"><ele>2.25</ele><time>2026-04-04T12:56:00.001Z</time></trkpt><trkpt lat="45.02037263003493" lon="11.678056185652155"><ele>2.5</ele><time>2026-04-04T12:56:01.001Z</time></trkpt><trkpt lat="45.02052530046779" lon="11.678084496477904"><ele>2.75</ele><time>2026-04-04T12:56:02.001Z</time></trkpt><trkpt lat="45.02066299756378" lon="11.678103073880592"><ele>3.0</ele><time>2026-04-04T12:56:03.001Z</time></trkpt><trkpt lat="45.02077891154857" lon="11.678126402901547"><ele>3.1666666666666665</ele><time>2026-04-04T12:56:04.001Z</time></trkpt><trkpt lat="45.02088139940736" lon="11.678140333144645"><ele>3.333333333333333</ele><time>2026-04-04T12:56:05.001Z</time></trkpt><trkpt lat="45.0209837548565" lon="11.67815816097079"><ele>3.5</ele><time>2026-04-04T12:56:06.001Z</time></trkpt><trkpt lat="45.02106325592609" lon="11.678185509057617"><ele>3.6666666666666665</ele><time>2026-04-04T12:56:07.001Z</time></trkpt><trkpt lat="45.02112998683609" lon="11.678218156757604"><ele>3.833333333333333</ele><time>2026-04-04T12:56:08.001Z</time></trkpt><trkpt lat="45.021194346739456" lon="11.678267539760052"><ele>4.0</ele><time>2026-04-04T12:56:09.001Z</time></trkpt><trkpt lat="45.021241747058156" lon="11.678327430755138"><ele>4.0</ele><time>2026-04-04T12:56:10.001Z</time></trkpt><trkpt lat="45.021275491910394" lon="11.678499042331314"><ele>4.0</ele><time>2026-04-04T12:56:12.001Z</time></trkpt><trkpt lat="45.02127329564281" lon="11.678623252791137"><ele>4.0</ele><time>2026-04-04T12:56:13.001Z</time></trkpt><trkpt lat="45.021269432186855" lon="11.678793584411297"><ele>4.0</ele><time>2026-04-04T12:56:14.001Z</time></trkpt><trkpt lat="45.02127586562068" lon="11.678963584685823"><ele>4.0</ele><time>2026-04-04T12:56:15.001Z</time></trkpt><trkpt lat="45.02128038214716" lon="11.679159962096856"><ele>4.0</ele><time>2026-04-04T12:56:16.001Z</time></trkpt><trkpt lat="45.02128729334821" lon="11.679374986199454"><ele>4.0</ele><time>2026-04-04T12:56:17.001Z</time></trkpt><trkpt lat="45.021298602908956" lon="11.679600879170088"><ele>4.333333333333333</ele><time>2026-04-04T12:56:18.001Z</time></trkpt><trkpt lat="45.0213047254313" lon="11.67983637481246"><ele>4.666666666666667</ele><time>2026-04-04T12:56:19.001Z</time></trkpt><trkpt lat="45.02131297934478" lon="11.68009623259647"><ele>5.0</ele><time>2026-04-04T12:56:20.001Z</time></trkpt><trkpt lat="45.02131766012567" lon="11.680389262911781"><ele>5.0</ele><time>2026-04-04T12:56:21.001Z</time></trkpt><trkpt lat="45.02132067873765" lon="11.68068282652852"><ele>5.0</ele><time>2026-04-04T12:56:22.001Z</time></trkpt><trkpt lat="45.02132183597411" lon="11.680972812260576"><ele>5.0</ele><time>2026-04-04T12:56:23.001Z</time></trkpt><trkpt lat="45.0213226166826" lon="11.681272703001767"><ele>5.0</ele><time>2026-04-04T12:56:24.001Z</time></trkpt><trkpt lat="45.02132833497005" lon="11.681574375387735"><ele>5.0</ele><time>2026-04-04T12:56:25.001Z</time></trkpt><trkpt lat="45.021337100205926" lon="11.681884206017722"><ele>5.0</ele><time>2026-04-04T12:56:26.001Z</time></trkpt><trkpt lat="45.02133934110723" lon="11.682194210114167"><ele>5.0</ele><time>2026-04-04T12:56:27.001Z</time></trkpt><trkpt lat="45.0213429948562" lon="11.682506669434558"><ele>5.0</ele><time>2026-04-04T12:56:28.001Z</time></trkpt><trkpt lat="45.02134619368047" lon="11.682814513568244"><ele>5.0</ele><time>2026-04-04T12:56:29.001Z</time></trkpt><trkpt lat="45.021347084732476" lon="11.683124876202758"><ele>5.0</ele><time>2026-04-04T12:56:30.001Z</time></trkpt><trkpt lat="45.02135058593645" lon="11.683440469400201"><ele>5.0</ele><time>2026-04-04T12:56:31.001Z</time></trkpt><trkpt lat="45.02135329130145" lon="11.683747973653572"><ele>5.0</ele><time>2026-04-04T12:56:32.001Z</time></trkpt><trkpt lat="45.02135648194063" lon="11.684054955385225"><ele>4.5</ele><time>2026-04-04T12:56:33.001Z</time></trkpt><trkpt lat="45.021359089022816" lon="11.684371839477734"><ele>4.0</ele><time>2026-04-04T12:56:34.001Z</time></trkpt><trkpt lat="45.021361950226364" lon="11.684697719203616"><ele>4.0</ele><time>2026-04-04T12:56:35.001Z</time></trkpt><trkpt lat="45.02136389862306" lon="11.68502902970886"><ele>4.0</ele><time>2026-04-04T12:56:36.001Z</time></trkpt><trkpt lat="45.0213621453622" lon="11.68536472988502"><ele>3.5</ele><time>2026-04-04T12:56:37.001Z</time></trkpt><trkpt lat="45.02135842301054" lon="11.685706482513915"><ele>3.0</ele><time>2026-04-04T12:56:38.002Z</time></trkpt><trkpt lat="45.02135432569558" lon="11.686053027404018"><ele>2.5</ele><time>2026-04-04T12:56:39.002Z</time></trkpt><trkpt lat="45.021345840200645" lon="11.68639952727141"><ele>2.0</ele><time>2026-04-04T12:56:40.002Z</time></trkpt><trkpt lat="45.02133481502138" lon="11.686744574149358"><ele>1.5</ele><time>2026-04-04T12:56:41.002Z</time></trkpt><trkpt lat="45.02131639676831" lon="11.687081552979784"><ele>1.0</ele><time>2026-04-04T12:56:42.002Z</time></trkpt><trkpt lat="45.021294707803314" lon="11.687420919702666"><ele>1.5</ele><time>2026-04-04T12:56:43.002Z</time></trkpt><trkpt lat="45.021270775717824" lon="11.687771459327482"><ele>2.0</ele><time>2026-04-04T12:56:44.001Z</time></trkpt><trkpt lat="45.02124517272431" lon="11.688118914371481"><ele>2.0</ele><time>2026-04-04T12:56:45.002Z</time></trkpt><trkpt lat="45.021217699186515" lon="11.68845991116064"><ele>2.0</ele><time>2026-04-04T12:56:46.002Z</time></trkpt><trkpt lat="45.0211845404743" lon="11.688803409884462"><ele>2.5</ele><time>2026-04-04T12:56:47.002Z</time></trkpt><trkpt lat="45.021153007299354" lon="11.689147507877165"><ele>3.0</ele><time>2026-04-04T12:56:48.001Z</time></trkpt><trkpt lat="45.021116185548586" lon="11.689496209052557"><ele>3.0</ele><time>2026-04-04T12:56:49.001Z</time></trkpt><trkpt lat="45.021071071788356" lon="11.689825893150838"><ele>3.0</ele><time>2026-04-04T12:56:50.001Z</time></trkpt><trkpt lat="45.02102175996812" lon="11.69014418252414"><ele>3.0</ele><time>2026-04-04T12:56:51.002Z</time></trkpt><trkpt lat="45.02096639085821" lon="11.690462486594024"><ele>3.0</ele><time>2026-04-04T12:56:52.002Z</time></trkpt><trkpt lat="45.02090730634331" lon="11.69080087437625"><ele>2.5</ele><time>2026-04-04T12:56:53.002Z</time></trkpt><trkpt lat="45.02084566638372" lon="11.691155895108283"><ele>2.0</ele><time>2026-04-04T12:56:54.002Z</time></trkpt><trkpt lat="45.02078570391942" lon="11.691502003746473"><ele>2.0</ele><time>2026-04-04T12:56:55.002Z</time></trkpt><trkpt lat="45.02072906496389" lon="11.69183893347287"><ele>2.0</ele><time>2026-04-04T12:56:56.002Z</time></trkpt><trkpt lat="45.02067287988259" lon="11.692154593099431"><ele>2.0</ele><time>2026-04-04T12:56:57.002Z</time></trkpt><trkpt lat="45.020619166909" lon="11.692465554538254"><ele>2.0</ele><time>2026-04-04T12:56:58.002Z</time></trkpt><trkpt lat="45.020564488226285" lon="11.69277635891829"><ele>2.0</ele><time>2026-04-04T12:56:59.002Z</time></trkpt><trkpt lat="45.0205144723546" lon="11.693088732495744"><ele>2.0</ele><time>2026-04-04T12:57:00.002Z</time></trkpt><trkpt lat="45.02046732013341" lon="11.693407643453842"><ele>2.0</ele><time>2026-04-04T12:57:01.002Z</time></trkpt><trkpt lat="45.02042598029168" lon="11.693724143260319"><ele>2.0</ele><time>2026-04-04T12:57:02.002Z</time></trkpt><trkpt lat="45.02036933364921" lon="11.694039756556595"><ele>2.0</ele><time>2026-04-04T12:57:03.002Z</time></trkpt><trkpt lat="45.02031214840166" lon="11.694346011058858"><ele>2.0</ele><time>2026-04-04T12:57:04.002Z</time></trkpt><trkpt lat="45.02026121186208" lon="11.694653839728096"><ele>2.0</ele><time>2026-04-04T12:57:05.002Z</time></trkpt><trkpt lat="45.02020961359507" lon="11.694954005944236"><ele>2.6666666666666665</ele><time>2026-04-04T12:57:06.002Z</time></trkpt><trkpt lat="45.020161723582966" lon="11.695263365938763"><ele>3.333333333333333</ele><time>2026-04-04T12:57:07.002Z</time></trkpt><trkpt lat="45.0201052412484" lon="11.695561793444332"><ele>4.0</ele><time>2026-04-04T12:57:08.002Z</time></trkpt><trkpt lat="45.020052348451394" lon="11.695860044206443"><ele>4.0</ele><time>2026-04-04T12:57:09.002Z</time></trkpt><trkpt lat="45.01999941770166" lon="11.696165046873382"><ele>4.0</ele><time>2026-04-04T12:57:10.002Z</time></trkpt><trkpt lat="45.01995325912146" lon="11.696471459801295"><ele>4.0</ele><time>2026-04-04T12:57:11.002Z</time></trkpt><trkpt lat="45.0199155976454" lon="11.696766897743421"><ele>3.0</ele><time>2026-04-04T12:57:12.002Z</time></trkpt><trkpt lat="45.01987834024271" lon="11.697058554673392"><ele>2.0</ele><time>2026-04-04T12:57:13.002Z</time></trkpt><trkpt lat="45.019848301588716" lon="11.697345894895813"><ele>1.0</ele><time>2026-04-04T12:57:14.002Z</time></trkpt><trkpt lat="45.01982194376549" lon="11.697624458548196"><ele>1.0</ele><time>2026-04-04T12:57:15.002Z</time></trkpt><trkpt lat="45.01978961179424" lon="11.697912414899486"><ele>1.0</ele><time>2026-04-04T12:57:16.002Z</time></trkpt><trkpt lat="45.01977013784706" lon="11.698169908860958"><ele>1.0</ele><time>2026-04-04T12:57:17.002Z</time></trkpt><trkpt lat="45.019743545631265" lon="11.698388616538566"><ele>0.6666666666666666</ele><time>2026-04-04T12:57:18.002Z</time></trkpt><trkpt lat="45.019720308101014" lon="11.698600708556938"><ele>0.3333333333333333</ele><time>2026-04-04T12:57:19.002Z</time></trkpt><trkpt lat="45.019691096334455" lon="11.698993225919576"><ele>0.0</ele><time>2026-04-04T12:57:21.002Z</time></trkpt><trkpt lat="45.01966889789032" lon="11.699189154333562"><ele>0.0</ele><time>2026-04-04T12:57:22.002Z</time></trkpt><trkpt lat="45.01962143559029" lon="11.699383374834877"><ele>0.0</ele><time>2026-04-04T12:57:23.002Z</time></trkpt><trkpt lat="45.01955437595821" lon="11.699579512801979"><ele>0.0</ele><time>2026-04-04T12:57:24.002Z</time></trkpt><trkpt lat="45.01946652184926" lon="11.699753129056324"><ele>0.0</ele><time>2026-04-04T12:57:25.002Z</time></trkpt><trkpt lat="45.019369777382565" lon="11.69990551494513"><ele>0.0</ele><time>2026-04-04T12:57:26.002Z</time></trkpt><trkpt lat="45.019245670232515" lon="11.70004123216148"><ele>0.0</ele><time>2026-04-04T12:57:27.002Z</time></trkpt><trkpt lat="45.01909955209168" lon="11.700174770219657"><ele>0.3333333333333333</ele><time>2026-04-04T12:57:28.002Z</time></trkpt><trkpt lat="45.01893006666786" lon="11.700307326371911"><ele>0.6666666666666666</ele><time>2026-04-04T12:57:29.002Z</time></trkpt><trkpt lat="45.01876474862159" lon="11.700433389801848"><ele>1.0</ele><time>2026-04-04T12:57:30.002Z</time></trkpt><trkpt lat="45.01859033304568" lon="11.700553219266704"><ele>1.0</ele><time>2026-04-04T12:57:31.002Z</time></trkpt><trkpt lat="45.01842759717304" lon="11.700683110939194"><ele>1.0</ele><time>2026-04-04T12:57:32.002Z</time></trkpt><trkpt lat="45.018279039696324" lon="11.700806904940425"><ele>1.0</ele><time>2026-04-04T12:57:33.002Z</time></trkpt><trkpt lat="45.018142869645686" lon="11.700913804706659"><ele>1.25</ele><time>2026-04-04T12:57:34.002Z</time></trkpt><trkpt lat="45.018021713159854" lon="11.701009618466253"><ele>1.5</ele><time>2026-04-04T12:57:35.002Z</time></trkpt><trkpt lat="45.01790998290989" lon="11.70108882100321"><ele>1.75</ele><time>2026-04-04T12:57:36.002Z</time></trkpt><trkpt lat="45.017796102192534" lon="11.701168481404295"><ele>2.0</ele><time>2026-04-04T12:57:37.002Z</time></trkpt><trkpt lat="45.01769218859078" lon="11.701246517276742"><ele>1.9999999999999998</ele><time>2026-04-04T12:57:38.001Z</time></trkpt><trkpt lat="45.01760369242099" lon="11.701311570084318"><ele>2.0</ele><time>2026-04-04T12:57:39.001Z</time></trkpt><trkpt lat="45.0175226794003" lon="11.70136306237565"><ele>2.0</ele><time>2026-04-04T12:57:40.001Z</time></trkpt><trkpt lat="45.01744177377634" lon="11.701385293644464"><ele>2.0</ele><time>2026-04-04T12:57:41.001Z</time></trkpt><trkpt lat="45.01736379169028" lon="11.701381080894471"><ele>1.9999999999999998</ele><time>2026-04-04T12:57:42.001Z</time></trkpt><trkpt lat="45.01728722883581" lon="11.701340873943707"><ele>2.0</ele><time>2026-04-04T12:57:43.001Z</time></trkpt><trkpt lat="45.01720723742838" lon="11.701279875268934"><ele>2.0</ele><time>2026-04-04T12:57:44.001Z</time></trkpt><trkpt lat="45.017115559959265" lon="11.701226742731548"><ele>2.0</ele><time>2026-04-04T12:57:45.001Z</time></trkpt><trkpt lat="45.0170084022214" lon="11.701218297073051"><ele>2.0</ele><time>2026-04-04T12:57:46.001Z</time></trkpt><trkpt lat="45.01689947526666" lon="11.701251253034327"><ele>2.0</ele><time>2026-04-04T12:57:47.001Z</time></trkpt><trkpt lat="45.01679708421144" lon="11.70132592689146"><ele>2.0</ele><time>2026-04-04T12:57:48.001Z</time></trkpt><trkpt lat="45.016719333763525" lon="11.701444817952618"><ele>2.0</ele><time>2026-04-04T12:57:49.001Z</time></trkpt><trkpt lat="45.016673698352605" lon="11.701585742401136"><ele>2.0</ele><time>2026-04-04T12:57:50.001Z</time></trkpt><trkpt lat="45.01665491509693" lon="11.701738344911757"><ele>2.0</ele><time>2026-04-04T12:57:51.001Z</time></trkpt><trkpt lat="45.016667090443875" lon="11.70189544147203"><ele>2.0</ele><time>2026-04-04T12:57:52.001Z</time></trkpt><trkpt lat="45.01670684440412" lon="11.702033415723223"><ele>2.0</ele><time>2026-04-04T12:57:53.001Z</time></trkpt><trkpt lat="45.016773287874656" lon="11.702153451597056"><ele>1.8</ele><time>2026-04-04T12:57:54.001Z</time></trkpt><trkpt lat="45.016854931244445" lon="11.702244303490247"><ele>1.6</ele><time>2026-04-04T12:57:55.001Z</time></trkpt><trkpt lat="45.016953585355964" lon="11.702301969856524"><ele>1.4000000000000001</ele><time>2026-04-04T12:57:56.001Z</time></trkpt><trkpt lat="45.01706585362423" lon="11.702315887134736"><ele>1.2000000000000002</ele><time>2026-04-04T12:57:57.001Z</time></trkpt><trkpt lat="45.01717903998623" lon="11.702292459639482"><ele>1.0</ele><time>2026-04-04T12:57:58.001Z</time></trkpt><trkpt lat="45.017291584300494" lon="11.70223715123082"><ele>1.0</ele><time>2026-04-04T12:57:59.001Z</time></trkpt><trkpt lat="45.01739678418578" lon="11.702173727371523"><ele>1.0</ele><time>2026-04-04T12:58:00.001Z</time></trkpt><trkpt lat="45.017501938812075" lon="11.702139824724261"><ele>1.0</ele><time>2026-04-04T12:58:01.001Z</time></trkpt><trkpt lat="45.01760988857954" lon="11.702127108683765"><ele>1.0</ele><time>2026-04-04T12:58:02.001Z</time></trkpt><trkpt lat="45.01774651471034" lon="11.702121772968654"><ele>0.6666666666666666</ele><time>2026-04-04T12:58:03.001Z</time></trkpt><trkpt lat="45.01790974212506" lon="11.70211632951613"><ele>0.3333333333333333</ele><time>2026-04-04T12:58:04.001Z</time></trkpt><trkpt lat="45.01808173678666" lon="11.702107099246321"><ele>0.0</ele><time>2026-04-04T12:58:05.001Z</time></trkpt><trkpt lat="45.01825480960874" lon="11.702087700830246"><ele>0.25</ele><time>2026-04-04T12:58:06.001Z</time></trkpt><trkpt lat="45.01840858349455" lon="11.702065582448602"><ele>0.5</ele><time>2026-04-04T12:58:07.001Z</time></trkpt><trkpt lat="45.01855708487656" lon="11.702057006121606"><ele>0.75</ele><time>2026-04-04T12:58:08.001Z</time></trkpt><trkpt lat="45.01869143809364" lon="11.702047428679897"><ele>1.0</ele><time>2026-04-04T12:58:09.001Z</time></trkpt><trkpt lat="45.01881675917593" lon="11.702034960522454"><ele>1.0</ele><time>2026-04-04T12:58:10.001Z</time></trkpt><trkpt lat="45.018965982403365" lon="11.702025118520304"><ele>1.0</ele><time>2026-04-04T12:58:11.001Z</time></trkpt><trkpt lat="45.01913786787314" lon="11.702015985655418"><ele>1.0</ele><time>2026-04-04T12:58:12.001Z</time></trkpt><trkpt lat="45.01931021417434" lon="11.702001286022135"><ele>2.0</ele><time>2026-04-04T12:58:13.001Z</time></trkpt><trkpt lat="45.01948912082384" lon="11.701992763604238"><ele>3.0</ele><time>2026-04-04T12:58:14.001Z</time></trkpt><trkpt lat="45.01966632841332" lon="11.701988748250603"><ele>4.0</ele><time>2026-04-04T12:58:15.001Z</time></trkpt><trkpt lat="45.01982250654768" lon="11.701982309976232"><ele>4.0</ele><time>2026-04-04T12:58:16.001Z</time></trkpt><trkpt lat="45.01995824384897" lon="11.701977049484201"><ele>4.0</ele><time>2026-04-04T12:58:17.001Z</time></trkpt><trkpt lat="45.020084308758854" lon="11.701975587390328"><ele>4.0</ele><time>2026-04-04T12:58:18.001Z</time></trkpt><trkpt lat="45.02020716807347" lon="11.701980840880887"><ele>4.0</ele><time>2026-04-04T12:58:19.001Z</time></trkpt><trkpt lat="45.0203388379055" lon="11.701995506489887"><ele>3.75</ele><time>2026-04-04T12:58:20.001Z</time></trkpt><trkpt lat="45.02047929526761" lon="11.70202426340353"><ele>3.5</ele><time>2026-04-04T12:58:21.001Z</time></trkpt><trkpt lat="45.020621839367415" lon="11.702063745596158"><ele>3.25</ele><time>2026-04-04T12:58:22.001Z</time></trkpt><trkpt lat="45.02076427760919" lon="11.70211776886717"><ele>3.0</ele><time>2026-04-04T12:58:23.001Z</time></trkpt><trkpt lat="45.02090309588968" lon="11.702187617211708"><ele>2.3333333333333335</ele><time>2026-04-04T12:58:24.001Z</time></trkpt><trkpt lat="45.021046540676394" lon="11.702268451706827"><ele>1.6666666666666665</ele><time>2026-04-04T12:58:25.001Z</time></trkpt><trkpt lat="45.02119886057123" lon="11.702380938299594"><ele>1.0</ele><time>2026-04-04T12:58:26.001Z</time></trkpt><trkpt lat="45.021331652256606" lon="11.702495490710664"><ele>1.0</ele><time>2026-04-04T12:58:27.001Z</time></trkpt><trkpt lat="45.02145830462871" lon="11.702653306916478"><ele>1.0</ele><time>2026-04-04T12:58:28.001Z</time></trkpt><trkpt lat="45.02158303949516" lon="11.702823900765829"><ele>1.0</ele><time>2026-04-04T12:58:29.001Z</time></trkpt><trkpt lat="45.021704352769916" lon="11.703000775207451"><ele>1.0</ele><time>2026-04-04T12:58:30.001Z</time></trkpt><trkpt lat="45.02180226829844" lon="11.70318230828336"><ele>1.0</ele><time>2026-04-04T12:58:31.001Z</time></trkpt><trkpt lat="45.02187964357119" lon="11.703397389861848"><ele>1.0</ele><time>2026-04-04T12:58:32.001Z</time></trkpt><trkpt lat="45.021940184451005" lon="11.703635054232969"><ele>1.0</ele><time>2026-04-04T12:58:33.001Z</time></trkpt><trkpt lat="45.02198833012733" lon="11.70389041387873"><ele>1.0</ele><time>2026-04-04T12:58:34.001Z</time></trkpt><trkpt lat="45.022043938259685" lon="11.704147833062354"><ele>1.0</ele><time>2026-04-04T12:58:35.001Z</time></trkpt><trkpt lat="45.02208739591454" lon="11.704411049357077"><ele>1.0</ele><time>2026-04-04T12:58:36.001Z</time></trkpt><trkpt lat="45.02212649250131" lon="11.704677094190291"><ele>1.0</ele><time>2026-04-04T12:58:37.001Z</time></trkpt><trkpt lat="45.02216354785966" lon="11.704910523905145"><ele>1.0</ele><time>2026-04-04T12:58:38.001Z</time></trkpt><trkpt lat="45.02219223587468" lon="11.705102100922435"><ele>1.2000000000000002</ele><time>2026-04-04T12:58:39.001Z</time></trkpt><trkpt lat="45.022219691712124" lon="11.705280373439479"><ele>1.4000000000000001</ele><time>2026-04-04T12:58:40.001Z</time></trkpt><trkpt lat="45.02224583996347" lon="11.705440803424516"><ele>1.6</ele><time>2026-04-04T12:58:41.001Z</time></trkpt><trkpt lat="45.02227303748321" lon="11.705577782516956"><ele>1.8</ele><time>2026-04-04T12:58:42.001Z</time></trkpt><trkpt lat="45.02229336306676" lon="11.705686022475152"><ele>2.0</ele><time>2026-04-04T12:58:43.001Z</time></trkpt><trkpt lat="45.02230706809766" lon="11.705774163540491"><ele>2.0</ele><time>2026-04-04T12:58:44.002Z</time></trkpt><trkpt lat="45.02233378296687" lon="11.705883258715723"><ele>2.0</ele><time>2026-04-04T12:58:46.002Z</time></trkpt><trkpt lat="45.0223498149224" lon="11.705974998613408"><ele>2.0</ele><time>2026-04-04T12:58:49.002Z</time></trkpt><trkpt lat="45.02247457197006" lon="11.706122118602666"><ele>2.0</ele><time>2026-04-04T13:02:13.001Z</time></trkpt><trkpt lat="45.02254006796995" lon="11.706211204595595"><ele>2.0</ele><time>2026-04-04T13:02:14.001Z</time></trkpt><trkpt lat="45.022596190704725" lon="11.706284366169317"><ele>2.1666666666666665</ele><time>2026-04-04T13:02:15.001Z</time></trkpt><trkpt lat="45.02266140674849" lon="11.706360972161189"><ele>2.333333333333333</ele><time>2026-04-04T13:02:16.001Z</time></trkpt><trkpt lat="45.022727363878836" lon="11.70643292019087"><ele>2.5</ele><time>2026-04-04T13:02:17.001Z</time></trkpt><trkpt lat="45.022794464149534" lon="11.706499878781331"><ele>2.6666666666666665</ele><time>2026-04-04T13:02:18.001Z</time></trkpt><trkpt lat="45.02285812548193" lon="11.706565973324905"><ele>2.8333333333333335</ele><time>2026-04-04T13:02:19.001Z</time></trkpt><trkpt lat="45.02291969463328" lon="11.706625018935787"><ele>3.0</ele><time>2026-04-04T13:02:20.001Z</time></trkpt><trkpt lat="45.0229731994955" lon="11.706695151967143"><ele>3.0</ele><time>2026-04-04T13:02:21.001Z</time></trkpt><trkpt lat="45.02301734205501" lon="11.706765205156994"><ele>3.0</ele><time>2026-04-04T13:02:22.001Z</time></trkpt><trkpt lat="45.02308464753487" lon="11.706853893550194"><ele>3.0</ele><time>2026-04-04T13:02:24.001Z</time></trkpt><trkpt lat="45.0231430160686" lon="11.706919334964548"><ele>3.0</ele><time>2026-04-04T13:02:27.001Z</time></trkpt><trkpt lat="45.02319736391936" lon="11.706980005114788"><ele>3.0</ele><time>2026-04-04T13:02:29.001Z</time></trkpt><trkpt lat="45.02318881374918" lon="11.706810908555655"><ele>3.0</ele><time>2026-04-04T13:02:45.001Z</time></trkpt><trkpt lat="45.023136524994136" lon="11.70672443365447"><ele>3.0</ele><time>2026-04-04T13:02:46.001Z</time></trkpt><trkpt lat="45.02304954490491" lon="11.706635297106269"><ele>3.0</ele><time>2026-04-04T13:02:47.001Z</time></trkpt><trkpt lat="45.02296028911893" lon="11.70655104532128"><ele>3.0</ele><time>2026-04-04T13:02:48.001Z</time></trkpt><trkpt lat="45.02286574548431" lon="11.706463845942277"><ele>3.0</ele><time>2026-04-04T13:02:49.001Z</time></trkpt><trkpt lat="45.02277328260962" lon="11.706373822182108"><ele>3.0</ele><time>2026-04-04T13:02:50.001Z</time></trkpt><trkpt lat="45.02268251618028" lon="11.706273438223288"><ele>3.0</ele><time>2026-04-04T13:02:51.001Z</time></trkpt><trkpt lat="45.02259547754122" lon="11.706177146497676"><ele>3.0</ele><time>2026-04-04T13:02:52.001Z</time></trkpt><trkpt lat="45.02250925839407" lon="11.706070304673375"><ele>3.0</ele><time>2026-04-04T13:02:53.001Z</time></trkpt><trkpt lat="45.022429205055914" lon="11.705937919466301"><ele>3.0</ele><time>2026-04-04T13:02:54.001Z</time></trkpt><trkpt lat="45.022365880292405" lon="11.705780893825214"><ele>2.75</ele><time>2026-04-04T13:02:55.001Z</time></trkpt><trkpt lat="45.02231869752036" lon="11.70561479183097"><ele>2.5</ele><time>2026-04-04T13:02:56.002Z</time></trkpt><trkpt lat="45.022302540050845" lon="11.705433635987381"><ele>2.25</ele><time>2026-04-04T13:02:57.002Z</time></trkpt><trkpt lat="45.0222706940268" lon="11.705247275390354"><ele>2.0</ele><time>2026-04-04T13:02:58.002Z</time></trkpt><trkpt lat="45.02224028697585" lon="11.705057028346959"><ele>1.6666666666666665</ele><time>2026-04-04T13:02:59.002Z</time></trkpt><trkpt lat="45.02220695930364" lon="11.70484648423969"><ele>1.3333333333333333</ele><time>2026-04-04T13:03:00.002Z</time></trkpt><trkpt lat="45.022172860007096" lon="11.70462723711521"><ele>1.0</ele><time>2026-04-04T13:03:01.002Z</time></trkpt><trkpt lat="45.02212978785981" lon="11.704398005643608"><ele>1.0</ele><time>2026-04-04T13:03:02.002Z</time></trkpt><trkpt lat="45.022100215232484" lon="11.704175284176653"><ele>1.0</ele><time>2026-04-04T13:03:03.002Z</time></trkpt><trkpt lat="45.02206694124849" lon="11.703955685224143"><ele>1.0</ele><time>2026-04-04T13:03:04.002Z</time></trkpt><trkpt lat="45.02202618118227" lon="11.703737997150734"><ele>0.75</ele><time>2026-04-04T13:03:05.002Z</time></trkpt><trkpt lat="45.02198537241139" lon="11.703535063524809"><ele>0.5</ele><time>2026-04-04T13:03:06.002Z</time></trkpt><trkpt lat="45.02193869303008" lon="11.703348739818086"><ele>0.25</ele><time>2026-04-04T13:03:07.002Z</time></trkpt><trkpt lat="45.02187131011812" lon="11.703169265494372"><ele>0.0</ele><time>2026-04-04T13:03:08.002Z</time></trkpt><trkpt lat="45.021782084148875" lon="11.703001328928178"><ele>0.0</ele><time>2026-04-04T13:03:09.002Z</time></trkpt><trkpt lat="45.021678855576056" lon="11.702848631710566"><ele>0.0</ele><time>2026-04-04T13:03:10.002Z</time></trkpt><trkpt lat="45.02155757312316" lon="11.70269123239246"><ele>0.0</ele><time>2026-04-04T13:03:11.002Z</time></trkpt><trkpt lat="45.021440775659286" lon="11.702547789254664"><ele>0.3333333333333333</ele><time>2026-04-04T13:03:12.002Z</time></trkpt><trkpt lat="45.0213188880387" lon="11.702412739364489"><ele>0.6666666666666666</ele><time>2026-04-04T13:03:13.002Z</time></trkpt><trkpt lat="45.02117592713794" lon="11.702296655690478"><ele>1.0</ele><time>2026-04-04T13:03:14.002Z</time></trkpt><trkpt lat="45.02102543150877" lon="11.702199029145891"><ele>1.0</ele><time>2026-04-04T13:03:15.002Z</time></trkpt><trkpt lat="45.020868177759766" lon="11.702117649041801"><ele>1.0</ele><time>2026-04-04T13:03:16.002Z</time></trkpt><trkpt lat="45.02070441563301" lon="11.702040094270785"><ele>1.0</ele><time>2026-04-04T13:03:17.002Z</time></trkpt><trkpt lat="45.02053707041699" lon="11.701993734754668"><ele>1.6666666666666665</ele><time>2026-04-04T13:03:18.002Z</time></trkpt><trkpt lat="45.02037221961525" lon="11.701962422586103"><ele>2.3333333333333335</ele><time>2026-04-04T13:03:19.002Z</time></trkpt><trkpt lat="45.0202132508569" lon="11.701943497293987"><ele>3.0</ele><time>2026-04-04T13:03:20.002Z</time></trkpt><trkpt lat="45.02006477670523" lon="11.701934765098493"><ele>3.25</ele><time>2026-04-04T13:03:21.002Z</time></trkpt><trkpt lat="45.01991763997298" lon="11.701936737928584"><ele>3.5</ele><time>2026-04-04T13:03:22.002Z</time></trkpt><trkpt lat="45.01977051677763" lon="11.701948995301304"><ele>3.75</ele><time>2026-04-04T13:03:23.002Z</time></trkpt><trkpt lat="45.019619816724294" lon="11.701964969685406"><ele>4.0</ele><time>2026-04-04T13:03:24.002Z</time></trkpt><trkpt lat="45.019470968444416" lon="11.701980296420894"><ele>4.0</ele><time>2026-04-04T13:03:25.002Z</time></trkpt><trkpt lat="45.01931928028019" lon="11.701964506903176"><ele>4.0</ele><time>2026-04-04T13:03:26.002Z</time></trkpt><trkpt lat="45.01916542164905" lon="11.70197267421126"><ele>4.0</ele><time>2026-04-04T13:03:27.002Z</time></trkpt><trkpt lat="45.01901338908532" lon="11.701988744648432"><ele>3.0</ele><time>2026-04-04T13:03:28.002Z</time></trkpt><trkpt lat="45.01885717230922" lon="11.70200491890636"><ele>2.0</ele><time>2026-04-04T13:03:29.002Z</time></trkpt><trkpt lat="45.018695562538674" lon="11.702014100565592"><ele>1.0</ele><time>2026-04-04T13:03:30.002Z</time></trkpt><trkpt lat="45.01852595785549" lon="11.702026119042145"><ele>1.0</ele><time>2026-04-04T13:03:31.002Z</time></trkpt><trkpt lat="45.01836248602832" lon="11.702038576602103"><ele>1.0</ele><time>2026-04-04T13:03:32.002Z</time></trkpt><trkpt lat="45.01820566215714" lon="11.702050597513532"><ele>1.0</ele><time>2026-04-04T13:03:33.002Z</time></trkpt><trkpt lat="45.01806493373917" lon="11.702040041248448"><ele>0.8</ele><time>2026-04-04T13:03:34.002Z</time></trkpt><trkpt lat="45.017948054403774" lon="11.702039269316566"><ele>0.6000000000000001</ele><time>2026-04-04T13:03:35.002Z</time></trkpt><trkpt lat="45.017844309866675" lon="11.70204319431442"><ele>0.4</ele><time>2026-04-04T13:03:36.002Z</time></trkpt><trkpt lat="45.017745903074555" lon="11.702038324494561"><ele>0.2</ele><time>2026-04-04T13:03:37.002Z</time></trkpt><trkpt lat="45.01765681092321" lon="11.702013015817915"><ele>0.0</ele><time>2026-04-04T13:03:38.002Z</time></trkpt><trkpt lat="45.017580941763825" lon="11.7019743453061"><ele>0.0</ele><time>2026-04-04T13:03:39.002Z</time></trkpt><trkpt lat="45.0175127746709" lon="11.701942212347767"><ele>0.0</ele><time>2026-04-04T13:03:40.002Z</time></trkpt><trkpt lat="45.017468967547984" lon="11.701716285669836"><ele>0.0</ele><time>2026-04-04T13:03:42.002Z</time></trkpt><trkpt lat="45.017454491682685" lon="11.701586525071006"><ele>0.0</ele><time>2026-04-04T13:03:43.002Z</time></trkpt><trkpt lat="45.017415753176294" lon="11.701455164795224"><ele>0.0</ele><time>2026-04-04T13:03:44.002Z</time></trkpt><trkpt lat="45.01734945885845" lon="11.701335130488047"><ele>0.5</ele><time>2026-04-04T13:03:45.002Z</time></trkpt><trkpt lat="45.01725478763731" lon="11.701241788311128"><ele>1.0</ele><time>2026-04-04T13:03:46.002Z</time></trkpt><trkpt lat="45.017150714839026" lon="11.701190703725347"><ele>1.5</ele><time>2026-04-04T13:03:47.002Z</time></trkpt><trkpt lat="45.01703718146291" lon="11.701184835490157"><ele>2.0</ele><time>2026-04-04T13:03:48.001Z</time></trkpt><trkpt lat="45.01692292554288" lon="11.701230584268616"><ele>2.0</ele><time>2026-04-04T13:03:49.001Z</time></trkpt><trkpt lat="45.01682981361096" lon="11.70131438245196"><ele>2.0</ele><time>2026-04-04T13:03:50.001Z</time></trkpt><trkpt lat="45.01673008132561" lon="11.701380529552319"><ele>2.0</ele><time>2026-04-04T13:03:51.001Z</time></trkpt><trkpt lat="45.016696883831194" lon="11.70149404482763"><ele>2.0</ele><time>2026-04-04T13:03:52.001Z</time></trkpt><trkpt lat="45.01652928544405" lon="11.701395824560853"><ele>2.25</ele><time>2026-04-04T13:03:53.001Z</time></trkpt><trkpt lat="45.01643904155183" lon="11.701346205634419"><ele>2.5</ele><time>2026-04-04T13:03:54.001Z</time></trkpt><trkpt lat="45.01634024166709" lon="11.701263751357292"><ele>2.75</ele><time>2026-04-04T13:03:55.001Z</time></trkpt><trkpt lat="45.0162313483571" lon="11.701186428595436"><ele>3.0</ele><time>2026-04-04T13:03:56.001Z</time></trkpt><trkpt lat="45.016113362380786" lon="11.70111483831805"><ele>3.0</ele><time>2026-04-04T13:03:57.001Z</time></trkpt><trkpt lat="45.015989723919304" lon="11.701035807791122"><ele>3.0</ele><time>2026-04-04T13:03:58.001Z</time></trkpt><trkpt lat="45.01585584360813" lon="11.70095388142698"><ele>3.0</ele><time>2026-04-04T13:03:59.001Z</time></trkpt><trkpt lat="45.015719136518626" lon="11.700872035641876"><ele>3.0</ele><time>2026-04-04T13:04:00.001Z</time></trkpt><trkpt lat="45.015585340449306" lon="11.70079063210459"><ele>3.25</ele><time>2026-04-04T13:04:01.001Z</time></trkpt><trkpt lat="45.01545703153399" lon="11.700715318969124"><ele>3.5</ele><time>2026-04-04T13:04:02.001Z</time></trkpt><trkpt lat="45.01532973936471" lon="11.700641732790444"><ele>3.75</ele><time>2026-04-04T13:04:03.001Z</time></trkpt><trkpt lat="45.015208105116706" lon="11.700578117570153"><ele>4.0</ele><time>2026-04-04T13:04:04.001Z</time></trkpt><trkpt lat="45.01509847336793" lon="11.700488629398242"><ele>4.0</ele><time>2026-04-04T13:04:05.001Z</time></trkpt><trkpt lat="45.014988872740744" lon="11.700424607862297"><ele>4.0</ele><time>2026-04-04T13:04:06.001Z</time></trkpt><trkpt lat="45.01489231402909" lon="11.700360180246125"><ele>4.0</ele><time>2026-04-04T13:04:07.001Z</time></trkpt><trkpt lat="45.01481153054151" lon="11.700279472992863"><ele>4.0</ele><time>2026-04-04T13:04:08.001Z</time></trkpt><trkpt lat="45.01475593166613" lon="11.70017123478441"><ele>4.0</ele><time>2026-04-04T13:04:09.001Z</time></trkpt><trkpt lat="45.014720367661724" lon="11.70003294624198"><ele>4.25</ele><time>2026-04-04T13:04:10.001Z</time></trkpt><trkpt lat="45.01472051440476" lon="11.699849021106415"><ele>4.5</ele><time>2026-04-04T13:04:11.001Z</time></trkpt><trkpt lat="45.01471611689207" lon="11.699640040756298"><ele>4.75</ele><time>2026-04-04T13:04:12.001Z</time></trkpt><trkpt lat="45.0147059374256" lon="11.699435135794232"><ele>5.0</ele><time>2026-04-04T13:04:13.001Z</time></trkpt><trkpt lat="45.014717916296426" lon="11.699250546460652"><ele>5.0</ele><time>2026-04-04T13:04:14.001Z</time></trkpt><trkpt lat="45.01473242566674" lon="11.699071574543662"><ele>5.0</ele><time>2026-04-04T13:04:15.001Z</time></trkpt><trkpt lat="45.01475938228893" lon="11.69887696150415"><ele>5.0</ele><time>2026-04-04T13:04:16.001Z</time></trkpt><trkpt lat="45.01478912784331" lon="11.69867539730654"><ele>5.0</ele><time>2026-04-04T13:04:17.001Z</time></trkpt><trkpt lat="45.01481897382549" lon="11.69847631674507"><ele>5.0</ele><time>2026-04-04T13:04:18.001Z</time></trkpt><trkpt lat="45.014840049309015" lon="11.69827479191689"><ele>5.0</ele><time>2026-04-04T13:04:19.001Z</time></trkpt><trkpt lat="45.014873546268895" lon="11.698077998510378"><ele>5.0</ele><time>2026-04-04T13:04:20.001Z</time></trkpt><trkpt lat="45.01491026494201" lon="11.697884292075448"><ele>5.0</ele><time>2026-04-04T13:04:21.001Z</time></trkpt><trkpt lat="45.01493942763441" lon="11.697704962561719"><ele>5.0</ele><time>2026-04-04T13:04:22.001Z</time></trkpt><trkpt lat="45.01496126376725" lon="11.697534237709029"><ele>5.0</ele><time>2026-04-04T13:04:23.001Z</time></trkpt><trkpt lat="45.015004694060984" lon="11.69736526844127"><ele>5.0</ele><time>2026-04-04T13:04:24.001Z</time></trkpt><trkpt lat="45.01502964871852" lon="11.697183314326477"><ele>5.0</ele><time>2026-04-04T13:04:25.001Z</time></trkpt><trkpt lat="45.015051619799294" lon="11.696992100354837"><ele>5.25</ele><time>2026-04-04T13:04:26.001Z</time></trkpt><trkpt lat="45.0150717172375" lon="11.696802783343767"><ele>5.5</ele><time>2026-04-04T13:04:27.001Z</time></trkpt><trkpt lat="45.0150896415703" lon="11.696597944207586"><ele>5.75</ele><time>2026-04-04T13:04:28.001Z</time></trkpt><trkpt lat="45.01510488465141" lon="11.69639150631441"><ele>6.0</ele><time>2026-04-04T13:04:29.001Z</time></trkpt><trkpt lat="45.01511751478702" lon="11.696203058568244"><ele>6.0</ele><time>2026-04-04T13:04:30.001Z</time></trkpt><trkpt lat="45.015126978291505" lon="11.696029118588784"><ele>6.0</ele><time>2026-04-04T13:04:31.001Z</time></trkpt><trkpt lat="45.015129082731505" lon="11.695865760876583"><ele>6.0</ele><time>2026-04-04T13:04:32.001Z</time></trkpt><trkpt lat="45.015125266094515" lon="11.695728182315584"><ele>6.0</ele><time>2026-04-04T13:04:33.001Z</time></trkpt><trkpt lat="45.015112938450095" lon="11.695594315931805"><ele>6.0</ele><time>2026-04-04T13:04:34.001Z</time></trkpt><trkpt lat="45.0150853578701" lon="11.695473149578941"><ele>6.0</ele><time>2026-04-04T13:04:35.001Z</time></trkpt><trkpt lat="45.01505010519091" lon="11.695355347606936"><ele>6.0</ele><time>2026-04-04T13:04:36.001Z</time></trkpt><trkpt lat="45.01499206803416" lon="11.695247573087617"><ele>6.0</ele><time>2026-04-04T13:04:37.001Z</time></trkpt><trkpt lat="45.014923010259956" lon="11.6951537809929"><ele>6.0</ele><time>2026-04-04T13:04:38.001Z</time></trkpt><trkpt lat="45.01484422414803" lon="11.695077097675126"><ele>6.0</ele><time>2026-04-04T13:04:39.001Z</time></trkpt><trkpt lat="45.014767814614785" lon="11.695033096645515"><ele>6.0</ele><time>2026-04-04T13:04:40.001Z</time></trkpt><trkpt lat="45.01469546084395" lon="11.694978878338604"><ele>6.0</ele><time>2026-04-04T13:04:41.001Z</time></trkpt><trkpt lat="45.014629808781116" lon="11.694945074661605"><ele>6.0</ele><time>2026-04-04T13:04:42.001Z</time></trkpt><trkpt lat="45.01453243530376" lon="11.694866872788392"><ele>6.0</ele><time>2026-04-04T13:04:44.001Z</time></trkpt><trkpt lat="45.01449493042513" lon="11.694693095160027"><ele>6.0</ele><time>2026-04-04T13:04:46.001Z</time></trkpt><trkpt lat="45.014505054526246" lon="11.694585156930113"><ele>6.0</ele><time>2026-04-04T13:04:47.001Z</time></trkpt><trkpt lat="45.0145260833267" lon="11.69447549934008"><ele>6.0</ele><time>2026-04-04T13:04:48.001Z</time></trkpt><trkpt lat="45.01454814766899" lon="11.694344378659332"><ele>6.0</ele><time>2026-04-04T13:04:49.001Z</time></trkpt><trkpt lat="45.014572132110594" lon="11.694208060118758"><ele>6.0</ele><time>2026-04-04T13:04:50.001Z</time></trkpt><trkpt lat="45.0145877416232" lon="11.694077616590072"><ele>6.0</ele><time>2026-04-04T13:04:51.001Z</time></trkpt><trkpt lat="45.01460336653323" lon="11.693952309291138"><ele>6.199999999999999</ele><time>2026-04-04T13:04:52.001Z</time></trkpt><trkpt lat="45.01461687546835" lon="11.693837922772977"><ele>6.3999999999999995</ele><time>2026-04-04T13:04:53.001Z</time></trkpt><trkpt lat="45.014656216053744" lon="11.693749970896027"><ele>6.6</ele><time>2026-04-04T13:04:54.001Z</time></trkpt><trkpt lat="45.014670762283345" lon="11.693661396340596"><ele>6.8</ele><time>2026-04-04T13:04:55.001Z</time></trkpt><trkpt lat="45.014678848182285" lon="11.693506933614916"><ele>7.0</ele><time>2026-04-04T13:04:57.001Z</time></trkpt><trkpt lat="45.01456474509851" lon="11.693373314303608"><ele>7.0</ele><time>2026-04-04T13:05:39.993Z</time></trkpt><trkpt lat="45.014480397156824" lon="11.693356210835734"><ele>7.0</ele><time>2026-04-04T13:05:41.993Z</time></trkpt><trkpt lat="45.01437343337648" lon="11.69357760413156"><ele>7.0</ele><time>2026-04-04T13:05:43.993Z</time></trkpt><trkpt lat="45.01435677888374" lon="11.69368695720947"><ele>7.0</ele><time>2026-04-04T13:05:44.993Z</time></trkpt><trkpt lat="45.01433518946635" lon="11.693827715205297"><ele>7.0</ele><time>2026-04-04T13:05:45.993Z</time></trkpt><trkpt lat="45.01431060905393" lon="11.69398631572311"><ele>7.0</ele><time>2026-04-04T13:05:46.993Z</time></trkpt><trkpt lat="45.01429897085654" lon="11.694155743150402"><ele>7.0</ele><time>2026-04-04T13:05:47.993Z</time></trkpt><trkpt lat="45.01425590581444" lon="11.694316538699926"><ele>7.0</ele><time>2026-04-04T13:05:48.993Z</time></trkpt><trkpt lat="45.0142283098841" lon="11.69447070548817"><ele>6.75</ele><time>2026-04-04T13:05:49.993Z</time></trkpt><trkpt lat="45.01419861703403" lon="11.694637105644773"><ele>6.5</ele><time>2026-04-04T13:05:50.993Z</time></trkpt><trkpt lat="45.01416901164932" lon="11.694816470967352"><ele>6.25</ele><time>2026-04-04T13:05:51.993Z</time></trkpt><trkpt lat="45.01414154282866" lon="11.694981839880585"><ele>6.0</ele><time>2026-04-04T13:05:52.993Z</time></trkpt><trkpt lat="45.01410395731905" lon="11.6951594610634"><ele>5.75</ele><time>2026-04-04T13:05:53.993Z</time></trkpt><trkpt lat="45.01407580712297" lon="11.695332440054361"><ele>5.5</ele><time>2026-04-04T13:05:54.993Z</time></trkpt><trkpt lat="45.01405091490586" lon="11.6955052114962"><ele>5.25</ele><time>2026-04-04T13:05:55.993Z</time></trkpt><trkpt lat="45.01402282031667" lon="11.695680270219299"><ele>5.0</ele><time>2026-04-04T13:05:56.992Z</time></trkpt><trkpt lat="45.013995707999726" lon="11.695866887260731"><ele>5.0</ele><time>2026-04-04T13:05:57.992Z</time></trkpt><trkpt lat="45.01396232073979" lon="11.696057195806391"><ele>5.0</ele><time>2026-04-04T13:05:58.992Z</time></trkpt><trkpt lat="45.01393155289801" lon="11.6962469822789"><ele>5.0</ele><time>2026-04-04T13:05:59.992Z</time></trkpt><trkpt lat="45.01388313638742" lon="11.696428655337753"><ele>5.0</ele><time>2026-04-04T13:06:00.992Z</time></trkpt><trkpt lat="45.013863176836836" lon="11.696609340672751"><ele>5.0</ele><time>2026-04-04T13:06:01.992Z</time></trkpt><trkpt lat="45.01383616513524" lon="11.696792305149451"><ele>5.0</ele><time>2026-04-04T13:06:02.992Z</time></trkpt><trkpt lat="45.01381114008521" lon="11.696982003410298"><ele>5.0</ele><time>2026-04-04T13:06:03.992Z</time></trkpt><trkpt lat="45.01378523376762" lon="11.697170777851026"><ele>5.0</ele><time>2026-04-04T13:06:04.992Z</time></trkpt><trkpt lat="45.01375124809196" lon="11.697372568749199"><ele>5.0</ele><time>2026-04-04T13:06:05.992Z</time></trkpt><trkpt lat="45.01371792433838" lon="11.697571538383263"><ele>5.0</ele><time>2026-04-04T13:06:06.992Z</time></trkpt><trkpt lat="45.01367444505187" lon="11.6977604381782"><ele>5.0</ele><time>2026-04-04T13:06:07.992Z</time></trkpt><trkpt lat="45.01363533272348" lon="11.697948463486545"><ele>5.0</ele><time>2026-04-04T13:06:08.992Z</time></trkpt><trkpt lat="45.01359874514968" lon="11.698135240657987"><ele>5.0</ele><time>2026-04-04T13:06:09.992Z</time></trkpt><trkpt lat="45.01355688732189" lon="11.698320926185216"><ele>5.0</ele><time>2026-04-04T13:06:10.992Z</time></trkpt><trkpt lat="45.01351165146609" lon="11.69850851761441"><ele>5.0</ele><time>2026-04-04T13:06:11.992Z</time></trkpt><trkpt lat="45.01346450843076" lon="11.698701569014318"><ele>5.0</ele><time>2026-04-04T13:06:12.992Z</time></trkpt><trkpt lat="45.01342499047114" lon="11.69889889911515"><ele>5.0</ele><time>2026-04-04T13:06:13.992Z</time></trkpt><trkpt lat="45.01337817333506" lon="11.699104036248666"><ele>5.0</ele><time>2026-04-04T13:06:14.992Z</time></trkpt><trkpt lat="45.013338402755764" lon="11.699300533720518"><ele>5.0</ele><time>2026-04-04T13:06:15.992Z</time></trkpt><trkpt lat="45.01330321617191" lon="11.699493667929517"><ele>5.0</ele><time>2026-04-04T13:06:16.992Z</time></trkpt><trkpt lat="45.013271704783904" lon="11.69968936431947"><ele>4.75</ele><time>2026-04-04T13:06:17.992Z</time></trkpt><trkpt lat="45.01323528173901" lon="11.699879123163845"><ele>4.5</ele><time>2026-04-04T13:06:18.992Z</time></trkpt><trkpt lat="45.01317980587113" lon="11.700088735778772"><ele>4.25</ele><time>2026-04-04T13:06:19.992Z</time></trkpt><trkpt lat="45.013134353129026" lon="11.700294055600889"><ele>4.0</ele><time>2026-04-04T13:06:20.992Z</time></trkpt><trkpt lat="45.01308785873475" lon="11.700497216853213"><ele>4.0</ele><time>2026-04-04T13:06:21.992Z</time></trkpt><trkpt lat="45.01303789673842" lon="11.700712053433566"><ele>4.0</ele><time>2026-04-04T13:06:22.992Z</time></trkpt><trkpt lat="45.0130008423389" lon="11.700939556856678"><ele>4.0</ele><time>2026-04-04T13:06:23.992Z</time></trkpt><trkpt lat="45.012942831521926" lon="11.701163758077406"><ele>4.333333333333333</ele><time>2026-04-04T13:06:24.992Z</time></trkpt><trkpt lat="45.01288125015432" lon="11.701394814986768"><ele>4.666666666666667</ele><time>2026-04-04T13:06:25.992Z</time></trkpt><trkpt lat="45.0128284094619" lon="11.701609702361084"><ele>5.0</ele><time>2026-04-04T13:06:26.992Z</time></trkpt><trkpt lat="45.012774600218634" lon="11.70181720334341"><ele>5.0</ele><time>2026-04-04T13:06:27.992Z</time></trkpt><trkpt lat="45.01269148886379" lon="11.702018611471056"><ele>5.0</ele><time>2026-04-04T13:06:28.992Z</time></trkpt><trkpt lat="45.012641428430605" lon="11.702221224399995"><ele>5.0</ele><time>2026-04-04T13:06:29.992Z</time></trkpt><trkpt lat="45.01259294966365" lon="11.702424889532608"><ele>5.0</ele><time>2026-04-04T13:06:30.992Z</time></trkpt><trkpt lat="45.01253834040595" lon="11.702633966716515"><ele>5.0</ele><time>2026-04-04T13:06:31.992Z</time></trkpt><trkpt lat="45.012481454230596" lon="11.702841101549758"><ele>5.0</ele><time>2026-04-04T13:06:32.992Z</time></trkpt><trkpt lat="45.01242706962459" lon="11.703054161094835"><ele>5.0</ele><time>2026-04-04T13:06:33.992Z</time></trkpt><trkpt lat="45.012367308551774" lon="11.703266096155929"><ele>5.0</ele><time>2026-04-04T13:06:34.992Z</time></trkpt><trkpt lat="45.01230759141174" lon="11.703478195776379"><ele>5.0</ele><time>2026-04-04T13:06:35.992Z</time></trkpt><trkpt lat="45.012245286245495" lon="11.70369152017059"><ele>5.0</ele><time>2026-04-04T13:06:36.992Z</time></trkpt><trkpt lat="45.01218534102877" lon="11.703904866534248"><ele>5.0</ele><time>2026-04-04T13:06:37.992Z</time></trkpt><trkpt lat="45.01212247122966" lon="11.704123800908555"><ele>5.0</ele><time>2026-04-04T13:06:38.992Z</time></trkpt><trkpt lat="45.01206450355892" lon="11.704350252113088"><ele>5.0</ele><time>2026-04-04T13:06:39.992Z</time></trkpt><trkpt lat="45.01199769799342" lon="11.704572078260297"><ele>5.0</ele><time>2026-04-04T13:06:40.992Z</time></trkpt><trkpt lat="45.01193537163549" lon="11.704795469583662"><ele>5.0</ele><time>2026-04-04T13:06:41.992Z</time></trkpt><trkpt lat="45.011873941480104" lon="11.705008218278223"><ele>5.0</ele><time>2026-04-04T13:06:42.992Z</time></trkpt><trkpt lat="45.01181663993802" lon="11.705212746316638"><ele>5.0</ele><time>2026-04-04T13:06:43.992Z</time></trkpt><trkpt lat="45.01176257356574" lon="11.705409045182524"><ele>5.0</ele><time>2026-04-04T13:06:44.991Z</time></trkpt><trkpt lat="45.011698381891534" lon="11.70559666811043"><ele>5.0</ele><time>2026-04-04T13:06:45.991Z</time></trkpt><trkpt lat="45.01161591065983" lon="11.705776423741169"><ele>5.0</ele><time>2026-04-04T13:06:46.991Z</time></trkpt><trkpt lat="45.011525360098034" lon="11.705962878203154"><ele>5.0</ele><time>2026-04-04T13:06:47.991Z</time></trkpt><trkpt lat="45.011428800153375" lon="11.706156054858788"><ele>4.666666666666667</ele><time>2026-04-04T13:06:48.991Z</time></trkpt><trkpt lat="45.01133034361511" lon="11.706352719252362"><ele>4.333333333333333</ele><time>2026-04-04T13:06:49.991Z</time></trkpt><trkpt lat="45.011232436498595" lon="11.706550430187729"><ele>4.0</ele><time>2026-04-04T13:06:50.991Z</time></trkpt><trkpt lat="45.01111820270631" lon="11.706737575087194"><ele>4.0</ele><time>2026-04-04T13:06:51.991Z</time></trkpt><trkpt lat="45.011011801877686" lon="11.706944447387835"><ele>4.0</ele><time>2026-04-04T13:06:52.991Z</time></trkpt><trkpt lat="45.010910220109054" lon="11.70714195016027"><ele>4.0</ele><time>2026-04-04T13:06:53.991Z</time></trkpt><trkpt lat="45.01080871822583" lon="11.707339668089656"><ele>4.0</ele><time>2026-04-04T13:06:54.991Z</time></trkpt><trkpt lat="45.01071178588719" lon="11.707531290924843"><ele>4.0</ele><time>2026-04-04T13:06:55.991Z</time></trkpt><trkpt lat="45.01061553940984" lon="11.707721557848878"><ele>4.0</ele><time>2026-04-04T13:06:56.991Z</time></trkpt><trkpt lat="45.010513955085706" lon="11.707918290329907"><ele>4.333333333333333</ele><time>2026-04-04T13:06:57.991Z</time></trkpt><trkpt lat="45.01040744568661" lon="11.708120325527183"><ele>4.666666666666667</ele><time>2026-04-04T13:06:58.991Z</time></trkpt><trkpt lat="45.0102979709927" lon="11.708321956386655"><ele>5.0</ele><time>2026-04-04T13:06:59.991Z</time></trkpt><trkpt lat="45.01018713021205" lon="11.708532743284767"><ele>5.0</ele><time>2026-04-04T13:07:00.991Z</time></trkpt><trkpt lat="45.01007350125351" lon="11.70872050640199"><ele>5.0</ele><time>2026-04-04T13:07:01.991Z</time></trkpt><trkpt lat="45.00996201744797" lon="11.708908776588991"><ele>5.0</ele><time>2026-04-04T13:07:02.991Z</time></trkpt><trkpt lat="45.00984088853744" lon="11.709079680031577"><ele>5.0</ele><time>2026-04-04T13:07:03.991Z</time></trkpt><trkpt lat="45.009723592705676" lon="11.709265224731128"><ele>5.0</ele><time>2026-04-04T13:07:04.991Z</time></trkpt><trkpt lat="45.00961089814835" lon="11.709443491839185"><ele>5.0</ele><time>2026-04-04T13:07:05.991Z</time></trkpt><trkpt lat="45.00950577538734" lon="11.70961946867385"><ele>4.666666666666667</ele><time>2026-04-04T13:07:06.991Z</time></trkpt><trkpt lat="45.00941701974418" lon="11.70981534294727"><ele>4.333333333333333</ele><time>2026-04-04T13:07:07.992Z</time></trkpt><trkpt lat="45.00931942385853" lon="11.710004779371685"><ele>4.0</ele><time>2026-04-04T13:07:08.992Z</time></trkpt><trkpt lat="45.0092310151638" lon="11.7102032969481"><ele>3.6666666666666665</ele><time>2026-04-04T13:07:09.992Z</time></trkpt><trkpt lat="45.00915288833415" lon="11.710413201198001"><ele>3.333333333333333</ele><time>2026-04-04T13:07:10.993Z</time></trkpt><trkpt lat="45.00908028277111" lon="11.710627183822965"><ele>3.0</ele><time>2026-04-04T13:07:11.993Z</time></trkpt><trkpt lat="45.00901573955087" lon="11.710856826193147"><ele>3.333333333333333</ele><time>2026-04-04T13:07:12.993Z</time></trkpt><trkpt lat="45.00893024449897" lon="11.711077479334131"><ele>3.6666666666666665</ele><time>2026-04-04T13:07:13.992Z</time></trkpt><trkpt lat="45.008856362405425" lon="11.711301447328742"><ele>4.0</ele><time>2026-04-04T13:07:14.993Z</time></trkpt><trkpt lat="45.008777801935885" lon="11.711538849395142"><ele>4.0</ele><time>2026-04-04T13:07:15.993Z</time></trkpt><trkpt lat="45.00869576804407" lon="11.71178602523937"><ele>4.0</ele><time>2026-04-04T13:07:16.993Z</time></trkpt><trkpt lat="45.00861519053482" lon="11.712035197575018"><ele>4.0</ele><time>2026-04-04T13:07:17.992Z</time></trkpt><trkpt lat="45.008539951534864" lon="11.712282988463711"><ele>4.0</ele><time>2026-04-04T13:07:18.992Z</time></trkpt><trkpt lat="45.00848516862597" lon="11.712542232640143"><ele>4.0</ele><time>2026-04-04T13:07:19.993Z</time></trkpt><trkpt lat="45.008423570159685" lon="11.71278796480763"><ele>4.0</ele><time>2026-04-04T13:07:20.992Z</time></trkpt><trkpt lat="45.00837378213753" lon="11.713025122569281"><ele>4.0</ele><time>2026-04-04T13:07:21.992Z</time></trkpt><trkpt lat="45.008335126678816" lon="11.713278279634906"><ele>4.0</ele><time>2026-04-04T13:07:22.992Z</time></trkpt><trkpt lat="45.00831014997938" lon="11.713547256891461"><ele>4.0</ele><time>2026-04-04T13:07:23.992Z</time></trkpt><trkpt lat="45.00829824155183" lon="11.713829056744022"><ele>3.6666666666666665</ele><time>2026-04-04T13:07:24.992Z</time></trkpt><trkpt lat="45.00830895910156" lon="11.714139039603038"><ele>3.333333333333333</ele><time>2026-04-04T13:07:25.992Z</time></trkpt><trkpt lat="45.008336298418236" lon="11.714449148735696"><ele>3.0</ele><time>2026-04-04T13:07:26.992Z</time></trkpt><trkpt lat="45.008378584790414" lon="11.714756995773298"><ele>3.333333333333333</ele><time>2026-04-04T13:07:27.992Z</time></trkpt><trkpt lat="45.008439536408886" lon="11.715062292360336"><ele>3.6666666666666665</ele><time>2026-04-04T13:07:28.992Z</time></trkpt><trkpt lat="45.00852261887385" lon="11.715357705392774"><ele>4.0</ele><time>2026-04-04T13:07:29.992Z</time></trkpt><trkpt lat="45.00862637621134" lon="11.71564600066728"><ele>4.0</ele><time>2026-04-04T13:07:30.992Z</time></trkpt><trkpt lat="45.00875244084985" lon="11.715922339016183"><ele>4.0</ele><time>2026-04-04T13:07:31.992Z</time></trkpt><trkpt lat="45.00889889212132" lon="11.716183943708716"><ele>4.0</ele><time>2026-04-04T13:07:32.992Z</time></trkpt><trkpt lat="45.009060944951855" lon="11.716436856108892"><ele>4.0</ele><time>2026-04-04T13:07:33.992Z</time></trkpt><trkpt lat="45.00923024016257" lon="11.716685017777785"><ele>4.0</ele><time>2026-04-04T13:07:34.992Z</time></trkpt><trkpt lat="45.0094060528744" lon="11.716934588345037"><ele>4.0</ele><time>2026-04-04T13:07:35.992Z</time></trkpt><trkpt lat="45.009570522547406" lon="11.717182819084666"><ele>4.0</ele><time>2026-04-04T13:07:36.992Z</time></trkpt><trkpt lat="45.00973371815716" lon="11.7174314200266"><ele>4.0</ele><time>2026-04-04T13:07:37.992Z</time></trkpt><trkpt lat="45.00989194734364" lon="11.717674912084158"><ele>4.5</ele><time>2026-04-04T13:07:38.992Z</time></trkpt><trkpt lat="45.01005617995374" lon="11.717921065283377"><ele>5.0</ele><time>2026-04-04T13:07:39.992Z</time></trkpt><trkpt lat="45.01021579269721" lon="11.718168723038962"><ele>5.0</ele><time>2026-04-04T13:07:40.992Z</time></trkpt><trkpt lat="45.010377341877586" lon="11.7184138900814"><ele>5.0</ele><time>2026-04-04T13:07:41.992Z</time></trkpt><trkpt lat="45.010546816294124" lon="11.71866269807468"><ele>4.5</ele><time>2026-04-04T13:07:42.992Z</time></trkpt><trkpt lat="45.01072728009674" lon="11.718908444558675"><ele>4.0</ele><time>2026-04-04T13:07:43.992Z</time></trkpt><trkpt lat="45.01091672499734" lon="11.719141586178411"><ele>3.5</ele><time>2026-04-04T13:07:44.992Z</time></trkpt><trkpt lat="45.01110568222165" lon="11.71937383500008"><ele>3.0</ele><time>2026-04-04T13:07:45.992Z</time></trkpt><trkpt lat="45.011301899331514" lon="11.719615365274732"><ele>3.0</ele><time>2026-04-04T13:07:46.992Z</time></trkpt><trkpt lat="45.01149932841297" lon="11.719864555927392"><ele>3.0</ele><time>2026-04-04T13:07:47.992Z</time></trkpt><trkpt lat="45.01169747721602" lon="11.720116189951842"><ele>3.5</ele><time>2026-04-04T13:07:48.992Z</time></trkpt><trkpt lat="45.0118981727454" lon="11.720368483533642"><ele>4.0</ele><time>2026-04-04T13:07:49.992Z</time></trkpt><trkpt lat="45.01210090564031" lon="11.720617322628147"><ele>4.0</ele><time>2026-04-04T13:07:50.992Z</time></trkpt><trkpt lat="45.01229284351534" lon="11.720862184182137"><ele>4.0</ele><time>2026-04-04T13:07:51.992Z</time></trkpt><trkpt lat="45.01247827923273" lon="11.721098685465584"><ele>4.333333333333333</ele><time>2026-04-04T13:07:52.992Z</time></trkpt><trkpt lat="45.01265409775221" lon="11.721321856231166"><ele>4.666666666666667</ele><time>2026-04-04T13:07:53.992Z</time></trkpt><trkpt lat="45.01280656382958" lon="11.721527109764919"><ele>5.0</ele><time>2026-04-04T13:07:54.992Z</time></trkpt><trkpt lat="45.01294239577119" lon="11.721717778918373"><ele>5.0</ele><time>2026-04-04T13:07:55.992Z</time></trkpt><trkpt lat="45.013072105739056" lon="11.721903303932494"><ele>5.0</ele><time>2026-04-04T13:07:56.992Z</time></trkpt><trkpt lat="45.01319141452109" lon="11.722085625532644"><ele>5.0</ele><time>2026-04-04T13:07:57.992Z</time></trkpt><trkpt lat="45.01330078310608" lon="11.722264785294232"><ele>5.0</ele><time>2026-04-04T13:07:58.992Z</time></trkpt><trkpt lat="45.013408190612886" lon="11.722442849136522"><ele>5.0</ele><time>2026-04-04T13:07:59.992Z</time></trkpt><trkpt lat="45.01350333956537" lon="11.722609573779625"><ele>5.0</ele><time>2026-04-04T13:08:00.992Z</time></trkpt><trkpt lat="45.01359603030298" lon="11.722772262242012"><ele>5.0</ele><time>2026-04-04T13:08:01.992Z</time></trkpt><trkpt lat="45.0136901281708" lon="11.72294857693707"><ele>5.0</ele><time>2026-04-04T13:08:02.992Z</time></trkpt><trkpt lat="45.01377089009606" lon="11.7231390544569"><ele>5.0</ele><time>2026-04-04T13:08:03.992Z</time></trkpt><trkpt lat="45.01382582229083" lon="11.723357841459316"><ele>4.666666666666667</ele><time>2026-04-04T13:08:04.992Z</time></trkpt><trkpt lat="45.01383498372401" lon="11.723603469786227"><ele>4.333333333333333</ele><time>2026-04-04T13:08:05.992Z</time></trkpt><trkpt lat="45.01382320236999" lon="11.72385732268105"><ele>4.0</ele><time>2026-04-04T13:08:06.992Z</time></trkpt><trkpt lat="45.013815427719194" lon="11.72411791728235"><ele>4.0</ele><time>2026-04-04T13:08:07.992Z</time></trkpt><trkpt lat="45.01380719135995" lon="11.724383635466175"><ele>4.0</ele><time>2026-04-04T13:08:08.992Z</time></trkpt><trkpt lat="45.01379922101606" lon="11.724640771983081"><ele>4.0</ele><time>2026-04-04T13:08:09.992Z</time></trkpt><trkpt lat="45.01378569121913" lon="11.7248987183004"><ele>4.0</ele><time>2026-04-04T13:08:10.991Z</time></trkpt><trkpt lat="45.013759118955804" lon="11.72516183285966"><ele>4.0</ele><time>2026-04-04T13:08:11.991Z</time></trkpt><trkpt lat="45.01372207085337" lon="11.72543280985289"><ele>4.0</ele><time>2026-04-04T13:08:12.991Z</time></trkpt><trkpt lat="45.01368167524355" lon="11.725715522257925"><ele>4.333333333333333</ele><time>2026-04-04T13:08:13.991Z</time></trkpt><trkpt lat="45.01364246823935" lon="11.725995098915691"><ele>4.666666666666667</ele><time>2026-04-04T13:08:14.991Z</time></trkpt><trkpt lat="45.01360407552542" lon="11.726262165344925"><ele>5.0</ele><time>2026-04-04T13:08:15.991Z</time></trkpt><trkpt lat="45.013565795847725" lon="11.726523171335362"><ele>5.333333333333334</ele><time>2026-04-04T13:08:16.991Z</time></trkpt><trkpt lat="45.01353067361671" lon="11.726783251696835"><ele>5.666666666666667</ele><time>2026-04-04T13:08:17.991Z</time></trkpt><trkpt lat="45.01349354163351" lon="11.727045928981045"><ele>6.0</ele><time>2026-04-04T13:08:18.991Z</time></trkpt><trkpt lat="45.01345218755652" lon="11.7273101184787"><ele>5.333333333333333</ele><time>2026-04-04T13:08:19.991Z</time></trkpt><trkpt lat="45.01341267265828" lon="11.727578239503943"><ele>4.666666666666666</ele><time>2026-04-04T13:08:20.991Z</time></trkpt><trkpt lat="45.01337528702064" lon="11.727845363406566"><ele>4.0</ele><time>2026-04-04T13:08:21.991Z</time></trkpt><trkpt lat="45.01333638643929" lon="11.728120782396868"><ele>4.0</ele><time>2026-04-04T13:08:22.991Z</time></trkpt><trkpt lat="45.01330326233801" lon="11.728386732033963"><ele>4.0</ele><time>2026-04-04T13:08:23.991Z</time></trkpt><trkpt lat="45.01327361155142" lon="11.728648377674379"><ele>4.0</ele><time>2026-04-04T13:08:24.991Z</time></trkpt><trkpt lat="45.01324597882675" lon="11.72891319482529"><ele>4.0</ele><time>2026-04-04T13:08:25.991Z</time></trkpt><trkpt lat="45.013211545481205" lon="11.729184611944989"><ele>4.0</ele><time>2026-04-04T13:08:26.991Z</time></trkpt><trkpt lat="45.013156209684716" lon="11.729472173434221"><ele>4.0</ele><time>2026-04-04T13:08:27.991Z</time></trkpt><trkpt lat="45.01311830044988" lon="11.729757971746391"><ele>4.0</ele><time>2026-04-04T13:08:28.991Z</time></trkpt><trkpt lat="45.01308064839077" lon="11.730037554916063"><ele>4.0</ele><time>2026-04-04T13:08:29.991Z</time></trkpt><trkpt lat="45.01304192723847" lon="11.73032099219407"><ele>4.0</ele><time>2026-04-04T13:08:30.991Z</time></trkpt><trkpt lat="45.01300180945131" lon="11.730614652997682"><ele>3.6666666666666665</ele><time>2026-04-04T13:08:31.991Z</time></trkpt><trkpt lat="45.0129624697554" lon="11.730907645930264"><ele>3.333333333333333</ele><time>2026-04-04T13:08:32.991Z</time></trkpt><trkpt lat="45.01292256488151" lon="11.73120801279482"><ele>3.0</ele><time>2026-04-04T13:08:33.991Z</time></trkpt><trkpt lat="45.01288416802638" lon="11.731497029069963"><ele>3.0</ele><time>2026-04-04T13:08:34.991Z</time></trkpt><trkpt lat="45.012848605203466" lon="11.7317647129202"><ele>3.0</ele><time>2026-04-04T13:08:35.991Z</time></trkpt><trkpt lat="45.01281710296756" lon="11.732001832169194"><ele>3.0</ele><time>2026-04-04T13:08:36.991Z</time></trkpt><trkpt lat="45.012788616686" lon="11.732216251283763"><ele>3.0</ele><time>2026-04-04T13:08:37.991Z</time></trkpt><trkpt lat="45.01275768165869" lon="11.732449100770806"><ele>3.0</ele><time>2026-04-04T13:08:38.991Z</time></trkpt><trkpt lat="45.01273962715712" lon="11.732706398537056"><ele>3.0</ele><time>2026-04-04T13:08:39.991Z</time></trkpt><trkpt lat="45.012701432373206" lon="11.732968103707947"><ele>3.0</ele><time>2026-04-04T13:08:40.991Z</time></trkpt><trkpt lat="45.0126668162829" lon="11.733229271590096"><ele>3.0</ele><time>2026-04-04T13:08:41.991Z</time></trkpt><trkpt lat="45.01263272079099" lon="11.73349401920904"><ele>3.0</ele><time>2026-04-04T13:08:42.991Z</time></trkpt><trkpt lat="45.01259735522878" lon="11.733750924527694"><ele>3.0</ele><time>2026-04-04T13:08:43.991Z</time></trkpt><trkpt lat="45.01253182642277" lon="11.73402261986259"><ele>3.0</ele><time>2026-04-04T13:08:44.991Z</time></trkpt><trkpt lat="45.01250068354361" lon="11.734306345932898"><ele>3.0</ele><time>2026-04-04T13:08:45.991Z</time></trkpt><trkpt lat="45.01247443511001" lon="11.73459301494731"><ele>3.0</ele><time>2026-04-04T13:08:46.991Z</time></trkpt><trkpt lat="45.01245929764413" lon="11.734875366400457"><ele>3.0</ele><time>2026-04-04T13:08:47.991Z</time></trkpt><trkpt lat="45.01246887045183" lon="11.735148330145634"><ele>3.0</ele><time>2026-04-04T13:08:48.991Z</time></trkpt><trkpt lat="45.01248577638043" lon="11.735412182622746"><ele>3.0</ele><time>2026-04-04T13:08:49.991Z</time></trkpt><trkpt lat="45.01251782142484" lon="11.73565708502051"><ele>3.0</ele><time>2026-04-04T13:08:50.991Z</time></trkpt><trkpt lat="45.01256929112434" lon="11.73590282640994"><ele>3.0</ele><time>2026-04-04T13:08:51.991Z</time></trkpt><trkpt lat="45.01261798653269" lon="11.736152723221377"><ele>3.0</ele><time>2026-04-04T13:08:52.991Z</time></trkpt><trkpt lat="45.01267056697734" lon="11.736420794254917"><ele>3.0</ele><time>2026-04-04T13:08:53.991Z</time></trkpt><trkpt lat="45.01272394700416" lon="11.736698123903546"><ele>3.0</ele><time>2026-04-04T13:08:54.991Z</time></trkpt><trkpt lat="45.012775966269345" lon="11.736976404028615"><ele>3.0</ele><time>2026-04-04T13:08:55.991Z</time></trkpt><trkpt lat="45.0128216305972" lon="11.737239875731207"><ele>3.0</ele><time>2026-04-04T13:08:56.991Z</time></trkpt><trkpt lat="45.01284911894525" lon="11.737501644653168"><ele>3.0</ele><time>2026-04-04T13:08:57.991Z</time></trkpt><trkpt lat="45.01285412287476" lon="11.737759897690983"><ele>3.0</ele><time>2026-04-04T13:08:58.991Z</time></trkpt><trkpt lat="45.01284750156884" lon="11.737991232953814"><ele>3.0</ele><time>2026-04-04T13:08:59.991Z</time></trkpt><trkpt lat="45.01283028740499" lon="11.738218572774278"><ele>3.0</ele><time>2026-04-04T13:09:00.991Z</time></trkpt><trkpt lat="45.01280419422553" lon="11.738431083472461"><ele>3.5</ele><time>2026-04-04T13:09:01.991Z</time></trkpt><trkpt lat="45.012772118952" lon="11.738616656441028"><ele>4.0</ele><time>2026-04-04T13:09:02.991Z</time></trkpt><trkpt lat="45.01274075812638" lon="11.738796424274081"><ele>4.5</ele><time>2026-04-04T13:09:03.991Z</time></trkpt><trkpt lat="45.012712645300226" lon="11.738974128212595"><ele>5.0</ele><time>2026-04-04T13:09:04.991Z</time></trkpt><trkpt lat="45.01268333463355" lon="11.739157325327973"><ele>5.0</ele><time>2026-04-04T13:09:05.991Z</time></trkpt><trkpt lat="45.01264795764494" lon="11.73935995858852"><ele>5.0</ele><time>2026-04-04T13:09:06.991Z</time></trkpt><trkpt lat="45.012608414894125" lon="11.739609734464333"><ele>5.0</ele><time>2026-04-04T13:09:07.991Z</time></trkpt><trkpt lat="45.01256725777911" lon="11.73985482613797"><ele>5.0</ele><time>2026-04-04T13:09:08.991Z</time></trkpt><trkpt lat="45.012528556543806" lon="11.740078896295149"><ele>5.0</ele><time>2026-04-04T13:09:09.991Z</time></trkpt><trkpt lat="45.01249536188641" lon="11.740287639883299"><ele>5.0</ele><time>2026-04-04T13:09:10.991Z</time></trkpt><trkpt lat="45.012462606524004" lon="11.74047127211411"><ele>5.0</ele><time>2026-04-04T13:09:11.991Z</time></trkpt><trkpt lat="45.01243469137763" lon="11.740640480525212"><ele>5.2</ele><time>2026-04-04T13:09:12.99Z</time></trkpt><trkpt lat="45.012407705183676" lon="11.740795372404236"><ele>5.4</ele><time>2026-04-04T13:09:13.993Z</time></trkpt><trkpt lat="45.012386539586046" lon="11.740935236890047"><ele>5.6</ele><time>2026-04-04T13:09:14.993Z</time></trkpt><trkpt lat="45.01236554074131" lon="11.741053813845403"><ele>5.8</ele><time>2026-04-04T13:09:15.993Z</time></trkpt><trkpt lat="45.01234696974657" lon="11.741167997117072"><ele>6.0</ele><time>2026-04-04T13:09:16.992Z</time></trkpt><trkpt lat="45.012327721181215" lon="11.74127386424063"><ele>6.0</ele><time>2026-04-04T13:09:17.992Z</time></trkpt><trkpt lat="45.012311461963016" lon="11.741372671708898"><ele>6.0</ele><time>2026-04-04T13:09:18.992Z</time></trkpt><trkpt lat="45.012293489556974" lon="11.741467525293617"><ele>6.0</ele><time>2026-04-04T13:09:19.992Z</time></trkpt><trkpt lat="45.01227513519278" lon="11.74155725678654"><ele>6.0</ele><time>2026-04-04T13:09:20.992Z</time></trkpt><trkpt lat="45.012256166359016" lon="11.741644550027603"><ele>6.0</ele><time>2026-04-04T13:09:21.992Z</time></trkpt><trkpt lat="45.01220912501346" lon="11.7417933816882"><ele>6.0</ele><time>2026-04-04T13:09:23.992Z</time></trkpt><trkpt lat="45.012135011396104" lon="11.74192735445974"><ele>6.0</ele><time>2026-04-04T13:09:25.992Z</time></trkpt><trkpt lat="45.01217297583735" lon="11.742053912467458"><ele>6.0</ele><time>2026-04-04T13:09:27.992Z</time></trkpt><trkpt lat="45.01226213360754" lon="11.742053535687432"><ele>6.0</ele><time>2026-04-04T13:09:29.992Z</time></trkpt><trkpt lat="45.01232304559526" lon="11.741968200240844"><ele>6.0</ele><time>2026-04-04T13:09:30.992Z</time></trkpt><trkpt lat="45.01239120971406" lon="11.741865898417762"><ele>6.0</ele><time>2026-04-04T13:09:31.992Z</time></trkpt><trkpt lat="45.01248700711029" lon="11.741780372812961"><ele>6.0</ele><time>2026-04-04T13:09:32.992Z</time></trkpt><trkpt lat="45.012601786678964" lon="11.741722721623024"><ele>6.0</ele><time>2026-04-04T13:09:33.992Z</time></trkpt><trkpt lat="45.01271576993678" lon="11.741698440922363"><ele>6.0</ele><time>2026-04-04T13:09:34.992Z</time></trkpt><trkpt lat="45.01284143053585" lon="11.741688708216124"><ele>6.0</ele><time>2026-04-04T13:09:35.992Z</time></trkpt><trkpt lat="45.01298079084601" lon="11.741695742845197"><ele>6.0</ele><time>2026-04-04T13:09:36.992Z</time></trkpt><trkpt lat="45.01311626285126" lon="11.74169807063973"><ele>6.0</ele><time>2026-04-04T13:09:37.992Z</time></trkpt><trkpt lat="45.013255717516294" lon="11.741697634029578"><ele>6.0</ele><time>2026-04-04T13:09:38.992Z</time></trkpt><trkpt lat="45.013393962553764" lon="11.741695820404036"><ele>6.0</ele><time>2026-04-04T13:09:39.992Z</time></trkpt><trkpt lat="45.01352215106576" lon="11.741693131920519"><ele>5.75</ele><time>2026-04-04T13:09:40.992Z</time></trkpt><trkpt lat="45.01365808270165" lon="11.741690272519701"><ele>5.5</ele><time>2026-04-04T13:09:41.992Z</time></trkpt><trkpt lat="45.01381086194688" lon="11.741679001069043"><ele>5.25</ele><time>2026-04-04T13:09:42.992Z</time></trkpt><trkpt lat="45.0139695731443" lon="11.741650491816925"><ele>5.0</ele><time>2026-04-04T13:09:43.992Z</time></trkpt><trkpt lat="45.01413453555978" lon="11.741617699521884"><ele>4.333333333333334</ele><time>2026-04-04T13:09:44.992Z</time></trkpt><trkpt lat="45.01430556758562" lon="11.74157167291551"><ele>3.666666666666667</ele><time>2026-04-04T13:09:45.992Z</time></trkpt><trkpt lat="45.014475001926414" lon="11.74152286757391"><ele>3.0</ele><time>2026-04-04T13:09:46.992Z</time></trkpt><trkpt lat="45.014633517924246" lon="11.741469611267334"><ele>3.0</ele><time>2026-04-04T13:09:47.992Z</time></trkpt><trkpt lat="45.014789716593455" lon="11.741422077309288"><ele>3.0</ele><time>2026-04-04T13:09:48.992Z</time></trkpt><trkpt lat="45.01495490787037" lon="11.74136805116743"><ele>3.0</ele><time>2026-04-04T13:09:49.992Z</time></trkpt><trkpt lat="45.015127703634704" lon="11.741316005318172"><ele>3.0</ele><time>2026-04-04T13:09:50.992Z</time></trkpt><trkpt lat="45.0152996120161" lon="11.741279746179938"><ele>3.0</ele><time>2026-04-04T13:09:51.992Z</time></trkpt><trkpt lat="45.01545637754523" lon="11.741263843947921"><ele>3.0</ele><time>2026-04-04T13:09:52.992Z</time></trkpt><trkpt lat="45.01560594247226" lon="11.741252710629777"><ele>3.0</ele><time>2026-04-04T13:09:53.992Z</time></trkpt><trkpt lat="45.015767238392506" lon="11.741244145605856"><ele>3.0</ele><time>2026-04-04T13:09:54.992Z</time></trkpt><trkpt lat="45.01593718386134" lon="11.741235395061521"><ele>3.0</ele><time>2026-04-04T13:09:55.991Z</time></trkpt><trkpt lat="45.01611588435142" lon="11.741224852812339"><ele>3.0</ele><time>2026-04-04T13:09:56.991Z</time></trkpt><trkpt lat="45.01630563894986" lon="11.741214371148732"><ele>3.0</ele><time>2026-04-04T13:09:57.991Z</time></trkpt><trkpt lat="45.01650615153305" lon="11.74120854614953"><ele>3.0</ele><time>2026-04-04T13:09:58.991Z</time></trkpt><trkpt lat="45.016713375480016" lon="11.741207456120737"><ele>3.0</ele><time>2026-04-04T13:09:59.991Z</time></trkpt><trkpt lat="45.01692784801896" lon="11.741205976222577"><ele>3.0</ele><time>2026-04-04T13:10:00.991Z</time></trkpt><trkpt lat="45.0171336262607" lon="11.741206403157241"><ele>3.0</ele><time>2026-04-04T13:10:01.991Z</time></trkpt><trkpt lat="45.017337046955035" lon="11.741209468780312"><ele>2.6666666666666665</ele><time>2026-04-04T13:10:02.991Z</time></trkpt><trkpt lat="45.01754957481357" lon="11.741215259115924"><ele>2.333333333333333</ele><time>2026-04-04T13:10:03.991Z</time></trkpt><trkpt lat="45.01777253131179" lon="11.741234456299319"><ele>2.0</ele><time>2026-04-04T13:10:04.991Z</time></trkpt><trkpt lat="45.01797538417333" lon="11.74127167693238"><ele>2.0</ele><time>2026-04-04T13:10:05.991Z</time></trkpt><trkpt lat="45.01817436778651" lon="11.741315330264266"><ele>2.0</ele><time>2026-04-04T13:10:06.991Z</time></trkpt><trkpt lat="45.01837268431137" lon="11.741361905474509"><ele>2.0</ele><time>2026-04-04T13:10:07.991Z</time></trkpt><trkpt lat="45.01855652172032" lon="11.741402179765098"><ele>3.0</ele><time>2026-04-04T13:10:08.991Z</time></trkpt><trkpt lat="45.01872448444993" lon="11.74143282184924"><ele>4.0</ele><time>2026-04-04T13:10:09.991Z</time></trkpt><trkpt lat="45.018889002977545" lon="11.741463086349803"><ele>5.0</ele><time>2026-04-04T13:10:10.991Z</time></trkpt><trkpt lat="45.019054533160485" lon="11.741492213505655"><ele>4.666666666666667</ele><time>2026-04-04T13:10:11.991Z</time></trkpt><trkpt lat="45.01922474769414" lon="11.741525438036003"><ele>4.333333333333333</ele><time>2026-04-04T13:10:12.991Z</time></trkpt><trkpt lat="45.01939239231097" lon="11.74155743404729"><ele>4.0</ele><time>2026-04-04T13:10:13.991Z</time></trkpt><trkpt lat="45.019559981079176" lon="11.741588283186662"><ele>4.0</ele><time>2026-04-04T13:10:14.991Z</time></trkpt><trkpt lat="45.019733375939296" lon="11.7416165114077"><ele>4.0</ele><time>2026-04-04T13:10:15.991Z</time></trkpt><trkpt lat="45.01989771536794" lon="11.741650723353361"><ele>4.0</ele><time>2026-04-04T13:10:16.991Z</time></trkpt><trkpt lat="45.02006898735133" lon="11.741674628388443"><ele>4.0</ele><time>2026-04-04T13:10:17.991Z</time></trkpt><trkpt lat="45.02022411631601" lon="11.741702636716633"><ele>4.0</ele><time>2026-04-04T13:10:18.991Z</time></trkpt><trkpt lat="45.02037380980767" lon="11.741737918491268"><ele>4.0</ele><time>2026-04-04T13:10:19.991Z</time></trkpt><trkpt lat="45.02051089725717" lon="11.741777812166887"><ele>4.0</ele><time>2026-04-04T13:10:20.991Z</time></trkpt><trkpt lat="45.02064172245716" lon="11.741824322852302"><ele>4.0</ele><time>2026-04-04T13:10:21.991Z</time></trkpt><trkpt lat="45.02077512015731" lon="11.74186895963027"><ele>4.0</ele><time>2026-04-04T13:10:22.991Z</time></trkpt><trkpt lat="45.0209015692753" lon="11.741916539323332"><ele>4.0</ele><time>2026-04-04T13:10:23.991Z</time></trkpt><trkpt lat="45.02102948895321" lon="11.741955397407988"><ele>4.0</ele><time>2026-04-04T13:10:24.991Z</time></trkpt><trkpt lat="45.02115461089138" lon="11.742003592863309"><ele>4.0</ele><time>2026-04-04T13:10:25.991Z</time></trkpt><trkpt lat="45.02128143954983" lon="11.742048128165818"><ele>4.0</ele><time>2026-04-04T13:10:26.991Z</time></trkpt><trkpt lat="45.021410526538574" lon="11.742097998904633"><ele>4.0</ele><time>2026-04-04T13:10:27.991Z</time></trkpt><trkpt lat="45.0215267495446" lon="11.742151560123895"><ele>4.0</ele><time>2026-04-04T13:10:28.991Z</time></trkpt><trkpt lat="45.021648681483" lon="11.742211484857297"><ele>3.75</ele><time>2026-04-04T13:10:29.991Z</time></trkpt><trkpt lat="45.02176996589303" lon="11.742268223566972"><ele>3.5</ele><time>2026-04-04T13:10:30.991Z</time></trkpt><trkpt lat="45.02188601138473" lon="11.74232529706527"><ele>3.25</ele><time>2026-04-04T13:10:31.991Z</time></trkpt><trkpt lat="45.0220120496116" lon="11.742393977619232"><ele>3.0</ele><time>2026-04-04T13:10:32.991Z</time></trkpt><trkpt lat="45.022154234499745" lon="11.742461704783636"><ele>3.0</ele><time>2026-04-04T13:10:33.991Z</time></trkpt><trkpt lat="45.022304304968294" lon="11.742542102730368"><ele>3.0</ele><time>2026-04-04T13:10:34.991Z</time></trkpt><trkpt lat="45.0224568176901" lon="11.74262554784638"><ele>3.0</ele><time>2026-04-04T13:10:35.991Z</time></trkpt><trkpt lat="45.02260719922302" lon="11.742716103067963"><ele>3.0</ele><time>2026-04-04T13:10:36.991Z</time></trkpt><trkpt lat="45.022751137923294" lon="11.74280300857807"><ele>3.0</ele><time>2026-04-04T13:10:37.991Z</time></trkpt><trkpt lat="45.022889930242805" lon="11.74288155824103"><ele>3.0</ele><time>2026-04-04T13:10:38.991Z</time></trkpt><trkpt lat="45.02302393033815" lon="11.74295882482489"><ele>3.0</ele><time>2026-04-04T13:10:39.991Z</time></trkpt><trkpt lat="45.02315120396938" lon="11.743026560591973"><ele>3.0</ele><time>2026-04-04T13:10:40.991Z</time></trkpt><trkpt lat="45.02327293369286" lon="11.743094351648379"><ele>3.0</ele><time>2026-04-04T13:10:41.991Z</time></trkpt><trkpt lat="45.02338389676893" lon="11.743159515001798"><ele>3.0</ele><time>2026-04-04T13:10:42.991Z</time></trkpt><trkpt lat="45.02349188961864" lon="11.743227637517677"><ele>3.0</ele><time>2026-04-04T13:10:43.991Z</time></trkpt><trkpt lat="45.02359777886984" lon="11.743296701620526"><ele>3.0</ele><time>2026-04-04T13:10:44.991Z</time></trkpt><trkpt lat="45.02369489594222" lon="11.743375375089775"><ele>3.0</ele><time>2026-04-04T13:10:45.991Z</time></trkpt><trkpt lat="45.02378400336276" lon="11.74345813092792"><ele>3.0</ele><time>2026-04-04T13:10:46.991Z</time></trkpt><trkpt lat="45.02386296971552" lon="11.743541130425804"><ele>3.0</ele><time>2026-04-04T13:10:47.991Z</time></trkpt><trkpt lat="45.02394233231663" lon="11.743675252497873"><ele>3.0</ele><time>2026-04-04T13:10:48.991Z</time></trkpt><trkpt lat="45.0240288219353" lon="11.743848197150788"><ele>3.0</ele><time>2026-04-04T13:10:49.991Z</time></trkpt><trkpt lat="45.02410705570667" lon="11.744056904829883"><ele>3.0</ele><time>2026-04-04T13:10:50.991Z</time></trkpt><trkpt lat="45.02419366986501" lon="11.744302947066505"><ele>2.6666666666666665</ele><time>2026-04-04T13:10:51.991Z</time></trkpt><trkpt lat="45.024249121357045" lon="11.744553921604805"><ele>2.333333333333333</ele><time>2026-04-04T13:10:52.991Z</time></trkpt><trkpt lat="45.02426917998771" lon="11.74481325009804"><ele>2.0</ele><time>2026-04-04T13:10:53.991Z</time></trkpt><trkpt lat="45.02428876330542" lon="11.745063787343568"><ele>2.6666666666666665</ele><time>2026-04-04T13:10:54.991Z</time></trkpt><trkpt lat="45.02430999984192" lon="11.745312250280133"><ele>3.333333333333333</ele><time>2026-04-04T13:10:55.991Z</time></trkpt><trkpt lat="45.024348385924455" lon="11.745549613271901"><ele>4.0</ele><time>2026-04-04T13:10:56.991Z</time></trkpt><trkpt lat="45.02437479500436" lon="11.745772474329707"><ele>4.0</ele><time>2026-04-04T13:10:57.99Z</time></trkpt><trkpt lat="45.024414631167176" lon="11.745985680949557"><ele>4.0</ele><time>2026-04-04T13:10:58.99Z</time></trkpt><trkpt lat="45.02448840430933" lon="11.746178934959046"><ele>4.0</ele><time>2026-04-04T13:10:59.99Z</time></trkpt><trkpt lat="45.02458904071095" lon="11.746346575395426"><ele>3.6666666666666665</ele><time>2026-04-04T13:11:00.99Z</time></trkpt><trkpt lat="45.024711223297835" lon="11.746488458923752"><ele>3.333333333333333</ele><time>2026-04-04T13:11:01.99Z</time></trkpt><trkpt lat="45.02485186057412" lon="11.746607045995853"><ele>3.0</ele><time>2026-04-04T13:11:02.99Z</time></trkpt><trkpt lat="45.0250166861854" lon="11.746682584933891"><ele>3.0</ele><time>2026-04-04T13:11:03.99Z</time></trkpt><trkpt lat="45.025188458545024" lon="11.746734426263496"><ele>3.0</ele><time>2026-04-04T13:11:04.99Z</time></trkpt><trkpt lat="45.02536731877656" lon="11.746758480192392"><ele>3.0</ele><time>2026-04-04T13:11:05.99Z</time></trkpt><trkpt lat="45.02555115744346" lon="11.746779600445143"><ele>3.0</ele><time>2026-04-04T13:11:06.99Z</time></trkpt><trkpt lat="45.02571793416757" lon="11.74680753645039"><ele>3.0</ele><time>2026-04-04T13:11:07.99Z</time></trkpt><trkpt lat="45.02587020347851" lon="11.746832122452693"><ele>3.0</ele><time>2026-04-04T13:11:08.99Z</time></trkpt><trkpt lat="45.02602383957333" lon="11.746842774223476"><ele>3.0</ele><time>2026-04-04T13:11:09.99Z</time></trkpt><trkpt lat="45.026180628868744" lon="11.7468153747195"><ele>3.0</ele><time>2026-04-04T13:11:10.99Z</time></trkpt><trkpt lat="45.026344646354644" lon="11.746771381597144"><ele>3.0</ele><time>2026-04-04T13:11:11.99Z</time></trkpt><trkpt lat="45.026520339435585" lon="11.74670815475372"><ele>3.0</ele><time>2026-04-04T13:11:12.99Z</time></trkpt><trkpt lat="45.02669999257957" lon="11.7466380525846"><ele>3.0</ele><time>2026-04-04T13:11:13.99Z</time></trkpt><trkpt lat="45.026873623289994" lon="11.746570079470535"><ele>3.0</ele><time>2026-04-04T13:11:14.99Z</time></trkpt><trkpt lat="45.02703982435061" lon="11.746503088361473"><ele>3.0</ele><time>2026-04-04T13:11:15.99Z</time></trkpt><trkpt lat="45.02719414961289" lon="11.746448225934836"><ele>3.0</ele><time>2026-04-04T13:11:16.99Z</time></trkpt><trkpt lat="45.02732952627984" lon="11.746399322288454"><ele>3.0</ele><time>2026-04-04T13:11:17.99Z</time></trkpt><trkpt lat="45.02746108352992" lon="11.746350680131686"><ele>3.0</ele><time>2026-04-04T13:11:18.99Z</time></trkpt><trkpt lat="45.02758164142221" lon="11.746308608651441"><ele>3.5</ele><time>2026-04-04T13:11:19.992Z</time></trkpt><trkpt lat="45.027704098681085" lon="11.746271579810958"><ele>4.0</ele><time>2026-04-04T13:11:20.991Z</time></trkpt><trkpt lat="45.027827739008316" lon="11.746253535374397"><ele>4.5</ele><time>2026-04-04T13:11:21.991Z</time></trkpt><trkpt lat="45.02794344883638" lon="11.746261893256564"><ele>5.0</ele><time>2026-04-04T13:11:22.992Z</time></trkpt><trkpt lat="45.02804720200685" lon="11.746286900333027"><ele>5.0</ele><time>2026-04-04T13:11:23.992Z</time></trkpt><trkpt lat="45.02815423128747" lon="11.74631286755"><ele>5.0</ele><time>2026-04-04T13:11:24.992Z</time></trkpt><trkpt lat="45.02825819859212" lon="11.746376718181452"><ele>5.0</ele><time>2026-04-04T13:11:25.992Z</time></trkpt><trkpt lat="45.02835277729712" lon="11.746473551823968"><ele>5.0</ele><time>2026-04-04T13:11:26.992Z</time></trkpt><trkpt lat="45.028450747160775" lon="11.746588977007182"><ele>4.8</ele><time>2026-04-04T13:11:27.992Z</time></trkpt><trkpt lat="45.028546796340045" lon="11.746687313587756"><ele>4.6</ele><time>2026-04-04T13:11:28.991Z</time></trkpt><trkpt lat="45.02863751165587" lon="11.746764975077548"><ele>4.4</ele><time>2026-04-04T13:11:29.992Z</time></trkpt><trkpt lat="45.02873385825552" lon="11.746813205711089"><ele>4.2</ele><time>2026-04-04T13:11:30.992Z</time></trkpt><trkpt lat="45.028827506204614" lon="11.74685474516584"><ele>4.0</ele><time>2026-04-04T13:11:31.992Z</time></trkpt><trkpt lat="45.02891626712724" lon="11.746900568003767"><ele>4.0</ele><time>2026-04-04T13:11:32.991Z</time></trkpt><trkpt lat="45.02899779171118" lon="11.746956064739209"><ele>4.0</ele><time>2026-04-04T13:11:33.991Z</time></trkpt><trkpt lat="45.029071418149655" lon="11.74703456979656"><ele>4.0</ele><time>2026-04-04T13:11:34.991Z</time></trkpt><trkpt lat="45.02912988971143" lon="11.747134703820437"><ele>4.0</ele><time>2026-04-04T13:11:35.991Z</time></trkpt><trkpt lat="45.0291847618789" lon="11.747270172826068"><ele>4.0</ele><time>2026-04-04T13:11:36.991Z</time></trkpt><trkpt lat="45.02922622308453" lon="11.747433013278796"><ele>4.0</ele><time>2026-04-04T13:11:37.991Z</time></trkpt><trkpt lat="45.02925595710653" lon="11.74760963618103"><ele>4.0</ele><time>2026-04-04T13:11:38.991Z</time></trkpt><trkpt lat="45.02928641583645" lon="11.74780428285573"><ele>4.0</ele><time>2026-04-04T13:11:39.991Z</time></trkpt><trkpt lat="45.02931367900004" lon="11.747982637544665"><ele>4.0</ele><time>2026-04-04T13:11:40.991Z</time></trkpt><trkpt lat="45.029340714183135" lon="11.748155831205386"><ele>3.75</ele><time>2026-04-04T13:11:41.991Z</time></trkpt><trkpt lat="45.02936466021363" lon="11.748336679436568"><ele>3.5</ele><time>2026-04-04T13:11:42.991Z</time></trkpt><trkpt lat="45.029395699105656" lon="11.748528813007916"><ele>3.25</ele><time>2026-04-04T13:11:43.991Z</time></trkpt><trkpt lat="45.02943745783827" lon="11.748727670693714"><ele>3.0</ele><time>2026-04-04T13:11:44.991Z</time></trkpt><trkpt lat="45.02949061459422" lon="11.748909172532201"><ele>3.0</ele><time>2026-04-04T13:11:45.991Z</time></trkpt><trkpt lat="45.029553982692164" lon="11.74908210439327"><ele>3.0</ele><time>2026-04-04T13:11:46.991Z</time></trkpt><trkpt lat="45.02962874056451" lon="11.74924529793586"><ele>3.0</ele><time>2026-04-04T13:11:47.991Z</time></trkpt><trkpt lat="45.02970794854657" lon="11.749408038342127"><ele>3.0</ele><time>2026-04-04T13:11:48.991Z</time></trkpt><trkpt lat="45.02980500167332" lon="11.749557429623595"><ele>3.0</ele><time>2026-04-04T13:11:49.991Z</time></trkpt><trkpt lat="45.02991491029885" lon="11.749684437654132"><ele>3.0</ele><time>2026-04-04T13:11:50.991Z</time></trkpt><trkpt lat="45.0300162810867" lon="11.749771084481655"><ele>3.0</ele><time>2026-04-04T13:11:51.991Z</time></trkpt><trkpt lat="45.030097327952745" lon="11.749830788104322"><ele>3.0</ele><time>2026-04-04T13:11:52.991Z</time></trkpt><trkpt lat="45.03016018165515" lon="11.749877109515795"><ele>3.0</ele><time>2026-04-04T13:11:53.991Z</time></trkpt><trkpt lat="45.030209336310364" lon="11.749942928735875"><ele>3.0</ele><time>2026-04-04T13:11:55.991Z</time></trkpt><trkpt lat="45.030247672707304" lon="11.750033552660266"><ele>3.0</ele><time>2026-04-04T13:11:58.991Z</time></trkpt><trkpt lat="45.03020751321671" lon="11.749915611981523"><ele>3.0</ele><time>2026-04-04T13:12:16.99Z</time></trkpt><trkpt lat="45.03002608984729" lon="11.749715765195125"><ele>3.0</ele><time>2026-04-04T13:12:18.99Z</time></trkpt><trkpt lat="45.02993234875777" lon="11.749631408449142"><ele>3.0</ele><time>2026-04-04T13:12:19.99Z</time></trkpt><trkpt lat="45.02982856600475" lon="11.749527651769672"><ele>3.0</ele><time>2026-04-04T13:12:20.99Z</time></trkpt><trkpt lat="45.02973005996938" lon="11.749386743399459"><ele>3.0</ele><time>2026-04-04T13:12:21.99Z</time></trkpt><trkpt lat="45.02964889316715" lon="11.74922715158044"><ele>3.0</ele><time>2026-04-04T13:12:22.99Z</time></trkpt><trkpt lat="45.02957222600153" lon="11.749042454593726"><ele>3.0</ele><time>2026-04-04T13:12:23.99Z</time></trkpt><trkpt lat="45.0294989755631" lon="11.748832665246534"><ele>3.0</ele><time>2026-04-04T13:12:24.99Z</time></trkpt><trkpt lat="45.02943799919734" lon="11.748620481873553"><ele>3.0</ele><time>2026-04-04T13:12:25.99Z</time></trkpt><trkpt lat="45.029394984609795" lon="11.748382988017132"><ele>3.0</ele><time>2026-04-04T13:12:26.99Z</time></trkpt><trkpt lat="45.02937579874834" lon="11.748141111216622"><ele>3.0</ele><time>2026-04-04T13:12:27.99Z</time></trkpt><trkpt lat="45.02934222703584" lon="11.747912079459471"><ele>3.0</ele><time>2026-04-04T13:12:28.99Z</time></trkpt><trkpt lat="45.02929839363887" lon="11.747722061223119"><ele>3.2</ele><time>2026-04-04T13:12:29.99Z</time></trkpt><trkpt lat="45.02927829975578" lon="11.747558197685143"><ele>3.4</ele><time>2026-04-04T13:12:30.99Z</time></trkpt><trkpt lat="45.029247664667224" lon="11.747405191496878"><ele>3.6000000000000005</ele><time>2026-04-04T13:12:31.99Z</time></trkpt><trkpt lat="45.0292218523416" lon="11.747262216389736"><ele>3.8000000000000003</ele><time>2026-04-04T13:12:32.99Z</time></trkpt><trkpt lat="45.02919217988815" lon="11.747137933910905"><ele>4.0</ele><time>2026-04-04T13:12:33.99Z</time></trkpt><trkpt lat="45.02916192699101" lon="11.747009289764135"><ele>4.0</ele><time>2026-04-04T13:12:34.99Z</time></trkpt><trkpt lat="45.029135973596766" lon="11.746882732616475"><ele>4.0</ele><time>2026-04-04T13:12:35.99Z</time></trkpt><trkpt lat="45.029104333056836" lon="11.746761360262537"><ele>4.0</ele><time>2026-04-04T13:12:36.99Z</time></trkpt><trkpt lat="45.02906561058765" lon="11.746644682532237"><ele>4.0</ele><time>2026-04-04T13:12:37.99Z</time></trkpt><trkpt lat="45.029016598340355" lon="11.746533805133748"><ele>4.0</ele><time>2026-04-04T13:12:38.99Z</time></trkpt><trkpt lat="45.02896614181048" lon="11.746435854833232"><ele>3.9999999999999996</ele><time>2026-04-04T13:12:39.99Z</time></trkpt><trkpt lat="45.02892028502633" lon="11.7463578813389"><ele>4.0</ele><time>2026-04-04T13:12:40.99Z</time></trkpt><trkpt lat="45.02886698166416" lon="11.746270232827325"><ele>4.0</ele><time>2026-04-04T13:12:41.99Z</time></trkpt><trkpt lat="45.02880468160238" lon="11.746184348470598"><ele>4.0</ele><time>2026-04-04T13:12:42.99Z</time></trkpt><trkpt lat="45.02873481935255" lon="11.746102866501852"><ele>3.9999999999999996</ele><time>2026-04-04T13:12:43.99Z</time></trkpt><trkpt lat="45.02867029796063" lon="11.746028145430822"><ele>4.0</ele><time>2026-04-04T13:12:44.99Z</time></trkpt><trkpt lat="45.028612329406926" lon="11.74596359934111"><ele>3.9999999999999996</ele><time>2026-04-04T13:12:45.99Z</time></trkpt><trkpt lat="45.028528029639254" lon="11.745886445181604"><ele>4.0</ele><time>2026-04-04T13:12:47.99Z</time></trkpt><trkpt lat="45.02846528071592" lon="11.74582490003434"><ele>4.0</ele><time>2026-04-04T13:12:49.99Z</time></trkpt><trkpt lat="45.02836752666487" lon="11.745778885096428"><ele>4.0</ele><time>2026-04-04T13:12:51.99Z</time></trkpt><trkpt lat="45.02831184355084" lon="11.745728951225077"><ele>3.9999999999999996</ele><time>2026-04-04T13:12:52.99Z</time></trkpt><trkpt lat="45.02823746731671" lon="11.745668280555378"><ele>4.0</ele><time>2026-04-04T13:12:53.99Z</time></trkpt><trkpt lat="45.02814997796141" lon="11.74562094966363"><ele>4.0</ele><time>2026-04-04T13:12:54.99Z</time></trkpt><trkpt lat="45.028063886638115" lon="11.745565464265514"><ele>4.0</ele><time>2026-04-04T13:12:55.99Z</time></trkpt><trkpt lat="45.02797949020741" lon="11.745513807583869"><ele>4.0</ele><time>2026-04-04T13:12:56.99Z</time></trkpt><trkpt lat="45.0278866029457" lon="11.745458952405968"><ele>4.0</ele><time>2026-04-04T13:12:57.99Z</time></trkpt><trkpt lat="45.027791544811635" lon="11.745400974584323"><ele>4.0</ele><time>2026-04-04T13:12:58.99Z</time></trkpt><trkpt lat="45.02769454819149" lon="11.745343946440498"><ele>4.0</ele><time>2026-04-04T13:12:59.99Z</time></trkpt><trkpt lat="45.02759795202002" lon="11.74529016665503"><ele>4.0</ele><time>2026-04-04T13:13:00.99Z</time></trkpt><trkpt lat="45.0275037614143" lon="11.745235645003454"><ele>4.0</ele><time>2026-04-04T13:13:01.99Z</time></trkpt><trkpt lat="45.02740875560651" lon="11.74517689364264"><ele>4.0</ele><time>2026-04-04T13:13:02.99Z</time></trkpt><trkpt lat="45.02731307090716" lon="11.745120535527587"><ele>4.0</ele><time>2026-04-04T13:13:03.99Z</time></trkpt><trkpt lat="45.027213471096296" lon="11.74507030606724"><ele>4.166666666666666</ele><time>2026-04-04T13:13:04.99Z</time></trkpt><trkpt lat="45.02711703361151" lon="11.745020907214645"><ele>4.333333333333333</ele><time>2026-04-04T13:13:05.99Z</time></trkpt><trkpt lat="45.02702987929085" lon="11.744977472096643"><ele>4.5</ele><time>2026-04-04T13:13:06.99Z</time></trkpt><trkpt lat="45.02694867663973" lon="11.744932704436895"><ele>4.666666666666667</ele><time>2026-04-04T13:13:07.99Z</time></trkpt><trkpt lat="45.02686834623915" lon="11.744888398516531"><ele>4.833333333333334</ele><time>2026-04-04T13:13:08.99Z</time></trkpt><trkpt lat="45.02679470906461" lon="11.744847527812714"><ele>5.0</ele><time>2026-04-04T13:13:09.99Z</time></trkpt><trkpt lat="45.02672522102646" lon="11.744805185519029"><ele>5.0</ele><time>2026-04-04T13:13:10.99Z</time></trkpt><trkpt lat="45.026660078247325" lon="11.744766161814836"><ele>5.0</ele><time>2026-04-04T13:13:11.99Z</time></trkpt><trkpt lat="45.02654509562945" lon="11.744692371517022"><ele>5.0</ele><time>2026-04-04T13:13:13.99Z</time></trkpt><trkpt lat="45.02647104150296" lon="11.744657422107533"><ele>5.0</ele><time>2026-04-04T13:13:14.989Z</time></trkpt><trkpt lat="45.026390576967444" lon="11.744619491885564"><ele>5.0</ele><time>2026-04-04T13:13:15.989Z</time></trkpt><trkpt lat="45.02630109929801" lon="11.74458399941437"><ele>5.166666666666667</ele><time>2026-04-04T13:13:16.989Z</time></trkpt><trkpt lat="45.026217408610854" lon="11.744549600736134"><ele>5.333333333333334</ele><time>2026-04-04T13:13:17.989Z</time></trkpt><trkpt lat="45.02614243696559" lon="11.74452203295408"><ele>5.5</ele><time>2026-04-04T13:13:18.989Z</time></trkpt><trkpt lat="45.026073460495404" lon="11.744500682949882"><ele>5.666666666666667</ele><time>2026-04-04T13:13:19.989Z</time></trkpt><trkpt lat="45.026010161237" lon="11.744483726983978"><ele>5.833333333333333</ele><time>2026-04-04T13:13:20.989Z</time></trkpt><trkpt lat="45.025920064980355" lon="11.744468246549173"><ele>6.0</ele><time>2026-04-04T13:13:22.989Z</time></trkpt><trkpt lat="45.0258574337882" lon="11.7445238945877"><ele>6.0</ele><time>2026-04-04T13:13:24.989Z</time></trkpt><trkpt lat="45.02584473557337" lon="11.744672715876524"><ele>6.0</ele><time>2026-04-04T13:13:26.991Z</time></trkpt><trkpt lat="45.02584996726902" lon="11.744800823157238"><ele>6.0</ele><time>2026-04-04T13:13:28.991Z</time></trkpt><trkpt lat="45.025861233801315" lon="11.744892047372113"><ele>6.0</ele><time>2026-04-04T13:13:30.992Z</time></trkpt><trkpt lat="45.02587246868639" lon="11.744980946065027"><ele>6.0</ele><time>2026-04-04T13:13:36.991Z</time></trkpt><trkpt lat="45.02585607008779" lon="11.745130881289954"><ele>6.0</ele><time>2026-04-04T13:14:03.99Z</time></trkpt><trkpt lat="45.02585868778818" lon="11.745290876198501"><ele>5.333333333333333</ele><time>2026-04-04T13:14:05.99Z</time></trkpt><trkpt lat="45.026169797922975" lon="11.74546091652462"><ele>4.666666666666666</ele><time>2026-04-04T13:14:06.99Z</time></trkpt><trkpt lat="45.02624174027716" lon="11.745544571815753"><ele>4.0</ele><time>2026-04-04T13:14:07.99Z</time></trkpt><trkpt lat="45.02632542724758" lon="11.745634736278904"><ele>4.0</ele><time>2026-04-04T13:14:08.99Z</time></trkpt><trkpt lat="45.02640379419128" lon="11.745752534240541"><ele>4.0</ele><time>2026-04-04T13:14:09.99Z</time></trkpt><trkpt lat="45.02651726303328" lon="11.745798338920743"><ele>4.0</ele><time>2026-04-04T13:14:10.99Z</time></trkpt><trkpt lat="45.02662761338326" lon="11.745785988109898"><ele>4.0</ele><time>2026-04-04T13:14:11.99Z</time></trkpt><trkpt lat="45.02672262976308" lon="11.745789528633066"><ele>4.0</ele><time>2026-04-04T13:14:12.99Z</time></trkpt><trkpt lat="45.02682413235798" lon="11.745779159372251"><ele>4.0</ele><time>2026-04-04T13:14:13.99Z</time></trkpt><trkpt lat="45.02692332314935" lon="11.745780900104732"><ele>4.0</ele><time>2026-04-04T13:14:14.99Z</time></trkpt><trkpt lat="45.027028081073034" lon="11.745808679720538"><ele>4.0</ele><time>2026-04-04T13:14:15.99Z</time></trkpt><trkpt lat="45.02712065236547" lon="11.745849796856273"><ele>4.0</ele><time>2026-04-04T13:14:16.99Z</time></trkpt><trkpt lat="45.02721147932633" lon="11.745899892971424"><ele>4.0</ele><time>2026-04-04T13:14:17.99Z</time></trkpt><trkpt lat="45.0273047629763" lon="11.74596255216188"><ele>3.9999999999999996</ele><time>2026-04-04T13:14:18.99Z</time></trkpt><trkpt lat="45.02736071804418" lon="11.746037403752407"><ele>4.0</ele><time>2026-04-04T13:14:19.99Z</time></trkpt><trkpt lat="45.02741764551864" lon="11.746083621827488"><ele>4.0</ele><time>2026-04-04T13:14:20.99Z</time></trkpt><trkpt lat="45.027495646041174" lon="11.74617035640034"><ele>4.0</ele><time>2026-04-04T13:14:22.99Z</time></trkpt><trkpt lat="45.027532071119595" lon="11.746247468424574"><ele>3.9999999999999996</ele><time>2026-04-04T13:14:24.99Z</time></trkpt><trkpt lat="45.027653527042766" lon="11.746293121273522"><ele>4.0</ele><time>2026-04-04T13:14:26.99Z</time></trkpt><trkpt lat="45.02775960107794" lon="11.746276622923132"><ele>4.25</ele><time>2026-04-04T13:14:27.99Z</time></trkpt><trkpt lat="45.02787414072092" lon="11.746258240931004"><ele>4.5</ele><time>2026-04-04T13:14:28.99Z</time></trkpt><trkpt lat="45.02799545882168" lon="11.74625687890254"><ele>4.75</ele><time>2026-04-04T13:14:29.99Z</time></trkpt><trkpt lat="45.02811225426638" lon="11.746291274549467"><ele>5.0</ele><time>2026-04-04T13:14:30.99Z</time></trkpt><trkpt lat="45.02822198311818" lon="11.746334422451636"><ele>4.75</ele><time>2026-04-04T13:14:31.99Z</time></trkpt><trkpt lat="45.02831745150531" lon="11.746419161323994"><ele>4.5</ele><time>2026-04-04T13:14:32.99Z</time></trkpt><trkpt lat="45.02840582151476" lon="11.746523220651156"><ele>4.25</ele><time>2026-04-04T13:14:33.99Z</time></trkpt><trkpt lat="45.028490359029526" lon="11.746623317382669"><ele>4.0</ele><time>2026-04-04T13:14:34.99Z</time></trkpt><trkpt lat="45.02858587270639" lon="11.746709103450524"><ele>4.0</ele><time>2026-04-04T13:14:35.99Z</time></trkpt><trkpt lat="45.028693427257565" lon="11.746776902922123"><ele>4.0</ele><time>2026-04-04T13:14:36.99Z</time></trkpt><trkpt lat="45.028804617141546" lon="11.746826438541223"><ele>4.0</ele><time>2026-04-04T13:14:37.99Z</time></trkpt><trkpt lat="45.028906320324815" lon="11.746873119999272"><ele>4.0</ele><time>2026-04-04T13:14:38.99Z</time></trkpt><trkpt lat="45.029014202360656" lon="11.746936647703873"><ele>4.0</ele><time>2026-04-04T13:14:39.99Z</time></trkpt><trkpt lat="45.02909917868916" lon="11.74703624104552"><ele>4.0</ele><time>2026-04-04T13:14:40.99Z</time></trkpt><trkpt lat="45.0291711331777" lon="11.747178393663022"><ele>4.0</ele><time>2026-04-04T13:14:41.99Z</time></trkpt><trkpt lat="45.0292277302451" lon="11.747352036110327"><ele>4.0</ele><time>2026-04-04T13:14:42.99Z</time></trkpt><trkpt lat="45.02924908334588" lon="11.747545159828688"><ele>3.75</ele><time>2026-04-04T13:14:43.99Z</time></trkpt><trkpt lat="45.029280571635134" lon="11.747737248453598"><ele>3.5</ele><time>2026-04-04T13:14:44.99Z</time></trkpt><trkpt lat="45.02931201310752" lon="11.74793797115759"><ele>3.25</ele><time>2026-04-04T13:14:45.99Z</time></trkpt><trkpt lat="45.02934222508802" lon="11.748145090460483"><ele>3.0</ele><time>2026-04-04T13:14:46.99Z</time></trkpt><trkpt lat="45.02937373910056" lon="11.748342615402224"><ele>3.0</ele><time>2026-04-04T13:14:47.99Z</time></trkpt><trkpt lat="45.029422905076856" lon="11.748543508234375"><ele>3.0</ele><time>2026-04-04T13:14:48.99Z</time></trkpt><trkpt lat="45.02946573831271" lon="11.748756393452211"><ele>3.0</ele><time>2026-04-04T13:14:49.99Z</time></trkpt><trkpt lat="45.02952597937383" lon="11.748965069383498"><ele>3.0</ele><time>2026-04-04T13:14:50.99Z</time></trkpt><trkpt lat="45.02959870642132" lon="11.749161325287385"><ele>3.0</ele><time>2026-04-04T13:14:51.99Z</time></trkpt><trkpt lat="45.02968802870185" lon="11.749346904704069"><ele>3.0</ele><time>2026-04-04T13:14:52.99Z</time></trkpt><trkpt lat="45.02978365667769" lon="11.749518514375715"><ele>3.0</ele><time>2026-04-04T13:14:53.99Z</time></trkpt><trkpt lat="45.02989530005407" lon="11.74965459944313"><ele>3.0</ele><time>2026-04-04T13:14:54.99Z</time></trkpt><trkpt lat="45.03001791758019" lon="11.749766787949705"><ele>3.0</ele><time>2026-04-04T13:14:55.99Z</time></trkpt><trkpt lat="45.0301464670395" lon="11.749861825826168"><ele>3.0</ele><time>2026-04-04T13:14:56.99Z</time></trkpt><trkpt lat="45.030273873202894" lon="11.749958152850683"><ele>2.6666666666666665</ele><time>2026-04-04T13:14:57.99Z</time></trkpt><trkpt lat="45.030397835546225" lon="11.750048972958636"><ele>2.333333333333333</ele><time>2026-04-04T13:14:58.99Z</time></trkpt><trkpt lat="45.0305430715407" lon="11.75015320277858"><ele>2.0</ele><time>2026-04-04T13:14:59.989Z</time></trkpt><trkpt lat="45.03070192437461" lon="11.750262954941256"><ele>2.333333333333333</ele><time>2026-04-04T13:15:00.989Z</time></trkpt><trkpt lat="45.03086564745155" lon="11.750368608959626"><ele>2.6666666666666665</ele><time>2026-04-04T13:15:01.989Z</time></trkpt><trkpt lat="45.031034402111345" lon="11.750466807842752"><ele>3.0</ele><time>2026-04-04T13:15:02.989Z</time></trkpt><trkpt lat="45.03120894353284" lon="11.750564214797146"><ele>3.0</ele><time>2026-04-04T13:15:03.989Z</time></trkpt><trkpt lat="45.03137898642776" lon="11.750656318319596"><ele>3.0</ele><time>2026-04-04T13:15:04.989Z</time></trkpt><trkpt lat="45.0315474046778" lon="11.75074508300783"><ele>3.0</ele><time>2026-04-04T13:15:05.989Z</time></trkpt><trkpt lat="45.031709396824624" lon="11.750833929929064"><ele>3.0</ele><time>2026-04-04T13:15:06.989Z</time></trkpt><trkpt lat="45.03187532076259" lon="11.750918615354767"><ele>3.0</ele><time>2026-04-04T13:15:07.989Z</time></trkpt><trkpt lat="45.03204550166246" lon="11.751005592594849"><ele>3.0</ele><time>2026-04-04T13:15:08.989Z</time></trkpt><trkpt lat="45.03222069435476" lon="11.751092477660261"><ele>3.0</ele><time>2026-04-04T13:15:09.989Z</time></trkpt><trkpt lat="45.03240190728136" lon="11.751167385866363"><ele>3.0</ele><time>2026-04-04T13:15:10.989Z</time></trkpt><trkpt lat="45.03258024243984" lon="11.751240199439833"><ele>3.0</ele><time>2026-04-04T13:15:11.989Z</time></trkpt><trkpt lat="45.03276296929603" lon="11.751300380563881"><ele>3.0</ele><time>2026-04-04T13:15:12.989Z</time></trkpt><trkpt lat="45.03294610548403" lon="11.751356117698618"><ele>3.0</ele><time>2026-04-04T13:15:13.989Z</time></trkpt><trkpt lat="45.03312542215733" lon="11.751410442090155"><ele>3.0</ele><time>2026-04-04T13:15:14.989Z</time></trkpt><trkpt lat="45.033297974149285" lon="11.751465351588847"><ele>3.0</ele><time>2026-04-04T13:15:15.989Z</time></trkpt><trkpt lat="45.03346488325458" lon="11.751525652676815"><ele>3.0</ele><time>2026-04-04T13:15:16.989Z</time></trkpt><trkpt lat="45.03362743192245" lon="11.751588340327205"><ele>3.0</ele><time>2026-04-04T13:15:17.989Z</time></trkpt><trkpt lat="45.03377828003585" lon="11.751669245247447"><ele>3.0</ele><time>2026-04-04T13:15:18.989Z</time></trkpt><trkpt lat="45.0339302310839" lon="11.751749174657617"><ele>3.0</ele><time>2026-04-04T13:15:19.989Z</time></trkpt><trkpt lat="45.034077641658214" lon="11.751827919221313"><ele>3.0</ele><time>2026-04-04T13:15:20.989Z</time></trkpt><trkpt lat="45.03422174359024" lon="11.751902675366377"><ele>3.333333333333333</ele><time>2026-04-04T13:15:21.989Z</time></trkpt><trkpt lat="45.034369748785565" lon="11.75197177105835"><ele>3.6666666666666665</ele><time>2026-04-04T13:15:22.989Z</time></trkpt><trkpt lat="45.03451759785114" lon="11.752034763082882"><ele>4.0</ele><time>2026-04-04T13:15:23.989Z</time></trkpt><trkpt lat="45.03467129575267" lon="11.752096047500858"><ele>4.0</ele><time>2026-04-04T13:15:24.989Z</time></trkpt><trkpt lat="45.034823526456236" lon="11.752154232034922"><ele>4.0</ele><time>2026-04-04T13:15:25.989Z</time></trkpt><trkpt lat="45.034965608189495" lon="11.7522088564141"><ele>4.0</ele><time>2026-04-04T13:15:26.989Z</time></trkpt><trkpt lat="45.03509988936307" lon="11.75226537934247"><ele>4.0</ele><time>2026-04-04T13:15:27.989Z</time></trkpt><trkpt lat="45.03523041601975" lon="11.752310535642657"><ele>4.0</ele><time>2026-04-04T13:15:28.989Z</time></trkpt><trkpt lat="45.03536685345866" lon="11.752328448095486"><ele>4.0</ele><time>2026-04-04T13:15:29.989Z</time></trkpt><trkpt lat="45.03551029794905" lon="11.752315944050682"><ele>4.0</ele><time>2026-04-04T13:15:30.989Z</time></trkpt><trkpt lat="45.03565842440715" lon="11.752294108019978"><ele>4.0</ele><time>2026-04-04T13:15:31.991Z</time></trkpt><trkpt lat="45.035818105056876" lon="11.752268616175911"><ele>4.333333333333333</ele><time>2026-04-04T13:15:32.99Z</time></trkpt><trkpt lat="45.03598728336599" lon="11.752244896676782"><ele>4.666666666666667</ele><time>2026-04-04T13:15:33.99Z</time></trkpt><trkpt lat="45.036139657859806" lon="11.752233385149376"><ele>5.0</ele><time>2026-04-04T13:15:34.99Z</time></trkpt><trkpt lat="45.036292202146726" lon="11.752234810153718"><ele>5.0</ele><time>2026-04-04T13:15:35.99Z</time></trkpt><trkpt lat="45.036428694638005" lon="11.752257287055341"><ele>5.0</ele><time>2026-04-04T13:15:36.99Z</time></trkpt><trkpt lat="45.03656001915928" lon="11.75230127560309"><ele>5.0</ele><time>2026-04-04T13:15:37.991Z</time></trkpt><trkpt lat="45.03668549656061" lon="11.752372324429503"><ele>5.0</ele><time>2026-04-04T13:15:38.991Z</time></trkpt><trkpt lat="45.03680956131766" lon="11.752424112897224"><ele>5.25</ele><time>2026-04-04T13:15:39.991Z</time></trkpt><trkpt lat="45.036938452252876" lon="11.752475748959016"><ele>5.5</ele><time>2026-04-04T13:15:40.99Z</time></trkpt><trkpt lat="45.03707305339014" lon="11.752518074860324"><ele>5.75</ele><time>2026-04-04T13:15:41.991Z</time></trkpt><trkpt lat="45.0372156303965" lon="11.752551247006913"><ele>6.0</ele><time>2026-04-04T13:15:42.991Z</time></trkpt><trkpt lat="45.037358721091984" lon="11.752575381978852"><ele>5.75</ele><time>2026-04-04T13:15:43.99Z</time></trkpt><trkpt lat="45.037491130349515" lon="11.752573829594102"><ele>5.5</ele><time>2026-04-04T13:15:44.99Z</time></trkpt><trkpt lat="45.03761437452125" lon="11.752591639132069"><ele>5.25</ele><time>2026-04-04T13:15:45.99Z</time></trkpt><trkpt lat="45.037727345227594" lon="11.75262436316367"><ele>5.0</ele><time>2026-04-04T13:15:46.99Z</time></trkpt><trkpt lat="45.03783157274049" lon="11.752644240358665"><ele>5.0</ele><time>2026-04-04T13:15:47.99Z</time></trkpt><trkpt lat="45.03793650400521" lon="11.752658143847796"><ele>5.0</ele><time>2026-04-04T13:15:48.99Z</time></trkpt><trkpt lat="45.03803690780054" lon="11.75267661797988"><ele>5.0</ele><time>2026-04-04T13:15:49.99Z</time></trkpt><trkpt lat="45.03811724089809" lon="11.7526953184192"><ele>5.0</ele><time>2026-04-04T13:15:50.99Z</time></trkpt><trkpt lat="45.038199950124636" lon="11.75270972167585"><ele>5.0</ele><time>2026-04-04T13:15:51.99Z</time></trkpt><trkpt lat="45.038274839580964" lon="11.752713926238352"><ele>5.0</ele><time>2026-04-04T13:15:52.99Z</time></trkpt><trkpt lat="45.03835011638527" lon="11.75272240974381"><ele>5.166666666666667</ele><time>2026-04-04T13:15:53.99Z</time></trkpt><trkpt lat="45.03843335914702" lon="11.752727831057308"><ele>5.333333333333334</ele><time>2026-04-04T13:15:54.99Z</time></trkpt><trkpt lat="45.03851560931846" lon="11.752736315337607"><ele>5.5</ele><time>2026-04-04T13:15:55.99Z</time></trkpt><trkpt lat="45.03860344130261" lon="11.752742320678543"><ele>5.666666666666667</ele><time>2026-04-04T13:15:56.99Z</time></trkpt><trkpt lat="45.038702930912216" lon="11.752746674029652"><ele>5.833333333333333</ele><time>2026-04-04T13:15:57.99Z</time></trkpt><trkpt lat="45.03879778219479" lon="11.752750884941875"><ele>6.0</ele><time>2026-04-04T13:15:58.99Z</time></trkpt><trkpt lat="45.03889224403975" lon="11.752749659261386"><ele>6.0</ele><time>2026-04-04T13:15:59.99Z</time></trkpt><trkpt lat="45.038982318224235" lon="11.752746320404128"><ele>6.0</ele><time>2026-04-04T13:16:00.99Z</time></trkpt><trkpt lat="45.0390734450915" lon="11.752732670202068"><ele>6.0</ele><time>2026-04-04T13:16:01.99Z</time></trkpt><trkpt lat="45.039168424596795" lon="11.752712663685552"><ele>6.0</ele><time>2026-04-04T13:16:02.99Z</time></trkpt><trkpt lat="45.03927003751292" lon="11.752697254224403"><ele>6.0</ele><time>2026-04-04T13:16:03.99Z</time></trkpt><trkpt lat="45.039367279600356" lon="11.752677757563859"><ele>5.6</ele><time>2026-04-04T13:16:04.99Z</time></trkpt><trkpt lat="45.03946507915077" lon="11.752640736821307"><ele>5.199999999999999</ele><time>2026-04-04T13:16:05.99Z</time></trkpt><trkpt lat="45.039563160338375" lon="11.752614597817747"><ele>4.800000000000001</ele><time>2026-04-04T13:16:06.99Z</time></trkpt><trkpt lat="45.03965806331918" lon="11.752577404995435"><ele>4.4</ele><time>2026-04-04T13:16:07.99Z</time></trkpt><trkpt lat="45.03975343555711" lon="11.752541511609689"><ele>4.0</ele><time>2026-04-04T13:16:08.99Z</time></trkpt><trkpt lat="45.0398517185441" lon="11.752506355342431"><ele>4.0</ele><time>2026-04-04T13:16:09.99Z</time></trkpt><trkpt lat="45.03995659403521" lon="11.752464413155062"><ele>4.0</ele><time>2026-04-04T13:16:10.99Z</time></trkpt><trkpt lat="45.04006525094306" lon="11.752426778725967"><ele>4.0</ele><time>2026-04-04T13:16:11.99Z</time></trkpt><trkpt lat="45.04017505260401" lon="11.752391788915023"><ele>4.0</ele><time>2026-04-04T13:16:12.99Z</time></trkpt><trkpt lat="45.040284497624874" lon="11.752362888445717"><ele>4.0</ele><time>2026-04-04T13:16:13.99Z</time></trkpt><trkpt lat="45.040389905543954" lon="11.752339947435141"><ele>4.2</ele><time>2026-04-04T13:16:14.99Z</time></trkpt><trkpt lat="45.04049539955737" lon="11.75232826494189"><ele>4.4</ele><time>2026-04-04T13:16:15.99Z</time></trkpt><trkpt lat="45.04059949696713" lon="11.752328462664833"><ele>4.6</ele><time>2026-04-04T13:16:16.99Z</time></trkpt><trkpt lat="45.04070097314956" lon="11.752346488616343"><ele>4.8</ele><time>2026-04-04T13:16:17.99Z</time></trkpt><trkpt lat="45.040806167093734" lon="11.752364039656445"><ele>5.0</ele><time>2026-04-04T13:16:18.99Z</time></trkpt><trkpt lat="45.040908303678776" lon="11.75238307902328"><ele>5.0</ele><time>2026-04-04T13:16:19.99Z</time></trkpt><trkpt lat="45.04100711869001" lon="11.752411311746021"><ele>5.0</ele><time>2026-04-04T13:16:20.99Z</time></trkpt><trkpt lat="45.041102769720624" lon="11.752438920964709"><ele>5.0</ele><time>2026-04-04T13:16:21.99Z</time></trkpt><trkpt lat="45.041189202209345" lon="11.752470655839371"><ele>5.0</ele><time>2026-04-04T13:16:22.99Z</time></trkpt><trkpt lat="45.04127386896723" lon="11.752493358833483"><ele>5.0</ele><time>2026-04-04T13:16:23.99Z</time></trkpt><trkpt lat="45.0413586687009" lon="11.752513799572421"><ele>5.0</ele><time>2026-04-04T13:16:24.99Z</time></trkpt><trkpt lat="45.04144742121208" lon="11.7525653425691"><ele>5.0</ele><time>2026-04-04T13:16:25.99Z</time></trkpt><trkpt lat="45.04152208715477" lon="11.752590366176003"><ele>5.0</ele><time>2026-04-04T13:16:26.99Z</time></trkpt><trkpt lat="45.04159802305347" lon="11.752625876013848"><ele>5.0</ele><time>2026-04-04T13:16:27.99Z</time></trkpt><trkpt lat="45.041672902786885" lon="11.752663401392335"><ele>5.0</ele><time>2026-04-04T13:16:28.99Z</time></trkpt><trkpt lat="45.041749885838065" lon="11.752696275485091"><ele>5.0</ele><time>2026-04-04T13:16:29.99Z</time></trkpt><trkpt lat="45.04182413596971" lon="11.752726899302125"><ele>5.0</ele><time>2026-04-04T13:16:30.99Z</time></trkpt><trkpt lat="45.041925949360966" lon="11.752766343985767"><ele>5.0</ele><time>2026-04-04T13:16:32.99Z</time></trkpt><trkpt lat="45.04199012584819" lon="11.752809884668478"><ele>5.0</ele><time>2026-04-04T13:16:34.99Z</time></trkpt><trkpt lat="45.0420533741777" lon="11.752627166414912"><ele>5.0</ele><time>2026-04-04T13:16:37.989Z</time></trkpt><trkpt lat="45.04206196535132" lon="11.752457273468643"><ele>5.0</ele><time>2026-04-04T13:16:39.989Z</time></trkpt><trkpt lat="45.042073940060554" lon="11.752364664844553"><ele>5.0</ele><time>2026-04-04T13:16:40.989Z</time></trkpt><trkpt lat="45.04209020114526" lon="11.75226061785554"><ele>5.0</ele><time>2026-04-04T13:16:41.989Z</time></trkpt><trkpt lat="45.04210199844794" lon="11.752144345856928"><ele>5.0</ele><time>2026-04-04T13:16:42.989Z</time></trkpt><trkpt lat="45.04211317479852" lon="11.752036835624768"><ele>5.0</ele><time>2026-04-04T13:16:43.989Z</time></trkpt><trkpt lat="45.042121843662265" lon="11.75193218868269"><ele>5.0</ele><time>2026-04-04T13:16:44.989Z</time></trkpt><trkpt lat="45.0421209326355" lon="11.75183018268619"><ele>5.0</ele><time>2026-04-04T13:16:45.989Z</time></trkpt><trkpt lat="45.042124848729735" lon="11.75172708310933"><ele>5.166666666666667</ele><time>2026-04-04T13:16:46.989Z</time></trkpt><trkpt lat="45.04212452708849" lon="11.751614932718793"><ele>5.333333333333334</ele><time>2026-04-04T13:16:47.989Z</time></trkpt><trkpt lat="45.04211888938219" lon="11.751485980662881"><ele>5.5</ele><time>2026-04-04T13:16:48.989Z</time></trkpt><trkpt lat="45.042109819775604" lon="11.751352565136806"><ele>5.666666666666667</ele><time>2026-04-04T13:16:49.989Z</time></trkpt><trkpt lat="45.04209676502212" lon="11.751232964496307"><ele>5.833333333333333</ele><time>2026-04-04T13:16:50.989Z</time></trkpt><trkpt lat="45.042088635622555" lon="11.75112644892811"><ele>6.0</ele><time>2026-04-04T13:16:51.989Z</time></trkpt><trkpt lat="45.042077040003285" lon="11.751033020475655"><ele>6.0</ele><time>2026-04-04T13:16:52.989Z</time></trkpt><trkpt lat="45.042052373064216" lon="11.750873363608747"><ele>6.0</ele><time>2026-04-04T13:16:54.989Z</time></trkpt><trkpt lat="45.04206074624742" lon="11.750775705377444"><ele>6.0</ele><time>2026-04-04T13:16:55.989Z</time></trkpt><trkpt lat="45.042103414726405" lon="11.750662312955246"><ele>6.0</ele><time>2026-04-04T13:16:56.989Z</time></trkpt><trkpt lat="45.04215808711843" lon="11.750575297479793"><ele>6.0</ele><time>2026-04-04T13:16:57.989Z</time></trkpt><trkpt lat="45.0422087745526" lon="11.750471356138593"><ele>6.0</ele><time>2026-04-04T13:16:58.989Z</time></trkpt><trkpt lat="45.042263702149995" lon="11.750381032175019"><ele>6.0</ele><time>2026-04-04T13:16:59.989Z</time></trkpt><trkpt lat="45.04229806857926" lon="11.750267582111455"><ele>6.0</ele><time>2026-04-04T13:17:00.989Z</time></trkpt><trkpt lat="45.04232838916075" lon="11.750155612692124"><ele>6.0</ele><time>2026-04-04T13:17:01.989Z</time></trkpt><trkpt lat="45.042350099759375" lon="11.750028945030776"><ele>6.0</ele><time>2026-04-04T13:17:02.989Z</time></trkpt><trkpt lat="45.04236463327899" lon="11.749890885920463"><ele>6.0</ele><time>2026-04-04T13:17:03.989Z</time></trkpt><trkpt lat="45.04237795584096" lon="11.749752152853551"><ele>6.0</ele><time>2026-04-04T13:17:04.989Z</time></trkpt><trkpt lat="45.04239227606885" lon="11.749627012242497"><ele>6.0</ele><time>2026-04-04T13:17:05.989Z</time></trkpt><trkpt lat="45.04241204177317" lon="11.749490806894684"><ele>6.0</ele><time>2026-04-04T13:17:06.989Z</time></trkpt><trkpt lat="45.0424323176031" lon="11.749352325985782"><ele>6.0</ele><time>2026-04-04T13:17:07.989Z</time></trkpt><trkpt lat="45.042458853050746" lon="11.749208224266908"><ele>6.0</ele><time>2026-04-04T13:17:08.989Z</time></trkpt><trkpt lat="45.04248964282849" lon="11.749062022148141"><ele>5.6</ele><time>2026-04-04T13:17:09.989Z</time></trkpt><trkpt lat="45.04252388026126" lon="11.748923297205508"><ele>5.199999999999999</ele><time>2026-04-04T13:17:10.989Z</time></trkpt><trkpt lat="45.04258118204916" lon="11.74880480749968"><ele>4.800000000000001</ele><time>2026-04-04T13:17:11.989Z</time></trkpt><trkpt lat="45.04262750398604" lon="11.748680146275484"><ele>4.4</ele><time>2026-04-04T13:17:12.989Z</time></trkpt><trkpt lat="45.042675405794654" lon="11.748566551520955"><ele>4.0</ele><time>2026-04-04T13:17:13.989Z</time></trkpt><trkpt lat="45.042722867040325" lon="11.748457796093547"><ele>3.8000000000000003</ele><time>2026-04-04T13:17:14.989Z</time></trkpt><trkpt lat="45.0427724557001" lon="11.748345134002289"><ele>3.6000000000000005</ele><time>2026-04-04T13:17:15.989Z</time></trkpt><trkpt lat="45.04282978753111" lon="11.748218015490176"><ele>3.4</ele><time>2026-04-04T13:17:16.989Z</time></trkpt><trkpt lat="45.04288909921628" lon="11.748087077259834"><ele>3.2</ele><time>2026-04-04T13:17:17.989Z</time></trkpt><trkpt lat="45.04294571483695" lon="11.747964173255298"><ele>3.0</ele><time>2026-04-04T13:17:18.989Z</time></trkpt><trkpt lat="45.04300217081369" lon="11.747840155992003"><ele>3.0</ele><time>2026-04-04T13:17:19.989Z</time></trkpt><trkpt lat="45.04305706006488" lon="11.747719251969345"><ele>3.0</ele><time>2026-04-04T13:17:20.989Z</time></trkpt><trkpt lat="45.043116318797466" lon="11.747603581665999"><ele>3.0</ele><time>2026-04-04T13:17:21.989Z</time></trkpt><trkpt lat="45.0431741306431" lon="11.747481734503326"><ele>3.0</ele><time>2026-04-04T13:17:22.989Z</time></trkpt><trkpt lat="45.043232207706225" lon="11.747344112523429"><ele>3.0</ele><time>2026-04-04T13:17:23.989Z</time></trkpt><trkpt lat="45.04329663352768" lon="11.74719036856702"><ele>3.25</ele><time>2026-04-04T13:17:24.989Z</time></trkpt><trkpt lat="45.04335752812656" lon="11.74704106755736"><ele>3.5</ele><time>2026-04-04T13:17:25.989Z</time></trkpt><trkpt lat="45.04341456435247" lon="11.746904304069613"><ele>3.75</ele><time>2026-04-04T13:17:26.989Z</time></trkpt><trkpt lat="45.04347307460113" lon="11.746769102424574"><ele>4.0</ele><time>2026-04-04T13:17:27.989Z</time></trkpt><trkpt lat="45.04353233023763" lon="11.746643598873996"><ele>4.0</ele><time>2026-04-04T13:17:28.989Z</time></trkpt><trkpt lat="45.04359400375824" lon="11.746532461854262"><ele>4.0</ele><time>2026-04-04T13:17:29.989Z</time></trkpt><trkpt lat="45.04365355544567" lon="11.746428487616063"><ele>4.0</ele><time>2026-04-04T13:17:30.989Z</time></trkpt><trkpt lat="45.043706206505675" lon="11.74632787085532"><ele>4.0</ele><time>2026-04-04T13:17:31.989Z</time></trkpt><trkpt lat="45.04376142386577" lon="11.746230451837988"><ele>4.0</ele><time>2026-04-04T13:17:32.989Z</time></trkpt><trkpt lat="45.043817403470904" lon="11.746124152502393"><ele>4.0</ele><time>2026-04-04T13:17:33.989Z</time></trkpt><trkpt lat="45.04389405622449" lon="11.746031477702191"><ele>4.0</ele><time>2026-04-04T13:17:34.989Z</time></trkpt><trkpt lat="45.043959799475076" lon="11.745917077155987"><ele>4.0</ele><time>2026-04-04T13:17:35.989Z</time></trkpt><trkpt lat="45.04402373797201" lon="11.745807948321808"><ele>4.0</ele><time>2026-04-04T13:17:36.988Z</time></trkpt><trkpt lat="45.0440857143439" lon="11.745700698765983"><ele>4.0</ele><time>2026-04-04T13:17:37.99Z</time></trkpt><trkpt lat="45.04414505577084" lon="11.745598206095519"><ele>4.0</ele><time>2026-04-04T13:17:38.99Z</time></trkpt><trkpt lat="45.04420445042802" lon="11.745500153794275"><ele>4.0</ele><time>2026-04-04T13:17:39.99Z</time></trkpt><trkpt lat="45.044265732753416" lon="11.745407385442723"><ele>4.0</ele><time>2026-04-04T13:17:40.99Z</time></trkpt><trkpt lat="45.04433210021018" lon="11.745312450526356"><ele>4.0</ele><time>2026-04-04T13:17:41.99Z</time></trkpt><trkpt lat="45.04440400415766" lon="11.74521976582309"><ele>4.0</ele><time>2026-04-04T13:17:42.99Z</time></trkpt><trkpt lat="45.04448292961652" lon="11.74512427821217"><ele>4.0</ele><time>2026-04-04T13:17:43.99Z</time></trkpt><trkpt lat="45.044557763494815" lon="11.745037535112594"><ele>4.0</ele><time>2026-04-04T13:17:44.99Z</time></trkpt><trkpt lat="45.04462824666135" lon="11.744950616328072"><ele>4.0</ele><time>2026-04-04T13:17:45.99Z</time></trkpt><trkpt lat="45.04468925228928" lon="11.744860479552411"><ele>4.0</ele><time>2026-04-04T13:17:46.99Z</time></trkpt><trkpt lat="45.04474984457695" lon="11.7447632999047"><ele>4.0</ele><time>2026-04-04T13:17:47.99Z</time></trkpt><trkpt lat="45.04478978588033" lon="11.744664509744412"><ele>4.0</ele><time>2026-04-04T13:17:48.99Z</time></trkpt><trkpt lat="45.04481221388844" lon="11.74456529264492"><ele>4.0</ele><time>2026-04-04T13:17:49.99Z</time></trkpt><trkpt lat="45.04482558594437" lon="11.744445843000113"><ele>4.0</ele><time>2026-04-04T13:17:50.99Z</time></trkpt><trkpt lat="45.04483531117488" lon="11.744310170045903"><ele>4.0</ele><time>2026-04-04T13:17:51.99Z</time></trkpt><trkpt lat="45.04483892725761" lon="11.744155132973276"><ele>4.0</ele><time>2026-04-04T13:17:52.99Z</time></trkpt><trkpt lat="45.0448396517284" lon="11.743996771719457"><ele>4.0</ele><time>2026-04-04T13:17:53.99Z</time></trkpt><trkpt lat="45.04483866159107" lon="11.743840123024192"><ele>4.0</ele><time>2026-04-04T13:17:54.99Z</time></trkpt><trkpt lat="45.0448282444619" lon="11.743683634777705"><ele>4.0</ele><time>2026-04-04T13:17:55.99Z</time></trkpt><trkpt lat="45.044817347604585" lon="11.74353818441929"><ele>4.0</ele><time>2026-04-04T13:17:56.99Z</time></trkpt><trkpt lat="45.04480207714488" lon="11.74339594503841"><ele>4.0</ele><time>2026-04-04T13:17:57.99Z</time></trkpt><trkpt lat="45.044787232874384" lon="11.743262667301522"><ele>3.9999999999999996</ele><time>2026-04-04T13:17:58.99Z</time></trkpt><trkpt lat="45.04477541046782" lon="11.743132046599298"><ele>4.0</ele><time>2026-04-04T13:17:59.99Z</time></trkpt><trkpt lat="45.04476588801221" lon="11.743010601821899"><ele>4.0</ele><time>2026-04-04T13:18:00.99Z</time></trkpt><trkpt lat="45.044755817515984" lon="11.742899004966478"><ele>4.0</ele><time>2026-04-04T13:18:01.99Z</time></trkpt><trkpt lat="45.04474896253423" lon="11.742790287442407"><ele>3.9999999999999996</ele><time>2026-04-04T13:18:02.99Z</time></trkpt><trkpt lat="45.04474676789242" lon="11.74263083570455"><ele>4.0</ele><time>2026-04-04T13:18:04.99Z</time></trkpt><trkpt lat="45.04474110515358" lon="11.742506109531229"><ele>4.142857142857142</ele><time>2026-04-04T13:18:06.99Z</time></trkpt><trkpt lat="45.044738970354636" lon="11.742412136701962"><ele>4.285714285714286</ele><time>2026-04-04T13:18:09.99Z</time></trkpt><trkpt lat="45.04474766156258" lon="11.742319082031887"><ele>4.428571428571429</ele><time>2026-04-04T13:18:53.989Z</time></trkpt><trkpt lat="45.044753341633445" lon="11.742219986287765"><ele>4.571428571428571</ele><time>2026-04-04T13:18:55.989Z</time></trkpt><trkpt lat="45.044760291367645" lon="11.74211883897594"><ele>4.714285714285714</ele><time>2026-04-04T13:18:57.989Z</time></trkpt><trkpt lat="45.04478082526689" lon="11.742005812990723"><ele>4.857142857142857</ele><time>2026-04-04T13:18:59.989Z</time></trkpt><trkpt lat="45.044819517908806" lon="11.74192055691941"><ele>5.0</ele><time>2026-04-04T13:19:02.989Z</time></trkpt><trkpt lat="45.04488179109416" lon="11.741972738174242"><ele>5.0</ele><time>2026-04-04T13:19:04.989Z</time></trkpt><trkpt lat="45.04492327320231" lon="11.742085647287134"><ele>5.0</ele><time>2026-04-04T13:19:06.989Z</time></trkpt><trkpt lat="45.04502341368005" lon="11.742253648506656"><ele>5.0</ele><time>2026-04-04T13:19:08.989Z</time></trkpt><trkpt lat="45.04509489863807" lon="11.742376896506897"><ele>5.0</ele><time>2026-04-04T13:19:09.989Z</time></trkpt><trkpt lat="45.0451714220312" lon="11.742512591220624"><ele>4.75</ele><time>2026-04-04T13:19:10.989Z</time></trkpt><trkpt lat="45.045254090656144" lon="11.74265697273402"><ele>4.5</ele><time>2026-04-04T13:19:11.989Z</time></trkpt><trkpt lat="45.04534026279835" lon="11.74281548445587"><ele>4.25</ele><time>2026-04-04T13:19:12.989Z</time></trkpt><trkpt lat="45.045432706489514" lon="11.742976114315459"><ele>4.0</ele><time>2026-04-04T13:19:13.989Z</time></trkpt><trkpt lat="45.045525564871745" lon="11.743142531782913"><ele>4.0</ele><time>2026-04-04T13:19:14.989Z</time></trkpt><trkpt lat="45.045627270163145" lon="11.743326947422059"><ele>4.0</ele><time>2026-04-04T13:19:15.989Z</time></trkpt><trkpt lat="45.04573503949279" lon="11.7435211931442"><ele>4.0</ele><time>2026-04-04T13:19:16.989Z</time></trkpt><trkpt lat="45.045846838192595" lon="11.743715452144956"><ele>3.6666666666666665</ele><time>2026-04-04T13:19:17.989Z</time></trkpt><trkpt lat="45.045963571864405" lon="11.743912579497415"><ele>3.333333333333333</ele><time>2026-04-04T13:19:18.989Z</time></trkpt><trkpt lat="45.04607749027232" lon="11.74410479782927"><ele>3.0</ele><time>2026-04-04T13:19:19.989Z</time></trkpt><trkpt lat="45.04619952036372" lon="11.744304836038237"><ele>2.6666666666666665</ele><time>2026-04-04T13:19:20.989Z</time></trkpt><trkpt lat="45.04632530643908" lon="11.744511939957048"><ele>2.333333333333333</ele><time>2026-04-04T13:19:21.988Z</time></trkpt><trkpt lat="45.046442728630495" lon="11.744720602975772"><ele>2.0</ele><time>2026-04-04T13:19:22.988Z</time></trkpt><trkpt lat="45.04654759168418" lon="11.744935907606159"><ele>2.0</ele><time>2026-04-04T13:19:23.988Z</time></trkpt><trkpt lat="45.046672395700575" lon="11.745122654906313"><ele>2.0</ele><time>2026-04-04T13:19:24.988Z</time></trkpt><trkpt lat="45.04678157861163" lon="11.745320945581659"><ele>2.0</ele><time>2026-04-04T13:19:25.988Z</time></trkpt><trkpt lat="45.0468912173184" lon="11.745513391408638"><ele>1.6666666666666665</ele><time>2026-04-04T13:19:26.988Z</time></trkpt><trkpt lat="45.04700090512403" lon="11.745706311914088"><ele>1.3333333333333333</ele><time>2026-04-04T13:19:27.988Z</time></trkpt><trkpt lat="45.047109975834445" lon="11.745896751421672"><ele>1.0</ele><time>2026-04-04T13:19:28.988Z</time></trkpt><trkpt lat="45.04721941028398" lon="11.746085373926528"><ele>1.6666666666666665</ele><time>2026-04-04T13:19:29.988Z</time></trkpt><trkpt lat="45.04732793089888" lon="11.746265020946423"><ele>2.3333333333333335</ele><time>2026-04-04T13:19:30.988Z</time></trkpt><trkpt lat="45.04742683981526" lon="11.746436401499793"><ele>3.0</ele><time>2026-04-04T13:19:31.988Z</time></trkpt><trkpt lat="45.04751904562176" lon="11.74659916192401"><ele>3.25</ele><time>2026-04-04T13:19:32.988Z</time></trkpt><trkpt lat="45.047606575183565" lon="11.74675578591286"><ele>3.5</ele><time>2026-04-04T13:19:33.988Z</time></trkpt><trkpt lat="45.04769335995931" lon="11.746904523293308"><ele>3.75</ele><time>2026-04-04T13:19:34.988Z</time></trkpt><trkpt lat="45.04776955043677" lon="11.747047161255118"><ele>4.0</ele><time>2026-04-04T13:19:35.988Z</time></trkpt><trkpt lat="45.047846857667075" lon="11.74717604921617"><ele>4.0</ele><time>2026-04-04T13:19:36.988Z</time></trkpt><trkpt lat="45.047929986760856" lon="11.74730633157898"><ele>4.0</ele><time>2026-04-04T13:19:37.988Z</time></trkpt><trkpt lat="45.04801210812002" lon="11.747440015360064"><ele>4.0</ele><time>2026-04-04T13:19:38.988Z</time></trkpt><trkpt lat="45.04809494611658" lon="11.74758444378528"><ele>4.0</ele><time>2026-04-04T13:19:39.988Z</time></trkpt><trkpt lat="45.04818072728492" lon="11.74773247737675"><ele>3.6666666666666665</ele><time>2026-04-04T13:19:40.988Z</time></trkpt><trkpt lat="45.04827597852139" lon="11.747886507539585"><ele>3.333333333333333</ele><time>2026-04-04T13:19:41.988Z</time></trkpt><trkpt lat="45.048371665016205" lon="11.748051761426291"><ele>3.0</ele><time>2026-04-04T13:19:42.988Z</time></trkpt><trkpt lat="45.04847285233819" lon="11.748222699015832"><ele>2.3333333333333335</ele><time>2026-04-04T13:19:43.99Z</time></trkpt><trkpt lat="45.04857565211263" lon="11.748396849874892"><ele>1.6666666666666665</ele><time>2026-04-04T13:19:44.99Z</time></trkpt><trkpt lat="45.048678268365464" lon="11.748567694050864"><ele>1.0</ele><time>2026-04-04T13:19:45.99Z</time></trkpt><trkpt lat="45.04877518657826" lon="11.748729613623121"><ele>1.0</ele><time>2026-04-04T13:19:46.99Z</time></trkpt><trkpt lat="45.048875471230126" lon="11.748877226998175"><ele>1.0</ele><time>2026-04-04T13:19:47.99Z</time></trkpt><trkpt lat="45.04898902686392" lon="11.749004068506519"><ele>1.0</ele><time>2026-04-04T13:19:48.99Z</time></trkpt><trkpt lat="45.049112191370504" lon="11.749108411786334"><ele>1.0</ele><time>2026-04-04T13:19:49.99Z</time></trkpt><trkpt lat="45.04924905489794" lon="11.749177253600042"><ele>1.0</ele><time>2026-04-04T13:19:50.99Z</time></trkpt><trkpt lat="45.049386337100614" lon="11.749238159976935"><ele>1.0</ele><time>2026-04-04T13:19:51.99Z</time></trkpt><trkpt lat="45.04952569349469" lon="11.749297296625436"><ele>1.0</ele><time>2026-04-04T13:19:52.989Z</time></trkpt><trkpt lat="45.049658842409244" lon="11.749353846365503"><ele>1.0</ele><time>2026-04-04T13:19:53.99Z</time></trkpt><trkpt lat="45.04978544985033" lon="11.749408775774482"><ele>1.0</ele><time>2026-04-04T13:19:54.99Z</time></trkpt><trkpt lat="45.049905333221574" lon="11.74946609780194"><ele>1.0</ele><time>2026-04-04T13:19:55.989Z</time></trkpt><trkpt lat="45.05002240277232" lon="11.749520432187143"><ele>1.0</ele><time>2026-04-04T13:19:56.99Z</time></trkpt><trkpt lat="45.050134486787" lon="11.749568861351964"><ele>1.0</ele><time>2026-04-04T13:19:57.99Z</time></trkpt><trkpt lat="45.050245785887185" lon="11.749626860680687"><ele>1.25</ele><time>2026-04-04T13:19:58.99Z</time></trkpt><trkpt lat="45.05034087682949" lon="11.749708209016429"><ele>1.5</ele><time>2026-04-04T13:19:59.99Z</time></trkpt><trkpt lat="45.05043118080443" lon="11.749813440333199"><ele>1.75</ele><time>2026-04-04T13:20:00.99Z</time></trkpt><trkpt lat="45.05050096516755" lon="11.74997881549802"><ele>2.0</ele><time>2026-04-04T13:20:01.989Z</time></trkpt><trkpt lat="45.05057744057992" lon="11.750142398274502"><ele>1.75</ele><time>2026-04-04T13:20:02.989Z</time></trkpt><trkpt lat="45.050650953236165" lon="11.75031891995793"><ele>1.5</ele><time>2026-04-04T13:20:03.989Z</time></trkpt><trkpt lat="45.05073676818211" lon="11.750492382314151"><ele>1.25</ele><time>2026-04-04T13:20:04.989Z</time></trkpt><trkpt lat="45.05081862902218" lon="11.750656055860581"><ele>1.0</ele><time>2026-04-04T13:20:05.989Z</time></trkpt><trkpt lat="45.05091220327379" lon="11.750839903146312"><ele>1.0</ele><time>2026-04-04T13:20:06.989Z</time></trkpt><trkpt lat="45.051002801645325" lon="11.751018872340175"><ele>1.0</ele><time>2026-04-04T13:20:07.989Z</time></trkpt><trkpt lat="45.051092355992225" lon="11.751189658605707"><ele>1.0</ele><time>2026-04-04T13:20:08.989Z</time></trkpt><trkpt lat="45.05118304948932" lon="11.75136317839922"><ele>1.25</ele><time>2026-04-04T13:20:09.989Z</time></trkpt><trkpt lat="45.051272477043554" lon="11.751536767397027"><ele>1.5</ele><time>2026-04-04T13:20:10.989Z</time></trkpt><trkpt lat="45.05136242562367" lon="11.751702811040616"><ele>1.75</ele><time>2026-04-04T13:20:11.989Z</time></trkpt><trkpt lat="45.051446858594254" lon="11.751863878082052"><ele>2.0</ele><time>2026-04-04T13:20:12.989Z</time></trkpt><trkpt lat="45.05152784249051" lon="11.75202985467656"><ele>2.25</ele><time>2026-04-04T13:20:13.989Z</time></trkpt><trkpt lat="45.05161045175995" lon="11.752198699303934"><ele>2.5</ele><time>2026-04-04T13:20:14.989Z</time></trkpt><trkpt lat="45.0516964250002" lon="11.752368818441136"><ele>2.75</ele><time>2026-04-04T13:20:15.989Z</time></trkpt><trkpt lat="45.05178284587185" lon="11.752531104324186"><ele>3.0</ele><time>2026-04-04T13:20:16.989Z</time></trkpt><trkpt lat="45.05186406281993" lon="11.752694528428611"><ele>2.5</ele><time>2026-04-04T13:20:17.989Z</time></trkpt><trkpt lat="45.05195373465211" lon="11.75286339998968"><ele>2.0</ele><time>2026-04-04T13:20:18.989Z</time></trkpt><trkpt lat="45.05203250976814" lon="11.753030842058546"><ele>1.5</ele><time>2026-04-04T13:20:19.989Z</time></trkpt><trkpt lat="45.05209951253779" lon="11.753215152809473"><ele>1.0</ele><time>2026-04-04T13:20:20.989Z</time></trkpt><trkpt lat="45.052147524985934" lon="11.753424295987656"><ele>1.0</ele><time>2026-04-04T13:20:21.989Z</time></trkpt><trkpt lat="45.052164266784416" lon="11.753642931332697"><ele>1.0</ele><time>2026-04-04T13:20:22.989Z</time></trkpt><trkpt lat="45.05219664428154" lon="11.753862538573498"><ele>1.0</ele><time>2026-04-04T13:20:23.989Z</time></trkpt><trkpt lat="45.05222638697678" lon="11.754064274790771"><ele>1.0</ele><time>2026-04-04T13:20:24.989Z</time></trkpt><trkpt lat="45.05225510722676" lon="11.754265317583513"><ele>1.0</ele><time>2026-04-04T13:20:25.989Z</time></trkpt><trkpt lat="45.052282401707416" lon="11.754463263794781"><ele>1.0</ele><time>2026-04-04T13:20:26.989Z</time></trkpt><trkpt lat="45.05230867497725" lon="11.754660784100007"><ele>1.0</ele><time>2026-04-04T13:20:27.989Z</time></trkpt><trkpt lat="45.05234275597601" lon="11.754864430542458"><ele>0.75</ele><time>2026-04-04T13:20:28.989Z</time></trkpt><trkpt lat="45.052391649465555" lon="11.755066105299475"><ele>0.5</ele><time>2026-04-04T13:20:29.989Z</time></trkpt><trkpt lat="45.05246994829653" lon="11.755245102296415"><ele>0.25</ele><time>2026-04-04T13:20:30.989Z</time></trkpt><trkpt lat="45.05254783537277" lon="11.755419128519586"><ele>0.0</ele><time>2026-04-04T13:20:31.989Z</time></trkpt><trkpt lat="45.05262489189499" lon="11.755577257528113"><ele>0.0</ele><time>2026-04-04T13:20:32.989Z</time></trkpt><trkpt lat="45.0527079580831" lon="11.75573661494019"><ele>0.0</ele><time>2026-04-04T13:20:33.989Z</time></trkpt><trkpt lat="45.0527958776676" lon="11.755891082427704"><ele>0.0</ele><time>2026-04-04T13:20:34.989Z</time></trkpt><trkpt lat="45.05288764589565" lon="11.756041424777848"><ele>0.0</ele><time>2026-04-04T13:20:35.989Z</time></trkpt><trkpt lat="45.05298695454765" lon="11.756189536184834"><ele>0.3333333333333333</ele><time>2026-04-04T13:20:36.989Z</time></trkpt><trkpt lat="45.05308965827703" lon="11.75633579081533"><ele>0.6666666666666666</ele><time>2026-04-04T13:20:37.989Z</time></trkpt><trkpt lat="45.053194105455134" lon="11.756487621346091"><ele>1.0</ele><time>2026-04-04T13:20:38.989Z</time></trkpt><trkpt lat="45.0533009854576" lon="11.756660898333053"><ele>1.0</ele><time>2026-04-04T13:20:39.989Z</time></trkpt><trkpt lat="45.05339962382755" lon="11.75684033394167"><ele>1.0</ele><time>2026-04-04T13:20:40.989Z</time></trkpt><trkpt lat="45.05349977089956" lon="11.757018420941845"><ele>1.0</ele><time>2026-04-04T13:20:41.989Z</time></trkpt><trkpt lat="45.053594756052966" lon="11.757189905203884"><ele>0.6666666666666666</ele><time>2026-04-04T13:20:42.989Z</time></trkpt><trkpt lat="45.053690411912875" lon="11.757367685510832"><ele>0.3333333333333333</ele><time>2026-04-04T13:20:43.989Z</time></trkpt><trkpt lat="45.0537853336842" lon="11.757543747186949"><ele>0.0</ele><time>2026-04-04T13:20:44.989Z</time></trkpt><trkpt lat="45.05388952825407" lon="11.757717281195257"><ele>0.0</ele><time>2026-04-04T13:20:45.989Z</time></trkpt><trkpt lat="45.05397654592527" lon="11.757892157160201"><ele>0.0</ele><time>2026-04-04T13:20:46.989Z</time></trkpt><trkpt lat="45.05407310325782" lon="11.758058242859605"><ele>0.0</ele><time>2026-04-04T13:20:47.989Z</time></trkpt><trkpt lat="45.054162688940146" lon="11.758222073463719"><ele>0.0</ele><time>2026-04-04T13:20:48.989Z</time></trkpt><trkpt lat="45.05425329208453" lon="11.758381927275856"><ele>0.0</ele><time>2026-04-04T13:20:49.989Z</time></trkpt><trkpt lat="45.05434220951638" lon="11.758540196114165"><ele>0.0</ele><time>2026-04-04T13:20:50.989Z</time></trkpt><trkpt lat="45.05443116380851" lon="11.75869470455012"><ele>0.0</ele><time>2026-04-04T13:20:51.989Z</time></trkpt><trkpt lat="45.0545257652039" lon="11.758860263573885"><ele>0.0</ele><time>2026-04-04T13:20:52.989Z</time></trkpt><trkpt lat="45.054616811492124" lon="11.759016800450224"><ele>0.0</ele><time>2026-04-04T13:20:53.989Z</time></trkpt><trkpt lat="45.05471619106951" lon="11.75917974601521"><ele>0.0</ele><time>2026-04-04T13:20:54.989Z</time></trkpt><trkpt lat="45.054807503386606" lon="11.75934505266412"><ele>0.0</ele><time>2026-04-04T13:20:55.989Z</time></trkpt><trkpt lat="45.05490086487195" lon="11.7595082932532"><ele>0.0</ele><time>2026-04-04T13:20:56.989Z</time></trkpt><trkpt lat="45.05499466051527" lon="11.759678924601607"><ele>0.3333333333333333</ele><time>2026-04-04T13:20:57.989Z</time></trkpt><trkpt lat="45.055088272324554" lon="11.759850069266793"><ele>0.6666666666666666</ele><time>2026-04-04T13:20:58.989Z</time></trkpt><trkpt lat="45.055183902086476" lon="11.760015504041194"><ele>1.0</ele><time>2026-04-04T13:20:59.989Z</time></trkpt><trkpt lat="45.055279345798816" lon="11.760179393400584"><ele>1.0</ele><time>2026-04-04T13:21:00.989Z</time></trkpt><trkpt lat="45.055366665007355" lon="11.760339055250265"><ele>1.0</ele><time>2026-04-04T13:21:01.989Z</time></trkpt><trkpt lat="45.055456152929914" lon="11.760495641753623"><ele>1.0</ele><time>2026-04-04T13:21:02.989Z</time></trkpt><trkpt lat="45.05554642255762" lon="11.760648694246784"><ele>1.0</ele><time>2026-04-04T13:21:03.988Z</time></trkpt><trkpt lat="45.05563108111" lon="11.760798996760668"><ele>1.0</ele><time>2026-04-04T13:21:04.988Z</time></trkpt><trkpt lat="45.05571655144419" lon="11.760955008474092"><ele>1.0</ele><time>2026-04-04T13:21:05.988Z</time></trkpt><trkpt lat="45.055808522798706" lon="11.761100793465875"><ele>1.0</ele><time>2026-04-04T13:21:06.988Z</time></trkpt><trkpt lat="45.05589157271824" lon="11.761258047703745"><ele>1.0</ele><time>2026-04-04T13:21:07.988Z</time></trkpt><trkpt lat="45.05597381686462" lon="11.761410660692503"><ele>1.0</ele><time>2026-04-04T13:21:08.988Z</time></trkpt><trkpt lat="45.056058084910845" lon="11.761561777947035"><ele>1.0</ele><time>2026-04-04T13:21:09.988Z</time></trkpt><trkpt lat="45.05614876979793" lon="11.761725207708935"><ele>1.0</ele><time>2026-04-04T13:21:10.988Z</time></trkpt><trkpt lat="45.056238330251325" lon="11.76189074432046"><ele>1.0</ele><time>2026-04-04T13:21:11.988Z</time></trkpt><trkpt lat="45.056326703030166" lon="11.762052507193546"><ele>0.6666666666666666</ele><time>2026-04-04T13:21:12.988Z</time></trkpt><trkpt lat="45.05642253294762" lon="11.762212080310976"><ele>0.3333333333333333</ele><time>2026-04-04T13:21:13.988Z</time></trkpt><trkpt lat="45.056515153686874" lon="11.762386748470155"><ele>0.0</ele><time>2026-04-04T13:21:14.988Z</time></trkpt><trkpt lat="45.05661467496143" lon="11.762556547605053"><ele>0.6666666666666666</ele><time>2026-04-04T13:21:15.988Z</time></trkpt><trkpt lat="45.056711527753926" lon="11.762728895720533"><ele>1.3333333333333333</ele><time>2026-04-04T13:21:16.988Z</time></trkpt><trkpt lat="45.05680839874255" lon="11.76290178010627"><ele>2.0</ele><time>2026-04-04T13:21:17.988Z</time></trkpt><trkpt lat="45.0569027099742" lon="11.763059858747582"><ele>2.0</ele><time>2026-04-04T13:21:18.988Z</time></trkpt><trkpt lat="45.056998678165" lon="11.763222883479829"><ele>2.0</ele><time>2026-04-04T13:21:19.988Z</time></trkpt><trkpt lat="45.057095448128095" lon="11.763382351939834"><ele>2.0</ele><time>2026-04-04T13:21:20.988Z</time></trkpt><trkpt lat="45.05718531540565" lon="11.763549834054649"><ele>2.0</ele><time>2026-04-04T13:21:21.988Z</time></trkpt><trkpt lat="45.057283081694564" lon="11.763713027183892"><ele>2.0</ele><time>2026-04-04T13:21:22.988Z</time></trkpt><trkpt lat="45.057374044258296" lon="11.763878817644146"><ele>2.0</ele><time>2026-04-04T13:21:23.988Z</time></trkpt><trkpt lat="45.05747064906259" lon="11.764045921380461"><ele>2.0</ele><time>2026-04-04T13:21:24.988Z</time></trkpt><trkpt lat="45.057569193302115" lon="11.764200047142559"><ele>2.0</ele><time>2026-04-04T13:21:25.988Z</time></trkpt><trkpt lat="45.05765557233288" lon="11.76435629013323"><ele>2.0</ele><time>2026-04-04T13:21:26.988Z</time></trkpt><trkpt lat="45.057739600716026" lon="11.764507547991952"><ele>2.0</ele><time>2026-04-04T13:21:27.988Z</time></trkpt><trkpt lat="45.05783953023276" lon="11.764665942145689"><ele>2.0</ele><time>2026-04-04T13:21:28.988Z</time></trkpt><trkpt lat="45.05793881438147" lon="11.764824661764635"><ele>2.0</ele><time>2026-04-04T13:21:29.988Z</time></trkpt><trkpt lat="45.05802918169322" lon="11.764984489828135"><ele>2.0</ele><time>2026-04-04T13:21:30.988Z</time></trkpt><trkpt lat="45.05811628685173" lon="11.765140004242943"><ele>2.0</ele><time>2026-04-04T13:21:31.988Z</time></trkpt><trkpt lat="45.058204872684406" lon="11.7652975043083"><ele>2.0</ele><time>2026-04-04T13:21:32.988Z</time></trkpt><trkpt lat="45.058301650244175" lon="11.76546039086988"><ele>2.0</ele><time>2026-04-04T13:21:33.988Z</time></trkpt><trkpt lat="45.0583974084784" lon="11.765633841942181"><ele>2.0</ele><time>2026-04-04T13:21:34.988Z</time></trkpt><trkpt lat="45.05849481283704" lon="11.765801421391338"><ele>2.0</ele><time>2026-04-04T13:21:35.988Z</time></trkpt><trkpt lat="45.05858994713197" lon="11.765964931495727"><ele>2.0</ele><time>2026-04-04T13:21:36.988Z</time></trkpt><trkpt lat="45.05866880605145" lon="11.766138443723143"><ele>2.0</ele><time>2026-04-04T13:21:37.988Z</time></trkpt><trkpt lat="45.058772826188196" lon="11.766283502431847"><ele>1.75</ele><time>2026-04-04T13:21:38.988Z</time></trkpt><trkpt lat="45.05885809502496" lon="11.766439028124383"><ele>1.5</ele><time>2026-04-04T13:21:39.988Z</time></trkpt><trkpt lat="45.05894427070798" lon="11.766594071927935"><ele>1.25</ele><time>2026-04-04T13:21:40.988Z</time></trkpt><trkpt lat="45.05903485049057" lon="11.76675099640685"><ele>1.0</ele><time>2026-04-04T13:21:41.988Z</time></trkpt><trkpt lat="45.05911476333394" lon="11.76692624078646"><ele>0.5</ele><time>2026-04-04T13:21:42.988Z</time></trkpt><trkpt lat="45.059203656930485" lon="11.767083898287286"><ele>0.0</ele><time>2026-04-04T13:21:43.988Z</time></trkpt><trkpt lat="45.05929248870947" lon="11.767238331663084"><ele>-0.5</ele><time>2026-04-04T13:21:44.988Z</time></trkpt><trkpt lat="45.05938039447007" lon="11.767390129219361"><ele>-1.0</ele><time>2026-04-04T13:21:45.988Z</time></trkpt><trkpt lat="45.059471138465035" lon="11.767546985414914"><ele>-1.0</ele><time>2026-04-04T13:21:46.988Z</time></trkpt><trkpt lat="45.05956004953918" lon="11.767704313776424"><ele>-1.0</ele><time>2026-04-04T13:21:47.988Z</time></trkpt><trkpt lat="45.05964757658591" lon="11.767859193517086"><ele>-1.0</ele><time>2026-04-04T13:21:48.988Z</time></trkpt><trkpt lat="45.05973492044216" lon="11.768013749205384"><ele>-1.0</ele><time>2026-04-04T13:21:49.989Z</time></trkpt><trkpt lat="45.05981688016981" lon="11.768158777264798"><ele>-1.0</ele><time>2026-04-04T13:21:50.989Z</time></trkpt><trkpt lat="45.0598961228535" lon="11.768298997505003"><ele>-1.0</ele><time>2026-04-04T13:21:51.989Z</time></trkpt><trkpt lat="45.05995903884969" lon="11.768433985837158"><ele>-1.0</ele><time>2026-04-04T13:21:52.988Z</time></trkpt><trkpt lat="45.06003949935339" lon="11.768575388159238"><ele>-1.0</ele><time>2026-04-04T13:21:53.989Z</time></trkpt><trkpt lat="45.060125841537186" lon="11.768716092731458"><ele>0.75</ele><time>2026-04-04T13:21:54.989Z</time></trkpt><trkpt lat="45.06020668397888" lon="11.768854033930166"><ele>2.5</ele><time>2026-04-04T13:21:55.989Z</time></trkpt><trkpt lat="45.06028465706925" lon="11.76898848236834"><ele>4.25</ele><time>2026-04-04T13:21:56.989Z</time></trkpt><trkpt lat="45.060360629215616" lon="11.769120121372197"><ele>6.0</ele><time>2026-04-04T13:21:57.989Z</time></trkpt><trkpt lat="45.06043636543506" lon="11.769249710297867"><ele>5.25</ele><time>2026-04-04T13:21:58.989Z</time></trkpt><trkpt lat="45.06051652245949" lon="11.769382601061995"><ele>4.5</ele><time>2026-04-04T13:21:59.989Z</time></trkpt><trkpt lat="45.0605933693492" lon="11.76952451681529"><ele>3.75</ele><time>2026-04-04T13:22:00.989Z</time></trkpt><trkpt lat="45.06067792171348" lon="11.76966791540042"><ele>3.0</ele><time>2026-04-04T13:22:01.989Z</time></trkpt><trkpt lat="45.06076582543333" lon="11.769824389902197"><ele>3.0</ele><time>2026-04-04T13:22:02.989Z</time></trkpt><trkpt lat="45.06086063937318" lon="11.769995250290322"><ele>3.0</ele><time>2026-04-04T13:22:03.989Z</time></trkpt><trkpt lat="45.06096747872904" lon="11.770170437799651"><ele>3.0</ele><time>2026-04-04T13:22:04.989Z</time></trkpt><trkpt lat="45.061073432907364" lon="11.77033196075354"><ele>3.0</ele><time>2026-04-04T13:22:05.989Z</time></trkpt><trkpt lat="45.061170032346226" lon="11.770499245833749"><ele>3.0</ele><time>2026-04-04T13:22:06.989Z</time></trkpt><trkpt lat="45.061262408454525" lon="11.770662469343597"><ele>3.0</ele><time>2026-04-04T13:22:07.989Z</time></trkpt><trkpt lat="45.0613576932265" lon="11.770821170032495"><ele>3.0</ele><time>2026-04-04T13:22:08.989Z</time></trkpt><trkpt lat="45.061435918827186" lon="11.770992959647925"><ele>2.75</ele><time>2026-04-04T13:22:09.989Z</time></trkpt><trkpt lat="45.06152933933086" lon="11.771154274707778"><ele>2.5</ele><time>2026-04-04T13:22:10.988Z</time></trkpt><trkpt lat="45.06160218351664" lon="11.771309741608412"><ele>2.25</ele><time>2026-04-04T13:22:11.988Z</time></trkpt><trkpt lat="45.06169429319077" lon="11.771466508153209"><ele>2.0</ele><time>2026-04-04T13:22:12.988Z</time></trkpt><trkpt lat="45.06178465286423" lon="11.77161999783369"><ele>2.0</ele><time>2026-04-04T13:22:13.988Z</time></trkpt><trkpt lat="45.061867401526605" lon="11.771765702514374"><ele>2.0</ele><time>2026-04-04T13:22:14.988Z</time></trkpt><trkpt lat="45.061959773265805" lon="11.771925497268283"><ele>2.0</ele><time>2026-04-04T13:22:15.988Z</time></trkpt><trkpt lat="45.06205003585395" lon="11.77208172553094"><ele>2.0</ele><time>2026-04-04T13:22:16.988Z</time></trkpt><trkpt lat="45.06213604630039" lon="11.772233000698245"><ele>2.0</ele><time>2026-04-04T13:22:17.988Z</time></trkpt><trkpt lat="45.06221827076098" lon="11.772377380932028"><ele>2.0</ele><time>2026-04-04T13:22:18.988Z</time></trkpt><trkpt lat="45.06229209440251" lon="11.772505070849336"><ele>2.0</ele><time>2026-04-04T13:22:19.988Z</time></trkpt><trkpt lat="45.06235070007476" lon="11.772620379067764"><ele>2.0</ele><time>2026-04-04T13:22:20.988Z</time></trkpt><trkpt lat="45.0624044276463" lon="11.772712359097653"><ele>2.0</ele><time>2026-04-04T13:22:21.988Z</time></trkpt><trkpt lat="45.062445860733796" lon="11.772789552503712"><ele>1.8333333333333333</ele><time>2026-04-04T13:22:22.988Z</time></trkpt><trkpt lat="45.062504981322256" lon="11.77288175650301"><ele>1.6666666666666665</ele><time>2026-04-04T13:22:24.988Z</time></trkpt><trkpt lat="45.062519602798076" lon="11.77301775664677"><ele>1.5</ele><time>2026-04-04T13:22:27.988Z</time></trkpt><trkpt lat="45.06252860110344" lon="11.773172496652187"><ele>1.3333333333333333</ele><time>2026-04-04T13:22:29.988Z</time></trkpt><trkpt lat="45.06255198582992" lon="11.77326911195161"><ele>1.1666666666666665</ele><time>2026-04-04T13:22:30.988Z</time></trkpt><trkpt lat="45.06259367863954" lon="11.77335165917532"><ele>1.0</ele><time>2026-04-04T13:22:31.988Z</time></trkpt><trkpt lat="45.062663442073934" lon="11.773408734131877"><ele>1.0</ele><time>2026-04-04T13:22:32.988Z</time></trkpt><trkpt lat="45.06276537085816" lon="11.773440513844632"><ele>1.0</ele><time>2026-04-04T13:22:33.988Z</time></trkpt><trkpt lat="45.06287950679887" lon="11.773501192110189"><ele>1.0</ele><time>2026-04-04T13:22:34.988Z</time></trkpt><trkpt lat="45.062968100042994" lon="11.773609913235854"><ele>1.0</ele><time>2026-04-04T13:22:35.988Z</time></trkpt><trkpt lat="45.06304627228096" lon="11.773740075404355"><ele>1.0</ele><time>2026-04-04T13:22:36.988Z</time></trkpt><trkpt lat="45.0631295892595" lon="11.773849525670801"><ele>1.0</ele><time>2026-04-04T13:22:37.988Z</time></trkpt><trkpt lat="45.06322330737609" lon="11.773967917606328"><ele>1.0</ele><time>2026-04-04T13:22:38.988Z</time></trkpt><trkpt lat="45.063314793620705" lon="11.774088635129003"><ele>1.0</ele><time>2026-04-04T13:22:39.988Z</time></trkpt><trkpt lat="45.06340639953089" lon="11.774206634719713"><ele>1.25</ele><time>2026-04-04T13:22:40.988Z</time></trkpt><trkpt lat="45.06349902740817" lon="11.774325525463007"><ele>1.5</ele><time>2026-04-04T13:22:41.988Z</time></trkpt><trkpt lat="45.0635923088368" lon="11.774444790427124"><ele>1.75</ele><time>2026-04-04T13:22:42.988Z</time></trkpt><trkpt lat="45.06368793333254" lon="11.774554596688652"><ele>2.0</ele><time>2026-04-04T13:22:43.988Z</time></trkpt><trkpt lat="45.06374897522287" lon="11.774692788936035"><ele>2.0</ele><time>2026-04-04T13:22:44.988Z</time></trkpt><trkpt lat="45.06385560825458" lon="11.774811573971137"><ele>2.0</ele><time>2026-04-04T13:22:45.988Z</time></trkpt><trkpt lat="45.063965469909064" lon="11.774924058439044"><ele>2.0</ele><time>2026-04-04T13:22:46.988Z</time></trkpt><trkpt lat="45.064070462959926" lon="11.775032367698003"><ele>2.0</ele><time>2026-04-04T13:22:47.988Z</time></trkpt><trkpt lat="45.0641669256195" lon="11.775146047766688"><ele>2.25</ele><time>2026-04-04T13:22:48.988Z</time></trkpt><trkpt lat="45.064250637877805" lon="11.775273735802353"><ele>2.5</ele><time>2026-04-04T13:22:49.988Z</time></trkpt><trkpt lat="45.0643455034659" lon="11.775419153679033"><ele>2.75</ele><time>2026-04-04T13:22:50.988Z</time></trkpt><trkpt lat="45.06444694200424" lon="11.77557569602008"><ele>3.0</ele><time>2026-04-04T13:22:51.988Z</time></trkpt><trkpt lat="45.06454420506351" lon="11.775732215868706"><ele>3.0</ele><time>2026-04-04T13:22:52.988Z</time></trkpt><trkpt lat="45.06463582892085" lon="11.775880045637129"><ele>3.0</ele><time>2026-04-04T13:22:53.988Z</time></trkpt><trkpt lat="45.06472753990417" lon="11.776014221191629"><ele>3.0</ele><time>2026-04-04T13:22:54.988Z</time></trkpt><trkpt lat="45.06481755382872" lon="11.776138030740716"><ele>3.0</ele><time>2026-04-04T13:22:55.988Z</time></trkpt><trkpt lat="45.06491212714803" lon="11.776253478143273"><ele>2.5</ele><time>2026-04-04T13:22:56.988Z</time></trkpt><trkpt lat="45.06500426388117" lon="11.776371817491892"><ele>2.0</ele><time>2026-04-04T13:22:57.988Z</time></trkpt><trkpt lat="45.065109406559095" lon="11.776496634083669"><ele>1.5</ele><time>2026-04-04T13:22:58.988Z</time></trkpt><trkpt lat="45.065232543947495" lon="11.77662017759369"><ele>1.0</ele><time>2026-04-04T13:22:59.988Z</time></trkpt><trkpt lat="45.06534006444979" lon="11.776748874394041"><ele>1.25</ele><time>2026-04-04T13:23:00.988Z</time></trkpt><trkpt lat="45.06544695857265" lon="11.776879721873435"><ele>1.5</ele><time>2026-04-04T13:23:01.988Z</time></trkpt><trkpt lat="45.06552913735217" lon="11.777032611547945"><ele>1.75</ele><time>2026-04-04T13:23:02.988Z</time></trkpt><trkpt lat="45.0656379166556" lon="11.777160290721628"><ele>2.0</ele><time>2026-04-04T13:23:03.988Z</time></trkpt><trkpt lat="45.06574749706057" lon="11.777293431619263"><ele>2.0</ele><time>2026-04-04T13:23:04.988Z</time></trkpt><trkpt lat="45.06585327755208" lon="11.777420121956329"><ele>2.0</ele><time>2026-04-04T13:23:05.988Z</time></trkpt><trkpt lat="45.065954378582965" lon="11.777547584163372"><ele>2.0</ele><time>2026-04-04T13:23:06.988Z</time></trkpt><trkpt lat="45.06605255644364" lon="11.77766878341158"><ele>2.0</ele><time>2026-04-04T13:23:07.988Z</time></trkpt><trkpt lat="45.06615125251886" lon="11.777788576859402"><ele>2.25</ele><time>2026-04-04T13:23:08.988Z</time></trkpt><trkpt lat="45.06623981745965" lon="11.777907724506166"><ele>2.5</ele><time>2026-04-04T13:23:09.988Z</time></trkpt><trkpt lat="45.06633842129939" lon="11.778029004588745"><ele>2.75</ele><time>2026-04-04T13:23:10.988Z</time></trkpt><trkpt lat="45.06643685584916" lon="11.778157269348823"><ele>3.0</ele><time>2026-04-04T13:23:11.987Z</time></trkpt><trkpt lat="45.066548346248794" lon="11.778288706529498"><ele>3.25</ele><time>2026-04-04T13:23:12.987Z</time></trkpt><trkpt lat="45.0666444625107" lon="11.778429612982068"><ele>3.5</ele><time>2026-04-04T13:23:13.987Z</time></trkpt><trkpt lat="45.066754524360796" lon="11.778557161351982"><ele>3.75</ele><time>2026-04-04T13:23:14.987Z</time></trkpt><trkpt lat="45.06686074073579" lon="11.778675864281647"><ele>4.0</ele><time>2026-04-04T13:23:15.987Z</time></trkpt><trkpt lat="45.0669594848723" lon="11.778796340028164"><ele>4.0</ele><time>2026-04-04T13:23:16.987Z</time></trkpt><trkpt lat="45.06705818922701" lon="11.778913308841323"><ele>4.0</ele><time>2026-04-04T13:23:17.987Z</time></trkpt><trkpt lat="45.06715565262515" lon="11.779029855132222"><ele>4.0</ele><time>2026-04-04T13:23:18.987Z</time></trkpt><trkpt lat="45.06724989102907" lon="11.779148904993166"><ele>4.0</ele><time>2026-04-04T13:23:19.987Z</time></trkpt><trkpt lat="45.067346565074864" lon="11.779274295010012"><ele>3.5</ele><time>2026-04-04T13:23:20.987Z</time></trkpt><trkpt lat="45.06743731566763" lon="11.779407706187607"><ele>3.0</ele><time>2026-04-04T13:23:21.987Z</time></trkpt><trkpt lat="45.067515939551335" lon="11.779546810879173"><ele>2.5</ele><time>2026-04-04T13:23:22.987Z</time></trkpt><trkpt lat="45.067544654501624" lon="11.779702799524571"><ele>2.0</ele><time>2026-04-04T13:23:23.987Z</time></trkpt><trkpt lat="45.06759724037292" lon="11.779852067099203"><ele>2.0</ele><time>2026-04-04T13:23:24.987Z</time></trkpt><trkpt lat="45.06765724481476" lon="11.780016973257245"><ele>2.0</ele><time>2026-04-04T13:23:25.987Z</time></trkpt><trkpt lat="45.067711367548696" lon="11.780186211452518"><ele>2.0</ele><time>2026-04-04T13:23:26.987Z</time></trkpt><trkpt lat="45.06777208604015" lon="11.780377489260816"><ele>2.0</ele><time>2026-04-04T13:23:27.987Z</time></trkpt><trkpt lat="45.067834483772266" lon="11.780573555616504"><ele>2.25</ele><time>2026-04-04T13:23:28.987Z</time></trkpt><trkpt lat="45.06789804462504" lon="11.780761286143363"><ele>2.5</ele><time>2026-04-04T13:23:29.987Z</time></trkpt><trkpt lat="45.06795198123555" lon="11.780930674183535"><ele>2.75</ele><time>2026-04-04T13:23:30.987Z</time></trkpt><trkpt lat="45.067999849492125" lon="11.781095048616372"><ele>3.0</ele><time>2026-04-04T13:23:31.987Z</time></trkpt><trkpt lat="45.06801696536385" lon="11.781254816860688"><ele>3.25</ele><time>2026-04-04T13:23:32.987Z</time></trkpt><trkpt lat="45.068065269037625" lon="11.781401354817351"><ele>3.5</ele><time>2026-04-04T13:23:33.987Z</time></trkpt><trkpt lat="45.06812637783594" lon="11.781549648236089"><ele>3.75</ele><time>2026-04-04T13:23:34.987Z</time></trkpt><trkpt lat="45.06820812868137" lon="11.781690570991705"><ele>4.0</ele><time>2026-04-04T13:23:35.987Z</time></trkpt><trkpt lat="45.06830199236978" lon="11.7818105774687"><ele>4.5</ele><time>2026-04-04T13:23:36.987Z</time></trkpt><trkpt lat="45.06841176569378" lon="11.781894757412402"><ele>5.0</ele><time>2026-04-04T13:23:37.987Z</time></trkpt><trkpt lat="45.06851713654442" lon="11.781954222532509"><ele>5.5</ele><time>2026-04-04T13:23:38.987Z</time></trkpt><trkpt lat="45.068638248513345" lon="11.78194799956746"><ele>6.0</ele><time>2026-04-04T13:23:39.987Z</time></trkpt><trkpt lat="45.06875711746317" lon="11.781947043623063"><ele>6.0</ele><time>2026-04-04T13:23:40.987Z</time></trkpt><trkpt lat="45.068857934198775" lon="11.781928866242794"><ele>6.0</ele><time>2026-04-04T13:23:41.987Z</time></trkpt><trkpt lat="45.06895516225431" lon="11.78193837310428"><ele>6.0</ele><time>2026-04-04T13:23:42.987Z</time></trkpt><trkpt lat="45.069059718007814" lon="11.781942330572486"><ele>6.0</ele><time>2026-04-04T13:23:43.987Z</time></trkpt><trkpt lat="45.06913427656103" lon="11.781972259211061"><ele>6.0</ele><time>2026-04-04T13:23:44.987Z</time></trkpt><trkpt lat="45.06923431798328" lon="11.782035474063672"><ele>5.833333333333333</ele><time>2026-04-04T13:23:46.987Z</time></trkpt><trkpt lat="45.06928894458585" lon="11.78210061075009"><ele>5.666666666666667</ele><time>2026-04-04T13:23:48.987Z</time></trkpt><trkpt lat="45.069319826501136" lon="11.782195792420106"><ele>5.5</ele><time>2026-04-04T13:23:50.987Z</time></trkpt><trkpt lat="45.06929243230032" lon="11.782295669623938"><ele>5.333333333333334</ele><time>2026-04-04T13:23:51.987Z</time></trkpt><trkpt lat="45.06928704669015" lon="11.782394875745899"><ele>5.166666666666667</ele><time>2026-04-04T13:23:52.987Z</time></trkpt><trkpt lat="45.069365732567874" lon="11.782543896289761"><ele>5.0</ele><time>2026-04-04T13:23:54.987Z</time></trkpt><trkpt lat="45.06951231213709" lon="11.782534266801502"><ele>5.0</ele><time>2026-04-04T13:23:56.989Z</time></trkpt><trkpt lat="45.06958703545787" lon="11.78244931418492"><ele>5.0</ele><time>2026-04-04T13:23:57.989Z</time></trkpt><trkpt lat="45.06969673603201" lon="11.78247328206849"><ele>5.0</ele><time>2026-04-04T13:23:58.988Z</time></trkpt><trkpt lat="45.06978810941552" lon="11.782469634232056"><ele>5.0</ele><time>2026-04-04T13:23:59.988Z</time></trkpt><trkpt lat="45.06987261264381" lon="11.782465240872813"><ele>5.0</ele><time>2026-04-04T13:24:00.988Z</time></trkpt><trkpt lat="45.06996443632746" lon="11.78245724153113"><ele>5.0</ele><time>2026-04-04T13:24:01.988Z</time></trkpt><trkpt lat="45.070064304421365" lon="11.782446339079481"><ele>5.0</ele><time>2026-04-04T13:24:02.989Z</time></trkpt><trkpt lat="45.07016729113459" lon="11.782433452063449"><ele>5.0</ele><time>2026-04-04T13:24:03.989Z</time></trkpt><trkpt lat="45.07028359432706" lon="11.782415098268668"><ele>5.0</ele><time>2026-04-04T13:24:04.988Z</time></trkpt><trkpt lat="45.07040619004971" lon="11.782395472942156"><ele>5.0</ele><time>2026-04-04T13:24:05.988Z</time></trkpt><trkpt lat="45.070530600591304" lon="11.782380407310281"><ele>5.0</ele><time>2026-04-04T13:24:06.988Z</time></trkpt><trkpt lat="45.07065261207651" lon="11.782359816787134"><ele>5.0</ele><time>2026-04-04T13:24:07.988Z</time></trkpt><trkpt lat="45.0707696171236" lon="11.78234243972643"><ele>5.0</ele><time>2026-04-04T13:24:08.988Z</time></trkpt><trkpt lat="45.07087918749823" lon="11.782323023851037"><ele>5.0</ele><time>2026-04-04T13:24:09.988Z</time></trkpt><trkpt lat="45.070992812027015" lon="11.782302051318155"><ele>4.5</ele><time>2026-04-04T13:24:10.988Z</time></trkpt><trkpt lat="45.071107424924065" lon="11.782296184027539"><ele>4.0</ele><time>2026-04-04T13:24:11.988Z</time></trkpt><trkpt lat="45.0712192972791" lon="11.782295891028363"><ele>3.5</ele><time>2026-04-04T13:24:12.988Z</time></trkpt><trkpt lat="45.07134155097715" lon="11.782290475294177"><ele>3.0</ele><time>2026-04-04T13:24:13.988Z</time></trkpt><trkpt lat="45.07146538910701" lon="11.78229633783692"><ele>3.0</ele><time>2026-04-04T13:24:14.988Z</time></trkpt><trkpt lat="45.071578403558874" lon="11.782310647267968"><ele>3.0</ele><time>2026-04-04T13:24:15.988Z</time></trkpt><trkpt lat="45.071683435871684" lon="11.78233160883542"><ele>3.0</ele><time>2026-04-04T13:24:16.988Z</time></trkpt><trkpt lat="45.07178791121805" lon="11.782349164672475"><ele>3.0</ele><time>2026-04-04T13:24:17.988Z</time></trkpt><trkpt lat="45.07190573392859" lon="11.782374094577241"><ele>3.0</ele><time>2026-04-04T13:24:18.988Z</time></trkpt><trkpt lat="45.07202996159658" lon="11.782406479306163"><ele>3.0</ele><time>2026-04-04T13:24:19.988Z</time></trkpt><trkpt lat="45.07214994262919" lon="11.782446026935494"><ele>3.0</ele><time>2026-04-04T13:24:20.988Z</time></trkpt><trkpt lat="45.07224784613567" lon="11.78249604295707"><ele>3.0</ele><time>2026-04-04T13:24:21.988Z</time></trkpt><trkpt lat="45.07233959468944" lon="11.782537368819389"><ele>3.0</ele><time>2026-04-04T13:24:22.988Z</time></trkpt><trkpt lat="45.0724304525457" lon="11.782577522882757"><ele>3.0</ele><time>2026-04-04T13:24:23.988Z</time></trkpt><trkpt lat="45.072517297225104" lon="11.782612094176091"><ele>3.0</ele><time>2026-04-04T13:24:24.988Z</time></trkpt><trkpt lat="45.07261032758534" lon="11.782650883496348"><ele>3.0</ele><time>2026-04-04T13:24:25.988Z</time></trkpt><trkpt lat="45.07270751732088" lon="11.782685057468903"><ele>3.0</ele><time>2026-04-04T13:24:26.988Z</time></trkpt><trkpt lat="45.07281085973934" lon="11.782718384697434"><ele>3.0</ele><time>2026-04-04T13:24:27.988Z</time></trkpt><trkpt lat="45.072905806682236" lon="11.782758177593491"><ele>3.0</ele><time>2026-04-04T13:24:28.988Z</time></trkpt><trkpt lat="45.072997839689194" lon="11.782789262306045"><ele>3.3333333333333335</ele><time>2026-04-04T13:24:29.988Z</time></trkpt><trkpt lat="45.07308851293509" lon="11.782828191614604"><ele>3.666666666666667</ele><time>2026-04-04T13:24:30.988Z</time></trkpt><trkpt lat="45.073176612609416" lon="11.782850280601169"><ele>4.0</ele><time>2026-04-04T13:24:31.988Z</time></trkpt><trkpt lat="45.07326299227911" lon="11.782872716282451"><ele>4.333333333333334</ele><time>2026-04-04T13:24:32.988Z</time></trkpt><trkpt lat="45.073348937244766" lon="11.782897278303473"><ele>4.666666666666667</ele><time>2026-04-04T13:24:33.988Z</time></trkpt><trkpt lat="45.07342124419628" lon="11.782909700441042"><ele>5.0</ele><time>2026-04-04T13:24:34.988Z</time></trkpt><trkpt lat="45.07349876693832" lon="11.78292683529053"><ele>5.166666666666667</ele><time>2026-04-04T13:24:35.988Z</time></trkpt><trkpt lat="45.07357345778179" lon="11.782932362392042"><ele>5.333333333333334</ele><time>2026-04-04T13:24:36.988Z</time></trkpt><trkpt lat="45.07364088309601" lon="11.782930838938464"><ele>5.5</ele><time>2026-04-04T13:24:37.987Z</time></trkpt><trkpt lat="45.073716535201484" lon="11.782930287267455"><ele>5.666666666666667</ele><time>2026-04-04T13:24:38.987Z</time></trkpt><trkpt lat="45.073800078287654" lon="11.782940674528978"><ele>5.833333333333333</ele><time>2026-04-04T13:24:39.987Z</time></trkpt><trkpt lat="45.073878762841666" lon="11.782958244568468"><ele>6.0</ele><time>2026-04-04T13:24:40.987Z</time></trkpt><trkpt lat="45.07396766738817" lon="11.782952587250902"><ele>6.0</ele><time>2026-04-04T13:24:41.987Z</time></trkpt><trkpt lat="45.07405273884471" lon="11.783023002207342"><ele>6.0</ele><time>2026-04-04T13:24:42.987Z</time></trkpt><trkpt lat="45.07413255711759" lon="11.783083961449655"><ele>6.0</ele><time>2026-04-04T13:24:43.987Z</time></trkpt><trkpt lat="45.07421390544794" lon="11.783135569386864"><ele>6.0</ele><time>2026-04-04T13:24:44.987Z</time></trkpt><trkpt lat="45.07429030227902" lon="11.783211189006519"><ele>6.0</ele><time>2026-04-04T13:24:45.987Z</time></trkpt><trkpt lat="45.07431271315014" lon="11.7833651603001"><ele>6.0</ele><time>2026-04-04T13:24:46.987Z</time></trkpt><trkpt lat="45.07435489233605" lon="11.783458542277362"><ele>6.0</ele><time>2026-04-04T13:24:47.987Z</time></trkpt><trkpt lat="45.07438367211344" lon="11.783548100936363"><ele>6.0</ele><time>2026-04-04T13:24:48.987Z</time></trkpt><trkpt lat="45.07439444654562" lon="11.783637307133692"><ele>6.0</ele><time>2026-04-04T13:24:49.987Z</time></trkpt><trkpt lat="45.07444011590165" lon="11.783791919952971"><ele>6.0</ele><time>2026-04-04T13:24:51.987Z</time></trkpt><trkpt lat="45.07448036495017" lon="11.783927593674415"><ele>6.0</ele><time>2026-04-04T13:24:53.987Z</time></trkpt><trkpt lat="45.07452274212357" lon="11.784073016820344"><ele>6.199999999999999</ele><time>2026-04-04T13:24:55.987Z</time></trkpt><trkpt lat="45.07453976821395" lon="11.784226010724854"><ele>6.3999999999999995</ele><time>2026-04-04T13:24:57.987Z</time></trkpt><trkpt lat="45.07457956646109" lon="11.784355466510497"><ele>6.6</ele><time>2026-04-04T13:24:59.987Z</time></trkpt><trkpt lat="45.074618342610265" lon="11.784462137091934"><ele>6.8</ele><time>2026-04-04T13:25:01.987Z</time></trkpt><trkpt lat="45.074651750837944" lon="11.784562424705596"><ele>7.0</ele><time>2026-04-04T13:25:03.987Z</time></trkpt><trkpt lat="45.074690741373225" lon="11.784676886100259"><ele>6.833333333333334</ele><time>2026-04-04T13:25:06.987Z</time></trkpt><trkpt lat="45.074726315971915" lon="11.784752469673265"><ele>6.666666666666667</ele><time>2026-04-04T13:25:08.987Z</time></trkpt><trkpt lat="45.07472458155597" lon="11.784874557823725"><ele>6.5</ele><time>2026-04-04T13:25:11.987Z</time></trkpt><trkpt lat="45.07473870155102" lon="11.78496418292854"><ele>6.333333333333334</ele><time>2026-04-04T13:25:13.987Z</time></trkpt><trkpt lat="45.074774609493176" lon="11.785045570544845"><ele>6.166666666666667</ele><time>2026-04-04T13:25:19.987Z</time></trkpt><trkpt lat="45.07474535514482" lon="11.785157174563903"><ele>6.0</ele><time>2026-04-04T13:25:21.987Z</time></trkpt><trkpt lat="45.0747861918997" lon="11.785294571143348"><ele>6.0</ele><time>2026-04-04T13:25:23.987Z</time></trkpt><trkpt lat="45.07489174353593" lon="11.785281958881647"><ele>6.0</ele><time>2026-04-04T13:25:25.987Z</time></trkpt><trkpt lat="45.07495301991259" lon="11.785250497789335"><ele>6.0</ele><time>2026-04-04T13:25:26.987Z</time></trkpt><trkpt lat="45.075030740198834" lon="11.785228026822283"><ele>6.0</ele><time>2026-04-04T13:25:27.987Z</time></trkpt><trkpt lat="45.07511925776108" lon="11.785229601261884"><ele>6.0</ele><time>2026-04-04T13:25:28.987Z</time></trkpt><trkpt lat="45.07521198383736" lon="11.78522690595277"><ele>6.0</ele><time>2026-04-04T13:25:29.987Z</time></trkpt><trkpt lat="45.07531561478217" lon="11.785224356931996"><ele>6.6</ele><time>2026-04-04T13:25:30.987Z</time></trkpt><trkpt lat="45.0754226154671" lon="11.785225836650193"><ele>7.199999999999999</ele><time>2026-04-04T13:25:31.987Z</time></trkpt><trkpt lat="45.075521334606485" lon="11.78524091271649"><ele>7.800000000000001</ele><time>2026-04-04T13:25:32.987Z</time></trkpt><trkpt lat="45.07562072802878" lon="11.785250717726596"><ele>8.4</ele><time>2026-04-04T13:25:33.987Z</time></trkpt><trkpt lat="45.07570459473913" lon="11.785260843761337"><ele>9.0</ele><time>2026-04-04T13:25:34.987Z</time></trkpt><trkpt lat="45.075791497433755" lon="11.785259028997379"><ele>9.0</ele><time>2026-04-04T13:25:35.987Z</time></trkpt><trkpt lat="45.07587556330457" lon="11.785258834661148"><ele>9.0</ele><time>2026-04-04T13:25:36.987Z</time></trkpt><trkpt lat="45.075952381208495" lon="11.78526185628938"><ele>9.0</ele><time>2026-04-04T13:25:37.987Z</time></trkpt><trkpt lat="45.076042172266675" lon="11.785261153400928"><ele>9.0</ele><time>2026-04-04T13:25:38.987Z</time></trkpt><trkpt lat="45.076135935948805" lon="11.785250158182286"><ele>9.0</ele><time>2026-04-04T13:25:39.986Z</time></trkpt><trkpt lat="45.076218546060836" lon="11.785238175893229"><ele>9.0</ele><time>2026-04-04T13:25:40.986Z</time></trkpt><trkpt lat="45.076297733839425" lon="11.785230316941522"><ele>9.0</ele><time>2026-04-04T13:25:41.986Z</time></trkpt><trkpt lat="45.07639476760865" lon="11.785251671057322"><ele>9.0</ele><time>2026-04-04T13:25:42.986Z</time></trkpt><trkpt lat="45.076507823953264" lon="11.78525493025605"><ele>9.0</ele><time>2026-04-04T13:25:43.986Z</time></trkpt><trkpt lat="45.07664650096805" lon="11.785258160018865"><ele>9.0</ele><time>2026-04-04T13:25:44.986Z</time></trkpt><trkpt lat="45.07677323469225" lon="11.785261258685397"><ele>8.8</ele><time>2026-04-04T13:25:45.986Z</time></trkpt><trkpt lat="45.076887991588414" lon="11.785263868772425"><ele>8.600000000000001</ele><time>2026-04-04T13:25:46.986Z</time></trkpt><trkpt lat="45.07700783202853" lon="11.785267829352822"><ele>8.4</ele><time>2026-04-04T13:25:47.986Z</time></trkpt><trkpt lat="45.077107149317854" lon="11.785268956223115"><ele>8.200000000000001</ele><time>2026-04-04T13:25:48.986Z</time></trkpt><trkpt lat="45.07719631851676" lon="11.78527065927484"><ele>8.0</ele><time>2026-04-04T13:25:49.986Z</time></trkpt><trkpt lat="45.07729135103424" lon="11.785272474325007"><ele>8.0</ele><time>2026-04-04T13:25:50.986Z</time></trkpt><trkpt lat="45.07738961379671" lon="11.785230391277212"><ele>8.0</ele><time>2026-04-04T13:25:51.986Z</time></trkpt><trkpt lat="45.07749274981012" lon="11.785235097841722"><ele>8.0</ele><time>2026-04-04T13:25:52.986Z</time></trkpt><trkpt lat="45.077593817110426" lon="11.785237699595223"><ele>8.0</ele><time>2026-04-04T13:25:53.986Z</time></trkpt><trkpt lat="45.077695942835646" lon="11.785235337053981"><ele>8.0</ele><time>2026-04-04T13:25:54.986Z</time></trkpt><trkpt lat="45.07779501566183" lon="11.78527797913041"><ele>7.2</ele><time>2026-04-04T13:25:55.986Z</time></trkpt><trkpt lat="45.077888538461465" lon="11.785278990461213"><ele>6.4</ele><time>2026-04-04T13:25:56.986Z</time></trkpt><trkpt lat="45.077986013076845" lon="11.785280044525727"><ele>5.6000000000000005</ele><time>2026-04-04T13:25:57.986Z</time></trkpt><trkpt lat="45.078085957374505" lon="11.785281125303165"><ele>4.800000000000001</ele><time>2026-04-04T13:25:58.986Z</time></trkpt><trkpt lat="45.0781925577719" lon="11.785283001665514"><ele>4.0</ele><time>2026-04-04T13:25:59.986Z</time></trkpt><trkpt lat="45.078304572497686" lon="11.78528476619157"><ele>4.0</ele><time>2026-04-04T13:26:00.986Z</time></trkpt><trkpt lat="45.07841839948849" lon="11.785286559271983"><ele>4.0</ele><time>2026-04-04T13:26:01.988Z</time></trkpt><trkpt lat="45.078525819109466" lon="11.785287417649654"><ele>4.0</ele><time>2026-04-04T13:26:02.988Z</time></trkpt><trkpt lat="45.07862873249484" lon="11.785288942652333"><ele>4.0</ele><time>2026-04-04T13:26:03.988Z</time></trkpt><trkpt lat="45.078728774354786" lon="11.7852904130585"><ele>4.0</ele><time>2026-04-04T13:26:04.987Z</time></trkpt><trkpt lat="45.07882213884381" lon="11.785292323315032"><ele>3.9999999999999996</ele><time>2026-04-04T13:26:05.988Z</time></trkpt><trkpt lat="45.07891266059034" lon="11.785294076764139"><ele>4.0</ele><time>2026-04-04T13:26:06.988Z</time></trkpt><trkpt lat="45.07900371299049" lon="11.785295151252294"><ele>4.0</ele><time>2026-04-04T13:26:07.987Z</time></trkpt><trkpt lat="45.07908994815435" lon="11.785296162699234"><ele>4.0</ele><time>2026-04-04T13:26:08.988Z</time></trkpt><trkpt lat="45.07916660610179" lon="11.785297602736504"><ele>3.9999999999999996</ele><time>2026-04-04T13:26:09.988Z</time></trkpt><trkpt lat="45.079231392845976" lon="11.785307585736591"><ele>4.0</ele><time>2026-04-04T13:26:10.988Z</time></trkpt><trkpt lat="45.07935560974796" lon="11.785359558681035"><ele>3.9999999999999996</ele><time>2026-04-04T13:26:12.988Z</time></trkpt><trkpt lat="45.07940506507731" lon="11.785419949154175"><ele>4.0</ele><time>2026-04-04T13:26:13.987Z</time></trkpt><trkpt lat="45.07951246342235" lon="11.785496128809694"><ele>4.0</ele><time>2026-04-04T13:26:15.988Z</time></trkpt><trkpt lat="45.07958410697898" lon="11.785415323175567"><ele>4.0</ele><time>2026-04-04T13:26:16.988Z</time></trkpt><trkpt lat="45.07965429761821" lon="11.785330247355358"><ele>3.9999999999999996</ele><time>2026-04-04T13:26:17.988Z</time></trkpt><trkpt lat="45.07972660584782" lon="11.785295239277717"><ele>4.0</ele><time>2026-04-04T13:26:18.988Z</time></trkpt><trkpt lat="45.07980885727642" lon="11.78529701308888"><ele>3.9999999999999996</ele><time>2026-04-04T13:26:19.988Z</time></trkpt><trkpt lat="45.07989482088115" lon="11.78530102051765"><ele>4.0</ele><time>2026-04-04T13:26:20.988Z</time></trkpt><trkpt lat="45.07998887947728" lon="11.785301201892699"><ele>4.0</ele><time>2026-04-04T13:26:21.988Z</time></trkpt><trkpt lat="45.080075528204134" lon="11.785329693802632"><ele>4.0</ele><time>2026-04-04T13:26:22.988Z</time></trkpt><trkpt lat="45.080159907876784" lon="11.785330871044428"><ele>3.9999999999999996</ele><time>2026-04-04T13:26:23.988Z</time></trkpt><trkpt lat="45.08024286122519" lon="11.785326580155468"><ele>4.0</ele><time>2026-04-04T13:26:24.988Z</time></trkpt><trkpt lat="45.08033013336335" lon="11.785303850401997"><ele>4.0</ele><time>2026-04-04T13:26:25.988Z</time></trkpt><trkpt lat="45.08041650516855" lon="11.785332674288147"><ele>4.0</ele><time>2026-04-04T13:26:26.988Z</time></trkpt><trkpt lat="45.08051332483395" lon="11.785341840178843"><ele>4.0</ele><time>2026-04-04T13:26:27.988Z</time></trkpt><trkpt lat="45.08061711053271" lon="11.785332823348833"><ele>4.0</ele><time>2026-04-04T13:26:28.988Z</time></trkpt><trkpt lat="45.08071446814084" lon="11.785343321585172"><ele>4.0</ele><time>2026-04-04T13:26:29.988Z</time></trkpt><trkpt lat="45.08080696202746" lon="11.78534300273202"><ele>3.6</ele><time>2026-04-04T13:26:30.988Z</time></trkpt><trkpt lat="45.08090522627502" lon="11.785337046328738"><ele>3.2</ele><time>2026-04-04T13:26:31.988Z</time></trkpt><trkpt lat="45.081002197778076" lon="11.785332122993363"><ele>2.8000000000000003</ele><time>2026-04-04T13:26:32.988Z</time></trkpt><trkpt lat="45.08109780428866" lon="11.785335629143317"><ele>2.4000000000000004</ele><time>2026-04-04T13:26:33.988Z</time></trkpt><trkpt lat="45.08118591495627" lon="11.785341308453908"><ele>2.0</ele><time>2026-04-04T13:26:34.988Z</time></trkpt><trkpt lat="45.08128506988467" lon="11.785349046811149"><ele>2.0</ele><time>2026-04-04T13:26:35.988Z</time></trkpt><trkpt lat="45.081392553422766" lon="11.785363299590891"><ele>2.0</ele><time>2026-04-04T13:26:36.988Z</time></trkpt><trkpt lat="45.08150311462924" lon="11.785374338732503"><ele>2.0</ele><time>2026-04-04T13:26:37.988Z</time></trkpt><trkpt lat="45.08162142685596" lon="11.785370348931401"><ele>2.0</ele><time>2026-04-04T13:26:38.988Z</time></trkpt><trkpt lat="45.081741702276524" lon="11.785366909536384"><ele>2.25</ele><time>2026-04-04T13:26:39.988Z</time></trkpt><trkpt lat="45.081865326819795" lon="11.785365608858394"><ele>2.5</ele><time>2026-04-04T13:26:40.988Z</time></trkpt><trkpt lat="45.081986314925146" lon="11.785367809221308"><ele>2.75</ele><time>2026-04-04T13:26:41.988Z</time></trkpt><trkpt lat="45.08211251608463" lon="11.785369745413488"><ele>3.0</ele><time>2026-04-04T13:26:42.988Z</time></trkpt><trkpt lat="45.08224269936081" lon="11.785367880057827"><ele>3.0</ele><time>2026-04-04T13:26:43.988Z</time></trkpt><trkpt lat="45.082377571938345" lon="11.78533994675419"><ele>3.0</ele><time>2026-04-04T13:26:44.988Z</time></trkpt><trkpt lat="45.082507599620655" lon="11.785336863648576"><ele>3.0</ele><time>2026-04-04T13:26:45.988Z</time></trkpt><trkpt lat="45.08263523596048" lon="11.78533968307849"><ele>3.0</ele><time>2026-04-04T13:26:46.988Z</time></trkpt><trkpt lat="45.08277706640892" lon="11.785341074472147"><ele>3.0</ele><time>2026-04-04T13:26:47.988Z</time></trkpt><trkpt lat="45.0829169013421" lon="11.785348229409392"><ele>3.0</ele><time>2026-04-04T13:26:48.988Z</time></trkpt><trkpt lat="45.083057765008896" lon="11.78535158864633"><ele>3.0</ele><time>2026-04-04T13:26:49.988Z</time></trkpt><trkpt lat="45.083196815895974" lon="11.78535135014037"><ele>3.0</ele><time>2026-04-04T13:26:50.988Z</time></trkpt><trkpt lat="45.08333455532723" lon="11.785363900094303"><ele>3.0</ele><time>2026-04-04T13:26:51.988Z</time></trkpt><trkpt lat="45.08347757408576" lon="11.785377224012581"><ele>3.0</ele><time>2026-04-04T13:26:52.988Z</time></trkpt><trkpt lat="45.0836104580575" lon="11.785374299191233"><ele>3.0</ele><time>2026-04-04T13:26:53.988Z</time></trkpt><trkpt lat="45.08374801989285" lon="11.78538115367451"><ele>3.0</ele><time>2026-04-04T13:26:54.987Z</time></trkpt><trkpt lat="45.08388317753836" lon="11.78538126729409"><ele>3.0</ele><time>2026-04-04T13:26:55.987Z</time></trkpt><trkpt lat="45.084014275423215" lon="11.785383314557917"><ele>3.0</ele><time>2026-04-04T13:26:56.987Z</time></trkpt><trkpt lat="45.08415275864901" lon="11.78538919387198"><ele>3.0</ele><time>2026-04-04T13:26:57.987Z</time></trkpt><trkpt lat="45.08429352332883" lon="11.785383534962381"><ele>3.0</ele><time>2026-04-04T13:26:58.987Z</time></trkpt><trkpt lat="45.084433432936855" lon="11.785370049540274"><ele>2.75</ele><time>2026-04-04T13:26:59.987Z</time></trkpt><trkpt lat="45.08457978263751" lon="11.785376508179917"><ele>2.5</ele><time>2026-04-04T13:27:00.987Z</time></trkpt><trkpt lat="45.08472156493872" lon="11.785378729154049"><ele>2.25</ele><time>2026-04-04T13:27:01.987Z</time></trkpt><trkpt lat="45.08486467617669" lon="11.785379524968123"><ele>2.0</ele><time>2026-04-04T13:27:02.987Z</time></trkpt><trkpt lat="45.08500995418513" lon="11.785377414590744"><ele>2.5</ele><time>2026-04-04T13:27:03.987Z</time></trkpt><trkpt lat="45.085151805222665" lon="11.78536981801003"><ele>3.0</ele><time>2026-04-04T13:27:04.987Z</time></trkpt><trkpt lat="45.085294034803646" lon="11.785368160182525"><ele>3.5</ele><time>2026-04-04T13:27:05.987Z</time></trkpt><trkpt lat="45.085432690159884" lon="11.785368657897502"><ele>4.0</ele><time>2026-04-04T13:27:06.987Z</time></trkpt><trkpt lat="45.08557128401875" lon="11.785371038762001"><ele>4.0</ele><time>2026-04-04T13:27:07.987Z</time></trkpt><trkpt lat="45.08570829218929" lon="11.78537518104729"><ele>4.0</ele><time>2026-04-04T13:27:08.987Z</time></trkpt><trkpt lat="45.085854228827934" lon="11.785372270888411"><ele>4.0</ele><time>2026-04-04T13:27:09.987Z</time></trkpt><trkpt lat="45.08599749181022" lon="11.785375702246736"><ele>4.0</ele><time>2026-04-04T13:27:10.987Z</time></trkpt><trkpt lat="45.08613446540413" lon="11.78538578263079"><ele>3.75</ele><time>2026-04-04T13:27:11.987Z</time></trkpt><trkpt lat="45.086269814870285" lon="11.785394561580876"><ele>3.5</ele><time>2026-04-04T13:27:12.987Z</time></trkpt><trkpt lat="45.086403599942564" lon="11.785391044137375"><ele>3.25</ele><time>2026-04-04T13:27:13.987Z</time></trkpt><trkpt lat="45.08654564514572" lon="11.7853860507622"><ele>3.0</ele><time>2026-04-04T13:27:14.987Z</time></trkpt><trkpt lat="45.08669210169992" lon="11.785382795481334"><ele>3.0</ele><time>2026-04-04T13:27:15.987Z</time></trkpt><trkpt lat="45.0868447949988" lon="11.785383025818902"><ele>3.0</ele><time>2026-04-04T13:27:16.987Z</time></trkpt><trkpt lat="45.08698688538011" lon="11.785391302888286"><ele>3.0</ele><time>2026-04-04T13:27:17.987Z</time></trkpt><trkpt lat="45.08712905844272" lon="11.785399572199658"><ele>3.0</ele><time>2026-04-04T13:27:18.987Z</time></trkpt><trkpt lat="45.08726809496006" lon="11.78540292411837"><ele>3.0</ele><time>2026-04-04T13:27:19.987Z</time></trkpt><trkpt lat="45.08740234644453" lon="11.785407608265118"><ele>3.0</ele><time>2026-04-04T13:27:20.987Z</time></trkpt><trkpt lat="45.08753487572809" lon="11.785408716727703"><ele>3.0</ele><time>2026-04-04T13:27:21.987Z</time></trkpt><trkpt lat="45.08767264777124" lon="11.785406655018596"><ele>3.0</ele><time>2026-04-04T13:27:22.987Z</time></trkpt><trkpt lat="45.08780695229709" lon="11.785414987695578"><ele>3.25</ele><time>2026-04-04T13:27:23.987Z</time></trkpt><trkpt lat="45.087949367827186" lon="11.785415558077023"><ele>3.5</ele><time>2026-04-04T13:27:24.987Z</time></trkpt><trkpt lat="45.08809194249176" lon="11.785414709742692"><ele>3.75</ele><time>2026-04-04T13:27:25.987Z</time></trkpt><trkpt lat="45.08823310611514" lon="11.785414326002694"><ele>4.0</ele><time>2026-04-04T13:27:26.987Z</time></trkpt><trkpt lat="45.08837252973336" lon="11.785414210121102"><ele>4.0</ele><time>2026-04-04T13:27:27.987Z</time></trkpt><trkpt lat="45.08851221536558" lon="11.785416953725338"><ele>4.0</ele><time>2026-04-04T13:27:28.987Z</time></trkpt><trkpt lat="45.08864920460253" lon="11.785424135541026"><ele>4.0</ele><time>2026-04-04T13:27:29.987Z</time></trkpt><trkpt lat="45.08878643482031" lon="11.785430104625243"><ele>4.0</ele><time>2026-04-04T13:27:30.987Z</time></trkpt><trkpt lat="45.08892744586302" lon="11.785435092822146"><ele>4.0</ele><time>2026-04-04T13:27:31.987Z</time></trkpt><trkpt lat="45.08906920898114" lon="11.785441479650116"><ele>4.0</ele><time>2026-04-04T13:27:32.987Z</time></trkpt><trkpt lat="45.089211353187935" lon="11.785448041171628"><ele>4.0</ele><time>2026-04-04T13:27:33.987Z</time></trkpt><trkpt lat="45.08935311987897" lon="11.785446749555899"><ele>4.0</ele><time>2026-04-04T13:27:34.987Z</time></trkpt><trkpt lat="45.089499797087385" lon="11.78544866939609"><ele>3.5</ele><time>2026-04-04T13:27:35.987Z</time></trkpt><trkpt lat="45.08964109014879" lon="11.785456674316118"><ele>3.0</ele><time>2026-04-04T13:27:36.987Z</time></trkpt><trkpt lat="45.08978243588108" lon="11.785460077987473"><ele>2.5</ele><time>2026-04-04T13:27:37.987Z</time></trkpt><trkpt lat="45.08993108175602" lon="11.785459186703456"><ele>2.0</ele><time>2026-04-04T13:27:38.987Z</time></trkpt><trkpt lat="45.09008149191783" lon="11.785456853550695"><ele>1.75</ele><time>2026-04-04T13:27:39.987Z</time></trkpt><trkpt lat="45.09022952632775" lon="11.785454760826871"><ele>1.5</ele><time>2026-04-04T13:27:40.987Z</time></trkpt><trkpt lat="45.090375010798375" lon="11.785452525158647"><ele>1.25</ele><time>2026-04-04T13:27:41.987Z</time></trkpt><trkpt lat="45.09052252605421" lon="11.785454711572436"><ele>1.0</ele><time>2026-04-04T13:27:42.987Z</time></trkpt><trkpt lat="45.09067684611568" lon="11.785455871582737"><ele>1.3333333333333333</ele><time>2026-04-04T13:27:43.987Z</time></trkpt><trkpt lat="45.09082986128587" lon="11.785459342717354"><ele>1.6666666666666665</ele><time>2026-04-04T13:27:44.987Z</time></trkpt><trkpt lat="45.090986582039875" lon="11.785459463800306"><ele>2.0</ele><time>2026-04-04T13:27:45.987Z</time></trkpt><trkpt lat="45.09114101671215" lon="11.785457367499966"><ele>2.0</ele><time>2026-04-04T13:27:46.987Z</time></trkpt><trkpt lat="45.09129327519409" lon="11.78545285335424"><ele>2.0</ele><time>2026-04-04T13:27:47.987Z</time></trkpt><trkpt lat="45.09143906874411" lon="11.785454439398091"><ele>2.0</ele><time>2026-04-04T13:27:48.987Z</time></trkpt><trkpt lat="45.091581269672865" lon="11.785453938850742"><ele>2.0</ele><time>2026-04-04T13:27:49.987Z</time></trkpt><trkpt lat="45.0917175718653" lon="11.785454698717864"><ele>2.0</ele><time>2026-04-04T13:27:50.987Z</time></trkpt><trkpt lat="45.09185455784209" lon="11.785463601424226"><ele>2.0</ele><time>2026-04-04T13:27:51.987Z</time></trkpt><trkpt lat="45.091996361626464" lon="11.78546925074802"><ele>2.0</ele><time>2026-04-04T13:27:52.987Z</time></trkpt><trkpt lat="45.09214522374715" lon="11.78547513230844"><ele>2.0</ele><time>2026-04-04T13:27:53.987Z</time></trkpt><trkpt lat="45.092308144292105" lon="11.785478416654055"><ele>1.3333333333333333</ele><time>2026-04-04T13:27:54.987Z</time></trkpt><trkpt lat="45.09246315263753" lon="11.785473913410899"><ele>0.6666666666666666</ele><time>2026-04-04T13:27:55.986Z</time></trkpt><trkpt lat="45.09262786845337" lon="11.785476177893964"><ele>0.0</ele><time>2026-04-04T13:27:56.986Z</time></trkpt><trkpt lat="45.09279559870394" lon="11.785475069967061"><ele>0.0</ele><time>2026-04-04T13:27:57.986Z</time></trkpt><trkpt lat="45.09296252820581" lon="11.785481734249323"><ele>0.0</ele><time>2026-04-04T13:27:58.986Z</time></trkpt><trkpt lat="45.09311986838558" lon="11.785489635413828"><ele>0.0</ele><time>2026-04-04T13:27:59.986Z</time></trkpt><trkpt lat="45.093276766187" lon="11.785487523885742"><ele>0.3333333333333333</ele><time>2026-04-04T13:28:00.986Z</time></trkpt><trkpt lat="45.093436401682425" lon="11.785480795362133"><ele>0.6666666666666666</ele><time>2026-04-04T13:28:01.986Z</time></trkpt><trkpt lat="45.09359219276807" lon="11.785482096510393"><ele>1.0</ele><time>2026-04-04T13:28:02.986Z</time></trkpt><trkpt lat="45.09375002193791" lon="11.785497049298396"><ele>1.0</ele><time>2026-04-04T13:28:03.986Z</time></trkpt><trkpt lat="45.093899053101175" lon="11.785512853924901"><ele>1.0</ele><time>2026-04-04T13:28:04.986Z</time></trkpt><trkpt lat="45.09405490587872" lon="11.785515115011862"><ele>1.0</ele><time>2026-04-04T13:28:05.986Z</time></trkpt><trkpt lat="45.09420744395044" lon="11.785516884864618"><ele>0.3333333333333333</ele><time>2026-04-04T13:28:06.986Z</time></trkpt><trkpt lat="45.094375134230496" lon="11.785525725695358"><ele>-0.3333333333333333</ele><time>2026-04-04T13:28:07.987Z</time></trkpt><trkpt lat="45.094545086037435" lon="11.785528033001675"><ele>-1.0</ele><time>2026-04-04T13:28:08.987Z</time></trkpt><trkpt lat="45.09471461497521" lon="11.785533833798425"><ele>-1.0</ele><time>2026-04-04T13:28:09.987Z</time></trkpt><trkpt lat="45.094876014442576" lon="11.785533372778344"><ele>-1.0</ele><time>2026-04-04T13:28:10.987Z</time></trkpt><trkpt lat="45.095030913569126" lon="11.785530514832425"><ele>-1.0</ele><time>2026-04-04T13:28:11.987Z</time></trkpt><trkpt lat="45.09518751960842" lon="11.785535909334037"><ele>-0.75</ele><time>2026-04-04T13:28:12.987Z</time></trkpt><trkpt lat="45.09534032497988" lon="11.785533453168451"><ele>-0.5</ele><time>2026-04-04T13:28:13.987Z</time></trkpt><trkpt lat="45.09548530035739" lon="11.785529842939088"><ele>-0.25</ele><time>2026-04-04T13:28:14.987Z</time></trkpt><trkpt lat="45.095628224103315" lon="11.785524159777955"><ele>0.0</ele><time>2026-04-04T13:28:15.987Z</time></trkpt><trkpt lat="45.0957707661989" lon="11.785528498505872"><ele>0.5</ele><time>2026-04-04T13:28:16.987Z</time></trkpt><trkpt lat="45.095911278766806" lon="11.78552333398159"><ele>1.0</ele><time>2026-04-04T13:28:17.987Z</time></trkpt><trkpt lat="45.096054460642655" lon="11.785523697519604"><ele>1.5</ele><time>2026-04-04T13:28:18.987Z</time></trkpt><trkpt lat="45.096200586241366" lon="11.785521575709113"><ele>2.0</ele><time>2026-04-04T13:28:19.987Z</time></trkpt><trkpt lat="45.096342055918704" lon="11.785518986284547"><ele>2.0</ele><time>2026-04-04T13:28:20.987Z</time></trkpt><trkpt lat="45.0964705438496" lon="11.785550566476646"><ele>2.0</ele><time>2026-04-04T13:28:21.987Z</time></trkpt><trkpt lat="45.09660910588991" lon="11.785548304007031"><ele>2.0</ele><time>2026-04-04T13:28:22.987Z</time></trkpt><trkpt lat="45.09675115153237" lon="11.785546207613988"><ele>2.0</ele><time>2026-04-04T13:28:23.987Z</time></trkpt><trkpt lat="45.096896357577386" lon="11.785539842363848"><ele>1.6666666666666665</ele><time>2026-04-04T13:28:24.987Z</time></trkpt><trkpt lat="45.09704811268773" lon="11.785527560902022"><ele>1.3333333333333333</ele><time>2026-04-04T13:28:25.987Z</time></trkpt><trkpt lat="45.09720274895934" lon="11.785519005244618"><ele>1.0</ele><time>2026-04-04T13:28:26.987Z</time></trkpt><trkpt lat="45.097352684163695" lon="11.785512392022325"><ele>1.0</ele><time>2026-04-04T13:28:27.987Z</time></trkpt><trkpt lat="45.09749668823321" lon="11.785506880200389"><ele>1.0</ele><time>2026-04-04T13:28:28.987Z</time></trkpt><trkpt lat="45.097655282835504" lon="11.785548968061892"><ele>1.0</ele><time>2026-04-04T13:28:29.987Z</time></trkpt><trkpt lat="45.09780921531359" lon="11.785551738587454"><ele>1.0</ele><time>2026-04-04T13:28:30.987Z</time></trkpt><trkpt lat="45.09796760394914" lon="11.785554589315288"><ele>1.0</ele><time>2026-04-04T13:28:31.987Z</time></trkpt><trkpt lat="45.098114342100665" lon="11.785557230358867"><ele>1.0</ele><time>2026-04-04T13:28:32.987Z</time></trkpt><trkpt lat="45.09824982463434" lon="11.78556077610276"><ele>1.0</ele><time>2026-04-04T13:28:33.987Z</time></trkpt><trkpt lat="45.09838164491132" lon="11.785522564630584"><ele>1.0</ele><time>2026-04-04T13:28:34.987Z</time></trkpt><trkpt lat="45.09851859261864" lon="11.785530810029256"><ele>1.0</ele><time>2026-04-04T13:28:35.987Z</time></trkpt><trkpt lat="45.098661904424446" lon="11.785536050193206"><ele>1.0</ele><time>2026-04-04T13:28:36.987Z</time></trkpt><trkpt lat="45.098813379138974" lon="11.785539844766989"><ele>1.0</ele><time>2026-04-04T13:28:37.987Z</time></trkpt><trkpt lat="45.098969126323034" lon="11.785572033060111"><ele>1.0</ele><time>2026-04-04T13:28:38.987Z</time></trkpt><trkpt lat="45.0991199268884" lon="11.785552277954208"><ele>1.0</ele><time>2026-04-04T13:28:39.987Z</time></trkpt><trkpt lat="45.09927015913415" lon="11.785556013493615"><ele>1.0</ele><time>2026-04-04T13:28:40.987Z</time></trkpt><trkpt lat="45.099416138509525" lon="11.785557895336918"><ele>1.0</ele><time>2026-04-04T13:28:41.987Z</time></trkpt><trkpt lat="45.099553990433364" lon="11.785559204831307"><ele>1.0</ele><time>2026-04-04T13:28:42.987Z</time></trkpt><trkpt lat="45.09968322111713" lon="11.785561251958997"><ele>1.0</ele><time>2026-04-04T13:28:43.987Z</time></trkpt><trkpt lat="45.099812504662886" lon="11.785565675407987"><ele>1.0</ele><time>2026-04-04T13:28:44.987Z</time></trkpt><trkpt lat="45.099945962402266" lon="11.785567641066137"><ele>1.0</ele><time>2026-04-04T13:28:45.987Z</time></trkpt><trkpt lat="45.10007801122763" lon="11.785572543357961"><ele>1.0</ele><time>2026-04-04T13:28:46.987Z</time></trkpt><trkpt lat="45.10021073558471" lon="11.785578056573295"><ele>1.0</ele><time>2026-04-04T13:28:47.987Z</time></trkpt><trkpt lat="45.10034420312267" lon="11.785580050686654"><ele>1.0</ele><time>2026-04-04T13:28:48.987Z</time></trkpt><trkpt lat="45.10047574649484" lon="11.785582181687637"><ele>1.0</ele><time>2026-04-04T13:28:49.987Z</time></trkpt><trkpt lat="45.10060403025338" lon="11.785582286342388"><ele>1.0</ele><time>2026-04-04T13:28:50.987Z</time></trkpt><trkpt lat="45.10073580869844" lon="11.78558368658367"><ele>1.0</ele><time>2026-04-04T13:28:51.987Z</time></trkpt><trkpt lat="45.10087031999021" lon="11.785590219050956"><ele>1.0</ele><time>2026-04-04T13:28:52.987Z</time></trkpt><trkpt lat="45.101002801956795" lon="11.785594643617673"><ele>1.0</ele><time>2026-04-04T13:28:53.987Z</time></trkpt><trkpt lat="45.10113772120651" lon="11.785600242273924"><ele>1.0</ele><time>2026-04-04T13:28:54.987Z</time></trkpt><trkpt lat="45.101275534606096" lon="11.78559917171056"><ele>1.0</ele><time>2026-04-04T13:28:55.987Z</time></trkpt><trkpt lat="45.1014088818076" lon="11.785597338489142"><ele>1.0</ele><time>2026-04-04T13:28:56.987Z</time></trkpt><trkpt lat="45.1015356940336" lon="11.785607712160797"><ele>1.0</ele><time>2026-04-04T13:28:57.987Z</time></trkpt><trkpt lat="45.10168175687198" lon="11.785605501866224"><ele>1.25</ele><time>2026-04-04T13:28:58.986Z</time></trkpt><trkpt lat="45.10182905027762" lon="11.785603476298675"><ele>1.5</ele><time>2026-04-04T13:28:59.986Z</time></trkpt><trkpt lat="45.10196108225434" lon="11.785603847056457"><ele>1.75</ele><time>2026-04-04T13:29:00.986Z</time></trkpt><trkpt lat="45.10209135032088" lon="11.785598919952717"><ele>2.0</ele><time>2026-04-04T13:29:01.986Z</time></trkpt><trkpt lat="45.10221589659636" lon="11.78559886803884"><ele>2.0</ele><time>2026-04-04T13:29:02.986Z</time></trkpt><trkpt lat="45.10233014694838" lon="11.785596689356284"><ele>2.0</ele><time>2026-04-04T13:29:03.986Z</time></trkpt><trkpt lat="45.10243667260962" lon="11.785603689938068"><ele>2.0</ele><time>2026-04-04T13:29:04.986Z</time></trkpt><trkpt lat="45.10255686486054" lon="11.785595342599628"><ele>2.0</ele><time>2026-04-04T13:29:05.986Z</time></trkpt><trkpt lat="45.10267596595857" lon="11.785591341845066"><ele>2.5</ele><time>2026-04-04T13:29:06.986Z</time></trkpt><trkpt lat="45.10280187514853" lon="11.785588293144615"><ele>3.0</ele><time>2026-04-04T13:29:07.986Z</time></trkpt><trkpt lat="45.10293320345316" lon="11.785587137380533"><ele>3.5</ele><time>2026-04-04T13:29:08.986Z</time></trkpt><trkpt lat="45.10306716511193" lon="11.785596715948417"><ele>4.0</ele><time>2026-04-04T13:29:09.986Z</time></trkpt><trkpt lat="45.10319645239174" lon="11.78562757163794"><ele>4.0</ele><time>2026-04-04T13:29:10.986Z</time></trkpt><trkpt lat="45.1033326525055" lon="11.785618828616006"><ele>4.0</ele><time>2026-04-04T13:29:11.986Z</time></trkpt><trkpt lat="45.10345364857953" lon="11.785615436988417"><ele>4.0</ele><time>2026-04-04T13:29:12.986Z</time></trkpt><trkpt lat="45.10357730378624" lon="11.785616169877693"><ele>4.0</ele><time>2026-04-04T13:29:13.986Z</time></trkpt><trkpt lat="45.103701348731796" lon="11.78560063475862"><ele>4.0</ele><time>2026-04-04T13:29:14.986Z</time></trkpt><trkpt lat="45.103824754293086" lon="11.785575878427748"><ele>4.0</ele><time>2026-04-04T13:29:15.986Z</time></trkpt><trkpt lat="45.10395156157194" lon="11.78554687517005"><ele>4.0</ele><time>2026-04-04T13:29:16.986Z</time></trkpt><trkpt lat="45.10406739341245" lon="11.785513706461956"><ele>4.0</ele><time>2026-04-04T13:29:17.986Z</time></trkpt><trkpt lat="45.104152873028994" lon="11.785483562322144"><ele>4.166666666666666</ele><time>2026-04-04T13:29:18.986Z</time></trkpt><trkpt lat="45.10421626695159" lon="11.785451247637535"><ele>4.333333333333333</ele><time>2026-04-04T13:29:19.986Z</time></trkpt><trkpt lat="45.1042946624963" lon="11.785416958386802"><ele>4.5</ele><time>2026-04-04T13:29:28.986Z</time></trkpt><trkpt lat="45.10441974740645" lon="11.785331199607844"><ele>4.666666666666667</ele><time>2026-04-04T13:29:30.986Z</time></trkpt><trkpt lat="45.104487817246394" lon="11.785270828250692"><ele>4.833333333333334</ele><time>2026-04-04T13:29:31.986Z</time></trkpt><trkpt lat="45.10454281225838" lon="11.78522324405833"><ele>5.0</ele><time>2026-04-04T13:29:32.986Z</time></trkpt><trkpt lat="45.10462135603725" lon="11.785155503598116"><ele>5.0</ele><time>2026-04-04T13:29:34.986Z</time></trkpt><trkpt lat="45.10466706301784" lon="11.785075547260524"><ele>5.0</ele><time>2026-04-04T13:29:39.986Z</time></trkpt><trkpt lat="45.10477187503793" lon="11.78496833069412"><ele>5.0</ele><time>2026-04-04T13:29:41.986Z</time></trkpt><trkpt lat="45.10484372874975" lon="11.784893204993526"><ele>5.0</ele><time>2026-04-04T13:29:42.986Z</time></trkpt><trkpt lat="45.10491408690592" lon="11.784808113608797"><ele>5.0</ele><time>2026-04-04T13:29:43.986Z</time></trkpt><trkpt lat="45.1049888180003" lon="11.784719121911644"><ele>5.5</ele><time>2026-04-04T13:29:44.986Z</time></trkpt><trkpt lat="45.105075795466256" lon="11.784648714377521"><ele>6.0</ele><time>2026-04-04T13:29:45.986Z</time></trkpt><trkpt lat="45.10514689850421" lon="11.784569627790395"><ele>6.5</ele><time>2026-04-04T13:29:46.986Z</time></trkpt><trkpt lat="45.105212203571114" lon="11.784498504532769"><ele>7.0</ele><time>2026-04-04T13:29:47.986Z</time></trkpt><trkpt lat="45.10527742023689" lon="11.784427477463554"><ele>7.499999999999999</ele><time>2026-04-04T13:29:48.986Z</time></trkpt><trkpt lat="45.105340034809814" lon="11.78435928435705"><ele>8.0</ele><time>2026-04-04T13:29:49.986Z</time></trkpt><trkpt lat="45.10540142344799" lon="11.784292426402615"><ele>8.0</ele><time>2026-04-04T13:29:50.986Z</time></trkpt><trkpt lat="45.105456220150444" lon="11.78422400230688"><ele>8.0</ele><time>2026-04-04T13:29:51.986Z</time></trkpt><trkpt lat="45.105507520818584" lon="11.784167177187909"><ele>8.0</ele><time>2026-04-04T13:29:52.986Z</time></trkpt><trkpt lat="45.10560050083326" lon="11.784070558847203"><ele>8.0</ele><time>2026-04-04T13:29:54.986Z</time></trkpt><trkpt lat="45.10569318197864" lon="11.78396547678353"><ele>8.0</ele><time>2026-04-04T13:29:56.986Z</time></trkpt><trkpt lat="45.105787117382214" lon="11.783849071191492"><ele>7.999999999999999</ele><time>2026-04-04T13:29:58.986Z</time></trkpt><trkpt lat="45.105847542643495" lon="11.783792168849901"><ele>8.0</ele><time>2026-04-04T13:29:59.985Z</time></trkpt><trkpt lat="45.10591273991605" lon="11.783723010272592"><ele>8.0</ele><time>2026-04-04T13:30:00.985Z</time></trkpt><trkpt lat="45.105982794042944" lon="11.7836411088408"><ele>8.0</ele><time>2026-04-04T13:30:01.985Z</time></trkpt><trkpt lat="45.1060566500453" lon="11.783554934382956"><ele>7.999999999999999</ele><time>2026-04-04T13:30:02.985Z</time></trkpt><trkpt lat="45.10612825363803" lon="11.783472533034532"><ele>8.0</ele><time>2026-04-04T13:30:03.985Z</time></trkpt><trkpt lat="45.10619931869432" lon="11.783382327891754"><ele>8.0</ele><time>2026-04-04T13:30:04.985Z</time></trkpt><trkpt lat="45.10629060477806" lon="11.783280317218177"><ele>8.0</ele><time>2026-04-04T13:30:05.985Z</time></trkpt><trkpt lat="45.10638195448705" lon="11.783178620475073"><ele>8.0</ele><time>2026-04-04T13:30:06.985Z</time></trkpt><trkpt lat="45.10647289208324" lon="11.783067886448972"><ele>8.0</ele><time>2026-04-04T13:30:07.985Z</time></trkpt><trkpt lat="45.106566743684404" lon="11.782950630217005"><ele>8.0</ele><time>2026-04-04T13:30:08.985Z</time></trkpt><trkpt lat="45.106661014745036" lon="11.782839425303598"><ele>8.0</ele><time>2026-04-04T13:30:09.985Z</time></trkpt><trkpt lat="45.10675746505682" lon="11.782724518436265"><ele>8.0</ele><time>2026-04-04T13:30:10.985Z</time></trkpt><trkpt lat="45.10685456208016" lon="11.782607695483982"><ele>8.0</ele><time>2026-04-04T13:30:11.985Z</time></trkpt><trkpt lat="45.10695606878896" lon="11.782485067220009"><ele>8.0</ele><time>2026-04-04T13:30:12.985Z</time></trkpt><trkpt lat="45.10705736006907" lon="11.78235967030219"><ele>8.0</ele><time>2026-04-04T13:30:13.987Z</time></trkpt><trkpt lat="45.10716114151202" lon="11.782231494157385"><ele>8.0</ele><time>2026-04-04T13:30:14.987Z</time></trkpt><trkpt lat="45.107271229189244" lon="11.782110979054277"><ele>8.0</ele><time>2026-04-04T13:30:15.987Z</time></trkpt><trkpt lat="45.10738341594209" lon="11.781992834045875"><ele>7.0</ele><time>2026-04-04T13:30:16.986Z</time></trkpt><trkpt lat="45.10750162378522" lon="11.78187140172199"><ele>6.0</ele><time>2026-04-04T13:30:17.987Z</time></trkpt><trkpt lat="45.107624285450065" lon="11.781748124583318"><ele>5.0</ele><time>2026-04-04T13:30:18.986Z</time></trkpt><trkpt lat="45.107751891722685" lon="11.781619592170935"><ele>4.666666666666667</ele><time>2026-04-04T13:30:19.986Z</time></trkpt><trkpt lat="45.10788132254479" lon="11.781491832666365"><ele>4.333333333333333</ele><time>2026-04-04T13:30:20.987Z</time></trkpt><trkpt lat="45.108007091874796" lon="11.781372893575272"><ele>4.0</ele><time>2026-04-04T13:30:21.987Z</time></trkpt><trkpt lat="45.10826652740664" lon="11.781113994605727"><ele>4.0</ele><time>2026-04-04T13:30:23.987Z</time></trkpt><trkpt lat="45.108398003330805" lon="11.780976675925578"><ele>4.0</ele><time>2026-04-04T13:30:24.987Z</time></trkpt><trkpt lat="45.10854017520054" lon="11.780888198371265"><ele>4.0</ele><time>2026-04-04T13:30:25.986Z</time></trkpt><trkpt lat="45.10866636226876" lon="11.780769189939535"><ele>4.0</ele><time>2026-04-04T13:30:26.987Z</time></trkpt><trkpt lat="45.108789817688674" lon="11.780655734100195"><ele>4.0</ele><time>2026-04-04T13:30:27.987Z</time></trkpt><trkpt lat="45.108911349209016" lon="11.780542168488193"><ele>4.0</ele><time>2026-04-04T13:30:28.987Z</time></trkpt><trkpt lat="45.109025553233" lon="11.780432856821825"><ele>4.0</ele><time>2026-04-04T13:30:29.987Z</time></trkpt><trkpt lat="45.10913804413706" lon="11.780316949651299"><ele>4.333333333333333</ele><time>2026-04-04T13:30:30.987Z</time></trkpt><trkpt lat="45.109253935672584" lon="11.78020293952603"><ele>4.666666666666667</ele><time>2026-04-04T13:30:31.987Z</time></trkpt><trkpt lat="45.10938212515914" lon="11.780072707641132"><ele>5.0</ele><time>2026-04-04T13:30:32.987Z</time></trkpt><trkpt lat="45.1095125812385" lon="11.77993982681803"><ele>5.0</ele><time>2026-04-04T13:30:33.987Z</time></trkpt><trkpt lat="45.10964655568284" lon="11.779804912615882"><ele>5.0</ele><time>2026-04-04T13:30:34.987Z</time></trkpt><trkpt lat="45.109785296854405" lon="11.779671111465492"><ele>5.0</ele><time>2026-04-04T13:30:35.987Z</time></trkpt><trkpt lat="45.10993714005215" lon="11.779525586989422"><ele>5.0</ele><time>2026-04-04T13:30:36.987Z</time></trkpt><trkpt lat="45.11007835657182" lon="11.779386639815105"><ele>5.0</ele><time>2026-04-04T13:30:37.987Z</time></trkpt><trkpt lat="45.11022532131747" lon="11.779247418516794"><ele>5.0</ele><time>2026-04-04T13:30:38.987Z</time></trkpt><trkpt lat="45.11037304264723" lon="11.779116167229038"><ele>5.0</ele><time>2026-04-04T13:30:39.987Z</time></trkpt><trkpt lat="45.110514060219344" lon="11.778978529090299"><ele>5.0</ele><time>2026-04-04T13:30:40.987Z</time></trkpt><trkpt lat="45.11065022988407" lon="11.778844111738033"><ele>5.0</ele><time>2026-04-04T13:30:41.987Z</time></trkpt><trkpt lat="45.110784326915955" lon="11.77870258483338"><ele>5.0</ele><time>2026-04-04T13:30:42.987Z</time></trkpt><trkpt lat="45.11092377657916" lon="11.778569990335908"><ele>5.0</ele><time>2026-04-04T13:30:43.987Z</time></trkpt><trkpt lat="45.11106275956509" lon="11.778425608790347"><ele>5.0</ele><time>2026-04-04T13:30:44.987Z</time></trkpt><trkpt lat="45.11120485632579" lon="11.77827806969203"><ele>5.333333333333334</ele><time>2026-04-04T13:30:45.987Z</time></trkpt><trkpt lat="45.11134699167529" lon="11.778131320280046"><ele>5.666666666666667</ele><time>2026-04-04T13:30:46.987Z</time></trkpt><trkpt lat="45.11149345969113" lon="11.777990359114197"><ele>6.0</ele><time>2026-04-04T13:30:47.987Z</time></trkpt><trkpt lat="45.11164411960403" lon="11.77784554147524"><ele>5.0</ele><time>2026-04-04T13:30:48.987Z</time></trkpt><trkpt lat="45.11179069902365" lon="11.77769495798455"><ele>4.0</ele><time>2026-04-04T13:30:49.987Z</time></trkpt><trkpt lat="45.11193800070629" lon="11.777546385125415"><ele>3.0</ele><time>2026-04-04T13:30:50.987Z</time></trkpt><trkpt lat="45.11209312987574" lon="11.777393088316591"><ele>3.0</ele><time>2026-04-04T13:30:51.987Z</time></trkpt><trkpt lat="45.11224731043083" lon="11.77724310310961"><ele>3.0</ele><time>2026-04-04T13:30:52.987Z</time></trkpt><trkpt lat="45.112392421148286" lon="11.777093440626189"><ele>3.0</ele><time>2026-04-04T13:30:53.987Z</time></trkpt><trkpt lat="45.11254740764587" lon="11.776964884676225"><ele>3.666666666666667</ele><time>2026-04-04T13:30:54.987Z</time></trkpt><trkpt lat="45.112691514794456" lon="11.776824405922751"><ele>4.333333333333334</ele><time>2026-04-04T13:30:55.987Z</time></trkpt><trkpt lat="45.112839236723815" lon="11.77668040340449"><ele>5.0</ele><time>2026-04-04T13:30:56.987Z</time></trkpt><trkpt lat="45.11298474761882" lon="11.776542023855233"><ele>5.0</ele><time>2026-04-04T13:30:57.987Z</time></trkpt><trkpt lat="45.113135139555204" lon="11.776396670756059"><ele>5.0</ele><time>2026-04-04T13:30:58.987Z</time></trkpt><trkpt lat="45.11327999488888" lon="11.776256013022786"><ele>5.0</ele><time>2026-04-04T13:30:59.987Z</time></trkpt><trkpt lat="45.11343110690946" lon="11.77610443309918"><ele>5.333333333333334</ele><time>2026-04-04T13:31:00.986Z</time></trkpt><trkpt lat="45.113575650635866" lon="11.775960665264503"><ele>5.666666666666667</ele><time>2026-04-04T13:31:01.986Z</time></trkpt><trkpt lat="45.113718050568735" lon="11.775820081551055"><ele>6.0</ele><time>2026-04-04T13:31:02.986Z</time></trkpt><trkpt lat="45.11386086482832" lon="11.775680744763989"><ele>6.0</ele><time>2026-04-04T13:31:03.986Z</time></trkpt><trkpt lat="45.1139997834314" lon="11.775544519728971"><ele>6.0</ele><time>2026-04-04T13:31:04.986Z</time></trkpt><trkpt lat="45.114132960398926" lon="11.775411461772796"><ele>6.0</ele><time>2026-04-04T13:31:05.986Z</time></trkpt><trkpt lat="45.11427201880659" lon="11.775273528259945"><ele>5.666666666666667</ele><time>2026-04-04T13:31:06.986Z</time></trkpt><trkpt lat="45.1144013148588" lon="11.775140468331662"><ele>5.333333333333334</ele><time>2026-04-04T13:31:07.986Z</time></trkpt><trkpt lat="45.114532192061276" lon="11.775011626883312"><ele>5.0</ele><time>2026-04-04T13:31:08.986Z</time></trkpt><trkpt lat="45.1146552693278" lon="11.774886272495937"><ele>5.0</ele><time>2026-04-04T13:31:09.986Z</time></trkpt><trkpt lat="45.114796363666436" lon="11.77477530236174"><ele>5.0</ele><time>2026-04-04T13:31:10.986Z</time></trkpt><trkpt lat="45.11492885803182" lon="11.774644597920837"><ele>5.0</ele><time>2026-04-04T13:31:11.986Z</time></trkpt><trkpt lat="45.11505957008354" lon="11.774515680098643"><ele>5.333333333333334</ele><time>2026-04-04T13:31:12.986Z</time></trkpt><trkpt lat="45.115177493614254" lon="11.774354439194285"><ele>5.666666666666667</ele><time>2026-04-04T13:31:13.986Z</time></trkpt><trkpt lat="45.11531604786516" lon="11.77421894862447"><ele>6.0</ele><time>2026-04-04T13:31:14.986Z</time></trkpt><trkpt lat="45.11545069524329" lon="11.774082234430626"><ele>6.0</ele><time>2026-04-04T13:31:15.986Z</time></trkpt><trkpt lat="45.115588102167024" lon="11.773949423054434"><ele>6.0</ele><time>2026-04-04T13:31:16.986Z</time></trkpt><trkpt lat="45.115727173971365" lon="11.773809069834245"><ele>6.0</ele><time>2026-04-04T13:31:17.986Z</time></trkpt><trkpt lat="45.11586480215928" lon="11.773660160409449"><ele>5.666666666666667</ele><time>2026-04-04T13:31:18.986Z</time></trkpt><trkpt lat="45.11601796511865" lon="11.773560839416323"><ele>5.333333333333334</ele><time>2026-04-04T13:31:19.986Z</time></trkpt><trkpt lat="45.116154919882135" lon="11.773426243376104"><ele>5.0</ele><time>2026-04-04T13:31:20.986Z</time></trkpt><trkpt lat="45.11628684759902" lon="11.77329962387636"><ele>5.0</ele><time>2026-04-04T13:31:21.986Z</time></trkpt><trkpt lat="45.11641695297815" lon="11.77317616040679"><ele>5.0</ele><time>2026-04-04T13:31:22.986Z</time></trkpt><trkpt lat="45.1165401901456" lon="11.773059214602856"><ele>5.0</ele><time>2026-04-04T13:31:23.986Z</time></trkpt><trkpt lat="45.11665885988075" lon="11.77294501325635"><ele>5.0</ele><time>2026-04-04T13:31:24.986Z</time></trkpt><trkpt lat="45.116782608185694" lon="11.77282708081681"><ele>4.75</ele><time>2026-04-04T13:31:25.986Z</time></trkpt><trkpt lat="45.11690416058675" lon="11.772712292937653"><ele>4.5</ele><time>2026-04-04T13:31:26.986Z</time></trkpt><trkpt lat="45.11702331250179" lon="11.772599721083"><ele>4.25</ele><time>2026-04-04T13:31:27.986Z</time></trkpt><trkpt lat="45.11714209833503" lon="11.772487495065596"><ele>4.0</ele><time>2026-04-04T13:31:28.986Z</time></trkpt><trkpt lat="45.11725713638941" lon="11.772349730695682"><ele>4.0</ele><time>2026-04-04T13:31:29.986Z</time></trkpt><trkpt lat="45.117384878283175" lon="11.772232650936255"><ele>4.0</ele><time>2026-04-04T13:31:30.986Z</time></trkpt><trkpt lat="45.117513433423156" lon="11.772123006699237"><ele>4.0</ele><time>2026-04-04T13:31:31.986Z</time></trkpt><trkpt lat="45.117627843507705" lon="11.771987365046156"><ele>3.6666666666666665</ele><time>2026-04-04T13:31:32.986Z</time></trkpt><trkpt lat="45.11776621183452" lon="11.771898954762587"><ele>3.333333333333333</ele><time>2026-04-04T13:31:33.986Z</time></trkpt><trkpt lat="45.11789799170617" lon="11.771775494760112"><ele>3.0</ele><time>2026-04-04T13:31:34.986Z</time></trkpt><trkpt lat="45.11802771809833" lon="11.77164854509206"><ele>3.0</ele><time>2026-04-04T13:31:35.986Z</time></trkpt><trkpt lat="45.11815213606663" lon="11.77153374830019"><ele>3.0</ele><time>2026-04-04T13:31:36.986Z</time></trkpt><trkpt lat="45.118284980655694" lon="11.771408920331366"><ele>3.0</ele><time>2026-04-04T13:31:37.986Z</time></trkpt><trkpt lat="45.11841410210269" lon="11.771281670302548"><ele>2.6666666666666665</ele><time>2026-04-04T13:31:38.986Z</time></trkpt><trkpt lat="45.11854542686783" lon="11.771151950047416"><ele>2.333333333333333</ele><time>2026-04-04T13:31:39.986Z</time></trkpt><trkpt lat="45.11867204597928" lon="11.771023356332469"><ele>2.0</ele><time>2026-04-04T13:31:40.986Z</time></trkpt><trkpt lat="45.11880028238069" lon="11.770883736552385"><ele>2.0</ele><time>2026-04-04T13:31:41.986Z</time></trkpt><trkpt lat="45.11892758436995" lon="11.770758225802897"><ele>2.0</ele><time>2026-04-04T13:31:42.986Z</time></trkpt><trkpt lat="45.119058254300136" lon="11.770638552936253"><ele>2.0</ele><time>2026-04-04T13:31:43.986Z</time></trkpt><trkpt lat="45.1191955150949" lon="11.770524725089656"><ele>2.0</ele><time>2026-04-04T13:31:44.986Z</time></trkpt><trkpt lat="45.119326963984754" lon="11.77038980316369"><ele>2.0</ele><time>2026-04-04T13:31:45.986Z</time></trkpt><trkpt lat="45.11946959805535" lon="11.770261224615561"><ele>2.0</ele><time>2026-04-04T13:31:46.986Z</time></trkpt><trkpt lat="45.11960711701033" lon="11.77012334928744"><ele>2.0</ele><time>2026-04-04T13:31:47.986Z</time></trkpt><trkpt lat="45.119748319273135" lon="11.76997950710646"><ele>2.0</ele><time>2026-04-04T13:31:48.986Z</time></trkpt><trkpt lat="45.11989123860609" lon="11.769834515365545"><ele>2.0</ele><time>2026-04-04T13:31:49.986Z</time></trkpt><trkpt lat="45.12004075821267" lon="11.769682029339776"><ele>2.6666666666666665</ele><time>2026-04-04T13:31:50.986Z</time></trkpt><trkpt lat="45.120193806188965" lon="11.769523222824494"><ele>3.333333333333333</ele><time>2026-04-04T13:31:51.986Z</time></trkpt><trkpt lat="45.12034833832695" lon="11.769363487953475"><ele>4.0</ele><time>2026-04-04T13:31:52.986Z</time></trkpt><trkpt lat="45.120508286948336" lon="11.769203200256168"><ele>4.0</ele><time>2026-04-04T13:31:53.986Z</time></trkpt><trkpt lat="45.12068420579744" lon="11.769039268140762"><ele>4.0</ele><time>2026-04-04T13:31:54.986Z</time></trkpt><trkpt lat="45.12084055662878" lon="11.768891243324365"><ele>4.0</ele><time>2026-04-04T13:31:55.986Z</time></trkpt><trkpt lat="45.120997587839184" lon="11.768741686051245"><ele>4.0</ele><time>2026-04-04T13:31:56.986Z</time></trkpt><trkpt lat="45.121148473247914" lon="11.768592212414779"><ele>4.0</ele><time>2026-04-04T13:31:57.986Z</time></trkpt><trkpt lat="45.121305644044035" lon="11.768451754384701"><ele>4.0</ele><time>2026-04-04T13:31:58.986Z</time></trkpt><trkpt lat="45.12146557158737" lon="11.768315743433632"><ele>3.6666666666666665</ele><time>2026-04-04T13:31:59.986Z</time></trkpt><trkpt lat="45.12162284222433" lon="11.768174553540328"><ele>3.333333333333333</ele><time>2026-04-04T13:32:00.986Z</time></trkpt><trkpt lat="45.12178269076428" lon="11.768038723420629"><ele>3.0</ele><time>2026-04-04T13:32:01.986Z</time></trkpt><trkpt lat="45.12193969671735" lon="11.767908224927789"><ele>3.0</ele><time>2026-04-04T13:32:02.985Z</time></trkpt><trkpt lat="45.12210031898817" lon="11.76778041263129"><ele>3.0</ele><time>2026-04-04T13:32:03.985Z</time></trkpt><trkpt lat="45.12225523868527" lon="11.767652974697489"><ele>3.0</ele><time>2026-04-04T13:32:04.985Z</time></trkpt><trkpt lat="45.12241074257149" lon="11.767531109306873"><ele>2.0</ele><time>2026-04-04T13:32:05.985Z</time></trkpt><trkpt lat="45.122562783386996" lon="11.767402785326032"><ele>1.0</ele><time>2026-04-04T13:32:06.985Z</time></trkpt><trkpt lat="45.12272407615211" lon="11.767258907141809"><ele>0.0</ele><time>2026-04-04T13:32:07.985Z</time></trkpt><trkpt lat="45.12288598971264" lon="11.76713653855206"><ele>0.0</ele><time>2026-04-04T13:32:08.985Z</time></trkpt><trkpt lat="45.123036140313175" lon="11.767011905477254"><ele>0.0</ele><time>2026-04-04T13:32:09.985Z</time></trkpt><trkpt lat="45.12318798357903" lon="11.76688312976894"><ele>0.0</ele><time>2026-04-04T13:32:10.985Z</time></trkpt><trkpt lat="45.123330314509225" lon="11.766754577707456"><ele>1.0</ele><time>2026-04-04T13:32:11.985Z</time></trkpt><trkpt lat="45.12346813374084" lon="11.766630809766712"><ele>2.0</ele><time>2026-04-04T13:32:12.985Z</time></trkpt><trkpt lat="45.12360015175512" lon="11.766512327414627"><ele>3.0</ele><time>2026-04-04T13:32:13.985Z</time></trkpt><trkpt lat="45.12372653081471" lon="11.76639499380263"><ele>3.0</ele><time>2026-04-04T13:32:14.985Z</time></trkpt><trkpt lat="45.1238592454614" lon="11.766275605667019"><ele>3.0</ele><time>2026-04-04T13:32:15.985Z</time></trkpt><trkpt lat="45.12399006966845" lon="11.766154307385882"><ele>3.0</ele><time>2026-04-04T13:32:16.985Z</time></trkpt><trkpt lat="45.124128337491456" lon="11.766026024153177"><ele>3.0</ele><time>2026-04-04T13:32:17.985Z</time></trkpt><trkpt lat="45.124271321990385" lon="11.765895963454529"><ele>3.0</ele><time>2026-04-04T13:32:18.985Z</time></trkpt><trkpt lat="45.12442144760695" lon="11.765759686856132"><ele>3.0</ele><time>2026-04-04T13:32:19.986Z</time></trkpt><trkpt lat="45.12457275384179" lon="11.765617977286412"><ele>3.0</ele><time>2026-04-04T13:32:20.986Z</time></trkpt><trkpt lat="45.12473239833776" lon="11.765467959679519"><ele>3.0</ele><time>2026-04-04T13:32:21.986Z</time></trkpt><trkpt lat="45.12488932472489" lon="11.765322159860684"><ele>3.0</ele><time>2026-04-04T13:32:22.986Z</time></trkpt><trkpt lat="45.125045778609156" lon="11.765179604485912"><ele>3.333333333333333</ele><time>2026-04-04T13:32:23.986Z</time></trkpt><trkpt lat="45.12520045710967" lon="11.76503927716161"><ele>3.6666666666666665</ele><time>2026-04-04T13:32:24.986Z</time></trkpt><trkpt lat="45.12534981320698" lon="11.764903144402316"><ele>4.0</ele><time>2026-04-04T13:32:25.987Z</time></trkpt><trkpt lat="45.125491467881005" lon="11.764778324495461"><ele>4.0</ele><time>2026-04-04T13:32:26.986Z</time></trkpt><trkpt lat="45.12562598803793" lon="11.764653261891441"><ele>4.0</ele><time>2026-04-04T13:32:27.986Z</time></trkpt><trkpt lat="45.12576097209251" lon="11.764524090423878"><ele>4.0</ele><time>2026-04-04T13:32:28.986Z</time></trkpt><trkpt lat="45.12590165039374" lon="11.764396506896528"><ele>4.0</ele><time>2026-04-04T13:32:29.986Z</time></trkpt><trkpt lat="45.12605084785908" lon="11.764261025966809"><ele>4.0</ele><time>2026-04-04T13:32:30.986Z</time></trkpt><trkpt lat="45.12621105513918" lon="11.764154628942743"><ele>4.0</ele><time>2026-04-04T13:32:31.986Z</time></trkpt><trkpt lat="45.12636738066461" lon="11.764016091876915"><ele>4.0</ele><time>2026-04-04T13:32:32.986Z</time></trkpt><trkpt lat="45.12653517354221" lon="11.763869541790196"><ele>4.0</ele><time>2026-04-04T13:32:33.986Z</time></trkpt><trkpt lat="45.12670654664203" lon="11.763720023496708"><ele>4.0</ele><time>2026-04-04T13:32:34.986Z</time></trkpt><trkpt lat="45.126863625858924" lon="11.763582976205505"><ele>4.0</ele><time>2026-04-04T13:32:35.986Z</time></trkpt><trkpt lat="45.12701655016638" lon="11.763448819767738"><ele>4.0</ele><time>2026-04-04T13:32:36.986Z</time></trkpt><trkpt lat="45.12716526560282" lon="11.763317842414079"><ele>4.0</ele><time>2026-04-04T13:32:37.986Z</time></trkpt><trkpt lat="45.12730499751356" lon="11.763194777086268"><ele>4.0</ele><time>2026-04-04T13:32:38.986Z</time></trkpt><trkpt lat="45.1274368929731" lon="11.763053138386786"><ele>4.0</ele><time>2026-04-04T13:32:39.986Z</time></trkpt><trkpt lat="45.127579892677495" lon="11.762929838921579"><ele>4.0</ele><time>2026-04-04T13:32:40.986Z</time></trkpt><trkpt lat="45.12772947874292" lon="11.762802416577772"><ele>3.6666666666666665</ele><time>2026-04-04T13:32:41.986Z</time></trkpt><trkpt lat="45.127879681219724" lon="11.762669809434467"><ele>3.333333333333333</ele><time>2026-04-04T13:32:42.986Z</time></trkpt><trkpt lat="45.12802881217184" lon="11.762540871061685"><ele>3.0</ele><time>2026-04-04T13:32:43.986Z</time></trkpt><trkpt lat="45.128182438706645" lon="11.76241016441694"><ele>3.666666666666667</ele><time>2026-04-04T13:32:44.986Z</time></trkpt><trkpt lat="45.128333729344995" lon="11.76227631799268"><ele>4.333333333333334</ele><time>2026-04-04T13:32:45.986Z</time></trkpt><trkpt lat="45.128480542654835" lon="11.762147507511754"><ele>5.0</ele><time>2026-04-04T13:32:46.986Z</time></trkpt><trkpt lat="45.12862574812275" lon="11.762023606507075"><ele>5.0</ele><time>2026-04-04T13:32:47.986Z</time></trkpt><trkpt lat="45.128764640054634" lon="11.761903681096321"><ele>5.0</ele><time>2026-04-04T13:32:48.986Z</time></trkpt><trkpt lat="45.12889846485272" lon="11.76177565338754"><ele>5.0</ele><time>2026-04-04T13:32:49.986Z</time></trkpt><trkpt lat="45.129027554314334" lon="11.761656530548754"><ele>4.666666666666667</ele><time>2026-04-04T13:32:50.986Z</time></trkpt><trkpt lat="45.12916512932531" lon="11.761539102872737"><ele>4.333333333333333</ele><time>2026-04-04T13:32:51.986Z</time></trkpt><trkpt lat="45.129306239520666" lon="11.761438811546649"><ele>4.0</ele><time>2026-04-04T13:32:52.986Z</time></trkpt><trkpt lat="45.12944081826174" lon="11.761316720738714"><ele>4.0</ele><time>2026-04-04T13:32:53.986Z</time></trkpt><trkpt lat="45.1295734681702" lon="11.761206208404985"><ele>4.0</ele><time>2026-04-04T13:32:54.986Z</time></trkpt><trkpt lat="45.1297050878837" lon="11.761087083700387"><ele>4.0</ele><time>2026-04-04T13:32:55.986Z</time></trkpt><trkpt lat="45.12983882377063" lon="11.760957763317164"><ele>4.333333333333333</ele><time>2026-04-04T13:32:56.986Z</time></trkpt><trkpt lat="45.12997002206052" lon="11.760833977538518"><ele>4.666666666666667</ele><time>2026-04-04T13:32:57.986Z</time></trkpt><trkpt lat="45.13011603928343" lon="11.760749887765943"><ele>5.0</ele><time>2026-04-04T13:32:58.986Z</time></trkpt><trkpt lat="45.130244019289684" lon="11.760633617371818"><ele>5.0</ele><time>2026-04-04T13:32:59.986Z</time></trkpt><trkpt lat="45.1303703134432" lon="11.760523390926977"><ele>5.0</ele><time>2026-04-04T13:33:00.986Z</time></trkpt><trkpt lat="45.1304995713096" lon="11.760410472711085"><ele>5.0</ele><time>2026-04-04T13:33:01.986Z</time></trkpt><trkpt lat="45.130624752535866" lon="11.76029562922334"><ele>5.0</ele><time>2026-04-04T13:33:02.986Z</time></trkpt><trkpt lat="45.13075214536661" lon="11.760174675981933"><ele>4.75</ele><time>2026-04-04T13:33:03.986Z</time></trkpt><trkpt lat="45.130873129142785" lon="11.760062251528545"><ele>4.5</ele><time>2026-04-04T13:33:04.986Z</time></trkpt><trkpt lat="45.1309958468898" lon="11.759946373018616"><ele>4.25</ele><time>2026-04-04T13:33:05.985Z</time></trkpt><trkpt lat="45.131122436347226" lon="11.75982962969495"><ele>4.0</ele><time>2026-04-04T13:33:06.985Z</time></trkpt><trkpt lat="45.131252219290204" lon="11.75971360753132"><ele>4.0</ele><time>2026-04-04T13:33:07.985Z</time></trkpt><trkpt lat="45.131379702897924" lon="11.759598745189862"><ele>4.0</ele><time>2026-04-04T13:33:08.985Z</time></trkpt><trkpt lat="45.131510263488245" lon="11.75947832128381"><ele>4.0</ele><time>2026-04-04T13:33:09.985Z</time></trkpt><trkpt lat="45.131644876694985" lon="11.759358580524585"><ele>4.666666666666666</ele><time>2026-04-04T13:33:10.985Z</time></trkpt><trkpt lat="45.1317862231804" lon="11.759238514899613"><ele>5.333333333333333</ele><time>2026-04-04T13:33:11.985Z</time></trkpt><trkpt lat="45.131924356647836" lon="11.759120057006822"><ele>6.0</ele><time>2026-04-04T13:33:12.985Z</time></trkpt><trkpt lat="45.13206540378748" lon="11.75900032606947"><ele>6.0</ele><time>2026-04-04T13:33:13.985Z</time></trkpt><trkpt lat="45.13220428825302" lon="11.758884117720292"><ele>6.0</ele><time>2026-04-04T13:33:14.985Z</time></trkpt><trkpt lat="45.13234547829659" lon="11.758766246659777"><ele>6.0</ele><time>2026-04-04T13:33:15.985Z</time></trkpt><trkpt lat="45.132488814504626" lon="11.758645134589424"><ele>5.333333333333333</ele><time>2026-04-04T13:33:16.985Z</time></trkpt><trkpt lat="45.132633430093165" lon="11.758521526484337"><ele>4.666666666666666</ele><time>2026-04-04T13:33:17.985Z</time></trkpt><trkpt lat="45.132772415665436" lon="11.758390637657687"><ele>4.0</ele><time>2026-04-04T13:33:18.985Z</time></trkpt><trkpt lat="45.13291942823645" lon="11.7582660780628"><ele>4.0</ele><time>2026-04-04T13:33:19.985Z</time></trkpt><trkpt lat="45.13307307771217" lon="11.7581412752596"><ele>4.0</ele><time>2026-04-04T13:33:20.985Z</time></trkpt><trkpt lat="45.13322819396966" lon="11.758000760322217"><ele>4.0</ele><time>2026-04-04T13:33:21.985Z</time></trkpt><trkpt lat="45.13337940351805" lon="11.757860676853172"><ele>4.333333333333333</ele><time>2026-04-04T13:33:22.985Z</time></trkpt><trkpt lat="45.13352581141733" lon="11.757730692398694"><ele>4.666666666666667</ele><time>2026-04-04T13:33:23.985Z</time></trkpt><trkpt lat="45.13366808821626" lon="11.757611183017305"><ele>5.0</ele><time>2026-04-04T13:33:24.985Z</time></trkpt><trkpt lat="45.133779246460485" lon="11.757501156820403"><ele>5.0</ele><time>2026-04-04T13:33:25.985Z</time></trkpt><trkpt lat="45.13389423786351" lon="11.757403784455013"><ele>5.0</ele><time>2026-04-04T13:33:26.985Z</time></trkpt><trkpt lat="45.13399710650187" lon="11.7573149723428"><ele>5.0</ele><time>2026-04-04T13:33:27.985Z</time></trkpt><trkpt lat="45.13411124635526" lon="11.757225145672306"><ele>5.0</ele><time>2026-04-04T13:33:28.985Z</time></trkpt><trkpt lat="45.1342293657289" lon="11.757141378189424"><ele>5.25</ele><time>2026-04-04T13:33:29.985Z</time></trkpt><trkpt lat="45.13435142485854" lon="11.757069296832245"><ele>5.5</ele><time>2026-04-04T13:33:30.985Z</time></trkpt><trkpt lat="45.13447388431496" lon="11.75700679044979"><ele>5.75</ele><time>2026-04-04T13:33:31.985Z</time></trkpt><trkpt lat="45.134598718164376" lon="11.756952471291767"><ele>6.0</ele><time>2026-04-04T13:33:32.985Z</time></trkpt><trkpt lat="45.134726616386104" lon="11.756910430174614"><ele>6.25</ele><time>2026-04-04T13:33:33.985Z</time></trkpt><trkpt lat="45.1348600233238" lon="11.756863844656735"><ele>6.5</ele><time>2026-04-04T13:33:34.985Z</time></trkpt><trkpt lat="45.1350084677085" lon="11.756856701472286"><ele>6.75</ele><time>2026-04-04T13:33:35.985Z</time></trkpt><trkpt lat="45.13516170811952" lon="11.756861924991902"><ele>7.0</ele><time>2026-04-04T13:33:36.985Z</time></trkpt><trkpt lat="45.135311019299245" lon="11.756866718090155"><ele>7.0</ele><time>2026-04-04T13:33:37.985Z</time></trkpt><trkpt lat="45.13546658214663" lon="11.756872838895918"><ele>7.0</ele><time>2026-04-04T13:33:38.985Z</time></trkpt><trkpt lat="45.13561858403028" lon="11.75687254186763"><ele>7.0</ele><time>2026-04-04T13:33:39.985Z</time></trkpt><trkpt lat="45.13577085234348" lon="11.756866404535018"><ele>7.0</ele><time>2026-04-04T13:33:40.985Z</time></trkpt><trkpt lat="45.13591762566289" lon="11.756869284386637"><ele>7.0</ele><time>2026-04-04T13:33:41.985Z</time></trkpt><trkpt lat="45.13606045245906" lon="11.756873660415167"><ele>7.0</ele><time>2026-04-04T13:33:42.985Z</time></trkpt><trkpt lat="45.13620334288728" lon="11.756879829762342"><ele>7.0</ele><time>2026-04-04T13:33:43.985Z</time></trkpt><trkpt lat="45.1363488665198" lon="11.756880643483733"><ele>7.25</ele><time>2026-04-04T13:33:44.985Z</time></trkpt><trkpt lat="45.13649538357619" lon="11.756884336958015"><ele>7.5</ele><time>2026-04-04T13:33:45.985Z</time></trkpt><trkpt lat="45.1366448737065" lon="11.756889960279851"><ele>7.75</ele><time>2026-04-04T13:33:46.985Z</time></trkpt><trkpt lat="45.13679398332127" lon="11.7568927204129"><ele>8.0</ele><time>2026-04-04T13:33:47.985Z</time></trkpt><trkpt lat="45.13693821052756" lon="11.756898533897555"><ele>7.25</ele><time>2026-04-04T13:33:48.985Z</time></trkpt><trkpt lat="45.13707711888893" lon="11.756900924213427"><ele>6.5</ele><time>2026-04-04T13:33:49.985Z</time></trkpt><trkpt lat="45.13721459902357" lon="11.75690361333218"><ele>5.75</ele><time>2026-04-04T13:33:50.985Z</time></trkpt><trkpt lat="45.137354868276866" lon="11.756909538676915"><ele>5.0</ele><time>2026-04-04T13:33:51.985Z</time></trkpt><trkpt lat="45.13749678743521" lon="11.756907683653015"><ele>5.0</ele><time>2026-04-04T13:33:52.985Z</time></trkpt><trkpt lat="45.137642003073985" lon="11.75690676124853"><ele>5.0</ele><time>2026-04-04T13:33:53.985Z</time></trkpt><trkpt lat="45.1377803326115" lon="11.756906354464173"><ele>5.0</ele><time>2026-04-04T13:33:54.985Z</time></trkpt><trkpt lat="45.13792200273696" lon="11.756908414168192"><ele>5.0</ele><time>2026-04-04T13:33:55.985Z</time></trkpt><trkpt lat="45.13806253761918" lon="11.756908872278265"><ele>5.0</ele><time>2026-04-04T13:33:56.985Z</time></trkpt><trkpt lat="45.1382013817601" lon="11.756915886427294"><ele>5.0</ele><time>2026-04-04T13:33:57.985Z</time></trkpt><trkpt lat="45.138344334710546" lon="11.75691639195505"><ele>5.0</ele><time>2026-04-04T13:33:58.985Z</time></trkpt><trkpt lat="45.138485815745014" lon="11.75691884073967"><ele>5.0</ele><time>2026-04-04T13:33:59.985Z</time></trkpt><trkpt lat="45.13864312728258" lon="11.756921786058793"><ele>4.666666666666667</ele><time>2026-04-04T13:34:00.985Z</time></trkpt><trkpt lat="45.138811112189366" lon="11.756920556512629"><ele>4.333333333333333</ele><time>2026-04-04T13:34:01.985Z</time></trkpt><trkpt lat="45.13896969763453" lon="11.756918924469124"><ele>4.0</ele><time>2026-04-04T13:34:02.985Z</time></trkpt><trkpt lat="45.13912947907412" lon="11.756922782960556"><ele>3.333333333333333</ele><time>2026-04-04T13:34:03.985Z</time></trkpt><trkpt lat="45.13929061719681" lon="11.756929772329872"><ele>2.6666666666666665</ele><time>2026-04-04T13:34:04.985Z</time></trkpt><trkpt lat="45.139450104458376" lon="11.756940413387785"><ele>2.0</ele><time>2026-04-04T13:34:05.985Z</time></trkpt><trkpt lat="45.13960727920632" lon="11.756943478542153"><ele>2.0</ele><time>2026-04-04T13:34:06.985Z</time></trkpt><trkpt lat="45.13975775864176" lon="11.756950925514278"><ele>2.0</ele><time>2026-04-04T13:34:07.984Z</time></trkpt><trkpt lat="45.13991536464736" lon="11.756947809378214"><ele>2.0</ele><time>2026-04-04T13:34:08.984Z</time></trkpt><trkpt lat="45.1400759937298" lon="11.756942010634512"><ele>2.333333333333333</ele><time>2026-04-04T13:34:09.984Z</time></trkpt><trkpt lat="45.14024318325806" lon="11.756940569651825"><ele>2.6666666666666665</ele><time>2026-04-04T13:34:10.984Z</time></trkpt><trkpt lat="45.14040372839444" lon="11.756947845419782"><ele>3.0</ele><time>2026-04-04T13:34:11.984Z</time></trkpt><trkpt lat="45.140565805717735" lon="11.756949706476751"><ele>3.333333333333333</ele><time>2026-04-04T13:34:12.984Z</time></trkpt><trkpt lat="45.14073018938224" lon="11.756955951889804"><ele>3.6666666666666665</ele><time>2026-04-04T13:34:13.984Z</time></trkpt><trkpt lat="45.140910774539336" lon="11.756949013054703"><ele>4.0</ele><time>2026-04-04T13:34:14.984Z</time></trkpt><trkpt lat="45.14108140655809" lon="11.7569568042162"><ele>4.0</ele><time>2026-04-04T13:34:15.984Z</time></trkpt><trkpt lat="45.141254655338116" lon="11.756960304345522"><ele>4.0</ele><time>2026-04-04T13:34:16.984Z</time></trkpt><trkpt lat="45.141424267162186" lon="11.75696513894016"><ele>4.0</ele><time>2026-04-04T13:34:17.984Z</time></trkpt><trkpt lat="45.14159229869484" lon="11.756965062365172"><ele>3.5</ele><time>2026-04-04T13:34:18.984Z</time></trkpt><trkpt lat="45.14174304239382" lon="11.756970468243132"><ele>3.0</ele><time>2026-04-04T13:34:19.984Z</time></trkpt><trkpt lat="45.14188372767747" lon="11.756970576066612"><ele>2.5</ele><time>2026-04-04T13:34:20.984Z</time></trkpt><trkpt lat="45.14202848293557" lon="11.756972544931747"><ele>2.0</ele><time>2026-04-04T13:34:21.984Z</time></trkpt><trkpt lat="45.142174726243034" lon="11.756980109723317"><ele>2.0</ele><time>2026-04-04T13:34:22.984Z</time></trkpt><trkpt lat="45.14232387019742" lon="11.756983656584524"><ele>2.0</ele><time>2026-04-04T13:34:23.984Z</time></trkpt><trkpt lat="45.14247334820153" lon="11.756990495391268"><ele>2.0</ele><time>2026-04-04T13:34:24.984Z</time></trkpt><trkpt lat="45.14264054656826" lon="11.756993946643092"><ele>2.25</ele><time>2026-04-04T13:34:25.986Z</time></trkpt><trkpt lat="45.142796873267486" lon="11.756995306397354"><ele>2.5</ele><time>2026-04-04T13:34:26.985Z</time></trkpt><trkpt lat="45.14294541948327" lon="11.75700134604781"><ele>2.75</ele><time>2026-04-04T13:34:27.985Z</time></trkpt><trkpt lat="45.14308904140029" lon="11.75700338104567"><ele>3.0</ele><time>2026-04-04T13:34:28.986Z</time></trkpt><trkpt lat="45.143215717695455" lon="11.757006772234051"><ele>3.4</ele><time>2026-04-04T13:34:29.986Z</time></trkpt><trkpt lat="45.143333949037356" lon="11.757010326493845"><ele>3.8</ele><time>2026-04-04T13:34:30.986Z</time></trkpt><trkpt lat="45.14344385961053" lon="11.757019969218536"><ele>4.2</ele><time>2026-04-04T13:34:31.985Z</time></trkpt><trkpt lat="45.14353894809951" lon="11.757027359900494"><ele>4.6</ele><time>2026-04-04T13:34:32.986Z</time></trkpt><trkpt lat="45.14363365013411" lon="11.75703129051638"><ele>5.0</ele><time>2026-04-04T13:34:33.986Z</time></trkpt><trkpt lat="45.14372298415517" lon="11.757031865129568"><ele>5.0</ele><time>2026-04-04T13:34:34.986Z</time></trkpt><trkpt lat="45.14380371961949" lon="11.757034139000135"><ele>5.0</ele><time>2026-04-04T13:34:35.986Z</time></trkpt><trkpt lat="45.14387492041107" lon="11.757034072403998"><ele>5.0</ele><time>2026-04-04T13:34:36.986Z</time></trkpt><trkpt lat="45.14399079768238" lon="11.75703772006868"><ele>5.0</ele><time>2026-04-04T13:34:38.985Z</time></trkpt><trkpt lat="45.14407889438959" lon="11.757032265932072"><ele>5.0</ele><time>2026-04-04T13:34:40.985Z</time></trkpt><trkpt lat="45.14416442500692" lon="11.757014202166213"><ele>5.0</ele><time>2026-04-04T13:35:07.967Z</time></trkpt><trkpt lat="45.144232305736566" lon="11.757010857685984"><ele>4.8</ele><time>2026-04-04T13:35:09.966Z</time></trkpt><trkpt lat="45.14429723046201" lon="11.75701486664969"><ele>4.6</ele><time>2026-04-04T13:35:11.965Z</time></trkpt><trkpt lat="45.14437823758298" lon="11.757012521695566"><ele>4.4</ele><time>2026-04-04T13:35:13.964Z</time></trkpt><trkpt lat="45.14448258639815" lon="11.757010074148347"><ele>4.2</ele><time>2026-04-04T13:35:15.963Z</time></trkpt><trkpt lat="45.14458072263349" lon="11.757014470935525"><ele>4.0</ele><time>2026-04-04T13:35:17.962Z</time></trkpt><trkpt lat="45.1446935956133" lon="11.757011388737439"><ele>3.9999999999999996</ele><time>2026-04-04T13:35:19.961Z</time></trkpt><trkpt lat="45.14476486359169" lon="11.75701247200694"><ele>4.0</ele><time>2026-04-04T13:35:20.961Z</time></trkpt><trkpt lat="45.14483712686707" lon="11.757020708015322"><ele>4.0</ele><time>2026-04-04T13:35:21.961Z</time></trkpt><trkpt lat="45.14491746558677" lon="11.757022919934002"><ele>4.0</ele><time>2026-04-04T13:35:22.961Z</time></trkpt><trkpt lat="45.14500336850944" lon="11.757021978411965"><ele>3.9999999999999996</ele><time>2026-04-04T13:35:23.96Z</time></trkpt><trkpt lat="45.14509276873592" lon="11.757019714763626"><ele>4.0</ele><time>2026-04-04T13:35:24.96Z</time></trkpt><trkpt lat="45.14518703948232" lon="11.757021835607516"><ele>4.0</ele><time>2026-04-04T13:35:25.96Z</time></trkpt><trkpt lat="45.14528481136922" lon="11.757017493994447"><ele>4.0</ele><time>2026-04-04T13:35:26.96Z</time></trkpt><trkpt lat="45.14538971728046" lon="11.757015816244243"><ele>4.0</ele><time>2026-04-04T13:35:27.959Z</time></trkpt><trkpt lat="45.14549575715795" lon="11.757014757224013"><ele>4.0</ele><time>2026-04-04T13:35:28.959Z</time></trkpt><trkpt lat="45.145616941330054" lon="11.757014619832178"><ele>4.0</ele><time>2026-04-04T13:35:29.959Z</time></trkpt><trkpt lat="45.14574683729336" lon="11.75701783644964"><ele>4.0</ele><time>2026-04-04T13:35:30.959Z</time></trkpt><trkpt lat="45.14587681734304" lon="11.757014601674886"><ele>4.0</ele><time>2026-04-04T13:35:31.959Z</time></trkpt><trkpt lat="45.14600635396899" lon="11.757010058252781"><ele>4.0</ele><time>2026-04-04T13:35:32.958Z</time></trkpt><trkpt lat="45.14613318444578" lon="11.75700488437639"><ele>4.0</ele><time>2026-04-04T13:35:33.958Z</time></trkpt><trkpt lat="45.146265702454926" lon="11.757003234067833"><ele>4.0</ele><time>2026-04-04T13:35:34.958Z</time></trkpt><trkpt lat="45.14640529154878" lon="11.7570018344843"><ele>4.0</ele><time>2026-04-04T13:35:35.958Z</time></trkpt><trkpt lat="45.14654671218307" lon="11.75699781840629"><ele>4.0</ele><time>2026-04-04T13:35:36.958Z</time></trkpt><trkpt lat="45.14668900864921" lon="11.756994648131466"><ele>4.0</ele><time>2026-04-04T13:35:37.958Z</time></trkpt><trkpt lat="45.1468325012095" lon="11.756995423461"><ele>4.0</ele><time>2026-04-04T13:35:38.958Z</time></trkpt><trkpt lat="45.14697281803656" lon="11.756992072897308"><ele>4.0</ele><time>2026-04-04T13:35:39.958Z</time></trkpt><trkpt lat="45.14712012802655" lon="11.756987525291345"><ele>4.0</ele><time>2026-04-04T13:35:40.957Z</time></trkpt><trkpt lat="45.147267932648376" lon="11.756975086256446"><ele>4.0</ele><time>2026-04-04T13:35:41.957Z</time></trkpt><trkpt lat="45.14741839670337" lon="11.75696929854426"><ele>4.0</ele><time>2026-04-04T13:35:42.957Z</time></trkpt><trkpt lat="45.14756807382954" lon="11.756961452575478"><ele>4.0</ele><time>2026-04-04T13:35:43.957Z</time></trkpt><trkpt lat="45.14772759325661" lon="11.756956937686935"><ele>4.0</ele><time>2026-04-04T13:35:44.957Z</time></trkpt><trkpt lat="45.14789154556739" lon="11.756955879386382"><ele>4.0</ele><time>2026-04-04T13:35:45.957Z</time></trkpt><trkpt lat="45.1480548351188" lon="11.756942077903785"><ele>4.0</ele><time>2026-04-04T13:35:46.957Z</time></trkpt><trkpt lat="45.148225071236894" lon="11.756938814243519"><ele>4.0</ele><time>2026-04-04T13:35:47.957Z</time></trkpt><trkpt lat="45.148400690932114" lon="11.756950984340332"><ele>3.6666666666666665</ele><time>2026-04-04T13:35:48.957Z</time></trkpt><trkpt lat="45.14857607764042" lon="11.756946943332485"><ele>3.333333333333333</ele><time>2026-04-04T13:35:49.957Z</time></trkpt><trkpt lat="45.14874662200234" lon="11.75694301389168"><ele>3.0</ele><time>2026-04-04T13:35:50.957Z</time></trkpt><trkpt lat="45.14892563571648" lon="11.75691582951486"><ele>2.6666666666666665</ele><time>2026-04-04T13:35:51.957Z</time></trkpt><trkpt lat="45.14910157601572" lon="11.756912364441614"><ele>2.333333333333333</ele><time>2026-04-04T13:35:52.957Z</time></trkpt><trkpt lat="45.14927364360988" lon="11.756930871023695"><ele>2.0</ele><time>2026-04-04T13:35:53.956Z</time></trkpt><trkpt lat="45.14944896111952" lon="11.756906797222507"><ele>2.0</ele><time>2026-04-04T13:35:54.956Z</time></trkpt><trkpt lat="45.14962692861621" lon="11.756910214513086"><ele>2.0</ele><time>2026-04-04T13:35:55.956Z</time></trkpt><trkpt lat="45.149802570486045" lon="11.756901267232463"><ele>2.0</ele><time>2026-04-04T13:35:56.956Z</time></trkpt><trkpt lat="45.149984494927324" lon="11.756896996432934"><ele>2.0</ele><time>2026-04-04T13:35:57.956Z</time></trkpt><trkpt lat="45.150165304424384" lon="11.756896142343958"><ele>2.0</ele><time>2026-04-04T13:35:58.956Z</time></trkpt><trkpt lat="45.150342841727955" lon="11.756887306799063"><ele>2.0</ele><time>2026-04-04T13:35:59.956Z</time></trkpt><trkpt lat="45.15052263933599" lon="11.756878612974438"><ele>2.0</ele><time>2026-04-04T13:36:00.956Z</time></trkpt><trkpt lat="45.15070088801799" lon="11.756898522479588"><ele>2.0</ele><time>2026-04-04T13:36:01.956Z</time></trkpt><trkpt lat="45.150881428916236" lon="11.756894887423762"><ele>2.0</ele><time>2026-04-04T13:36:02.956Z</time></trkpt><trkpt lat="45.15106582609622" lon="11.75689111322173"><ele>1.6666666666666665</ele><time>2026-04-04T13:36:03.956Z</time></trkpt><trkpt lat="45.15125023269622" lon="11.756886475154253"><ele>1.3333333333333333</ele><time>2026-04-04T13:36:04.956Z</time></trkpt><trkpt lat="45.151446787332134" lon="11.756860145871828"><ele>1.0</ele><time>2026-04-04T13:36:05.956Z</time></trkpt><trkpt lat="45.151639440302525" lon="11.756862030798478"><ele>1.0</ele><time>2026-04-04T13:36:06.956Z</time></trkpt><trkpt lat="45.151838572713764" lon="11.756867356116938"><ele>1.0</ele><time>2026-04-04T13:36:07.956Z</time></trkpt><trkpt lat="45.15204255213916" lon="11.756859579691964"><ele>1.0</ele><time>2026-04-04T13:36:08.956Z</time></trkpt><trkpt lat="45.15222769756378" lon="11.756861458172324"><ele>1.3333333333333333</ele><time>2026-04-04T13:36:09.956Z</time></trkpt><trkpt lat="45.152408044674075" lon="11.756846296313922"><ele>1.6666666666666665</ele><time>2026-04-04T13:36:10.956Z</time></trkpt><trkpt lat="45.15258625981099" lon="11.75683338580145"><ele>2.0</ele><time>2026-04-04T13:36:11.956Z</time></trkpt><trkpt lat="45.15275873236012" lon="11.75683380206087"><ele>2.0</ele><time>2026-04-04T13:36:12.956Z</time></trkpt><trkpt lat="45.15292703456301" lon="11.756823893054056"><ele>2.0</ele><time>2026-04-04T13:36:13.956Z</time></trkpt><trkpt lat="45.153088517051465" lon="11.756825342170382"><ele>2.0</ele><time>2026-04-04T13:36:14.956Z</time></trkpt><trkpt lat="45.15323938433554" lon="11.756828079842604"><ele>2.0</ele><time>2026-04-04T13:36:15.956Z</time></trkpt><trkpt lat="45.153387100061096" lon="11.756825380393893"><ele>2.0</ele><time>2026-04-04T13:36:16.955Z</time></trkpt><trkpt lat="45.153526541890585" lon="11.75682202224233"><ele>2.0</ele><time>2026-04-04T13:36:17.955Z</time></trkpt><trkpt lat="45.15366750636138" lon="11.756827315663436"><ele>2.0</ele><time>2026-04-04T13:36:18.955Z</time></trkpt><trkpt lat="45.153811505763784" lon="11.756822938705898"><ele>2.0</ele><time>2026-04-04T13:36:19.955Z</time></trkpt><trkpt lat="45.15395473536105" lon="11.756818881461381"><ele>2.0</ele><time>2026-04-04T13:36:20.955Z</time></trkpt><trkpt lat="45.154101869770685" lon="11.756811307945078"><ele>2.0</ele><time>2026-04-04T13:36:21.955Z</time></trkpt><trkpt lat="45.15424883721269" lon="11.756807693318688"><ele>2.0</ele><time>2026-04-04T13:36:22.955Z</time></trkpt><trkpt lat="45.154395627656015" lon="11.756807846008686"><ele>2.333333333333333</ele><time>2026-04-04T13:36:23.955Z</time></trkpt><trkpt lat="45.15455464000683" lon="11.756802166703004"><ele>2.6666666666666665</ele><time>2026-04-04T13:36:24.955Z</time></trkpt><trkpt lat="45.154710204364925" lon="11.756796245775199"><ele>3.0</ele><time>2026-04-04T13:36:25.955Z</time></trkpt><trkpt lat="45.15486402133554" lon="11.756791075286978"><ele>2.6666666666666665</ele><time>2026-04-04T13:36:26.955Z</time></trkpt><trkpt lat="45.15502627490887" lon="11.756783275983498"><ele>2.333333333333333</ele><time>2026-04-04T13:36:27.955Z</time></trkpt><trkpt lat="45.15518836483895" lon="11.756805871290739"><ele>2.0</ele><time>2026-04-04T13:36:28.955Z</time></trkpt><trkpt lat="45.15535140973173" lon="11.756798653642152"><ele>2.0</ele><time>2026-04-04T13:36:29.955Z</time></trkpt><trkpt lat="45.15551713869498" lon="11.756794600828963"><ele>2.0</ele><time>2026-04-04T13:36:30.955Z</time></trkpt><trkpt lat="45.1556856162751" lon="11.756788665370545"><ele>2.0</ele><time>2026-04-04T13:36:31.957Z</time></trkpt><trkpt lat="45.15585733646809" lon="11.756784807398462"><ele>2.0</ele><time>2026-04-04T13:36:32.957Z</time></trkpt><trkpt lat="45.15603839141396" lon="11.756777720645779"><ele>2.0</ele><time>2026-04-04T13:36:33.957Z</time></trkpt><trkpt lat="45.15622576981857" lon="11.756770942685161"><ele>2.0</ele><time>2026-04-04T13:36:34.957Z</time></trkpt><trkpt lat="45.156415516157445" lon="11.756761852288156"><ele>2.0</ele><time>2026-04-04T13:36:35.957Z</time></trkpt><trkpt lat="45.15660455443183" lon="11.756749812677802"><ele>2.0</ele><time>2026-04-04T13:36:36.957Z</time></trkpt><trkpt lat="45.15678850857435" lon="11.756744863758378"><ele>2.0</ele><time>2026-04-04T13:36:37.957Z</time></trkpt><trkpt lat="45.15696627220664" lon="11.756743946317398"><ele>2.0</ele><time>2026-04-04T13:36:38.956Z</time></trkpt><trkpt lat="45.157137982855275" lon="11.756738532080695"><ele>2.0</ele><time>2026-04-04T13:36:39.956Z</time></trkpt><trkpt lat="45.15730595673487" lon="11.756735883618653"><ele>2.0</ele><time>2026-04-04T13:36:40.957Z</time></trkpt><trkpt lat="45.15747205488278" lon="11.756733489172642"><ele>1.6666666666666665</ele><time>2026-04-04T13:36:41.957Z</time></trkpt><trkpt lat="45.15764139876135" lon="11.756730327696262"><ele>1.3333333333333333</ele><time>2026-04-04T13:36:42.957Z</time></trkpt><trkpt lat="45.15781762748537" lon="11.75672635115373"><ele>1.0</ele><time>2026-04-04T13:36:43.957Z</time></trkpt><trkpt lat="45.158004788465234" lon="11.756718702842974"><ele>1.0</ele><time>2026-04-04T13:36:44.957Z</time></trkpt><trkpt lat="45.15819591369145" lon="11.756710348151504"><ele>1.0</ele><time>2026-04-04T13:36:45.957Z</time></trkpt><trkpt lat="45.15838854207032" lon="11.756703715356753"><ele>1.0</ele><time>2026-04-04T13:36:46.957Z</time></trkpt><trkpt lat="45.15857827387654" lon="11.756697955720385"><ele>1.6666666666666665</ele><time>2026-04-04T13:36:47.957Z</time></trkpt><trkpt lat="45.15876683188999" lon="11.756692821735454"><ele>2.3333333333333335</ele><time>2026-04-04T13:36:48.957Z</time></trkpt><trkpt lat="45.15895891780896" lon="11.756685163204168"><ele>3.0</ele><time>2026-04-04T13:36:49.957Z</time></trkpt><trkpt lat="45.15915489389905" lon="11.756675039321049"><ele>3.0</ele><time>2026-04-04T13:36:50.957Z</time></trkpt><trkpt lat="45.1593516050433" lon="11.756663781392263"><ele>3.0</ele><time>2026-04-04T13:36:51.957Z</time></trkpt><trkpt lat="45.159540364568535" lon="11.756660611373466"><ele>3.0</ele><time>2026-04-04T13:36:52.957Z</time></trkpt><trkpt lat="45.15972324654111" lon="11.756657550076426"><ele>2.6666666666666665</ele><time>2026-04-04T13:36:53.957Z</time></trkpt><trkpt lat="45.159908344584316" lon="11.756656740629225"><ele>2.333333333333333</ele><time>2026-04-04T13:36:54.957Z</time></trkpt><trkpt lat="45.16008405940806" lon="11.756654878929655"><ele>2.0</ele><time>2026-04-04T13:36:55.957Z</time></trkpt><trkpt lat="45.16026862469808" lon="11.75665124146471"><ele>2.0</ele><time>2026-04-04T13:36:56.957Z</time></trkpt><trkpt lat="45.160455530115556" lon="11.756644360797136"><ele>2.0</ele><time>2026-04-04T13:36:57.957Z</time></trkpt><trkpt lat="45.160638655506716" lon="11.756640039036718"><ele>2.0</ele><time>2026-04-04T13:36:58.957Z</time></trkpt><trkpt lat="45.16082549777148" lon="11.756634747780605"><ele>2.333333333333333</ele><time>2026-04-04T13:36:59.956Z</time></trkpt><trkpt lat="45.16101101862049" lon="11.756632600386096"><ele>2.6666666666666665</ele><time>2026-04-04T13:37:00.956Z</time></trkpt><trkpt lat="45.161200569478936" lon="11.756626564671729"><ele>3.0</ele><time>2026-04-04T13:37:01.956Z</time></trkpt><trkpt lat="45.16138775624924" lon="11.75662044743459"><ele>2.6666666666666665</ele><time>2026-04-04T13:37:02.956Z</time></trkpt><trkpt lat="45.161564150552636" lon="11.756611909687512"><ele>2.333333333333333</ele><time>2026-04-04T13:37:03.956Z</time></trkpt><trkpt lat="45.16173833098287" lon="11.756607190072254"><ele>2.0</ele><time>2026-04-04T13:37:04.956Z</time></trkpt><trkpt lat="45.161899575197204" lon="11.756605394826783"><ele>2.0</ele><time>2026-04-04T13:37:05.956Z</time></trkpt><trkpt lat="45.16206058295593" lon="11.756601281110115"><ele>2.0</ele><time>2026-04-04T13:37:06.956Z</time></trkpt><trkpt lat="45.16221882399842" lon="11.756598431353106"><ele>2.0</ele><time>2026-04-04T13:37:07.956Z</time></trkpt><trkpt lat="45.16237551568688" lon="11.75660142189017"><ele>2.0</ele><time>2026-04-04T13:37:08.956Z</time></trkpt><trkpt lat="45.16253124900805" lon="11.756595919506289"><ele>2.0</ele><time>2026-04-04T13:37:09.956Z</time></trkpt><trkpt lat="45.16268889013348" lon="11.756590544863224"><ele>2.0</ele><time>2026-04-04T13:37:10.956Z</time></trkpt><trkpt lat="45.162842828803775" lon="11.756587464760909"><ele>2.0</ele><time>2026-04-04T13:37:11.956Z</time></trkpt><trkpt lat="45.16299563137378" lon="11.756582742416777"><ele>2.0</ele><time>2026-04-04T13:37:12.956Z</time></trkpt><trkpt lat="45.163144922176905" lon="11.756582921446189"><ele>2.0</ele><time>2026-04-04T13:37:13.956Z</time></trkpt><trkpt lat="45.1632887961375" lon="11.756585474458788"><ele>2.0</ele><time>2026-04-04T13:37:14.956Z</time></trkpt><trkpt lat="45.163444475385" lon="11.756577648274952"><ele>2.0</ele><time>2026-04-04T13:37:15.956Z</time></trkpt><trkpt lat="45.163610043507795" lon="11.756574198594954"><ele>2.0</ele><time>2026-04-04T13:37:16.956Z</time></trkpt><trkpt lat="45.163787391106226" lon="11.756567094080806"><ele>2.0</ele><time>2026-04-04T13:37:17.956Z</time></trkpt><trkpt lat="45.163969327655714" lon="11.75655778657798"><ele>1.6666666666666665</ele><time>2026-04-04T13:37:18.956Z</time></trkpt><trkpt lat="45.164151938335614" lon="11.756556123969343"><ele>1.3333333333333333</ele><time>2026-04-04T13:37:19.956Z</time></trkpt><trkpt lat="45.164333509545386" lon="11.756551935392048"><ele>1.0</ele><time>2026-04-04T13:37:20.956Z</time></trkpt><trkpt lat="45.16451692690067" lon="11.756550576869587"><ele>1.0</ele><time>2026-04-04T13:37:21.956Z</time></trkpt><trkpt lat="45.16469839346317" lon="11.756543063868738"><ele>1.0</ele><time>2026-04-04T13:37:22.956Z</time></trkpt><trkpt lat="45.16487667691166" lon="11.756535664955877"><ele>1.0</ele><time>2026-04-04T13:37:23.956Z</time></trkpt><trkpt lat="45.16504576263664" lon="11.756534266869233"><ele>0.3333333333333333</ele><time>2026-04-04T13:37:24.956Z</time></trkpt><trkpt lat="45.165217448595634" lon="11.75652925165634"><ele>-0.3333333333333333</ele><time>2026-04-04T13:37:25.956Z</time></trkpt><trkpt lat="45.16539100069711" lon="11.756520104358236"><ele>-1.0</ele><time>2026-04-04T13:37:26.956Z</time></trkpt><trkpt lat="45.16556372309139" lon="11.756519103310584"><ele>-0.3333333333333333</ele><time>2026-04-04T13:37:27.956Z</time></trkpt><trkpt lat="45.165739875443855" lon="11.756517247303123"><ele>0.3333333333333333</ele><time>2026-04-04T13:37:28.956Z</time></trkpt><trkpt lat="45.16591361960558" lon="11.756516783574455"><ele>1.0</ele><time>2026-04-04T13:37:29.956Z</time></trkpt><trkpt lat="45.1660873258625" lon="11.75650989737759"><ele>1.0</ele><time>2026-04-04T13:37:30.956Z</time></trkpt><trkpt lat="45.16625675116255" lon="11.756509724858367"><ele>1.0</ele><time>2026-04-04T13:37:31.956Z</time></trkpt><trkpt lat="45.16642282039011" lon="11.756502664200921"><ele>1.0</ele><time>2026-04-04T13:37:32.956Z</time></trkpt><trkpt lat="45.16657903921335" lon="11.756492015960426"><ele>1.75</ele><time>2026-04-04T13:37:33.956Z</time></trkpt><trkpt lat="45.16672030442118" lon="11.75648431758809"><ele>2.5</ele><time>2026-04-04T13:37:34.956Z</time></trkpt><trkpt lat="45.16685698735355" lon="11.756478523673357"><ele>3.25</ele><time>2026-04-04T13:37:35.956Z</time></trkpt><trkpt lat="45.166997265406394" lon="11.756477061420654"><ele>4.0</ele><time>2026-04-04T13:37:36.956Z</time></trkpt><trkpt lat="45.16714161453626" lon="11.756472384080862"><ele>4.0</ele><time>2026-04-04T13:37:37.956Z</time></trkpt><trkpt lat="45.167285514654154" lon="11.756473278150226"><ele>4.0</ele><time>2026-04-04T13:37:38.956Z</time></trkpt><trkpt lat="45.16742699995424" lon="11.75646823210214"><ele>4.0</ele><time>2026-04-04T13:37:39.955Z</time></trkpt><trkpt lat="45.167565897340545" lon="11.756462620828291"><ele>4.0</ele><time>2026-04-04T13:37:40.955Z</time></trkpt><trkpt lat="45.16769547566907" lon="11.756469518050116"><ele>4.0</ele><time>2026-04-04T13:37:41.955Z</time></trkpt><trkpt lat="45.16782430961785" lon="11.756467041124559"><ele>4.0</ele><time>2026-04-04T13:37:42.955Z</time></trkpt><trkpt lat="45.16795108874385" lon="11.75646194410522"><ele>4.0</ele><time>2026-04-04T13:37:43.955Z</time></trkpt><trkpt lat="45.16807961815708" lon="11.75646133994999"><ele>4.0</ele><time>2026-04-04T13:37:44.955Z</time></trkpt><trkpt lat="45.16820049654414" lon="11.756459570678158"><ele>3.5</ele><time>2026-04-04T13:37:45.955Z</time></trkpt><trkpt lat="45.168323521131526" lon="11.756468848947138"><ele>3.0</ele><time>2026-04-04T13:37:46.955Z</time></trkpt><trkpt lat="45.1684433840928" lon="11.756466874293546"><ele>2.5</ele><time>2026-04-04T13:37:47.955Z</time></trkpt><trkpt lat="45.168564403803586" lon="11.756461203986605"><ele>2.0</ele><time>2026-04-04T13:37:48.955Z</time></trkpt><trkpt lat="45.16868234652957" lon="11.756455178617275"><ele>2.0</ele><time>2026-04-04T13:37:49.955Z</time></trkpt><trkpt lat="45.16880210666418" lon="11.756446707262912"><ele>2.0</ele><time>2026-04-04T13:37:50.955Z</time></trkpt><trkpt lat="45.168909407535175" lon="11.756453959652296"><ele>2.0</ele><time>2026-04-04T13:37:51.955Z</time></trkpt><trkpt lat="45.16902434412687" lon="11.756449854418038"><ele>2.0</ele><time>2026-04-04T13:37:52.955Z</time></trkpt><trkpt lat="45.16914334827747" lon="11.756447574406995"><ele>2.5</ele><time>2026-04-04T13:37:53.955Z</time></trkpt><trkpt lat="45.16926059253162" lon="11.756447439063479"><ele>3.0</ele><time>2026-04-04T13:37:54.955Z</time></trkpt><trkpt lat="45.1693912526387" lon="11.756444579794895"><ele>3.5</ele><time>2026-04-04T13:37:55.955Z</time></trkpt><trkpt lat="45.16953529785082" lon="11.756438603796353"><ele>4.0</ele><time>2026-04-04T13:37:56.955Z</time></trkpt><trkpt lat="45.169681105093616" lon="11.756435460505486"><ele>4.0</ele><time>2026-04-04T13:37:57.955Z</time></trkpt><trkpt lat="45.169830192877036" lon="11.756430246968215"><ele>4.0</ele><time>2026-04-04T13:37:58.955Z</time></trkpt><trkpt lat="45.16998190561734" lon="11.756428849395268"><ele>4.0</ele><time>2026-04-04T13:37:59.955Z</time></trkpt><trkpt lat="45.17013560045949" lon="11.75642075014195"><ele>4.0</ele><time>2026-04-04T13:38:00.955Z</time></trkpt><trkpt lat="45.170290222001675" lon="11.756415375509077"><ele>4.0</ele><time>2026-04-04T13:38:01.955Z</time></trkpt><trkpt lat="45.17043718610025" lon="11.756410978401961"><ele>4.0</ele><time>2026-04-04T13:38:02.955Z</time></trkpt><trkpt lat="45.17058234381955" lon="11.756405119704624"><ele>4.0</ele><time>2026-04-04T13:38:03.955Z</time></trkpt><trkpt lat="45.1707311996928" lon="11.756400146847133"><ele>4.0</ele><time>2026-04-04T13:38:04.955Z</time></trkpt><trkpt lat="45.1708845281949" lon="11.756397278624481"><ele>4.0</ele><time>2026-04-04T13:38:05.955Z</time></trkpt><trkpt lat="45.17104536284548" lon="11.756393512206019"><ele>4.0</ele><time>2026-04-04T13:38:06.955Z</time></trkpt><trkpt lat="45.171211657006985" lon="11.756390603529814"><ele>4.0</ele><time>2026-04-04T13:38:07.955Z</time></trkpt><trkpt lat="45.17138482599955" lon="11.75638829246382"><ele>4.0</ele><time>2026-04-04T13:38:08.955Z</time></trkpt><trkpt lat="45.171561547811535" lon="11.756380885790314"><ele>4.0</ele><time>2026-04-04T13:38:09.955Z</time></trkpt><trkpt lat="45.1717339539078" lon="11.75637546132408"><ele>4.333333333333333</ele><time>2026-04-04T13:38:10.955Z</time></trkpt><trkpt lat="45.17190603944627" lon="11.756371944521392"><ele>4.666666666666667</ele><time>2026-04-04T13:38:11.955Z</time></trkpt><trkpt lat="45.17206361978476" lon="11.75636470052146"><ele>5.0</ele><time>2026-04-04T13:38:12.955Z</time></trkpt><trkpt lat="45.17220237017061" lon="11.756361629676029"><ele>5.0</ele><time>2026-04-04T13:38:13.955Z</time></trkpt><trkpt lat="45.172330351548084" lon="11.756357203105118"><ele>5.0</ele><time>2026-04-04T13:38:14.955Z</time></trkpt><trkpt lat="45.17244650399669" lon="11.756353303223408"><ele>5.0</ele><time>2026-04-04T13:38:15.955Z</time></trkpt><trkpt lat="45.172557134057506" lon="11.756352607986003"><ele>5.0</ele><time>2026-04-04T13:38:16.955Z</time></trkpt><trkpt lat="45.172655176115164" lon="11.756350946451846"><ele>4.833333333333334</ele><time>2026-04-04T13:38:17.955Z</time></trkpt><trkpt lat="45.172737671112046" lon="11.756348937379094"><ele>4.666666666666667</ele><time>2026-04-04T13:38:18.955Z</time></trkpt><trkpt lat="45.172812524663186" lon="11.756348588491353"><ele>4.5</ele><time>2026-04-04T13:38:19.954Z</time></trkpt><trkpt lat="45.172885816610666" lon="11.75635133371129"><ele>4.333333333333333</ele><time>2026-04-04T13:38:20.954Z</time></trkpt><trkpt lat="45.172967214981824" lon="11.756349249408524"><ele>4.166666666666666</ele><time>2026-04-04T13:38:21.954Z</time></trkpt><trkpt lat="45.173059258254234" lon="11.756347262516702"><ele>4.0</ele><time>2026-04-04T13:38:22.954Z</time></trkpt><trkpt lat="45.17316478925835" lon="11.756341199279566"><ele>4.0</ele><time>2026-04-04T13:38:23.954Z</time></trkpt><trkpt lat="45.17328424780675" lon="11.75633272128535"><ele>4.0</ele><time>2026-04-04T13:38:24.954Z</time></trkpt><trkpt lat="45.17341405024569" lon="11.756330492601931"><ele>4.0</ele><time>2026-04-04T13:38:25.954Z</time></trkpt><trkpt lat="45.17355235183246" lon="11.756325117789197"><ele>4.0</ele><time>2026-04-04T13:38:26.954Z</time></trkpt><trkpt lat="45.173690460246135" lon="11.756323487383863"><ele>4.0</ele><time>2026-04-04T13:38:27.954Z</time></trkpt><trkpt lat="45.17382906652577" lon="11.756321942345616"><ele>4.0</ele><time>2026-04-04T13:38:28.954Z</time></trkpt><trkpt lat="45.17396718530245" lon="11.756315927907279"><ele>4.0</ele><time>2026-04-04T13:38:29.954Z</time></trkpt><trkpt lat="45.17411041000993" lon="11.756312600599767"><ele>4.0</ele><time>2026-04-04T13:38:30.954Z</time></trkpt><trkpt lat="45.174262333662114" lon="11.756311450175797"><ele>4.333333333333333</ele><time>2026-04-04T13:38:31.954Z</time></trkpt><trkpt lat="45.174420691348374" lon="11.756307770385511"><ele>4.666666666666667</ele><time>2026-04-04T13:38:32.954Z</time></trkpt><trkpt lat="45.17457985450713" lon="11.756302257084904"><ele>5.0</ele><time>2026-04-04T13:38:33.954Z</time></trkpt><trkpt lat="45.17473486897911" lon="11.75629827033495"><ele>5.0</ele><time>2026-04-04T13:38:34.954Z</time></trkpt><trkpt lat="45.17488796846113" lon="11.756292887065298"><ele>5.0</ele><time>2026-04-04T13:38:35.954Z</time></trkpt><trkpt lat="45.17503459134495" lon="11.756287543283849"><ele>5.0</ele><time>2026-04-04T13:38:36.954Z</time></trkpt><trkpt lat="45.17517961442639" lon="11.75628039491836"><ele>5.0</ele><time>2026-04-04T13:38:37.955Z</time></trkpt><trkpt lat="45.17532193841071" lon="11.756276036880804"><ele>5.0</ele><time>2026-04-04T13:38:38.955Z</time></trkpt><trkpt lat="45.175463815943715" lon="11.756273994692302"><ele>5.0</ele><time>2026-04-04T13:38:39.955Z</time></trkpt><trkpt lat="45.17560169758648" lon="11.756271310996206"><ele>5.0</ele><time>2026-04-04T13:38:40.955Z</time></trkpt><trkpt lat="45.175738498814276" lon="11.756266198774654"><ele>5.0</ele><time>2026-04-04T13:38:41.955Z</time></trkpt><trkpt lat="45.17586157423603" lon="11.75626634219736"><ele>5.0</ele><time>2026-04-04T13:38:42.955Z</time></trkpt><trkpt lat="45.17597442497806" lon="11.756263007923627"><ele>5.0</ele><time>2026-04-04T13:38:43.954Z</time></trkpt><trkpt lat="45.176072836065984" lon="11.756257351954808"><ele>5.0</ele><time>2026-04-04T13:38:44.955Z</time></trkpt><trkpt lat="45.176165260757934" lon="11.756254289703794"><ele>5.0</ele><time>2026-04-04T13:38:45.954Z</time></trkpt><trkpt lat="45.17625537512477" lon="11.756252765338797"><ele>5.0</ele><time>2026-04-04T13:38:46.955Z</time></trkpt><trkpt lat="45.17633979728974" lon="11.756251388401676"><ele>5.0</ele><time>2026-04-04T13:38:47.955Z</time></trkpt><trkpt lat="45.176424989675674" lon="11.756249206738348"><ele>5.0</ele><time>2026-04-04T13:38:48.955Z</time></trkpt><trkpt lat="45.17651648987694" lon="11.756246899743664"><ele>5.0</ele><time>2026-04-04T13:38:49.955Z</time></trkpt><trkpt lat="45.176613299986755" lon="11.756242808990283"><ele>5.0</ele><time>2026-04-04T13:38:50.955Z</time></trkpt><trkpt lat="45.176719028460894" lon="11.756235631917583"><ele>5.0</ele><time>2026-04-04T13:38:51.955Z</time></trkpt><trkpt lat="45.17684196479855" lon="11.75623006948862"><ele>5.0</ele><time>2026-04-04T13:38:52.955Z</time></trkpt><trkpt lat="45.176973409367754" lon="11.756222401752252"><ele>5.0</ele><time>2026-04-04T13:38:53.955Z</time></trkpt><trkpt lat="45.17710484679425" lon="11.756218434623005"><ele>5.0</ele><time>2026-04-04T13:38:54.954Z</time></trkpt><trkpt lat="45.17723626179727" lon="11.75621045378441"><ele>5.0</ele><time>2026-04-04T13:38:55.954Z</time></trkpt><trkpt lat="45.177369271744254" lon="11.7561996918915"><ele>4.5</ele><time>2026-04-04T13:38:56.954Z</time></trkpt><trkpt lat="45.177509317712385" lon="11.756201889499104"><ele>4.0</ele><time>2026-04-04T13:38:57.954Z</time></trkpt><trkpt lat="45.17765451376071" lon="11.756204859632422"><ele>3.5</ele><time>2026-04-04T13:38:58.954Z</time></trkpt><trkpt lat="45.177804572946044" lon="11.756198022642078"><ele>3.0</ele><time>2026-04-04T13:38:59.954Z</time></trkpt><trkpt lat="45.177968701620664" lon="11.756189900569495"><ele>3.0</ele><time>2026-04-04T13:39:00.954Z</time></trkpt><trkpt lat="45.178136616203155" lon="11.75619063380238"><ele>3.0</ele><time>2026-04-04T13:39:01.954Z</time></trkpt><trkpt lat="45.17831303665223" lon="11.756181848191092"><ele>3.0</ele><time>2026-04-04T13:39:02.954Z</time></trkpt><trkpt lat="45.17848942385936" lon="11.756172840060422"><ele>3.666666666666667</ele><time>2026-04-04T13:39:03.954Z</time></trkpt><trkpt lat="45.17867084906634" lon="11.7561631587957"><ele>4.333333333333334</ele><time>2026-04-04T13:39:04.954Z</time></trkpt><trkpt lat="45.17885925367691" lon="11.756154742411995"><ele>5.0</ele><time>2026-04-04T13:39:05.954Z</time></trkpt><trkpt lat="45.17904901713267" lon="11.75614866970031"><ele>5.0</ele><time>2026-04-04T13:39:06.954Z</time></trkpt><trkpt lat="45.17923339048988" lon="11.756139361822601"><ele>5.0</ele><time>2026-04-04T13:39:07.954Z</time></trkpt><trkpt lat="45.17940846134743" lon="11.756128335869654"><ele>5.0</ele><time>2026-04-04T13:39:08.954Z</time></trkpt><trkpt lat="45.17958079273606" lon="11.756145052057608"><ele>5.0</ele><time>2026-04-04T13:39:09.954Z</time></trkpt><trkpt lat="45.179746689524094" lon="11.756140101568837"><ele>5.0</ele><time>2026-04-04T13:39:10.954Z</time></trkpt><trkpt lat="45.17990223341843" lon="11.75613546002195"><ele>5.0</ele><time>2026-04-04T13:39:11.954Z</time></trkpt><trkpt lat="45.18004997326549" lon="11.756131051350895"><ele>4.75</ele><time>2026-04-04T13:39:12.954Z</time></trkpt><trkpt lat="45.18018995160238" lon="11.756104888648936"><ele>4.5</ele><time>2026-04-04T13:39:13.954Z</time></trkpt><trkpt lat="45.18032302263238" lon="11.756106252836915"><ele>4.25</ele><time>2026-04-04T13:39:14.954Z</time></trkpt><trkpt lat="45.180447687052784" lon="11.756107435868435"><ele>4.0</ele><time>2026-04-04T13:39:15.954Z</time></trkpt><trkpt lat="45.18055976297565" lon="11.756100450705578"><ele>4.0</ele><time>2026-04-04T13:39:16.954Z</time></trkpt><trkpt lat="45.180673279704706" lon="11.756092445379485"><ele>4.0</ele><time>2026-04-04T13:39:17.954Z</time></trkpt><trkpt lat="45.18077898906183" lon="11.756088604758455"><ele>4.0</ele><time>2026-04-04T13:39:18.954Z</time></trkpt><trkpt lat="45.18088703338559" lon="11.756086813780403"><ele>4.0</ele><time>2026-04-04T13:39:19.954Z</time></trkpt><trkpt lat="45.18098374787012" lon="11.756087093363604"><ele>4.0</ele><time>2026-04-04T13:39:20.954Z</time></trkpt><trkpt lat="45.181074201089274" lon="11.756086601947471"><ele>4.333333333333333</ele><time>2026-04-04T13:39:21.954Z</time></trkpt><trkpt lat="45.18116098620948" lon="11.75608218705137"><ele>4.666666666666666</ele><time>2026-04-04T13:39:22.954Z</time></trkpt><trkpt lat="45.18124409569549" lon="11.756077421304942"><ele>5.0</ele><time>2026-04-04T13:39:23.954Z</time></trkpt><trkpt lat="45.1813231965231" lon="11.756111562941161"><ele>5.333333333333333</ele><time>2026-04-04T13:39:24.954Z</time></trkpt><trkpt lat="45.18140009280897" lon="11.756105185042745"><ele>5.666666666666667</ele><time>2026-04-04T13:39:25.954Z</time></trkpt><trkpt lat="45.18147710305291" lon="11.75609809190207"><ele>6.0</ele><time>2026-04-04T13:39:26.954Z</time></trkpt><trkpt lat="45.181554753785285" lon="11.756091761412206"><ele>6.0</ele><time>2026-04-04T13:39:27.954Z</time></trkpt><trkpt lat="45.18163142538185" lon="11.756082482595732"><ele>6.0</ele><time>2026-04-04T13:39:28.954Z</time></trkpt><trkpt lat="45.181701845908165" lon="11.756104016619545"><ele>6.0</ele><time>2026-04-04T13:39:29.954Z</time></trkpt><trkpt lat="45.18181827433023" lon="11.756098553955958"><ele>6.0</ele><time>2026-04-04T13:39:31.954Z</time></trkpt><trkpt lat="45.18193535528777" lon="11.756108247074302"><ele>6.0</ele><time>2026-04-04T13:39:33.954Z</time></trkpt><trkpt lat="45.1820029043761" lon="11.75612293455496"><ele>6.0</ele><time>2026-04-04T13:39:34.953Z</time></trkpt><trkpt lat="45.18207060518575" lon="11.756157024628726"><ele>6.0</ele><time>2026-04-04T13:39:35.953Z</time></trkpt><trkpt lat="45.182138132303734" lon="11.756170475101499"><ele>6.0</ele><time>2026-04-04T13:39:36.953Z</time></trkpt><trkpt lat="45.182211716955464" lon="11.756167112584041"><ele>6.0</ele><time>2026-04-04T13:39:37.953Z</time></trkpt><trkpt lat="45.18228698758809" lon="11.7561389473973"><ele>6.0</ele><time>2026-04-04T13:39:38.953Z</time></trkpt><trkpt lat="45.18236884394439" lon="11.756080802208766"><ele>6.0</ele><time>2026-04-04T13:39:39.953Z</time></trkpt><trkpt lat="45.182452649025194" lon="11.75605681223566"><ele>5.8</ele><time>2026-04-04T13:39:40.953Z</time></trkpt><trkpt lat="45.18254686832928" lon="11.756051446671536"><ele>5.6</ele><time>2026-04-04T13:39:41.953Z</time></trkpt><trkpt lat="45.182654404038594" lon="11.756046089380943"><ele>5.4</ele><time>2026-04-04T13:39:42.953Z</time></trkpt><trkpt lat="45.182768397607504" lon="11.755988512919352"><ele>5.2</ele><time>2026-04-04T13:39:43.953Z</time></trkpt><trkpt lat="45.1828920041861" lon="11.7559964695938"><ele>5.0</ele><time>2026-04-04T13:39:44.953Z</time></trkpt><trkpt lat="45.18301633915907" lon="11.75600725114039"><ele>5.25</ele><time>2026-04-04T13:39:45.953Z</time></trkpt><trkpt lat="45.183147649028136" lon="11.75601691431621"><ele>5.5</ele><time>2026-04-04T13:39:46.953Z</time></trkpt><trkpt lat="45.183293944068936" lon="11.75602270541893"><ele>5.75</ele><time>2026-04-04T13:39:47.953Z</time></trkpt><trkpt lat="45.18343757864745" lon="11.756024179224614"><ele>6.0</ele><time>2026-04-04T13:39:48.953Z</time></trkpt><trkpt lat="45.183585917146445" lon="11.756016821493176"><ele>5.666666666666667</ele><time>2026-04-04T13:39:49.953Z</time></trkpt><trkpt lat="45.18373161599287" lon="11.756048508464351"><ele>5.333333333333334</ele><time>2026-04-04T13:39:50.953Z</time></trkpt><trkpt lat="45.18388712505296" lon="11.756048054379313"><ele>5.0</ele><time>2026-04-04T13:39:51.953Z</time></trkpt><trkpt lat="45.1840483990101" lon="11.756044409465353"><ele>5.0</ele><time>2026-04-04T13:39:52.953Z</time></trkpt><trkpt lat="45.18420832266938" lon="11.756034635230062"><ele>5.0</ele><time>2026-04-04T13:39:53.953Z</time></trkpt><trkpt lat="45.1843660525134" lon="11.756027512139822"><ele>5.0</ele><time>2026-04-04T13:39:54.953Z</time></trkpt><trkpt lat="45.18452329978678" lon="11.756027142496588"><ele>5.0</ele><time>2026-04-04T13:39:55.953Z</time></trkpt><trkpt lat="45.184680770490054" lon="11.756019964192177"><ele>5.0</ele><time>2026-04-04T13:39:56.953Z</time></trkpt><trkpt lat="45.184840642947826" lon="11.756016042781498"><ele>5.0</ele><time>2026-04-04T13:39:57.953Z</time></trkpt><trkpt lat="45.18500441750614" lon="11.75601047513502"><ele>4.333333333333334</ele><time>2026-04-04T13:39:58.953Z</time></trkpt><trkpt lat="45.185168221669024" lon="11.75600309230039"><ele>3.666666666666667</ele><time>2026-04-04T13:39:59.953Z</time></trkpt><trkpt lat="45.18532699242143" lon="11.755987924233729"><ele>3.0</ele><time>2026-04-04T13:40:00.953Z</time></trkpt><trkpt lat="45.18548953782485" lon="11.755978242008432"><ele>3.0</ele><time>2026-04-04T13:40:01.953Z</time></trkpt><trkpt lat="45.18564916350158" lon="11.755979724681607"><ele>3.0</ele><time>2026-04-04T13:40:02.953Z</time></trkpt><trkpt lat="45.18580862895967" lon="11.755976317494937"><ele>3.0</ele><time>2026-04-04T13:40:03.953Z</time></trkpt><trkpt lat="45.18596850997182" lon="11.755972949200558"><ele>3.0</ele><time>2026-04-04T13:40:04.953Z</time></trkpt><trkpt lat="45.18613086045802" lon="11.755968993533196"><ele>3.0</ele><time>2026-04-04T13:40:05.953Z</time></trkpt><trkpt lat="45.186287540101965" lon="11.755962409369388"><ele>3.0</ele><time>2026-04-04T13:40:06.953Z</time></trkpt><trkpt lat="45.18645065684061" lon="11.755956283084954"><ele>3.666666666666667</ele><time>2026-04-04T13:40:07.953Z</time></trkpt><trkpt lat="45.18661437961214" lon="11.755959842348872"><ele>4.333333333333334</ele><time>2026-04-04T13:40:08.953Z</time></trkpt><trkpt lat="45.18678447039736" lon="11.755963401545083"><ele>5.0</ele><time>2026-04-04T13:40:09.953Z</time></trkpt><trkpt lat="45.186947691414424" lon="11.755960803592957"><ele>5.0</ele><time>2026-04-04T13:40:10.953Z</time></trkpt><trkpt lat="45.187109169315136" lon="11.755955579512758"><ele>5.0</ele><time>2026-04-04T13:40:11.953Z</time></trkpt><trkpt lat="45.18726132528733" lon="11.755947482235902"><ele>5.0</ele><time>2026-04-04T13:40:12.953Z</time></trkpt><trkpt lat="45.18741672965444" lon="11.755937939937763"><ele>4.666666666666667</ele><time>2026-04-04T13:40:13.953Z</time></trkpt><trkpt lat="45.18757536899657" lon="11.755924787100081"><ele>4.333333333333333</ele><time>2026-04-04T13:40:14.952Z</time></trkpt><trkpt lat="45.18773385153535" lon="11.755912005642696"><ele>4.0</ele><time>2026-04-04T13:40:15.952Z</time></trkpt><trkpt lat="45.18789268453357" lon="11.755903362319055"><ele>4.0</ele><time>2026-04-04T13:40:16.952Z</time></trkpt><trkpt lat="45.18805747653767" lon="11.75591905424133"><ele>4.0</ele><time>2026-04-04T13:40:17.952Z</time></trkpt><trkpt lat="45.18822171975875" lon="11.755915248372759"><ele>4.0</ele><time>2026-04-04T13:40:18.952Z</time></trkpt><trkpt lat="45.18838796191066" lon="11.755911396192715"><ele>4.0</ele><time>2026-04-04T13:40:19.952Z</time></trkpt><trkpt lat="45.188564407066174" lon="11.75590730757568"><ele>4.0</ele><time>2026-04-04T13:40:20.952Z</time></trkpt><trkpt lat="45.18874052789342" lon="11.755902899076617"><ele>4.0</ele><time>2026-04-04T13:40:21.952Z</time></trkpt><trkpt lat="45.18891808012338" lon="11.755898645952735"><ele>3.6666666666666665</ele><time>2026-04-04T13:40:22.952Z</time></trkpt><trkpt lat="45.18909451419338" lon="11.755894503586331"><ele>3.333333333333333</ele><time>2026-04-04T13:40:23.952Z</time></trkpt><trkpt lat="45.189274120726985" lon="11.755889800728553"><ele>3.0</ele><time>2026-04-04T13:40:24.952Z</time></trkpt><trkpt lat="45.18944433782449" lon="11.755885206689614"><ele>3.0</ele><time>2026-04-04T13:40:25.952Z</time></trkpt><trkpt lat="45.189615701724804" lon="11.755880581700852"><ele>3.0</ele><time>2026-04-04T13:40:26.952Z</time></trkpt><trkpt lat="45.189783656009084" lon="11.755892708795628"><ele>3.0</ele><time>2026-04-04T13:40:27.952Z</time></trkpt><trkpt lat="45.189950549857386" lon="11.755887955458325"><ele>2.6666666666666665</ele><time>2026-04-04T13:40:28.952Z</time></trkpt><trkpt lat="45.1901235495481" lon="11.755881428419995"><ele>2.333333333333333</ele><time>2026-04-04T13:40:29.952Z</time></trkpt><trkpt lat="45.19029430238243" lon="11.755874914098799"><ele>2.0</ele><time>2026-04-04T13:40:30.952Z</time></trkpt><trkpt lat="45.19046583525801" lon="11.75586654114715"><ele>2.0</ele><time>2026-04-04T13:40:31.952Z</time></trkpt><trkpt lat="45.19063448617459" lon="11.755851789337822"><ele>2.0</ele><time>2026-04-04T13:40:32.952Z</time></trkpt><trkpt lat="45.19079923685577" lon="11.755843677125865"><ele>2.0</ele><time>2026-04-04T13:40:33.952Z</time></trkpt><trkpt lat="45.19096621964794" lon="11.755835764281239"><ele>1.6666666666666665</ele><time>2026-04-04T13:40:34.952Z</time></trkpt><trkpt lat="45.191142701435965" lon="11.755826354664412"><ele>1.3333333333333333</ele><time>2026-04-04T13:40:35.952Z</time></trkpt><trkpt lat="45.19132249363525" lon="11.75582917447893"><ele>1.0</ele><time>2026-04-04T13:40:36.952Z</time></trkpt><trkpt lat="45.191501054237406" lon="11.755819184660297"><ele>1.0</ele><time>2026-04-04T13:40:37.952Z</time></trkpt><trkpt lat="45.191678752445405" lon="11.755815413285255"><ele>1.0</ele><time>2026-04-04T13:40:38.952Z</time></trkpt><trkpt lat="45.19185314274078" lon="11.75581016614134"><ele>1.0</ele><time>2026-04-04T13:40:39.952Z</time></trkpt><trkpt lat="45.19201634550245" lon="11.7558053339721"><ele>1.0</ele><time>2026-04-04T13:40:40.952Z</time></trkpt><trkpt lat="45.192175832806974" lon="11.755803100264897"><ele>1.0</ele><time>2026-04-04T13:40:41.952Z</time></trkpt><trkpt lat="45.19233392777582" lon="11.755801267586422"><ele>1.0</ele><time>2026-04-04T13:40:42.952Z</time></trkpt><trkpt lat="45.19249547903491" lon="11.755796913963959"><ele>1.6666666666666665</ele><time>2026-04-04T13:40:43.953Z</time></trkpt><trkpt lat="45.1926573434198" lon="11.755795470951785"><ele>2.3333333333333335</ele><time>2026-04-04T13:40:44.953Z</time></trkpt><trkpt lat="45.19281588809298" lon="11.755793142249875"><ele>3.0</ele><time>2026-04-04T13:40:45.953Z</time></trkpt><trkpt lat="45.192971456903756" lon="11.755792892132819"><ele>3.0</ele><time>2026-04-04T13:40:46.953Z</time></trkpt><trkpt lat="45.193133378595" lon="11.755788901795572"><ele>3.0</ele><time>2026-04-04T13:40:47.953Z</time></trkpt><trkpt lat="45.19329550264367" lon="11.755779274626539"><ele>3.0</ele><time>2026-04-04T13:40:48.953Z</time></trkpt><trkpt lat="45.19345417005712" lon="11.755781104004894"><ele>3.333333333333333</ele><time>2026-04-04T13:40:49.953Z</time></trkpt><trkpt lat="45.19361603175216" lon="11.755781975697344"><ele>3.6666666666666665</ele><time>2026-04-04T13:40:50.954Z</time></trkpt><trkpt lat="45.19378344845763" lon="11.755781795155617"><ele>4.0</ele><time>2026-04-04T13:40:51.953Z</time></trkpt><trkpt lat="45.193952619551304" lon="11.755784045490584"><ele>4.0</ele><time>2026-04-04T13:40:52.953Z</time></trkpt><trkpt lat="45.19412292113357" lon="11.755777989027404"><ele>4.0</ele><time>2026-04-04T13:40:53.953Z</time></trkpt><trkpt lat="45.19429011142463" lon="11.755771927070997"><ele>4.0</ele><time>2026-04-04T13:40:54.953Z</time></trkpt><trkpt lat="45.19445801634241" lon="11.755762783162808"><ele>4.0</ele><time>2026-04-04T13:40:55.953Z</time></trkpt><trkpt lat="45.194630092104966" lon="11.75576135190737"><ele>4.0</ele><time>2026-04-04T13:40:56.953Z</time></trkpt><trkpt lat="45.194804336330016" lon="11.755758916643574"><ele>4.0</ele><time>2026-04-04T13:40:57.953Z</time></trkpt><trkpt lat="45.19498146645695" lon="11.755759570055801"><ele>4.0</ele><time>2026-04-04T13:40:58.953Z</time></trkpt><trkpt lat="45.19515797711922" lon="11.755752948324348"><ele>4.0</ele><time>2026-04-04T13:40:59.953Z</time></trkpt><trkpt lat="45.19532831772305" lon="11.755745451207359"><ele>4.0</ele><time>2026-04-04T13:41:00.953Z</time></trkpt><trkpt lat="45.195497721884756" lon="11.755741085955616"><ele>4.0</ele><time>2026-04-04T13:41:01.953Z</time></trkpt><trkpt lat="45.19565216011473" lon="11.755744304613984"><ele>4.0</ele><time>2026-04-04T13:41:02.953Z</time></trkpt><trkpt lat="45.1958091934404" lon="11.755744543941821"><ele>4.0</ele><time>2026-04-04T13:41:03.952Z</time></trkpt><trkpt lat="45.1959623167695" lon="11.75574310527909"><ele>3.6666666666666665</ele><time>2026-04-04T13:41:04.952Z</time></trkpt><trkpt lat="45.196115145972584" lon="11.755741549875832"><ele>3.333333333333333</ele><time>2026-04-04T13:41:05.952Z</time></trkpt><trkpt lat="45.196266935062084" lon="11.755739307893363"><ele>3.0</ele><time>2026-04-04T13:41:06.952Z</time></trkpt><trkpt lat="45.19642361942414" lon="11.75573758632437"><ele>2.6666666666666665</ele><time>2026-04-04T13:41:07.952Z</time></trkpt><trkpt lat="45.196587758497145" lon="11.755733891574245"><ele>2.333333333333333</ele><time>2026-04-04T13:41:08.952Z</time></trkpt><trkpt lat="45.19675760059708" lon="11.75572836399088"><ele>2.0</ele><time>2026-04-04T13:41:09.952Z</time></trkpt><trkpt lat="45.196936029432216" lon="11.755720223061267"><ele>2.0</ele><time>2026-04-04T13:41:10.952Z</time></trkpt><trkpt lat="45.197115148411" lon="11.75571651150526"><ele>2.0</ele><time>2026-04-04T13:41:11.952Z</time></trkpt><trkpt lat="45.19730062499459" lon="11.75571514951153"><ele>2.0</ele><time>2026-04-04T13:41:12.952Z</time></trkpt><trkpt lat="45.1974823429501" lon="11.755709153788828"><ele>2.0</ele><time>2026-04-04T13:41:13.952Z</time></trkpt><trkpt lat="45.19767292504934" lon="11.755703910307782"><ele>2.0</ele><time>2026-04-04T13:41:14.952Z</time></trkpt><trkpt lat="45.197859856052354" lon="11.755693955458497"><ele>2.0</ele><time>2026-04-04T13:41:15.952Z</time></trkpt><trkpt lat="45.19805035168903" lon="11.755683692649741"><ele>2.333333333333333</ele><time>2026-04-04T13:41:16.952Z</time></trkpt><trkpt lat="45.19823541228957" lon="11.755682493440585"><ele>2.6666666666666665</ele><time>2026-04-04T13:41:17.952Z</time></trkpt><trkpt lat="45.198416001446446" lon="11.755681637684647"><ele>3.0</ele><time>2026-04-04T13:41:18.952Z</time></trkpt><trkpt lat="45.19859804733957" lon="11.755679316771106"><ele>3.0</ele><time>2026-04-04T13:41:19.952Z</time></trkpt><trkpt lat="45.198774178216404" lon="11.755680108961984"><ele>3.0</ele><time>2026-04-04T13:41:20.952Z</time></trkpt><trkpt lat="45.198945766497815" lon="11.755674893666594"><ele>3.0</ele><time>2026-04-04T13:41:21.952Z</time></trkpt><trkpt lat="45.199111350523665" lon="11.75566810580103"><ele>3.0</ele><time>2026-04-04T13:41:22.952Z</time></trkpt><trkpt lat="45.199277597561164" lon="11.755660304471801"><ele>3.0</ele><time>2026-04-04T13:41:23.952Z</time></trkpt><trkpt lat="45.19943531536588" lon="11.75565695316244"><ele>3.0</ele><time>2026-04-04T13:41:24.952Z</time></trkpt><trkpt lat="45.19959367860655" lon="11.755657115878302"><ele>3.0</ele><time>2026-04-04T13:41:25.952Z</time></trkpt><trkpt lat="45.199759174391296" lon="11.75565308293618"><ele>3.0</ele><time>2026-04-04T13:41:26.952Z</time></trkpt><trkpt lat="45.199934488121244" lon="11.755650759472491"><ele>3.0</ele><time>2026-04-04T13:41:27.952Z</time></trkpt><trkpt lat="45.20011199927293" lon="11.755641608032118"><ele>3.666666666666667</ele><time>2026-04-04T13:41:28.952Z</time></trkpt><trkpt lat="45.20029265789298" lon="11.755640008156544"><ele>4.333333333333334</ele><time>2026-04-04T13:41:29.952Z</time></trkpt><trkpt lat="45.20047544402889" lon="11.755628951268465"><ele>5.0</ele><time>2026-04-04T13:41:30.952Z</time></trkpt><trkpt lat="45.20065342422145" lon="11.7556260165714"><ele>4.666666666666667</ele><time>2026-04-04T13:41:31.952Z</time></trkpt><trkpt lat="45.20082653823323" lon="11.755621712147741"><ele>4.333333333333333</ele><time>2026-04-04T13:41:32.952Z</time></trkpt><trkpt lat="45.20098973063575" lon="11.75562097539399"><ele>4.0</ele><time>2026-04-04T13:41:33.952Z</time></trkpt><trkpt lat="45.20115134780167" lon="11.755614863474095"><ele>4.0</ele><time>2026-04-04T13:41:34.952Z</time></trkpt><trkpt lat="45.201312991050706" lon="11.755612270630657"><ele>4.0</ele><time>2026-04-04T13:41:35.952Z</time></trkpt><trkpt lat="45.20147502671867" lon="11.755612610731765"><ele>4.0</ele><time>2026-04-04T13:41:36.952Z</time></trkpt><trkpt lat="45.20164949443554" lon="11.755607477915952"><ele>3.6666666666666665</ele><time>2026-04-04T13:41:37.952Z</time></trkpt><trkpt lat="45.20182499770518" lon="11.755598369990274"><ele>3.333333333333333</ele><time>2026-04-04T13:41:38.952Z</time></trkpt><trkpt lat="45.20200678346004" lon="11.75559121448718"><ele>3.0</ele><time>2026-04-04T13:41:39.952Z</time></trkpt><trkpt lat="45.20218210066137" lon="11.7555846304798"><ele>3.0</ele><time>2026-04-04T13:41:40.952Z</time></trkpt><trkpt lat="45.20235228521046" lon="11.755584694509354"><ele>3.0</ele><time>2026-04-04T13:41:41.952Z</time></trkpt><trkpt lat="45.2025141776767" lon="11.7555797246712"><ele>3.0</ele><time>2026-04-04T13:41:42.952Z</time></trkpt><trkpt lat="45.20266789808748" lon="11.755579725146479"><ele>3.0</ele><time>2026-04-04T13:41:43.951Z</time></trkpt><trkpt lat="45.202821733762825" lon="11.755575307892153"><ele>3.0</ele><time>2026-04-04T13:41:44.951Z</time></trkpt><trkpt lat="45.20297597486256" lon="11.755576003026468"><ele>3.0</ele><time>2026-04-04T13:41:45.951Z</time></trkpt><trkpt lat="45.203131198387695" lon="11.755574739408761"><ele>2.6666666666666665</ele><time>2026-04-04T13:41:46.951Z</time></trkpt><trkpt lat="45.20329277625241" lon="11.75558036475582"><ele>2.333333333333333</ele><time>2026-04-04T13:41:47.951Z</time></trkpt><trkpt lat="45.20345989836006" lon="11.755591636882173"><ele>2.0</ele><time>2026-04-04T13:41:48.951Z</time></trkpt><trkpt lat="45.20363612932898" lon="11.755607274215029"><ele>2.0</ele><time>2026-04-04T13:41:49.951Z</time></trkpt><trkpt lat="45.20380548694693" lon="11.755631030258977"><ele>2.0</ele><time>2026-04-04T13:41:50.951Z</time></trkpt><trkpt lat="45.20396702987495" lon="11.75566320200745"><ele>2.0</ele><time>2026-04-04T13:41:51.951Z</time></trkpt><trkpt lat="45.204127082800774" lon="11.755701083579618"><ele>2.6666666666666665</ele><time>2026-04-04T13:41:52.951Z</time></trkpt><trkpt lat="45.204285441087364" lon="11.755742088955843"><ele>3.333333333333333</ele><time>2026-04-04T13:41:53.951Z</time></trkpt><trkpt lat="45.20443152493846" lon="11.755793152344573"><ele>4.0</ele><time>2026-04-04T13:41:54.951Z</time></trkpt><trkpt lat="45.20456506232985" lon="11.75584899025244"><ele>3.9999999999999996</ele><time>2026-04-04T13:41:55.951Z</time></trkpt><trkpt lat="45.20468447077187" lon="11.755897157503247"><ele>4.0</ele><time>2026-04-04T13:41:56.951Z</time></trkpt><trkpt lat="45.20477743767359" lon="11.755939112818464"><ele>4.0</ele><time>2026-04-04T13:41:57.951Z</time></trkpt><trkpt lat="45.20484812232916" lon="11.755981894557204"><ele>4.0</ele><time>2026-04-04T13:41:58.951Z</time></trkpt><trkpt lat="45.204907849003995" lon="11.756026031436178"><ele>3.9999999999999996</ele><time>2026-04-04T13:41:59.951Z</time></trkpt><trkpt lat="45.20496961073928" lon="11.756089333457503"><ele>4.0</ele><time>2026-04-04T13:42:00.951Z</time></trkpt><trkpt lat="45.20501719284256" lon="11.756180299081743"><ele>4.0</ele><time>2026-04-04T13:42:01.951Z</time></trkpt><trkpt lat="45.20504253756958" lon="11.756293477984755"><ele>4.0</ele><time>2026-04-04T13:42:02.951Z</time></trkpt><trkpt lat="45.20511595446515" lon="11.756371078283609"><ele>4.0</ele><time>2026-04-04T13:42:03.951Z</time></trkpt><trkpt lat="45.205186325681396" lon="11.756448846382641"><ele>4.0</ele><time>2026-04-04T13:42:04.951Z</time></trkpt><trkpt lat="45.205280993804735" lon="11.756469936930136"><ele>4.0</ele><time>2026-04-04T13:42:05.951Z</time></trkpt><trkpt lat="45.20539837373045" lon="11.756495063912427"><ele>4.0</ele><time>2026-04-04T13:42:06.951Z</time></trkpt><trkpt lat="45.205534143594406" lon="11.75655208185241"><ele>4.0</ele><time>2026-04-04T13:42:07.951Z</time></trkpt><trkpt lat="45.2056688074686" lon="11.756643256110138"><ele>4.0</ele><time>2026-04-04T13:42:08.951Z</time></trkpt><trkpt lat="45.205785826870695" lon="11.756755573561918"><ele>4.0</ele><time>2026-04-04T13:42:09.951Z</time></trkpt><trkpt lat="45.20589777990298" lon="11.756875429566696"><ele>3.75</ele><time>2026-04-04T13:42:10.951Z</time></trkpt><trkpt lat="45.20602433849437" lon="11.756983703403103"><ele>3.5</ele><time>2026-04-04T13:42:11.951Z</time></trkpt><trkpt lat="45.20615191334198" lon="11.75708177554949"><ele>3.25</ele><time>2026-04-04T13:42:12.951Z</time></trkpt><trkpt lat="45.20628516967664" lon="11.757163873833957"><ele>3.0</ele><time>2026-04-04T13:42:13.951Z</time></trkpt><trkpt lat="45.20642870467862" lon="11.75723956878969"><ele>3.333333333333333</ele><time>2026-04-04T13:42:14.951Z</time></trkpt><trkpt lat="45.206576893606666" lon="11.757316500222556"><ele>3.6666666666666665</ele><time>2026-04-04T13:42:15.951Z</time></trkpt><trkpt lat="45.20673065510961" lon="11.757388515459503"><ele>4.0</ele><time>2026-04-04T13:42:16.951Z</time></trkpt><trkpt lat="45.20690419428576" lon="11.757445007229231"><ele>4.0</ele><time>2026-04-04T13:42:17.951Z</time></trkpt><trkpt lat="45.20708361879324" lon="11.757496052792881"><ele>4.0</ele><time>2026-04-04T13:42:18.951Z</time></trkpt><trkpt lat="45.20727204430579" lon="11.757540949251965"><ele>4.0</ele><time>2026-04-04T13:42:19.951Z</time></trkpt><trkpt lat="45.20746962509297" lon="11.75756732237472"><ele>4.0</ele><time>2026-04-04T13:42:20.951Z</time></trkpt><trkpt lat="45.207662398820396" lon="11.75757411709248"><ele>4.0</ele><time>2026-04-04T13:42:21.951Z</time></trkpt><trkpt lat="45.20784447457947" lon="11.757573014831731"><ele>4.0</ele><time>2026-04-04T13:42:22.95Z</time></trkpt><trkpt lat="45.208019124931596" lon="11.757571679400863"><ele>4.333333333333333</ele><time>2026-04-04T13:42:23.95Z</time></trkpt><trkpt lat="45.208191826429186" lon="11.757570941317232"><ele>4.666666666666667</ele><time>2026-04-04T13:42:24.95Z</time></trkpt><trkpt lat="45.20836529188509" lon="11.757561826848677"><ele>5.0</ele><time>2026-04-04T13:42:25.95Z</time></trkpt><trkpt lat="45.20852805981441" lon="11.757553221169205"><ele>5.0</ele><time>2026-04-04T13:42:26.95Z</time></trkpt><trkpt lat="45.20867933155765" lon="11.757544741406017"><ele>5.0</ele><time>2026-04-04T13:42:27.95Z</time></trkpt><trkpt lat="45.208838317427066" lon="11.757542365909947"><ele>5.0</ele><time>2026-04-04T13:42:28.95Z</time></trkpt><trkpt lat="45.209000725027025" lon="11.757541527400605"><ele>5.666666666666667</ele><time>2026-04-04T13:42:29.95Z</time></trkpt><trkpt lat="45.20915880675777" lon="11.757535507295536"><ele>6.333333333333334</ele><time>2026-04-04T13:42:30.95Z</time></trkpt><trkpt lat="45.2093174480229" lon="11.757530326820694"><ele>7.0</ele><time>2026-04-04T13:42:31.95Z</time></trkpt><trkpt lat="45.2094710180367" lon="11.757520595610728"><ele>7.0</ele><time>2026-04-04T13:42:32.95Z</time></trkpt><trkpt lat="45.209630245451805" lon="11.757510946824244"><ele>7.0</ele><time>2026-04-04T13:42:33.95Z</time></trkpt><trkpt lat="45.209785476892336" lon="11.757503861169067"><ele>7.0</ele><time>2026-04-04T13:42:34.95Z</time></trkpt><trkpt lat="45.20994785724935" lon="11.757509312211454"><ele>6.333333333333334</ele><time>2026-04-04T13:42:35.95Z</time></trkpt><trkpt lat="45.210117914359024" lon="11.757512452922718"><ele>5.666666666666667</ele><time>2026-04-04T13:42:36.95Z</time></trkpt><trkpt lat="45.2102756066265" lon="11.757500170621173"><ele>5.0</ele><time>2026-04-04T13:42:37.95Z</time></trkpt><trkpt lat="45.21044545945815" lon="11.757491456773266"><ele>5.0</ele><time>2026-04-04T13:42:38.95Z</time></trkpt><trkpt lat="45.21061805012047" lon="11.7574585798677"><ele>5.0</ele><time>2026-04-04T13:42:39.95Z</time></trkpt><trkpt lat="45.21078600668123" lon="11.757416908684071"><ele>5.0</ele><time>2026-04-04T13:42:40.95Z</time></trkpt><trkpt lat="45.210955240054176" lon="11.757356101601104"><ele>5.333333333333334</ele><time>2026-04-04T13:42:41.95Z</time></trkpt><trkpt lat="45.21111832934687" lon="11.757283544443338"><ele>5.666666666666667</ele><time>2026-04-04T13:42:42.95Z</time></trkpt><trkpt lat="45.2112808421303" lon="11.757197869140734"><ele>6.0</ele><time>2026-04-04T13:42:43.95Z</time></trkpt><trkpt lat="45.21142235939229" lon="11.75710878600285"><ele>5.5</ele><time>2026-04-04T13:42:44.95Z</time></trkpt><trkpt lat="45.21155123880421" lon="11.757012661319802"><ele>5.0</ele><time>2026-04-04T13:42:45.95Z</time></trkpt><trkpt lat="45.21167310868982" lon="11.75691570491999"><ele>4.5</ele><time>2026-04-04T13:42:46.95Z</time></trkpt><trkpt lat="45.21179048908801" lon="11.756815700703138"><ele>4.0</ele><time>2026-04-04T13:42:47.95Z</time></trkpt><trkpt lat="45.21190585063238" lon="11.756705824649035"><ele>3.5</ele><time>2026-04-04T13:42:48.95Z</time></trkpt><trkpt lat="45.212016101454225" lon="11.756596404464121"><ele>3.0</ele><time>2026-04-04T13:42:49.952Z</time></trkpt><trkpt lat="45.21212290203456" lon="11.756510357932688"><ele>2.5</ele><time>2026-04-04T13:42:50.952Z</time></trkpt><trkpt lat="45.212223815299275" lon="11.756432416689224"><ele>2.0</ele><time>2026-04-04T13:42:51.952Z</time></trkpt><trkpt lat="45.21231285381892" lon="11.756362835683518"><ele>2.5</ele><time>2026-04-04T13:42:52.951Z</time></trkpt><trkpt lat="45.21238946496451" lon="11.7562907858343"><ele>3.0</ele><time>2026-04-04T13:42:53.951Z</time></trkpt><trkpt lat="45.212457440810695" lon="11.75622665507897"><ele>3.5</ele><time>2026-04-04T13:42:54.951Z</time></trkpt><trkpt lat="45.212546907329134" lon="11.756147810777888"><ele>4.0</ele><time>2026-04-04T13:42:56.951Z</time></trkpt><trkpt lat="45.21260411473963" lon="11.756067818880787"><ele>4.5</ele><time>2026-04-04T13:42:59.951Z</time></trkpt><trkpt lat="45.212660990767205" lon="11.755997883726732"><ele>5.0</ele><time>2026-04-04T13:43:01.952Z</time></trkpt><trkpt lat="45.21272278652453" lon="11.755943429397238"><ele>5.0</ele><time>2026-04-04T13:43:03.951Z</time></trkpt><trkpt lat="45.212818799035816" lon="11.755877392629948"><ele>5.0</ele><time>2026-04-04T13:43:05.951Z</time></trkpt><trkpt lat="45.21289304623405" lon="11.755853572799497"><ele>5.0</ele><time>2026-04-04T13:43:06.951Z</time></trkpt><trkpt lat="45.21296831256746" lon="11.755810248096367"><ele>5.0</ele><time>2026-04-04T13:43:07.951Z</time></trkpt><trkpt lat="45.21304175504844" lon="11.755749244532343"><ele>5.0</ele><time>2026-04-04T13:43:08.951Z</time></trkpt><trkpt lat="45.213103312193034" lon="11.755650313897052"><ele>5.0</ele><time>2026-04-04T13:43:09.951Z</time></trkpt><trkpt lat="45.2131775530923" lon="11.755547252935804"><ele>5.25</ele><time>2026-04-04T13:43:10.951Z</time></trkpt><trkpt lat="45.2132716156095" lon="11.755465031480956"><ele>5.5</ele><time>2026-04-04T13:43:11.951Z</time></trkpt><trkpt lat="45.21339244754292" lon="11.755405847735519"><ele>5.75</ele><time>2026-04-04T13:43:12.951Z</time></trkpt><trkpt lat="45.21351471148748" lon="11.755384273896947"><ele>6.0</ele><time>2026-04-04T13:43:13.951Z</time></trkpt><trkpt lat="45.21364758961619" lon="11.755358914417563"><ele>6.0</ele><time>2026-04-04T13:43:14.951Z</time></trkpt><trkpt lat="45.213787384901735" lon="11.755332917851563"><ele>6.0</ele><time>2026-04-04T13:43:15.951Z</time></trkpt><trkpt lat="45.21392804744167" lon="11.75532109215401"><ele>6.0</ele><time>2026-04-04T13:43:16.951Z</time></trkpt><trkpt lat="45.21406285898978" lon="11.755317878702886"><ele>6.0</ele><time>2026-04-04T13:43:17.951Z</time></trkpt><trkpt lat="45.214191898381344" lon="11.755306648721373"><ele>5.75</ele><time>2026-04-04T13:43:18.951Z</time></trkpt><trkpt lat="45.21431908780857" lon="11.75529954223353"><ele>5.5</ele><time>2026-04-04T13:43:19.951Z</time></trkpt><trkpt lat="45.214431762602445" lon="11.755291469343808"><ele>5.25</ele><time>2026-04-04T13:43:20.951Z</time></trkpt><trkpt lat="45.214556792446544" lon="11.755284366746098"><ele>5.0</ele><time>2026-04-04T13:43:21.95Z</time></trkpt><trkpt lat="45.21468909085149" lon="11.75529960453527"><ele>5.5</ele><time>2026-04-04T13:43:22.95Z</time></trkpt><trkpt lat="45.214821046740404" lon="11.755296397736004"><ele>6.0</ele><time>2026-04-04T13:43:23.95Z</time></trkpt><trkpt lat="45.214951851007335" lon="11.755269929569216"><ele>6.5</ele><time>2026-04-04T13:43:24.95Z</time></trkpt><trkpt lat="45.21508220036045" lon="11.755281933208627"><ele>7.0</ele><time>2026-04-04T13:43:25.95Z</time></trkpt><trkpt lat="45.21521414302398" lon="11.755280150221072"><ele>7.0</ele><time>2026-04-04T13:43:26.95Z</time></trkpt><trkpt lat="45.215336250347" lon="11.755277401078844"><ele>7.0</ele><time>2026-04-04T13:43:27.95Z</time></trkpt><trkpt lat="45.21546452109107" lon="11.755276723057138"><ele>7.0</ele><time>2026-04-04T13:43:28.95Z</time></trkpt><trkpt lat="45.21559787070038" lon="11.755274892934194"><ele>7.0</ele><time>2026-04-04T13:43:29.95Z</time></trkpt><trkpt lat="45.215738073600804" lon="11.755267694477297"><ele>6.75</ele><time>2026-04-04T13:43:30.95Z</time></trkpt><trkpt lat="45.21588368419084" lon="11.755261455944964"><ele>6.5</ele><time>2026-04-04T13:43:31.95Z</time></trkpt><trkpt lat="45.21603713466463" lon="11.755249260883444"><ele>6.25</ele><time>2026-04-04T13:43:32.95Z</time></trkpt><trkpt lat="45.21617772959926" lon="11.75527339412752"><ele>6.0</ele><time>2026-04-04T13:43:33.95Z</time></trkpt><trkpt lat="45.216309863105764" lon="11.755269324635364"><ele>6.0</ele><time>2026-04-04T13:43:34.95Z</time></trkpt><trkpt lat="45.2164317187921" lon="11.755257773727243"><ele>6.0</ele><time>2026-04-04T13:43:35.95Z</time></trkpt><trkpt lat="45.21654459605887" lon="11.755250296495342"><ele>6.0</ele><time>2026-04-04T13:43:36.95Z</time></trkpt><trkpt lat="45.21665126050715" lon="11.755248103667924"><ele>6.0</ele><time>2026-04-04T13:43:37.95Z</time></trkpt><trkpt lat="45.21674993369199" lon="11.75524652986298"><ele>6.0</ele><time>2026-04-04T13:43:38.95Z</time></trkpt><trkpt lat="45.21683758407396" lon="11.755241487657921"><ele>6.199999999999999</ele><time>2026-04-04T13:43:39.95Z</time></trkpt><trkpt lat="45.21691191494893" lon="11.755234583188766"><ele>6.3999999999999995</ele><time>2026-04-04T13:43:40.95Z</time></trkpt><trkpt lat="45.21698099881115" lon="11.755227520840036"><ele>6.6</ele><time>2026-04-04T13:43:41.95Z</time></trkpt><trkpt lat="45.217089136960105" lon="11.755245682067887"><ele>6.8</ele><time>2026-04-04T13:43:43.95Z</time></trkpt><trkpt lat="45.21721561942555" lon="11.75525749180816"><ele>7.0</ele><time>2026-04-04T13:43:45.95Z</time></trkpt><trkpt lat="45.21729493049253" lon="11.75529890018604"><ele>6.75</ele><time>2026-04-04T13:43:46.95Z</time></trkpt><trkpt lat="45.217391538695516" lon="11.755312871599292"><ele>6.5</ele><time>2026-04-04T13:43:47.95Z</time></trkpt><trkpt lat="45.21750560746955" lon="11.755287567395419"><ele>6.25</ele><time>2026-04-04T13:43:48.95Z</time></trkpt><trkpt lat="45.21763582086552" lon="11.755241068511847"><ele>6.0</ele><time>2026-04-04T13:43:49.95Z</time></trkpt><trkpt lat="45.217778821138516" lon="11.755216243381707"><ele>6.0</ele><time>2026-04-04T13:43:50.95Z</time></trkpt><trkpt lat="45.21792450711138" lon="11.755221667270964"><ele>6.0</ele><time>2026-04-04T13:43:51.95Z</time></trkpt><trkpt lat="45.21807271550192" lon="11.755217483323339"><ele>6.0</ele><time>2026-04-04T13:43:52.95Z</time></trkpt><trkpt lat="45.21822461073121" lon="11.755214756933231"><ele>6.0</ele><time>2026-04-04T13:43:53.95Z</time></trkpt><trkpt lat="45.21837664105671" lon="11.755218052696636"><ele>5.666666666666667</ele><time>2026-04-04T13:43:54.95Z</time></trkpt><trkpt lat="45.21852983940622" lon="11.755213685692743"><ele>5.333333333333334</ele><time>2026-04-04T13:43:55.95Z</time></trkpt><trkpt lat="45.21868174334238" lon="11.7552036012041"><ele>5.0</ele><time>2026-04-04T13:43:56.95Z</time></trkpt><trkpt lat="45.218827160788834" lon="11.755202206763398"><ele>5.0</ele><time>2026-04-04T13:43:57.95Z</time></trkpt><trkpt lat="45.218974798749905" lon="11.755206543421592"><ele>5.0</ele><time>2026-04-04T13:43:58.95Z</time></trkpt><trkpt lat="45.219124644243756" lon="11.75520294436791"><ele>5.0</ele><time>2026-04-04T13:43:59.95Z</time></trkpt><trkpt lat="45.219273793163715" lon="11.755201216148109"><ele>5.0</ele><time>2026-04-04T13:44:00.95Z</time></trkpt><trkpt lat="45.219428854907164" lon="11.755194731822904"><ele>6.0</ele><time>2026-04-04T13:44:01.949Z</time></trkpt><trkpt lat="45.21959195564929" lon="11.755190945454084"><ele>7.0</ele><time>2026-04-04T13:44:02.949Z</time></trkpt><trkpt lat="45.219760779653065" lon="11.755181443310263"><ele>8.0</ele><time>2026-04-04T13:44:03.949Z</time></trkpt><trkpt lat="45.21992898585537" lon="11.75517442915654"><ele>8.0</ele><time>2026-04-04T13:44:04.949Z</time></trkpt><trkpt lat="45.22009083041991" lon="11.755172083178653"><ele>8.0</ele><time>2026-04-04T13:44:05.949Z</time></trkpt><trkpt lat="45.22025105111889" lon="11.755167871513866"><ele>8.0</ele><time>2026-04-04T13:44:06.949Z</time></trkpt><trkpt lat="45.22040940348002" lon="11.755173500719392"><ele>8.0</ele><time>2026-04-04T13:44:07.949Z</time></trkpt><trkpt lat="45.220566059716475" lon="11.75517355578064"><ele>8.0</ele><time>2026-04-04T13:44:08.949Z</time></trkpt><trkpt lat="45.22072166786537" lon="11.755171040484907"><ele>8.0</ele><time>2026-04-04T13:44:09.949Z</time></trkpt><trkpt lat="45.220868379498285" lon="11.75516730930459"><ele>7.666666666666666</ele><time>2026-04-04T13:44:10.949Z</time></trkpt><trkpt lat="45.221017465842515" lon="11.755165722511727"><ele>7.333333333333334</ele><time>2026-04-04T13:44:11.949Z</time></trkpt><trkpt lat="45.221173331297926" lon="11.755167990212831"><ele>7.0</ele><time>2026-04-04T13:44:12.949Z</time></trkpt><trkpt lat="45.22132723040903" lon="11.755167362967399"><ele>7.0</ele><time>2026-04-04T13:44:13.949Z</time></trkpt><trkpt lat="45.22147992492149" lon="11.755163664612509"><ele>7.0</ele><time>2026-04-04T13:44:14.949Z</time></trkpt><trkpt lat="45.22162805836643" lon="11.7551594552243"><ele>7.0</ele><time>2026-04-04T13:44:15.949Z</time></trkpt><trkpt lat="45.22178244594667" lon="11.755153389775137"><ele>7.0</ele><time>2026-04-04T13:44:16.949Z</time></trkpt><trkpt lat="45.221936422095595" lon="11.755149756862993"><ele>7.0</ele><time>2026-04-04T13:44:17.949Z</time></trkpt><trkpt lat="45.22210049348364" lon="11.755148319863418"><ele>7.0</ele><time>2026-04-04T13:44:18.949Z</time></trkpt><trkpt lat="45.2222683834042" lon="11.755146025309028"><ele>6.0</ele><time>2026-04-04T13:44:19.949Z</time></trkpt><trkpt lat="45.22244568328765" lon="11.755144900500959"><ele>5.0</ele><time>2026-04-04T13:44:20.949Z</time></trkpt><trkpt lat="45.22262259853168" lon="11.755140188899045"><ele>4.0</ele><time>2026-04-04T13:44:21.949Z</time></trkpt><trkpt lat="45.22280081000414" lon="11.75513442881353"><ele>4.0</ele><time>2026-04-04T13:44:22.949Z</time></trkpt><trkpt lat="45.222975068365436" lon="11.755129319346413"><ele>4.0</ele><time>2026-04-04T13:44:23.949Z</time></trkpt><trkpt lat="45.223144049552396" lon="11.755126250682439"><ele>4.0</ele><time>2026-04-04T13:44:24.949Z</time></trkpt><trkpt lat="45.22330846058437" lon="11.755127080455384"><ele>5.0</ele><time>2026-04-04T13:44:25.949Z</time></trkpt><trkpt lat="45.22347402438586" lon="11.755123064756491"><ele>6.0</ele><time>2026-04-04T13:44:26.949Z</time></trkpt><trkpt lat="45.22363249025551" lon="11.755119048216745"><ele>7.0</ele><time>2026-04-04T13:44:27.949Z</time></trkpt><trkpt lat="45.22379705349938" lon="11.755116754325137"><ele>7.0</ele><time>2026-04-04T13:44:28.949Z</time></trkpt><trkpt lat="45.22396674046143" lon="11.755112386065104"><ele>7.0</ele><time>2026-04-04T13:44:29.949Z</time></trkpt><trkpt lat="45.224144596588815" lon="11.755106853387161"><ele>7.0</ele><time>2026-04-04T13:44:30.949Z</time></trkpt><trkpt lat="45.224335259745125" lon="11.75510033594698"><ele>7.0</ele><time>2026-04-04T13:44:31.949Z</time></trkpt><trkpt lat="45.22453293012314" lon="11.755097672525444"><ele>7.0</ele><time>2026-04-04T13:44:32.949Z</time></trkpt><trkpt lat="45.22473069049624" lon="11.755088181748715"><ele>7.0</ele><time>2026-04-04T13:44:33.949Z</time></trkpt><trkpt lat="45.224926658810894" lon="11.755079500423935"><ele>7.0</ele><time>2026-04-04T13:44:34.949Z</time></trkpt><trkpt lat="45.2251135887069" lon="11.755071476722028"><ele>7.0</ele><time>2026-04-04T13:44:35.949Z</time></trkpt><trkpt lat="45.22527669652335" lon="11.755064669132787"><ele>7.0</ele><time>2026-04-04T13:44:36.949Z</time></trkpt><trkpt lat="45.225425276387796" lon="11.75506391259109"><ele>7.0</ele><time>2026-04-04T13:44:37.949Z</time></trkpt><trkpt lat="45.22556089641959" lon="11.7550664232284"><ele>7.0</ele><time>2026-04-04T13:44:38.949Z</time></trkpt><trkpt lat="45.22570104079605" lon="11.755065865329335"><ele>7.0</ele><time>2026-04-04T13:44:39.949Z</time></trkpt><trkpt lat="45.22584587989918" lon="11.755059188794313"><ele>7.0</ele><time>2026-04-04T13:44:40.949Z</time></trkpt><trkpt lat="45.22599406962882" lon="11.755049650875465"><ele>6.75</ele><time>2026-04-04T13:44:41.948Z</time></trkpt><trkpt lat="45.22613699093216" lon="11.755047921316667"><ele>6.5</ele><time>2026-04-04T13:44:42.948Z</time></trkpt><trkpt lat="45.22628095528391" lon="11.755054754073301"><ele>6.25</ele><time>2026-04-04T13:44:43.948Z</time></trkpt><trkpt lat="45.22641977076801" lon="11.755050590210518"><ele>6.0</ele><time>2026-04-04T13:44:44.948Z</time></trkpt><trkpt lat="45.226558716663824" lon="11.75505372607635"><ele>6.0</ele><time>2026-04-04T13:44:45.948Z</time></trkpt><trkpt lat="45.22669699216818" lon="11.755049682488757"><ele>6.0</ele><time>2026-04-04T13:44:46.948Z</time></trkpt><trkpt lat="45.22682848483651" lon="11.755043284391416"><ele>6.0</ele><time>2026-04-04T13:44:47.948Z</time></trkpt><trkpt lat="45.226961369389535" lon="11.755039634545119"><ele>6.0</ele><time>2026-04-04T13:44:48.948Z</time></trkpt><trkpt lat="45.22709018827741" lon="11.755037073320814"><ele>6.0</ele><time>2026-04-04T13:44:49.948Z</time></trkpt><trkpt lat="45.2272274166826" lon="11.755032078463627"><ele>6.0</ele><time>2026-04-04T13:44:50.948Z</time></trkpt><trkpt lat="45.22736174854562" lon="11.755027551466265"><ele>6.0</ele><time>2026-04-04T13:44:51.948Z</time></trkpt><trkpt lat="45.22749567442611" lon="11.755019955790063"><ele>6.0</ele><time>2026-04-04T13:44:52.948Z</time></trkpt><trkpt lat="45.22762256306345" lon="11.755010733596649"><ele>6.199999999999999</ele><time>2026-04-04T13:44:53.948Z</time></trkpt><trkpt lat="45.22774248191607" lon="11.75500575084261"><ele>6.3999999999999995</ele><time>2026-04-04T13:44:54.948Z</time></trkpt><trkpt lat="45.227852180368" lon="11.754999353051105"><ele>6.6</ele><time>2026-04-04T13:44:55.95Z</time></trkpt><trkpt lat="45.22794868519019" lon="11.75499544628432"><ele>6.8</ele><time>2026-04-04T13:44:56.95Z</time></trkpt><trkpt lat="45.228043157522336" lon="11.754993968024698"><ele>7.0</ele><time>2026-04-04T13:44:57.95Z</time></trkpt><trkpt lat="45.22813325071858" lon="11.754992105889647"><ele>7.500000000000001</ele><time>2026-04-04T13:44:58.95Z</time></trkpt><trkpt lat="45.22822341081193" lon="11.754990885797099"><ele>8.0</ele><time>2026-04-04T13:44:59.95Z</time></trkpt><trkpt lat="45.22831209995436" lon="11.754986246511463"><ele>8.5</ele><time>2026-04-04T13:45:00.95Z</time></trkpt><trkpt lat="45.2283999562449" lon="11.754982698515061"><ele>9.0</ele><time>2026-04-04T13:45:01.95Z</time></trkpt><trkpt lat="45.22849009665562" lon="11.754979270751898"><ele>9.5</ele><time>2026-04-04T13:45:02.95Z</time></trkpt><trkpt lat="45.22858126950127" lon="11.754978722127495"><ele>10.0</ele><time>2026-04-04T13:45:03.95Z</time></trkpt><trkpt lat="45.22866759509336" lon="11.754974766467623"><ele>10.0</ele><time>2026-04-04T13:45:04.949Z</time></trkpt><trkpt lat="45.22874068929148" lon="11.754974038531596"><ele>10.0</ele><time>2026-04-04T13:45:05.949Z</time></trkpt><trkpt lat="45.22880771236658" lon="11.754968164157118"><ele>10.0</ele><time>2026-04-04T13:45:06.949Z</time></trkpt><trkpt lat="45.22889428015749" lon="11.754970452474202"><ele>10.0</ele><time>2026-04-04T13:45:08.949Z</time></trkpt><trkpt lat="45.22895818273492" lon="11.754970244628721"><ele>10.0</ele><time>2026-04-04T13:45:10.949Z</time></trkpt><trkpt lat="45.22902677357669" lon="11.754950177315779"><ele>10.0</ele><time>2026-04-04T13:45:29.949Z</time></trkpt><trkpt lat="45.22914563867386" lon="11.75494564410456"><ele>10.0</ele><time>2026-04-04T13:45:31.949Z</time></trkpt><trkpt lat="45.22926697597843" lon="11.754948808533292"><ele>10.0</ele><time>2026-04-04T13:45:33.949Z</time></trkpt><trkpt lat="45.22937359220467" lon="11.754953625059507"><ele>10.0</ele><time>2026-04-04T13:45:35.949Z</time></trkpt><trkpt lat="45.229458026979394" lon="11.754954215225867"><ele>10.0</ele><time>2026-04-04T13:45:45.948Z</time></trkpt><trkpt lat="45.22952225179132" lon="11.75495293874123"><ele>10.0</ele><time>2026-04-04T13:45:47.948Z</time></trkpt><trkpt lat="45.22959845322247" lon="11.754951300332449"><ele>10.0</ele><time>2026-04-04T13:45:49.948Z</time></trkpt><trkpt lat="45.2297087650432" lon="11.754942494045752"><ele>10.0</ele><time>2026-04-04T13:45:51.948Z</time></trkpt><trkpt lat="45.229837952145445" lon="11.754945850295035"><ele>10.0</ele><time>2026-04-04T13:45:53.948Z</time></trkpt><trkpt lat="45.22991472237817" lon="11.754944124329882"><ele>10.0</ele><time>2026-04-04T13:45:54.948Z</time></trkpt><trkpt lat="45.22998813829416" lon="11.754942166385957"><ele>10.0</ele><time>2026-04-04T13:45:55.948Z</time></trkpt><trkpt lat="45.230067559895005" lon="11.754942847361997"><ele>9.833333333333334</ele><time>2026-04-04T13:45:56.948Z</time></trkpt><trkpt lat="45.230153705685865" lon="11.754943255243157"><ele>9.666666666666668</ele><time>2026-04-04T13:45:57.948Z</time></trkpt><trkpt lat="45.230240449599656" lon="11.754947527398873"><ele>9.5</ele><time>2026-04-04T13:45:58.948Z</time></trkpt><trkpt lat="45.23033420004269" lon="11.754943367515262"><ele>9.333333333333334</ele><time>2026-04-04T13:45:59.948Z</time></trkpt><trkpt lat="45.23041995379349" lon="11.754941189889944"><ele>9.166666666666666</ele><time>2026-04-04T13:46:00.948Z</time></trkpt><trkpt lat="45.2305075927333" lon="11.754942107619398"><ele>9.0</ele><time>2026-04-04T13:46:01.948Z</time></trkpt><trkpt lat="45.23059552897436" lon="11.754940814498354"><ele>8.5</ele><time>2026-04-04T13:46:02.948Z</time></trkpt><trkpt lat="45.23069068625351" lon="11.754931354523611"><ele>8.0</ele><time>2026-04-04T13:46:03.948Z</time></trkpt><trkpt lat="45.230787094144915" lon="11.754921603934521"><ele>7.5</ele><time>2026-04-04T13:46:04.948Z</time></trkpt><trkpt lat="45.230874118257745" lon="11.75491351709833"><ele>7.0</ele><time>2026-04-04T13:46:05.948Z</time></trkpt><trkpt lat="45.230961103284685" lon="11.754912083584067"><ele>6.5</ele><time>2026-04-04T13:46:06.948Z</time></trkpt><trkpt lat="45.2310435839447" lon="11.754910540366941"><ele>6.0</ele><time>2026-04-04T13:46:07.948Z</time></trkpt><trkpt lat="45.231123081858925" lon="11.75491146937638"><ele>6.0</ele><time>2026-04-04T13:46:08.948Z</time></trkpt><trkpt lat="45.231198817098885" lon="11.754911185690188"><ele>6.0</ele><time>2026-04-04T13:46:09.948Z</time></trkpt><trkpt lat="45.231270752103626" lon="11.754909132433738"><ele>6.0</ele><time>2026-04-04T13:46:10.948Z</time></trkpt><trkpt lat="45.2313394180209" lon="11.754904991365223"><ele>6.0</ele><time>2026-04-04T13:46:11.948Z</time></trkpt><trkpt lat="45.231405093993104" lon="11.754902768007211"><ele>6.0</ele><time>2026-04-04T13:46:12.948Z</time></trkpt><trkpt lat="45.23153162610414" lon="11.75496298946154"><ele>6.0</ele><time>2026-04-04T13:46:14.948Z</time></trkpt><trkpt lat="45.23158741255641" lon="11.755023934297231"><ele>6.166666666666667</ele><time>2026-04-04T13:46:15.948Z</time></trkpt><trkpt lat="45.23165888094312" lon="11.75510089634261"><ele>6.333333333333334</ele><time>2026-04-04T13:46:16.948Z</time></trkpt><trkpt lat="45.23172910043474" lon="11.755182592126614"><ele>6.5</ele><time>2026-04-04T13:46:17.948Z</time></trkpt><trkpt lat="45.23180388789013" lon="11.7552430719839"><ele>6.666666666666667</ele><time>2026-04-04T13:46:18.948Z</time></trkpt><trkpt lat="45.23186885309002" lon="11.755258768804296"><ele>6.833333333333334</ele><time>2026-04-04T13:46:19.948Z</time></trkpt><trkpt lat="45.231936020091226" lon="11.755252412033753"><ele>7.0</ele><time>2026-04-04T13:46:20.948Z</time></trkpt><trkpt lat="45.23201568805391" lon="11.755160369092177"><ele>7.000000000000001</ele><time>2026-04-04T13:46:22.948Z</time></trkpt><trkpt lat="45.23206373299033" lon="11.755054207667506"><ele>7.0</ele><time>2026-04-04T13:46:23.948Z</time></trkpt><trkpt lat="45.23208898497726" lon="11.75495058980136"><ele>7.0</ele><time>2026-04-04T13:46:24.947Z</time></trkpt><trkpt lat="45.23208291663435" lon="11.754830507820703"><ele>7.0</ele><time>2026-04-04T13:46:25.947Z</time></trkpt><trkpt lat="45.23205774780333" lon="11.754708995463613"><ele>7.000000000000001</ele><time>2026-04-04T13:46:26.947Z</time></trkpt><trkpt lat="45.23200485328409" lon="11.75458692949339"><ele>7.0</ele><time>2026-04-04T13:46:27.947Z</time></trkpt><trkpt lat="45.2319385903153" lon="11.75448743084525"><ele>7.000000000000001</ele><time>2026-04-04T13:46:28.947Z</time></trkpt><trkpt lat="45.2318623274347" lon="11.754476052167584"><ele>7.0</ele><time>2026-04-04T13:46:29.947Z</time></trkpt><trkpt lat="45.23186570068194" lon="11.75431059588735"><ele>7.0</ele><time>2026-04-04T13:46:30.947Z</time></trkpt><trkpt lat="45.231840715752384" lon="11.754207217164756"><ele>7.0</ele><time>2026-04-04T13:46:31.947Z</time></trkpt><trkpt lat="45.23181049737424" lon="11.754091591265022"><ele>7.000000000000001</ele><time>2026-04-04T13:46:32.947Z</time></trkpt><trkpt lat="45.231787079771046" lon="11.753972514626962"><ele>7.0</ele><time>2026-04-04T13:46:33.947Z</time></trkpt><trkpt lat="45.231749004331014" lon="11.753859478660825"><ele>7.199999999999999</ele><time>2026-04-04T13:46:34.947Z</time></trkpt><trkpt lat="45.23171515994705" lon="11.75374593370958"><ele>7.3999999999999995</ele><time>2026-04-04T13:46:35.947Z</time></trkpt><trkpt lat="45.231675111791986" lon="11.753627219807147"><ele>7.6000000000000005</ele><time>2026-04-04T13:46:36.947Z</time></trkpt><trkpt lat="45.2316395328983" lon="11.75350514720747"><ele>7.800000000000001</ele><time>2026-04-04T13:46:37.947Z</time></trkpt><trkpt lat="45.23160931057455" lon="11.75338185311989"><ele>8.0</ele><time>2026-04-04T13:46:38.947Z</time></trkpt><trkpt lat="45.231574088520766" lon="11.75326154899584"><ele>8.200000000000001</ele><time>2026-04-04T13:46:39.947Z</time></trkpt><trkpt lat="45.23154721585922" lon="11.753143512228618"><ele>8.4</ele><time>2026-04-04T13:46:40.947Z</time></trkpt><trkpt lat="45.231520075269" lon="11.75302341620748"><ele>8.600000000000001</ele><time>2026-04-04T13:46:41.947Z</time></trkpt><trkpt lat="45.2314696787854" lon="11.75288239562522"><ele>8.8</ele><time>2026-04-04T13:46:42.947Z</time></trkpt><trkpt lat="45.23148178066747" lon="11.752726466143857"><ele>9.0</ele><time>2026-04-04T13:46:43.947Z</time></trkpt><trkpt lat="45.23145501349125" lon="11.752579950714509"><ele>9.25</ele><time>2026-04-04T13:46:44.947Z</time></trkpt><trkpt lat="45.23142166057612" lon="11.752424415217504"><ele>9.5</ele><time>2026-04-04T13:46:45.947Z</time></trkpt><trkpt lat="45.23137197733306" lon="11.752267704277735"><ele>9.75</ele><time>2026-04-04T13:46:46.947Z</time></trkpt><trkpt lat="45.23132182691624" lon="11.752104251785925"><ele>10.0</ele><time>2026-04-04T13:46:47.947Z</time></trkpt><trkpt lat="45.23128704175717" lon="11.751942004933609"><ele>10.0</ele><time>2026-04-04T13:46:48.947Z</time></trkpt><trkpt lat="45.23125266741467" lon="11.751775840495721"><ele>10.0</ele><time>2026-04-04T13:46:49.947Z</time></trkpt><trkpt lat="45.231221975978755" lon="11.751620282631471"><ele>10.0</ele><time>2026-04-04T13:46:50.947Z</time></trkpt><trkpt lat="45.23119171581387" lon="11.751470688016408"><ele>10.0</ele><time>2026-04-04T13:46:51.947Z</time></trkpt><trkpt lat="45.23116388007871" lon="11.751314137322586"><ele>10.0</ele><time>2026-04-04T13:46:52.947Z</time></trkpt><trkpt lat="45.23113552790086" lon="11.751152846670555"><ele>10.0</ele><time>2026-04-04T13:46:53.947Z</time></trkpt><trkpt lat="45.23110732458204" lon="11.75099722381293"><ele>10.0</ele><time>2026-04-04T13:46:54.947Z</time></trkpt><trkpt lat="45.23107981392055" lon="11.75084911538433"><ele>10.0</ele><time>2026-04-04T13:46:55.947Z</time></trkpt><trkpt lat="45.23105353941661" lon="11.75070682338043"><ele>10.0</ele><time>2026-04-04T13:46:56.947Z</time></trkpt><trkpt lat="45.23102791504146" lon="11.75057425465835"><ele>10.0</ele><time>2026-04-04T13:46:57.947Z</time></trkpt><trkpt lat="45.23100301400056" lon="11.750445929468725"><ele>10.0</ele><time>2026-04-04T13:46:58.947Z</time></trkpt><trkpt lat="45.230984539446446" lon="11.750309732108283"><ele>10.0</ele><time>2026-04-04T13:46:59.947Z</time></trkpt><trkpt lat="45.2309617717274" lon="11.75016314214013"><ele>10.0</ele><time>2026-04-04T13:47:00.947Z</time></trkpt><trkpt lat="45.23093367472258" lon="11.750007070393332"><ele>10.0</ele><time>2026-04-04T13:47:01.948Z</time></trkpt><trkpt lat="45.23090003107539" lon="11.749864349843401"><ele>10.0</ele><time>2026-04-04T13:47:02.948Z</time></trkpt><trkpt lat="45.230866100971916" lon="11.749737212165911"><ele>10.0</ele><time>2026-04-04T13:47:03.947Z</time></trkpt><trkpt lat="45.230830141899816" lon="11.749627395819033"><ele>10.0</ele><time>2026-04-04T13:47:04.948Z</time></trkpt><trkpt lat="45.23079190379078" lon="11.749527190475257"><ele>10.0</ele><time>2026-04-04T13:47:05.948Z</time></trkpt><trkpt lat="45.23076038143804" lon="11.749436855038272"><ele>10.0</ele><time>2026-04-04T13:47:06.948Z</time></trkpt><trkpt lat="45.230735870739615" lon="11.749350380875567"><ele>10.0</ele><time>2026-04-04T13:47:07.948Z</time></trkpt><trkpt lat="45.23071437390952" lon="11.74924470271512"><ele>10.0</ele><time>2026-04-04T13:47:08.948Z</time></trkpt><trkpt lat="45.230701052895874" lon="11.749124757624271"><ele>10.0</ele><time>2026-04-04T13:47:09.948Z</time></trkpt><trkpt lat="45.23069691497328" lon="11.74898440780749"><ele>10.0</ele><time>2026-04-04T13:47:10.948Z</time></trkpt><trkpt lat="45.23067660244879" lon="11.748844453662675"><ele>10.0</ele><time>2026-04-04T13:47:11.948Z</time></trkpt><trkpt lat="45.23065730497343" lon="11.748714225516096"><ele>10.0</ele><time>2026-04-04T13:47:12.948Z</time></trkpt><trkpt lat="45.230640960906904" lon="11.748611950094206"><ele>9.666666666666668</ele><time>2026-04-04T13:47:13.948Z</time></trkpt><trkpt lat="45.23062246627741" lon="11.748523250448764"><ele>9.333333333333334</ele><time>2026-04-04T13:47:14.948Z</time></trkpt><trkpt lat="45.23059781058417" lon="11.748433951886861"><ele>9.0</ele><time>2026-04-04T13:47:15.948Z</time></trkpt><trkpt lat="45.23056756185536" lon="11.748338488643013"><ele>8.666666666666666</ele><time>2026-04-04T13:47:16.948Z</time></trkpt><trkpt lat="45.23053790060856" lon="11.748218328691314"><ele>8.333333333333332</ele><time>2026-04-04T13:47:17.948Z</time></trkpt><trkpt lat="45.23052748264305" lon="11.748075786080207"><ele>8.0</ele><time>2026-04-04T13:47:18.948Z</time></trkpt><trkpt lat="45.230531571860084" lon="11.747924183171321"><ele>8.0</ele><time>2026-04-04T13:47:19.948Z</time></trkpt><trkpt lat="45.23053694217924" lon="11.747754900195526"><ele>8.0</ele><time>2026-04-04T13:47:20.948Z</time></trkpt><trkpt lat="45.230520344677565" lon="11.747578679605663"><ele>8.0</ele><time>2026-04-04T13:47:21.948Z</time></trkpt><trkpt lat="45.230489411415064" lon="11.747398245955157"><ele>8.0</ele><time>2026-04-04T13:47:22.948Z</time></trkpt><trkpt lat="45.23045851075063" lon="11.747218640653541"><ele>8.25</ele><time>2026-04-04T13:47:23.948Z</time></trkpt><trkpt lat="45.23042248412633" lon="11.747043135090273"><ele>8.5</ele><time>2026-04-04T13:47:24.948Z</time></trkpt><trkpt lat="45.23039582186917" lon="11.746865512399166"><ele>8.75</ele><time>2026-04-04T13:47:25.948Z</time></trkpt><trkpt lat="45.23037487510382" lon="11.746687220684267"><ele>9.0</ele><time>2026-04-04T13:47:26.948Z</time></trkpt><trkpt lat="45.23035412363062" lon="11.746507704682564"><ele>9.0</ele><time>2026-04-04T13:47:27.948Z</time></trkpt><trkpt lat="45.23033458833049" lon="11.746338515309873"><ele>9.0</ele><time>2026-04-04T13:47:28.948Z</time></trkpt><trkpt lat="45.230319489776456" lon="11.74617223332377"><ele>9.0</ele><time>2026-04-04T13:47:29.948Z</time></trkpt><trkpt lat="45.23029862276368" lon="11.746018745178704"><ele>9.0</ele><time>2026-04-04T13:47:30.948Z</time></trkpt><trkpt lat="45.230277345002335" lon="11.745882944816799"><ele>9.0</ele><time>2026-04-04T13:47:31.948Z</time></trkpt><trkpt lat="45.23026367654001" lon="11.745767545141499"><ele>9.2</ele><time>2026-04-04T13:47:32.948Z</time></trkpt><trkpt lat="45.23025487242918" lon="11.74564977672221"><ele>9.4</ele><time>2026-04-04T13:47:33.948Z</time></trkpt><trkpt lat="45.23023525449933" lon="11.745522538289736"><ele>9.6</ele><time>2026-04-04T13:47:34.948Z</time></trkpt><trkpt lat="45.23022255100599" lon="11.745407548245165"><ele>9.8</ele><time>2026-04-04T13:47:35.947Z</time></trkpt><trkpt lat="45.23023101805998" lon="11.745276991212625"><ele>10.0</ele><time>2026-04-04T13:47:36.947Z</time></trkpt><trkpt lat="45.23021737273263" lon="11.745130655407767"><ele>10.0</ele><time>2026-04-04T13:47:37.947Z</time></trkpt><trkpt lat="45.23018694076538" lon="11.744970655301548"><ele>10.0</ele><time>2026-04-04T13:47:38.947Z</time></trkpt><trkpt lat="45.23017138055172" lon="11.744796864821893"><ele>10.0</ele><time>2026-04-04T13:47:39.947Z</time></trkpt><trkpt lat="45.230154332433486" lon="11.744612867386259"><ele>10.0</ele><time>2026-04-04T13:47:40.947Z</time></trkpt><trkpt lat="45.2301386536527" lon="11.744412120176657"><ele>9.666666666666668</ele><time>2026-04-04T13:47:41.947Z</time></trkpt><trkpt lat="45.2301300770696" lon="11.744182322453169"><ele>9.333333333333334</ele><time>2026-04-04T13:47:42.947Z</time></trkpt><trkpt lat="45.23008320463253" lon="11.743964356294343"><ele>9.0</ele><time>2026-04-04T13:47:43.947Z</time></trkpt><trkpt lat="45.23006969768358" lon="11.743743810649303"><ele>9.0</ele><time>2026-04-04T13:47:44.947Z</time></trkpt><trkpt lat="45.2300422853719" lon="11.743513245425158"><ele>9.0</ele><time>2026-04-04T13:47:45.947Z</time></trkpt><trkpt lat="45.230011306029965" lon="11.743286833353258"><ele>9.0</ele><time>2026-04-04T13:47:46.947Z</time></trkpt><trkpt lat="45.230024718596276" lon="11.743045816913993"><ele>9.0</ele><time>2026-04-04T13:47:47.947Z</time></trkpt><trkpt lat="45.229961216079836" lon="11.742835896957754"><ele>9.0</ele><time>2026-04-04T13:47:48.947Z</time></trkpt><trkpt lat="45.22994577121548" lon="11.742606086794554"><ele>9.0</ele><time>2026-04-04T13:47:49.947Z</time></trkpt><trkpt lat="45.22992392379476" lon="11.742372925751274"><ele>8.666666666666666</ele><time>2026-04-04T13:47:50.947Z</time></trkpt><trkpt lat="45.22990351213598" lon="11.742134822129364"><ele>8.333333333333332</ele><time>2026-04-04T13:47:51.947Z</time></trkpt><trkpt lat="45.22988694333233" lon="11.741890794983743"><ele>8.0</ele><time>2026-04-04T13:47:52.947Z</time></trkpt><trkpt lat="45.22989233546148" lon="11.741654309601264"><ele>8.0</ele><time>2026-04-04T13:47:53.947Z</time></trkpt><trkpt lat="45.22986930651838" lon="11.741412715749522"><ele>8.0</ele><time>2026-04-04T13:47:54.947Z</time></trkpt><trkpt lat="45.22986627814039" lon="11.741174521118422"><ele>8.0</ele><time>2026-04-04T13:47:55.947Z</time></trkpt><trkpt lat="45.22984766533298" lon="11.740930561363637"><ele>7.666666666666666</ele><time>2026-04-04T13:47:56.947Z</time></trkpt><trkpt lat="45.2298219463961" lon="11.740686644085386"><ele>7.333333333333334</ele><time>2026-04-04T13:47:57.947Z</time></trkpt><trkpt lat="45.22980063001278" lon="11.740443401775028"><ele>7.0</ele><time>2026-04-04T13:47:58.947Z</time></trkpt><trkpt lat="45.22978469135424" lon="11.740214731554392"><ele>7.666666666666667</ele><time>2026-04-04T13:47:59.947Z</time></trkpt><trkpt lat="45.229766266058476" lon="11.739987280935999"><ele>8.333333333333334</ele><time>2026-04-04T13:48:00.947Z</time></trkpt><trkpt lat="45.229753199619694" lon="11.739757756386688"><ele>9.0</ele><time>2026-04-04T13:48:01.947Z</time></trkpt><trkpt lat="45.22973783829268" lon="11.739527951486332"><ele>9.666666666666666</ele><time>2026-04-04T13:48:02.947Z</time></trkpt><trkpt lat="45.22971963609397" lon="11.739299895628966"><ele>10.333333333333332</ele><time>2026-04-04T13:48:03.947Z</time></trkpt><trkpt lat="45.229697515050326" lon="11.73906946267416"><ele>11.0</ele><time>2026-04-04T13:48:04.947Z</time></trkpt><trkpt lat="45.229678879322655" lon="11.738836284053887"><ele>11.0</ele><time>2026-04-04T13:48:05.947Z</time></trkpt><trkpt lat="45.22965332844481" lon="11.738599235284546"><ele>11.0</ele><time>2026-04-04T13:48:06.947Z</time></trkpt><trkpt lat="45.2296339933732" lon="11.73836526255648"><ele>11.0</ele><time>2026-04-04T13:48:07.947Z</time></trkpt><trkpt lat="45.22961041691373" lon="11.738133954152906"><ele>10.75</ele><time>2026-04-04T13:48:08.947Z</time></trkpt><trkpt lat="45.22959068444671" lon="11.737918366719443"><ele>10.5</ele><time>2026-04-04T13:48:09.947Z</time></trkpt><trkpt lat="45.22957561291134" lon="11.737714519999033"><ele>10.25</ele><time>2026-04-04T13:48:10.947Z</time></trkpt><trkpt lat="45.229557822639634" lon="11.737517660688882"><ele>10.0</ele><time>2026-04-04T13:48:11.947Z</time></trkpt><trkpt lat="45.22954839495808" lon="11.737332433125626"><ele>10.0</ele><time>2026-04-04T13:48:12.947Z</time></trkpt><trkpt lat="45.22953340065059" lon="11.737165216262893"><ele>10.0</ele><time>2026-04-04T13:48:13.947Z</time></trkpt><trkpt lat="45.2295183363046" lon="11.737000444346283"><ele>10.0</ele><time>2026-04-04T13:48:14.947Z</time></trkpt><trkpt lat="45.22950402057511" lon="11.736826975565762"><ele>10.0</ele><time>2026-04-04T13:48:15.946Z</time></trkpt><trkpt lat="45.22949558396428" lon="11.736645766024813"><ele>9.5</ele><time>2026-04-04T13:48:16.946Z</time></trkpt><trkpt lat="45.229477130643254" lon="11.73647921184147"><ele>9.0</ele><time>2026-04-04T13:48:17.946Z</time></trkpt><trkpt lat="45.22946003992181" lon="11.73630180257347"><ele>8.5</ele><time>2026-04-04T13:48:18.946Z</time></trkpt><trkpt lat="45.22943483011981" lon="11.736137729509968"><ele>8.0</ele><time>2026-04-04T13:48:19.946Z</time></trkpt><trkpt lat="45.22940167376434" lon="11.735973255135647"><ele>8.0</ele><time>2026-04-04T13:48:20.946Z</time></trkpt><trkpt lat="45.22937284400704" lon="11.735796300109753"><ele>8.0</ele><time>2026-04-04T13:48:21.946Z</time></trkpt><trkpt lat="45.22934386468459" lon="11.735626384617564"><ele>8.0</ele><time>2026-04-04T13:48:22.946Z</time></trkpt><trkpt lat="45.22931465004731" lon="11.735454753721974"><ele>8.0</ele><time>2026-04-04T13:48:23.946Z</time></trkpt><trkpt lat="45.22928097372904" lon="11.735291995859988"><ele>8.0</ele><time>2026-04-04T13:48:24.946Z</time></trkpt><trkpt lat="45.229238736316326" lon="11.735143906592072"><ele>8.0</ele><time>2026-04-04T13:48:25.946Z</time></trkpt><trkpt lat="45.22916787349538" lon="11.734991969194134"><ele>8.0</ele><time>2026-04-04T13:48:26.946Z</time></trkpt><trkpt lat="45.229073805315835" lon="11.734858162086706"><ele>8.0</ele><time>2026-04-04T13:48:27.946Z</time></trkpt><trkpt lat="45.22895856538561" lon="11.734723785704002"><ele>8.0</ele><time>2026-04-04T13:48:28.946Z</time></trkpt><trkpt lat="45.22882441197634" lon="11.734571592978158"><ele>8.0</ele><time>2026-04-04T13:48:29.946Z</time></trkpt><trkpt lat="45.22867720947112" lon="11.734420240331694"><ele>8.0</ele><time>2026-04-04T13:48:30.946Z</time></trkpt><trkpt lat="45.22850453423902" lon="11.73424836451546"><ele>8.0</ele><time>2026-04-04T13:48:31.947Z</time></trkpt><trkpt lat="45.228338933298055" lon="11.734060104013606"><ele>8.0</ele><time>2026-04-04T13:48:32.947Z</time></trkpt><trkpt lat="45.22816543074446" lon="11.733851121856395"><ele>8.0</ele><time>2026-04-04T13:48:33.947Z</time></trkpt><trkpt lat="45.22798665397578" lon="11.733625760670472"><ele>8.5</ele><time>2026-04-04T13:48:34.947Z</time></trkpt><trkpt lat="45.22780284355739" lon="11.73339319177258"><ele>9.0</ele><time>2026-04-04T13:48:35.947Z</time></trkpt><trkpt lat="45.22761330729586" lon="11.733167785777162"><ele>9.0</ele><time>2026-04-04T13:48:36.947Z</time></trkpt><trkpt lat="45.22745448794457" lon="11.732938572040121"><ele>9.0</ele><time>2026-04-04T13:48:37.947Z</time></trkpt><trkpt lat="45.22728522085202" lon="11.73272789748103"><ele>8.666666666666666</ele><time>2026-04-04T13:48:38.947Z</time></trkpt><trkpt lat="45.22712189211287" lon="11.732526061521693"><ele>8.333333333333332</ele><time>2026-04-04T13:48:39.947Z</time></trkpt><trkpt lat="45.22696074367306" lon="11.732355237402446"><ele>8.0</ele><time>2026-04-04T13:48:40.947Z</time></trkpt><trkpt lat="45.22682331447131" lon="11.732172825861872"><ele>8.0</ele><time>2026-04-04T13:48:41.947Z</time></trkpt><trkpt lat="45.226708070405806" lon="11.731995602584186"><ele>8.0</ele><time>2026-04-04T13:48:42.947Z</time></trkpt><trkpt lat="45.22660692054998" lon="11.731825296874334"><ele>8.0</ele><time>2026-04-04T13:48:43.947Z</time></trkpt><trkpt lat="45.22651024281976" lon="11.73166086440221"><ele>8.333333333333332</ele><time>2026-04-04T13:48:44.947Z</time></trkpt><trkpt lat="45.226408553923825" lon="11.731505166465402"><ele>8.666666666666666</ele><time>2026-04-04T13:48:45.947Z</time></trkpt><trkpt lat="45.22631372220653" lon="11.731334623050254"><ele>9.0</ele><time>2026-04-04T13:48:46.947Z</time></trkpt><trkpt lat="45.2262217027942" lon="11.731157046276078"><ele>8.75</ele><time>2026-04-04T13:48:47.947Z</time></trkpt><trkpt lat="45.22614066163761" lon="11.730989608022218"><ele>8.5</ele><time>2026-04-04T13:48:48.947Z</time></trkpt><trkpt lat="45.22606599124129" lon="11.730836700534711"><ele>8.25</ele><time>2026-04-04T13:48:49.947Z</time></trkpt><trkpt lat="45.2260043970979" lon="11.730691224542586"><ele>8.0</ele><time>2026-04-04T13:48:50.947Z</time></trkpt><trkpt lat="45.225949845846195" lon="11.730563516371985"><ele>7.999999999999999</ele><time>2026-04-04T13:48:51.947Z</time></trkpt><trkpt lat="45.22591788472421" lon="11.730432315909885"><ele>8.0</ele><time>2026-04-04T13:48:52.947Z</time></trkpt><trkpt lat="45.22590020371013" lon="11.730320187729781"><ele>8.0</ele><time>2026-04-04T13:48:53.947Z</time></trkpt><trkpt lat="45.22589630620636" lon="11.730199286832606"><ele>8.0</ele><time>2026-04-04T13:48:54.946Z</time></trkpt><trkpt lat="45.225925817749214" lon="11.73008880892784"><ele>7.999999999999999</ele><time>2026-04-04T13:48:55.946Z</time></trkpt><trkpt lat="45.22597091096459" lon="11.72999203244129"><ele>8.0</ele><time>2026-04-04T13:48:56.946Z</time></trkpt><trkpt lat="45.22603338760002" lon="11.729910133028481"><ele>7.857142857142857</ele><time>2026-04-04T13:48:57.946Z</time></trkpt><trkpt lat="45.22609179016436" lon="11.729843144862201"><ele>7.7142857142857135</ele><time>2026-04-04T13:48:58.946Z</time></trkpt><trkpt lat="45.22615030545509" lon="11.72978347652077"><ele>7.571428571428571</ele><time>2026-04-04T13:48:59.946Z</time></trkpt><trkpt lat="45.22620356406466" lon="11.729719174307291"><ele>7.428571428571429</ele><time>2026-04-04T13:49:00.946Z</time></trkpt><trkpt lat="45.226250427446274" lon="11.729651479898973"><ele>7.285714285714286</ele><time>2026-04-04T13:49:01.946Z</time></trkpt><trkpt lat="45.22629909192471" lon="11.72956561703479"><ele>7.142857142857142</ele><time>2026-04-04T13:49:02.946Z</time></trkpt><trkpt lat="45.22633909830352" lon="11.729466819957967"><ele>7.0</ele><time>2026-04-04T13:49:03.946Z</time></trkpt><trkpt lat="45.22636896922412" lon="11.729337252741601"><ele>7.0</ele><time>2026-04-04T13:49:04.946Z</time></trkpt><trkpt lat="45.22637838792199" lon="11.729176350860458"><ele>7.0</ele><time>2026-04-04T13:49:05.946Z</time></trkpt><trkpt lat="45.226365983341864" lon="11.729001736662564"><ele>7.0</ele><time>2026-04-04T13:49:06.946Z</time></trkpt><trkpt lat="45.22632763951059" lon="11.728824582679252"><ele>7.0</ele><time>2026-04-04T13:49:07.947Z</time></trkpt><trkpt lat="45.226285075080845" lon="11.728654763668006"><ele>7.199999999999999</ele><time>2026-04-04T13:49:08.947Z</time></trkpt><trkpt lat="45.22624833612807" lon="11.728488726367532"><ele>7.3999999999999995</ele><time>2026-04-04T13:49:09.947Z</time></trkpt><trkpt lat="45.22621527270032" lon="11.728343808800865"><ele>7.6000000000000005</ele><time>2026-04-04T13:49:10.947Z</time></trkpt><trkpt lat="45.22618740402515" lon="11.72820595441703"><ele>7.800000000000001</ele><time>2026-04-04T13:49:11.947Z</time></trkpt><trkpt lat="45.22615742065122" lon="11.728074748511657"><ele>8.0</ele><time>2026-04-04T13:49:12.947Z</time></trkpt><trkpt lat="45.22613835173434" lon="11.727942126574886"><ele>8.0</ele><time>2026-04-04T13:49:13.948Z</time></trkpt><trkpt lat="45.226114333801235" lon="11.727806640954329"><ele>8.0</ele><time>2026-04-04T13:49:14.947Z</time></trkpt><trkpt lat="45.226084858763" lon="11.727665272686158"><ele>8.0</ele><time>2026-04-04T13:49:15.947Z</time></trkpt><trkpt lat="45.226054976620226" lon="11.727523051808815"><ele>8.0</ele><time>2026-04-04T13:49:16.948Z</time></trkpt><trkpt lat="45.226030163544685" lon="11.727378103351054"><ele>8.0</ele><time>2026-04-04T13:49:17.947Z</time></trkpt><trkpt lat="45.22601326885319" lon="11.727230131010439"><ele>8.0</ele><time>2026-04-04T13:49:18.947Z</time></trkpt><trkpt lat="45.225991237442976" lon="11.727088306686024"><ele>8.0</ele><time>2026-04-04T13:49:19.947Z</time></trkpt><trkpt lat="45.22596966706113" lon="11.72695874270231"><ele>8.0</ele><time>2026-04-04T13:49:20.947Z</time></trkpt><trkpt lat="45.22594801900673" lon="11.726836477466124"><ele>8.0</ele><time>2026-04-04T13:49:21.947Z</time></trkpt><trkpt lat="45.225934799695274" lon="11.726734292335552"><ele>8.0</ele><time>2026-04-04T13:49:22.947Z</time></trkpt><trkpt lat="45.22591094938633" lon="11.726568746192049"><ele>8.166666666666666</ele><time>2026-04-04T13:49:24.947Z</time></trkpt><trkpt lat="45.22588792098437" lon="11.726410764341269"><ele>8.333333333333332</ele><time>2026-04-04T13:49:26.947Z</time></trkpt><trkpt lat="45.22586616865922" lon="11.726324707200018"><ele>8.5</ele><time>2026-04-04T13:49:27.947Z</time></trkpt><trkpt lat="45.2258758857749" lon="11.726198642716053"><ele>8.666666666666666</ele><time>2026-04-04T13:49:29.947Z</time></trkpt><trkpt lat="45.22596386713751" lon="11.72618475987607"><ele>8.833333333333334</ele><time>2026-04-04T13:49:31.947Z</time></trkpt><trkpt lat="45.22603537696552" lon="11.726181259897889"><ele>9.0</ele><time>2026-04-04T13:49:32.947Z</time></trkpt><trkpt lat="45.22612075241398" lon="11.726178356515195"><ele>9.0</ele><time>2026-04-04T13:49:33.947Z</time></trkpt><trkpt lat="45.22622634290505" lon="11.72617525434774"><ele>9.0</ele><time>2026-04-04T13:49:34.947Z</time></trkpt><trkpt lat="45.22635041778665" lon="11.726148474931335"><ele>9.0</ele><time>2026-04-04T13:49:35.947Z</time></trkpt><trkpt lat="45.22646479352731" lon="11.726160419760603"><ele>9.0</ele><time>2026-04-04T13:49:36.947Z</time></trkpt><trkpt lat="45.22656750208926" lon="11.726156202903356"><ele>9.0</ele><time>2026-04-04T13:49:37.947Z</time></trkpt><trkpt lat="45.22667632656381" lon="11.726146840278346"><ele>9.0</ele><time>2026-04-04T13:49:38.947Z</time></trkpt><trkpt lat="45.2267832861276" lon="11.726139360410238"><ele>9.0</ele><time>2026-04-04T13:49:39.947Z</time></trkpt><trkpt lat="45.22687428470227" lon="11.726136753191097"><ele>9.0</ele><time>2026-04-04T13:49:40.947Z</time></trkpt><trkpt lat="45.2269444486981" lon="11.726124529683123"><ele>9.0</ele><time>2026-04-04T13:49:41.947Z</time></trkpt><trkpt lat="45.22705728426148" lon="11.726109410247275"><ele>9.0</ele><time>2026-04-04T13:49:43.946Z</time></trkpt><trkpt lat="45.22715206357447" lon="11.726077197164855"><ele>9.0</ele><time>2026-04-04T13:49:45.946Z</time></trkpt><trkpt lat="45.22722618843578" lon="11.726056006971008"><ele>9.0</ele><time>2026-04-04T13:49:47.946Z</time></trkpt><trkpt lat="45.227315626852665" lon="11.726027653043813"><ele>9.0</ele><time>2026-04-04T13:49:49.946Z</time></trkpt><trkpt lat="45.227384517442076" lon="11.726009566785105"><ele>9.0</ele><time>2026-04-04T13:49:51.946Z</time></trkpt><trkpt lat="45.22744660552388" lon="11.725947502081175"><ele>9.0</ele><time>2026-04-04T13:49:53.946Z</time></trkpt><trkpt lat="45.227459042640156" lon="11.725793254401632"><ele>9.0</ele><time>2026-04-04T13:49:55.946Z</time></trkpt><trkpt lat="45.227484101224405" lon="11.72565647025425"><ele>9.0</ele><time>2026-04-04T13:49:57.946Z</time></trkpt><trkpt lat="45.22752316974954" lon="11.725568429008062"><ele>9.0</ele><time>2026-04-04T13:49:58.946Z</time></trkpt><trkpt lat="45.22758832364329" lon="11.725495537442074"><ele>9.0</ele><time>2026-04-04T13:49:59.946Z</time></trkpt><trkpt lat="45.22769654789654" lon="11.725451639070029"><ele>9.0</ele><time>2026-04-04T13:50:00.946Z</time></trkpt><trkpt lat="45.22780760438024" lon="11.725411533833539"><ele>9.0</ele><time>2026-04-04T13:50:01.946Z</time></trkpt><trkpt lat="45.22793174991334" lon="11.725375424130348"><ele>9.0</ele><time>2026-04-04T13:50:02.946Z</time></trkpt><trkpt lat="45.228059730636" lon="11.725341215674861"><ele>9.0</ele><time>2026-04-04T13:50:03.946Z</time></trkpt><trkpt lat="45.22819139670954" lon="11.725312763312541"><ele>9.0</ele><time>2026-04-04T13:50:04.946Z</time></trkpt><trkpt lat="45.22831206468112" lon="11.725284169988376"><ele>9.0</ele><time>2026-04-04T13:50:05.946Z</time></trkpt><trkpt lat="45.22842220110612" lon="11.725259986179536"><ele>9.166666666666666</ele><time>2026-04-04T13:50:06.946Z</time></trkpt><trkpt lat="45.228520751954086" lon="11.7252415474105"><ele>9.333333333333334</ele><time>2026-04-04T13:50:07.946Z</time></trkpt><trkpt lat="45.228601015401225" lon="11.725229488012873"><ele>9.5</ele><time>2026-04-04T13:50:08.946Z</time></trkpt><trkpt lat="45.22866668458013" lon="11.72521561066201"><ele>9.666666666666668</ele><time>2026-04-04T13:50:09.946Z</time></trkpt><trkpt lat="45.228756263389904" lon="11.725186746199649"><ele>9.833333333333334</ele><time>2026-04-04T13:50:11.946Z</time></trkpt><trkpt lat="45.22885025979047" lon="11.725200637161992"><ele>10.0</ele><time>2026-04-04T13:50:14.946Z</time></trkpt><trkpt lat="45.228946016237096" lon="11.725131740895042"><ele>10.285714285714285</ele><time>2026-04-04T13:50:16.946Z</time></trkpt><trkpt lat="45.2290000087884" lon="11.72508159176391"><ele>10.571428571428571</ele><time>2026-04-04T13:50:18.946Z</time></trkpt><trkpt lat="45.229038356378645" lon="11.725010318369401"><ele>10.857142857142858</ele><time>2026-04-04T13:50:22.945Z</time></trkpt><trkpt lat="45.229049894732405" lon="11.724908783168251"><ele>11.142857142857142</ele><time>2026-04-04T13:52:25.944Z</time></trkpt><trkpt lat="45.22906547961851" lon="11.724800458131785"><ele>11.428571428571429</ele><time>2026-04-04T13:52:27.943Z</time></trkpt><trkpt lat="45.229070453819105" lon="11.72470075864775"><ele>11.714285714285714</ele><time>2026-04-04T13:52:28.943Z</time></trkpt><trkpt lat="45.2290804315175" lon="11.724602637510543"><ele>12.0</ele><time>2026-04-04T13:52:29.943Z</time></trkpt><trkpt lat="45.22914022096527" lon="11.7245357829532"><ele>12.0</ele><time>2026-04-04T13:52:30.943Z</time></trkpt><trkpt lat="45.22915693762636" lon="11.724447820960197"><ele>12.0</ele><time>2026-04-04T13:52:31.943Z</time></trkpt><trkpt lat="45.229173577881234" lon="11.72435981740789"><ele>12.0</ele><time>2026-04-04T13:52:32.943Z</time></trkpt><trkpt lat="45.22917823455891" lon="11.724201674131809"><ele>12.0</ele><time>2026-04-04T13:52:34.943Z</time></trkpt><trkpt lat="45.22921898566137" lon="11.724055235506267"><ele>12.0</ele><time>2026-04-04T13:52:36.943Z</time></trkpt><trkpt lat="45.22925043140535" lon="11.723958381814484"><ele>12.0</ele><time>2026-04-04T13:52:38.943Z</time></trkpt><trkpt lat="45.22928470584024" lon="11.723832297723312"><ele>12.285714285714285</ele><time>2026-04-04T13:52:40.943Z</time></trkpt><trkpt lat="45.229295731328506" lon="11.723739102063687"><ele>12.571428571428571</ele><time>2026-04-04T13:52:41.943Z</time></trkpt><trkpt lat="45.229342151550775" lon="11.723626564270887"><ele>12.857142857142858</ele><time>2026-04-04T13:52:42.943Z</time></trkpt><trkpt lat="45.229366826711825" lon="11.72350981980177"><ele>13.142857142857142</ele><time>2026-04-04T13:52:43.943Z</time></trkpt><trkpt lat="45.2293761512082" lon="11.723417282848253"><ele>13.428571428571429</ele><time>2026-04-04T13:52:44.943Z</time></trkpt><trkpt lat="45.22941093180547" lon="11.723329731618767"><ele>13.714285714285714</ele><time>2026-04-04T13:52:45.943Z</time></trkpt><trkpt lat="45.22942128634754" lon="11.723238636965752"><ele>14.0</ele><time>2026-04-04T13:52:46.943Z</time></trkpt><trkpt lat="45.229434542685375" lon="11.723142417685173"><ele>14.166666666666668</ele><time>2026-04-04T13:52:47.943Z</time></trkpt><trkpt lat="45.229435558355775" lon="11.72305260122555"><ele>14.333333333333334</ele><time>2026-04-04T13:52:48.943Z</time></trkpt><trkpt lat="45.229441228229746" lon="11.722898260728085"><ele>14.5</ele><time>2026-04-04T13:52:50.943Z</time></trkpt><trkpt lat="45.22937282564755" lon="11.722805237888034"><ele>14.666666666666668</ele><time>2026-04-04T13:52:52.943Z</time></trkpt><trkpt lat="45.22933902556319" lon="11.722710319227629"><ele>14.833333333333334</ele><time>2026-04-04T13:52:53.943Z</time></trkpt><trkpt lat="45.229275161556615" lon="11.722601077929703"><ele>15.0</ele><time>2026-04-04T13:52:54.943Z</time></trkpt><trkpt lat="45.229258296440584" lon="11.72242556762496"><ele>14.4</ele><time>2026-04-04T13:52:55.943Z</time></trkpt><trkpt lat="45.229214277559926" lon="11.722282798609841"><ele>13.8</ele><time>2026-04-04T13:52:56.943Z</time></trkpt><trkpt lat="45.22917055671876" lon="11.72214220470075"><ele>13.2</ele><time>2026-04-04T13:52:57.943Z</time></trkpt><trkpt lat="45.22912826473225" lon="11.722006205677586"><ele>12.6</ele><time>2026-04-04T13:52:58.943Z</time></trkpt><trkpt lat="45.22908833677203" lon="11.721877372674264"><ele>12.0</ele><time>2026-04-04T13:52:59.943Z</time></trkpt><trkpt lat="45.229044800175885" lon="11.721726275620819"><ele>11.6</ele><time>2026-04-04T13:53:00.942Z</time></trkpt><trkpt lat="45.228997950741885" lon="11.721561253535205"><ele>11.2</ele><time>2026-04-04T13:53:01.94Z</time></trkpt><trkpt lat="45.228956236530685" lon="11.721407136109022"><ele>10.8</ele><time>2026-04-04T13:53:02.939Z</time></trkpt><trkpt lat="45.22892303689781" lon="11.721270238518796"><ele>10.4</ele><time>2026-04-04T13:53:03.938Z</time></trkpt><trkpt lat="45.2288977486303" lon="11.721140362857248"><ele>10.0</ele><time>2026-04-04T13:53:04.937Z</time></trkpt><trkpt lat="45.228875649975606" lon="11.721018574345328"><ele>9.833333333333334</ele><time>2026-04-04T13:53:05.936Z</time></trkpt><trkpt lat="45.22885461912356" lon="11.720898230854864"><ele>9.666666666666668</ele><time>2026-04-04T13:53:06.935Z</time></trkpt><trkpt lat="45.22883306104561" lon="11.720783632124244"><ele>9.5</ele><time>2026-04-04T13:53:07.934Z</time></trkpt><trkpt lat="45.228795735547834" lon="11.720678974537675"><ele>9.333333333333334</ele><time>2026-04-04T13:53:08.933Z</time></trkpt><trkpt lat="45.228792338601465" lon="11.720581275805749"><ele>9.166666666666666</ele><time>2026-04-04T13:53:09.932Z</time></trkpt><trkpt lat="45.228768394653045" lon="11.720478344378709"><ele>9.0</ele><time>2026-04-04T13:53:11.93Z</time></trkpt><trkpt lat="45.22874355680679" lon="11.72038921369459"><ele>9.0</ele><time>2026-04-04T13:53:15.928Z</time></trkpt><trkpt lat="45.228723155382404" lon="11.720286308808264"><ele>9.0</ele><time>2026-04-04T13:53:21.927Z</time></trkpt><trkpt lat="45.22879799116941" lon="11.720300161426353"><ele>9.0</ele><time>2026-04-04T13:53:22.927Z</time></trkpt><trkpt lat="45.228887484559756" lon="11.720257651170494"><ele>9.0</ele><time>2026-04-04T13:53:23.926Z</time></trkpt><trkpt lat="45.22897149830329" lon="11.72020043450888"><ele>9.0</ele><time>2026-04-04T13:53:24.926Z</time></trkpt><trkpt lat="45.22908920688746" lon="11.720161322515914"><ele>9.0</ele><time>2026-04-04T13:53:25.926Z</time></trkpt><trkpt lat="45.229218249016746" lon="11.720113521006027"><ele>9.0</ele><time>2026-04-04T13:53:26.925Z</time></trkpt><trkpt lat="45.22935907780673" lon="11.72007380785167"><ele>9.0</ele><time>2026-04-04T13:53:27.925Z</time></trkpt><trkpt lat="45.22950976732468" lon="11.720042935005049"><ele>9.0</ele><time>2026-04-04T13:53:28.925Z</time></trkpt><trkpt lat="45.2296675875489" lon="11.720025620776084"><ele>8.666666666666666</ele><time>2026-04-04T13:53:29.924Z</time></trkpt><trkpt lat="45.22983823991333" lon="11.72001259956773"><ele>8.333333333333332</ele><time>2026-04-04T13:53:30.924Z</time></trkpt><trkpt lat="45.23001761885315" lon="11.720019305618639"><ele>8.0</ele><time>2026-04-04T13:53:31.924Z</time></trkpt><trkpt lat="45.2301935867343" lon="11.720039854308318"><ele>8.0</ele><time>2026-04-04T13:53:32.924Z</time></trkpt><trkpt lat="45.23035804078579" lon="11.720076555700414"><ele>8.0</ele><time>2026-04-04T13:53:33.924Z</time></trkpt><trkpt lat="45.23052843046935" lon="11.72013463884053"><ele>8.0</ele><time>2026-04-04T13:53:34.924Z</time></trkpt><trkpt lat="45.23069363512724" lon="11.720202471649575"><ele>8.0</ele><time>2026-04-04T13:53:35.923Z</time></trkpt><trkpt lat="45.230846999242026" lon="11.720289474683875"><ele>8.0</ele><time>2026-04-04T13:53:36.923Z</time></trkpt><trkpt lat="45.23100852460381" lon="11.72038752543217"><ele>8.0</ele><time>2026-04-04T13:53:37.923Z</time></trkpt><trkpt lat="45.23118073211798" lon="11.720501559111863"><ele>8.0</ele><time>2026-04-04T13:53:38.923Z</time></trkpt><trkpt lat="45.23136894092746" lon="11.720614642756333"><ele>8.0</ele><time>2026-04-04T13:53:39.923Z</time></trkpt><trkpt lat="45.23153966983125" lon="11.720741659938243"><ele>8.0</ele><time>2026-04-04T13:53:40.923Z</time></trkpt><trkpt lat="45.231706709081145" lon="11.720866372257227"><ele>8.333333333333332</ele><time>2026-04-04T13:53:41.923Z</time></trkpt><trkpt lat="45.23188117784525" lon="11.720982204187651"><ele>8.666666666666666</ele><time>2026-04-04T13:53:42.922Z</time></trkpt><trkpt lat="45.232027891996765" lon="11.721080172234943"><ele>9.0</ele><time>2026-04-04T13:53:43.922Z</time></trkpt><trkpt lat="45.232154541646906" lon="11.721193567194168"><ele>9.0</ele><time>2026-04-04T13:53:44.922Z</time></trkpt><trkpt lat="45.23227195278219" lon="11.721279394181936"><ele>9.0</ele><time>2026-04-04T13:53:45.922Z</time></trkpt><trkpt lat="45.2323925701457" lon="11.721340384556658"><ele>9.0</ele><time>2026-04-04T13:53:46.922Z</time></trkpt><trkpt lat="45.23247156872087" lon="11.721430710974277"><ele>9.0</ele><time>2026-04-04T13:53:47.922Z</time></trkpt><trkpt lat="45.2325806401227" lon="11.721500332512855"><ele>9.2</ele><time>2026-04-04T13:53:48.922Z</time></trkpt><trkpt lat="45.2326691649674" lon="11.7215666148955"><ele>9.4</ele><time>2026-04-04T13:53:49.922Z</time></trkpt><trkpt lat="45.232764613633826" lon="11.721629545609154"><ele>9.6</ele><time>2026-04-04T13:53:50.922Z</time></trkpt><trkpt lat="45.23286405451713" lon="11.721697822554258"><ele>9.8</ele><time>2026-04-04T13:53:51.922Z</time></trkpt><trkpt lat="45.23295056181128" lon="11.721751051427459"><ele>10.0</ele><time>2026-04-04T13:53:52.921Z</time></trkpt><trkpt lat="45.23302601989925" lon="11.721806004776791"><ele>10.0</ele><time>2026-04-04T13:53:53.921Z</time></trkpt><trkpt lat="45.23308736443042" lon="11.721859451487827"><ele>10.0</ele><time>2026-04-04T13:53:54.921Z</time></trkpt><trkpt lat="45.233140493232064" lon="11.721919497269216"><ele>10.0</ele><time>2026-04-04T13:53:55.921Z</time></trkpt><trkpt lat="45.23320871634824" lon="11.722082845568908"><ele>10.0</ele><time>2026-04-04T13:53:57.921Z</time></trkpt><trkpt lat="45.233236246682345" lon="11.722181194432203"><ele>10.0</ele><time>2026-04-04T13:53:58.921Z</time></trkpt><trkpt lat="45.23325602355123" lon="11.722279878179801"><ele>10.0</ele><time>2026-04-04T13:53:59.921Z</time></trkpt><trkpt lat="45.233286175041066" lon="11.72239166335439"><ele>9.2</ele><time>2026-04-04T13:54:00.921Z</time></trkpt><trkpt lat="45.233335487333335" lon="11.722501178701755"><ele>8.4</ele><time>2026-04-04T13:54:01.921Z</time></trkpt><trkpt lat="45.23338667072215" lon="11.722605923838744"><ele>7.6</ele><time>2026-04-04T13:54:02.921Z</time></trkpt><trkpt lat="45.23348448855127" lon="11.722655989909336"><ele>6.8</ele><time>2026-04-04T13:54:03.921Z</time></trkpt><trkpt lat="45.23359868682289" lon="11.722703855527506"><ele>6.0</ele><time>2026-04-04T13:54:04.921Z</time></trkpt><trkpt lat="45.233742925403966" lon="11.722743607198385"><ele>5.666666666666667</ele><time>2026-04-04T13:54:05.921Z</time></trkpt><trkpt lat="45.233885323301145" lon="11.72277072815087"><ele>5.333333333333334</ele><time>2026-04-04T13:54:06.921Z</time></trkpt><trkpt lat="45.234042083047605" lon="11.722848177385385"><ele>5.0</ele><time>2026-04-04T13:54:07.921Z</time></trkpt><trkpt lat="45.234207259645736" lon="11.722914326058275"><ele>5.0</ele><time>2026-04-04T13:54:08.92Z</time></trkpt><trkpt lat="45.23437733996772" lon="11.722995062899319"><ele>5.0</ele><time>2026-04-04T13:54:09.92Z</time></trkpt><trkpt lat="45.2345503751818" lon="11.72308178749944"><ele>5.0</ele><time>2026-04-04T13:54:10.92Z</time></trkpt><trkpt lat="45.234723358543995" lon="11.723179421280113"><ele>5.0</ele><time>2026-04-04T13:54:11.92Z</time></trkpt><trkpt lat="45.2348986495601" lon="11.72329292339734"><ele>5.0</ele><time>2026-04-04T13:54:12.92Z</time></trkpt><trkpt lat="45.235063658405316" lon="11.723404994180008"><ele>5.0</ele><time>2026-04-04T13:54:13.92Z</time></trkpt><trkpt lat="45.23522239210925" lon="11.723517051285153"><ele>5.0</ele><time>2026-04-04T13:54:14.92Z</time></trkpt><trkpt lat="45.23537498103547" lon="11.723636387876667"><ele>5.0</ele><time>2026-04-04T13:54:15.92Z</time></trkpt><trkpt lat="45.235541435665226" lon="11.723770767795727"><ele>5.0</ele><time>2026-04-04T13:54:16.92Z</time></trkpt><trkpt lat="45.235723726907345" lon="11.723899303889722"><ele>5.0</ele><time>2026-04-04T13:54:17.92Z</time></trkpt><trkpt lat="45.23591541867284" lon="11.7240076191845"><ele>5.0</ele><time>2026-04-04T13:54:18.92Z</time></trkpt><trkpt lat="45.23610421354256" lon="11.724060928203986"><ele>5.0</ele><time>2026-04-04T13:54:19.92Z</time></trkpt><trkpt lat="45.236292955250725" lon="11.72410420852006"><ele>6.0</ele><time>2026-04-04T13:54:20.92Z</time></trkpt><trkpt lat="45.23648926830859" lon="11.724122287715904"><ele>7.0</ele><time>2026-04-04T13:54:21.92Z</time></trkpt><trkpt lat="45.23669310562454" lon="11.724123053963973"><ele>8.0</ele><time>2026-04-04T13:54:22.92Z</time></trkpt><trkpt lat="45.236892637156735" lon="11.724114771478586"><ele>8.0</ele><time>2026-04-04T13:54:23.92Z</time></trkpt><trkpt lat="45.23709673934431" lon="11.724090169103716"><ele>8.0</ele><time>2026-04-04T13:54:24.92Z</time></trkpt><trkpt lat="45.237290599807814" lon="11.724059847557825"><ele>8.0</ele><time>2026-04-04T13:54:25.92Z</time></trkpt><trkpt lat="45.23747575435151" lon="11.724016747461253"><ele>7.0</ele><time>2026-04-04T13:54:26.92Z</time></trkpt><trkpt lat="45.237641694817476" lon="11.723980463862631"><ele>6.0</ele><time>2026-04-04T13:54:27.92Z</time></trkpt><trkpt lat="45.23778995025303" lon="11.723946717339446"><ele>5.0</ele><time>2026-04-04T13:54:28.92Z</time></trkpt><trkpt lat="45.23792431044166" lon="11.723909524660057"><ele>5.0</ele><time>2026-04-04T13:54:29.92Z</time></trkpt><trkpt lat="45.23805577182475" lon="11.723867133149644"><ele>5.0</ele><time>2026-04-04T13:54:30.92Z</time></trkpt><trkpt lat="45.23818482967354" lon="11.723843381948864"><ele>5.0</ele><time>2026-04-04T13:54:31.92Z</time></trkpt><trkpt lat="45.23830356399535" lon="11.723826652022925"><ele>5.0</ele><time>2026-04-04T13:54:32.92Z</time></trkpt><trkpt lat="45.23842235331508" lon="11.723801521010985"><ele>5.2</ele><time>2026-04-04T13:54:33.919Z</time></trkpt><trkpt lat="45.238524888641265" lon="11.723788692178823"><ele>5.4</ele><time>2026-04-04T13:54:34.919Z</time></trkpt><trkpt lat="45.23863064826453" lon="11.723790667223131"><ele>5.6</ele><time>2026-04-04T13:54:35.919Z</time></trkpt><trkpt lat="45.238722320525" lon="11.723827290184104"><ele>5.8</ele><time>2026-04-04T13:54:36.919Z</time></trkpt><trkpt lat="45.238810436679934" lon="11.723891528750224"><ele>6.0</ele><time>2026-04-04T13:54:37.919Z</time></trkpt><trkpt lat="45.23889231791743" lon="11.723981022728678"><ele>5.75</ele><time>2026-04-04T13:54:38.919Z</time></trkpt><trkpt lat="45.23897323539441" lon="11.724089406647762"><ele>5.5</ele><time>2026-04-04T13:54:39.919Z</time></trkpt><trkpt lat="45.239049546591524" lon="11.724198852623546"><ele>5.25</ele><time>2026-04-04T13:54:40.919Z</time></trkpt><trkpt lat="45.239136068552604" lon="11.72431341857032"><ele>5.0</ele><time>2026-04-04T13:54:41.919Z</time></trkpt><trkpt lat="45.239228415401634" lon="11.724447963348021"><ele>4.666666666666667</ele><time>2026-04-04T13:54:42.919Z</time></trkpt><trkpt lat="45.239327129827586" lon="11.724609289329967"><ele>4.333333333333333</ele><time>2026-04-04T13:54:43.919Z</time></trkpt><trkpt lat="45.239439720586546" lon="11.724771667457587"><ele>4.0</ele><time>2026-04-04T13:54:44.919Z</time></trkpt><trkpt lat="45.23955406525959" lon="11.724945642558163"><ele>4.0</ele><time>2026-04-04T13:54:45.919Z</time></trkpt><trkpt lat="45.23967642607354" lon="11.72512331523297"><ele>4.0</ele><time>2026-04-04T13:54:46.919Z</time></trkpt><trkpt lat="45.23979554204958" lon="11.725301797571124"><ele>4.0</ele><time>2026-04-04T13:54:47.919Z</time></trkpt><trkpt lat="45.23992416712282" lon="11.725492619557347"><ele>4.333333333333333</ele><time>2026-04-04T13:54:48.919Z</time></trkpt><trkpt lat="45.24006243694778" lon="11.725694314530012"><ele>4.666666666666667</ele><time>2026-04-04T13:54:49.919Z</time></trkpt><trkpt lat="45.240196448731524" lon="11.725895929877943"><ele>5.0</ele><time>2026-04-04T13:54:50.919Z</time></trkpt><trkpt lat="45.24033623438004" lon="11.726093127282354"><ele>5.0</ele><time>2026-04-04T13:54:51.919Z</time></trkpt><trkpt lat="45.240478159223066" lon="11.72629863277271"><ele>5.0</ele><time>2026-04-04T13:54:52.919Z</time></trkpt><trkpt lat="45.24062713636491" lon="11.7265089161319"><ele>5.0</ele><time>2026-04-04T13:54:53.919Z</time></trkpt><trkpt lat="45.240775485258695" lon="11.726723553709318"><ele>6.0</ele><time>2026-04-04T13:54:54.919Z</time></trkpt><trkpt lat="45.240925372373454" lon="11.726942090332534"><ele>7.0</ele><time>2026-04-04T13:54:55.919Z</time></trkpt><trkpt lat="45.24106745131499" lon="11.727140924625717"><ele>8.0</ele><time>2026-04-04T13:54:56.919Z</time></trkpt><trkpt lat="45.24118425989189" lon="11.727343437076092"><ele>8.0</ele><time>2026-04-04T13:54:57.919Z</time></trkpt><trkpt lat="45.24130924072629" lon="11.727529098931791"><ele>8.0</ele><time>2026-04-04T13:54:58.919Z</time></trkpt><trkpt lat="45.24142426428237" lon="11.727666927350812"><ele>8.0</ele><time>2026-04-04T13:54:59.919Z</time></trkpt><trkpt lat="45.24150567237468" lon="11.72783427150086"><ele>7.75</ele><time>2026-04-04T13:55:00.919Z</time></trkpt><trkpt lat="45.241590800577924" lon="11.72797530147785"><ele>7.5</ele><time>2026-04-04T13:55:01.919Z</time></trkpt><trkpt lat="45.24167887226633" lon="11.728103250070463"><ele>7.25</ele><time>2026-04-04T13:55:02.919Z</time></trkpt><trkpt lat="45.241769885995126" lon="11.72820765737466"><ele>7.0</ele><time>2026-04-04T13:55:03.919Z</time></trkpt><trkpt lat="45.24184574791059" lon="11.728294181521473"><ele>7.0</ele><time>2026-04-04T13:55:04.918Z</time></trkpt><trkpt lat="45.24192552493673" lon="11.728361239258298"><ele>6.999999999999999</ele><time>2026-04-04T13:55:05.918Z</time></trkpt><trkpt lat="45.242004442642354" lon="11.728425836357642"><ele>6.999999999999999</ele><time>2026-04-04T13:55:06.918Z</time></trkpt><trkpt lat="45.24210310329053" lon="11.728508634474418"><ele>7.0</ele><time>2026-04-04T13:55:07.918Z</time></trkpt><trkpt lat="45.24217747894451" lon="11.72864699039874"><ele>7.0</ele><time>2026-04-04T13:55:08.918Z</time></trkpt><trkpt lat="45.2422462975629" lon="11.728815276118327"><ele>7.0</ele><time>2026-04-04T13:55:09.918Z</time></trkpt><trkpt lat="45.242332092869574" lon="11.728991332901794"><ele>7.0</ele><time>2026-04-04T13:55:10.918Z</time></trkpt><trkpt lat="45.24243313848877" lon="11.729149069297259"><ele>7.0</ele><time>2026-04-04T13:55:11.918Z</time></trkpt><trkpt lat="45.242529748132895" lon="11.729288186169299"><ele>7.0</ele><time>2026-04-04T13:55:12.918Z</time></trkpt><trkpt lat="45.24264343062204" lon="11.729403730160621"><ele>7.0</ele><time>2026-04-04T13:55:13.918Z</time></trkpt><trkpt lat="45.24275297681751" lon="11.729503956360121"><ele>7.0</ele><time>2026-04-04T13:55:14.918Z</time></trkpt><trkpt lat="45.242865440397395" lon="11.729599852790294"><ele>7.0</ele><time>2026-04-04T13:55:15.918Z</time></trkpt><trkpt lat="45.242961896920136" lon="11.729689133013654"><ele>7.0</ele><time>2026-04-04T13:55:16.918Z</time></trkpt><trkpt lat="45.24306166825884" lon="11.729759664733873"><ele>7.0</ele><time>2026-04-04T13:55:17.918Z</time></trkpt><trkpt lat="45.24314903184115" lon="11.729803205985991"><ele>6.999999999999999</ele><time>2026-04-04T13:55:18.918Z</time></trkpt><trkpt lat="45.24324420462856" lon="11.72981385825501"><ele>6.999999999999999</ele><time>2026-04-04T13:55:19.918Z</time></trkpt><trkpt lat="45.24334878226993" lon="11.729790802846955"><ele>7.0</ele><time>2026-04-04T13:55:20.918Z</time></trkpt><trkpt lat="45.243444786253676" lon="11.729721954531216"><ele>7.0</ele><time>2026-04-04T13:55:21.918Z</time></trkpt><trkpt lat="45.243523816168754" lon="11.729582459566238"><ele>7.0</ele><time>2026-04-04T13:55:22.918Z</time></trkpt><trkpt lat="45.243640775838585" lon="11.729433011748515"><ele>7.0</ele><time>2026-04-04T13:55:23.918Z</time></trkpt><trkpt lat="45.24375596664039" lon="11.729251513780929"><ele>7.0</ele><time>2026-04-04T13:55:24.918Z</time></trkpt><trkpt lat="45.24387631895779" lon="11.729056125617154"><ele>7.0</ele><time>2026-04-04T13:55:25.919Z</time></trkpt><trkpt lat="45.24399607191962" lon="11.728862704829504"><ele>7.0</ele><time>2026-04-04T13:55:26.919Z</time></trkpt><trkpt lat="45.24410226853523" lon="11.728693537686095"><ele>7.0</ele><time>2026-04-04T13:55:27.919Z</time></trkpt><trkpt lat="45.2441944531287" lon="11.728544346474756"><ele>7.0</ele><time>2026-04-04T13:55:28.918Z</time></trkpt><trkpt lat="45.24427373354699" lon="11.728412003373169"><ele>6.999999999999999</ele><time>2026-04-04T13:55:29.919Z</time></trkpt><trkpt lat="45.24433380359639" lon="11.728299800667726"><ele>6.999999999999999</ele><time>2026-04-04T13:55:30.919Z</time></trkpt><trkpt lat="45.24438552423699" lon="11.728199020682869"><ele>7.0</ele><time>2026-04-04T13:55:31.919Z</time></trkpt><trkpt lat="45.24443364022585" lon="11.728114818184057"><ele>7.0</ele><time>2026-04-04T13:55:32.919Z</time></trkpt><trkpt lat="45.244480798541844" lon="11.728045578611836"><ele>7.0</ele><time>2026-04-04T13:55:33.919Z</time></trkpt><trkpt lat="45.244564793186775" lon="11.72797300747815"><ele>7.0</ele><time>2026-04-04T13:55:35.919Z</time></trkpt><trkpt lat="45.24466364330645" lon="11.72810570785927"><ele>7.0</ele><time>2026-04-04T13:55:37.918Z</time></trkpt><trkpt lat="45.24469458472682" lon="11.728266173649335"><ele>7.0</ele><time>2026-04-04T13:55:38.919Z</time></trkpt><trkpt lat="45.244735262531364" lon="11.728464706985132"><ele>7.666666666666667</ele><time>2026-04-04T13:55:39.919Z</time></trkpt><trkpt lat="45.24479316002747" lon="11.728695249598433"><ele>8.333333333333334</ele><time>2026-04-04T13:55:40.919Z</time></trkpt><trkpt lat="45.244844082685034" lon="11.728911512279025"><ele>9.0</ele><time>2026-04-04T13:55:41.919Z</time></trkpt><trkpt lat="45.244894656411375" lon="11.729125465656233"><ele>9.0</ele><time>2026-04-04T13:55:42.919Z</time></trkpt><trkpt lat="45.244940364129015" lon="11.729346231840234"><ele>9.0</ele><time>2026-04-04T13:55:43.919Z</time></trkpt><trkpt lat="45.24498995732317" lon="11.729565916716265"><ele>9.0</ele><time>2026-04-04T13:55:44.919Z</time></trkpt><trkpt lat="45.24504302508702" lon="11.729795161362869"><ele>9.0</ele><time>2026-04-04T13:55:45.918Z</time></trkpt><trkpt lat="45.245104079833915" lon="11.730053655746321"><ele>9.0</ele><time>2026-04-04T13:55:46.918Z</time></trkpt><trkpt lat="45.24515768068758" lon="11.730331513787752"><ele>9.0</ele><time>2026-04-04T13:55:47.918Z</time></trkpt><trkpt lat="45.24522259500269" lon="11.730614798520657"><ele>8.666666666666666</ele><time>2026-04-04T13:55:48.918Z</time></trkpt><trkpt lat="45.2452855526686" lon="11.730887781757419"><ele>8.333333333333332</ele><time>2026-04-04T13:55:49.918Z</time></trkpt><trkpt lat="45.24533256483668" lon="11.731157778323684"><ele>8.0</ele><time>2026-04-04T13:55:50.918Z</time></trkpt><trkpt lat="45.245387529479046" lon="11.731410708303656"><ele>7.666666666666666</ele><time>2026-04-04T13:55:51.918Z</time></trkpt><trkpt lat="45.24544328056043" lon="11.731667257542126"><ele>7.333333333333334</ele><time>2026-04-04T13:55:52.918Z</time></trkpt><trkpt lat="45.24551624224757" lon="11.731918156866854"><ele>7.0</ele><time>2026-04-04T13:55:53.918Z</time></trkpt><trkpt lat="45.245562443851014" lon="11.732183287973205"><ele>7.0</ele><time>2026-04-04T13:55:54.918Z</time></trkpt><trkpt lat="45.245621529262976" lon="11.732454398168187"><ele>7.0</ele><time>2026-04-04T13:55:55.918Z</time></trkpt><trkpt lat="45.245678736790914" lon="11.732709853126932"><ele>7.0</ele><time>2026-04-04T13:55:56.918Z</time></trkpt><trkpt lat="45.245730152193026" lon="11.732943020928936"><ele>6.75</ele><time>2026-04-04T13:55:57.918Z</time></trkpt><trkpt lat="45.24577651905974" lon="11.73315762459774"><ele>6.5</ele><time>2026-04-04T13:55:58.918Z</time></trkpt><trkpt lat="45.24581783250106" lon="11.733349436278704"><ele>6.25</ele><time>2026-04-04T13:55:59.918Z</time></trkpt><trkpt lat="45.24586023189011" lon="11.733533310414906"><ele>6.0</ele><time>2026-04-04T13:56:00.918Z</time></trkpt><trkpt lat="45.24589612682152" lon="11.73369985460435"><ele>5.833333333333333</ele><time>2026-04-04T13:56:01.918Z</time></trkpt><trkpt lat="45.24591010893613" lon="11.733850054636292"><ele>5.666666666666667</ele><time>2026-04-04T13:56:02.918Z</time></trkpt><trkpt lat="45.24593403914428" lon="11.733966608168371"><ele>5.5</ele><time>2026-04-04T13:56:03.918Z</time></trkpt><trkpt lat="45.24596699587018" lon="11.734138431386338"><ele>5.333333333333334</ele><time>2026-04-04T13:56:05.918Z</time></trkpt><trkpt lat="45.24597063589413" lon="11.734231394978451"><ele>5.166666666666667</ele><time>2026-04-04T13:56:06.918Z</time></trkpt><trkpt lat="45.24596187967964" lon="11.73432250424687"><ele>5.0</ele><time>2026-04-04T13:56:07.918Z</time></trkpt><trkpt lat="45.24599901884126" lon="11.734481849099602"><ele>5.0</ele><time>2026-04-04T13:56:09.918Z</time></trkpt><trkpt lat="45.24605829281985" lon="11.734540659014948"><ele>5.0</ele><time>2026-04-04T13:56:10.918Z</time></trkpt><trkpt lat="45.24612514038343" lon="11.734567967018547"><ele>5.0</ele><time>2026-04-04T13:56:11.918Z</time></trkpt><trkpt lat="45.24619672504288" lon="11.734538108774462"><ele>5.0</ele><time>2026-04-04T13:56:12.918Z</time></trkpt><trkpt lat="45.24626119527003" lon="11.734462923990797"><ele>5.0</ele><time>2026-04-04T13:56:13.918Z</time></trkpt><trkpt lat="45.24629819501579" lon="11.734362704608236"><ele>5.0</ele><time>2026-04-04T13:56:14.918Z</time></trkpt><trkpt lat="45.24629823329009" lon="11.734243285180442"><ele>4.75</ele><time>2026-04-04T13:56:15.918Z</time></trkpt><trkpt lat="45.246247607134315" lon="11.73412838154358"><ele>4.5</ele><time>2026-04-04T13:56:16.918Z</time></trkpt><trkpt lat="45.24625410161234" lon="11.733958211382543"><ele>4.25</ele><time>2026-04-04T13:56:17.918Z</time></trkpt><trkpt lat="45.24628575637077" lon="11.733800781666785"><ele>4.0</ele><time>2026-04-04T13:56:18.917Z</time></trkpt><trkpt lat="45.24633820481747" lon="11.733626714658454"><ele>4.5</ele><time>2026-04-04T13:56:19.917Z</time></trkpt><trkpt lat="45.24638437157739" lon="11.733449264538338"><ele>5.0</ele><time>2026-04-04T13:56:20.917Z</time></trkpt><trkpt lat="45.24643600697886" lon="11.733253879551357"><ele>5.5</ele><time>2026-04-04T13:56:21.917Z</time></trkpt><trkpt lat="45.24649108623673" lon="11.733050946926504"><ele>6.0</ele><time>2026-04-04T13:56:22.917Z</time></trkpt><trkpt lat="45.24655950903141" lon="11.732845294813139"><ele>6.333333333333334</ele><time>2026-04-04T13:56:23.917Z</time></trkpt><trkpt lat="45.24664171243911" lon="11.732637846250935"><ele>6.666666666666667</ele><time>2026-04-04T13:56:24.917Z</time></trkpt><trkpt lat="45.246735557510945" lon="11.732431219475133"><ele>7.0</ele><time>2026-04-04T13:56:25.917Z</time></trkpt><trkpt lat="45.24683946381641" lon="11.732217074682081"><ele>7.0</ele><time>2026-04-04T13:56:26.917Z</time></trkpt><trkpt lat="45.246961633321185" lon="11.732001212580196"><ele>7.0</ele><time>2026-04-04T13:56:27.917Z</time></trkpt><trkpt lat="45.24706100056346" lon="11.73173378029783"><ele>7.0</ele><time>2026-04-04T13:56:28.917Z</time></trkpt><trkpt lat="45.24716524463873" lon="11.731445169111469"><ele>7.0</ele><time>2026-04-04T13:56:29.917Z</time></trkpt><trkpt lat="45.24726197309862" lon="11.731149384054472"><ele>7.0</ele><time>2026-04-04T13:56:30.917Z</time></trkpt><trkpt lat="45.24735301866068" lon="11.73083369073087"><ele>7.0</ele><time>2026-04-04T13:56:31.917Z</time></trkpt><trkpt lat="45.247449273698045" lon="11.730507873583873"><ele>7.0</ele><time>2026-04-04T13:56:32.917Z</time></trkpt><trkpt lat="45.24753408900273" lon="11.730173130567842"><ele>6.5</ele><time>2026-04-04T13:56:33.917Z</time></trkpt><trkpt lat="45.2476159281574" lon="11.729852556223799"><ele>6.0</ele><time>2026-04-04T13:56:34.917Z</time></trkpt><trkpt lat="45.247696882025956" lon="11.729545101550876"><ele>6.666666666666666</ele><time>2026-04-04T13:56:35.917Z</time></trkpt><trkpt lat="45.24778569361259" lon="11.729247822442682"><ele>7.333333333333333</ele><time>2026-04-04T13:56:36.917Z</time></trkpt><trkpt lat="45.247867819355136" lon="11.728965667665703"><ele>8.0</ele><time>2026-04-04T13:56:37.917Z</time></trkpt><trkpt lat="45.247934299900656" lon="11.728703386682174"><ele>7.333333333333333</ele><time>2026-04-04T13:56:38.917Z</time></trkpt><trkpt lat="45.24799050618829" lon="11.728451702423941"><ele>6.666666666666666</ele><time>2026-04-04T13:56:39.917Z</time></trkpt><trkpt lat="45.24803589192136" lon="11.728184333022456"><ele>6.0</ele><time>2026-04-04T13:56:40.917Z</time></trkpt><trkpt lat="45.24808836569723" lon="11.727903670243645"><ele>6.0</ele><time>2026-04-04T13:56:41.917Z</time></trkpt><trkpt lat="45.24816430173941" lon="11.727618120103646"><ele>6.0</ele><time>2026-04-04T13:56:42.917Z</time></trkpt><trkpt lat="45.248236302187586" lon="11.72736518758057"><ele>6.0</ele><time>2026-04-04T13:56:43.917Z</time></trkpt><trkpt lat="45.248303166182836" lon="11.727132784407265"><ele>6.0</ele><time>2026-04-04T13:56:44.917Z</time></trkpt><trkpt lat="45.2483672729834" lon="11.726893585456947"><ele>6.0</ele><time>2026-04-04T13:56:45.917Z</time></trkpt><trkpt lat="45.24843803013856" lon="11.72665059812536"><ele>6.0</ele><time>2026-04-04T13:56:46.917Z</time></trkpt><trkpt lat="45.24850311525068" lon="11.726387061759846"><ele>6.0</ele><time>2026-04-04T13:56:47.917Z</time></trkpt><trkpt lat="45.248582153161166" lon="11.726115202169852"><ele>6.0</ele><time>2026-04-04T13:56:48.917Z</time></trkpt><trkpt lat="45.2486464272686" lon="11.725860269864157"><ele>6.0</ele><time>2026-04-04T13:56:49.917Z</time></trkpt><trkpt lat="45.24869838065418" lon="11.72562221031138"><ele>6.0</ele><time>2026-04-04T13:56:50.916Z</time></trkpt><trkpt lat="45.248757499524295" lon="11.72540017241323"><ele>6.0</ele><time>2026-04-04T13:56:51.916Z</time></trkpt><trkpt lat="45.24881764623876" lon="11.725170687601898"><ele>6.0</ele><time>2026-04-04T13:56:52.916Z</time></trkpt><trkpt lat="45.24887746564378" lon="11.724937650787663"><ele>5.666666666666667</ele><time>2026-04-04T13:56:53.916Z</time></trkpt><trkpt lat="45.248942310673655" lon="11.724661431253335"><ele>5.333333333333334</ele><time>2026-04-04T13:56:54.916Z</time></trkpt><trkpt lat="45.24900343438058" lon="11.724393390082748"><ele>5.0</ele><time>2026-04-04T13:56:55.916Z</time></trkpt><trkpt lat="45.249061365456335" lon="11.7241271077145"><ele>5.333333333333334</ele><time>2026-04-04T13:56:56.916Z</time></trkpt><trkpt lat="45.24914208201985" lon="11.723851982264733"><ele>5.666666666666667</ele><time>2026-04-04T13:56:57.916Z</time></trkpt><trkpt lat="45.2492305112504" lon="11.723575163360142"><ele>6.0</ele><time>2026-04-04T13:56:58.916Z</time></trkpt><trkpt lat="45.249326465391924" lon="11.72329589573108"><ele>6.0</ele><time>2026-04-04T13:56:59.916Z</time></trkpt><trkpt lat="45.24941417068354" lon="11.722992690019133"><ele>6.0</ele><time>2026-04-04T13:57:00.916Z</time></trkpt><trkpt lat="45.249504799587726" lon="11.72267928367259"><ele>6.5</ele><time>2026-04-04T13:57:01.916Z</time></trkpt><trkpt lat="45.24959569980583" lon="11.722370916351599"><ele>7.0</ele><time>2026-04-04T13:57:02.916Z</time></trkpt><trkpt lat="45.24968305034137" lon="11.722071717628944"><ele>6.333333333333334</ele><time>2026-04-04T13:57:03.916Z</time></trkpt><trkpt lat="45.24976571067251" lon="11.721801005549576"><ele>5.666666666666667</ele><time>2026-04-04T13:57:04.916Z</time></trkpt><trkpt lat="45.24983801516779" lon="11.721559419516383"><ele>5.0</ele><time>2026-04-04T13:57:05.916Z</time></trkpt><trkpt lat="45.2499030281764" lon="11.721346831470097"><ele>5.0</ele><time>2026-04-04T13:57:06.916Z</time></trkpt><trkpt lat="45.24996046629436" lon="11.721140743532853"><ele>5.0</ele><time>2026-04-04T13:57:07.916Z</time></trkpt><trkpt lat="45.25000869993501" lon="11.720942181042734"><ele>5.0</ele><time>2026-04-04T13:57:08.916Z</time></trkpt><trkpt lat="45.25004159420954" lon="11.720727556971156"><ele>5.0</ele><time>2026-04-04T13:57:09.916Z</time></trkpt><trkpt lat="45.250037149707104" lon="11.720517953946795"><ele>5.0</ele><time>2026-04-04T13:57:10.916Z</time></trkpt><trkpt lat="45.25002256976845" lon="11.720356814025628"><ele>5.0</ele><time>2026-04-04T13:57:11.916Z</time></trkpt><trkpt lat="45.24999504381418" lon="11.720204113321289"><ele>5.0</ele><time>2026-04-04T13:57:12.916Z</time></trkpt><trkpt lat="45.24995628893852" lon="11.720027024878133"><ele>4.666666666666667</ele><time>2026-04-04T13:57:13.916Z</time></trkpt><trkpt lat="45.24989232148001" lon="11.719814531339576"><ele>4.333333333333333</ele><time>2026-04-04T13:57:14.916Z</time></trkpt><trkpt lat="45.249811591258705" lon="11.71958414483628"><ele>4.0</ele><time>2026-04-04T13:57:15.916Z</time></trkpt><trkpt lat="45.24972565808027" lon="11.719347753379914"><ele>3.6666666666666665</ele><time>2026-04-04T13:57:16.916Z</time></trkpt><trkpt lat="45.249621355429205" lon="11.71911521127188"><ele>3.333333333333333</ele><time>2026-04-04T13:57:17.916Z</time></trkpt><trkpt lat="45.249544070402656" lon="11.718891595560684"><ele>3.0</ele><time>2026-04-04T13:57:18.916Z</time></trkpt><trkpt lat="45.249461356038545" lon="11.718678300513877"><ele>2.6666666666666665</ele><time>2026-04-04T13:57:19.916Z</time></trkpt><trkpt lat="45.24937731465332" lon="11.718455396974454"><ele>2.333333333333333</ele><time>2026-04-04T13:57:20.916Z</time></trkpt><trkpt lat="45.24928036518652" lon="11.718221065855339"><ele>2.0</ele><time>2026-04-04T13:57:21.916Z</time></trkpt><trkpt lat="45.249185467272525" lon="11.717978274873385"><ele>2.6666666666666665</ele><time>2026-04-04T13:57:22.915Z</time></trkpt><trkpt lat="45.24908648473865" lon="11.717725383261932"><ele>3.333333333333333</ele><time>2026-04-04T13:57:23.915Z</time></trkpt><trkpt lat="45.24898462595703" lon="11.717456606968877"><ele>4.0</ele><time>2026-04-04T13:57:24.915Z</time></trkpt><trkpt lat="45.24888492737971" lon="11.717191365090036"><ele>3.0</ele><time>2026-04-04T13:57:25.915Z</time></trkpt><trkpt lat="45.24878108506189" lon="11.716914561130897"><ele>2.0</ele><time>2026-04-04T13:57:26.915Z</time></trkpt><trkpt lat="45.248678307284294" lon="11.71664115083364"><ele>1.0</ele><time>2026-04-04T13:57:27.915Z</time></trkpt><trkpt lat="45.24857392662954" lon="11.716357592283227"><ele>1.0</ele><time>2026-04-04T13:57:28.915Z</time></trkpt><trkpt lat="45.24846120735447" lon="11.716077122754271"><ele>1.0</ele><time>2026-04-04T13:57:29.915Z</time></trkpt><trkpt lat="45.248355111588495" lon="11.715790336564975"><ele>1.0</ele><time>2026-04-04T13:57:30.915Z</time></trkpt><trkpt lat="45.248242900518996" lon="11.71549908811619"><ele>1.0</ele><time>2026-04-04T13:57:31.916Z</time></trkpt><trkpt lat="45.24812934516328" lon="11.715203499613821"><ele>0.5</ele><time>2026-04-04T13:57:32.916Z</time></trkpt><trkpt lat="45.24801640645459" lon="11.714896880451134"><ele>0.0</ele><time>2026-04-04T13:57:33.916Z</time></trkpt><trkpt lat="45.24790466533474" lon="11.714588299291014"><ele>1.0</ele><time>2026-04-04T13:57:34.917Z</time></trkpt><trkpt lat="45.24779098509309" lon="11.714287157528082"><ele>2.0</ele><time>2026-04-04T13:57:35.916Z</time></trkpt><trkpt lat="45.24768191224074" lon="11.713992483250966"><ele>2.0</ele><time>2026-04-04T13:57:36.916Z</time></trkpt><trkpt lat="45.24758002343855" lon="11.713712166575093"><ele>2.0</ele><time>2026-04-04T13:57:37.916Z</time></trkpt><trkpt lat="45.24747971239071" lon="11.713452875615847"><ele>2.0</ele><time>2026-04-04T13:57:38.916Z</time></trkpt><trkpt lat="45.24737809522377" lon="11.713216306725744"><ele>3.0</ele><time>2026-04-04T13:57:39.916Z</time></trkpt><trkpt lat="45.24729359159208" lon="11.713005074033372"><ele>4.0</ele><time>2026-04-04T13:57:40.916Z</time></trkpt><trkpt lat="45.24721609288188" lon="11.712827163152442"><ele>5.0</ele><time>2026-04-04T13:57:41.916Z</time></trkpt><trkpt lat="45.24711569669153" lon="11.712671668159395"><ele>6.0</ele><time>2026-04-04T13:57:42.916Z</time></trkpt><trkpt lat="45.246973787921206" lon="11.712532224715991"><ele>7.0</ele><time>2026-04-04T13:57:43.916Z</time></trkpt><trkpt lat="45.24679998304954" lon="11.712422916040824"><ele>8.0</ele><time>2026-04-04T13:57:44.916Z</time></trkpt><trkpt lat="45.246608290963835" lon="11.712315722043906"><ele>7.333333333333333</ele><time>2026-04-04T13:57:45.916Z</time></trkpt><trkpt lat="45.24641491677716" lon="11.712200316428927"><ele>6.666666666666666</ele><time>2026-04-04T13:57:46.916Z</time></trkpt><trkpt lat="45.24621872378617" lon="11.712073897855289"><ele>6.0</ele><time>2026-04-04T13:57:47.916Z</time></trkpt><trkpt lat="45.24602012302921" lon="11.711935817224749"><ele>6.666666666666666</ele><time>2026-04-04T13:57:48.916Z</time></trkpt><trkpt lat="45.24581374590453" lon="11.711816797404232"><ele>7.333333333333333</ele><time>2026-04-04T13:57:49.916Z</time></trkpt><trkpt lat="45.245606118992356" lon="11.711704277024044"><ele>8.0</ele><time>2026-04-04T13:57:50.916Z</time></trkpt><trkpt lat="45.24539748689051" lon="11.711622823297558"><ele>8.0</ele><time>2026-04-04T13:57:51.916Z</time></trkpt><trkpt lat="45.24518640171031" lon="11.711569983746868"><ele>8.0</ele><time>2026-04-04T13:57:52.916Z</time></trkpt><trkpt lat="45.244969275728295" lon="11.711553722917186"><ele>8.0</ele><time>2026-04-04T13:57:53.916Z</time></trkpt><trkpt lat="45.244754992096354" lon="11.711542756554847"><ele>8.333333333333332</ele><time>2026-04-04T13:57:54.916Z</time></trkpt><trkpt lat="45.244537684365" lon="11.711522766993061"><ele>8.666666666666666</ele><time>2026-04-04T13:57:55.916Z</time></trkpt><trkpt lat="45.24431393278181" lon="11.71151109348807"><ele>9.0</ele><time>2026-04-04T13:57:56.916Z</time></trkpt><trkpt lat="45.24410352969455" lon="11.711501466698804"><ele>9.0</ele><time>2026-04-04T13:57:57.916Z</time></trkpt><trkpt lat="45.243905622971496" lon="11.711485431093402"><ele>9.0</ele><time>2026-04-04T13:57:58.916Z</time></trkpt><trkpt lat="45.24371157238763" lon="11.711473998806015"><ele>9.0</ele><time>2026-04-04T13:57:59.916Z</time></trkpt><trkpt lat="45.243527357468466" lon="11.711458948442449"><ele>9.0</ele><time>2026-04-04T13:58:00.916Z</time></trkpt><trkpt lat="45.24334656682528" lon="11.711438476471418"><ele>9.0</ele><time>2026-04-04T13:58:01.916Z</time></trkpt><trkpt lat="45.243179183549366" lon="11.711431411606497"><ele>9.0</ele><time>2026-04-04T13:58:02.916Z</time></trkpt><trkpt lat="45.24300775851059" lon="11.711414402571256"><ele>9.0</ele><time>2026-04-04T13:58:03.916Z</time></trkpt><trkpt lat="45.2428345227685" lon="11.711372681520803"><ele>9.0</ele><time>2026-04-04T13:58:04.916Z</time></trkpt><trkpt lat="45.2426604036237" lon="11.711293415189003"><ele>9.0</ele><time>2026-04-04T13:58:05.915Z</time></trkpt><trkpt lat="45.24247625510132" lon="11.711181509152803"><ele>10.0</ele><time>2026-04-04T13:58:06.915Z</time></trkpt><trkpt lat="45.24227859143111" lon="11.711049693959067"><ele>11.0</ele><time>2026-04-04T13:58:07.915Z</time></trkpt><trkpt lat="45.24206638675456" lon="11.710897871520867"><ele>11.0</ele><time>2026-04-04T13:58:08.915Z</time></trkpt><trkpt lat="45.2418470934328" lon="11.710732807271604"><ele>11.0</ele><time>2026-04-04T13:58:09.915Z</time></trkpt><trkpt lat="45.241621200132705" lon="11.710563850241845"><ele>9.5</ele><time>2026-04-04T13:58:10.915Z</time></trkpt><trkpt lat="45.241385472925856" lon="11.710381894487508"><ele>8.0</ele><time>2026-04-04T13:58:11.915Z</time></trkpt><trkpt lat="45.24114324897166" lon="11.710192614324475"><ele>8.0</ele><time>2026-04-04T13:58:12.915Z</time></trkpt><trkpt lat="45.240900746504856" lon="11.70999958923719"><ele>8.0</ele><time>2026-04-04T13:58:13.915Z</time></trkpt><trkpt lat="45.240661412983606" lon="11.709814439385664"><ele>8.5</ele><time>2026-04-04T13:58:14.915Z</time></trkpt><trkpt lat="45.24043494866019" lon="11.709635166002546"><ele>9.0</ele><time>2026-04-04T13:58:15.915Z</time></trkpt><trkpt lat="45.240229944034056" lon="11.709472664068675"><ele>8.333333333333334</ele><time>2026-04-04T13:58:16.915Z</time></trkpt><trkpt lat="45.240039290018274" lon="11.709332768147428"><ele>7.666666666666667</ele><time>2026-04-04T13:58:17.915Z</time></trkpt><trkpt lat="45.23988220239055" lon="11.709197844604187"><ele>7.0</ele><time>2026-04-04T13:58:18.915Z</time></trkpt><trkpt lat="45.23974184824249" lon="11.709069117469664"><ele>7.0</ele><time>2026-04-04T13:58:19.915Z</time></trkpt><trkpt lat="45.23962567785765" lon="11.708918450256167"><ele>7.0</ele><time>2026-04-04T13:58:20.915Z</time></trkpt><trkpt lat="45.23952971196288" lon="11.708749245100611"><ele>7.0</ele><time>2026-04-04T13:58:21.915Z</time></trkpt><trkpt lat="45.23944958709758" lon="11.708549372244123"><ele>9.333333333333334</ele><time>2026-04-04T13:58:22.915Z</time></trkpt><trkpt lat="45.2393562613694" lon="11.70834916109617"><ele>11.666666666666668</ele><time>2026-04-04T13:58:23.915Z</time></trkpt><trkpt lat="45.23924439498896" lon="11.70815849841849"><ele>14.0</ele><time>2026-04-04T13:58:24.915Z</time></trkpt><trkpt lat="45.2391030814017" lon="11.707998333436883"><ele>13.0</ele><time>2026-04-04T13:58:25.915Z</time></trkpt><trkpt lat="45.2389312636173" lon="11.707857684698501"><ele>12.0</ele><time>2026-04-04T13:58:26.915Z</time></trkpt><trkpt lat="45.238759349322834" lon="11.707718588384699"><ele>11.0</ele><time>2026-04-04T13:58:27.915Z</time></trkpt><trkpt lat="45.23860088600344" lon="11.707588007666399"><ele>13.666666666666666</ele><time>2026-04-04T13:58:28.915Z</time></trkpt><trkpt lat="45.23846113944152" lon="11.707468320220048"><ele>16.333333333333332</ele><time>2026-04-04T13:58:29.915Z</time></trkpt><trkpt lat="45.23833792002353" lon="11.707331113588904"><ele>19.0</ele><time>2026-04-04T13:58:30.915Z</time></trkpt><trkpt lat="45.23822977369608" lon="11.70716994108874"><ele>19.0</ele><time>2026-04-04T13:58:31.915Z</time></trkpt><trkpt lat="45.23814009169053" lon="11.707029185146844"><ele>19.0</ele><time>2026-04-04T13:58:32.915Z</time></trkpt><trkpt lat="45.238068435732956" lon="11.70690613180067"><ele>19.0</ele><time>2026-04-04T13:58:33.915Z</time></trkpt><trkpt lat="45.238010217362316" lon="11.70679907973845"><ele>19.0</ele><time>2026-04-04T13:58:34.915Z</time></trkpt><trkpt lat="45.23796184139745" lon="11.706671532340843"><ele>19.0</ele><time>2026-04-04T13:58:35.915Z</time></trkpt><trkpt lat="45.23794232517311" lon="11.706542583673606"><ele>19.0</ele><time>2026-04-04T13:58:36.915Z</time></trkpt><trkpt lat="45.23791855204363" lon="11.706402885467293"><ele>19.0</ele><time>2026-04-04T13:58:37.914Z</time></trkpt><trkpt lat="45.237905034753084" lon="11.706268759338146"><ele>19.0</ele><time>2026-04-04T13:58:38.914Z</time></trkpt><trkpt lat="45.23790635034156" lon="11.706155731100171"><ele>19.0</ele><time>2026-04-04T13:58:39.914Z</time></trkpt><trkpt lat="45.23791279508138" lon="11.706044420228592"><ele>19.0</ele><time>2026-04-04T13:58:40.914Z</time></trkpt><trkpt lat="45.2379224737344" lon="11.7059370708054"><ele>19.0</ele><time>2026-04-04T13:58:41.914Z</time></trkpt><trkpt lat="45.23795762301154" lon="11.705813641599228"><ele>19.333333333333332</ele><time>2026-04-04T13:58:42.914Z</time></trkpt><trkpt lat="45.23799262373876" lon="11.705682199338565"><ele>19.666666666666664</ele><time>2026-04-04T13:58:43.914Z</time></trkpt><trkpt lat="45.238037983901904" lon="11.705571653921206"><ele>20.0</ele><time>2026-04-04T13:58:44.914Z</time></trkpt><trkpt lat="45.238074114783394" lon="11.70547592040362"><ele>20.333333333333332</ele><time>2026-04-04T13:58:45.914Z</time></trkpt><trkpt lat="45.238092822632886" lon="11.705352223895652"><ele>20.666666666666668</ele><time>2026-04-04T13:58:47.914Z</time></trkpt><trkpt lat="45.238040044129114" lon="11.705272173912043"><ele>21.0</ele><time>2026-04-04T13:58:48.914Z</time></trkpt><trkpt lat="45.237935179642434" lon="11.70517867009543"><ele>19.333333333333332</ele><time>2026-04-04T13:58:49.914Z</time></trkpt><trkpt lat="45.23780695934567" lon="11.70506379309136"><ele>17.666666666666664</ele><time>2026-04-04T13:58:50.914Z</time></trkpt><trkpt lat="45.237662684868724" lon="11.704941662123108"><ele>16.0</ele><time>2026-04-04T13:58:51.914Z</time></trkpt><trkpt lat="45.237529621425146" lon="11.70482050596842"><ele>16.0</ele><time>2026-04-04T13:58:52.914Z</time></trkpt><trkpt lat="45.237412242091274" lon="11.704707154692294"><ele>16.0</ele><time>2026-04-04T13:58:53.914Z</time></trkpt><trkpt lat="45.237311042166354" lon="11.704611885736515"><ele>16.0</ele><time>2026-04-04T13:58:54.914Z</time></trkpt><trkpt lat="45.23722738451007" lon="11.704528102735344"><ele>16.0</ele><time>2026-04-04T13:58:55.914Z</time></trkpt><trkpt lat="45.237161582252085" lon="11.704452963162147"><ele>15.0</ele><time>2026-04-04T13:58:56.914Z</time></trkpt><trkpt lat="45.23711539218359" lon="11.704366472242961"><ele>14.000000000000002</ele><time>2026-04-04T13:58:57.914Z</time></trkpt><trkpt lat="45.2370857405695" lon="11.70428008517637"><ele>13.0</ele><time>2026-04-04T13:58:58.914Z</time></trkpt><trkpt lat="45.23708085616691" lon="11.704159720765764"><ele>12.0</ele><time>2026-04-04T13:58:59.914Z</time></trkpt><trkpt lat="45.23710692955964" lon="11.704005891440412"><ele>11.0</ele><time>2026-04-04T13:59:00.914Z</time></trkpt><trkpt lat="45.23716443480171" lon="11.70386006565415"><ele>11.0</ele><time>2026-04-04T13:59:01.914Z</time></trkpt><trkpt lat="45.237228305768646" lon="11.703695918709183"><ele>11.0</ele><time>2026-04-04T13:59:02.914Z</time></trkpt><trkpt lat="45.23729461877448" lon="11.703504261314018"><ele>11.0</ele><time>2026-04-04T13:59:03.914Z</time></trkpt><trkpt lat="45.23737454875231" lon="11.703293711203646"><ele>11.333333333333332</ele><time>2026-04-04T13:59:04.914Z</time></trkpt><trkpt lat="45.23745813457342" lon="11.703084792847566"><ele>11.666666666666666</ele><time>2026-04-04T13:59:05.914Z</time></trkpt><trkpt lat="45.237531863980784" lon="11.70287529545799"><ele>12.0</ele><time>2026-04-04T13:59:06.914Z</time></trkpt><trkpt lat="45.23761471207898" lon="11.702662904200487"><ele>12.0</ele><time>2026-04-04T13:59:07.914Z</time></trkpt><trkpt lat="45.23769864652925" lon="11.702456299583515"><ele>12.0</ele><time>2026-04-04T13:59:08.914Z</time></trkpt><trkpt lat="45.237773063118354" lon="11.702239874770553"><ele>12.0</ele><time>2026-04-04T13:59:09.914Z</time></trkpt><trkpt lat="45.23783243435738" lon="11.701997420068874"><ele>11.333333333333334</ele><time>2026-04-04T13:59:10.913Z</time></trkpt><trkpt lat="45.23788144024545" lon="11.701737735098083"><ele>10.666666666666668</ele><time>2026-04-04T13:59:11.913Z</time></trkpt><trkpt lat="45.23792757600347" lon="11.70147006528215"><ele>10.0</ele><time>2026-04-04T13:59:12.913Z</time></trkpt><trkpt lat="45.23795699222859" lon="11.701191698599807"><ele>10.333333333333334</ele><time>2026-04-04T13:59:13.913Z</time></trkpt><trkpt lat="45.237971111113495" lon="11.7009266565354"><ele>10.666666666666666</ele><time>2026-04-04T13:59:14.913Z</time></trkpt><trkpt lat="45.237978279875534" lon="11.700705278562378"><ele>11.0</ele><time>2026-04-04T13:59:15.913Z</time></trkpt><trkpt lat="45.237991387080065" lon="11.700544679465844"><ele>11.0</ele><time>2026-04-04T13:59:16.913Z</time></trkpt><trkpt lat="45.23800829142231" lon="11.700407389051191"><ele>11.0</ele><time>2026-04-04T13:59:17.913Z</time></trkpt><trkpt lat="45.23800950083002" lon="11.700266616980985"><ele>11.0</ele><time>2026-04-04T13:59:18.913Z</time></trkpt><trkpt lat="45.237963531970316" lon="11.700107924481703"><ele>11.0</ele><time>2026-04-04T13:59:19.913Z</time></trkpt><trkpt lat="45.237882866271725" lon="11.699944181052212"><ele>12.333333333333332</ele><time>2026-04-04T13:59:20.913Z</time></trkpt><trkpt lat="45.23779076121867" lon="11.699766210485313"><ele>13.666666666666666</ele><time>2026-04-04T13:59:21.913Z</time></trkpt><trkpt lat="45.237699167132874" lon="11.699590345474883"><ele>15.0</ele><time>2026-04-04T13:59:22.913Z</time></trkpt><trkpt lat="45.237611363004056" lon="11.699405097025913"><ele>16.333333333333332</ele><time>2026-04-04T13:59:23.913Z</time></trkpt><trkpt lat="45.23751486084551" lon="11.699213944489737"><ele>17.666666666666664</ele><time>2026-04-04T13:59:24.913Z</time></trkpt><trkpt lat="45.237405782170576" lon="11.699002841639265"><ele>19.0</ele><time>2026-04-04T13:59:25.913Z</time></trkpt><trkpt lat="45.23730162741489" lon="11.698781368018299"><ele>17.666666666666664</ele><time>2026-04-04T13:59:26.913Z</time></trkpt><trkpt lat="45.23719400917262" lon="11.69855124766479"><ele>16.333333333333332</ele><time>2026-04-04T13:59:27.913Z</time></trkpt><trkpt lat="45.23709112643592" lon="11.698304890447126"><ele>15.0</ele><time>2026-04-04T13:59:28.913Z</time></trkpt><trkpt lat="45.236990121336824" lon="11.69804338271688"><ele>15.0</ele><time>2026-04-04T13:59:29.913Z</time></trkpt><trkpt lat="45.23688935475634" lon="11.697779501927892"><ele>15.0</ele><time>2026-04-04T13:59:30.913Z</time></trkpt><trkpt lat="45.23679480331561" lon="11.697540589239805"><ele>15.0</ele><time>2026-04-04T13:59:31.913Z</time></trkpt><trkpt lat="45.23670282844559" lon="11.697322766608002"><ele>15.333333333333332</ele><time>2026-04-04T13:59:32.913Z</time></trkpt><trkpt lat="45.23662242935474" lon="11.69712637554946"><ele>15.666666666666666</ele><time>2026-04-04T13:59:33.913Z</time></trkpt><trkpt lat="45.236535108175076" lon="11.696947499815176"><ele>16.0</ele><time>2026-04-04T13:59:34.913Z</time></trkpt><trkpt lat="45.236459670078446" lon="11.69678431402187"><ele>16.0</ele><time>2026-04-04T13:59:35.913Z</time></trkpt><trkpt lat="45.236384645073095" lon="11.696635772467708"><ele>16.0</ele><time>2026-04-04T13:59:36.913Z</time></trkpt><trkpt lat="45.23632811274281" lon="11.696487596464907"><ele>16.0</ele><time>2026-04-04T13:59:37.914Z</time></trkpt><trkpt lat="45.23628907442775" lon="11.696332394199686"><ele>16.0</ele><time>2026-04-04T13:59:38.914Z</time></trkpt><trkpt lat="45.23625758060896" lon="11.696179306829443"><ele>16.5</ele><time>2026-04-04T13:59:39.914Z</time></trkpt><trkpt lat="45.236262059047384" lon="11.695997397254514"><ele>17.0</ele><time>2026-04-04T13:59:40.914Z</time></trkpt><trkpt lat="45.23629105216183" lon="11.69581003553847"><ele>17.5</ele><time>2026-04-04T13:59:41.913Z</time></trkpt><trkpt lat="45.236330959166025" lon="11.695601913161703"><ele>18.0</ele><time>2026-04-04T13:59:42.913Z</time></trkpt><trkpt lat="45.236356510136666" lon="11.695386224240286"><ele>18.0</ele><time>2026-04-04T13:59:43.914Z</time></trkpt><trkpt lat="45.23636143410225" lon="11.695174538369338"><ele>18.0</ele><time>2026-04-04T13:59:44.914Z</time></trkpt><trkpt lat="45.23636087367021" lon="11.69496896523151"><ele>18.0</ele><time>2026-04-04T13:59:45.914Z</time></trkpt><trkpt lat="45.23635250248267" lon="11.694754619690706"><ele>18.0</ele><time>2026-04-04T13:59:46.914Z</time></trkpt><trkpt lat="45.23634799448692" lon="11.694556704858181"><ele>17.6</ele><time>2026-04-04T13:59:47.914Z</time></trkpt><trkpt lat="45.23633316517891" lon="11.69438807578678"><ele>17.200000000000003</ele><time>2026-04-04T13:59:48.914Z</time></trkpt><trkpt lat="45.236349329569244" lon="11.694247059292781"><ele>16.8</ele><time>2026-04-04T13:59:49.913Z</time></trkpt><trkpt lat="45.23638730074839" lon="11.694127287550899"><ele>16.400000000000002</ele><time>2026-04-04T13:59:50.914Z</time></trkpt><trkpt lat="45.23645851814027" lon="11.694034803849211"><ele>16.0</ele><time>2026-04-04T13:59:51.914Z</time></trkpt><trkpt lat="45.23655720092836" lon="11.693979659079758"><ele>17.4</ele><time>2026-04-04T13:59:52.914Z</time></trkpt><trkpt lat="45.236647916658484" lon="11.693948535098869"><ele>18.8</ele><time>2026-04-04T13:59:53.914Z</time></trkpt><trkpt lat="45.23674937407453" lon="11.693982794150557"><ele>20.2</ele><time>2026-04-04T13:59:54.914Z</time></trkpt><trkpt lat="45.23682496837391" lon="11.694072810874031"><ele>21.599999999999998</ele><time>2026-04-04T13:59:55.914Z</time></trkpt><trkpt lat="45.23691235891058" lon="11.694150683209624"><ele>23.0</ele><time>2026-04-04T13:59:56.914Z</time></trkpt><trkpt lat="45.2370016440696" lon="11.694230244547327"><ele>23.0</ele><time>2026-04-04T13:59:57.914Z</time></trkpt><trkpt lat="45.237120363921015" lon="11.69425388547645"><ele>23.0</ele><time>2026-04-04T13:59:58.914Z</time></trkpt><trkpt lat="45.237239631398126" lon="11.694209622495185"><ele>23.0</ele><time>2026-04-04T13:59:59.914Z</time></trkpt><trkpt lat="45.237365781145904" lon="11.694148702084181"><ele>23.0</ele><time>2026-04-04T14:00:00.914Z</time></trkpt><trkpt lat="45.23749770492884" lon="11.694064564249537"><ele>24.5</ele><time>2026-04-04T14:00:01.913Z</time></trkpt><trkpt lat="45.23763372746742" lon="11.693977139932779"><ele>26.0</ele><time>2026-04-04T14:00:02.913Z</time></trkpt><trkpt lat="45.23776829834395" lon="11.69388293810315"><ele>27.5</ele><time>2026-04-04T14:00:03.913Z</time></trkpt><trkpt lat="45.23790203646125" lon="11.693792848104986"><ele>29.0</ele><time>2026-04-04T14:00:04.913Z</time></trkpt><trkpt lat="45.238030526708" lon="11.693691869401063"><ele>28.333333333333332</ele><time>2026-04-04T14:00:05.913Z</time></trkpt><trkpt lat="45.238161196606" lon="11.693575718328841"><ele>27.666666666666664</ele><time>2026-04-04T14:00:06.913Z</time></trkpt><trkpt lat="45.238295327611745" lon="11.693445917966864"><ele>27.0</ele><time>2026-04-04T14:00:07.913Z</time></trkpt><trkpt lat="45.238416342256954" lon="11.69330902900792"><ele>27.0</ele><time>2026-04-04T14:00:08.913Z</time></trkpt><trkpt lat="45.23853242097127" lon="11.693176109014098"><ele>27.0</ele><time>2026-04-04T14:00:09.913Z</time></trkpt><trkpt lat="45.2386536678343" lon="11.693078196050665"><ele>27.0</ele><time>2026-04-04T14:00:10.913Z</time></trkpt><trkpt lat="45.23879022933925" lon="11.693010420323693"><ele>27.0</ele><time>2026-04-04T14:00:11.913Z</time></trkpt><trkpt lat="45.23893033082079" lon="11.692934062709975"><ele>29.333333333333336</ele><time>2026-04-04T14:00:12.913Z</time></trkpt><trkpt lat="45.239077949369936" lon="11.692851657108394"><ele>31.666666666666668</ele><time>2026-04-04T14:00:13.913Z</time></trkpt><trkpt lat="45.239231578251406" lon="11.69277275487844"><ele>34.0</ele><time>2026-04-04T14:00:14.913Z</time></trkpt><trkpt lat="45.239367518700476" lon="11.69269525512301"><ele>31.5</ele><time>2026-04-04T14:00:15.913Z</time></trkpt><trkpt lat="45.239492133155075" lon="11.692599360380552"><ele>29.0</ele><time>2026-04-04T14:00:16.913Z</time></trkpt><trkpt lat="45.23960577205082" lon="11.692491557758116"><ele>26.5</ele><time>2026-04-04T14:00:17.913Z</time></trkpt><trkpt lat="45.23972757163277" lon="11.692354872424437"><ele>24.0</ele><time>2026-04-04T14:00:18.913Z</time></trkpt><trkpt lat="45.239844422473126" lon="11.692219829953018"><ele>24.0</ele><time>2026-04-04T14:00:19.913Z</time></trkpt><trkpt lat="45.23996026238921" lon="11.692117767178125"><ele>24.0</ele><time>2026-04-04T14:00:20.913Z</time></trkpt><trkpt lat="45.240074410149724" lon="11.69203810806999"><ele>24.0</ele><time>2026-04-04T14:00:21.913Z</time></trkpt><trkpt lat="45.240198185744326" lon="11.691989350346665"><ele>24.0</ele><time>2026-04-04T14:00:22.913Z</time></trkpt><trkpt lat="45.24032921638523" lon="11.691949699806077"><ele>22.75</ele><time>2026-04-04T14:00:23.913Z</time></trkpt><trkpt lat="45.240468335479754" lon="11.691905528620364"><ele>21.5</ele><time>2026-04-04T14:00:24.913Z</time></trkpt><trkpt lat="45.24060083192352" lon="11.69186270585679"><ele>20.25</ele><time>2026-04-04T14:00:25.913Z</time></trkpt><trkpt lat="45.24073642036486" lon="11.69181902495693"><ele>19.0</ele><time>2026-04-04T14:00:26.913Z</time></trkpt><trkpt lat="45.2408665459876" lon="11.691760169630275"><ele>19.0</ele><time>2026-04-04T14:00:27.913Z</time></trkpt><trkpt lat="45.24098821527169" lon="11.691695823069157"><ele>19.0</ele><time>2026-04-04T14:00:28.913Z</time></trkpt><trkpt lat="45.24110100825064" lon="11.691613949518175"><ele>19.0</ele><time>2026-04-04T14:00:29.913Z</time></trkpt><trkpt lat="45.24120196361469" lon="11.69150475137701"><ele>19.0</ele><time>2026-04-04T14:00:30.913Z</time></trkpt><trkpt lat="45.241297925998445" lon="11.691400387448374"><ele>19.0</ele><time>2026-04-04T14:00:31.913Z</time></trkpt><trkpt lat="45.241387666732955" lon="11.691295402528358"><ele>19.0</ele><time>2026-04-04T14:00:32.913Z</time></trkpt><trkpt lat="45.24147006089183" lon="11.691201064657449"><ele>19.0</ele><time>2026-04-04T14:00:33.912Z</time></trkpt><trkpt lat="45.24154898228609" lon="11.691108491928635"><ele>19.0</ele><time>2026-04-04T14:00:34.912Z</time></trkpt><trkpt lat="45.24162112975695" lon="11.691014691577525"><ele>19.0</ele><time>2026-04-04T14:00:35.912Z</time></trkpt><trkpt lat="45.24169270378653" lon="11.690930420637025"><ele>18.8</ele><time>2026-04-04T14:00:36.912Z</time></trkpt><trkpt lat="45.24176631690597" lon="11.690861989497492"><ele>18.599999999999998</ele><time>2026-04-04T14:00:37.912Z</time></trkpt><trkpt lat="45.241845815971246" lon="11.69079777403824"><ele>18.4</ele><time>2026-04-04T14:00:38.912Z</time></trkpt><trkpt lat="45.24194763231613" lon="11.690746557172083"><ele>18.2</ele><time>2026-04-04T14:00:39.912Z</time></trkpt><trkpt lat="45.242039393404355" lon="11.69067637253676"><ele>18.0</ele><time>2026-04-04T14:00:40.912Z</time></trkpt><trkpt lat="45.24213850462749" lon="11.690646185236414"><ele>18.0</ele><time>2026-04-04T14:00:41.912Z</time></trkpt><trkpt lat="45.2422448958205" lon="11.690644967719251"><ele>18.0</ele><time>2026-04-04T14:00:42.912Z</time></trkpt><trkpt lat="45.24233445940221" lon="11.690625658033868"><ele>18.0</ele><time>2026-04-04T14:00:43.912Z</time></trkpt><trkpt lat="45.24241751308484" lon="11.690606042844008"><ele>18.0</ele><time>2026-04-04T14:00:44.912Z</time></trkpt><trkpt lat="45.24250469276191" lon="11.690580669390073"><ele>18.0</ele><time>2026-04-04T14:00:45.912Z</time></trkpt><trkpt lat="45.242604201225255" lon="11.69054372233607"><ele>18.4</ele><time>2026-04-04T14:00:46.912Z</time></trkpt><trkpt lat="45.24271299356251" lon="11.690502176068108"><ele>18.8</ele><time>2026-04-04T14:00:47.912Z</time></trkpt><trkpt lat="45.24281746026665" lon="11.690470751489404"><ele>19.2</ele><time>2026-04-04T14:00:48.912Z</time></trkpt><trkpt lat="45.24291445149564" lon="11.690422412141709"><ele>19.6</ele><time>2026-04-04T14:00:49.912Z</time></trkpt><trkpt lat="45.242995718487435" lon="11.690340325227146"><ele>20.0</ele><time>2026-04-04T14:00:50.912Z</time></trkpt><trkpt lat="45.243060270287764" lon="11.690223223440576"><ele>18.75</ele><time>2026-04-04T14:00:51.912Z</time></trkpt><trkpt lat="45.24311336186862" lon="11.690072983748337"><ele>17.5</ele><time>2026-04-04T14:00:52.912Z</time></trkpt><trkpt lat="45.24316911279524" lon="11.689919502882283"><ele>16.25</ele><time>2026-04-04T14:00:53.912Z</time></trkpt><trkpt lat="45.24322027081775" lon="11.689771459467241"><ele>15.0</ele><time>2026-04-04T14:00:54.912Z</time></trkpt><trkpt lat="45.24327190976975" lon="11.689632218928553"><ele>15.0</ele><time>2026-04-04T14:00:55.912Z</time></trkpt><trkpt lat="45.243320575245775" lon="11.68949969965588"><ele>15.0</ele><time>2026-04-04T14:00:56.912Z</time></trkpt><trkpt lat="45.24336464398052" lon="11.689366180072879"><ele>15.0</ele><time>2026-04-04T14:00:57.912Z</time></trkpt><trkpt lat="45.24340727632911" lon="11.689241382350605"><ele>15.0</ele><time>2026-04-04T14:00:58.912Z</time></trkpt><trkpt lat="45.24344713379844" lon="11.689124645847219"><ele>15.0</ele><time>2026-04-04T14:00:59.912Z</time></trkpt><trkpt lat="45.24348003809547" lon="11.689022647992255"><ele>14.833333333333334</ele><time>2026-04-04T14:01:00.912Z</time></trkpt><trkpt lat="45.24351874600034" lon="11.688919055922176"><ele>14.666666666666668</ele><time>2026-04-04T14:01:01.912Z</time></trkpt><trkpt lat="45.24355959183293" lon="11.688830456184219"><ele>14.5</ele><time>2026-04-04T14:01:02.912Z</time></trkpt><trkpt lat="45.24363487330709" lon="11.688707349363026"><ele>14.333333333333334</ele><time>2026-04-04T14:01:04.912Z</time></trkpt><trkpt lat="45.24369153758142" lon="11.688575246438868"><ele>14.166666666666668</ele><time>2026-04-04T14:01:06.911Z</time></trkpt><trkpt lat="45.24374511851444" lon="11.688523572977191"><ele>14.0</ele><time>2026-04-04T14:01:07.911Z</time></trkpt><trkpt lat="45.243820747515024" lon="11.688511877057236"><ele>14.0</ele><time>2026-04-04T14:01:08.911Z</time></trkpt><trkpt lat="45.243923565877544" lon="11.688516362908151"><ele>13.999999999999998</ele><time>2026-04-04T14:01:09.911Z</time></trkpt><trkpt lat="45.24403231531725" lon="11.688514694394993"><ele>13.999999999999998</ele><time>2026-04-04T14:01:10.911Z</time></trkpt><trkpt lat="45.24413916927308" lon="11.688510621233956"><ele>14.0</ele><time>2026-04-04T14:01:11.911Z</time></trkpt><trkpt lat="45.24424778037949" lon="11.688504693390131"><ele>14.0</ele><time>2026-04-04T14:01:12.911Z</time></trkpt><trkpt lat="45.244351108471214" lon="11.688498898787667"><ele>14.2</ele><time>2026-04-04T14:01:13.911Z</time></trkpt><trkpt lat="45.244455147507566" lon="11.688491661271069"><ele>14.399999999999999</ele><time>2026-04-04T14:01:14.911Z</time></trkpt><trkpt lat="45.244567080205606" lon="11.688479044066659"><ele>14.6</ele><time>2026-04-04T14:01:15.911Z</time></trkpt><trkpt lat="45.24467047490847" lon="11.688442705733095"><ele>14.8</ele><time>2026-04-04T14:01:16.911Z</time></trkpt><trkpt lat="45.24478340212214" lon="11.688444317188079"><ele>15.0</ele><time>2026-04-04T14:01:17.911Z</time></trkpt><trkpt lat="45.24489616000516" lon="11.688427116049542"><ele>15.0</ele><time>2026-04-04T14:01:18.911Z</time></trkpt><trkpt lat="45.245017578062736" lon="11.688408412690505"><ele>15.0</ele><time>2026-04-04T14:01:19.911Z</time></trkpt><trkpt lat="45.24512581932181" lon="11.688393477079124"><ele>15.0</ele><time>2026-04-04T14:01:20.911Z</time></trkpt><trkpt lat="45.245223152053754" lon="11.68838318859586"><ele>15.0</ele><time>2026-04-04T14:01:21.911Z</time></trkpt><trkpt lat="45.245315855211764" lon="11.688372284714234"><ele>15.0</ele><time>2026-04-04T14:01:22.911Z</time></trkpt><trkpt lat="45.24541153010223" lon="11.688375426142844"><ele>15.0</ele><time>2026-04-04T14:01:23.911Z</time></trkpt><trkpt lat="45.245508989302614" lon="11.688400636348497"><ele>15.0</ele><time>2026-04-04T14:01:24.911Z</time></trkpt><trkpt lat="45.245616377296" lon="11.688453719862965"><ele>15.0</ele><time>2026-04-04T14:01:25.911Z</time></trkpt><trkpt lat="45.24572788970024" lon="11.688528942960811"><ele>15.0</ele><time>2026-04-04T14:01:26.911Z</time></trkpt><trkpt lat="45.24584182321209" lon="11.688612946120621"><ele>16.25</ele><time>2026-04-04T14:01:27.911Z</time></trkpt><trkpt lat="45.24595956253403" lon="11.688694659977365"><ele>17.5</ele><time>2026-04-04T14:01:28.911Z</time></trkpt><trkpt lat="45.24608527874495" lon="11.688766674769983"><ele>18.75</ele><time>2026-04-04T14:01:29.911Z</time></trkpt><trkpt lat="45.24622010855807" lon="11.68882209632699"><ele>20.0</ele><time>2026-04-04T14:01:30.911Z</time></trkpt><trkpt lat="45.24637143306791" lon="11.688846536327997"><ele>20.5</ele><time>2026-04-04T14:01:31.911Z</time></trkpt><trkpt lat="45.246525837417984" lon="11.688850195786095"><ele>21.0</ele><time>2026-04-04T14:01:32.911Z</time></trkpt><trkpt lat="45.24667445774682" lon="11.688861714072157"><ele>21.5</ele><time>2026-04-04T14:01:33.911Z</time></trkpt><trkpt lat="45.246808260825176" lon="11.688888237355581"><ele>22.0</ele><time>2026-04-04T14:01:34.911Z</time></trkpt><trkpt lat="45.24692708798409" lon="11.688939989760943"><ele>22.0</ele><time>2026-04-04T14:01:35.911Z</time></trkpt><trkpt lat="45.24704128446018" lon="11.68901443008104"><ele>22.0</ele><time>2026-04-04T14:01:36.911Z</time></trkpt><trkpt lat="45.24716205034042" lon="11.68909740823896"><ele>22.0</ele><time>2026-04-04T14:01:37.911Z</time></trkpt><trkpt lat="45.24729211460709" lon="11.689179603812487"><ele>22.0</ele><time>2026-04-04T14:01:38.91Z</time></trkpt><trkpt lat="45.24743464797022" lon="11.689212504999901"><ele>22.333333333333332</ele><time>2026-04-04T14:01:39.91Z</time></trkpt><trkpt lat="45.247591480276334" lon="11.68920757310376"><ele>22.666666666666668</ele><time>2026-04-04T14:01:40.91Z</time></trkpt><trkpt lat="45.24774876329042" lon="11.689152725483936"><ele>23.0</ele><time>2026-04-04T14:01:41.91Z</time></trkpt><trkpt lat="45.247913378177785" lon="11.689129878756251"><ele>23.0</ele><time>2026-04-04T14:01:42.91Z</time></trkpt><trkpt lat="45.248065857103896" lon="11.689088409476398"><ele>23.0</ele><time>2026-04-04T14:01:43.911Z</time></trkpt><trkpt lat="45.2481994637686" lon="11.689062511047144"><ele>23.0</ele><time>2026-04-04T14:01:44.911Z</time></trkpt><trkpt lat="45.248319892779634" lon="11.689045419021852"><ele>23.0</ele><time>2026-04-04T14:01:45.911Z</time></trkpt><trkpt lat="45.248454367426916" lon="11.689032331411399"><ele>23.333333333333336</ele><time>2026-04-04T14:01:46.911Z</time></trkpt><trkpt lat="45.24860068523339" lon="11.688999662293694"><ele>23.666666666666668</ele><time>2026-04-04T14:01:47.911Z</time></trkpt><trkpt lat="45.248774120553925" lon="11.688967063631367"><ele>24.0</ele><time>2026-04-04T14:01:48.911Z</time></trkpt><trkpt lat="45.248948427298416" lon="11.688899410342449"><ele>25.0</ele><time>2026-04-04T14:01:49.911Z</time></trkpt><trkpt lat="45.24912373297444" lon="11.688796062996545"><ele>26.0</ele><time>2026-04-04T14:01:50.911Z</time></trkpt><trkpt lat="45.24930144919564" lon="11.688678908945256"><ele>27.0</ele><time>2026-04-04T14:01:51.911Z</time></trkpt><trkpt lat="45.24948006819117" lon="11.688560364961436"><ele>25.0</ele><time>2026-04-04T14:01:52.911Z</time></trkpt><trkpt lat="45.24966030448767" lon="11.68845696681605"><ele>23.0</ele><time>2026-04-04T14:01:53.911Z</time></trkpt><trkpt lat="45.24984346220419" lon="11.688377651486244"><ele>21.0</ele><time>2026-04-04T14:01:54.911Z</time></trkpt><trkpt lat="45.25004621477091" lon="11.688339592465358"><ele>21.0</ele><time>2026-04-04T14:01:55.911Z</time></trkpt><trkpt lat="45.25024119820211" lon="11.688296708165536"><ele>21.0</ele><time>2026-04-04T14:01:56.911Z</time></trkpt><trkpt lat="45.25043829190611" lon="11.688240433779521"><ele>21.0</ele><time>2026-04-04T14:01:57.911Z</time></trkpt><trkpt lat="45.25063672603421" lon="11.688163909741192"><ele>21.333333333333332</ele><time>2026-04-04T14:01:58.911Z</time></trkpt><trkpt lat="45.25084097792535" lon="11.688058702714326"><ele>21.666666666666664</ele><time>2026-04-04T14:01:59.911Z</time></trkpt><trkpt lat="45.25104755398024" lon="11.687933493792578"><ele>22.0</ele><time>2026-04-04T14:02:00.911Z</time></trkpt><trkpt lat="45.25124963182301" lon="11.687810198878037"><ele>23.5</ele><time>2026-04-04T14:02:01.911Z</time></trkpt><trkpt lat="45.25146395186669" lon="11.687707148617635"><ele>25.0</ele><time>2026-04-04T14:02:02.911Z</time></trkpt><trkpt lat="45.25167518728842" lon="11.687573857117146"><ele>25.0</ele><time>2026-04-04T14:02:03.911Z</time></trkpt><trkpt lat="45.251898487583425" lon="11.687480360563407"><ele>25.0</ele><time>2026-04-04T14:02:04.911Z</time></trkpt><trkpt lat="45.252115274137644" lon="11.687402730784934"><ele>27.333333333333336</ele><time>2026-04-04T14:02:05.911Z</time></trkpt><trkpt lat="45.252330037923635" lon="11.687333807484228"><ele>29.666666666666664</ele><time>2026-04-04T14:02:06.911Z</time></trkpt><trkpt lat="45.252547020667464" lon="11.687255122312537"><ele>32.0</ele><time>2026-04-04T14:02:07.911Z</time></trkpt><trkpt lat="45.25276372369565" lon="11.687174196158544"><ele>32.0</ele><time>2026-04-04T14:02:08.911Z</time></trkpt><trkpt lat="45.2529827453034" lon="11.687095497566062"><ele>32.0</ele><time>2026-04-04T14:02:09.911Z</time></trkpt><trkpt lat="45.253200430628276" lon="11.687016506996201"><ele>30.333333333333332</ele><time>2026-04-04T14:02:10.911Z</time></trkpt><trkpt lat="45.253412129543015" lon="11.686939820708131"><ele>28.666666666666664</ele><time>2026-04-04T14:02:11.911Z</time></trkpt><trkpt lat="45.253622377923605" lon="11.686864944382691"><ele>27.0</ele><time>2026-04-04T14:02:12.911Z</time></trkpt><trkpt lat="45.25382908084185" lon="11.686778717916884"><ele>29.333333333333336</ele><time>2026-04-04T14:02:13.911Z</time></trkpt><trkpt lat="45.25403389589347" lon="11.686696395540592"><ele>31.666666666666668</ele><time>2026-04-04T14:02:14.911Z</time></trkpt><trkpt lat="45.25423340456974" lon="11.686602395119412"><ele>34.0</ele><time>2026-04-04T14:02:15.911Z</time></trkpt><trkpt lat="45.254428933845276" lon="11.686513207884204"><ele>34.0</ele><time>2026-04-04T14:02:16.911Z</time></trkpt><trkpt lat="45.25461117980469" lon="11.68642124756251"><ele>34.0</ele><time>2026-04-04T14:02:17.91Z</time></trkpt><trkpt lat="45.25478044090716" lon="11.686347057322632"><ele>34.0</ele><time>2026-04-04T14:02:18.91Z</time></trkpt><trkpt lat="45.25494444007051" lon="11.68629915119794"><ele>35.0</ele><time>2026-04-04T14:02:19.91Z</time></trkpt><trkpt lat="45.25511691572804" lon="11.686253461135022"><ele>36.0</ele><time>2026-04-04T14:02:20.91Z</time></trkpt><trkpt lat="45.25528702095609" lon="11.686217136603979"><ele>37.0</ele><time>2026-04-04T14:02:21.91Z</time></trkpt><trkpt lat="45.25545307324638" lon="11.686166883422755"><ele>37.0</ele><time>2026-04-04T14:02:22.91Z</time></trkpt><trkpt lat="45.25560910203447" lon="11.68607390824625"><ele>37.0</ele><time>2026-04-04T14:02:23.91Z</time></trkpt><trkpt lat="45.2557567659758" lon="11.685945614783629"><ele>37.0</ele><time>2026-04-04T14:02:24.91Z</time></trkpt><trkpt lat="45.25588870482789" lon="11.685781746413136"><ele>37.0</ele><time>2026-04-04T14:02:25.91Z</time></trkpt><trkpt lat="45.25601568364072" lon="11.685611259522895"><ele>37.0</ele><time>2026-04-04T14:02:26.91Z</time></trkpt><trkpt lat="45.25614485671856" lon="11.685448714956214"><ele>37.0</ele><time>2026-04-04T14:02:27.91Z</time></trkpt><trkpt lat="45.25628251653538" lon="11.685304108552154"><ele>38.0</ele><time>2026-04-04T14:02:28.91Z</time></trkpt><trkpt lat="45.25642755031537" lon="11.685188762547018"><ele>39.0</ele><time>2026-04-04T14:02:29.91Z</time></trkpt><trkpt lat="45.25658524681076" lon="11.68509450085806"><ele>40.0</ele><time>2026-04-04T14:02:30.91Z</time></trkpt><trkpt lat="45.25676952943857" lon="11.68502975594811"><ele>40.66666666666667</ele><time>2026-04-04T14:02:31.91Z</time></trkpt><trkpt lat="45.25695775810295" lon="11.684963662328657"><ele>41.333333333333336</ele><time>2026-04-04T14:02:32.91Z</time></trkpt><trkpt lat="45.257144553806754" lon="11.684896181550345"><ele>42.0</ele><time>2026-04-04T14:02:33.91Z</time></trkpt><trkpt lat="45.257334825278726" lon="11.684854849986133"><ele>43.666666666666664</ele><time>2026-04-04T14:02:34.91Z</time></trkpt><trkpt lat="45.257510045795684" lon="11.684822459098433"><ele>45.33333333333333</ele><time>2026-04-04T14:02:35.91Z</time></trkpt><trkpt lat="45.25767166635394" lon="11.684832738678566"><ele>47.0</ele><time>2026-04-04T14:02:36.91Z</time></trkpt><trkpt lat="45.25782173261899" lon="11.684857596321397"><ele>47.0</ele><time>2026-04-04T14:02:37.91Z</time></trkpt><trkpt lat="45.2579521245364" lon="11.68489143433605"><ele>47.0</ele><time>2026-04-04T14:02:38.91Z</time></trkpt><trkpt lat="45.25806723207775" lon="11.68490525798668"><ele>47.0</ele><time>2026-04-04T14:02:39.91Z</time></trkpt><trkpt lat="45.25817655183625" lon="11.68492053682246"><ele>47.0</ele><time>2026-04-04T14:02:40.91Z</time></trkpt><trkpt lat="45.25828718522512" lon="11.684929419219804"><ele>48.75</ele><time>2026-04-04T14:02:41.91Z</time></trkpt><trkpt lat="45.258402208588855" lon="11.68495265694748"><ele>50.5</ele><time>2026-04-04T14:02:42.91Z</time></trkpt><trkpt lat="45.258527237350044" lon="11.684975278049812"><ele>52.25</ele><time>2026-04-04T14:02:43.91Z</time></trkpt><trkpt lat="45.258645521009946" lon="11.685024707538288"><ele>54.0</ele><time>2026-04-04T14:02:44.91Z</time></trkpt><trkpt lat="45.25876655986797" lon="11.685045904364394"><ele>54.0</ele><time>2026-04-04T14:02:45.91Z</time></trkpt><trkpt lat="45.25888604270664" lon="11.68506814468873"><ele>54.0</ele><time>2026-04-04T14:02:46.91Z</time></trkpt><trkpt lat="45.2589948040455" lon="11.68509502643608"><ele>54.0</ele><time>2026-04-04T14:02:47.91Z</time></trkpt><trkpt lat="45.25910551276247" lon="11.685116475254011"><ele>54.0</ele><time>2026-04-04T14:02:48.91Z</time></trkpt><trkpt lat="45.259216574646715" lon="11.685139998612218"><ele>55.400000000000006</ele><time>2026-04-04T14:02:49.909Z</time></trkpt><trkpt lat="45.259316005158674" lon="11.685165131602773"><ele>56.800000000000004</ele><time>2026-04-04T14:02:50.909Z</time></trkpt><trkpt lat="45.25941060672845" lon="11.685197314399387"><ele>58.199999999999996</ele><time>2026-04-04T14:02:51.909Z</time></trkpt><trkpt lat="45.259507751359635" lon="11.685240663619677"><ele>59.599999999999994</ele><time>2026-04-04T14:02:52.909Z</time></trkpt><trkpt lat="45.25961950336303" lon="11.685262720445635"><ele>61.0</ele><time>2026-04-04T14:02:53.909Z</time></trkpt><trkpt lat="45.25970921465976" lon="11.685304567009995"><ele>61.5</ele><time>2026-04-04T14:02:54.909Z</time></trkpt><trkpt lat="45.259815756041135" lon="11.685331901914287"><ele>62.0</ele><time>2026-04-04T14:02:55.909Z</time></trkpt><trkpt lat="45.259912685190436" lon="11.685368894201224"><ele>62.5</ele><time>2026-04-04T14:02:56.909Z</time></trkpt><trkpt lat="45.260022038274556" lon="11.685411845558196"><ele>63.0</ele><time>2026-04-04T14:02:57.909Z</time></trkpt><trkpt lat="45.26014942001408" lon="11.685443540266176"><ele>63.0</ele><time>2026-04-04T14:02:58.909Z</time></trkpt><trkpt lat="45.26027946351705" lon="11.685484445778766"><ele>63.0</ele><time>2026-04-04T14:02:59.909Z</time></trkpt><trkpt lat="45.260392098187125" lon="11.685512176711855"><ele>63.0</ele><time>2026-04-04T14:03:00.909Z</time></trkpt><trkpt lat="45.2605018458436" lon="11.685542505123081"><ele>63.0</ele><time>2026-04-04T14:03:01.909Z</time></trkpt><trkpt lat="45.260603316154494" lon="11.685573134186441"><ele>64.4</ele><time>2026-04-04T14:03:02.909Z</time></trkpt><trkpt lat="45.260707818023754" lon="11.685596814934941"><ele>65.8</ele><time>2026-04-04T14:03:03.909Z</time></trkpt><trkpt lat="45.26080801991601" lon="11.685607247535419"><ele>67.2</ele><time>2026-04-04T14:03:04.909Z</time></trkpt><trkpt lat="45.260896986273536" lon="11.68560871489111"><ele>68.6</ele><time>2026-04-04T14:03:05.909Z</time></trkpt><trkpt lat="45.260988384439656" lon="11.685610255546553"><ele>70.0</ele><time>2026-04-04T14:03:06.909Z</time></trkpt><trkpt lat="45.26107495375843" lon="11.685593535651327"><ele>70.0</ele><time>2026-04-04T14:03:07.909Z</time></trkpt><trkpt lat="45.26116395687379" lon="11.685569415710253"><ele>70.0</ele><time>2026-04-04T14:03:08.909Z</time></trkpt><trkpt lat="45.2612637663185" lon="11.685556024318952"><ele>70.0</ele><time>2026-04-04T14:03:09.909Z</time></trkpt><trkpt lat="45.26135958124604" lon="11.685556165648721"><ele>70.0</ele><time>2026-04-04T14:03:10.909Z</time></trkpt><trkpt lat="45.26145357516709" lon="11.685578080873436"><ele>70.0</ele><time>2026-04-04T14:03:11.909Z</time></trkpt><trkpt lat="45.26153255750104" lon="11.68562044268927"><ele>70.0</ele><time>2026-04-04T14:03:12.909Z</time></trkpt><trkpt lat="45.26161464194233" lon="11.685702218309864"><ele>70.0</ele><time>2026-04-04T14:03:13.909Z</time></trkpt><trkpt lat="45.261685898540996" lon="11.685813949022354"><ele>70.0</ele><time>2026-04-04T14:03:14.909Z</time></trkpt><trkpt lat="45.2617582607228" lon="11.685963530660564"><ele>70.0</ele><time>2026-04-04T14:03:15.909Z</time></trkpt><trkpt lat="45.261825845890044" lon="11.686116382978575"><ele>70.0</ele><time>2026-04-04T14:03:16.909Z</time></trkpt><trkpt lat="45.26188854747343" lon="11.686262114335147"><ele>70.0</ele><time>2026-04-04T14:03:17.909Z</time></trkpt><trkpt lat="45.26193854084739" lon="11.686398428937528"><ele>70.0</ele><time>2026-04-04T14:03:18.909Z</time></trkpt><trkpt lat="45.26198470304636" lon="11.686530785578782"><ele>70.0</ele><time>2026-04-04T14:03:19.909Z</time></trkpt><trkpt lat="45.26201940908162" lon="11.686668793915343"><ele>70.0</ele><time>2026-04-04T14:03:20.909Z</time></trkpt><trkpt lat="45.26205668185643" lon="11.686812374427479"><ele>72.33333333333333</ele><time>2026-04-04T14:03:21.908Z</time></trkpt><trkpt lat="45.26209264562966" lon="11.68696759448983"><ele>74.66666666666667</ele><time>2026-04-04T14:03:22.908Z</time></trkpt><trkpt lat="45.26211400609733" lon="11.687127259302738"><ele>77.0</ele><time>2026-04-04T14:03:23.908Z</time></trkpt><trkpt lat="45.262155610629584" lon="11.687435665681898"><ele>77.0</ele><time>2026-04-04T14:03:25.908Z</time></trkpt><trkpt lat="45.262193127320536" lon="11.687712537355443"><ele>77.0</ele><time>2026-04-04T14:03:27.908Z</time></trkpt><trkpt lat="45.262215997276634" lon="11.68782845363776"><ele>77.0</ele><time>2026-04-04T14:03:28.908Z</time></trkpt><trkpt lat="45.26221979665464" lon="11.687942937194617"><ele>77.0</ele><time>2026-04-04T14:03:29.908Z</time></trkpt><trkpt lat="45.26222490389634" lon="11.688033003512661"><ele>77.0</ele><time>2026-04-04T14:03:30.908Z</time></trkpt><trkpt lat="45.26223463453861" lon="11.688184746433603"><ele>77.2</ele><time>2026-04-04T14:03:32.908Z</time></trkpt><trkpt lat="45.26225501458331" lon="11.68833811156361"><ele>77.4</ele><time>2026-04-04T14:03:34.908Z</time></trkpt><trkpt lat="45.26236808241586" lon="11.688333136732798"><ele>77.6</ele><time>2026-04-04T14:03:36.908Z</time></trkpt><trkpt lat="45.26238872521757" lon="11.688234017121893"><ele>77.8</ele><time>2026-04-04T14:03:37.908Z</time></trkpt><trkpt lat="45.262352994285884" lon="11.68807133978149"><ele>78.0</ele><time>2026-04-04T14:03:39.908Z</time></trkpt><trkpt lat="45.26232928674327" lon="11.687922562114421"><ele>71.2</ele><time>2026-04-04T14:03:40.908Z</time></trkpt><trkpt lat="45.26231595941697" lon="11.687764855934043"><ele>64.4</ele><time>2026-04-04T14:03:41.908Z</time></trkpt><trkpt lat="45.26230776829141" lon="11.687599983030262"><ele>57.6</ele><time>2026-04-04T14:03:42.908Z</time></trkpt><trkpt lat="45.262319587352785" lon="11.687436526039297"><ele>50.800000000000004</ele><time>2026-04-04T14:03:43.908Z</time></trkpt><trkpt lat="45.262302237042896" lon="11.687291666569214"><ele>44.0</ele><time>2026-04-04T14:03:44.908Z</time></trkpt><trkpt lat="45.26229838645584" lon="11.687150040734965"><ele>43.666666666666664</ele><time>2026-04-04T14:03:45.908Z</time></trkpt><trkpt lat="45.26229320401878" lon="11.687011705616758"><ele>43.33333333333333</ele><time>2026-04-04T14:03:46.908Z</time></trkpt><trkpt lat="45.2622767100474" lon="11.686878495737979"><ele>43.0</ele><time>2026-04-04T14:03:47.908Z</time></trkpt><trkpt lat="45.26225577149972" lon="11.686759089211485"><ele>42.666666666666664</ele><time>2026-04-04T14:03:48.908Z</time></trkpt><trkpt lat="45.26223023037236" lon="11.68665188788111"><ele>42.333333333333336</ele><time>2026-04-04T14:03:49.909Z</time></trkpt><trkpt lat="45.2622006034272" lon="11.686568118521025"><ele>42.0</ele><time>2026-04-04T14:03:50.909Z</time></trkpt><trkpt lat="45.262162997849636" lon="11.686450806948029"><ele>40.666666666666664</ele><time>2026-04-04T14:03:52.909Z</time></trkpt><trkpt lat="45.26214079372304" lon="11.68635263615384"><ele>39.333333333333336</ele><time>2026-04-04T14:03:54.909Z</time></trkpt><trkpt lat="45.26218395371139" lon="11.686247674196252"><ele>38.0</ele><time>2026-04-04T14:03:56.909Z</time></trkpt><trkpt lat="45.262245481412705" lon="11.686314983172487"><ele>36.66666666666667</ele><time>2026-04-04T14:03:57.909Z</time></trkpt><trkpt lat="45.262263658025084" lon="11.686420781380912"><ele>35.333333333333336</ele><time>2026-04-04T14:03:58.908Z</time></trkpt><trkpt lat="45.26230547312465" lon="11.686526224081115"><ele>34.0</ele><time>2026-04-04T14:03:59.909Z</time></trkpt><trkpt lat="45.26236243565976" lon="11.686644919312513"><ele>34.0</ele><time>2026-04-04T14:04:00.909Z</time></trkpt><trkpt lat="45.26238580730683" lon="11.686782928826263"><ele>34.0</ele><time>2026-04-04T14:04:01.909Z</time></trkpt><trkpt lat="45.26241731992985" lon="11.686927878562903"><ele>34.0</ele><time>2026-04-04T14:04:02.909Z</time></trkpt><trkpt lat="45.26245033359941" lon="11.687082416473515"><ele>34.0</ele><time>2026-04-04T14:04:03.909Z</time></trkpt><trkpt lat="45.262483879974276" lon="11.687232451941336"><ele>34.0</ele><time>2026-04-04T14:04:04.909Z</time></trkpt><trkpt lat="45.262512899350426" lon="11.68736505705681"><ele>35.6</ele><time>2026-04-04T14:04:05.909Z</time></trkpt><trkpt lat="45.26254483210299" lon="11.687498359424898"><ele>37.2</ele><time>2026-04-04T14:04:06.908Z</time></trkpt><trkpt lat="45.26257644224476" lon="11.687633888288119"><ele>38.800000000000004</ele><time>2026-04-04T14:04:07.908Z</time></trkpt><trkpt lat="45.26261351395032" lon="11.687781985237386"><ele>40.4</ele><time>2026-04-04T14:04:08.908Z</time></trkpt><trkpt lat="45.26266030716563" lon="11.687942636598198"><ele>42.0</ele><time>2026-04-04T14:04:09.908Z</time></trkpt><trkpt lat="45.26267951447363" lon="11.68810518396591"><ele>41.833333333333336</ele><time>2026-04-04T14:04:10.908Z</time></trkpt><trkpt lat="45.26271874796272" lon="11.68824031924188"><ele>41.666666666666664</ele><time>2026-04-04T14:04:11.908Z</time></trkpt><trkpt lat="45.26275752795184" lon="11.68836178961297"><ele>41.5</ele><time>2026-04-04T14:04:12.908Z</time></trkpt><trkpt lat="45.26279858791256" lon="11.688477986927127"><ele>41.33333333333333</ele><time>2026-04-04T14:04:13.908Z</time></trkpt><trkpt lat="45.262833973134356" lon="11.688580177943933"><ele>41.166666666666664</ele><time>2026-04-04T14:04:14.908Z</time></trkpt><trkpt lat="45.262873890753916" lon="11.688673752561714"><ele>41.0</ele><time>2026-04-04T14:04:15.908Z</time></trkpt><trkpt lat="45.26291209638416" lon="11.688764301882834"><ele>41.0</ele><time>2026-04-04T14:04:16.908Z</time></trkpt><trkpt lat="45.26294779574452" lon="11.68884407196314"><ele>41.0</ele><time>2026-04-04T14:04:17.908Z</time></trkpt><trkpt lat="45.262990287714636" lon="11.68897479041297"><ele>41.0</ele><time>2026-04-04T14:04:19.908Z</time></trkpt><trkpt lat="45.26298468109831" lon="11.689068353689153"><ele>41.0</ele><time>2026-04-04T14:04:21.908Z</time></trkpt><trkpt lat="45.263071921134696" lon="11.689202288523582"><ele>41.0</ele><time>2026-04-04T14:04:23.908Z</time></trkpt><trkpt lat="45.26314916129973" lon="11.689256523133105"><ele>41.0</ele><time>2026-04-04T14:04:24.908Z</time></trkpt><trkpt lat="45.26323414117159" lon="11.689306312659001"><ele>39.33333333333333</ele><time>2026-04-04T14:04:25.908Z</time></trkpt><trkpt lat="45.26331266165068" lon="11.68935330137298"><ele>37.666666666666664</ele><time>2026-04-04T14:04:26.908Z</time></trkpt><trkpt lat="45.26338442091764" lon="11.689386916205018"><ele>36.0</ele><time>2026-04-04T14:04:27.908Z</time></trkpt><trkpt lat="45.26350337497202" lon="11.689430035837287"><ele>34.333333333333336</ele><time>2026-04-04T14:04:29.908Z</time></trkpt><trkpt lat="45.26356600385971" lon="11.689419875940983"><ele>32.66666666666667</ele><time>2026-04-04T14:04:30.908Z</time></trkpt><trkpt lat="45.26363203767873" lon="11.689375255401936"><ele>31.0</ele><time>2026-04-04T14:04:31.908Z</time></trkpt><trkpt lat="45.26368060349228" lon="11.68929869903996"><ele>30.000000000000004</ele><time>2026-04-04T14:04:32.908Z</time></trkpt><trkpt lat="45.263721822898525" lon="11.689173538986276"><ele>29.0</ele><time>2026-04-04T14:04:33.908Z</time></trkpt><trkpt lat="45.263750521378235" lon="11.689041281522387"><ele>28.0</ele><time>2026-04-04T14:04:34.908Z</time></trkpt><trkpt lat="45.263781922420996" lon="11.688933777030606"><ele>27.0</ele><time>2026-04-04T14:04:35.908Z</time></trkpt><trkpt lat="45.26380940374152" lon="11.688840438543846"><ele>26.000000000000004</ele><time>2026-04-04T14:04:36.908Z</time></trkpt><trkpt lat="45.263864983240175" lon="11.688772018931465"><ele>25.0</ele><time>2026-04-04T14:04:37.908Z</time></trkpt><trkpt lat="45.26389342398745" lon="11.688683838989132"><ele>25.000000000000004</ele><time>2026-04-04T14:04:38.907Z</time></trkpt><trkpt lat="45.263926344372166" lon="11.688578712740934"><ele>25.0</ele><time>2026-04-04T14:04:39.907Z</time></trkpt><trkpt lat="45.26396223481348" lon="11.688482053693573"><ele>25.0</ele><time>2026-04-04T14:04:40.907Z</time></trkpt><trkpt lat="45.26399877500104" lon="11.68840229539586"><ele>25.0</ele><time>2026-04-04T14:04:41.907Z</time></trkpt><trkpt lat="45.26405102886174" lon="11.688321696499143"><ele>25.0</ele><time>2026-04-04T14:04:42.907Z</time></trkpt><trkpt lat="45.264118371008955" lon="11.688279447932974"><ele>25.000000000000004</ele><time>2026-04-04T14:04:43.907Z</time></trkpt><trkpt lat="45.26418781033425" lon="11.688276952393755"><ele>25.0</ele><time>2026-04-04T14:04:44.907Z</time></trkpt><trkpt lat="45.264257921224655" lon="11.688297398924478"><ele>25.000000000000004</ele><time>2026-04-04T14:04:45.907Z</time></trkpt><trkpt lat="45.2643213452585" lon="11.688326718877681"><ele>25.0</ele><time>2026-04-04T14:04:46.907Z</time></trkpt><trkpt lat="45.264398690675264" lon="11.688351855895096"><ele>25.0</ele><time>2026-04-04T14:04:47.907Z</time></trkpt><trkpt lat="45.264482157010356" lon="11.688374859824554"><ele>25.0</ele><time>2026-04-04T14:04:48.907Z</time></trkpt><trkpt lat="45.264571022407445" lon="11.688394039250994"><ele>25.000000000000004</ele><time>2026-04-04T14:04:49.907Z</time></trkpt><trkpt lat="45.26466773614594" lon="11.688405822016147"><ele>25.0</ele><time>2026-04-04T14:04:50.907Z</time></trkpt><trkpt lat="45.26475936186115" lon="11.68840103998949"><ele>24.6</ele><time>2026-04-04T14:04:51.907Z</time></trkpt><trkpt lat="45.26484291639188" lon="11.688384806522407"><ele>24.2</ele><time>2026-04-04T14:04:52.907Z</time></trkpt><trkpt lat="45.26492750892244" lon="11.688365528163377"><ele>23.799999999999997</ele><time>2026-04-04T14:04:53.907Z</time></trkpt><trkpt lat="45.26501466102819" lon="11.688347960906142"><ele>23.4</ele><time>2026-04-04T14:04:54.907Z</time></trkpt><trkpt lat="45.26510363846782" lon="11.688329542498872"><ele>23.0</ele><time>2026-04-04T14:04:55.907Z</time></trkpt><trkpt lat="45.265211713039385" lon="11.688379902465917"><ele>23.0</ele><time>2026-04-04T14:04:56.907Z</time></trkpt><trkpt lat="45.2653078272621" lon="11.688415165050216"><ele>23.0</ele><time>2026-04-04T14:04:57.907Z</time></trkpt><trkpt lat="45.26538988378898" lon="11.688447620375092"><ele>23.0</ele><time>2026-04-04T14:04:58.907Z</time></trkpt><trkpt lat="45.26546367212579" lon="11.68846446748493"><ele>23.0</ele><time>2026-04-04T14:04:59.907Z</time></trkpt><trkpt lat="45.26552877205571" lon="11.688472643284353"><ele>23.0</ele><time>2026-04-04T14:05:00.907Z</time></trkpt><trkpt lat="45.26562587336029" lon="11.688381511683504"><ele>23.0</ele><time>2026-04-04T14:05:02.907Z</time></trkpt><trkpt lat="45.26567721567087" lon="11.688277973946704"><ele>24.799999999999997</ele><time>2026-04-04T14:05:03.907Z</time></trkpt><trkpt lat="45.26573282170058" lon="11.688169264076338"><ele>26.6</ele><time>2026-04-04T14:05:04.907Z</time></trkpt><trkpt lat="45.265786641741975" lon="11.688055897146477"><ele>28.400000000000002</ele><time>2026-04-04T14:05:05.907Z</time></trkpt><trkpt lat="45.26582312502167" lon="11.68793497956587"><ele>30.200000000000003</ele><time>2026-04-04T14:05:06.907Z</time></trkpt><trkpt lat="45.265849276963216" lon="11.687806893836738"><ele>32.0</ele><time>2026-04-04T14:05:07.907Z</time></trkpt><trkpt lat="45.26587011746601" lon="11.68765442630949"><ele>32.6</ele><time>2026-04-04T14:05:08.907Z</time></trkpt><trkpt lat="45.26587696767532" lon="11.68748596629225"><ele>33.2</ele><time>2026-04-04T14:05:09.907Z</time></trkpt><trkpt lat="45.265905983348986" lon="11.687336659447851"><ele>33.8</ele><time>2026-04-04T14:05:10.906Z</time></trkpt><trkpt lat="45.26593110406274" lon="11.687203053602941"><ele>34.4</ele><time>2026-04-04T14:05:11.906Z</time></trkpt><trkpt lat="45.26594913707057" lon="11.687085953366804"><ele>35.0</ele><time>2026-04-04T14:05:12.906Z</time></trkpt><trkpt lat="45.26596168966659" lon="11.68696952487443"><ele>35.666666666666664</ele><time>2026-04-04T14:05:13.906Z</time></trkpt><trkpt lat="45.26596892738994" lon="11.686858177461762"><ele>36.33333333333333</ele><time>2026-04-04T14:05:14.906Z</time></trkpt><trkpt lat="45.26597870359814" lon="11.686759703005322"><ele>37.0</ele><time>2026-04-04T14:05:15.906Z</time></trkpt><trkpt lat="45.26599362100966" lon="11.686662992236247"><ele>37.666666666666664</ele><time>2026-04-04T14:05:16.906Z</time></trkpt><trkpt lat="45.266015322308625" lon="11.68657546921529"><ele>38.333333333333336</ele><time>2026-04-04T14:05:17.906Z</time></trkpt><trkpt lat="45.26609064028655" lon="11.6864491305499"><ele>39.0</ele><time>2026-04-04T14:05:19.906Z</time></trkpt><trkpt lat="45.2662051366052" lon="11.68642087151998"><ele>39.0</ele><time>2026-04-04T14:05:21.906Z</time></trkpt><trkpt lat="45.26626963158512" lon="11.686434792037204"><ele>39.0</ele><time>2026-04-04T14:05:22.906Z</time></trkpt><trkpt lat="45.2663352628613" lon="11.686465400623685"><ele>39.0</ele><time>2026-04-04T14:05:23.906Z</time></trkpt><trkpt lat="45.26643654954106" lon="11.686585997341385"><ele>39.0</ele><time>2026-04-04T14:05:25.906Z</time></trkpt><trkpt lat="45.26648358007772" lon="11.686666713843458"><ele>39.0</ele><time>2026-04-04T14:05:26.906Z</time></trkpt><trkpt lat="45.26654042834492" lon="11.68675754092319"><ele>39.0</ele><time>2026-04-04T14:05:27.906Z</time></trkpt><trkpt lat="45.266588349615134" lon="11.68684845052886"><ele>42.0</ele><time>2026-04-04T14:05:28.906Z</time></trkpt><trkpt lat="45.26664941238598" lon="11.686936918512078"><ele>45.0</ele><time>2026-04-04T14:05:29.906Z</time></trkpt><trkpt lat="45.2667339215406" lon="11.6870220193794"><ele>48.00000000000001</ele><time>2026-04-04T14:05:30.906Z</time></trkpt><trkpt lat="45.26684302219755" lon="11.687096152357611"><ele>51.0</ele><time>2026-04-04T14:05:31.906Z</time></trkpt><trkpt lat="45.26694818951997" lon="11.687154900565238"><ele>54.0</ele><time>2026-04-04T14:05:32.906Z</time></trkpt><trkpt lat="45.267056420573766" lon="11.687211094054183"><ele>54.0</ele><time>2026-04-04T14:05:33.906Z</time></trkpt><trkpt lat="45.2671670907855" lon="11.687260992872174"><ele>54.00000000000001</ele><time>2026-04-04T14:05:34.906Z</time></trkpt><trkpt lat="45.26727426128666" lon="11.68729806355718"><ele>54.00000000000001</ele><time>2026-04-04T14:05:35.906Z</time></trkpt><trkpt lat="45.26737831574715" lon="11.687309484401805"><ele>54.0</ele><time>2026-04-04T14:05:36.906Z</time></trkpt><trkpt lat="45.267492707697826" lon="11.687290093971674"><ele>54.0</ele><time>2026-04-04T14:05:37.906Z</time></trkpt><trkpt lat="45.267609043920324" lon="11.687235311025447"><ele>56.75</ele><time>2026-04-04T14:05:38.906Z</time></trkpt><trkpt lat="45.26772106519574" lon="11.687141010100628"><ele>59.5</ele><time>2026-04-04T14:05:39.906Z</time></trkpt><trkpt lat="45.26783794875057" lon="11.687043090722018"><ele>62.25</ele><time>2026-04-04T14:05:40.906Z</time></trkpt><trkpt lat="45.26794439439679" lon="11.68694173841012"><ele>65.0</ele><time>2026-04-04T14:05:41.906Z</time></trkpt><trkpt lat="45.26804207979489" lon="11.686842547506583"><ele>67.5</ele><time>2026-04-04T14:05:42.906Z</time></trkpt><trkpt lat="45.26813997592242" lon="11.686754141279602"><ele>70.0</ele><time>2026-04-04T14:05:43.905Z</time></trkpt><trkpt lat="45.26823259438376" lon="11.686655561128545"><ele>72.5</ele><time>2026-04-04T14:05:44.905Z</time></trkpt><trkpt lat="45.26833093410869" lon="11.686549177230372"><ele>75.0</ele><time>2026-04-04T14:05:45.905Z</time></trkpt><trkpt lat="45.268433399800976" lon="11.686426612432015"><ele>75.0</ele><time>2026-04-04T14:05:46.905Z</time></trkpt><trkpt lat="45.26852890005949" lon="11.686293948720149"><ele>75.0</ele><time>2026-04-04T14:05:47.905Z</time></trkpt><trkpt lat="45.26862279503081" lon="11.686194718830647"><ele>75.0</ele><time>2026-04-04T14:05:48.905Z</time></trkpt><trkpt lat="45.26870887918776" lon="11.686087465330361"><ele>75.0</ele><time>2026-04-04T14:05:49.905Z</time></trkpt><trkpt lat="45.26880178025562" lon="11.685951295662752"><ele>74.75</ele><time>2026-04-04T14:05:50.905Z</time></trkpt><trkpt lat="45.26888324758495" lon="11.685789279101176"><ele>74.5</ele><time>2026-04-04T14:05:51.905Z</time></trkpt><trkpt lat="45.26896001387235" lon="11.685623602871273"><ele>74.25</ele><time>2026-04-04T14:05:52.905Z</time></trkpt><trkpt lat="45.26903623854136" lon="11.68545846849895"><ele>74.0</ele><time>2026-04-04T14:05:53.905Z</time></trkpt><trkpt lat="45.269086674484825" lon="11.685309792260671"><ele>77.5</ele><time>2026-04-04T14:05:54.905Z</time></trkpt><trkpt lat="45.26916170024477" lon="11.685182537317148"><ele>81.0</ele><time>2026-04-04T14:05:55.906Z</time></trkpt><trkpt lat="45.26923583078451" lon="11.685043742717832"><ele>84.5</ele><time>2026-04-04T14:05:56.906Z</time></trkpt><trkpt lat="45.269316907293415" lon="11.684910033167125"><ele>88.0</ele><time>2026-04-04T14:05:57.906Z</time></trkpt><trkpt lat="45.26940640799561" lon="11.684783820578534"><ele>88.0</ele><time>2026-04-04T14:05:58.906Z</time></trkpt><trkpt lat="45.269503245761946" lon="11.684669159930818"><ele>88.0</ele><time>2026-04-04T14:05:59.907Z</time></trkpt><trkpt lat="45.26960555128555" lon="11.684554446273191"><ele>88.0</ele><time>2026-04-04T14:06:00.907Z</time></trkpt><trkpt lat="45.26970443831866" lon="11.684446614778578"><ele>88.0</ele><time>2026-04-04T14:06:01.907Z</time></trkpt><trkpt lat="45.26979753902934" lon="11.68436179529981"><ele>90.25</ele><time>2026-04-04T14:06:02.906Z</time></trkpt><trkpt lat="45.26989696405671" lon="11.68427775290281"><ele>92.5</ele><time>2026-04-04T14:06:03.906Z</time></trkpt><trkpt lat="45.27000118120758" lon="11.68421046409111"><ele>94.75</ele><time>2026-04-04T14:06:04.906Z</time></trkpt><trkpt lat="45.270121195075305" lon="11.684165294092194"><ele>97.0</ele><time>2026-04-04T14:06:05.906Z</time></trkpt><trkpt lat="45.270250483912406" lon="11.684127203443351"><ele>97.0</ele><time>2026-04-04T14:06:06.906Z</time></trkpt><trkpt lat="45.27038639098079" lon="11.68409558046698"><ele>97.0</ele><time>2026-04-04T14:06:07.906Z</time></trkpt><trkpt lat="45.270508161000585" lon="11.684067080065155"><ele>97.0</ele><time>2026-04-04T14:06:08.906Z</time></trkpt><trkpt lat="45.270625763109976" lon="11.68405405758044"><ele>97.0</ele><time>2026-04-04T14:06:09.906Z</time></trkpt><trkpt lat="45.270735596159305" lon="11.684066044611873"><ele>98.6</ele><time>2026-04-04T14:06:10.906Z</time></trkpt><trkpt lat="45.270836284870086" lon="11.684084597103983"><ele>100.19999999999999</ele><time>2026-04-04T14:06:11.906Z</time></trkpt><trkpt lat="45.270931734062955" lon="11.684112246559529"><ele>101.8</ele><time>2026-04-04T14:06:12.906Z</time></trkpt><trkpt lat="45.27103933710609" lon="11.684146378237834"><ele>103.4</ele><time>2026-04-04T14:06:13.906Z</time></trkpt><trkpt lat="45.271154616248026" lon="11.68417087735773"><ele>105.0</ele><time>2026-04-04T14:06:14.906Z</time></trkpt><trkpt lat="45.271265261256694" lon="11.68419868883227"><ele>105.0</ele><time>2026-04-04T14:06:15.906Z</time></trkpt><trkpt lat="45.27137960907193" lon="11.684203054162595"><ele>105.0</ele><time>2026-04-04T14:06:16.906Z</time></trkpt><trkpt lat="45.27149219367136" lon="11.684197955578298"><ele>105.0</ele><time>2026-04-04T14:06:17.906Z</time></trkpt><trkpt lat="45.27158842587972" lon="11.68419475289953"><ele>105.0</ele><time>2026-04-04T14:06:18.906Z</time></trkpt><trkpt lat="45.271679431683246" lon="11.684175209927625"><ele>105.0</ele><time>2026-04-04T14:06:19.906Z</time></trkpt><trkpt lat="45.27176834186753" lon="11.684146890563035"><ele>106.6</ele><time>2026-04-04T14:06:20.906Z</time></trkpt><trkpt lat="45.27186387755413" lon="11.684143764792793"><ele>108.2</ele><time>2026-04-04T14:06:21.906Z</time></trkpt><trkpt lat="45.27195637478544" lon="11.684124093932624"><ele>109.80000000000001</ele><time>2026-04-04T14:06:22.906Z</time></trkpt><trkpt lat="45.272045168499844" lon="11.684081804945421"><ele>111.4</ele><time>2026-04-04T14:06:23.906Z</time></trkpt><trkpt lat="45.27214260571608" lon="11.684066177535703"><ele>113.0</ele><time>2026-04-04T14:06:24.906Z</time></trkpt><trkpt lat="45.27223281851113" lon="11.68404152982897"><ele>113.83333333333333</ele><time>2026-04-04T14:06:25.906Z</time></trkpt><trkpt lat="45.27231939302571" lon="11.684007817191041"><ele>114.66666666666666</ele><time>2026-04-04T14:06:26.906Z</time></trkpt><trkpt lat="45.272399052569995" lon="11.684004089668072"><ele>115.5</ele><time>2026-04-04T14:06:27.906Z</time></trkpt><trkpt lat="45.2724611417789" lon="11.683987605235707"><ele>116.33333333333334</ele><time>2026-04-04T14:06:28.906Z</time></trkpt><trkpt lat="45.272551197630015" lon="11.683941069947167"><ele>117.16666666666667</ele><time>2026-04-04T14:06:30.906Z</time></trkpt><trkpt lat="45.27266737445683" lon="11.683898914397215"><ele>118.0</ele><time>2026-04-04T14:06:32.905Z</time></trkpt><trkpt lat="45.27271254377288" lon="11.68381151657417"><ele>118.0</ele><time>2026-04-04T14:06:33.905Z</time></trkpt><trkpt lat="45.272758249022296" lon="11.683734227838935"><ele>118.00000000000001</ele><time>2026-04-04T14:06:34.905Z</time></trkpt><trkpt lat="45.27281752352964" lon="11.683635587846261"><ele>118.00000000000001</ele><time>2026-04-04T14:06:36.905Z</time></trkpt><trkpt lat="45.272882464102715" lon="11.68358826427257"><ele>118.0</ele><time>2026-04-04T14:06:38.905Z</time></trkpt><trkpt lat="45.27297148830418" lon="11.683726175746138"><ele>118.0</ele><time>2026-04-04T14:06:40.905Z</time></trkpt><trkpt lat="45.273039432871165" lon="11.683830271429471"><ele>119.50000000000001</ele><time>2026-04-04T14:06:41.905Z</time></trkpt><trkpt lat="45.27311422963854" lon="11.683925289986915"><ele>121.0</ele><time>2026-04-04T14:06:42.905Z</time></trkpt><trkpt lat="45.273181299636505" lon="11.684012437386153"><ele>122.5</ele><time>2026-04-04T14:06:43.905Z</time></trkpt><trkpt lat="45.27323446020435" lon="11.68408104789984"><ele>124.0</ele><time>2026-04-04T14:06:44.905Z</time></trkpt><trkpt lat="45.27327921866023" lon="11.68414879934352"><ele>125.50000000000001</ele><time>2026-04-04T14:06:45.905Z</time></trkpt><trkpt lat="45.2733371039243" lon="11.684199251959189"><ele>127.0</ele><time>2026-04-04T14:06:46.905Z</time></trkpt><trkpt lat="45.273410850119674" lon="11.68423126471369"><ele>127.0</ele><time>2026-04-04T14:06:47.905Z</time></trkpt><trkpt lat="45.27350112758917" lon="11.684250251963931"><ele>126.99999999999999</ele><time>2026-04-04T14:06:48.905Z</time></trkpt><trkpt lat="45.27359980347114" lon="11.68428148305697"><ele>126.99999999999999</ele><time>2026-04-04T14:06:49.905Z</time></trkpt><trkpt lat="45.27370499137424" lon="11.684261326421161"><ele>127.0</ele><time>2026-04-04T14:06:50.905Z</time></trkpt><trkpt lat="45.27381670402788" lon="11.68425341106427"><ele>127.0</ele><time>2026-04-04T14:06:51.905Z</time></trkpt><trkpt lat="45.27392295472386" lon="11.68426409789136"><ele>128.25</ele><time>2026-04-04T14:06:52.905Z</time></trkpt><trkpt lat="45.274036412495356" lon="11.684252338577462"><ele>129.5</ele><time>2026-04-04T14:06:53.905Z</time></trkpt><trkpt lat="45.2741468444332" lon="11.684234304199707"><ele>130.75</ele><time>2026-04-04T14:06:54.905Z</time></trkpt><trkpt lat="45.274256680597276" lon="11.684197788109666"><ele>132.0</ele><time>2026-04-04T14:06:55.905Z</time></trkpt><trkpt lat="45.27436450868137" lon="11.684150372086952"><ele>132.0</ele><time>2026-04-04T14:06:56.905Z</time></trkpt><trkpt lat="45.27445553510803" lon="11.684112200367265"><ele>132.0</ele><time>2026-04-04T14:06:57.905Z</time></trkpt><trkpt lat="45.27454562619962" lon="11.684088016626479"><ele>132.0</ele><time>2026-04-04T14:06:58.905Z</time></trkpt><trkpt lat="45.27464096910463" lon="11.68406945620821"><ele>132.0</ele><time>2026-04-04T14:06:59.905Z</time></trkpt><trkpt lat="45.27473931472002" lon="11.684052415350228"><ele>132.0</ele><time>2026-04-04T14:07:00.905Z</time></trkpt><trkpt lat="45.274833228349195" lon="11.684037917341833"><ele>132.0</ele><time>2026-04-04T14:07:01.905Z</time></trkpt><trkpt lat="45.27492313664349" lon="11.684033636539995"><ele>132.0</ele><time>2026-04-04T14:07:02.905Z</time></trkpt><trkpt lat="45.275004195992366" lon="11.68403021992243"><ele>132.0</ele><time>2026-04-04T14:07:03.904Z</time></trkpt><trkpt lat="45.27507216163966" lon="11.684027355193946"><ele>132.0</ele><time>2026-04-04T14:07:04.904Z</time></trkpt><trkpt lat="45.27517998916566" lon="11.684028931780103"><ele>132.0</ele><time>2026-04-04T14:07:06.904Z</time></trkpt><trkpt lat="45.27523976147942" lon="11.684058459850005"><ele>132.0</ele><time>2026-04-04T14:07:07.904Z</time></trkpt><trkpt lat="45.27530170203791" lon="11.684145969470093"><ele>132.0</ele><time>2026-04-04T14:07:08.904Z</time></trkpt><trkpt lat="45.27536482740522" lon="11.684231236064296"><ele>132.0</ele><time>2026-04-04T14:07:09.904Z</time></trkpt><trkpt lat="45.27542795467182" lon="11.684294027513745"><ele>132.0</ele><time>2026-04-04T14:07:10.904Z</time></trkpt><trkpt lat="45.27549577259536" lon="11.68433782721433"><ele>132.0</ele><time>2026-04-04T14:07:11.904Z</time></trkpt><trkpt lat="45.275573004357014" lon="11.684365567595249"><ele>132.0</ele><time>2026-04-04T14:07:12.904Z</time></trkpt><trkpt lat="45.27565473653309" lon="11.684380934385242"><ele>132.0</ele><time>2026-04-04T14:07:13.904Z</time></trkpt><trkpt lat="45.275742114955825" lon="11.684394285426455"><ele>133.66666666666666</ele><time>2026-04-04T14:07:14.904Z</time></trkpt><trkpt lat="45.27583719397787" lon="11.68441877453213"><ele>135.33333333333334</ele><time>2026-04-04T14:07:15.904Z</time></trkpt><trkpt lat="45.27592696558163" lon="11.684394334576433"><ele>137.0</ele><time>2026-04-04T14:07:16.904Z</time></trkpt><trkpt lat="45.2760120979529" lon="11.684365683198353"><ele>138.66666666666669</ele><time>2026-04-04T14:07:17.904Z</time></trkpt><trkpt lat="45.27608069377954" lon="11.684337825791067"><ele>140.33333333333334</ele><time>2026-04-04T14:07:18.904Z</time></trkpt><trkpt lat="45.27615254356693" lon="11.684318627527453"><ele>142.0</ele><time>2026-04-04T14:07:19.904Z</time></trkpt><trkpt lat="45.27622776161735" lon="11.684324925527896"><ele>142.0</ele><time>2026-04-04T14:07:20.904Z</time></trkpt><trkpt lat="45.276298666671934" lon="11.68438622400531"><ele>142.0</ele><time>2026-04-04T14:07:21.904Z</time></trkpt><trkpt lat="45.27635540208533" lon="11.684454761940387"><ele>142.0</ele><time>2026-04-04T14:07:22.904Z</time></trkpt><trkpt lat="45.27642532682141" lon="11.684512854676903"><ele>142.0</ele><time>2026-04-04T14:07:23.904Z</time></trkpt><trkpt lat="45.276489023213145" lon="11.684544160407086"><ele>142.0</ele><time>2026-04-04T14:07:24.904Z</time></trkpt><trkpt lat="45.276564123063615" lon="11.684552181186596"><ele>142.0</ele><time>2026-04-04T14:07:25.904Z</time></trkpt><trkpt lat="45.27665831523078" lon="11.684555930396186"><ele>143.4</ele><time>2026-04-04T14:07:26.904Z</time></trkpt><trkpt lat="45.276786749556464" lon="11.684507794341114"><ele>144.79999999999998</ele><time>2026-04-04T14:07:27.904Z</time></trkpt><trkpt lat="45.27687577411702" lon="11.684467895403222"><ele>146.2</ele><time>2026-04-04T14:07:28.904Z</time></trkpt><trkpt lat="45.27697117914117" lon="11.684411681174021"><ele>147.6</ele><time>2026-04-04T14:07:29.904Z</time></trkpt><trkpt lat="45.277071448856034" lon="11.68433558420188"><ele>149.0</ele><time>2026-04-04T14:07:30.904Z</time></trkpt><trkpt lat="45.277158284057805" lon="11.684233918248722"><ele>149.0</ele><time>2026-04-04T14:07:31.904Z</time></trkpt><trkpt lat="45.27723376123767" lon="11.684113813792475"><ele>149.0</ele><time>2026-04-04T14:07:32.904Z</time></trkpt><trkpt lat="45.27732570784078" lon="11.683966842510326"><ele>149.0</ele><time>2026-04-04T14:07:33.904Z</time></trkpt><trkpt lat="45.27739230095065" lon="11.683852098202093"><ele>149.0</ele><time>2026-04-04T14:07:34.904Z</time></trkpt><trkpt lat="45.27746474756949" lon="11.683725201234413"><ele>152.8</ele><time>2026-04-04T14:07:35.903Z</time></trkpt><trkpt lat="45.2775163584039" lon="11.683592824192742"><ele>156.60000000000002</ele><time>2026-04-04T14:07:36.903Z</time></trkpt><trkpt lat="45.27758819133805" lon="11.68348550907486"><ele>160.4</ele><time>2026-04-04T14:07:37.903Z</time></trkpt><trkpt lat="45.27763750606027" lon="11.683386575170125"><ele>164.20000000000002</ele><time>2026-04-04T14:07:38.903Z</time></trkpt><trkpt lat="45.277697993655" lon="11.683300974346277"><ele>168.0</ele><time>2026-04-04T14:07:39.903Z</time></trkpt><trkpt lat="45.27777467120235" lon="11.683225622334575"><ele>168.0</ele><time>2026-04-04T14:07:40.903Z</time></trkpt><trkpt lat="45.27785685854624" lon="11.68315632090177"><ele>168.0</ele><time>2026-04-04T14:07:41.903Z</time></trkpt><trkpt lat="45.2779397627126" lon="11.68310131611965"><ele>168.0</ele><time>2026-04-04T14:07:42.903Z</time></trkpt><trkpt lat="45.27803424102765" lon="11.683065952570177"><ele>168.0</ele><time>2026-04-04T14:07:43.903Z</time></trkpt><trkpt lat="45.27813036967592" lon="11.683026380088089"><ele>168.0</ele><time>2026-04-04T14:07:44.903Z</time></trkpt><trkpt lat="45.27822308428615" lon="11.682965352438758"><ele>166.16666666666666</ele><time>2026-04-04T14:07:45.903Z</time></trkpt><trkpt lat="45.278298782965905" lon="11.682888345329063"><ele>164.33333333333334</ele><time>2026-04-04T14:07:46.903Z</time></trkpt><trkpt lat="45.27836390159921" lon="11.682828659023116"><ele>162.5</ele><time>2026-04-04T14:07:47.903Z</time></trkpt><trkpt lat="45.27842127739666" lon="11.68276133552491"><ele>160.66666666666669</ele><time>2026-04-04T14:07:48.903Z</time></trkpt><trkpt lat="45.27847868367778" lon="11.682691837120508"><ele>158.83333333333334</ele><time>2026-04-04T14:07:49.903Z</time></trkpt><trkpt lat="45.2785534102608" lon="11.682632665594722"><ele>157.0</ele><time>2026-04-04T14:07:50.903Z</time></trkpt><trkpt lat="45.27862729735183" lon="11.682569831512115"><ele>160.0</ele><time>2026-04-04T14:07:51.903Z</time></trkpt><trkpt lat="45.27871138447472" lon="11.682511312149227"><ele>163.0</ele><time>2026-04-04T14:07:52.903Z</time></trkpt><trkpt lat="45.27878338943964" lon="11.682477707204784"><ele>166.0</ele><time>2026-04-04T14:07:53.903Z</time></trkpt><trkpt lat="45.27885170007963" lon="11.682445224806814"><ele>169.0</ele><time>2026-04-04T14:07:54.903Z</time></trkpt><trkpt lat="45.278921693017395" lon="11.682376701435595"><ele>172.0</ele><time>2026-04-04T14:07:55.903Z</time></trkpt><trkpt lat="45.278992021678015" lon="11.682297855144672"><ele>175.0</ele><time>2026-04-04T14:07:56.903Z</time></trkpt><trkpt lat="45.279057055899045" lon="11.682182382399992"><ele>175.0</ele><time>2026-04-04T14:07:57.903Z</time></trkpt><trkpt lat="45.2791018777863" lon="11.682050462953804"><ele>175.0</ele><time>2026-04-04T14:07:58.903Z</time></trkpt><trkpt lat="45.27914823306199" lon="11.681905189720412"><ele>175.0</ele><time>2026-04-04T14:07:59.903Z</time></trkpt><trkpt lat="45.279212773545886" lon="11.681814021633302"><ele>175.0</ele><time>2026-04-04T14:08:00.903Z</time></trkpt><trkpt lat="45.27929019219253" lon="11.681754995289838"><ele>175.0</ele><time>2026-04-04T14:08:01.903Z</time></trkpt><trkpt lat="45.27934939433369" lon="11.681695132755268"><ele>178.66666666666669</ele><time>2026-04-04T14:08:02.904Z</time></trkpt><trkpt lat="45.279406494940474" lon="11.681630776590497"><ele>182.33333333333334</ele><time>2026-04-04T14:08:03.904Z</time></trkpt><trkpt lat="45.2794793986608" lon="11.681590259256028"><ele>186.0</ele><time>2026-04-04T14:08:04.903Z</time></trkpt><trkpt lat="45.279562859585226" lon="11.681590496090063"><ele>189.66666666666669</ele><time>2026-04-04T14:08:05.904Z</time></trkpt><trkpt lat="45.279644155122206" lon="11.681588211682492"><ele>193.33333333333334</ele><time>2026-04-04T14:08:06.904Z</time></trkpt><trkpt lat="45.2797163858764" lon="11.68158315343714"><ele>197.0</ele><time>2026-04-04T14:08:07.904Z</time></trkpt><trkpt lat="45.2797967622426" lon="11.681572304063275"><ele>197.83333333333334</ele><time>2026-04-04T14:08:08.904Z</time></trkpt><trkpt lat="45.27988420521485" lon="11.681577191815855"><ele>198.66666666666669</ele><time>2026-04-04T14:08:09.905Z</time></trkpt><trkpt lat="45.27996887388746" lon="11.681551120744269"><ele>199.5</ele><time>2026-04-04T14:08:10.905Z</time></trkpt><trkpt lat="45.28004484602735" lon="11.681523119093168"><ele>200.33333333333331</ele><time>2026-04-04T14:08:11.906Z</time></trkpt><trkpt lat="45.28012345394532" lon="11.681472354587923"><ele>201.16666666666666</ele><time>2026-04-04T14:08:12.906Z</time></trkpt><trkpt lat="45.28019589114547" lon="11.6814695256669"><ele>202.0</ele><time>2026-04-04T14:08:13.906Z</time></trkpt><trkpt lat="45.280276217940894" lon="11.681443302989113"><ele>202.0</ele><time>2026-04-04T14:08:14.906Z</time></trkpt><trkpt lat="45.28036035184889" lon="11.681442272943658"><ele>202.0</ele><time>2026-04-04T14:08:15.906Z</time></trkpt><trkpt lat="45.28046143630974" lon="11.681391108494639"><ele>202.0</ele><time>2026-04-04T14:08:17.907Z</time></trkpt><trkpt lat="45.28056071340659" lon="11.68130970012778"><ele>202.0</ele><time>2026-04-04T14:08:19.907Z</time></trkpt><trkpt lat="45.280631860327574" lon="11.681230364502621"><ele>202.0</ele><time>2026-04-04T14:08:20.907Z</time></trkpt><trkpt lat="45.28069508459283" lon="11.68111938955763"><ele>203.16666666666666</ele><time>2026-04-04T14:08:21.907Z</time></trkpt><trkpt lat="45.280745371074715" lon="11.681009241920327"><ele>204.33333333333331</ele><time>2026-04-04T14:08:22.907Z</time></trkpt><trkpt lat="45.28078669515466" lon="11.68091067761125"><ele>205.5</ele><time>2026-04-04T14:08:23.908Z</time></trkpt><trkpt lat="45.28082339333003" lon="11.680823148122164"><ele>206.66666666666669</ele><time>2026-04-04T14:08:24.908Z</time></trkpt><trkpt lat="45.28086756530286" lon="11.680698981656617"><ele>207.83333333333334</ele><time>2026-04-04T14:08:26.908Z</time></trkpt><trkpt lat="45.28090167794481" lon="11.680622889240011"><ele>209.0</ele><time>2026-04-04T14:08:28.908Z</time></trkpt><trkpt lat="45.2809497724299" lon="11.680532386631596"><ele>209.0</ele><time>2026-04-04T14:08:30.908Z</time></trkpt><trkpt lat="45.28089068554173" lon="11.680378531902477"><ele>209.0</ele><time>2026-04-04T14:08:31.908Z</time></trkpt><trkpt lat="45.28081790583756" lon="11.680300319087044"><ele>209.0</ele><time>2026-04-04T14:08:33.908Z</time></trkpt><trkpt lat="45.28081185625042" lon="11.68018104920368"><ele>209.0</ele><time>2026-04-04T14:08:37.908Z</time></trkpt><trkpt lat="45.280828726509064" lon="11.680085717686365"><ele>209.0</ele><time>2026-04-04T14:09:06.908Z</time></trkpt><trkpt lat="45.280829073772615" lon="11.679916863029755"><ele>209.16666666666669</ele><time>2026-04-04T14:09:08.908Z</time></trkpt><trkpt lat="45.28082516451939" lon="11.679736293709055"><ele>209.33333333333334</ele><time>2026-04-04T14:09:10.908Z</time></trkpt><trkpt lat="45.28081675153971" lon="11.679626949362868"><ele>209.5</ele><time>2026-04-04T14:09:11.908Z</time></trkpt><trkpt lat="45.28080886987544" lon="11.679523010607902"><ele>209.66666666666669</ele><time>2026-04-04T14:09:12.908Z</time></trkpt><trkpt lat="45.28080210085216" lon="11.679417820266552"><ele>209.83333333333334</ele><time>2026-04-04T14:09:13.908Z</time></trkpt><trkpt lat="45.28079955234898" lon="11.679315981824136"><ele>210.0</ele><time>2026-04-04T14:09:14.908Z</time></trkpt><trkpt lat="45.28079890562397" lon="11.679215635008955"><ele>209.0</ele><time>2026-04-04T14:09:15.908Z</time></trkpt><trkpt lat="45.28080611318904" lon="11.679116940736428"><ele>208.0</ele><time>2026-04-04T14:09:16.908Z</time></trkpt><trkpt lat="45.28081274352662" lon="11.679017601761387"><ele>207.0</ele><time>2026-04-04T14:09:17.908Z</time></trkpt><trkpt lat="45.28083070253517" lon="11.67892178379101"><ele>206.0</ele><time>2026-04-04T14:09:18.908Z</time></trkpt><trkpt lat="45.28085342635045" lon="11.678829226932336"><ele>205.0</ele><time>2026-04-04T14:09:19.908Z</time></trkpt><trkpt lat="45.28089686463794" lon="11.67872722661351"><ele>204.0</ele><time>2026-04-04T14:09:20.908Z</time></trkpt><trkpt lat="45.28095445672859" lon="11.678613473323688"><ele>202.0</ele><time>2026-04-04T14:09:21.908Z</time></trkpt><trkpt lat="45.28101298577108" lon="11.678493469414859"><ele>200.0</ele><time>2026-04-04T14:09:22.908Z</time></trkpt><trkpt lat="45.28106349583796" lon="11.67837429311338"><ele>198.0</ele><time>2026-04-04T14:09:23.908Z</time></trkpt><trkpt lat="45.28110975510453" lon="11.678270533010453"><ele>196.0</ele><time>2026-04-04T14:09:24.908Z</time></trkpt><trkpt lat="45.281152134149735" lon="11.678162047798214"><ele>194.0</ele><time>2026-04-04T14:09:25.908Z</time></trkpt><trkpt lat="45.28119167880853" lon="11.678053657400634"><ele>194.0</ele><time>2026-04-04T14:09:26.908Z</time></trkpt><trkpt lat="45.28123319776877" lon="11.677951058665426"><ele>194.0</ele><time>2026-04-04T14:09:27.908Z</time></trkpt><trkpt lat="45.281274270763525" lon="11.677852981753109"><ele>194.0</ele><time>2026-04-04T14:09:28.908Z</time></trkpt><trkpt lat="45.28132283892014" lon="11.677745767697404"><ele>194.0</ele><time>2026-04-04T14:09:29.908Z</time></trkpt><trkpt lat="45.28137903600563" lon="11.677624186220275"><ele>194.0</ele><time>2026-04-04T14:09:30.908Z</time></trkpt><trkpt lat="45.28144708339085" lon="11.67750524425221"><ele>196.0</ele><time>2026-04-04T14:09:31.908Z</time></trkpt><trkpt lat="45.281508096939255" lon="11.677395587778872"><ele>198.0</ele><time>2026-04-04T14:09:32.908Z</time></trkpt><trkpt lat="45.28156805059258" lon="11.677296433604859"><ele>200.0</ele><time>2026-04-04T14:09:33.907Z</time></trkpt><trkpt lat="45.2816256554094" lon="11.677210841554876"><ele>202.0</ele><time>2026-04-04T14:09:34.907Z</time></trkpt><trkpt lat="45.28167864418592" lon="11.67711337179732"><ele>204.0</ele><time>2026-04-04T14:09:35.907Z</time></trkpt><trkpt lat="45.2817374769293" lon="11.677008414517989"><ele>201.33333333333334</ele><time>2026-04-04T14:09:36.907Z</time></trkpt><trkpt lat="45.281786018371996" lon="11.676896538331874"><ele>198.66666666666666</ele><time>2026-04-04T14:09:37.907Z</time></trkpt><trkpt lat="45.281829713902106" lon="11.676791110412555"><ele>196.0</ele><time>2026-04-04T14:09:38.907Z</time></trkpt><trkpt lat="45.28187013831128" lon="11.676683928991348"><ele>193.33333333333331</ele><time>2026-04-04T14:09:39.907Z</time></trkpt><trkpt lat="45.281901076944585" lon="11.676573951806747"><ele>190.66666666666666</ele><time>2026-04-04T14:09:40.907Z</time></trkpt><trkpt lat="45.28192299772101" lon="11.676464658100405"><ele>188.0</ele><time>2026-04-04T14:09:41.907Z</time></trkpt><trkpt lat="45.28194282010435" lon="11.67634597059392"><ele>188.0</ele><time>2026-04-04T14:09:42.907Z</time></trkpt><trkpt lat="45.28195979811599" lon="11.67622322352592"><ele>188.0</ele><time>2026-04-04T14:09:43.907Z</time></trkpt><trkpt lat="45.281983341604445" lon="11.676103370987361"><ele>188.0</ele><time>2026-04-04T14:09:44.907Z</time></trkpt><trkpt lat="45.28199623411467" lon="11.675980340156409"><ele>188.0</ele><time>2026-04-04T14:09:45.907Z</time></trkpt><trkpt lat="45.28199727969164" lon="11.675847211008456"><ele>188.0</ele><time>2026-04-04T14:09:46.907Z</time></trkpt><trkpt lat="45.281998084997426" lon="11.675740429061197"><ele>188.0</ele><time>2026-04-04T14:09:47.907Z</time></trkpt><trkpt lat="45.28199438159036" lon="11.675619455656324"><ele>186.83333333333331</ele><time>2026-04-04T14:09:48.907Z</time></trkpt><trkpt lat="45.28200276354485" lon="11.675485727440057"><ele>185.66666666666666</ele><time>2026-04-04T14:09:49.907Z</time></trkpt><trkpt lat="45.28200585398197" lon="11.675361915305773"><ele>184.5</ele><time>2026-04-04T14:09:50.907Z</time></trkpt><trkpt lat="45.282009173129225" lon="11.67524681717345"><ele>183.33333333333334</ele><time>2026-04-04T14:09:51.907Z</time></trkpt><trkpt lat="45.282034997807635" lon="11.6751379417999"><ele>182.16666666666669</ele><time>2026-04-04T14:09:52.907Z</time></trkpt><trkpt lat="45.28205362593161" lon="11.67504087244209"><ele>181.0</ele><time>2026-04-04T14:09:53.907Z</time></trkpt><trkpt lat="45.28206808006443" lon="11.674892677781342"><ele>179.16666666666669</ele><time>2026-04-04T14:09:55.907Z</time></trkpt><trkpt lat="45.282043529299465" lon="11.674800761605765"><ele>177.33333333333334</ele><time>2026-04-04T14:09:56.907Z</time></trkpt><trkpt lat="45.28193899320246" lon="11.674638842241183"><ele>175.5</ele><time>2026-04-04T14:09:58.907Z</time></trkpt><trkpt lat="45.2818711087722" lon="11.6745795225488"><ele>173.66666666666666</ele><time>2026-04-04T14:09:59.907Z</time></trkpt><trkpt lat="45.28181685393221" lon="11.674524605086102"><ele>171.83333333333331</ele><time>2026-04-04T14:10:00.907Z</time></trkpt><trkpt lat="45.28176037351222" lon="11.674464979426169"><ele>170.0</ele><time>2026-04-04T14:10:01.907Z</time></trkpt><trkpt lat="45.28164369528" lon="11.674402265490391"><ele>168.14285714285714</ele><time>2026-04-04T14:10:03.907Z</time></trkpt><trkpt lat="45.28157455649417" lon="11.674406810193394"><ele>166.28571428571428</ele><time>2026-04-04T14:10:04.907Z</time></trkpt><trkpt lat="45.28150298939138" lon="11.674428194409797"><ele>164.42857142857142</ele><time>2026-04-04T14:10:05.907Z</time></trkpt><trkpt lat="45.28142268581264" lon="11.674421454769819"><ele>162.57142857142856</ele><time>2026-04-04T14:10:06.907Z</time></trkpt><trkpt lat="45.28134664200577" lon="11.674423577960765"><ele>160.71428571428572</ele><time>2026-04-04T14:10:07.907Z</time></trkpt><trkpt lat="45.281285405383606" lon="11.67438474772825"><ele>158.85714285714283</ele><time>2026-04-04T14:10:08.907Z</time></trkpt><trkpt lat="45.2812210153602" lon="11.674322700588219"><ele>157.0</ele><time>2026-04-04T14:10:09.907Z</time></trkpt><trkpt lat="45.28118415328145" lon="11.674228205195433"><ele>154.33333333333334</ele><time>2026-04-04T14:10:10.907Z</time></trkpt><trkpt lat="45.28116965852174" lon="11.674118123823357"><ele>151.66666666666669</ele><time>2026-04-04T14:10:11.907Z</time></trkpt><trkpt lat="45.28117076667573" lon="11.673995274105796"><ele>149.0</ele><time>2026-04-04T14:10:12.907Z</time></trkpt><trkpt lat="45.281184332021695" lon="11.673884372115698"><ele>146.33333333333334</ele><time>2026-04-04T14:10:13.907Z</time></trkpt><trkpt lat="45.28118920625383" lon="11.673772412661746"><ele>143.66666666666666</ele><time>2026-04-04T14:10:14.908Z</time></trkpt><trkpt lat="45.28118583718661" lon="11.673657444430164"><ele>141.0</ele><time>2026-04-04T14:10:15.908Z</time></trkpt><trkpt lat="45.28118234982384" lon="11.673552709752592"><ele>140.33333333333334</ele><time>2026-04-04T14:10:16.907Z</time></trkpt><trkpt lat="45.28118278316573" lon="11.673442082886893"><ele>139.66666666666666</ele><time>2026-04-04T14:10:17.907Z</time></trkpt><trkpt lat="45.28118144570062" lon="11.673338279837008"><ele>139.0</ele><time>2026-04-04T14:10:18.907Z</time></trkpt><trkpt lat="45.281182911081125" lon="11.673234248360634"><ele>138.33333333333331</ele><time>2026-04-04T14:10:19.907Z</time></trkpt><trkpt lat="45.28118892571484" lon="11.673130366014925"><ele>137.66666666666666</ele><time>2026-04-04T14:10:20.907Z</time></trkpt><trkpt lat="45.28121470078564" lon="11.67303195633177"><ele>137.0</ele><time>2026-04-04T14:10:21.907Z</time></trkpt><trkpt lat="45.28125212983901" lon="11.67292600843795"><ele>137.0</ele><time>2026-04-04T14:10:22.907Z</time></trkpt><trkpt lat="45.28128307738923" lon="11.672844307072129"><ele>137.0</ele><time>2026-04-04T14:10:23.907Z</time></trkpt><trkpt lat="45.281305738274035" lon="11.67275684905564"><ele>137.0</ele><time>2026-04-04T14:10:24.907Z</time></trkpt><trkpt lat="45.28132579061195" lon="11.672663312972265"><ele>137.0</ele><time>2026-04-04T14:10:25.907Z</time></trkpt><trkpt lat="45.281352156368825" lon="11.672563328920072"><ele>137.0</ele><time>2026-04-04T14:10:26.907Z</time></trkpt><trkpt lat="45.281382804343195" lon="11.672475416351189"><ele>137.0</ele><time>2026-04-04T14:10:27.907Z</time></trkpt><trkpt lat="45.28149115171632" lon="11.672378649570836"><ele>137.66666666666666</ele><time>2026-04-04T14:10:29.907Z</time></trkpt><trkpt lat="45.28155035684807" lon="11.672348200567656"><ele>138.33333333333331</ele><time>2026-04-04T14:10:30.907Z</time></trkpt><trkpt lat="45.28161850774186" lon="11.672331523203079"><ele>139.0</ele><time>2026-04-04T14:10:31.907Z</time></trkpt><trkpt lat="45.281693334651386" lon="11.672315234424392"><ele>139.66666666666666</ele><time>2026-04-04T14:10:32.907Z</time></trkpt><trkpt lat="45.28178019767432" lon="11.672325863904883"><ele>140.33333333333334</ele><time>2026-04-04T14:10:33.907Z</time></trkpt><trkpt lat="45.28186020797961" lon="11.67233500498443"><ele>141.0</ele><time>2026-04-04T14:10:34.907Z</time></trkpt><trkpt lat="45.28193748628715" lon="11.672314493969099"><ele>141.0</ele><time>2026-04-04T14:10:35.907Z</time></trkpt><trkpt lat="45.2820320201291" lon="11.672286902455909"><ele>141.0</ele><time>2026-04-04T14:10:36.907Z</time></trkpt><trkpt lat="45.28210709661809" lon="11.672230326857"><ele>141.0</ele><time>2026-04-04T14:10:37.906Z</time></trkpt><trkpt lat="45.28217656746894" lon="11.672179674656414"><ele>141.0</ele><time>2026-04-04T14:10:38.906Z</time></trkpt><trkpt lat="45.28223167470124" lon="11.672122643285793"><ele>141.0</ele><time>2026-04-04T14:10:39.906Z</time></trkpt><trkpt lat="45.28229970134339" lon="11.672033741241949"><ele>141.0</ele><time>2026-04-04T14:10:40.906Z</time></trkpt><trkpt lat="45.28236259868399" lon="11.671949872032426"><ele>139.6</ele><time>2026-04-04T14:10:41.906Z</time></trkpt><trkpt lat="45.282421683335" lon="11.671838927468203"><ele>138.2</ele><time>2026-04-04T14:10:42.906Z</time></trkpt><trkpt lat="45.282513405286096" lon="11.671745915963402"><ele>136.8</ele><time>2026-04-04T14:10:44.906Z</time></trkpt><trkpt lat="45.282559460942274" lon="11.671626673870957"><ele>135.4</ele><time>2026-04-04T14:10:46.906Z</time></trkpt><trkpt lat="45.282603909283814" lon="11.671535275963791"><ele>134.0</ele><time>2026-04-04T14:10:47.906Z</time></trkpt><trkpt lat="45.282618627459165" lon="11.671371800301642"><ele>134.0</ele><time>2026-04-04T14:10:48.906Z</time></trkpt><trkpt lat="45.28262168039895" lon="11.671251857991892"><ele>134.0</ele><time>2026-04-04T14:10:49.906Z</time></trkpt><trkpt lat="45.28264542439966" lon="11.671060237563402"><ele>134.0</ele><time>2026-04-04T14:10:51.906Z</time></trkpt><trkpt lat="45.282671021151614" lon="11.670954421531182"><ele>134.0</ele><time>2026-04-04T14:10:52.906Z</time></trkpt><trkpt lat="45.28269639330125" lon="11.670859372908176"><ele>134.0</ele><time>2026-04-04T14:10:53.906Z</time></trkpt><trkpt lat="45.28274041257669" lon="11.67069001654954"><ele>132.5</ele><time>2026-04-04T14:10:55.906Z</time></trkpt><trkpt lat="45.282762656556415" lon="11.670537745545051"><ele>131.0</ele><time>2026-04-04T14:10:56.906Z</time></trkpt><trkpt lat="45.28265268197707" lon="11.67040044875237"><ele>129.5</ele><time>2026-04-04T14:10:57.906Z</time></trkpt><trkpt lat="45.2826105291743" lon="11.670264634550135"><ele>128.0</ele><time>2026-04-04T14:10:58.906Z</time></trkpt><trkpt lat="45.282546935512435" lon="11.670146477404494"><ele>126.49999999999999</ele><time>2026-04-04T14:10:59.906Z</time></trkpt><trkpt lat="45.28249875785812" lon="11.67003646466128"><ele>125.0</ele><time>2026-04-04T14:11:00.906Z</time></trkpt><trkpt lat="45.28243861891006" lon="11.669930039638665"><ele>123.5</ele><time>2026-04-04T14:11:01.906Z</time></trkpt><trkpt lat="45.28239498276736" lon="11.669837114466453"><ele>122.0</ele><time>2026-04-04T14:11:02.906Z</time></trkpt><trkpt lat="45.28235438777481" lon="11.669737515313637"><ele>120.49999999999999</ele><time>2026-04-04T14:11:03.906Z</time></trkpt><trkpt lat="45.282316492181955" lon="11.669602220695856"><ele>119.0</ele><time>2026-04-04T14:11:04.906Z</time></trkpt><trkpt lat="45.28225972864362" lon="11.669488069273564"><ele>116.4</ele><time>2026-04-04T14:11:05.906Z</time></trkpt><trkpt lat="45.28220378923865" lon="11.669349235198329"><ele>113.80000000000001</ele><time>2026-04-04T14:11:06.906Z</time></trkpt><trkpt lat="45.2821444020195" lon="11.669252772199185"><ele>111.19999999999999</ele><time>2026-04-04T14:11:07.906Z</time></trkpt><trkpt lat="45.28210952950296" lon="11.669151934925113"><ele>108.6</ele><time>2026-04-04T14:11:08.906Z</time></trkpt><trkpt lat="45.282075762120044" lon="11.669075137626555"><ele>106.0</ele><time>2026-04-04T14:11:09.906Z</time></trkpt><trkpt lat="45.282018143726084" lon="11.668923931659757"><ele>106.0</ele><time>2026-04-04T14:11:11.905Z</time></trkpt><trkpt lat="45.282050639372486" lon="11.668821831216139"><ele>106.0</ele><time>2026-04-04T14:11:12.905Z</time></trkpt><trkpt lat="45.28209348582728" lon="11.668724599671716"><ele>106.0</ele><time>2026-04-04T14:11:13.905Z</time></trkpt><trkpt lat="45.282166549816566" lon="11.668626450399472"><ele>106.0</ele><time>2026-04-04T14:11:14.905Z</time></trkpt><trkpt lat="45.282250649205594" lon="11.66854100013617"><ele>106.0</ele><time>2026-04-04T14:11:15.905Z</time></trkpt><trkpt lat="45.28234264301837" lon="11.668492279051316"><ele>105.19999999999999</ele><time>2026-04-04T14:11:16.905Z</time></trkpt><trkpt lat="45.28242859295578" lon="11.668474288880645"><ele>104.39999999999999</ele><time>2026-04-04T14:11:17.905Z</time></trkpt><trkpt lat="45.28251262440383" lon="11.6684558524623"><ele>103.6</ele><time>2026-04-04T14:11:18.905Z</time></trkpt><trkpt lat="45.28258278252838" lon="11.668404546677959"><ele>102.8</ele><time>2026-04-04T14:11:19.905Z</time></trkpt><trkpt lat="45.28262025402759" lon="11.668301034954556"><ele>102.0</ele><time>2026-04-04T14:11:20.905Z</time></trkpt><trkpt lat="45.28261914533101" lon="11.668126639290453"><ele>102.0</ele><time>2026-04-04T14:11:21.905Z</time></trkpt><trkpt lat="45.28260854338812" lon="11.6679386195522"><ele>102.0</ele><time>2026-04-04T14:11:22.905Z</time></trkpt><trkpt lat="45.28259748577955" lon="11.667763265242941"><ele>102.0</ele><time>2026-04-04T14:11:23.905Z</time></trkpt><trkpt lat="45.28260022642334" lon="11.667605250436155"><ele>102.0</ele><time>2026-04-04T14:11:24.905Z</time></trkpt><trkpt lat="45.28259925316417" lon="11.667443114895287"><ele>101.39999999999999</ele><time>2026-04-04T14:11:25.905Z</time></trkpt><trkpt lat="45.282593662897504" lon="11.667308855416387"><ele>100.8</ele><time>2026-04-04T14:11:26.905Z</time></trkpt><trkpt lat="45.282584952946124" lon="11.66719241115795"><ele>100.2</ele><time>2026-04-04T14:11:27.905Z</time></trkpt><trkpt lat="45.28255597781072" lon="11.667085421713566"><ele>99.6</ele><time>2026-04-04T14:11:28.905Z</time></trkpt><trkpt lat="45.28250997046189" lon="11.66697237199557"><ele>99.0</ele><time>2026-04-04T14:11:29.905Z</time></trkpt><trkpt lat="45.28242905920202" lon="11.666843406765675"><ele>97.25</ele><time>2026-04-04T14:11:30.905Z</time></trkpt><trkpt lat="45.28234986967983" lon="11.66671909356723"><ele>95.5</ele><time>2026-04-04T14:11:31.905Z</time></trkpt><trkpt lat="45.28227566540071" lon="11.666597728732386"><ele>93.75</ele><time>2026-04-04T14:11:32.905Z</time></trkpt><trkpt lat="45.28220341222493" lon="11.66647884670352"><ele>92.0</ele><time>2026-04-04T14:11:33.905Z</time></trkpt><trkpt lat="45.28212045623914" lon="11.666358104130522"><ele>91.8</ele><time>2026-04-04T14:11:34.905Z</time></trkpt><trkpt lat="45.28204573688982" lon="11.6662422667147"><ele>91.6</ele><time>2026-04-04T14:11:35.905Z</time></trkpt><trkpt lat="45.28198903678627" lon="11.666129511814773"><ele>91.39999999999999</ele><time>2026-04-04T14:11:36.905Z</time></trkpt><trkpt lat="45.28195880072009" lon="11.666010114569767"><ele>91.19999999999999</ele><time>2026-04-04T14:11:37.905Z</time></trkpt><trkpt lat="45.28194373944892" lon="11.665862641752193"><ele>91.0</ele><time>2026-04-04T14:11:38.905Z</time></trkpt><trkpt lat="45.28193913757621" lon="11.665713503452425"><ele>89.5</ele><time>2026-04-04T14:11:39.905Z</time></trkpt><trkpt lat="45.281948900179025" lon="11.665547254592605"><ele>88.0</ele><time>2026-04-04T14:11:40.905Z</time></trkpt><trkpt lat="45.28195957457797" lon="11.665374722156546"><ele>86.5</ele><time>2026-04-04T14:11:41.905Z</time></trkpt><trkpt lat="45.2819879918894" lon="11.665211861343076"><ele>85.0</ele><time>2026-04-04T14:11:42.905Z</time></trkpt><trkpt lat="45.28202994594777" lon="11.665058191991"><ele>83.8</ele><time>2026-04-04T14:11:43.905Z</time></trkpt><trkpt lat="45.28207914099424" lon="11.664911001910724"><ele>82.6</ele><time>2026-04-04T14:11:44.905Z</time></trkpt><trkpt lat="45.282131846874535" lon="11.664777083017427"><ele>81.4</ele><time>2026-04-04T14:11:45.904Z</time></trkpt><trkpt lat="45.28219292486669" lon="11.664640682683409"><ele>80.2</ele><time>2026-04-04T14:11:46.904Z</time></trkpt><trkpt lat="45.28225245938877" lon="11.664520719191929"><ele>79.0</ele><time>2026-04-04T14:11:47.904Z</time></trkpt><trkpt lat="45.28229568637415" lon="11.664384266696587"><ele>77.4</ele><time>2026-04-04T14:11:48.904Z</time></trkpt><trkpt lat="45.282325588810245" lon="11.664235005611964"><ele>75.80000000000001</ele><time>2026-04-04T14:11:49.904Z</time></trkpt><trkpt lat="45.282323147049254" lon="11.664069798672557"><ele>74.19999999999999</ele><time>2026-04-04T14:11:50.904Z</time></trkpt><trkpt lat="45.28229567482171" lon="11.663912623069443"><ele>72.6</ele><time>2026-04-04T14:11:51.904Z</time></trkpt><trkpt lat="45.28227981537424" lon="11.663786873087375"><ele>71.0</ele><time>2026-04-04T14:11:52.904Z</time></trkpt><trkpt lat="45.28226861907575" lon="11.663677567123544"><ele>70.2</ele><time>2026-04-04T14:11:53.904Z</time></trkpt><trkpt lat="45.28225974817005" lon="11.663585084945531"><ele>69.39999999999999</ele><time>2026-04-04T14:11:54.904Z</time></trkpt><trkpt lat="45.28224850927196" lon="11.663472855695847"><ele>68.6</ele><time>2026-04-04T14:11:56.904Z</time></trkpt><trkpt lat="45.28229283518505" lon="11.663400062747447"><ele>67.8</ele><time>2026-04-04T14:11:59.904Z</time></trkpt><trkpt lat="45.28243357971599" lon="11.663388910672936"><ele>67.0</ele><time>2026-04-04T14:12:01.904Z</time></trkpt><trkpt lat="45.282536876802936" lon="11.66339569127142"><ele>67.0</ele><time>2026-04-04T14:12:02.904Z</time></trkpt><trkpt lat="45.28265762891165" lon="11.663388768423179"><ele>67.0</ele><time>2026-04-04T14:12:03.904Z</time></trkpt><trkpt lat="45.28278248930336" lon="11.663371397115553"><ele>67.0</ele><time>2026-04-04T14:12:04.904Z</time></trkpt><trkpt lat="45.282928301680556" lon="11.663321908166461"><ele>67.0</ele><time>2026-04-04T14:12:05.904Z</time></trkpt><trkpt lat="45.283094232672994" lon="11.663224734224187"><ele>63.666666666666664</ele><time>2026-04-04T14:12:06.904Z</time></trkpt><trkpt lat="45.28325781773493" lon="11.663120839532649"><ele>60.33333333333333</ele><time>2026-04-04T14:12:07.904Z</time></trkpt><trkpt lat="45.283431321946715" lon="11.663066005116333"><ele>57.0</ele><time>2026-04-04T14:12:08.904Z</time></trkpt><trkpt lat="45.28358615111068" lon="11.663030117976472"><ele>57.0</ele><time>2026-04-04T14:12:09.904Z</time></trkpt><trkpt lat="45.283749973337656" lon="11.663014458613949"><ele>57.0</ele><time>2026-04-04T14:12:10.904Z</time></trkpt><trkpt lat="45.283936304531586" lon="11.663011144334686"><ele>57.0</ele><time>2026-04-04T14:12:11.904Z</time></trkpt><trkpt lat="45.28413053268683" lon="11.66300872714347"><ele>55.0</ele><time>2026-04-04T14:12:12.904Z</time></trkpt><trkpt lat="45.28432762972203" lon="11.663000906383896"><ele>53.0</ele><time>2026-04-04T14:12:13.905Z</time></trkpt><trkpt lat="45.28453801182826" lon="11.662977746348282"><ele>51.0</ele><time>2026-04-04T14:12:14.905Z</time></trkpt><trkpt lat="45.28474248630646" lon="11.662941691221448"><ele>50.66666666666667</ele><time>2026-04-04T14:12:15.905Z</time></trkpt><trkpt lat="45.284936802602125" lon="11.66286552542999"><ele>50.333333333333336</ele><time>2026-04-04T14:12:16.905Z</time></trkpt><trkpt lat="45.28511433193099" lon="11.66274960436212"><ele>50.0</ele><time>2026-04-04T14:12:17.905Z</time></trkpt><trkpt lat="45.28527565954536" lon="11.662601743610264"><ele>51.333333333333336</ele><time>2026-04-04T14:12:18.905Z</time></trkpt><trkpt lat="45.28543255477917" lon="11.662456114681985"><ele>52.66666666666667</ele><time>2026-04-04T14:12:19.904Z</time></trkpt><trkpt lat="45.285574870614205" lon="11.662302534971554"><ele>54.0</ele><time>2026-04-04T14:12:20.905Z</time></trkpt><trkpt lat="45.28569363339514" lon="11.662149758025002"><ele>54.0</ele><time>2026-04-04T14:12:21.905Z</time></trkpt><trkpt lat="45.285817743363744" lon="11.66200948179912"><ele>54.0</ele><time>2026-04-04T14:12:22.905Z</time></trkpt><trkpt lat="45.28594172736598" lon="11.661866997283242"><ele>54.0</ele><time>2026-04-04T14:12:23.905Z</time></trkpt><trkpt lat="45.286074911880526" lon="11.66173267025991"><ele>51.666666666666664</ele><time>2026-04-04T14:12:24.905Z</time></trkpt><trkpt lat="45.286221958794314" lon="11.661603828566685"><ele>49.33333333333333</ele><time>2026-04-04T14:12:25.905Z</time></trkpt><trkpt lat="45.28638591318273" lon="11.661479048598542"><ele>47.0</ele><time>2026-04-04T14:12:26.905Z</time></trkpt><trkpt lat="45.28655535914895" lon="11.661377806314558"><ele>47.0</ele><time>2026-04-04T14:12:27.905Z</time></trkpt><trkpt lat="45.28673351007448" lon="11.661291758995125"><ele>47.0</ele><time>2026-04-04T14:12:28.905Z</time></trkpt><trkpt lat="45.28691708420889" lon="11.661224991502417"><ele>47.0</ele><time>2026-04-04T14:12:29.905Z</time></trkpt><trkpt lat="45.28710816063726" lon="11.661175022169413"><ele>46.666666666666664</ele><time>2026-04-04T14:12:30.905Z</time></trkpt><trkpt lat="45.287285983585264" lon="11.661127205819945"><ele>46.333333333333336</ele><time>2026-04-04T14:12:31.905Z</time></trkpt><trkpt lat="45.28744984553042" lon="11.661089147792172"><ele>46.0</ele><time>2026-04-04T14:12:32.905Z</time></trkpt><trkpt lat="45.287605762942924" lon="11.661063957012562"><ele>43.75</ele><time>2026-04-04T14:12:33.905Z</time></trkpt><trkpt lat="45.2877553352663" lon="11.661054140855864"><ele>41.5</ele><time>2026-04-04T14:12:34.904Z</time></trkpt><trkpt lat="45.28789116648187" lon="11.661062144173629"><ele>39.25</ele><time>2026-04-04T14:12:35.904Z</time></trkpt><trkpt lat="45.2880183309335" lon="11.661092620228125"><ele>37.0</ele><time>2026-04-04T14:12:36.904Z</time></trkpt><trkpt lat="45.288157283561354" lon="11.661151742588293"><ele>36.0</ele><time>2026-04-04T14:12:37.904Z</time></trkpt><trkpt lat="45.28830591177811" lon="11.66123083571062"><ele>35.0</ele><time>2026-04-04T14:12:38.904Z</time></trkpt><trkpt lat="45.28846424210434" lon="11.661315921359234"><ele>34.0</ele><time>2026-04-04T14:12:39.904Z</time></trkpt><trkpt lat="45.28861326832363" lon="11.661385519617438"><ele>34.0</ele><time>2026-04-04T14:12:40.904Z</time></trkpt><trkpt lat="45.288757567848165" lon="11.661455671021006"><ele>34.0</ele><time>2026-04-04T14:12:41.904Z</time></trkpt><trkpt lat="45.28889052115884" lon="11.661514596881508"><ele>34.0</ele><time>2026-04-04T14:12:42.904Z</time></trkpt><trkpt lat="45.28903189456216" lon="11.661560981834961"><ele>34.0</ele><time>2026-04-04T14:12:43.904Z</time></trkpt><trkpt lat="45.28918119167277" lon="11.661604789570365"><ele>34.0</ele><time>2026-04-04T14:12:44.904Z</time></trkpt><trkpt lat="45.28932476278011" lon="11.661642771611552"><ele>34.0</ele><time>2026-04-04T14:12:45.904Z</time></trkpt><trkpt lat="45.2894505047271" lon="11.661674471917637"><ele>34.0</ele><time>2026-04-04T14:12:46.904Z</time></trkpt><trkpt lat="45.289569025864346" lon="11.66170534167208"><ele>34.0</ele><time>2026-04-04T14:12:47.904Z</time></trkpt><trkpt lat="45.28967465822464" lon="11.661726615715459"><ele>34.4</ele><time>2026-04-04T14:12:48.904Z</time></trkpt><trkpt lat="45.289767895865886" lon="11.661742551351674"><ele>34.8</ele><time>2026-04-04T14:12:49.904Z</time></trkpt><trkpt lat="45.289852466352826" lon="11.661747078412953"><ele>35.2</ele><time>2026-04-04T14:12:50.904Z</time></trkpt><trkpt lat="45.289938033101045" lon="11.661741360103182"><ele>35.6</ele><time>2026-04-04T14:12:51.904Z</time></trkpt><trkpt lat="45.290027664283066" lon="11.661736766158949"><ele>36.0</ele><time>2026-04-04T14:12:52.904Z</time></trkpt><trkpt lat="45.29012876709369" lon="11.6617327169729"><ele>36.0</ele><time>2026-04-04T14:12:53.904Z</time></trkpt><trkpt lat="45.290236747965885" lon="11.661735071083456"><ele>36.0</ele><time>2026-04-04T14:12:54.904Z</time></trkpt><trkpt lat="45.290342967408286" lon="11.661748170980353"><ele>36.0</ele><time>2026-04-04T14:12:55.904Z</time></trkpt><trkpt lat="45.29044596244689" lon="11.661783062782167"><ele>36.0</ele><time>2026-04-04T14:12:56.904Z</time></trkpt><trkpt lat="45.29055438947352" lon="11.661831050644142"><ele>36.0</ele><time>2026-04-04T14:12:57.904Z</time></trkpt><trkpt lat="45.29065053024098" lon="11.66187812290874"><ele>36.0</ele><time>2026-04-04T14:12:58.904Z</time></trkpt><trkpt lat="45.290736507665386" lon="11.6619201231836"><ele>36.0</ele><time>2026-04-04T14:12:59.904Z</time></trkpt><trkpt lat="45.29081732173075" lon="11.661957075427553"><ele>36.0</ele><time>2026-04-04T14:13:00.904Z</time></trkpt><trkpt lat="45.29089316616096" lon="11.661995838903993"><ele>36.0</ele><time>2026-04-04T14:13:01.904Z</time></trkpt><trkpt lat="45.290956320578395" lon="11.662035203195249"><ele>36.0</ele><time>2026-04-04T14:13:02.904Z</time></trkpt><trkpt lat="45.29105027248866" lon="11.662093362921865"><ele>36.0</ele><time>2026-04-04T14:13:04.904Z</time></trkpt><trkpt lat="45.291121295219234" lon="11.662157557993392"><ele>36.166666666666664</ele><time>2026-04-04T14:13:06.904Z</time></trkpt><trkpt lat="45.29118763540357" lon="11.662209669521763"><ele>36.333333333333336</ele><time>2026-04-04T14:13:08.903Z</time></trkpt><trkpt lat="45.29118343795923" lon="11.662403203277723"><ele>36.5</ele><time>2026-04-04T14:13:09.903Z</time></trkpt><trkpt lat="45.29117756394344" lon="11.662504625529818"><ele>36.66666666666667</ele><time>2026-04-04T14:13:10.903Z</time></trkpt><trkpt lat="45.29114276429888" lon="11.662609161212544"><ele>36.833333333333336</ele><time>2026-04-04T14:13:11.903Z</time></trkpt><trkpt lat="45.291098693302835" lon="11.662710899949575"><ele>37.0</ele><time>2026-04-04T14:13:12.903Z</time></trkpt><trkpt lat="45.291051953851856" lon="11.662810407932797"><ele>37.6</ele><time>2026-04-04T14:13:13.903Z</time></trkpt><trkpt lat="45.29100584374605" lon="11.662924302329001"><ele>38.2</ele><time>2026-04-04T14:13:14.903Z</time></trkpt><trkpt lat="45.29096324212955" lon="11.66305095368263"><ele>38.8</ele><time>2026-04-04T14:13:15.903Z</time></trkpt><trkpt lat="45.29092087793138" lon="11.663167109199001"><ele>39.4</ele><time>2026-04-04T14:13:16.903Z</time></trkpt><trkpt lat="45.2908515100456" lon="11.663277322756574"><ele>40.0</ele><time>2026-04-04T14:13:17.903Z</time></trkpt><trkpt lat="45.29081105825372" lon="11.663415741679659"><ele>40.0</ele><time>2026-04-04T14:13:18.903Z</time></trkpt><trkpt lat="45.2907790822139" lon="11.6635651881729"><ele>40.0</ele><time>2026-04-04T14:13:19.903Z</time></trkpt><trkpt lat="45.2907524394526" lon="11.663732045475928"><ele>40.0</ele><time>2026-04-04T14:13:20.903Z</time></trkpt><trkpt lat="45.29072933169905" lon="11.663926800127594"><ele>40.0</ele><time>2026-04-04T14:13:21.903Z</time></trkpt><trkpt lat="45.29070696335897" lon="11.66412019543147"><ele>41.75</ele><time>2026-04-04T14:13:22.903Z</time></trkpt><trkpt lat="45.29068527127589" lon="11.66429749822025"><ele>43.5</ele><time>2026-04-04T14:13:23.903Z</time></trkpt><trkpt lat="45.290665900130755" lon="11.664464740463066"><ele>45.25</ele><time>2026-04-04T14:13:24.903Z</time></trkpt><trkpt lat="45.290644522614066" lon="11.664623078069521"><ele>47.0</ele><time>2026-04-04T14:13:25.903Z</time></trkpt><trkpt lat="45.29062499812" lon="11.664787968062656"><ele>48.25</ele><time>2026-04-04T14:13:26.903Z</time></trkpt><trkpt lat="45.290603188266246" lon="11.66497043439131"><ele>49.5</ele><time>2026-04-04T14:13:27.903Z</time></trkpt><trkpt lat="45.29055331437701" lon="11.665156895692135"><ele>50.75</ele><time>2026-04-04T14:13:28.903Z</time></trkpt><trkpt lat="45.29052662340927" lon="11.665349904515809"><ele>52.0</ele><time>2026-04-04T14:13:29.903Z</time></trkpt><trkpt lat="45.290501777813326" lon="11.665537202932697"><ele>49.75</ele><time>2026-04-04T14:13:30.903Z</time></trkpt><trkpt lat="45.290483186859554" lon="11.665744806157221"><ele>47.5</ele><time>2026-04-04T14:13:31.903Z</time></trkpt><trkpt lat="45.29047779348737" lon="11.665950078160515"><ele>45.25</ele><time>2026-04-04T14:13:32.903Z</time></trkpt><trkpt lat="45.290479286543444" lon="11.666142988116599"><ele>43.0</ele><time>2026-04-04T14:13:33.903Z</time></trkpt><trkpt lat="45.290489262335456" lon="11.666336129910096"><ele>43.0</ele><time>2026-04-04T14:13:34.903Z</time></trkpt><trkpt lat="45.29050398994182" lon="11.666541721228834"><ele>43.0</ele><time>2026-04-04T14:13:35.903Z</time></trkpt><trkpt lat="45.29051998208917" lon="11.666752080841569"><ele>43.0</ele><time>2026-04-04T14:13:36.903Z</time></trkpt><trkpt lat="45.29053334967829" lon="11.666950952732796"><ele>43.0</ele><time>2026-04-04T14:13:37.903Z</time></trkpt><trkpt lat="45.29054788763588" lon="11.667142777132844"><ele>43.0</ele><time>2026-04-04T14:13:38.903Z</time></trkpt><trkpt lat="45.29056289171776" lon="11.667330270509114"><ele>43.0</ele><time>2026-04-04T14:13:39.903Z</time></trkpt><trkpt lat="45.29058075007191" lon="11.66751730260492"><ele>43.0</ele><time>2026-04-04T14:13:40.903Z</time></trkpt><trkpt lat="45.290570458359255" lon="11.667724442297661"><ele>43.0</ele><time>2026-04-04T14:13:41.903Z</time></trkpt><trkpt lat="45.29058177456966" lon="11.667926227329028"><ele>43.5</ele><time>2026-04-04T14:13:42.902Z</time></trkpt><trkpt lat="45.29058900235801" lon="11.66812324153564"><ele>44.0</ele><time>2026-04-04T14:13:43.902Z</time></trkpt><trkpt lat="45.290596598802445" lon="11.668314141196763"><ele>44.5</ele><time>2026-04-04T14:13:44.902Z</time></trkpt><trkpt lat="45.29060987136013" lon="11.668513493133368"><ele>45.0</ele><time>2026-04-04T14:13:45.902Z</time></trkpt><trkpt lat="45.290625633952246" lon="11.668708283404163"><ele>46.0</ele><time>2026-04-04T14:13:46.902Z</time></trkpt><trkpt lat="45.29064053306699" lon="11.668888394589947"><ele>47.0</ele><time>2026-04-04T14:13:47.902Z</time></trkpt><trkpt lat="45.29065536215632" lon="11.66906419920745"><ele>48.0</ele><time>2026-04-04T14:13:48.902Z</time></trkpt><trkpt lat="45.29066633418581" lon="11.669247388002345"><ele>49.0</ele><time>2026-04-04T14:13:49.902Z</time></trkpt><trkpt lat="45.29068538646544" lon="11.66944267477172"><ele>49.0</ele><time>2026-04-04T14:13:50.902Z</time></trkpt><trkpt lat="45.29071130833666" lon="11.66964187261177"><ele>49.0</ele><time>2026-04-04T14:13:51.902Z</time></trkpt><trkpt lat="45.29074683259527" lon="11.669837960092973"><ele>49.0</ele><time>2026-04-04T14:13:52.902Z</time></trkpt><trkpt lat="45.29078773800464" lon="11.670031760097501"><ele>49.0</ele><time>2026-04-04T14:13:53.902Z</time></trkpt><trkpt lat="45.290824440609086" lon="11.670207346762123"><ele>49.5</ele><time>2026-04-04T14:13:54.902Z</time></trkpt><trkpt lat="45.29086103488353" lon="11.670372395911082"><ele>50.0</ele><time>2026-04-04T14:13:55.902Z</time></trkpt><trkpt lat="45.29090249501504" lon="11.670543734179047"><ele>50.5</ele><time>2026-04-04T14:13:56.902Z</time></trkpt><trkpt lat="45.290947933818124" lon="11.670728122615639"><ele>51.0</ele><time>2026-04-04T14:13:57.902Z</time></trkpt><trkpt lat="45.29099008342749" lon="11.670916056586638"><ele>51.0</ele><time>2026-04-04T14:13:58.902Z</time></trkpt><trkpt lat="45.29103292102755" lon="11.671098962300439"><ele>51.0</ele><time>2026-04-04T14:13:59.902Z</time></trkpt><trkpt lat="45.291062154491705" lon="11.671304626646101"><ele>51.0</ele><time>2026-04-04T14:14:00.902Z</time></trkpt><trkpt lat="45.29110405930726" lon="11.671504553243219"><ele>51.0</ele><time>2026-04-04T14:14:01.902Z</time></trkpt><trkpt lat="45.29114128123292" lon="11.671698432112047"><ele>51.25</ele><time>2026-04-04T14:14:02.902Z</time></trkpt><trkpt lat="45.29117023459866" lon="11.671894461174938"><ele>51.5</ele><time>2026-04-04T14:14:03.902Z</time></trkpt><trkpt lat="45.29118901471637" lon="11.672098088517917"><ele>51.75</ele><time>2026-04-04T14:14:04.902Z</time></trkpt><trkpt lat="45.29120199323386" lon="11.67232153105149"><ele>52.0</ele><time>2026-04-04T14:14:05.902Z</time></trkpt><trkpt lat="45.291215959033615" lon="11.672545947249588"><ele>52.5</ele><time>2026-04-04T14:14:06.902Z</time></trkpt><trkpt lat="45.2912300590479" lon="11.672761613474266"><ele>53.0</ele><time>2026-04-04T14:14:07.902Z</time></trkpt><trkpt lat="45.29124153767348" lon="11.672959454183369"><ele>53.5</ele><time>2026-04-04T14:14:08.902Z</time></trkpt><trkpt lat="45.29124740156057" lon="11.673154908758416"><ele>54.0</ele><time>2026-04-04T14:14:09.902Z</time></trkpt><trkpt lat="45.291247574435836" lon="11.673357368704844"><ele>55.0</ele><time>2026-04-04T14:14:10.902Z</time></trkpt><trkpt lat="45.29124478609123" lon="11.673568303679946"><ele>56.0</ele><time>2026-04-04T14:14:11.902Z</time></trkpt><trkpt lat="45.29123779421324" lon="11.673788093805637"><ele>57.0</ele><time>2026-04-04T14:14:12.902Z</time></trkpt><trkpt lat="45.29122687187221" lon="11.67401742540333"><ele>58.66666666666667</ele><time>2026-04-04T14:14:13.902Z</time></trkpt><trkpt lat="45.291209536305864" lon="11.674250227675174"><ele>60.333333333333336</ele><time>2026-04-04T14:14:14.902Z</time></trkpt><trkpt lat="45.29118463634105" lon="11.674474441543426"><ele>62.0</ele><time>2026-04-04T14:14:15.901Z</time></trkpt><trkpt lat="45.29115810178799" lon="11.674672431523817"><ele>64.0</ele><time>2026-04-04T14:14:16.901Z</time></trkpt><trkpt lat="45.29112962263186" lon="11.674852887159645"><ele>66.0</ele><time>2026-04-04T14:14:17.901Z</time></trkpt><trkpt lat="45.29110072879621" lon="11.675035611477616"><ele>68.0</ele><time>2026-04-04T14:14:18.901Z</time></trkpt><trkpt lat="45.29108441374855" lon="11.675230749627675"><ele>70.0</ele><time>2026-04-04T14:14:19.903Z</time></trkpt><trkpt lat="45.29108097192066" lon="11.675450351827235"><ele>72.0</ele><time>2026-04-04T14:14:20.903Z</time></trkpt><trkpt lat="45.29110330764064" lon="11.675681903378955"><ele>74.0</ele><time>2026-04-04T14:14:21.903Z</time></trkpt><trkpt lat="45.29114026772468" lon="11.675894073802858"><ele>76.0</ele><time>2026-04-04T14:14:22.902Z</time></trkpt><trkpt lat="45.29118176781738" lon="11.676118686504209"><ele>77.33333333333333</ele><time>2026-04-04T14:14:23.903Z</time></trkpt><trkpt lat="45.291224487693334" lon="11.67634367816708"><ele>78.66666666666667</ele><time>2026-04-04T14:14:24.903Z</time></trkpt><trkpt lat="45.2912655628682" lon="11.676558246664401"><ele>80.0</ele><time>2026-04-04T14:14:25.903Z</time></trkpt><trkpt lat="45.29131095651915" lon="11.676774894660772"><ele>82.66666666666667</ele><time>2026-04-04T14:14:26.903Z</time></trkpt><trkpt lat="45.29136313022115" lon="11.676990402401339"><ele>85.33333333333333</ele><time>2026-04-04T14:14:27.903Z</time></trkpt><trkpt lat="45.291418224017086" lon="11.677204513335887"><ele>88.0</ele><time>2026-04-04T14:14:28.903Z</time></trkpt><trkpt lat="45.29146737147881" lon="11.67742398315462"><ele>84.0</ele><time>2026-04-04T14:14:29.902Z</time></trkpt><trkpt lat="45.29152341150693" lon="11.677653155045837"><ele>80.0</ele><time>2026-04-04T14:14:30.902Z</time></trkpt><trkpt lat="45.29159622729488" lon="11.677863741926647"><ele>76.0</ele><time>2026-04-04T14:14:31.903Z</time></trkpt><trkpt lat="45.29166437538457" lon="11.678084112386781"><ele>76.0</ele><time>2026-04-04T14:14:32.902Z</time></trkpt><trkpt lat="45.29174641045176" lon="11.678311313815403"><ele>76.0</ele><time>2026-04-04T14:14:33.902Z</time></trkpt><trkpt lat="45.291823597870305" lon="11.678524563892624"><ele>76.0</ele><time>2026-04-04T14:14:34.902Z</time></trkpt><trkpt lat="45.29188896465062" lon="11.678724588405913"><ele>78.5</ele><time>2026-04-04T14:14:35.902Z</time></trkpt><trkpt lat="45.29196013031613" lon="11.678905878305418"><ele>81.0</ele><time>2026-04-04T14:14:36.902Z</time></trkpt><trkpt lat="45.29202909835818" lon="11.679069136545845"><ele>83.5</ele><time>2026-04-04T14:14:37.902Z</time></trkpt><trkpt lat="45.29212152293138" lon="11.679212895165703"><ele>86.0</ele><time>2026-04-04T14:14:38.902Z</time></trkpt><trkpt lat="45.29222996565279" lon="11.679365339843882"><ele>82.33333333333334</ele><time>2026-04-04T14:14:39.902Z</time></trkpt><trkpt lat="45.29234718283793" lon="11.679513832962515"><ele>78.66666666666667</ele><time>2026-04-04T14:14:40.902Z</time></trkpt><trkpt lat="45.29245190808903" lon="11.679665497969268"><ele>75.0</ele><time>2026-04-04T14:14:41.902Z</time></trkpt><trkpt lat="45.292548464196564" lon="11.679824343331385"><ele>75.0</ele><time>2026-04-04T14:14:42.902Z</time></trkpt><trkpt lat="45.29263303340901" lon="11.679989801044984"><ele>75.0</ele><time>2026-04-04T14:14:43.902Z</time></trkpt><trkpt lat="45.29267710519213" lon="11.680179757780886"><ele>75.0</ele><time>2026-04-04T14:14:44.902Z</time></trkpt><trkpt lat="45.2927117805204" lon="11.680361761990529"><ele>75.0</ele><time>2026-04-04T14:14:45.902Z</time></trkpt><trkpt lat="45.29278223029167" lon="11.680522036282522"><ele>77.75</ele><time>2026-04-04T14:14:46.902Z</time></trkpt><trkpt lat="45.29284322942705" lon="11.68068306629957"><ele>80.5</ele><time>2026-04-04T14:14:47.902Z</time></trkpt><trkpt lat="45.29290195029862" lon="11.680835676590743"><ele>83.25</ele><time>2026-04-04T14:14:48.902Z</time></trkpt><trkpt lat="45.29296105142382" lon="11.681020313414948"><ele>86.0</ele><time>2026-04-04T14:14:49.902Z</time></trkpt><trkpt lat="45.2930200220055" lon="11.681179238722745"><ele>84.25</ele><time>2026-04-04T14:14:50.902Z</time></trkpt><trkpt lat="45.293073124176665" lon="11.681328761140762"><ele>82.5</ele><time>2026-04-04T14:14:51.902Z</time></trkpt><trkpt lat="45.29312517466079" lon="11.681493784316352"><ele>80.75</ele><time>2026-04-04T14:14:52.902Z</time></trkpt><trkpt lat="45.293148539203" lon="11.681673443450219"><ele>79.0</ele><time>2026-04-04T14:14:53.902Z</time></trkpt><trkpt lat="45.2931648097906" lon="11.681840393144894"><ele>79.2</ele><time>2026-04-04T14:14:54.902Z</time></trkpt><trkpt lat="45.29317061399806" lon="11.682004025178221"><ele>79.4</ele><time>2026-04-04T14:14:55.902Z</time></trkpt><trkpt lat="45.293171894030934" lon="11.682161267210414"><ele>79.6</ele><time>2026-04-04T14:14:56.902Z</time></trkpt><trkpt lat="45.29317583356878" lon="11.6823179484046"><ele>79.8</ele><time>2026-04-04T14:14:57.902Z</time></trkpt><trkpt lat="45.293184684238504" lon="11.682456995447852"><ele>80.0</ele><time>2026-04-04T14:14:58.902Z</time></trkpt><trkpt lat="45.293229375328345" lon="11.682574989491155"><ele>80.0</ele><time>2026-04-04T14:14:59.902Z</time></trkpt><trkpt lat="45.29327485280607" lon="11.68268166668217"><ele>80.0</ele><time>2026-04-04T14:15:00.901Z</time></trkpt><trkpt lat="45.29334922705812" lon="11.682757716473239"><ele>80.0</ele><time>2026-04-04T14:15:01.901Z</time></trkpt><trkpt lat="45.29343485153869" lon="11.682816765648164"><ele>80.0</ele><time>2026-04-04T14:15:02.901Z</time></trkpt><trkpt lat="45.2935347952292" lon="11.682866372170238"><ele>80.0</ele><time>2026-04-04T14:15:03.901Z</time></trkpt><trkpt lat="45.29363267844856" lon="11.682930536586221"><ele>81.0</ele><time>2026-04-04T14:15:04.901Z</time></trkpt><trkpt lat="45.29370510277358" lon="11.682998744619772"><ele>82.0</ele><time>2026-04-04T14:15:05.901Z</time></trkpt><trkpt lat="45.29375910521744" lon="11.683083440236084"><ele>83.0</ele><time>2026-04-04T14:15:06.901Z</time></trkpt><trkpt lat="45.29378420307598" lon="11.683202711275694"><ele>84.0</ele><time>2026-04-04T14:15:07.901Z</time></trkpt><trkpt lat="45.29379473611569" lon="11.68333322931094"><ele>85.0</ele><time>2026-04-04T14:15:08.901Z</time></trkpt><trkpt lat="45.2937977645066" lon="11.683485640664665"><ele>87.0</ele><time>2026-04-04T14:15:09.901Z</time></trkpt><trkpt lat="45.29379444159721" lon="11.68365314709062"><ele>89.0</ele><time>2026-04-04T14:15:10.901Z</time></trkpt><trkpt lat="45.29379744649084" lon="11.683839222919524"><ele>91.0</ele><time>2026-04-04T14:15:11.901Z</time></trkpt><trkpt lat="45.29381898959179" lon="11.68403098384817"><ele>93.0</ele><time>2026-04-04T14:15:12.901Z</time></trkpt><trkpt lat="45.29385605653209" lon="11.6841898948751"><ele>93.0</ele><time>2026-04-04T14:15:13.901Z</time></trkpt><trkpt lat="45.29386060798761" lon="11.684345367225216"><ele>93.0</ele><time>2026-04-04T14:15:14.901Z</time></trkpt><trkpt lat="45.293885116077846" lon="11.68448503832441"><ele>93.0</ele><time>2026-04-04T14:15:15.901Z</time></trkpt><trkpt lat="45.293910389602914" lon="11.684632868400938"><ele>93.0</ele><time>2026-04-04T14:15:16.901Z</time></trkpt><trkpt lat="45.29393415511115" lon="11.684785280613124"><ele>93.0</ele><time>2026-04-04T14:15:17.901Z</time></trkpt><trkpt lat="45.29395745466025" lon="11.684932766058253"><ele>92.4</ele><time>2026-04-04T14:15:18.901Z</time></trkpt><trkpt lat="45.29398156467231" lon="11.685073823794054"><ele>91.80000000000001</ele><time>2026-04-04T14:15:19.901Z</time></trkpt><trkpt lat="45.29400732117531" lon="11.685221691790742"><ele>91.2</ele><time>2026-04-04T14:15:20.901Z</time></trkpt><trkpt lat="45.29402918186048" lon="11.685364440478788"><ele>90.6</ele><time>2026-04-04T14:15:21.901Z</time></trkpt><trkpt lat="45.29405692441961" lon="11.685504712416993"><ele>90.0</ele><time>2026-04-04T14:15:22.901Z</time></trkpt><trkpt lat="45.294091099518" lon="11.685652289962965"><ele>90.0</ele><time>2026-04-04T14:15:23.901Z</time></trkpt><trkpt lat="45.294101469928115" lon="11.68579033915853"><ele>90.0</ele><time>2026-04-04T14:15:24.901Z</time></trkpt><trkpt lat="45.294144391289734" lon="11.685914225735486"><ele>90.0</ele><time>2026-04-04T14:15:25.901Z</time></trkpt><trkpt lat="45.29419492753509" lon="11.686023857221057"><ele>90.0</ele><time>2026-04-04T14:15:26.901Z</time></trkpt><trkpt lat="45.29426183033056" lon="11.686121308556883"><ele>90.0</ele><time>2026-04-04T14:15:27.901Z</time></trkpt><trkpt lat="45.29435297773769" lon="11.686194017606576"><ele>90.0</ele><time>2026-04-04T14:15:28.901Z</time></trkpt><trkpt lat="45.29445473499877" lon="11.686225658102114"><ele>90.0</ele><time>2026-04-04T14:15:29.901Z</time></trkpt><trkpt lat="45.294545634065756" lon="11.686245308491843"><ele>90.0</ele><time>2026-04-04T14:15:30.901Z</time></trkpt><trkpt lat="45.294643378091" lon="11.686269391800112"><ele>90.0</ele><time>2026-04-04T14:15:31.901Z</time></trkpt><trkpt lat="45.29473274197919" lon="11.68632228118072"><ele>90.0</ele><time>2026-04-04T14:15:32.901Z</time></trkpt><trkpt lat="45.29482196842563" lon="11.686394813213418"><ele>91.2</ele><time>2026-04-04T14:15:33.9Z</time></trkpt><trkpt lat="45.29491148874749" lon="11.686490423583493"><ele>92.4</ele><time>2026-04-04T14:15:34.9Z</time></trkpt><trkpt lat="45.29498863671161" lon="11.686595621253508"><ele>93.6</ele><time>2026-04-04T14:15:35.9Z</time></trkpt><trkpt lat="45.29506081544825" lon="11.686708804207568"><ele>94.8</ele><time>2026-04-04T14:15:36.9Z</time></trkpt><trkpt lat="45.295132807588274" lon="11.686819206368618"><ele>96.0</ele><time>2026-04-04T14:15:37.9Z</time></trkpt><trkpt lat="45.295196638138975" lon="11.686922262674123"><ele>96.57142857142857</ele><time>2026-04-04T14:15:38.9Z</time></trkpt><trkpt lat="45.29525500079983" lon="11.687007021356019"><ele>97.14285714285714</ele><time>2026-04-04T14:15:39.9Z</time></trkpt><trkpt lat="45.29530742534847" lon="11.687081134981065"><ele>97.71428571428572</ele><time>2026-04-04T14:15:40.9Z</time></trkpt><trkpt lat="45.29535128119362" lon="11.687160545761015"><ele>98.28571428571428</ele><time>2026-04-04T14:15:41.9Z</time></trkpt><trkpt lat="45.295381797076395" lon="11.687250424040512"><ele>98.85714285714286</ele><time>2026-04-04T14:15:42.9Z</time></trkpt><trkpt lat="45.29541456318029" lon="11.687339349516852"><ele>99.42857142857143</ele><time>2026-04-04T14:15:43.9Z</time></trkpt><trkpt lat="45.29543447099349" lon="11.687429511128439"><ele>100.0</ele><time>2026-04-04T14:15:44.9Z</time></trkpt><trkpt lat="45.29543177321169" lon="11.687532512385044"><ele>100.0</ele><time>2026-04-04T14:15:45.9Z</time></trkpt><trkpt lat="45.29538274053398" lon="11.687623257063809"><ele>100.0</ele><time>2026-04-04T14:15:46.9Z</time></trkpt><trkpt lat="45.29534546886255" lon="11.687733966611523"><ele>100.0</ele><time>2026-04-04T14:15:47.9Z</time></trkpt><trkpt lat="45.295306804173926" lon="11.687858891423085"><ele>100.0</ele><time>2026-04-04T14:15:48.9Z</time></trkpt><trkpt lat="45.29526772557444" lon="11.687992332745871"><ele>100.0</ele><time>2026-04-04T14:15:49.9Z</time></trkpt><trkpt lat="45.295232561482464" lon="11.688130478116555"><ele>99.8</ele><time>2026-04-04T14:15:50.9Z</time></trkpt><trkpt lat="45.29520682325856" lon="11.688269289078843"><ele>99.6</ele><time>2026-04-04T14:15:51.9Z</time></trkpt><trkpt lat="45.2951897587339" lon="11.688420071531489"><ele>99.4</ele><time>2026-04-04T14:15:52.9Z</time></trkpt><trkpt lat="45.29518984499848" lon="11.68857468993179"><ele>99.2</ele><time>2026-04-04T14:15:53.9Z</time></trkpt><trkpt lat="45.29520239810298" lon="11.68871923016821"><ele>99.0</ele><time>2026-04-04T14:15:54.9Z</time></trkpt><trkpt lat="45.29523201537819" lon="11.688860080023906"><ele>99.0</ele><time>2026-04-04T14:15:55.9Z</time></trkpt><trkpt lat="45.295285005548074" lon="11.68899024136253"><ele>99.0</ele><time>2026-04-04T14:15:56.9Z</time></trkpt><trkpt lat="45.29534884975125" lon="11.689117473898234"><ele>99.0</ele><time>2026-04-04T14:15:57.9Z</time></trkpt><trkpt lat="45.2954120477787" lon="11.689242105366976"><ele>99.0</ele><time>2026-04-04T14:15:58.9Z</time></trkpt><trkpt lat="45.29548671485955" lon="11.689350864243044"><ele>99.0</ele><time>2026-04-04T14:15:59.9Z</time></trkpt><trkpt lat="45.295526302432975" lon="11.689477608397295"><ele>99.0</ele><time>2026-04-04T14:16:00.9Z</time></trkpt><trkpt lat="45.29557657191907" lon="11.689588959351624"><ele>99.0</ele><time>2026-04-04T14:16:01.9Z</time></trkpt><trkpt lat="45.29562334911252" lon="11.689689018556503"><ele>99.0</ele><time>2026-04-04T14:16:02.9Z</time></trkpt><trkpt lat="45.295671354277914" lon="11.689783321675097"><ele>99.0</ele><time>2026-04-04T14:16:03.9Z</time></trkpt><trkpt lat="45.29573450211532" lon="11.689882012869173"><ele>99.0</ele><time>2026-04-04T14:16:04.9Z</time></trkpt><trkpt lat="45.29581239144212" lon="11.689981623330052"><ele>100.6</ele><time>2026-04-04T14:16:05.9Z</time></trkpt><trkpt lat="45.295867670678696" lon="11.6900820206658"><ele>102.2</ele><time>2026-04-04T14:16:06.9Z</time></trkpt><trkpt lat="45.29593849092807" lon="11.69014152847799"><ele>103.79999999999998</ele><time>2026-04-04T14:16:07.899Z</time></trkpt><trkpt lat="45.29603949631298" lon="11.690153928537857"><ele>105.39999999999999</ele><time>2026-04-04T14:16:09.899Z</time></trkpt><trkpt lat="45.2960947990058" lon="11.690027917378693"><ele>107.0</ele><time>2026-04-04T14:16:11.899Z</time></trkpt><trkpt lat="45.296104651673105" lon="11.689869095439034"><ele>107.0</ele><time>2026-04-04T14:16:12.899Z</time></trkpt><trkpt lat="45.296082940068565" lon="11.689707967447546"><ele>107.0</ele><time>2026-04-04T14:16:13.899Z</time></trkpt><trkpt lat="45.29604772442747" lon="11.689527261219094"><ele>107.0</ele><time>2026-04-04T14:16:14.899Z</time></trkpt><trkpt lat="45.29601352409962" lon="11.689348845291637"><ele>107.0</ele><time>2026-04-04T14:16:15.899Z</time></trkpt><trkpt lat="45.29599039459436" lon="11.68919448876142"><ele>107.8</ele><time>2026-04-04T14:16:16.899Z</time></trkpt><trkpt lat="45.295989593389045" lon="11.689062491763819"><ele>108.6</ele><time>2026-04-04T14:16:17.899Z</time></trkpt><trkpt lat="45.29601088373353" lon="11.688928768800464"><ele>109.39999999999999</ele><time>2026-04-04T14:16:18.899Z</time></trkpt><trkpt lat="45.29605450624348" lon="11.688790665840871"><ele>110.19999999999999</ele><time>2026-04-04T14:16:19.899Z</time></trkpt><trkpt lat="45.29611381451412" lon="11.688644076834033"><ele>111.0</ele><time>2026-04-04T14:16:20.899Z</time></trkpt><trkpt lat="45.29619180811363" lon="11.688512453480353"><ele>111.75</ele><time>2026-04-04T14:16:21.899Z</time></trkpt><trkpt lat="45.29628800745702" lon="11.688404093644342"><ele>112.5</ele><time>2026-04-04T14:16:22.899Z</time></trkpt><trkpt lat="45.296396623411894" lon="11.688333188086217"><ele>113.25</ele><time>2026-04-04T14:16:23.899Z</time></trkpt><trkpt lat="45.29650339009878" lon="11.68830961993428"><ele>114.0</ele><time>2026-04-04T14:16:24.899Z</time></trkpt><trkpt lat="45.296625215709625" lon="11.688305647614483"><ele>116.75</ele><time>2026-04-04T14:16:25.9Z</time></trkpt><trkpt lat="45.29676616635026" lon="11.68830092409178"><ele>119.5</ele><time>2026-04-04T14:16:26.901Z</time></trkpt><trkpt lat="45.29691438851648" lon="11.688289900582204"><ele>122.25</ele><time>2026-04-04T14:16:27.901Z</time></trkpt><trkpt lat="45.29705656824108" lon="11.688275345403232"><ele>125.0</ele><time>2026-04-04T14:16:28.9Z</time></trkpt><trkpt lat="45.2971897497223" lon="11.688247087247685"><ele>127.25</ele><time>2026-04-04T14:16:29.9Z</time></trkpt><trkpt lat="45.297303741169245" lon="11.688223435129233"><ele>129.5</ele><time>2026-04-04T14:16:30.9Z</time></trkpt><trkpt lat="45.29742568079093" lon="11.688203644784762"><ele>131.75</ele><time>2026-04-04T14:16:31.901Z</time></trkpt><trkpt lat="45.29755178966184" lon="11.6882244724309"><ele>134.0</ele><time>2026-04-04T14:16:32.9Z</time></trkpt><trkpt lat="45.29766839039712" lon="11.688243952495784"><ele>134.0</ele><time>2026-04-04T14:16:33.9Z</time></trkpt><trkpt lat="45.297779783508126" lon="11.688267261455334"><ele>134.0</ele><time>2026-04-04T14:16:34.901Z</time></trkpt><trkpt lat="45.29787645802981" lon="11.688303794125831"><ele>134.0</ele><time>2026-04-04T14:16:35.9Z</time></trkpt><trkpt lat="45.29795938144516" lon="11.688352144766565"><ele>134.0</ele><time>2026-04-04T14:16:36.9Z</time></trkpt><trkpt lat="45.2980219868705" lon="11.688450633165226"><ele>134.0</ele><time>2026-04-04T14:16:37.9Z</time></trkpt><trkpt lat="45.29806224741499" lon="11.688584195596333"><ele>139.5</ele><time>2026-04-04T14:16:38.901Z</time></trkpt><trkpt lat="45.298090096928085" lon="11.688746628694902"><ele>145.0</ele><time>2026-04-04T14:16:39.9Z</time></trkpt><trkpt lat="45.29812188369162" lon="11.68894134875789"><ele>150.5</ele><time>2026-04-04T14:16:40.9Z</time></trkpt><trkpt lat="45.29814986128532" lon="11.689146101198643"><ele>156.0</ele><time>2026-04-04T14:16:41.9Z</time></trkpt><trkpt lat="45.29815213164233" lon="11.689372465024068"><ele>157.5</ele><time>2026-04-04T14:16:42.9Z</time></trkpt><trkpt lat="45.29814078585857" lon="11.689602130382049"><ele>159.0</ele><time>2026-04-04T14:16:43.9Z</time></trkpt><trkpt lat="45.298123632897266" lon="11.689806844236923"><ele>160.5</ele><time>2026-04-04T14:16:44.9Z</time></trkpt><trkpt lat="45.29809935365204" lon="11.689981210097448"><ele>162.0</ele><time>2026-04-04T14:16:45.9Z</time></trkpt><trkpt lat="45.29807107164437" lon="11.690125357072713"><ele>162.16666666666666</ele><time>2026-04-04T14:16:46.9Z</time></trkpt><trkpt lat="45.2980369970992" lon="11.690247972317326"><ele>162.33333333333334</ele><time>2026-04-04T14:16:47.9Z</time></trkpt><trkpt lat="45.29800998790862" lon="11.690356062330935"><ele>162.5</ele><time>2026-04-04T14:16:48.9Z</time></trkpt><trkpt lat="45.29800915913432" lon="11.690451408339554"><ele>162.66666666666669</ele><time>2026-04-04T14:16:49.9Z</time></trkpt><trkpt lat="45.29809894057133" lon="11.690568751896745"><ele>162.83333333333334</ele><time>2026-04-04T14:16:51.9Z</time></trkpt><trkpt lat="45.29817049996192" lon="11.690548089270557"><ele>163.0</ele><time>2026-04-04T14:16:52.9Z</time></trkpt><trkpt lat="45.29824319274353" lon="11.690453467527918"><ele>163.0</ele><time>2026-04-04T14:16:53.9Z</time></trkpt><trkpt lat="45.2983222729671" lon="11.690317927659189"><ele>163.0</ele><time>2026-04-04T14:16:54.9Z</time></trkpt><trkpt lat="45.29841677152878" lon="11.690170520332064"><ele>163.0</ele><time>2026-04-04T14:16:55.9Z</time></trkpt><trkpt lat="45.298506509352436" lon="11.690012834155498"><ele>163.0</ele><time>2026-04-04T14:16:56.9Z</time></trkpt><trkpt lat="45.29859785887184" lon="11.689878661510345"><ele>162.75</ele><time>2026-04-04T14:16:57.9Z</time></trkpt><trkpt lat="45.29870037783067" lon="11.68978702579663"><ele>162.5</ele><time>2026-04-04T14:16:58.9Z</time></trkpt><trkpt lat="45.29881748575201" lon="11.689733365652053"><ele>162.25</ele><time>2026-04-04T14:16:59.9Z</time></trkpt><trkpt lat="45.29893359351768" lon="11.689695435010687"><ele>162.0</ele><time>2026-04-04T14:17:00.9Z</time></trkpt><trkpt lat="45.29903931525404" lon="11.689627255781575"><ele>164.25</ele><time>2026-04-04T14:17:01.9Z</time></trkpt><trkpt lat="45.29911022709752" lon="11.689508980891098"><ele>166.5</ele><time>2026-04-04T14:17:02.9Z</time></trkpt><trkpt lat="45.29915819477133" lon="11.68934787614026"><ele>168.75</ele><time>2026-04-04T14:17:03.9Z</time></trkpt><trkpt lat="45.299215957645" lon="11.689164000950598"><ele>171.0</ele><time>2026-04-04T14:17:04.9Z</time></trkpt><trkpt lat="45.29929231052639" lon="11.688983734605511"><ele>171.0</ele><time>2026-04-04T14:17:05.9Z</time></trkpt><trkpt lat="45.29938724410937" lon="11.688842802011367"><ele>171.0</ele><time>2026-04-04T14:17:06.9Z</time></trkpt><trkpt lat="45.299471641757854" lon="11.688715455766651"><ele>171.0</ele><time>2026-04-04T14:17:07.9Z</time></trkpt><trkpt lat="45.29954721656584" lon="11.68861615377203"><ele>171.0</ele><time>2026-04-04T14:17:08.9Z</time></trkpt><trkpt lat="45.299634109060804" lon="11.688562036864658"><ele>170.60000000000002</ele><time>2026-04-04T14:17:09.9Z</time></trkpt><trkpt lat="45.299715635409804" lon="11.688549433779514"><ele>170.2</ele><time>2026-04-04T14:17:10.9Z</time></trkpt><trkpt lat="45.299796617810806" lon="11.688561603146889"><ele>169.8</ele><time>2026-04-04T14:17:11.9Z</time></trkpt><trkpt lat="45.29989193423271" lon="11.688609059222783"><ele>169.39999999999998</ele><time>2026-04-04T14:17:12.9Z</time></trkpt><trkpt lat="45.29997045766018" lon="11.688730710219573"><ele>169.0</ele><time>2026-04-04T14:17:13.899Z</time></trkpt><trkpt lat="45.30003351091123" lon="11.688894835992949"><ele>171.33333333333334</ele><time>2026-04-04T14:17:14.899Z</time></trkpt><trkpt lat="45.300116414124695" lon="11.689078036132333"><ele>173.66666666666666</ele><time>2026-04-04T14:17:15.899Z</time></trkpt><trkpt lat="45.30021135424638" lon="11.68925845092831"><ele>176.0</ele><time>2026-04-04T14:17:16.899Z</time></trkpt><trkpt lat="45.300304246602515" lon="11.689446421046108"><ele>178.0</ele><time>2026-04-04T14:17:17.899Z</time></trkpt><trkpt lat="45.30039889335502" lon="11.689634725783618"><ele>180.0</ele><time>2026-04-04T14:17:18.899Z</time></trkpt><trkpt lat="45.3005045327077" lon="11.689823189276384"><ele>182.0</ele><time>2026-04-04T14:17:19.899Z</time></trkpt><trkpt lat="45.300603320970275" lon="11.690014453646311"><ele>183.0</ele><time>2026-04-04T14:17:20.899Z</time></trkpt><trkpt lat="45.30069631786705" lon="11.69020168698686"><ele>184.0</ele><time>2026-04-04T14:17:21.899Z</time></trkpt><trkpt lat="45.30078404641881" lon="11.690389556521128"><ele>185.0</ele><time>2026-04-04T14:17:22.899Z</time></trkpt><trkpt lat="45.30086406232762" lon="11.69058307883089"><ele>184.5</ele><time>2026-04-04T14:17:23.899Z</time></trkpt><trkpt lat="45.30093915834396" lon="11.690773719467437"><ele>184.0</ele><time>2026-04-04T14:17:24.899Z</time></trkpt><trkpt lat="45.30101123647785" lon="11.690945984778475"><ele>183.5</ele><time>2026-04-04T14:17:25.899Z</time></trkpt><trkpt lat="45.301077484423516" lon="11.691102843609135"><ele>183.0</ele><time>2026-04-04T14:17:26.899Z</time></trkpt><trkpt lat="45.30114609864203" lon="11.69124086443955"><ele>183.0</ele><time>2026-04-04T14:17:27.899Z</time></trkpt><trkpt lat="45.30122288575468" lon="11.691360385723861"><ele>183.0</ele><time>2026-04-04T14:17:28.899Z</time></trkpt><trkpt lat="45.301320950868856" lon="11.691450081203909"><ele>183.0</ele><time>2026-04-04T14:17:29.899Z</time></trkpt><trkpt lat="45.301441375705046" lon="11.691512307002894"><ele>183.0</ele><time>2026-04-04T14:17:30.899Z</time></trkpt><trkpt lat="45.30159015710479" lon="11.691516003130827"><ele>186.33333333333331</ele><time>2026-04-04T14:17:31.899Z</time></trkpt><trkpt lat="45.30175628416912" lon="11.691495758310891"><ele>189.66666666666666</ele><time>2026-04-04T14:17:32.899Z</time></trkpt><trkpt lat="45.30192315516459" lon="11.69147111230473"><ele>193.0</ele><time>2026-04-04T14:17:33.899Z</time></trkpt><trkpt lat="45.30208908617345" lon="11.69144670162924"><ele>197.0</ele><time>2026-04-04T14:17:34.899Z</time></trkpt><trkpt lat="45.30225891773831" lon="11.691451128887278"><ele>201.0</ele><time>2026-04-04T14:17:35.899Z</time></trkpt><trkpt lat="45.30243269902402" lon="11.691493950202931"><ele>205.0</ele><time>2026-04-04T14:17:36.899Z</time></trkpt><trkpt lat="45.3026053873427" lon="11.691540042766174"><ele>205.0</ele><time>2026-04-04T14:17:37.899Z</time></trkpt><trkpt lat="45.30276199792962" lon="11.691575343368342"><ele>205.0</ele><time>2026-04-04T14:17:38.899Z</time></trkpt><trkpt lat="45.30290946069566" lon="11.691629031782105"><ele>205.0</ele><time>2026-04-04T14:17:39.899Z</time></trkpt><trkpt lat="45.30304958170171" lon="11.691708790028754"><ele>206.0</ele><time>2026-04-04T14:17:40.899Z</time></trkpt><trkpt lat="45.30318148175603" lon="11.691829369790618"><ele>207.0</ele><time>2026-04-04T14:17:41.899Z</time></trkpt><trkpt lat="45.303308168322076" lon="11.691962963287232"><ele>208.0</ele><time>2026-04-04T14:17:42.899Z</time></trkpt><trkpt lat="45.30343750092119" lon="11.69208970151723"><ele>209.0</ele><time>2026-04-04T14:17:43.899Z</time></trkpt><trkpt lat="45.30357300106782" lon="11.692217924076907"><ele>210.0</ele><time>2026-04-04T14:17:44.899Z</time></trkpt><trkpt lat="45.30371147726087" lon="11.692351494548491"><ele>211.0</ele><time>2026-04-04T14:17:45.899Z</time></trkpt><trkpt lat="45.30384393274437" lon="11.692485547256291"><ele>212.66666666666666</ele><time>2026-04-04T14:17:46.899Z</time></trkpt><trkpt lat="45.30397726136511" lon="11.692606500777789"><ele>214.33333333333331</ele><time>2026-04-04T14:17:47.898Z</time></trkpt><trkpt lat="45.304118902911526" lon="11.692708807151131"><ele>216.0</ele><time>2026-04-04T14:17:48.898Z</time></trkpt><trkpt lat="45.30425824002319" lon="11.69278261842664"><ele>216.0</ele><time>2026-04-04T14:17:49.898Z</time></trkpt><trkpt lat="45.304386981527884" lon="11.69285262853245"><ele>216.0</ele><time>2026-04-04T14:17:50.898Z</time></trkpt><trkpt lat="45.304508233629264" lon="11.692968280364395"><ele>216.0</ele><time>2026-04-04T14:17:51.898Z</time></trkpt><trkpt lat="45.304622687661244" lon="11.69311402332244"><ele>216.0</ele><time>2026-04-04T14:17:52.898Z</time></trkpt><trkpt lat="45.304727611148714" lon="11.693289390004503"><ele>221.0</ele><time>2026-04-04T14:17:53.898Z</time></trkpt><trkpt lat="45.304817286199054" lon="11.693482341619141"><ele>226.0</ele><time>2026-04-04T14:17:54.898Z</time></trkpt><trkpt lat="45.30488825303795" lon="11.693678340217282"><ele>231.0</ele><time>2026-04-04T14:17:55.898Z</time></trkpt><trkpt lat="45.30494438837725" lon="11.69386980946557"><ele>231.0</ele><time>2026-04-04T14:17:56.898Z</time></trkpt><trkpt lat="45.30499371995402" lon="11.6940434802984"><ele>231.0</ele><time>2026-04-04T14:17:57.898Z</time></trkpt><trkpt lat="45.30505231455324" lon="11.694201200498416"><ele>231.0</ele><time>2026-04-04T14:17:58.898Z</time></trkpt><trkpt lat="45.30513174424593" lon="11.694357092481518"><ele>231.0</ele><time>2026-04-04T14:17:59.898Z</time></trkpt><trkpt lat="45.30523592046781" lon="11.694501611568262"><ele>231.5</ele><time>2026-04-04T14:18:00.898Z</time></trkpt><trkpt lat="45.30533351925928" lon="11.694655364470758"><ele>232.0</ele><time>2026-04-04T14:18:01.898Z</time></trkpt><trkpt lat="45.3053792494394" lon="11.694843535917176"><ele>232.5</ele><time>2026-04-04T14:18:02.898Z</time></trkpt><trkpt lat="45.30542636614662" lon="11.695039861287091"><ele>233.0</ele><time>2026-04-04T14:18:03.898Z</time></trkpt><trkpt lat="45.30547415456076" lon="11.695246416135532"><ele>234.66666666666669</ele><time>2026-04-04T14:18:04.898Z</time></trkpt><trkpt lat="45.30552461020279" lon="11.695464417922349"><ele>236.33333333333331</ele><time>2026-04-04T14:18:05.898Z</time></trkpt><trkpt lat="45.3055786650109" lon="11.695676857983576"><ele>238.0</ele><time>2026-04-04T14:18:06.898Z</time></trkpt><trkpt lat="45.305640367373634" lon="11.695869676024397"><ele>243.66666666666666</ele><time>2026-04-04T14:18:07.898Z</time></trkpt><trkpt lat="45.30570777868336" lon="11.696054960416703"><ele>249.33333333333331</ele><time>2026-04-04T14:18:08.898Z</time></trkpt><trkpt lat="45.30577519328455" lon="11.69625172073858"><ele>255.0</ele><time>2026-04-04T14:18:09.898Z</time></trkpt><trkpt lat="45.30582563475829" lon="11.696467876065215"><ele>256.0</ele><time>2026-04-04T14:18:10.898Z</time></trkpt><trkpt lat="45.305873171399426" lon="11.696698437804097"><ele>257.0</ele><time>2026-04-04T14:18:11.898Z</time></trkpt><trkpt lat="45.30591963047731" lon="11.696928404525535"><ele>258.0</ele><time>2026-04-04T14:18:12.898Z</time></trkpt><trkpt lat="45.305974176278056" lon="11.697162598173378"><ele>258.6666666666667</ele><time>2026-04-04T14:18:13.898Z</time></trkpt><trkpt lat="45.30604025850998" lon="11.697389798428077"><ele>259.33333333333337</ele><time>2026-04-04T14:18:14.898Z</time></trkpt><trkpt lat="45.306119957421224" lon="11.697606423246901"><ele>260.0</ele><time>2026-04-04T14:18:15.898Z</time></trkpt><trkpt lat="45.306200335529304" lon="11.697801469020325"><ele>262.2</ele><time>2026-04-04T14:18:16.898Z</time></trkpt><trkpt lat="45.306252135461165" lon="11.697929046784274"><ele>264.4</ele><time>2026-04-04T14:18:17.898Z</time></trkpt><trkpt lat="45.306290466694364" lon="11.698023571817265"><ele>266.6</ele><time>2026-04-04T14:18:18.898Z</time></trkpt><trkpt lat="45.30634262631438" lon="11.698152195404676"><ele>268.8</ele><time>2026-04-04T14:18:20.898Z</time></trkpt><trkpt lat="45.30640676938692" lon="11.698268965301256"><ele>271.0</ele><time>2026-04-04T14:18:22.897Z</time></trkpt><trkpt lat="45.30644319042037" lon="11.698362026239145"><ele>271.0</ele><time>2026-04-04T14:18:23.897Z</time></trkpt><trkpt lat="45.30648707154229" lon="11.698476854853562"><ele>271.0</ele><time>2026-04-04T14:18:24.897Z</time></trkpt><trkpt lat="45.30651637296027" lon="11.698620966997087"><ele>271.0</ele><time>2026-04-04T14:18:25.897Z</time></trkpt><trkpt lat="45.30653305801153" lon="11.698775898852379"><ele>271.0</ele><time>2026-04-04T14:18:26.897Z</time></trkpt><trkpt lat="45.30653461860857" lon="11.698949469167362"><ele>271.0</ele><time>2026-04-04T14:18:27.897Z</time></trkpt><trkpt lat="45.30653323268104" lon="11.699149626211751"><ele>269.3333333333333</ele><time>2026-04-04T14:18:28.897Z</time></trkpt><trkpt lat="45.30655344717715" lon="11.699387600417987"><ele>267.6666666666667</ele><time>2026-04-04T14:18:29.897Z</time></trkpt><trkpt lat="45.30659947959894" lon="11.699647339099936"><ele>266.0</ele><time>2026-04-04T14:18:30.897Z</time></trkpt><trkpt lat="45.30665739100964" lon="11.699930287426623"><ele>264.0</ele><time>2026-04-04T14:18:31.898Z</time></trkpt><trkpt lat="45.30672004359908" lon="11.7002320568674"><ele>262.0</ele><time>2026-04-04T14:18:32.897Z</time></trkpt><trkpt lat="45.306783746997695" lon="11.700539023673029"><ele>260.0</ele><time>2026-04-04T14:18:33.897Z</time></trkpt><trkpt lat="45.30684494808511" lon="11.700839486853752"><ele>260.0</ele><time>2026-04-04T14:18:34.898Z</time></trkpt><trkpt lat="45.30689997928191" lon="11.701108379596146"><ele>260.0</ele><time>2026-04-04T14:18:35.898Z</time></trkpt><trkpt lat="45.30694478149561" lon="11.701331418608104"><ele>260.0</ele><time>2026-04-04T14:18:36.898Z</time></trkpt><trkpt lat="45.30697516532384" lon="11.70152391429886"><ele>260.0</ele><time>2026-04-04T14:18:37.898Z</time></trkpt><trkpt lat="45.30697867230756" lon="11.7016924898567"><ele>260.0</ele><time>2026-04-04T14:18:38.898Z</time></trkpt><trkpt lat="45.30695468135052" lon="11.701850418762668"><ele>260.0</ele><time>2026-04-04T14:18:39.898Z</time></trkpt><trkpt lat="45.30689988132347" lon="11.702001374670377"><ele>260.0</ele><time>2026-04-04T14:18:40.897Z</time></trkpt><trkpt lat="45.30681954248251" lon="11.702147286960427"><ele>256.33333333333337</ele><time>2026-04-04T14:18:41.897Z</time></trkpt><trkpt lat="45.30670741252751" lon="11.702322688961406"><ele>252.66666666666669</ele><time>2026-04-04T14:18:42.897Z</time></trkpt><trkpt lat="45.30659154804804" lon="11.702502993221604"><ele>249.0</ele><time>2026-04-04T14:18:43.897Z</time></trkpt><trkpt lat="45.30648755790705" lon="11.7026779155243"><ele>250.0</ele><time>2026-04-04T14:18:44.898Z</time></trkpt><trkpt lat="45.30640598787961" lon="11.702871409273596"><ele>251.0</ele><time>2026-04-04T14:18:45.898Z</time></trkpt><trkpt lat="45.3063701936444" lon="11.703076452559758"><ele>252.0</ele><time>2026-04-04T14:18:46.898Z</time></trkpt><trkpt lat="45.30637410657432" lon="11.703260936641033"><ele>253.0</ele><time>2026-04-04T14:18:47.898Z</time></trkpt><trkpt lat="45.3063488935342" lon="11.703417975444198"><ele>253.0</ele><time>2026-04-04T14:18:48.898Z</time></trkpt><trkpt lat="45.30627519413886" lon="11.703542765877405"><ele>253.0</ele><time>2026-04-04T14:18:49.898Z</time></trkpt><trkpt lat="45.30619439968788" lon="11.703618156324298"><ele>253.0</ele><time>2026-04-04T14:18:50.898Z</time></trkpt><trkpt lat="45.306103274669205" lon="11.703658129843367"><ele>253.0</ele><time>2026-04-04T14:18:51.898Z</time></trkpt><trkpt lat="45.30600287189675" lon="11.70364978054213"><ele>253.0</ele><time>2026-04-04T14:18:52.898Z</time></trkpt><trkpt lat="45.30591231000568" lon="11.703599746480517"><ele>253.0</ele><time>2026-04-04T14:18:53.898Z</time></trkpt><trkpt lat="45.30581126909437" lon="11.703532689137186"><ele>253.0</ele><time>2026-04-04T14:18:54.898Z</time></trkpt><trkpt lat="45.3056866395758" lon="11.703480531435599"><ele>253.0</ele><time>2026-04-04T14:18:55.898Z</time></trkpt><trkpt lat="45.30552960482779" lon="11.703500370282871"><ele>253.0</ele><time>2026-04-04T14:18:56.898Z</time></trkpt><trkpt lat="45.30538542915515" lon="11.703557777764695"><ele>249.5</ele><time>2026-04-04T14:18:57.897Z</time></trkpt><trkpt lat="45.30525861654183" lon="11.703621523985817"><ele>246.0</ele><time>2026-04-04T14:18:58.897Z</time></trkpt><trkpt lat="45.30515340742198" lon="11.703727288334893"><ele>242.5</ele><time>2026-04-04T14:18:59.897Z</time></trkpt><trkpt lat="45.30508604840999" lon="11.703898945208415"><ele>239.0</ele><time>2026-04-04T14:19:00.897Z</time></trkpt><trkpt lat="45.30505007657731" lon="11.704077188135255"><ele>239.0</ele><time>2026-04-04T14:19:01.897Z</time></trkpt><trkpt lat="45.30502058207371" lon="11.704244943453624"><ele>238.99999999999997</ele><time>2026-04-04T14:19:02.897Z</time></trkpt><trkpt lat="45.30499443262233" lon="11.704399481398063"><ele>238.99999999999997</ele><time>2026-04-04T14:19:03.897Z</time></trkpt><trkpt lat="45.30495987907297" lon="11.704546068522014"><ele>239.0</ele><time>2026-04-04T14:19:04.897Z</time></trkpt><trkpt lat="45.304909590240904" lon="11.704668155201547"><ele>239.0</ele><time>2026-04-04T14:19:05.897Z</time></trkpt><trkpt lat="45.30482575815939" lon="11.704790120163098"><ele>240.25</ele><time>2026-04-04T14:19:06.897Z</time></trkpt><trkpt lat="45.30472497742994" lon="11.70492529579736"><ele>241.5</ele><time>2026-04-04T14:19:07.897Z</time></trkpt><trkpt lat="45.304634539073874" lon="11.70504917145255"><ele>242.75</ele><time>2026-04-04T14:19:08.897Z</time></trkpt><trkpt lat="45.304551755347056" lon="11.705180396754995"><ele>244.0</ele><time>2026-04-04T14:19:09.897Z</time></trkpt><trkpt lat="45.30448502837728" lon="11.705333754380222"><ele>239.0</ele><time>2026-04-04T14:19:10.897Z</time></trkpt><trkpt lat="45.304444755753146" lon="11.705517618189855"><ele>234.0</ele><time>2026-04-04T14:19:11.897Z</time></trkpt><trkpt lat="45.304421570544676" lon="11.705695409650902"><ele>229.0</ele><time>2026-04-04T14:19:12.897Z</time></trkpt><trkpt lat="45.304387151049895" lon="11.705855638419061"><ele>224.0</ele><time>2026-04-04T14:19:13.897Z</time></trkpt><trkpt lat="45.30432410357118" lon="11.705976368885356"><ele>224.0</ele><time>2026-04-04T14:19:14.897Z</time></trkpt><trkpt lat="45.3042440512907" lon="11.706061643229715"><ele>223.99999999999997</ele><time>2026-04-04T14:19:15.897Z</time></trkpt><trkpt lat="45.30414089650722" lon="11.70611101326511"><ele>223.99999999999997</ele><time>2026-04-04T14:19:16.897Z</time></trkpt><trkpt lat="45.30403918877268" lon="11.706096803150837"><ele>224.0</ele><time>2026-04-04T14:19:17.897Z</time></trkpt><trkpt lat="45.3039108053912" lon="11.70605544451443"><ele>224.0</ele><time>2026-04-04T14:19:18.897Z</time></trkpt><trkpt lat="45.303755185557485" lon="11.706012542170596"><ele>226.33333333333334</ele><time>2026-04-04T14:19:19.897Z</time></trkpt><trkpt lat="45.30360327351524" lon="11.705972226297385"><ele>228.66666666666669</ele><time>2026-04-04T14:19:20.897Z</time></trkpt><trkpt lat="45.30344620406653" lon="11.705975718490947"><ele>231.0</ele><time>2026-04-04T14:19:21.897Z</time></trkpt><trkpt lat="45.30329767353849" lon="11.706049378262957"><ele>228.25</ele><time>2026-04-04T14:19:22.897Z</time></trkpt><trkpt lat="45.303165251366956" lon="11.706115811650973"><ele>225.5</ele><time>2026-04-04T14:19:23.897Z</time></trkpt><trkpt lat="45.30304479031008" lon="11.706171809280894"><ele>222.75</ele><time>2026-04-04T14:19:24.897Z</time></trkpt><trkpt lat="45.30294664476427" lon="11.706221897178066"><ele>220.0</ele><time>2026-04-04T14:19:25.897Z</time></trkpt><trkpt lat="45.30282901049933" lon="11.706202402168561"><ele>220.0</ele><time>2026-04-04T14:19:26.897Z</time></trkpt><trkpt lat="45.30271598661136" lon="11.706226515699166"><ele>220.0</ele><time>2026-04-04T14:19:27.897Z</time></trkpt><trkpt lat="45.302628668515894" lon="11.706270712230765"><ele>220.0</ele><time>2026-04-04T14:19:28.897Z</time></trkpt><trkpt lat="45.30255971028365" lon="11.706360640878605"><ele>220.0</ele><time>2026-04-04T14:19:29.897Z</time></trkpt><trkpt lat="45.302517886842566" lon="11.706482271663493"><ele>220.0</ele><time>2026-04-04T14:19:30.897Z</time></trkpt><trkpt lat="45.30252245270373" lon="11.706639083968838"><ele>220.0</ele><time>2026-04-04T14:19:31.896Z</time></trkpt><trkpt lat="45.302570597973926" lon="11.706829378600617"><ele>220.0</ele><time>2026-04-04T14:19:32.896Z</time></trkpt><trkpt lat="45.30261389777116" lon="11.707069152318326"><ele>220.0</ele><time>2026-04-04T14:19:33.896Z</time></trkpt><trkpt lat="45.302657375017844" lon="11.707296775407764"><ele>219.0</ele><time>2026-04-04T14:19:34.896Z</time></trkpt><trkpt lat="45.30269203400407" lon="11.707542254838337"><ele>218.0</ele><time>2026-04-04T14:19:35.896Z</time></trkpt><trkpt lat="45.30271405325686" lon="11.707772611978779"><ele>217.0</ele><time>2026-04-04T14:19:36.896Z</time></trkpt><trkpt lat="45.302723173471854" lon="11.707983554965946"><ele>216.25</ele><time>2026-04-04T14:19:37.896Z</time></trkpt><trkpt lat="45.302702754217236" lon="11.708177933476748"><ele>215.5</ele><time>2026-04-04T14:19:38.896Z</time></trkpt><trkpt lat="45.30266853175216" lon="11.70837281020844"><ele>214.75</ele><time>2026-04-04T14:19:39.896Z</time></trkpt><trkpt lat="45.30262884358531" lon="11.708589541824878"><ele>214.0</ele><time>2026-04-04T14:19:40.896Z</time></trkpt><trkpt lat="45.30259861633918" lon="11.708806653134722"><ele>210.0</ele><time>2026-04-04T14:19:41.896Z</time></trkpt><trkpt lat="45.30257304967994" lon="11.708987827080634"><ele>206.0</ele><time>2026-04-04T14:19:42.896Z</time></trkpt><trkpt lat="45.30254304847822" lon="11.70914707700124"><ele>202.0</ele><time>2026-04-04T14:19:43.896Z</time></trkpt><trkpt lat="45.30249196501774" lon="11.709296504544618"><ele>198.0</ele><time>2026-04-04T14:19:44.896Z</time></trkpt><trkpt lat="45.30241076537252" lon="11.709458281873442"><ele>191.33333333333334</ele><time>2026-04-04T14:19:45.896Z</time></trkpt><trkpt lat="45.30232800831841" lon="11.709646470808387"><ele>184.66666666666669</ele><time>2026-04-04T14:19:46.896Z</time></trkpt><trkpt lat="45.302270417712734" lon="11.709847227220648"><ele>178.0</ele><time>2026-04-04T14:19:47.896Z</time></trkpt><trkpt lat="45.30225237236567" lon="11.7100471738791"><ele>176.2</ele><time>2026-04-04T14:19:48.896Z</time></trkpt><trkpt lat="45.30224087459164" lon="11.710230715471809"><ele>174.4</ele><time>2026-04-04T14:19:49.896Z</time></trkpt><trkpt lat="45.3022273218645" lon="11.71038966833657"><ele>172.6</ele><time>2026-04-04T14:19:50.896Z</time></trkpt><trkpt lat="45.302217211259965" lon="11.71051838184498"><ele>170.79999999999998</ele><time>2026-04-04T14:19:51.896Z</time></trkpt><trkpt lat="45.302235965435486" lon="11.71063479618432"><ele>169.0</ele><time>2026-04-04T14:19:52.896Z</time></trkpt><trkpt lat="45.30231086238517" lon="11.710691893324602"><ele>168.6</ele><time>2026-04-04T14:19:53.896Z</time></trkpt><trkpt lat="45.30244088541821" lon="11.710700215481502"><ele>168.2</ele><time>2026-04-04T14:19:55.896Z</time></trkpt><trkpt lat="45.30249439260014" lon="11.710628374367861"><ele>167.79999999999998</ele><time>2026-04-04T14:19:56.896Z</time></trkpt><trkpt lat="45.30251524633524" lon="11.710506352422806"><ele>167.39999999999998</ele><time>2026-04-04T14:19:57.896Z</time></trkpt><trkpt lat="45.30251017799572" lon="11.710355223211915"><ele>167.0</ele><time>2026-04-04T14:19:58.896Z</time></trkpt><trkpt lat="45.30250556889663" lon="11.710197123406548"><ele>169.75</ele><time>2026-04-04T14:19:59.896Z</time></trkpt><trkpt lat="45.302531158449234" lon="11.710036107142002"><ele>172.5</ele><time>2026-04-04T14:20:00.896Z</time></trkpt><trkpt lat="45.30258959584712" lon="11.70988545627488"><ele>175.25</ele><time>2026-04-04T14:20:01.896Z</time></trkpt><trkpt lat="45.302670580768726" lon="11.709727775278141"><ele>178.0</ele><time>2026-04-04T14:20:02.896Z</time></trkpt><trkpt lat="45.30276182259682" lon="11.70956806917367"><ele>178.0</ele><time>2026-04-04T14:20:03.896Z</time></trkpt><trkpt lat="45.30284651656536" lon="11.709451224062684"><ele>178.0</ele><time>2026-04-04T14:20:04.896Z</time></trkpt><trkpt lat="45.30293050590623" lon="11.709351370421992"><ele>178.0</ele><time>2026-04-04T14:20:05.895Z</time></trkpt><trkpt lat="45.303005987294625" lon="11.709277988931953"><ele>178.0</ele><time>2026-04-04T14:20:06.895Z</time></trkpt><trkpt lat="45.30307769335297" lon="11.709209116725075"><ele>178.0</ele><time>2026-04-04T14:20:07.895Z</time></trkpt><trkpt lat="45.30312044093849" lon="11.709118419599724"><ele>174.4</ele><time>2026-04-04T14:20:08.895Z</time></trkpt><trkpt lat="45.30313748118517" lon="11.709010677443388"><ele>170.8</ele><time>2026-04-04T14:20:09.895Z</time></trkpt><trkpt lat="45.30313388873033" lon="11.708882699983754"><ele>167.2</ele><time>2026-04-04T14:20:10.895Z</time></trkpt><trkpt lat="45.303122529663575" lon="11.708743970550154"><ele>163.6</ele><time>2026-04-04T14:20:11.895Z</time></trkpt><trkpt lat="45.303121680666806" lon="11.70859295677375"><ele>160.0</ele><time>2026-04-04T14:20:12.895Z</time></trkpt><trkpt lat="45.303139789153846" lon="11.708412088536841"><ele>160.0</ele><time>2026-04-04T14:20:13.895Z</time></trkpt><trkpt lat="45.30317172651089" lon="11.708235834061052"><ele>160.0</ele><time>2026-04-04T14:20:14.895Z</time></trkpt><trkpt lat="45.30320205490652" lon="11.708074304398247"><ele>160.0</ele><time>2026-04-04T14:20:15.895Z</time></trkpt><trkpt lat="45.30322329213299" lon="11.707939626385787"><ele>160.0</ele><time>2026-04-04T14:20:16.895Z</time></trkpt><trkpt lat="45.30325314881342" lon="11.707798272368594"><ele>160.0</ele><time>2026-04-04T14:20:17.895Z</time></trkpt><trkpt lat="45.30328092337867" lon="11.707669392338426"><ele>161.8</ele><time>2026-04-04T14:20:18.895Z</time></trkpt><trkpt lat="45.30329872839295" lon="11.70756528809966"><ele>163.6</ele><time>2026-04-04T14:20:19.895Z</time></trkpt><trkpt lat="45.303359655621094" lon="11.707509391470037"><ele>165.39999999999998</ele><time>2026-04-04T14:20:20.895Z</time></trkpt><trkpt lat="45.30345265344247" lon="11.707488740452145"><ele>167.2</ele><time>2026-04-04T14:20:21.895Z</time></trkpt><trkpt lat="45.303572422666086" lon="11.707519415611639"><ele>169.0</ele><time>2026-04-04T14:20:22.895Z</time></trkpt><trkpt lat="45.303707772536924" lon="11.70760013062765"><ele>169.0</ele><time>2026-04-04T14:20:23.895Z</time></trkpt><trkpt lat="45.3038581748846" lon="11.707650272943559"><ele>169.0</ele><time>2026-04-04T14:20:24.895Z</time></trkpt><trkpt lat="45.30404008221305" lon="11.707672594503155"><ele>169.0</ele><time>2026-04-04T14:20:25.895Z</time></trkpt><trkpt lat="45.3042228650438" lon="11.707667527367914"><ele>168.5</ele><time>2026-04-04T14:20:26.895Z</time></trkpt><trkpt lat="45.3043924126288" lon="11.707678427279733"><ele>168.0</ele><time>2026-04-04T14:20:27.895Z</time></trkpt><trkpt lat="45.30453969712647" lon="11.707681896561514"><ele>167.5</ele><time>2026-04-04T14:20:28.895Z</time></trkpt><trkpt lat="45.30466229016543" lon="11.707649216048063"><ele>167.0</ele><time>2026-04-04T14:20:29.895Z</time></trkpt><trkpt lat="45.30479680866411" lon="11.707579571618306"><ele>159.33333333333331</ele><time>2026-04-04T14:20:30.895Z</time></trkpt><trkpt lat="45.30492985876787" lon="11.707485646718016"><ele>151.66666666666666</ele><time>2026-04-04T14:20:31.895Z</time></trkpt><trkpt lat="45.30505907660776" lon="11.70736158509637"><ele>144.0</ele><time>2026-04-04T14:20:32.895Z</time></trkpt><trkpt lat="45.30518383272552" lon="11.707237447309218"><ele>144.0</ele><time>2026-04-04T14:20:33.895Z</time></trkpt><trkpt lat="45.305289671859526" lon="11.707146242181462"><ele>144.0</ele><time>2026-04-04T14:20:34.895Z</time></trkpt><trkpt lat="45.30540302171654" lon="11.707098590844481"><ele>144.0</ele><time>2026-04-04T14:20:35.895Z</time></trkpt><trkpt lat="45.3055481639892" lon="11.707056483060853"><ele>144.0</ele><time>2026-04-04T14:20:36.895Z</time></trkpt><trkpt lat="45.305693978587364" lon="11.707008294964288"><ele>145.75</ele><time>2026-04-04T14:20:37.895Z</time></trkpt><trkpt lat="45.30583560677407" lon="11.706938482692316"><ele>147.5</ele><time>2026-04-04T14:20:38.895Z</time></trkpt><trkpt lat="45.30597046535282" lon="11.706810012519405"><ele>149.25</ele><time>2026-04-04T14:20:39.895Z</time></trkpt><trkpt lat="45.30607468161345" lon="11.706696139525551"><ele>151.0</ele><time>2026-04-04T14:20:40.896Z</time></trkpt><trkpt lat="45.30621145506488" lon="11.706634939908115"><ele>151.0</ele><time>2026-04-04T14:20:41.895Z</time></trkpt><trkpt lat="45.30632445310334" lon="11.706576433345836"><ele>151.0</ele><time>2026-04-04T14:20:42.895Z</time></trkpt><trkpt lat="45.30641990810301" lon="11.706473169046324"><ele>151.0</ele><time>2026-04-04T14:20:43.896Z</time></trkpt><trkpt lat="45.306487101128255" lon="11.706363536367414"><ele>151.0</ele><time>2026-04-04T14:20:44.895Z</time></trkpt><trkpt lat="45.30654603748533" lon="11.706263530055852"><ele>151.0</ele><time>2026-04-04T14:20:45.895Z</time></trkpt><trkpt lat="45.30659959245905" lon="11.706172655154354"><ele>150.6</ele><time>2026-04-04T14:20:46.895Z</time></trkpt><trkpt lat="45.30668183143496" lon="11.706055693977198"><ele>150.2</ele><time>2026-04-04T14:20:48.895Z</time></trkpt><trkpt lat="45.30675849397299" lon="11.706161888823074"><ele>149.8</ele><time>2026-04-04T14:20:50.895Z</time></trkpt><trkpt lat="45.306774499099035" lon="11.70629925559951"><ele>149.4</ele><time>2026-04-04T14:20:51.895Z</time></trkpt><trkpt lat="45.30675695033102" lon="11.706451320678187"><ele>149.0</ele><time>2026-04-04T14:20:52.895Z</time></trkpt><trkpt lat="45.306697210237445" lon="11.706604870990935"><ele>145.5</ele><time>2026-04-04T14:20:53.895Z</time></trkpt><trkpt lat="45.306618856721705" lon="11.706759094055009"><ele>142.0</ele><time>2026-04-04T14:20:54.895Z</time></trkpt><trkpt lat="45.30653907295922" lon="11.706912210389186"><ele>138.5</ele><time>2026-04-04T14:20:55.895Z</time></trkpt><trkpt lat="45.306466635530555" lon="11.707068781930987"><ele>135.0</ele><time>2026-04-04T14:20:56.895Z</time></trkpt><trkpt lat="45.306398370750806" lon="11.70722217357767"><ele>133.0</ele><time>2026-04-04T14:20:57.895Z</time></trkpt><trkpt lat="45.30631368844513" lon="11.707363692618005"><ele>131.0</ele><time>2026-04-04T14:20:58.895Z</time></trkpt><trkpt lat="45.306229831278365" lon="11.70747951554443"><ele>129.0</ele><time>2026-04-04T14:20:59.895Z</time></trkpt><trkpt lat="45.3061297030473" lon="11.707554009011023"><ele>127.0</ele><time>2026-04-04T14:21:00.895Z</time></trkpt><trkpt lat="45.306018602015925" lon="11.707640691309834"><ele>127.0</ele><time>2026-04-04T14:21:01.895Z</time></trkpt><trkpt lat="45.30589996362097" lon="11.707738476594942"><ele>127.0</ele><time>2026-04-04T14:21:02.895Z</time></trkpt><trkpt lat="45.30579088970492" lon="11.707831024610696"><ele>127.0</ele><time>2026-04-04T14:21:03.895Z</time></trkpt><trkpt lat="45.305691181036366" lon="11.707915077384806"><ele>127.0</ele><time>2026-04-04T14:21:04.894Z</time></trkpt><trkpt lat="45.30559688683582" lon="11.708011981411898"><ele>125.25</ele><time>2026-04-04T14:21:05.894Z</time></trkpt><trkpt lat="45.30550896588568" lon="11.70813066416408"><ele>123.5</ele><time>2026-04-04T14:21:06.894Z</time></trkpt><trkpt lat="45.30543699779599" lon="11.70828503497911"><ele>121.75</ele><time>2026-04-04T14:21:07.894Z</time></trkpt><trkpt lat="45.305373266735714" lon="11.708482909595832"><ele>120.0</ele><time>2026-04-04T14:21:08.894Z</time></trkpt><trkpt lat="45.30531780359852" lon="11.708691403538024"><ele>116.5</ele><time>2026-04-04T14:21:09.894Z</time></trkpt><trkpt lat="45.30524984668797" lon="11.708868027691173"><ele>113.0</ele><time>2026-04-04T14:21:10.894Z</time></trkpt><trkpt lat="45.30517302269691" lon="11.709014468755576"><ele>109.5</ele><time>2026-04-04T14:21:11.894Z</time></trkpt><trkpt lat="45.305080150494504" lon="11.709154237888528"><ele>106.0</ele><time>2026-04-04T14:21:12.894Z</time></trkpt><trkpt lat="45.304980457434425" lon="11.709314734642447"><ele>103.5</ele><time>2026-04-04T14:21:13.894Z</time></trkpt><trkpt lat="45.304903230843166" lon="11.709478498595002"><ele>101.0</ele><time>2026-04-04T14:21:14.894Z</time></trkpt><trkpt lat="45.30484549215809" lon="11.70964714155924"><ele>98.5</ele><time>2026-04-04T14:21:15.894Z</time></trkpt><trkpt lat="45.30480591048319" lon="11.70982241109632"><ele>96.0</ele><time>2026-04-04T14:21:16.894Z</time></trkpt><trkpt lat="45.304778016417245" lon="11.710007892674014"><ele>96.0</ele><time>2026-04-04T14:21:17.894Z</time></trkpt><trkpt lat="45.30476425948313" lon="11.710230332647038"><ele>96.0</ele><time>2026-04-04T14:21:18.894Z</time></trkpt><trkpt lat="45.30476693287441" lon="11.710439923183898"><ele>96.0</ele><time>2026-04-04T14:21:19.894Z</time></trkpt><trkpt lat="45.30477401571685" lon="11.71063324354582"><ele>96.0</ele><time>2026-04-04T14:21:20.894Z</time></trkpt><trkpt lat="45.304779485762204" lon="11.710811392352117"><ele>94.4</ele><time>2026-04-04T14:21:21.894Z</time></trkpt><trkpt lat="45.3047820093896" lon="11.710960052279045"><ele>92.8</ele><time>2026-04-04T14:21:22.894Z</time></trkpt><trkpt lat="45.30477969962886" lon="11.71111456195117"><ele>91.2</ele><time>2026-04-04T14:21:23.894Z</time></trkpt><trkpt lat="45.30477620719663" lon="11.71124187009018"><ele>89.60000000000001</ele><time>2026-04-04T14:21:24.894Z</time></trkpt><trkpt lat="45.304770700286184" lon="11.711374313977927"><ele>88.0</ele><time>2026-04-04T14:21:25.894Z</time></trkpt><trkpt lat="45.30476301691914" lon="11.711506644190743"><ele>86.25</ele><time>2026-04-04T14:21:26.894Z</time></trkpt><trkpt lat="45.304753189277065" lon="11.711666372242737"><ele>84.5</ele><time>2026-04-04T14:21:27.894Z</time></trkpt><trkpt lat="45.304745083077265" lon="11.711848060949688"><ele>82.75</ele><time>2026-04-04T14:21:28.894Z</time></trkpt><trkpt lat="45.30474752724052" lon="11.712046650809643"><ele>81.0</ele><time>2026-04-04T14:21:29.894Z</time></trkpt><trkpt lat="45.30476379365868" lon="11.71227281651155"><ele>79.33333333333333</ele><time>2026-04-04T14:21:30.894Z</time></trkpt><trkpt lat="45.304794031002984" lon="11.71249380225121"><ele>77.66666666666666</ele><time>2026-04-04T14:21:31.894Z</time></trkpt><trkpt lat="45.30482541883041" lon="11.712738004178915"><ele>76.0</ele><time>2026-04-04T14:21:32.894Z</time></trkpt><trkpt lat="45.30486022798557" lon="11.712978021311608"><ele>74.33333333333333</ele><time>2026-04-04T14:21:33.894Z</time></trkpt><trkpt lat="45.304908885593264" lon="11.713207596354668"><ele>72.66666666666667</ele><time>2026-04-04T14:21:34.894Z</time></trkpt><trkpt lat="45.30495873647797" lon="11.713423672067535"><ele>71.0</ele><time>2026-04-04T14:21:35.894Z</time></trkpt><trkpt lat="45.30498156295884" lon="11.713632711029518"><ele>71.0</ele><time>2026-04-04T14:21:36.894Z</time></trkpt><trkpt lat="45.304982516762706" lon="11.71383422205754"><ele>71.0</ele><time>2026-04-04T14:21:37.893Z</time></trkpt><trkpt lat="45.30496961307669" lon="11.714036581900965"><ele>71.0</ele><time>2026-04-04T14:21:38.893Z</time></trkpt><trkpt lat="45.30495509819502" lon="11.714238852093688"><ele>71.0</ele><time>2026-04-04T14:21:39.893Z</time></trkpt><trkpt lat="45.30495189810114" lon="11.714442847899942"><ele>69.25</ele><time>2026-04-04T14:21:40.893Z</time></trkpt><trkpt lat="45.304972528613575" lon="11.714639189640268"><ele>67.5</ele><time>2026-04-04T14:21:41.893Z</time></trkpt><trkpt lat="45.30498383874943" lon="11.714843078022668"><ele>65.75</ele><time>2026-04-04T14:21:42.893Z</time></trkpt><trkpt lat="45.30497491492047" lon="11.715046550872888"><ele>64.0</ele><time>2026-04-04T14:21:43.893Z</time></trkpt><trkpt lat="45.3049688306199" lon="11.71523350769741"><ele>62.25</ele><time>2026-04-04T14:21:44.893Z</time></trkpt><trkpt lat="45.304968689473164" lon="11.715406161751792"><ele>60.5</ele><time>2026-04-04T14:21:45.893Z</time></trkpt><trkpt lat="45.30496952605823" lon="11.715576657792337"><ele>58.75</ele><time>2026-04-04T14:21:46.893Z</time></trkpt><trkpt lat="45.30495504212633" lon="11.715727367119046"><ele>57.0</ele><time>2026-04-04T14:21:47.893Z</time></trkpt><trkpt lat="45.304924508517495" lon="11.715906166943808"><ele>56.0</ele><time>2026-04-04T14:21:48.893Z</time></trkpt><trkpt lat="45.30490539240643" lon="11.716105379495113"><ele>55.0</ele><time>2026-04-04T14:21:49.893Z</time></trkpt><trkpt lat="45.304900154135666" lon="11.716309977386658"><ele>54.0</ele><time>2026-04-04T14:21:50.893Z</time></trkpt><trkpt lat="45.30490447658406" lon="11.716504240658224"><ele>53.0</ele><time>2026-04-04T14:21:51.893Z</time></trkpt><trkpt lat="45.304917425004206" lon="11.716684488020507"><ele>53.0</ele><time>2026-04-04T14:21:52.893Z</time></trkpt><trkpt lat="45.30492185412751" lon="11.716838173616255"><ele>53.0</ele><time>2026-04-04T14:21:53.893Z</time></trkpt><trkpt lat="45.30491329364766" lon="11.716973262174744"><ele>53.0</ele><time>2026-04-04T14:21:54.893Z</time></trkpt><trkpt lat="45.30485485097076" lon="11.71707345221242"><ele>53.0</ele><time>2026-04-04T14:21:55.893Z</time></trkpt><trkpt lat="45.304790418284774" lon="11.717214642678796"><ele>53.0</ele><time>2026-04-04T14:21:56.893Z</time></trkpt><trkpt lat="45.304711557500795" lon="11.717379809132838"><ele>52.5</ele><time>2026-04-04T14:21:57.893Z</time></trkpt><trkpt lat="45.30463510102926" lon="11.717539876321563"><ele>52.0</ele><time>2026-04-04T14:21:58.893Z</time></trkpt><trkpt lat="45.304594919278784" lon="11.7177315384621"><ele>51.5</ele><time>2026-04-04T14:21:59.893Z</time></trkpt><trkpt lat="45.304564458014035" lon="11.717898978244246"><ele>51.0</ele><time>2026-04-04T14:22:00.893Z</time></trkpt><trkpt lat="45.30453659817427" lon="11.71806436944007"><ele>50.199999999999996</ele><time>2026-04-04T14:22:01.893Z</time></trkpt><trkpt lat="45.30451824192682" lon="11.718228593200283"><ele>49.4</ele><time>2026-04-04T14:22:02.893Z</time></trkpt><trkpt lat="45.30451525411103" lon="11.718377648765646"><ele>48.6</ele><time>2026-04-04T14:22:03.893Z</time></trkpt><trkpt lat="45.30453424271044" lon="11.718538689309932"><ele>47.8</ele><time>2026-04-04T14:22:04.893Z</time></trkpt><trkpt lat="45.30455696743923" lon="11.718692071550697"><ele>47.0</ele><time>2026-04-04T14:22:05.893Z</time></trkpt><trkpt lat="45.30456557541588" lon="11.718828220445966"><ele>46.25</ele><time>2026-04-04T14:22:06.893Z</time></trkpt><trkpt lat="45.304554943558884" lon="11.718982724923682"><ele>45.5</ele><time>2026-04-04T14:22:07.893Z</time></trkpt><trkpt lat="45.304548407018416" lon="11.71916288811383"><ele>44.75</ele><time>2026-04-04T14:22:08.893Z</time></trkpt><trkpt lat="45.3045055359128" lon="11.719354779855937"><ele>44.0</ele><time>2026-04-04T14:22:09.893Z</time></trkpt><trkpt lat="45.304494184864176" lon="11.719564887420006"><ele>43.25</ele><time>2026-04-04T14:22:10.893Z</time></trkpt><trkpt lat="45.304457314694204" lon="11.71976256721975"><ele>42.5</ele><time>2026-04-04T14:22:11.892Z</time></trkpt><trkpt lat="45.30445016720384" lon="11.719946119813892"><ele>41.75</ele><time>2026-04-04T14:22:12.892Z</time></trkpt><trkpt lat="45.30447387973915" lon="11.720122670321386"><ele>41.0</ele><time>2026-04-04T14:22:13.892Z</time></trkpt><trkpt lat="45.304493470925145" lon="11.720302323802755"><ele>40.25</ele><time>2026-04-04T14:22:14.892Z</time></trkpt><trkpt lat="45.304487243975316" lon="11.720495283416856"><ele>39.5</ele><time>2026-04-04T14:22:15.892Z</time></trkpt><trkpt lat="45.30448338244336" lon="11.7207027355042"><ele>38.75</ele><time>2026-04-04T14:22:16.892Z</time></trkpt><trkpt lat="45.304478441099846" lon="11.720938048259244"><ele>38.0</ele><time>2026-04-04T14:22:17.892Z</time></trkpt><trkpt lat="45.304473158678825" lon="11.721189603517624"><ele>37.666666666666664</ele><time>2026-04-04T14:22:18.892Z</time></trkpt><trkpt lat="45.30446784993388" lon="11.721442412323976"><ele>37.333333333333336</ele><time>2026-04-04T14:22:19.892Z</time></trkpt><trkpt lat="45.304463167048674" lon="11.721665417601985"><ele>37.0</ele><time>2026-04-04T14:22:20.892Z</time></trkpt><trkpt lat="45.30445887321168" lon="11.721869895980017"><ele>36.75</ele><time>2026-04-04T14:22:21.892Z</time></trkpt><trkpt lat="45.30447857256804" lon="11.722058365726303"><ele>36.5</ele><time>2026-04-04T14:22:22.892Z</time></trkpt><trkpt lat="45.3044854814221" lon="11.72223212582664"><ele>36.25</ele><time>2026-04-04T14:22:23.892Z</time></trkpt><trkpt lat="45.30451935097415" lon="11.722412240105424"><ele>36.0</ele><time>2026-04-04T14:22:24.892Z</time></trkpt><trkpt lat="45.304584314373834" lon="11.72258809222407"><ele>36.0</ele><time>2026-04-04T14:22:25.892Z</time></trkpt><trkpt lat="45.30467335134273" lon="11.722765699248447"><ele>36.0</ele><time>2026-04-04T14:22:26.892Z</time></trkpt><trkpt lat="45.30477202033675" lon="11.722934805473583"><ele>36.0</ele><time>2026-04-04T14:22:27.892Z</time></trkpt><trkpt lat="45.30486053276317" lon="11.723106306221766"><ele>35.5</ele><time>2026-04-04T14:22:28.892Z</time></trkpt><trkpt lat="45.3049233912173" lon="11.723285873412648"><ele>35.0</ele><time>2026-04-04T14:22:29.892Z</time></trkpt><trkpt lat="45.304964438813386" lon="11.723470363453746"><ele>34.5</ele><time>2026-04-04T14:22:30.892Z</time></trkpt><trkpt lat="45.30498849816808" lon="11.72366165012548"><ele>34.0</ele><time>2026-04-04T14:22:31.892Z</time></trkpt><trkpt lat="45.30502680220399" lon="11.723862991860948"><ele>33.0</ele><time>2026-04-04T14:22:32.892Z</time></trkpt><trkpt lat="45.305078332876036" lon="11.724066979574964"><ele>32.0</ele><time>2026-04-04T14:22:33.892Z</time></trkpt><trkpt lat="45.305145938808174" lon="11.724286225543205"><ele>31.0</ele><time>2026-04-04T14:22:34.892Z</time></trkpt><trkpt lat="45.305238653946496" lon="11.724494457034613"><ele>30.333333333333336</ele><time>2026-04-04T14:22:35.892Z</time></trkpt><trkpt lat="45.30535517712098" lon="11.724696392141405"><ele>29.666666666666664</ele><time>2026-04-04T14:22:36.892Z</time></trkpt><trkpt lat="45.305483473820345" lon="11.72489242114216"><ele>29.0</ele><time>2026-04-04T14:22:37.892Z</time></trkpt><trkpt lat="45.305607311583" lon="11.725082063708937"><ele>28.666666666666664</ele><time>2026-04-04T14:22:38.892Z</time></trkpt><trkpt lat="45.30573511423285" lon="11.725258149213515"><ele>28.333333333333336</ele><time>2026-04-04T14:22:39.892Z</time></trkpt><trkpt lat="45.30586006712031" lon="11.72541213677964"><ele>28.0</ele><time>2026-04-04T14:22:40.892Z</time></trkpt><trkpt lat="45.30597896072846" lon="11.725547397388585"><ele>28.0</ele><time>2026-04-04T14:22:41.892Z</time></trkpt><trkpt lat="45.30611634048877" lon="11.725677812602802"><ele>28.0</ele><time>2026-04-04T14:22:42.892Z</time></trkpt><trkpt lat="45.30626378742788" lon="11.725808061052941"><ele>28.0</ele><time>2026-04-04T14:22:43.894Z</time></trkpt><trkpt lat="45.30641044308895" lon="11.725939430271197"><ele>27.666666666666668</ele><time>2026-04-04T14:22:44.893Z</time></trkpt><trkpt lat="45.30655025430346" lon="11.726074969090606"><ele>27.333333333333336</ele><time>2026-04-04T14:22:45.893Z</time></trkpt><trkpt lat="45.306694259902024" lon="11.726204524871788"><ele>27.0</ele><time>2026-04-04T14:22:46.893Z</time></trkpt><trkpt lat="45.30682004178385" lon="11.726322482420136"><ele>27.0</ele><time>2026-04-04T14:22:47.893Z</time></trkpt><trkpt lat="45.30692302977789" lon="11.726423182433686"><ele>27.0</ele><time>2026-04-04T14:22:48.893Z</time></trkpt><trkpt lat="45.30701980900609" lon="11.726525454983234"><ele>27.0</ele><time>2026-04-04T14:22:49.893Z</time></trkpt><trkpt lat="45.30711790118685" lon="11.726598586183668"><ele>27.0</ele><time>2026-04-04T14:22:50.893Z</time></trkpt><trkpt lat="45.30722124070956" lon="11.726656078408821"><ele>27.25</ele><time>2026-04-04T14:22:51.893Z</time></trkpt><trkpt lat="45.307326493326116" lon="11.726740802484056"><ele>27.5</ele><time>2026-04-04T14:22:52.893Z</time></trkpt><trkpt lat="45.30744102382358" lon="11.726867775302926"><ele>27.75</ele><time>2026-04-04T14:22:53.893Z</time></trkpt><trkpt lat="45.307556486674635" lon="11.727016460283258"><ele>28.0</ele><time>2026-04-04T14:22:54.893Z</time></trkpt><trkpt lat="45.30765765457951" lon="11.72715937085146"><ele>27.25</ele><time>2026-04-04T14:22:55.893Z</time></trkpt><trkpt lat="45.30774526114069" lon="11.727288590874155"><ele>26.5</ele><time>2026-04-04T14:22:56.893Z</time></trkpt><trkpt lat="45.30783869544593" lon="11.72740424434463"><ele>25.75</ele><time>2026-04-04T14:22:57.893Z</time></trkpt><trkpt lat="45.307927245760716" lon="11.727525828190114"><ele>25.0</ele><time>2026-04-04T14:22:58.893Z</time></trkpt><trkpt lat="45.30800857667811" lon="11.727645548971045"><ele>24.8</ele><time>2026-04-04T14:22:59.893Z</time></trkpt><trkpt lat="45.30809356199043" lon="11.727764157323364"><ele>24.6</ele><time>2026-04-04T14:23:00.893Z</time></trkpt><trkpt lat="45.30814535586555" lon="11.727908983914556"><ele>24.4</ele><time>2026-04-04T14:23:01.893Z</time></trkpt><trkpt lat="45.3082144934002" lon="11.7280049223519"><ele>24.2</ele><time>2026-04-04T14:23:02.893Z</time></trkpt><trkpt lat="45.30826458566834" lon="11.728074432690015"><ele>24.0</ele><time>2026-04-04T14:23:03.893Z</time></trkpt><trkpt lat="45.3083180192562" lon="11.728151767035033"><ele>24.0</ele><time>2026-04-04T14:23:04.893Z</time></trkpt><trkpt lat="45.308384445505176" lon="11.728299543466894"><ele>24.0</ele><time>2026-04-04T14:23:06.893Z</time></trkpt><trkpt lat="45.30844028810695" lon="11.728456630797142"><ele>24.0</ele><time>2026-04-04T14:23:08.893Z</time></trkpt><trkpt lat="45.30843840826302" lon="11.728560945195252"><ele>24.0</ele><time>2026-04-04T14:23:09.893Z</time></trkpt><trkpt lat="45.30841913227646" lon="11.728676820011684"><ele>24.0</ele><time>2026-04-04T14:23:10.893Z</time></trkpt><trkpt lat="45.30838340160169" lon="11.72877993737836"><ele>23.799999999999997</ele><time>2026-04-04T14:23:11.893Z</time></trkpt><trkpt lat="45.308339385263054" lon="11.728909369105823"><ele>23.599999999999998</ele><time>2026-04-04T14:23:12.893Z</time></trkpt><trkpt lat="45.30829574887849" lon="11.729037683524746"><ele>23.4</ele><time>2026-04-04T14:23:13.893Z</time></trkpt><trkpt lat="45.308248907367535" lon="11.729175422758807"><ele>23.2</ele><time>2026-04-04T14:23:14.893Z</time></trkpt><trkpt lat="45.30821617381038" lon="11.729320191604904"><ele>23.0</ele><time>2026-04-04T14:23:15.893Z</time></trkpt><trkpt lat="45.3081555883021" lon="11.729451411070867"><ele>22.799999999999997</ele><time>2026-04-04T14:23:16.893Z</time></trkpt><trkpt lat="45.30810808209271" lon="11.72957607597925"><ele>22.6</ele><time>2026-04-04T14:23:17.893Z</time></trkpt><trkpt lat="45.3080619006335" lon="11.72970328407033"><ele>22.4</ele><time>2026-04-04T14:23:18.893Z</time></trkpt><trkpt lat="45.30801493706063" lon="11.729849535165735"><ele>22.200000000000003</ele><time>2026-04-04T14:23:19.893Z</time></trkpt><trkpt lat="45.30796903327881" lon="11.72999910970805"><ele>22.0</ele><time>2026-04-04T14:23:20.893Z</time></trkpt><trkpt lat="45.307921851446046" lon="11.730156635882661"><ele>21.5</ele><time>2026-04-04T14:23:21.893Z</time></trkpt><trkpt lat="45.30786922524227" lon="11.730322970914846"><ele>21.0</ele><time>2026-04-04T14:23:22.892Z</time></trkpt><trkpt lat="45.307818011320045" lon="11.730475532176655"><ele>20.5</ele><time>2026-04-04T14:23:23.892Z</time></trkpt><trkpt lat="45.307767517811186" lon="11.730630225456322"><ele>20.0</ele><time>2026-04-04T14:23:24.892Z</time></trkpt><trkpt lat="45.307693372032546" lon="11.730758721939837"><ele>20.0</ele><time>2026-04-04T14:23:25.892Z</time></trkpt><trkpt lat="45.30764168061117" lon="11.730900217186878"><ele>20.0</ele><time>2026-04-04T14:23:26.892Z</time></trkpt><trkpt lat="45.307594292054254" lon="11.731042121158476"><ele>20.0</ele><time>2026-04-04T14:23:27.892Z</time></trkpt><trkpt lat="45.30754747292071" lon="11.731186349796024"><ele>20.0</ele><time>2026-04-04T14:23:28.892Z</time></trkpt><trkpt lat="45.30749742725661" lon="11.731336251063546"><ele>20.0</ele><time>2026-04-04T14:23:29.892Z</time></trkpt><trkpt lat="45.307442118225914" lon="11.731492580923284"><ele>20.0</ele><time>2026-04-04T14:23:30.892Z</time></trkpt><trkpt lat="45.30738261817633" lon="11.731662834016374"><ele>20.0</ele><time>2026-04-04T14:23:31.892Z</time></trkpt><trkpt lat="45.30732176705033" lon="11.731827750966199"><ele>20.0</ele><time>2026-04-04T14:23:32.892Z</time></trkpt><trkpt lat="45.30725890387677" lon="11.731981839992773"><ele>20.75</ele><time>2026-04-04T14:23:33.892Z</time></trkpt><trkpt lat="45.307200777908136" lon="11.732139394219272"><ele>21.5</ele><time>2026-04-04T14:23:34.892Z</time></trkpt><trkpt lat="45.30714334680559" lon="11.732291200975723"><ele>22.25</ele><time>2026-04-04T14:23:35.892Z</time></trkpt><trkpt lat="45.30708616421156" lon="11.732442247028244"><ele>23.0</ele><time>2026-04-04T14:23:36.892Z</time></trkpt><trkpt lat="45.30703777801356" lon="11.73258277049816"><ele>23.0</ele><time>2026-04-04T14:23:37.892Z</time></trkpt><trkpt lat="45.30699105353999" lon="11.73271925241104"><ele>23.0</ele><time>2026-04-04T14:23:38.892Z</time></trkpt><trkpt lat="45.3069505843107" lon="11.73286274891832"><ele>23.0</ele><time>2026-04-04T14:23:39.892Z</time></trkpt><trkpt lat="45.30691485325907" lon="11.733007949097162"><ele>23.0</ele><time>2026-04-04T14:23:40.892Z</time></trkpt><trkpt lat="45.30687264480638" lon="11.73314984775387"><ele>23.0</ele><time>2026-04-04T14:23:41.892Z</time></trkpt><trkpt lat="45.30683530368931" lon="11.733286298614722"><ele>22.571428571428573</ele><time>2026-04-04T14:23:42.892Z</time></trkpt><trkpt lat="45.30680245493814" lon="11.73339719729591"><ele>22.142857142857142</ele><time>2026-04-04T14:23:43.892Z</time></trkpt><trkpt lat="45.306769587799074" lon="11.73349686007405"><ele>21.714285714285715</ele><time>2026-04-04T14:23:44.892Z</time></trkpt><trkpt lat="45.306743292356124" lon="11.73359137957601"><ele>21.285714285714285</ele><time>2026-04-04T14:23:45.892Z</time></trkpt><trkpt lat="45.306717571816804" lon="11.733686215875656"><ele>20.857142857142858</ele><time>2026-04-04T14:23:46.892Z</time></trkpt><trkpt lat="45.30669438943406" lon="11.733770823917979"><ele>20.428571428571427</ele><time>2026-04-04T14:23:47.892Z</time></trkpt><trkpt lat="45.30666812606207" lon="11.733860737320446"><ele>20.0</ele><time>2026-04-04T14:23:48.892Z</time></trkpt><trkpt lat="45.306621180339825" lon="11.733938683873284"><ele>19.6</ele><time>2026-04-04T14:23:49.892Z</time></trkpt><trkpt lat="45.30655489122463" lon="11.733999112556782"><ele>19.2</ele><time>2026-04-04T14:23:50.892Z</time></trkpt><trkpt lat="45.306474958056256" lon="11.734054496652137"><ele>18.8</ele><time>2026-04-04T14:23:51.892Z</time></trkpt><trkpt lat="45.30636684835848" lon="11.734100868021835"><ele>18.4</ele><time>2026-04-04T14:23:52.892Z</time></trkpt><trkpt lat="45.30625402836511" lon="11.734140318522472"><ele>18.0</ele><time>2026-04-04T14:23:53.892Z</time></trkpt><trkpt lat="45.30613736280049" lon="11.734211225684897"><ele>17.8</ele><time>2026-04-04T14:23:54.892Z</time></trkpt><trkpt lat="45.30603660296613" lon="11.734274057592105"><ele>17.6</ele><time>2026-04-04T14:23:55.892Z</time></trkpt><trkpt lat="45.30596327760272" lon="11.734409399557169"><ele>17.4</ele><time>2026-04-04T14:23:56.891Z</time></trkpt><trkpt lat="45.30589197861957" lon="11.734506017069247"><ele>17.2</ele><time>2026-04-04T14:23:57.891Z</time></trkpt><trkpt lat="45.30581179809924" lon="11.734598159025719"><ele>17.0</ele><time>2026-04-04T14:23:58.891Z</time></trkpt><trkpt lat="45.30570747629664" lon="11.734666914179583"><ele>16.75</ele><time>2026-04-04T14:23:59.891Z</time></trkpt><trkpt lat="45.30557279211998" lon="11.734705765985563"><ele>16.5</ele><time>2026-04-04T14:24:00.891Z</time></trkpt><trkpt lat="45.30543472592692" lon="11.734779720816459"><ele>16.25</ele><time>2026-04-04T14:24:01.891Z</time></trkpt><trkpt lat="45.30528763143021" lon="11.734858330035843"><ele>16.0</ele><time>2026-04-04T14:24:02.891Z</time></trkpt><trkpt lat="45.305134413651025" lon="11.734940116273775"><ele>16.0</ele><time>2026-04-04T14:24:03.891Z</time></trkpt><trkpt lat="45.304984727828845" lon="11.735020826223282"><ele>16.0</ele><time>2026-04-04T14:24:04.891Z</time></trkpt><trkpt lat="45.30484991091546" lon="11.735088998311062"><ele>16.0</ele><time>2026-04-04T14:24:05.891Z</time></trkpt><trkpt lat="45.30472618641481" lon="11.73514026658661"><ele>16.0</ele><time>2026-04-04T14:24:06.891Z</time></trkpt><trkpt lat="45.30458959579025" lon="11.735180040814317"><ele>16.666666666666664</ele><time>2026-04-04T14:24:07.891Z</time></trkpt><trkpt lat="45.30444519280424" lon="11.735199461185145"><ele>17.333333333333332</ele><time>2026-04-04T14:24:08.891Z</time></trkpt><trkpt lat="45.30428059040256" lon="11.735189374303065"><ele>18.0</ele><time>2026-04-04T14:24:09.891Z</time></trkpt><trkpt lat="45.304122855718276" lon="11.73517347901982"><ele>18.0</ele><time>2026-04-04T14:24:10.891Z</time></trkpt><trkpt lat="45.30395642624034" lon="11.735182527107403"><ele>18.0</ele><time>2026-04-04T14:24:11.891Z</time></trkpt><trkpt lat="45.303780026166756" lon="11.735213892012252"><ele>18.0</ele><time>2026-04-04T14:24:12.891Z</time></trkpt><trkpt lat="45.303596023058276" lon="11.735261603923028"><ele>16.0</ele><time>2026-04-04T14:24:13.891Z</time></trkpt><trkpt lat="45.30341663621854" lon="11.735319932820165"><ele>14.0</ele><time>2026-04-04T14:24:14.891Z</time></trkpt><trkpt lat="45.30324956488316" lon="11.735397472757917"><ele>12.0</ele><time>2026-04-04T14:24:15.891Z</time></trkpt><trkpt lat="45.303099686431715" lon="11.735514676454015"><ele>12.666666666666668</ele><time>2026-04-04T14:24:16.891Z</time></trkpt><trkpt lat="45.302969099707305" lon="11.735640928283331"><ele>13.333333333333334</ele><time>2026-04-04T14:24:17.891Z</time></trkpt><trkpt lat="45.30283650217497" lon="11.735768179673267"><ele>14.0</ele><time>2026-04-04T14:24:18.891Z</time></trkpt><trkpt lat="45.3026855719194" lon="11.735882605142118"><ele>14.0</ele><time>2026-04-04T14:24:19.891Z</time></trkpt><trkpt lat="45.302522265729735" lon="11.735947706095267"><ele>14.0</ele><time>2026-04-04T14:24:20.891Z</time></trkpt><trkpt lat="45.30234896766308" lon="11.736016604285702"><ele>14.0</ele><time>2026-04-04T14:24:21.891Z</time></trkpt><trkpt lat="45.302170403212756" lon="11.736046259802558"><ele>12.0</ele><time>2026-04-04T14:24:22.891Z</time></trkpt><trkpt lat="45.301999500228256" lon="11.73607013523592"><ele>10.0</ele><time>2026-04-04T14:24:23.891Z</time></trkpt><trkpt lat="45.301833205077436" lon="11.736093114768439"><ele>8.0</ele><time>2026-04-04T14:24:24.891Z</time></trkpt><trkpt lat="45.30168261271234" lon="11.736057590189612"><ele>8.5</ele><time>2026-04-04T14:24:25.891Z</time></trkpt><trkpt lat="45.30155317779507" lon="11.735953696296432"><ele>9.0</ele><time>2026-04-04T14:24:26.891Z</time></trkpt><trkpt lat="45.30143530427274" lon="11.735845698628014"><ele>9.5</ele><time>2026-04-04T14:24:27.891Z</time></trkpt><trkpt lat="45.30133549894293" lon="11.735700513401234"><ele>10.0</ele><time>2026-04-04T14:24:28.891Z</time></trkpt><trkpt lat="45.30122811903545" lon="11.735525857596134"><ele>10.0</ele><time>2026-04-04T14:24:29.891Z</time></trkpt><trkpt lat="45.30110800693206" lon="11.735356157266635"><ele>10.0</ele><time>2026-04-04T14:24:30.89Z</time></trkpt><trkpt lat="45.30096609713301" lon="11.735218267519215"><ele>10.0</ele><time>2026-04-04T14:24:31.89Z</time></trkpt><trkpt lat="45.30081676752314" lon="11.735125648847937"><ele>11.0</ele><time>2026-04-04T14:24:32.89Z</time></trkpt><trkpt lat="45.30065349978942" lon="11.735068324387138"><ele>12.0</ele><time>2026-04-04T14:24:33.89Z</time></trkpt><trkpt lat="45.3004704736762" lon="11.735044295543483"><ele>13.0</ele><time>2026-04-04T14:24:34.89Z</time></trkpt><trkpt lat="45.30028319692987" lon="11.735055440178767"><ele>13.0</ele><time>2026-04-04T14:24:35.89Z</time></trkpt><trkpt lat="45.300106040374274" lon="11.73506175468608"><ele>13.0</ele><time>2026-04-04T14:24:36.89Z</time></trkpt><trkpt lat="45.299940749952704" lon="11.735087267671268"><ele>13.0</ele><time>2026-04-04T14:24:37.89Z</time></trkpt><trkpt lat="45.29978971934999" lon="11.73515055080942"><ele>15.0</ele><time>2026-04-04T14:24:38.888Z</time></trkpt><trkpt lat="45.29963738417968" lon="11.735250369969064"><ele>17.0</ele><time>2026-04-04T14:24:39.887Z</time></trkpt><trkpt lat="45.29949055396709" lon="11.735392586915799"><ele>19.0</ele><time>2026-04-04T14:24:40.886Z</time></trkpt><trkpt lat="45.29936192069768" lon="11.735575098686887"><ele>19.0</ele><time>2026-04-04T14:24:41.885Z</time></trkpt><trkpt lat="45.29925251850537" lon="11.735733034054785"><ele>19.0</ele><time>2026-04-04T14:24:42.884Z</time></trkpt><trkpt lat="45.29915292223526" lon="11.73589669516667"><ele>19.0</ele><time>2026-04-04T14:24:43.883Z</time></trkpt><trkpt lat="45.299079162575744" lon="11.736069780073981"><ele>17.75</ele><time>2026-04-04T14:24:44.883Z</time></trkpt><trkpt lat="45.29902619844115" lon="11.73627356420449"><ele>16.5</ele><time>2026-04-04T14:24:45.882Z</time></trkpt><trkpt lat="45.298986705437656" lon="11.736463788091646"><ele>15.25</ele><time>2026-04-04T14:24:46.881Z</time></trkpt><trkpt lat="45.298948196807345" lon="11.736643010381133"><ele>14.0</ele><time>2026-04-04T14:24:47.88Z</time></trkpt><trkpt lat="45.29887639830955" lon="11.736781954633292"><ele>12.75</ele><time>2026-04-04T14:24:48.88Z</time></trkpt><trkpt lat="45.2988096434122" lon="11.736898826837466"><ele>11.5</ele><time>2026-04-04T14:24:49.88Z</time></trkpt><trkpt lat="45.29871191783247" lon="11.736989421707962"><ele>10.25</ele><time>2026-04-04T14:24:50.879Z</time></trkpt><trkpt lat="45.298595251741254" lon="11.737064236726681"><ele>9.0</ele><time>2026-04-04T14:24:51.878Z</time></trkpt><trkpt lat="45.298462909993646" lon="11.73714981998964"><ele>9.0</ele><time>2026-04-04T14:24:52.879Z</time></trkpt><trkpt lat="45.29831772838805" lon="11.737220743909736"><ele>9.0</ele><time>2026-04-04T14:24:53.878Z</time></trkpt><trkpt lat="45.298179592732055" lon="11.737282679089201"><ele>9.0</ele><time>2026-04-04T14:24:54.877Z</time></trkpt><trkpt lat="45.29805081940471" lon="11.737335309769787"><ele>9.0</ele><time>2026-04-04T14:24:55.877Z</time></trkpt><trkpt lat="45.29793037299068" lon="11.737396523805398"><ele>11.0</ele><time>2026-04-04T14:24:56.877Z</time></trkpt><trkpt lat="45.29781329296627" lon="11.737464061672348"><ele>13.0</ele><time>2026-04-04T14:24:57.876Z</time></trkpt><trkpt lat="45.2976903139096" lon="11.737522621325393"><ele>15.0</ele><time>2026-04-04T14:24:58.876Z</time></trkpt><trkpt lat="45.2975726604969" lon="11.73758417700975"><ele>17.0</ele><time>2026-04-04T14:24:59.876Z</time></trkpt><trkpt lat="45.29745034593516" lon="11.737648171398064"><ele>17.0</ele><time>2026-04-04T14:25:00.876Z</time></trkpt><trkpt lat="45.29733017011402" lon="11.737716916353456"><ele>17.0</ele><time>2026-04-04T14:25:01.875Z</time></trkpt><trkpt lat="45.29720896122146" lon="11.737704439112896"><ele>17.0</ele><time>2026-04-04T14:25:02.875Z</time></trkpt><trkpt lat="45.29709521449769" lon="11.737669553366366"><ele>17.0</ele><time>2026-04-04T14:25:03.874Z</time></trkpt><trkpt lat="45.29698703788249" lon="11.737619145010534"><ele>16.25</ele><time>2026-04-04T14:25:04.874Z</time></trkpt><trkpt lat="45.29688200755821" lon="11.737541940668272"><ele>15.5</ele><time>2026-04-04T14:25:05.874Z</time></trkpt><trkpt lat="45.296790925254825" lon="11.737430278499463"><ele>14.75</ele><time>2026-04-04T14:25:06.874Z</time></trkpt><trkpt lat="45.29668815956341" lon="11.737327068366113"><ele>14.0</ele><time>2026-04-04T14:25:07.873Z</time></trkpt><trkpt lat="45.2965851572617" lon="11.737222519896408"><ele>14.0</ele><time>2026-04-04T14:25:08.873Z</time></trkpt><trkpt lat="45.29649176345898" lon="11.737127724357363"><ele>14.0</ele><time>2026-04-04T14:25:09.873Z</time></trkpt><trkpt lat="45.296398498756744" lon="11.737032609552209"><ele>14.0</ele><time>2026-04-04T14:25:10.873Z</time></trkpt><trkpt lat="45.29630539034752" lon="11.736937004200408"><ele>14.0</ele><time>2026-04-04T14:25:11.873Z</time></trkpt><trkpt lat="45.29620355573296" lon="11.736832438602164"><ele>14.5</ele><time>2026-04-04T14:25:12.873Z</time></trkpt><trkpt lat="45.29610310627459" lon="11.73672929503062"><ele>15.0</ele><time>2026-04-04T14:25:13.872Z</time></trkpt><trkpt lat="45.29599505592952" lon="11.73664732166969"><ele>15.5</ele><time>2026-04-04T14:25:14.872Z</time></trkpt><trkpt lat="45.29590522675138" lon="11.736551350624751"><ele>16.0</ele><time>2026-04-04T14:25:15.872Z</time></trkpt><trkpt lat="45.29582546757229" lon="11.736454115787257"><ele>16.0</ele><time>2026-04-04T14:25:16.872Z</time></trkpt><trkpt lat="45.29573663941082" lon="11.73631999037162"><ele>16.0</ele><time>2026-04-04T14:25:17.872Z</time></trkpt><trkpt lat="45.29566725128401" lon="11.736179441269739"><ele>16.0</ele><time>2026-04-04T14:25:18.872Z</time></trkpt><trkpt lat="45.29561520904481" lon="11.736030335779407"><ele>16.0</ele><time>2026-04-04T14:25:19.872Z</time></trkpt><trkpt lat="45.29558525469523" lon="11.735851749292976"><ele>15.0</ele><time>2026-04-04T14:25:20.872Z</time></trkpt><trkpt lat="45.295565342651656" lon="11.735680420096406"><ele>14.0</ele><time>2026-04-04T14:25:21.871Z</time></trkpt><trkpt lat="45.29555402256941" lon="11.735513823031038"><ele>13.0</ele><time>2026-04-04T14:25:22.871Z</time></trkpt><trkpt lat="45.295535737912374" lon="11.735348660166602"><ele>12.0</ele><time>2026-04-04T14:25:23.871Z</time></trkpt><trkpt lat="45.29550881517045" lon="11.735200032718696"><ele>11.75</ele><time>2026-04-04T14:25:24.871Z</time></trkpt><trkpt lat="45.29549396657825" lon="11.735042008530193"><ele>11.5</ele><time>2026-04-04T14:25:25.871Z</time></trkpt><trkpt lat="45.29547244840453" lon="11.734879114318508"><ele>11.25</ele><time>2026-04-04T14:25:26.871Z</time></trkpt><trkpt lat="45.29544840913642" lon="11.734688595865574"><ele>11.0</ele><time>2026-04-04T14:25:27.871Z</time></trkpt><trkpt lat="45.29542871074111" lon="11.734495444885129"><ele>11.75</ele><time>2026-04-04T14:25:28.871Z</time></trkpt><trkpt lat="45.295417973570814" lon="11.734297868805127"><ele>12.5</ele><time>2026-04-04T14:25:29.871Z</time></trkpt><trkpt lat="45.29541528985986" lon="11.734123859654254"><ele>13.25</ele><time>2026-04-04T14:25:30.871Z</time></trkpt><trkpt lat="45.295396474540055" lon="11.73396663764119"><ele>14.0</ele><time>2026-04-04T14:25:31.871Z</time></trkpt><trkpt lat="45.29537932525822" lon="11.733798674209659"><ele>14.0</ele><time>2026-04-04T14:25:32.87Z</time></trkpt><trkpt lat="45.295369827400904" lon="11.733623076334773"><ele>14.0</ele><time>2026-04-04T14:25:33.87Z</time></trkpt><trkpt lat="45.295368436656865" lon="11.733438915631865"><ele>14.0</ele><time>2026-04-04T14:25:34.87Z</time></trkpt><trkpt lat="45.29537112012578" lon="11.733241414297135"><ele>14.0</ele><time>2026-04-04T14:25:35.87Z</time></trkpt><trkpt lat="45.29537229270407" lon="11.733032910458709"><ele>15.333333333333334</ele><time>2026-04-04T14:25:36.87Z</time></trkpt><trkpt lat="45.29540409160311" lon="11.732838296599574"><ele>16.666666666666668</ele><time>2026-04-04T14:25:37.87Z</time></trkpt><trkpt lat="45.2954089770424" lon="11.732615123964935"><ele>18.0</ele><time>2026-04-04T14:25:38.87Z</time></trkpt><trkpt lat="45.29541647155994" lon="11.732394319798695"><ele>18.0</ele><time>2026-04-04T14:25:39.87Z</time></trkpt><trkpt lat="45.29542268812197" lon="11.732173127919964"><ele>18.0</ele><time>2026-04-04T14:25:40.87Z</time></trkpt><trkpt lat="45.29542904707823" lon="11.73195187531587"><ele>18.0</ele><time>2026-04-04T14:25:41.87Z</time></trkpt><trkpt lat="45.29542488098309" lon="11.731726010186367"><ele>19.0</ele><time>2026-04-04T14:25:42.87Z</time></trkpt><trkpt lat="45.29540686110874" lon="11.73149569791819"><ele>20.0</ele><time>2026-04-04T14:25:43.87Z</time></trkpt><trkpt lat="45.295373511904685" lon="11.731281211288234"><ele>21.0</ele><time>2026-04-04T14:25:44.87Z</time></trkpt><trkpt lat="45.29533225177783" lon="11.731082489239428"><ele>21.25</ele><time>2026-04-04T14:25:45.87Z</time></trkpt><trkpt lat="45.29528973000675" lon="11.730908035643802"><ele>21.5</ele><time>2026-04-04T14:25:46.87Z</time></trkpt><trkpt lat="45.29525034692639" lon="11.730738080836781"><ele>21.75</ele><time>2026-04-04T14:25:47.87Z</time></trkpt><trkpt lat="45.29520338586603" lon="11.730554148060584"><ele>22.0</ele><time>2026-04-04T14:25:48.87Z</time></trkpt><trkpt lat="45.29514521005076" lon="11.730370002750423"><ele>23.0</ele><time>2026-04-04T14:25:49.87Z</time></trkpt><trkpt lat="45.295077815616814" lon="11.730203575951938"><ele>24.0</ele><time>2026-04-04T14:25:50.869Z</time></trkpt><trkpt lat="45.294994911295625" lon="11.730050064235066"><ele>25.0</ele><time>2026-04-04T14:25:51.869Z</time></trkpt><trkpt lat="45.29490402982844" lon="11.72991669519739"><ele>26.0</ele><time>2026-04-04T14:25:52.869Z</time></trkpt><trkpt lat="45.29481227033964" lon="11.729804860316161"><ele>24.0</ele><time>2026-04-04T14:25:53.869Z</time></trkpt><trkpt lat="45.29471546805606" lon="11.729703553272445"><ele>22.0</ele><time>2026-04-04T14:25:54.869Z</time></trkpt><trkpt lat="45.294607297459706" lon="11.729618259490573"><ele>20.0</ele><time>2026-04-04T14:25:55.869Z</time></trkpt><trkpt lat="45.29447640004706" lon="11.72954597712023"><ele>18.0</ele><time>2026-04-04T14:25:56.869Z</time></trkpt><trkpt lat="45.29435109362083" lon="11.729504485160668"><ele>18.0</ele><time>2026-04-04T14:25:57.869Z</time></trkpt><trkpt lat="45.29422601507246" lon="11.729476156748227"><ele>18.0</ele><time>2026-04-04T14:25:58.869Z</time></trkpt><trkpt lat="45.29411046562636" lon="11.729414605646111"><ele>18.0</ele><time>2026-04-04T14:25:59.869Z</time></trkpt><trkpt lat="45.29399696469834" lon="11.729396314987028"><ele>18.0</ele><time>2026-04-04T14:26:00.869Z</time></trkpt><trkpt lat="45.293861582683974" lon="11.729369459969618"><ele>17.75</ele><time>2026-04-04T14:26:01.869Z</time></trkpt><trkpt lat="45.29373100907844" lon="11.729341243023189"><ele>17.5</ele><time>2026-04-04T14:26:02.869Z</time></trkpt><trkpt lat="45.29359713430704" lon="11.729299548068177"><ele>17.25</ele><time>2026-04-04T14:26:03.869Z</time></trkpt><trkpt lat="45.29347088825921" lon="11.729248946888976"><ele>17.0</ele><time>2026-04-04T14:26:04.869Z</time></trkpt><trkpt lat="45.29334405257827" lon="11.729190226510674"><ele>17.0</ele><time>2026-04-04T14:26:05.869Z</time></trkpt><trkpt lat="45.29322470089086" lon="11.72914176814344"><ele>17.0</ele><time>2026-04-04T14:26:06.869Z</time></trkpt><trkpt lat="45.29311263170857" lon="11.729087714608967"><ele>17.0</ele><time>2026-04-04T14:26:07.869Z</time></trkpt><trkpt lat="45.29299921084316" lon="11.729030876705727"><ele>17.0</ele><time>2026-04-04T14:26:08.869Z</time></trkpt><trkpt lat="45.29287347407948" lon="11.728960389502042"><ele>16.25</ele><time>2026-04-04T14:26:09.869Z</time></trkpt><trkpt lat="45.29274478419997" lon="11.728902585317332"><ele>15.5</ele><time>2026-04-04T14:26:10.869Z</time></trkpt><trkpt lat="45.292620709236935" lon="11.728840598470823"><ele>14.75</ele><time>2026-04-04T14:26:11.869Z</time></trkpt><trkpt lat="45.29250261796756" lon="11.72879196190458"><ele>14.0</ele><time>2026-04-04T14:26:12.869Z</time></trkpt><trkpt lat="45.29238400858147" lon="11.728727449214762"><ele>13.75</ele><time>2026-04-04T14:26:13.869Z</time></trkpt><trkpt lat="45.29225615081416" lon="11.72867591569134"><ele>13.5</ele><time>2026-04-04T14:26:14.869Z</time></trkpt><trkpt lat="45.29211797024758" lon="11.728613665263454"><ele>13.25</ele><time>2026-04-04T14:26:15.869Z</time></trkpt><trkpt lat="45.29198827292699" lon="11.72854715888282"><ele>13.0</ele><time>2026-04-04T14:26:16.868Z</time></trkpt><trkpt lat="45.29186857628137" lon="11.72848966465375"><ele>14.0</ele><time>2026-04-04T14:26:17.868Z</time></trkpt><trkpt lat="45.291740723566605" lon="11.728464545826924"><ele>15.0</ele><time>2026-04-04T14:26:18.868Z</time></trkpt><trkpt lat="45.291630991967665" lon="11.728453204184754"><ele>16.0</ele><time>2026-04-04T14:26:19.868Z</time></trkpt><trkpt lat="45.291533345495274" lon="11.728469617012925"><ele>17.0</ele><time>2026-04-04T14:26:20.868Z</time></trkpt><trkpt lat="45.291431671928386" lon="11.728508957919079"><ele>18.0</ele><time>2026-04-04T14:26:21.868Z</time></trkpt><trkpt lat="45.291339766238764" lon="11.728546533993542"><ele>17.6</ele><time>2026-04-04T14:26:22.868Z</time></trkpt><trkpt lat="45.2912535284682" lon="11.728581030440344"><ele>17.200000000000003</ele><time>2026-04-04T14:26:23.868Z</time></trkpt><trkpt lat="45.29117537208598" lon="11.728629706455136"><ele>16.8</ele><time>2026-04-04T14:26:24.868Z</time></trkpt><trkpt lat="45.29109882894934" lon="11.728693979774288"><ele>16.400000000000002</ele><time>2026-04-04T14:26:25.868Z</time></trkpt><trkpt lat="45.291021104400215" lon="11.728782581882935"><ele>16.0</ele><time>2026-04-04T14:26:26.868Z</time></trkpt><trkpt lat="45.29095068478475" lon="11.728882762626718"><ele>16.0</ele><time>2026-04-04T14:26:27.868Z</time></trkpt><trkpt lat="45.29089511345015" lon="11.728983896188588"><ele>16.0</ele><time>2026-04-04T14:26:28.868Z</time></trkpt><trkpt lat="45.29084277439386" lon="11.729090153968716"><ele>16.0</ele><time>2026-04-04T14:26:29.868Z</time></trkpt><trkpt lat="45.290794022603926" lon="11.729211255340932"><ele>16.0</ele><time>2026-04-04T14:26:30.868Z</time></trkpt><trkpt lat="45.290745206400246" lon="11.72932584322463"><ele>16.0</ele><time>2026-04-04T14:26:31.868Z</time></trkpt><trkpt lat="45.290702537159255" lon="11.729447962388114"><ele>15.666666666666666</ele><time>2026-04-04T14:26:32.868Z</time></trkpt><trkpt lat="45.29066846052058" lon="11.729558239222072"><ele>15.333333333333332</ele><time>2026-04-04T14:26:33.868Z</time></trkpt><trkpt lat="45.29063141251813" lon="11.729663405602366"><ele>15.0</ele><time>2026-04-04T14:26:34.868Z</time></trkpt><trkpt lat="45.29059358259537" lon="11.729774243362563"><ele>14.666666666666668</ele><time>2026-04-04T14:26:35.868Z</time></trkpt><trkpt lat="45.2905642017315" lon="11.729891202396804"><ele>14.333333333333334</ele><time>2026-04-04T14:26:36.868Z</time></trkpt><trkpt lat="45.29052996615599" lon="11.730005233999892"><ele>14.0</ele><time>2026-04-04T14:26:37.868Z</time></trkpt><trkpt lat="45.29049158706518" lon="11.730109704004025"><ele>17.799999999999997</ele><time>2026-04-04T14:26:38.868Z</time></trkpt><trkpt lat="45.2904657314678" lon="11.730221024982717"><ele>21.599999999999998</ele><time>2026-04-04T14:26:39.868Z</time></trkpt><trkpt lat="45.29043946019909" lon="11.730328167995069"><ele>25.4</ele><time>2026-04-04T14:26:40.868Z</time></trkpt><trkpt lat="45.29042563117654" lon="11.730464406577939"><ele>29.2</ele><time>2026-04-04T14:26:41.868Z</time></trkpt><trkpt lat="45.29042149085146" lon="11.730597539613253"><ele>33.0</ele><time>2026-04-04T14:26:42.868Z</time></trkpt><trkpt lat="45.290417880628134" lon="11.730735485523443"><ele>33.4</ele><time>2026-04-04T14:26:43.868Z</time></trkpt><trkpt lat="45.29041281693263" lon="11.73087641728573"><ele>33.8</ele><time>2026-04-04T14:26:44.868Z</time></trkpt><trkpt lat="45.290403391103276" lon="11.731043383084"><ele>34.2</ele><time>2026-04-04T14:26:45.867Z</time></trkpt><trkpt lat="45.290392734408385" lon="11.731194958024973"><ele>34.6</ele><time>2026-04-04T14:26:46.867Z</time></trkpt><trkpt lat="45.29037770606951" lon="11.731354277148833"><ele>35.0</ele><time>2026-04-04T14:26:47.867Z</time></trkpt><trkpt lat="45.29034404430454" lon="11.731530561470478"><ele>33.75</ele><time>2026-04-04T14:26:48.867Z</time></trkpt><trkpt lat="45.29030021217557" lon="11.731712722646737"><ele>32.5</ele><time>2026-04-04T14:26:49.867Z</time></trkpt><trkpt lat="45.29027426122688" lon="11.731878791752198"><ele>31.25</ele><time>2026-04-04T14:26:50.867Z</time></trkpt><trkpt lat="45.29024372598646" lon="11.7320481306035"><ele>30.0</ele><time>2026-04-04T14:26:51.867Z</time></trkpt><trkpt lat="45.2902154302718" lon="11.73220771371971"><ele>28.0</ele><time>2026-04-04T14:26:52.867Z</time></trkpt><trkpt lat="45.290176388813094" lon="11.732359211665635"><ele>26.0</ele><time>2026-04-04T14:26:53.867Z</time></trkpt><trkpt lat="45.290141251599955" lon="11.732517841042835"><ele>24.0</ele><time>2026-04-04T14:26:54.867Z</time></trkpt><trkpt lat="45.29011128851598" lon="11.732691077395947"><ele>22.0</ele><time>2026-04-04T14:26:55.868Z</time></trkpt><trkpt lat="45.290077817727024" lon="11.732877273549313"><ele>20.5</ele><time>2026-04-04T14:26:56.868Z</time></trkpt><trkpt lat="45.2900244708504" lon="11.733068203580816"><ele>19.0</ele><time>2026-04-04T14:26:57.868Z</time></trkpt><trkpt lat="45.289972951086554" lon="11.73326150491335"><ele>17.5</ele><time>2026-04-04T14:26:58.868Z</time></trkpt><trkpt lat="45.28990820835077" lon="11.733456917194193"><ele>16.0</ele><time>2026-04-04T14:26:59.869Z</time></trkpt><trkpt lat="45.28983817722471" lon="11.733655114737418"><ele>17.25</ele><time>2026-04-04T14:27:00.869Z</time></trkpt><trkpt lat="45.289767744417155" lon="11.733848906462626"><ele>18.5</ele><time>2026-04-04T14:27:01.868Z</time></trkpt><trkpt lat="45.289703583719884" lon="11.73402787323351"><ele>19.75</ele><time>2026-04-04T14:27:02.868Z</time></trkpt><trkpt lat="45.289639928531166" lon="11.734195573788151"><ele>21.0</ele><time>2026-04-04T14:27:03.868Z</time></trkpt><trkpt lat="45.289581275895486" lon="11.734335149601483"><ele>19.0</ele><time>2026-04-04T14:27:04.869Z</time></trkpt><trkpt lat="45.289497411375315" lon="11.734441356067574"><ele>17.0</ele><time>2026-04-04T14:27:05.869Z</time></trkpt><trkpt lat="45.28940500186687" lon="11.734537790911078"><ele>15.0</ele><time>2026-04-04T14:27:06.869Z</time></trkpt><trkpt lat="45.28930241561322" lon="11.734544457645608"><ele>13.0</ele><time>2026-04-04T14:27:07.868Z</time></trkpt><trkpt lat="45.289202897760504" lon="11.7345498167617"><ele>11.0</ele><time>2026-04-04T14:27:08.868Z</time></trkpt><trkpt lat="45.289076068530555" lon="11.734542159365704"><ele>11.0</ele><time>2026-04-04T14:27:09.868Z</time></trkpt><trkpt lat="45.28894879558862" lon="11.734513642615408"><ele>11.0</ele><time>2026-04-04T14:27:10.868Z</time></trkpt><trkpt lat="45.28882741332333" lon="11.734459498586672"><ele>11.0</ele><time>2026-04-04T14:27:11.868Z</time></trkpt><trkpt lat="45.2887208855806" lon="11.73437465801193"><ele>11.0</ele><time>2026-04-04T14:27:12.868Z</time></trkpt><trkpt lat="45.2886211593816" lon="11.734272125029833"><ele>12.0</ele><time>2026-04-04T14:27:13.868Z</time></trkpt><trkpt lat="45.28854399656567" lon="11.73415554056229"><ele>13.0</ele><time>2026-04-04T14:27:14.868Z</time></trkpt><trkpt lat="45.288473340508034" lon="11.734050206350972"><ele>14.000000000000002</ele><time>2026-04-04T14:27:15.868Z</time></trkpt><trkpt lat="45.28838866981524" lon="11.733959778061854"><ele>15.0</ele><time>2026-04-04T14:27:16.868Z</time></trkpt><trkpt lat="45.28826772353564" lon="11.733908983298507"><ele>16.0</ele><time>2026-04-04T14:27:17.868Z</time></trkpt><trkpt lat="45.288165084352485" lon="11.733882233273832"><ele>15.25</ele><time>2026-04-04T14:27:18.868Z</time></trkpt><trkpt lat="45.28804287976264" lon="11.73385740265263"><ele>14.5</ele><time>2026-04-04T14:27:19.868Z</time></trkpt><trkpt lat="45.28791114278385" lon="11.733834576978719"><ele>13.75</ele><time>2026-04-04T14:27:20.868Z</time></trkpt><trkpt lat="45.287786518303534" lon="11.733811976617917"><ele>13.0</ele><time>2026-04-04T14:27:21.868Z</time></trkpt><trkpt lat="45.28765870113963" lon="11.733788795892782"><ele>13.0</ele><time>2026-04-04T14:27:22.868Z</time></trkpt><trkpt lat="45.28752416586195" lon="11.733776294646258"><ele>13.0</ele><time>2026-04-04T14:27:23.868Z</time></trkpt><trkpt lat="45.287399863022735" lon="11.733768104448195"><ele>13.0</ele><time>2026-04-04T14:27:24.868Z</time></trkpt><trkpt lat="45.28727069074884" lon="11.733762034879552"><ele>13.0</ele><time>2026-04-04T14:27:25.867Z</time></trkpt><trkpt lat="45.28715897869237" lon="11.73375678570852"><ele>13.0</ele><time>2026-04-04T14:27:26.867Z</time></trkpt><trkpt lat="45.28703714456221" lon="11.733751060946924"><ele>13.0</ele><time>2026-04-04T14:27:27.867Z</time></trkpt><trkpt lat="45.28689151399552" lon="11.733748289522756"><ele>13.0</ele><time>2026-04-04T14:27:28.867Z</time></trkpt><trkpt lat="45.28674139198197" lon="11.733734046900688"><ele>13.0</ele><time>2026-04-04T14:27:29.867Z</time></trkpt><trkpt lat="45.28659214702626" lon="11.733720045072744"><ele>13.0</ele><time>2026-04-04T14:27:30.867Z</time></trkpt><trkpt lat="45.28643904294109" lon="11.733707969989434"><ele>13.0</ele><time>2026-04-04T14:27:31.867Z</time></trkpt><trkpt lat="45.286280555436555" lon="11.733716168780717"><ele>13.0</ele><time>2026-04-04T14:27:32.867Z</time></trkpt><trkpt lat="45.286114955945045" lon="11.733728931093328"><ele>13.333333333333332</ele><time>2026-04-04T14:27:33.867Z</time></trkpt><trkpt lat="45.28594615903933" lon="11.733727474686487"><ele>13.666666666666668</ele><time>2026-04-04T14:27:34.867Z</time></trkpt><trkpt lat="45.28578129507931" lon="11.733724420546627"><ele>14.0</ele><time>2026-04-04T14:27:35.867Z</time></trkpt><trkpt lat="45.28562715901087" lon="11.733728442204262"><ele>14.0</ele><time>2026-04-04T14:27:36.867Z</time></trkpt><trkpt lat="45.28547851495325" lon="11.733717759518921"><ele>14.0</ele><time>2026-04-04T14:27:37.867Z</time></trkpt><trkpt lat="45.28534549851527" lon="11.733743759078987"><ele>14.0</ele><time>2026-04-04T14:27:38.867Z</time></trkpt><trkpt lat="45.28522032414587" lon="11.733791796987392"><ele>14.0</ele><time>2026-04-04T14:27:39.867Z</time></trkpt><trkpt lat="45.28509363064114" lon="11.733864790196757"><ele>14.0</ele><time>2026-04-04T14:27:40.867Z</time></trkpt><trkpt lat="45.284988851305805" lon="11.733942027447592"><ele>14.0</ele><time>2026-04-04T14:27:41.867Z</time></trkpt><trkpt lat="45.28488816919168" lon="11.734036146334903"><ele>14.0</ele><time>2026-04-04T14:27:42.867Z</time></trkpt><trkpt lat="45.284792979802745" lon="11.734163514736313"><ele>14.0</ele><time>2026-04-04T14:27:43.867Z</time></trkpt><trkpt lat="45.28469848734036" lon="11.734330806422955"><ele>15.75</ele><time>2026-04-04T14:27:44.867Z</time></trkpt><trkpt lat="45.284629106364" lon="11.734488186505613"><ele>17.5</ele><time>2026-04-04T14:27:45.867Z</time></trkpt><trkpt lat="45.284566989927534" lon="11.734671349235644"><ele>19.25</ele><time>2026-04-04T14:27:46.867Z</time></trkpt><trkpt lat="45.28453655607174" lon="11.734843712619307"><ele>21.0</ele><time>2026-04-04T14:27:47.867Z</time></trkpt><trkpt lat="45.284482445378295" lon="11.73498911943489"><ele>21.0</ele><time>2026-04-04T14:27:48.867Z</time></trkpt><trkpt lat="45.284444850346915" lon="11.735149546494004"><ele>21.0</ele><time>2026-04-04T14:27:49.867Z</time></trkpt><trkpt lat="45.28440534545676" lon="11.735318842361737"><ele>21.0</ele><time>2026-04-04T14:27:50.867Z</time></trkpt><trkpt lat="45.284364219271986" lon="11.735484336694723"><ele>21.0</ele><time>2026-04-04T14:27:51.867Z</time></trkpt><trkpt lat="45.28433445805396" lon="11.735648260556255"><ele>20.5</ele><time>2026-04-04T14:27:52.867Z</time></trkpt><trkpt lat="45.28429882587909" lon="11.735804338396656"><ele>20.0</ele><time>2026-04-04T14:27:53.867Z</time></trkpt><trkpt lat="45.284305274227314" lon="11.735979516174165"><ele>19.5</ele><time>2026-04-04T14:27:54.867Z</time></trkpt><trkpt lat="45.284330159446796" lon="11.736160498876277"><ele>19.0</ele><time>2026-04-04T14:27:55.866Z</time></trkpt><trkpt lat="45.28436973507871" lon="11.736342065633877"><ele>21.0</ele><time>2026-04-04T14:27:56.866Z</time></trkpt><trkpt lat="45.28441004855699" lon="11.736521331616242"><ele>23.0</ele><time>2026-04-04T14:27:57.866Z</time></trkpt><trkpt lat="45.28444933702195" lon="11.736693198370192"><ele>25.0</ele><time>2026-04-04T14:27:58.866Z</time></trkpt><trkpt lat="45.28448073427167" lon="11.736856907191525"><ele>27.0</ele><time>2026-04-04T14:27:59.866Z</time></trkpt><trkpt lat="45.28449884925342" lon="11.737022148010693"><ele>28.75</ele><time>2026-04-04T14:28:00.866Z</time></trkpt><trkpt lat="45.28451513189018" lon="11.737193437759545"><ele>30.5</ele><time>2026-04-04T14:28:01.866Z</time></trkpt><trkpt lat="45.284512602938634" lon="11.737372475037256"><ele>32.25</ele><time>2026-04-04T14:28:02.866Z</time></trkpt><trkpt lat="45.28449931339856" lon="11.737546614899406"><ele>34.0</ele><time>2026-04-04T14:28:03.866Z</time></trkpt><trkpt lat="45.28446109820428" lon="11.737703998828534"><ele>33.4</ele><time>2026-04-04T14:28:04.866Z</time></trkpt><trkpt lat="45.2844090750381" lon="11.737854049422733"><ele>32.8</ele><time>2026-04-04T14:28:05.866Z</time></trkpt><trkpt lat="45.28434513832184" lon="11.737991171250286"><ele>32.2</ele><time>2026-04-04T14:28:06.866Z</time></trkpt><trkpt lat="45.28425740005356" lon="11.738093756613827"><ele>31.6</ele><time>2026-04-04T14:28:07.866Z</time></trkpt><trkpt lat="45.284180439350116" lon="11.738175857772717"><ele>31.0</ele><time>2026-04-04T14:28:08.866Z</time></trkpt><trkpt lat="45.2841042882248" lon="11.738254428538344"><ele>31.0</ele><time>2026-04-04T14:28:09.866Z</time></trkpt><trkpt lat="45.28401882196277" lon="11.73832728523526"><ele>31.0</ele><time>2026-04-04T14:28:10.866Z</time></trkpt><trkpt lat="45.28391452853216" lon="11.73838788620505"><ele>31.0</ele><time>2026-04-04T14:28:11.866Z</time></trkpt><trkpt lat="45.28380713896145" lon="11.738445372003412"><ele>31.0</ele><time>2026-04-04T14:28:12.866Z</time></trkpt><trkpt lat="45.28367298854348" lon="11.738488253030408"><ele>31.0</ele><time>2026-04-04T14:28:13.866Z</time></trkpt><trkpt lat="45.28353837290262" lon="11.738531941868242"><ele>31.0</ele><time>2026-04-04T14:28:14.866Z</time></trkpt><trkpt lat="45.28340111124793" lon="11.738572374612444"><ele>31.0</ele><time>2026-04-04T14:28:15.866Z</time></trkpt><trkpt lat="45.28327103721412" lon="11.738618656382465"><ele>31.0</ele><time>2026-04-04T14:28:16.866Z</time></trkpt><trkpt lat="45.28313347504608" lon="11.738673650143761"><ele>27.666666666666668</ele><time>2026-04-04T14:28:17.866Z</time></trkpt><trkpt lat="45.282990181902605" lon="11.738729089299623"><ele>24.333333333333336</ele><time>2026-04-04T14:28:18.866Z</time></trkpt><trkpt lat="45.282833292487375" lon="11.738805767583507"><ele>21.0</ele><time>2026-04-04T14:28:19.866Z</time></trkpt><trkpt lat="45.282684724522944" lon="11.738893617771176"><ele>21.0</ele><time>2026-04-04T14:28:20.866Z</time></trkpt><trkpt lat="45.28253469016172" lon="11.738983230620352"><ele>21.0</ele><time>2026-04-04T14:28:21.866Z</time></trkpt><trkpt lat="45.28239381442225" lon="11.739072698148899"><ele>21.0</ele><time>2026-04-04T14:28:22.866Z</time></trkpt><trkpt lat="45.28224457449027" lon="11.739153603803542"><ele>20.25</ele><time>2026-04-04T14:28:23.866Z</time></trkpt><trkpt lat="45.28211336623312" lon="11.739265600079547"><ele>19.5</ele><time>2026-04-04T14:28:24.866Z</time></trkpt><trkpt lat="45.28198983653424" lon="11.739360883257362"><ele>18.75</ele><time>2026-04-04T14:28:25.865Z</time></trkpt><trkpt lat="45.28188042523634" lon="11.7394562306102"><ele>18.0</ele><time>2026-04-04T14:28:26.865Z</time></trkpt><trkpt lat="45.28177131942851" lon="11.739499549132287"><ele>18.0</ele><time>2026-04-04T14:28:27.865Z</time></trkpt><trkpt lat="45.28166134307605" lon="11.739605078357219"><ele>18.0</ele><time>2026-04-04T14:28:28.865Z</time></trkpt><trkpt lat="45.28155176142842" lon="11.739696932690316"><ele>18.0</ele><time>2026-04-04T14:28:29.865Z</time></trkpt><trkpt lat="45.2814368469086" lon="11.739779374778948"><ele>18.0</ele><time>2026-04-04T14:28:30.865Z</time></trkpt><trkpt lat="45.28132708254819" lon="11.739856506234373"><ele>19.4</ele><time>2026-04-04T14:28:31.865Z</time></trkpt><trkpt lat="45.28122459342583" lon="11.739930210186552"><ele>20.8</ele><time>2026-04-04T14:28:32.865Z</time></trkpt><trkpt lat="45.28112427811176" lon="11.739984045968692"><ele>22.2</ele><time>2026-04-04T14:28:33.865Z</time></trkpt><trkpt lat="45.28102740353038" lon="11.740003538244856"><ele>23.6</ele><time>2026-04-04T14:28:34.865Z</time></trkpt><trkpt lat="45.280940318196265" lon="11.73999233046011"><ele>25.0</ele><time>2026-04-04T14:28:35.865Z</time></trkpt><trkpt lat="45.28085571893511" lon="11.739943927237077"><ele>25.0</ele><time>2026-04-04T14:28:36.865Z</time></trkpt><trkpt lat="45.280778438184086" lon="11.739873286116792"><ele>25.0</ele><time>2026-04-04T14:28:37.865Z</time></trkpt><trkpt lat="45.280693182999514" lon="11.739766282035498"><ele>25.0</ele><time>2026-04-04T14:28:38.865Z</time></trkpt><trkpt lat="45.28059751371411" lon="11.739685705500868"><ele>25.0</ele><time>2026-04-04T14:28:39.865Z</time></trkpt><trkpt lat="45.280494370018786" lon="11.739588381858514"><ele>25.0</ele><time>2026-04-04T14:28:40.865Z</time></trkpt><trkpt lat="45.280358544127104" lon="11.739530294730613"><ele>22.25</ele><time>2026-04-04T14:28:41.865Z</time></trkpt><trkpt lat="45.28021985378335" lon="11.739487571731878"><ele>19.5</ele><time>2026-04-04T14:28:42.865Z</time></trkpt><trkpt lat="45.28008590492326" lon="11.739473653294358"><ele>16.75</ele><time>2026-04-04T14:28:43.865Z</time></trkpt><trkpt lat="45.27995844729279" lon="11.739498248649905"><ele>14.0</ele><time>2026-04-04T14:28:44.865Z</time></trkpt><trkpt lat="45.279833935870414" lon="11.73954912342865"><ele>13.0</ele><time>2026-04-04T14:28:45.865Z</time></trkpt><trkpt lat="45.27972433901491" lon="11.739616373336826"><ele>12.0</ele><time>2026-04-04T14:28:46.865Z</time></trkpt><trkpt lat="45.2796198562484" lon="11.739701248075203"><ele>11.0</ele><time>2026-04-04T14:28:47.865Z</time></trkpt><trkpt lat="45.27953940681106" lon="11.739795105813663"><ele>10.0</ele><time>2026-04-04T14:28:48.865Z</time></trkpt><trkpt lat="45.27945695493439" lon="11.739934970147742"><ele>10.0</ele><time>2026-04-04T14:28:49.865Z</time></trkpt><trkpt lat="45.279362679406" lon="11.740134135677394"><ele>10.0</ele><time>2026-04-04T14:28:50.865Z</time></trkpt><trkpt lat="45.279248232853874" lon="11.74036186522791"><ele>10.0</ele><time>2026-04-04T14:28:51.865Z</time></trkpt><trkpt lat="45.279107458029394" lon="11.740609677136469"><ele>9.5</ele><time>2026-04-04T14:28:52.865Z</time></trkpt><trkpt lat="45.278980447056085" lon="11.740858370116964"><ele>9.0</ele><time>2026-04-04T14:28:53.865Z</time></trkpt><trkpt lat="45.27884735783936" lon="11.741139208739892"><ele>8.0</ele><time>2026-04-04T14:28:54.865Z</time></trkpt><trkpt lat="45.2787060696066" lon="11.74141048544069"><ele>7.0</ele><time>2026-04-04T14:28:55.864Z</time></trkpt><trkpt lat="45.2785712108718" lon="11.74167947218831"><ele>7.333333333333334</ele><time>2026-04-04T14:28:56.864Z</time></trkpt><trkpt lat="45.278443480995335" lon="11.74191860251007"><ele>7.666666666666666</ele><time>2026-04-04T14:28:57.864Z</time></trkpt><trkpt lat="45.27834046572162" lon="11.742146046270115"><ele>8.0</ele><time>2026-04-04T14:28:58.864Z</time></trkpt><trkpt lat="45.27826209412873" lon="11.74239394727614"><ele>8.0</ele><time>2026-04-04T14:28:59.864Z</time></trkpt><trkpt lat="45.278200375906124" lon="11.742663418806204"><ele>8.0</ele><time>2026-04-04T14:29:00.864Z</time></trkpt><trkpt lat="45.27815577334147" lon="11.742965457146125"><ele>8.0</ele><time>2026-04-04T14:29:01.866Z</time></trkpt><trkpt lat="45.27813332666572" lon="11.743297672536617"><ele>7.5</ele><time>2026-04-04T14:29:02.866Z</time></trkpt><trkpt lat="45.2780961620152" lon="11.74363691929648"><ele>7.0</ele><time>2026-04-04T14:29:03.866Z</time></trkpt><trkpt lat="45.278061982300954" lon="11.743960059985152"><ele>7.0</ele><time>2026-04-04T14:29:04.866Z</time></trkpt><trkpt lat="45.2779966830274" lon="11.744243404938004"><ele>7.0</ele><time>2026-04-04T14:29:05.865Z</time></trkpt><trkpt lat="45.277918946847365" lon="11.744507559403283"><ele>7.0</ele><time>2026-04-04T14:29:06.865Z</time></trkpt><trkpt lat="45.277832960122986" lon="11.744795253686183"><ele>6.333333333333334</ele><time>2026-04-04T14:29:07.865Z</time></trkpt><trkpt lat="45.2777467337179" lon="11.745081538299196"><ele>5.666666666666667</ele><time>2026-04-04T14:29:08.866Z</time></trkpt><trkpt lat="45.277658984232524" lon="11.74537287916015"><ele>5.0</ele><time>2026-04-04T14:29:09.866Z</time></trkpt><trkpt lat="45.27756699678521" lon="11.745678291023848"><ele>4.5</ele><time>2026-04-04T14:29:10.865Z</time></trkpt><trkpt lat="45.27747291940611" lon="11.745983495277418"><ele>4.0</ele><time>2026-04-04T14:29:11.865Z</time></trkpt><trkpt lat="45.27737894740829" lon="11.746291663833096"><ele>4.0</ele><time>2026-04-04T14:29:12.865Z</time></trkpt><trkpt lat="45.27729055056863" lon="11.746585825758599"><ele>4.0</ele><time>2026-04-04T14:29:13.865Z</time></trkpt><trkpt lat="45.27720591329688" lon="11.746867477142155"><ele>4.0</ele><time>2026-04-04T14:29:14.865Z</time></trkpt><trkpt lat="45.277126753821214" lon="11.747125524132933"><ele>4.0</ele><time>2026-04-04T14:29:15.865Z</time></trkpt><trkpt lat="45.27705028400253" lon="11.747370131861453"><ele>4.0</ele><time>2026-04-04T14:29:16.865Z</time></trkpt><trkpt lat="45.27697268821512" lon="11.747610825861754"><ele>4.0</ele><time>2026-04-04T14:29:17.865Z</time></trkpt><trkpt lat="45.276844319333414" lon="11.747812129009388"><ele>3.6666666666666665</ele><time>2026-04-04T14:29:18.865Z</time></trkpt><trkpt lat="45.27671011404891" lon="11.747992527218212"><ele>3.333333333333333</ele><time>2026-04-04T14:29:19.865Z</time></trkpt><trkpt lat="45.27655296740502" lon="11.748149480350817"><ele>3.0</ele><time>2026-04-04T14:29:20.865Z</time></trkpt><trkpt lat="45.27637460585625" lon="11.74827078605245"><ele>3.0</ele><time>2026-04-04T14:29:21.865Z</time></trkpt><trkpt lat="45.27620327800139" lon="11.748337572864651"><ele>3.0</ele><time>2026-04-04T14:29:22.865Z</time></trkpt><trkpt lat="45.27602094550907" lon="11.748379073763727"><ele>3.0</ele><time>2026-04-04T14:29:23.865Z</time></trkpt><trkpt lat="45.275821582683186" lon="11.748376727607308"><ele>3.0</ele><time>2026-04-04T14:29:24.865Z</time></trkpt><trkpt lat="45.275593761786624" lon="11.748332181224361"><ele>3.0</ele><time>2026-04-04T14:29:25.865Z</time></trkpt><trkpt lat="45.275349067909396" lon="11.748273500698176"><ele>3.0</ele><time>2026-04-04T14:29:26.865Z</time></trkpt><trkpt lat="45.27508572127717" lon="11.748213275559804"><ele>3.0</ele><time>2026-04-04T14:29:27.865Z</time></trkpt><trkpt lat="45.27482165929175" lon="11.748150577401713"><ele>3.0</ele><time>2026-04-04T14:29:28.865Z</time></trkpt><trkpt lat="45.27454384267229" lon="11.74808443057017"><ele>3.0</ele><time>2026-04-04T14:29:29.865Z</time></trkpt><trkpt lat="45.274247456678" lon="11.748015887273711"><ele>3.0</ele><time>2026-04-04T14:29:30.865Z</time></trkpt><trkpt lat="45.27394803601096" lon="11.74794462931438"><ele>3.0</ele><time>2026-04-04T14:29:31.865Z</time></trkpt><trkpt lat="45.273651351690084" lon="11.74787377318925"><ele>3.5</ele><time>2026-04-04T14:29:32.864Z</time></trkpt><trkpt lat="45.27335523074738" lon="11.74780378212522"><ele>4.0</ele><time>2026-04-04T14:29:33.864Z</time></trkpt><trkpt lat="45.2730592558" lon="11.74773510191363"><ele>5.5</ele><time>2026-04-04T14:29:34.864Z</time></trkpt><trkpt lat="45.272766243534605" lon="11.747687366154459"><ele>7.0</ele><time>2026-04-04T14:29:35.864Z</time></trkpt><trkpt lat="45.272485729611" lon="11.74761845111268"><ele>7.0</ele><time>2026-04-04T14:29:36.864Z</time></trkpt><trkpt lat="45.27222120795047" lon="11.747558723426046"><ele>7.0</ele><time>2026-04-04T14:29:37.864Z</time></trkpt><trkpt lat="45.27198445074144" lon="11.74750115125754"><ele>7.0</ele><time>2026-04-04T14:29:38.864Z</time></trkpt><trkpt lat="45.27177455433174" lon="11.747445554903917"><ele>7.0</ele><time>2026-04-04T14:29:39.864Z</time></trkpt><trkpt lat="45.271576957398445" lon="11.747393084654451"><ele>7.0</ele><time>2026-04-04T14:29:40.864Z</time></trkpt><trkpt lat="45.27138210333576" lon="11.74738302468245"><ele>8.0</ele><time>2026-04-04T14:29:41.864Z</time></trkpt><trkpt lat="45.27117418308118" lon="11.747413825640782"><ele>9.0</ele><time>2026-04-04T14:29:42.864Z</time></trkpt><trkpt lat="45.270966114507964" lon="11.747455641841539"><ele>10.0</ele><time>2026-04-04T14:29:43.864Z</time></trkpt><trkpt lat="45.27078882340296" lon="11.747483221416811"><ele>10.0</ele><time>2026-04-04T14:29:44.864Z</time></trkpt><trkpt lat="45.27062443512355" lon="11.74748526483973"><ele>10.0</ele><time>2026-04-04T14:29:45.864Z</time></trkpt><trkpt lat="45.27043832080849" lon="11.747470088070123"><ele>10.0</ele><time>2026-04-04T14:29:46.864Z</time></trkpt><trkpt lat="45.270234753068785" lon="11.747383274982237"><ele>9.666666666666668</ele><time>2026-04-04T14:29:47.864Z</time></trkpt><trkpt lat="45.27003804421314" lon="11.747318311144099"><ele>9.333333333333334</ele><time>2026-04-04T14:29:48.864Z</time></trkpt><trkpt lat="45.26986169777127" lon="11.747259684934981"><ele>9.0</ele><time>2026-04-04T14:29:49.864Z</time></trkpt><trkpt lat="45.26970054484612" lon="11.747205695126869"><ele>9.0</ele><time>2026-04-04T14:29:50.864Z</time></trkpt><trkpt lat="45.26957943823283" lon="11.747164503213245"><ele>9.0</ele><time>2026-04-04T14:29:51.864Z</time></trkpt><trkpt lat="45.26949054863487" lon="11.74712997045582"><ele>9.0</ele><time>2026-04-04T14:29:52.864Z</time></trkpt><trkpt lat="45.269401527104705" lon="11.747081196224743"><ele>9.0</ele><time>2026-04-04T14:29:54.864Z</time></trkpt><trkpt lat="45.269361558951005" lon="11.747005723793373"><ele>9.0</ele><time>2026-04-04T14:29:56.864Z</time></trkpt><trkpt lat="45.269401769836705" lon="11.74685168203561"><ele>9.0</ele><time>2026-04-04T14:29:58.864Z</time></trkpt><trkpt lat="45.26946669083503" lon="11.746729487137669"><ele>9.0</ele><time>2026-04-04T14:29:59.864Z</time></trkpt><trkpt lat="45.269543209999995" lon="11.74657226572724"><ele>9.0</ele><time>2026-04-04T14:30:00.864Z</time></trkpt><trkpt lat="45.269622330596185" lon="11.74641060879716"><ele>9.0</ele><time>2026-04-04T14:30:01.864Z</time></trkpt><trkpt lat="45.26970437408001" lon="11.746235694388636"><ele>11.333333333333332</ele><time>2026-04-04T14:30:02.863Z</time></trkpt><trkpt lat="45.26980218884451" lon="11.746057654942465"><ele>13.666666666666666</ele><time>2026-04-04T14:30:03.863Z</time></trkpt><trkpt lat="45.2698754170036" lon="11.745862635516072"><ele>16.0</ele><time>2026-04-04T14:30:04.863Z</time></trkpt><trkpt lat="45.269960559163685" lon="11.745683768614905"><ele>16.0</ele><time>2026-04-04T14:30:05.863Z</time></trkpt><trkpt lat="45.270041814092195" lon="11.745516633812432"><ele>16.0</ele><time>2026-04-04T14:30:06.863Z</time></trkpt><trkpt lat="45.27011796736369" lon="11.745366918604113"><ele>16.0</ele><time>2026-04-04T14:30:07.863Z</time></trkpt><trkpt lat="45.270179592265926" lon="11.745256774242979"><ele>16.0</ele><time>2026-04-04T14:30:08.863Z</time></trkpt><trkpt lat="45.27025825632069" lon="11.74512681603824"><ele>14.5</ele><time>2026-04-04T14:30:09.863Z</time></trkpt><trkpt lat="45.270340641037684" lon="11.74499462089474"><ele>13.0</ele><time>2026-04-04T14:30:10.863Z</time></trkpt><trkpt lat="45.27042093533319" lon="11.744852697331664"><ele>11.5</ele><time>2026-04-04T14:30:11.863Z</time></trkpt><trkpt lat="45.27050145696133" lon="11.744701045560143"><ele>10.0</ele><time>2026-04-04T14:30:12.863Z</time></trkpt><trkpt lat="45.270580471928625" lon="11.744546561034012"><ele>11.5</ele><time>2026-04-04T14:30:13.863Z</time></trkpt><trkpt lat="45.27065971159425" lon="11.744373661963388"><ele>13.0</ele><time>2026-04-04T14:30:14.863Z</time></trkpt><trkpt lat="45.27073510914153" lon="11.744198729300557"><ele>14.5</ele><time>2026-04-04T14:30:15.863Z</time></trkpt><trkpt lat="45.2708229236716" lon="11.744037870573667"><ele>16.0</ele><time>2026-04-04T14:30:16.863Z</time></trkpt><trkpt lat="45.270920783440225" lon="11.74386860978815"><ele>16.0</ele><time>2026-04-04T14:30:17.863Z</time></trkpt><trkpt lat="45.27101932504404" lon="11.74369212992898"><ele>16.0</ele><time>2026-04-04T14:30:18.863Z</time></trkpt><trkpt lat="45.27112555973416" lon="11.743517843461248"><ele>16.0</ele><time>2026-04-04T14:30:19.863Z</time></trkpt><trkpt lat="45.27121855666172" lon="11.74333040940154"><ele>15.75</ele><time>2026-04-04T14:30:20.863Z</time></trkpt><trkpt lat="45.27131971782148" lon="11.743169872843797"><ele>15.5</ele><time>2026-04-04T14:30:21.863Z</time></trkpt><trkpt lat="45.27140276486003" lon="11.74300571954652"><ele>15.25</ele><time>2026-04-04T14:30:22.863Z</time></trkpt><trkpt lat="45.2714751658235" lon="11.742826887616067"><ele>15.0</ele><time>2026-04-04T14:30:23.863Z</time></trkpt><trkpt lat="45.271537867955004" lon="11.742627703299211"><ele>15.0</ele><time>2026-04-04T14:30:24.863Z</time></trkpt><trkpt lat="45.271592880803475" lon="11.742427345075088"><ele>15.0</ele><time>2026-04-04T14:30:25.863Z</time></trkpt><trkpt lat="45.27163928486174" lon="11.742249769147433"><ele>15.0</ele><time>2026-04-04T14:30:26.863Z</time></trkpt><trkpt lat="45.271672176673846" lon="11.742078246270193"><ele>15.0</ele><time>2026-04-04T14:30:27.863Z</time></trkpt><trkpt lat="45.27168872556086" lon="11.74191377891695"><ele>15.6</ele><time>2026-04-04T14:30:28.863Z</time></trkpt><trkpt lat="45.2716931362512" lon="11.741758402456895"><ele>16.2</ele><time>2026-04-04T14:30:29.863Z</time></trkpt><trkpt lat="45.271674548677545" lon="11.741601428421408"><ele>16.8</ele><time>2026-04-04T14:30:30.863Z</time></trkpt><trkpt lat="45.27161331827932" lon="11.741482031263132"><ele>17.4</ele><time>2026-04-04T14:30:31.863Z</time></trkpt><trkpt lat="45.271517071422835" lon="11.741384318533"><ele>18.0</ele><time>2026-04-04T14:30:32.862Z</time></trkpt><trkpt lat="45.271377505063874" lon="11.741296834523654"><ele>13.666666666666666</ele><time>2026-04-04T14:30:33.862Z</time></trkpt><trkpt lat="45.271204894724285" lon="11.741218597954946"><ele>9.333333333333334</ele><time>2026-04-04T14:30:34.862Z</time></trkpt><trkpt lat="45.271016050842306" lon="11.741145522488225"><ele>5.0</ele><time>2026-04-04T14:30:35.862Z</time></trkpt><trkpt lat="45.27084913511467" lon="11.741062638577713"><ele>5.75</ele><time>2026-04-04T14:30:36.862Z</time></trkpt><trkpt lat="45.27069216501632" lon="11.740995791686117"><ele>6.5</ele><time>2026-04-04T14:30:37.862Z</time></trkpt><trkpt lat="45.27055952723529" lon="11.74094738691256"><ele>7.25</ele><time>2026-04-04T14:30:38.862Z</time></trkpt><trkpt lat="45.27046436503611" lon="11.74088906832211"><ele>8.0</ele><time>2026-04-04T14:30:39.862Z</time></trkpt><trkpt lat="45.27039016875144" lon="11.740772404788265"><ele>8.0</ele><time>2026-04-04T14:30:40.862Z</time></trkpt><trkpt lat="45.2703059035327" lon="11.740636750949214"><ele>8.0</ele><time>2026-04-04T14:30:41.862Z</time></trkpt><trkpt lat="45.270230062415344" lon="11.740452976141105"><ele>8.0</ele><time>2026-04-04T14:30:42.862Z</time></trkpt><trkpt lat="45.270141962911374" lon="11.740210008191463"><ele>8.666666666666666</ele><time>2026-04-04T14:30:43.862Z</time></trkpt><trkpt lat="45.27007824526768" lon="11.739952916667654"><ele>9.333333333333334</ele><time>2026-04-04T14:30:44.862Z</time></trkpt><trkpt lat="45.27002804461081" lon="11.73968291385177"><ele>10.0</ele><time>2026-04-04T14:30:45.862Z</time></trkpt><trkpt lat="45.26997856443715" lon="11.739402506315546"><ele>11.0</ele><time>2026-04-04T14:30:46.862Z</time></trkpt><trkpt lat="45.26993861026569" lon="11.739127448364261"><ele>12.0</ele><time>2026-04-04T14:30:47.862Z</time></trkpt><trkpt lat="45.26989428336074" lon="11.738852660426678"><ele>13.0</ele><time>2026-04-04T14:30:48.862Z</time></trkpt><trkpt lat="45.26983886056789" lon="11.738583136990368"><ele>13.666666666666666</ele><time>2026-04-04T14:30:49.862Z</time></trkpt><trkpt lat="45.26979093028594" lon="11.738315192240325"><ele>14.333333333333332</ele><time>2026-04-04T14:30:50.862Z</time></trkpt><trkpt lat="45.269739881466805" lon="11.738055685054052"><ele>15.0</ele><time>2026-04-04T14:30:51.862Z</time></trkpt><trkpt lat="45.2696979825704" lon="11.737826728606812"><ele>12.666666666666666</ele><time>2026-04-04T14:30:52.862Z</time></trkpt><trkpt lat="45.26966835889407" lon="11.737615334328018"><ele>10.333333333333332</ele><time>2026-04-04T14:30:53.862Z</time></trkpt><trkpt lat="45.26966416671214" lon="11.737406552727805"><ele>8.0</ele><time>2026-04-04T14:30:54.862Z</time></trkpt><trkpt lat="45.26965283398429" lon="11.737175520125836"><ele>8.0</ele><time>2026-04-04T14:30:55.862Z</time></trkpt><trkpt lat="45.26963658361157" lon="11.736917827640065"><ele>8.0</ele><time>2026-04-04T14:30:56.862Z</time></trkpt><trkpt lat="45.26962566647687" lon="11.73664519353408"><ele>8.0</ele><time>2026-04-04T14:30:57.862Z</time></trkpt><trkpt lat="45.26962867457069" lon="11.736372691202742"><ele>8.0</ele><time>2026-04-04T14:30:58.862Z</time></trkpt><trkpt lat="45.26964470805037" lon="11.736108793277237"><ele>8.0</ele><time>2026-04-04T14:30:59.862Z</time></trkpt><trkpt lat="45.26966697952521" lon="11.735859243486807"><ele>8.0</ele><time>2026-04-04T14:31:00.862Z</time></trkpt><trkpt lat="45.269674862184395" lon="11.735627453939566"><ele>7.666666666666666</ele><time>2026-04-04T14:31:01.862Z</time></trkpt><trkpt lat="45.2696659879183" lon="11.735400831590514"><ele>7.333333333333334</ele><time>2026-04-04T14:31:02.861Z</time></trkpt><trkpt lat="45.26962450136616" lon="11.735170169838606"><ele>7.0</ele><time>2026-04-04T14:31:03.861Z</time></trkpt><trkpt lat="45.26956584116247" lon="11.734921142413077"><ele>7.0</ele><time>2026-04-04T14:31:04.861Z</time></trkpt><trkpt lat="45.26950728364181" lon="11.734684232761907"><ele>7.0</ele><time>2026-04-04T14:31:05.861Z</time></trkpt><trkpt lat="45.26945418147844" lon="11.734481337073687"><ele>7.0</ele><time>2026-04-04T14:31:06.861Z</time></trkpt><trkpt lat="45.269417513582304" lon="11.734319958091392"><ele>7.0</ele><time>2026-04-04T14:31:07.999Z</time></trkpt><trkpt lat="45.26940224838129" lon="11.734160938856336"><ele>7.25</ele><time>2026-04-04T14:31:08.999Z</time></trkpt><trkpt lat="45.269394099579564" lon="11.733981417882077"><ele>7.5</ele><time>2026-04-04T14:31:09.999Z</time></trkpt><trkpt lat="45.2694402522869" lon="11.733778372647622"><ele>7.75</ele><time>2026-04-04T14:31:10.999Z</time></trkpt><trkpt lat="45.26950991588428" lon="11.733555538289838"><ele>8.0</ele><time>2026-04-04T14:31:11.999Z</time></trkpt><trkpt lat="45.26958152566353" lon="11.7333532202592"><ele>8.25</ele><time>2026-04-04T14:31:12.999Z</time></trkpt><trkpt lat="45.269661192320086" lon="11.733188487673502"><ele>8.5</ele><time>2026-04-04T14:31:13.999Z</time></trkpt><trkpt lat="45.26970715833787" lon="11.733042389055994"><ele>8.75</ele><time>2026-04-04T14:31:14.999Z</time></trkpt><trkpt lat="45.269733736533006" lon="11.732891873881805"><ele>9.0</ele><time>2026-04-04T14:31:15.999Z</time></trkpt><trkpt lat="45.269725472876246" lon="11.732708421323219"><ele>9.333333333333334</ele><time>2026-04-04T14:31:16.999Z</time></trkpt><trkpt lat="45.26968358842447" lon="11.73253697456304"><ele>9.666666666666668</ele><time>2026-04-04T14:31:17.999Z</time></trkpt><trkpt lat="45.269608685039614" lon="11.732333806454589"><ele>10.0</ele><time>2026-04-04T14:31:19Z</time></trkpt><trkpt lat="45.26949051345641" lon="11.732160077445252"><ele>10.0</ele><time>2026-04-04T14:31:20Z</time></trkpt><trkpt lat="45.26939256745467" lon="11.732049930534464"><ele>10.0</ele><time>2026-04-04T14:31:21Z</time></trkpt><trkpt lat="45.269308956219355" lon="11.731932998563162"><ele>10.0</ele><time>2026-04-04T14:31:22Z</time></trkpt><trkpt lat="45.269245708218115" lon="11.731796291795526"><ele>10.0</ele><time>2026-04-04T14:31:23Z</time></trkpt><trkpt lat="45.26922649239575" lon="11.731642480678506"><ele>10.333333333333334</ele><time>2026-04-04T14:31:24Z</time></trkpt><trkpt lat="45.269239141965485" lon="11.731453805678042"><ele>10.666666666666666</ele><time>2026-04-04T14:31:25Z</time></trkpt><trkpt lat="45.26927690434029" lon="11.731199842875453"><ele>11.0</ele><time>2026-04-04T14:31:26Z</time></trkpt><trkpt lat="45.26932696530469" lon="11.730926445240533"><ele>11.0</ele><time>2026-04-04T14:31:27Z</time></trkpt><trkpt lat="45.26938635956016" lon="11.730637760242578"><ele>11.0</ele><time>2026-04-04T14:31:28Z</time></trkpt><trkpt lat="45.269448235952474" lon="11.730347724673624"><ele>11.0</ele><time>2026-04-04T14:31:29Z</time></trkpt><trkpt lat="45.26950277960504" lon="11.730092060159894"><ele>11.666666666666666</ele><time>2026-04-04T14:31:30Z</time></trkpt><trkpt lat="45.26954192537286" lon="11.729860134566273"><ele>12.333333333333332</ele><time>2026-04-04T14:31:31Z</time></trkpt><trkpt lat="45.26960353349257" lon="11.729667249077261"><ele>13.0</ele><time>2026-04-04T14:31:32Z</time></trkpt><trkpt lat="45.26964611589311" lon="11.729482779280692"><ele>15.0</ele><time>2026-04-04T14:31:33Z</time></trkpt><trkpt lat="45.269666269287946" lon="11.729297298030001"><ele>17.0</ele><time>2026-04-04T14:31:34Z</time></trkpt><trkpt lat="45.26963538297356" lon="11.729148664716016"><ele>19.0</ele><time>2026-04-04T14:31:35Z</time></trkpt><trkpt lat="45.269584934585914" lon="11.729007851983994"><ele>21.0</ele><time>2026-04-04T14:31:36Z</time></trkpt><trkpt lat="45.26951087617664" lon="11.728860855489149"><ele>21.0</ele><time>2026-04-04T14:31:37Z</time></trkpt><trkpt lat="45.26939539435067" lon="11.728683856350013"><ele>21.0</ele><time>2026-04-04T14:31:38Z</time></trkpt><trkpt lat="45.26928350829747" lon="11.728537197781273"><ele>21.0</ele><time>2026-04-04T14:31:39Z</time></trkpt><trkpt lat="45.2691747936164" lon="11.728390255814595"><ele>22.5</ele><time>2026-04-04T14:31:40Z</time></trkpt><trkpt lat="45.2690745392173" lon="11.728254749002758"><ele>24.0</ele><time>2026-04-04T14:31:41Z</time></trkpt><trkpt lat="45.268986271213606" lon="11.72811406764154"><ele>25.5</ele><time>2026-04-04T14:31:42Z</time></trkpt><trkpt lat="45.26892873829378" lon="11.727961784792216"><ele>27.0</ele><time>2026-04-04T14:31:43Z</time></trkpt><trkpt lat="45.26888409625814" lon="11.727791029361443"><ele>29.6</ele><time>2026-04-04T14:31:44Z</time></trkpt><trkpt lat="45.26885662320403" lon="11.727654940345762"><ele>32.2</ele><time>2026-04-04T14:31:45Z</time></trkpt><trkpt lat="45.2688425043703" lon="11.727528324820804"><ele>34.8</ele><time>2026-04-04T14:31:46Z</time></trkpt><trkpt lat="45.26889671586727" lon="11.727444339910592"><ele>37.4</ele><time>2026-04-04T14:31:47Z</time></trkpt><trkpt lat="45.26896347240358" lon="11.727368319664551"><ele>40.0</ele><time>2026-04-04T14:31:48Z</time></trkpt><trkpt lat="45.269055219033234" lon="11.727278070317823"><ele>41.5</ele><time>2026-04-04T14:31:49Z</time></trkpt><trkpt lat="45.269170166852646" lon="11.727175613012896"><ele>43.0</ele><time>2026-04-04T14:31:50Z</time></trkpt><trkpt lat="45.26928209319425" lon="11.727032473669592"><ele>44.5</ele><time>2026-04-04T14:31:51Z</time></trkpt><trkpt lat="45.26939917744211" lon="11.726905981015664"><ele>46.0</ele><time>2026-04-04T14:31:52Z</time></trkpt><trkpt lat="45.269514198833505" lon="11.726802544660881"><ele>46.599999999999994</ele><time>2026-04-04T14:31:53Z</time></trkpt><trkpt lat="45.26962069313491" lon="11.726769246236193"><ele>47.2</ele><time>2026-04-04T14:31:54Z</time></trkpt><trkpt lat="45.26970127899633" lon="11.726677577411037"><ele>47.8</ele><time>2026-04-04T14:31:55Z</time></trkpt><trkpt lat="45.269773294759595" lon="11.726548998478581"><ele>48.400000000000006</ele><time>2026-04-04T14:31:56Z</time></trkpt><trkpt lat="45.26983539692599" lon="11.726414625307685"><ele>49.0</ele><time>2026-04-04T14:31:57Z</time></trkpt><trkpt lat="45.26988662436276" lon="11.726291054067476"><ele>48.800000000000004</ele><time>2026-04-04T14:31:58Z</time></trkpt><trkpt lat="45.26992832783797" lon="11.726183325948096"><ele>48.6</ele><time>2026-04-04T14:31:59Z</time></trkpt><trkpt lat="45.26995828039133" lon="11.72607150720794"><ele>48.4</ele><time>2026-04-04T14:32:00Z</time></trkpt><trkpt lat="45.269993104452624" lon="11.725973949417321"><ele>48.2</ele><time>2026-04-04T14:32:01Z</time></trkpt><trkpt lat="45.27004759862884" lon="11.725803812329962"><ele>48.0</ele><time>2026-04-04T14:32:03Z</time></trkpt><trkpt lat="45.27007826222924" lon="11.725699018967424"><ele>48.0</ele><time>2026-04-04T14:32:04Z</time></trkpt><trkpt lat="45.27010248749584" lon="11.72557358458074"><ele>48.0</ele><time>2026-04-04T14:32:05Z</time></trkpt><trkpt lat="45.270112162314334" lon="11.725422138642724"><ele>48.0</ele><time>2026-04-04T14:32:06Z</time></trkpt><trkpt lat="45.27011520523716" lon="11.72528272837576"><ele>48.0</ele><time>2026-04-04T14:32:07Z</time></trkpt><trkpt lat="45.27013955602277" lon="11.72514841046998"><ele>48.0</ele><time>2026-04-04T14:32:08Z</time></trkpt><trkpt lat="45.27018346792931" lon="11.725010672603208"><ele>46.599999999999994</ele><time>2026-04-04T14:32:09Z</time></trkpt><trkpt lat="45.27023261850363" lon="11.724861462843734"><ele>45.199999999999996</ele><time>2026-04-04T14:32:10Z</time></trkpt><trkpt lat="45.27028271952197" lon="11.724721274287166"><ele>43.8</ele><time>2026-04-04T14:32:11Z</time></trkpt><trkpt lat="45.27032098099036" lon="11.724595261672913"><ele>42.4</ele><time>2026-04-04T14:32:12Z</time></trkpt><trkpt lat="45.270357566712526" lon="11.724476632012099"><ele>41.0</ele><time>2026-04-04T14:32:13Z</time></trkpt><trkpt lat="45.27037527388874" lon="11.724365739407917"><ele>40.0</ele><time>2026-04-04T14:32:14Z</time></trkpt><trkpt lat="45.270364733666646" lon="11.724260769303577"><ele>39.0</ele><time>2026-04-04T14:32:15Z</time></trkpt><trkpt lat="45.27032215551331" lon="11.72417805683035"><ele>38.0</ele><time>2026-04-04T14:32:16Z</time></trkpt><trkpt lat="45.27026272370079" lon="11.724118551961833"><ele>37.0</ele><time>2026-04-04T14:32:17Z</time></trkpt><trkpt lat="45.270169827408715" lon="11.724076044862702"><ele>36.0</ele><time>2026-04-04T14:32:18Z</time></trkpt><trkpt lat="45.27004069498248" lon="11.724043355352514"><ele>35.0</ele><time>2026-04-04T14:32:19Z</time></trkpt><trkpt lat="45.2698926868904" lon="11.724007034516337"><ele>32.0</ele><time>2026-04-04T14:32:20Z</time></trkpt><trkpt lat="45.269731722541756" lon="11.723962208853283"><ele>29.0</ele><time>2026-04-04T14:32:21Z</time></trkpt><trkpt lat="45.269550346537216" lon="11.723904025601984"><ele>26.0</ele><time>2026-04-04T14:32:22Z</time></trkpt><trkpt lat="45.269361928059475" lon="11.723838205780211"><ele>26.0</ele><time>2026-04-04T14:32:23Z</time></trkpt><trkpt lat="45.269183388949926" lon="11.72376444282244"><ele>26.0</ele><time>2026-04-04T14:32:24Z</time></trkpt><trkpt lat="45.269017680815544" lon="11.723692429715646"><ele>26.0</ele><time>2026-04-04T14:32:25Z</time></trkpt><trkpt lat="45.26886453213255" lon="11.723614823533344"><ele>24.5</ele><time>2026-04-04T14:32:26Z</time></trkpt><trkpt lat="45.26873023902034" lon="11.723525456287959"><ele>23.0</ele><time>2026-04-04T14:32:27Z</time></trkpt><trkpt lat="45.26860956908551" lon="11.723425436331944"><ele>21.5</ele><time>2026-04-04T14:32:28Z</time></trkpt><trkpt lat="45.268498132446375" lon="11.723311926498306"><ele>20.0</ele><time>2026-04-04T14:32:29Z</time></trkpt><trkpt lat="45.26838321508876" lon="11.723190082694405"><ele>20.0</ele><time>2026-04-04T14:32:30Z</time></trkpt><trkpt lat="45.26826721145474" lon="11.723093045405642"><ele>20.0</ele><time>2026-04-04T14:32:31Z</time></trkpt><trkpt lat="45.268130901669544" lon="11.723008872249533"><ele>20.0</ele><time>2026-04-04T14:32:32Z</time></trkpt><trkpt lat="45.267990338053814" lon="11.722927541089312"><ele>20.0</ele><time>2026-04-04T14:32:33Z</time></trkpt><trkpt lat="45.267886310489764" lon="11.722832998877088"><ele>20.4</ele><time>2026-04-04T14:32:34Z</time></trkpt><trkpt lat="45.26779121814744" lon="11.722766256940933"><ele>20.8</ele><time>2026-04-04T14:32:35Z</time></trkpt><trkpt lat="45.26769451578042" lon="11.722725072228794"><ele>21.200000000000003</ele><time>2026-04-04T14:32:36Z</time></trkpt><trkpt lat="45.26762503242339" lon="11.722637301698425"><ele>21.6</ele><time>2026-04-04T14:32:37Z</time></trkpt><trkpt lat="45.267576154974506" lon="11.722536420352931"><ele>22.0</ele><time>2026-04-04T14:32:38Z</time></trkpt><trkpt lat="45.26755087813076" lon="11.722441013255922"><ele>20.833333333333332</ele><time>2026-04-04T14:32:39Z</time></trkpt><trkpt lat="45.26755494853648" lon="11.722346647582386"><ele>19.666666666666664</ele><time>2026-04-04T14:32:40Z</time></trkpt><trkpt lat="45.26757120388671" lon="11.722250320215107"><ele>18.5</ele><time>2026-04-04T14:32:41Z</time></trkpt><trkpt lat="45.2675806644534" lon="11.722156803871707"><ele>17.333333333333332</ele><time>2026-04-04T14:32:42Z</time></trkpt><trkpt lat="45.26758857843298" lon="11.722019225294583"><ele>16.166666666666668</ele><time>2026-04-04T14:32:44Z</time></trkpt><trkpt lat="45.267584052261036" lon="11.721867387264275"><ele>15.0</ele><time>2026-04-04T14:32:46Z</time></trkpt><trkpt lat="45.26759289519194" lon="11.721723618574437"><ele>14.8</ele><time>2026-04-04T14:32:48Z</time></trkpt><trkpt lat="45.26760490588515" lon="11.721602933302593"><ele>14.6</ele><time>2026-04-04T14:32:50Z</time></trkpt><trkpt lat="45.26763257493089" lon="11.721483199905622"><ele>14.399999999999999</ele><time>2026-04-04T14:32:52Z</time></trkpt><trkpt lat="45.26764658371195" lon="11.721371314819715"><ele>14.2</ele><time>2026-04-04T14:32:55Z</time></trkpt><trkpt lat="45.2676251786421" lon="11.721281806058014"><ele>14.0</ele><time>2026-04-04T14:33:05Z</time></trkpt><trkpt lat="45.26749825326907" lon="11.721200537850684"><ele>14.0</ele><time>2026-04-04T14:33:07Z</time></trkpt><trkpt lat="45.26742228243093" lon="11.721167080625245"><ele>13.999999999999998</ele><time>2026-04-04T14:33:08Z</time></trkpt><trkpt lat="45.2673569670351" lon="11.72113984472427"><ele>13.999999999999998</ele><time>2026-04-04T14:33:09Z</time></trkpt><trkpt lat="45.26727971645815" lon="11.72108457704097"><ele>14.0</ele><time>2026-04-04T14:33:10Z</time></trkpt><trkpt lat="45.267196301620125" lon="11.72098262688352"><ele>14.0</ele><time>2026-04-04T14:33:11Z</time></trkpt><trkpt lat="45.2671018321692" lon="11.720852976775033"><ele>13.5</ele><time>2026-04-04T14:33:12Z</time></trkpt><trkpt lat="45.26700627340895" lon="11.720714770220948"><ele>13.0</ele><time>2026-04-04T14:33:13Z</time></trkpt><trkpt lat="45.26689918869454" lon="11.720592010182383"><ele>12.5</ele><time>2026-04-04T14:33:14.001Z</time></trkpt><trkpt lat="45.2668142761598" lon="11.720441303412038"><ele>12.0</ele><time>2026-04-04T14:33:15.001Z</time></trkpt><trkpt lat="45.26672978370854" lon="11.720300673920933"><ele>12.5</ele><time>2026-04-04T14:33:16.001Z</time></trkpt><trkpt lat="45.2666470724079" lon="11.720166631914466"><ele>13.0</ele><time>2026-04-04T14:33:17.001Z</time></trkpt><trkpt lat="45.26656631892704" lon="11.720045542721763"><ele>13.5</ele><time>2026-04-04T14:33:18.001Z</time></trkpt><trkpt lat="45.26648443846109" lon="11.719939342622169"><ele>14.0</ele><time>2026-04-04T14:33:19.001Z</time></trkpt><trkpt lat="45.26638167225701" lon="11.719855199319431"><ele>14.0</ele><time>2026-04-04T14:33:20.001Z</time></trkpt><trkpt lat="45.266252101168995" lon="11.719797427731303"><ele>14.0</ele><time>2026-04-04T14:33:21.001Z</time></trkpt><trkpt lat="45.266108249614014" lon="11.71976447302973"><ele>14.0</ele><time>2026-04-04T14:33:22.001Z</time></trkpt><trkpt lat="45.26594433558234" lon="11.719756681671694"><ele>14.0</ele><time>2026-04-04T14:33:23.001Z</time></trkpt><trkpt lat="45.26576989201716" lon="11.719817520722144"><ele>12.666666666666668</ele><time>2026-04-04T14:33:24.001Z</time></trkpt><trkpt lat="45.26558886668228" lon="11.71988960305538"><ele>11.333333333333334</ele><time>2026-04-04T14:33:25.001Z</time></trkpt><trkpt lat="45.26541028546077" lon="11.71996071213673"><ele>10.0</ele><time>2026-04-04T14:33:26.001Z</time></trkpt><trkpt lat="45.265226799853025" lon="11.720027549788778"><ele>10.0</ele><time>2026-04-04T14:33:27.001Z</time></trkpt><trkpt lat="45.26504066137517" lon="11.720067863672295"><ele>10.0</ele><time>2026-04-04T14:33:28.001Z</time></trkpt><trkpt lat="45.26485746704059" lon="11.72009242122269"><ele>10.0</ele><time>2026-04-04T14:33:29.001Z</time></trkpt><trkpt lat="45.26467214586343" lon="11.720108936972968"><ele>9.333333333333334</ele><time>2026-04-04T14:33:30.001Z</time></trkpt><trkpt lat="45.2644873497034" lon="11.720125484094302"><ele>8.666666666666666</ele><time>2026-04-04T14:33:31.001Z</time></trkpt><trkpt lat="45.26431075445359" lon="11.720144753953344"><ele>8.0</ele><time>2026-04-04T14:33:32.001Z</time></trkpt><trkpt lat="45.26413417612337" lon="11.720177768714045"><ele>7.666666666666666</ele><time>2026-04-04T14:33:33.001Z</time></trkpt><trkpt lat="45.26395889203012" lon="11.720244152795935"><ele>7.333333333333334</ele><time>2026-04-04T14:33:34.001Z</time></trkpt><trkpt lat="45.26378940577132" lon="11.720351000306666"><ele>7.0</ele><time>2026-04-04T14:33:35.001Z</time></trkpt><trkpt lat="45.2636385973425" lon="11.720481755865208"><ele>6.75</ele><time>2026-04-04T14:33:36.001Z</time></trkpt><trkpt lat="45.26350607523341" lon="11.720597148678518"><ele>6.5</ele><time>2026-04-04T14:33:37.001Z</time></trkpt><trkpt lat="45.26339127237338" lon="11.720698767884674"><ele>6.25</ele><time>2026-04-04T14:33:38.001Z</time></trkpt><trkpt lat="45.263275514025665" lon="11.7207837056803"><ele>6.0</ele><time>2026-04-04T14:33:39.001Z</time></trkpt><trkpt lat="45.26317218149177" lon="11.72083625584816"><ele>6.75</ele><time>2026-04-04T14:33:40.001Z</time></trkpt><trkpt lat="45.2630671338792" lon="11.720872400292794"><ele>7.5</ele><time>2026-04-04T14:33:41.001Z</time></trkpt><trkpt lat="45.262944254781736" lon="11.720896898721188"><ele>8.25</ele><time>2026-04-04T14:33:42.001Z</time></trkpt><trkpt lat="45.262814249946004" lon="11.720913264157739"><ele>9.0</ele><time>2026-04-04T14:33:43.001Z</time></trkpt><trkpt lat="45.262666497046624" lon="11.720925486342113"><ele>9.0</ele><time>2026-04-04T14:33:44.001Z</time></trkpt><trkpt lat="45.2625076145561" lon="11.720938644947871"><ele>9.0</ele><time>2026-04-04T14:33:45.001Z</time></trkpt><trkpt lat="45.26234303273097" lon="11.720951230010822"><ele>9.0</ele><time>2026-04-04T14:33:46.001Z</time></trkpt><trkpt lat="45.262168429361324" lon="11.720961541740138"><ele>10.666666666666668</ele><time>2026-04-04T14:33:47.001Z</time></trkpt><trkpt lat="45.26197788569608" lon="11.720968436485053"><ele>12.333333333333334</ele><time>2026-04-04T14:33:48.001Z</time></trkpt><trkpt lat="45.26178570087395" lon="11.72096152788123"><ele>14.0</ele><time>2026-04-04T14:33:49.001Z</time></trkpt><trkpt lat="45.26160024590536" lon="11.72093391140485"><ele>12.333333333333334</ele><time>2026-04-04T14:33:50.001Z</time></trkpt><trkpt lat="45.26142249897575" lon="11.720882742283463"><ele>10.666666666666668</ele><time>2026-04-04T14:33:51.001Z</time></trkpt><trkpt lat="45.261251639307204" lon="11.720819042322242"><ele>9.0</ele><time>2026-04-04T14:33:52.001Z</time></trkpt><trkpt lat="45.26108187217163" lon="11.720751620669809"><ele>9.0</ele><time>2026-04-04T14:33:53.001Z</time></trkpt><trkpt lat="45.260906094978615" lon="11.720672884874093"><ele>9.0</ele><time>2026-04-04T14:33:54.001Z</time></trkpt><trkpt lat="45.26072954375938" lon="11.720589549989086"><ele>9.0</ele><time>2026-04-04T14:33:55.001Z</time></trkpt><trkpt lat="45.26056088722495" lon="11.720504755673948"><ele>7.666666666666667</ele><time>2026-04-04T14:33:56.001Z</time></trkpt><trkpt lat="45.2604100777215" lon="11.720430460442158"><ele>6.333333333333334</ele><time>2026-04-04T14:33:57.001Z</time></trkpt><trkpt lat="45.26027394521779" lon="11.720358538762115"><ele>5.0</ele><time>2026-04-04T14:33:58.001Z</time></trkpt><trkpt lat="45.26014105036716" lon="11.720272081199981"><ele>4.333333333333334</ele><time>2026-04-04T14:33:59.001Z</time></trkpt><trkpt lat="45.259995194941474" lon="11.72016739959244"><ele>3.666666666666667</ele><time>2026-04-04T14:34:00.001Z</time></trkpt><trkpt lat="45.259847707032584" lon="11.720020910296087"><ele>3.0</ele><time>2026-04-04T14:34:01.001Z</time></trkpt><trkpt lat="45.25969459365476" lon="11.719856822837388"><ele>3.0</ele><time>2026-04-04T14:34:02.001Z</time></trkpt><trkpt lat="45.25953615830479" lon="11.719675390533997"><ele>3.0</ele><time>2026-04-04T14:34:03.001Z</time></trkpt><trkpt lat="45.259371670279165" lon="11.719487077509216"><ele>3.0</ele><time>2026-04-04T14:34:04.001Z</time></trkpt><trkpt lat="45.259210446538304" lon="11.719302432497033"><ele>2.3333333333333335</ele><time>2026-04-04T14:34:05.001Z</time></trkpt><trkpt lat="45.25905904832182" lon="11.71913511483715"><ele>1.6666666666666665</ele><time>2026-04-04T14:34:06.001Z</time></trkpt><trkpt lat="45.25892686655833" lon="11.718966509307695"><ele>1.0</ele><time>2026-04-04T14:34:07.001Z</time></trkpt><trkpt lat="45.258817002765994" lon="11.718799301537734"><ele>1.0</ele><time>2026-04-04T14:34:08.001Z</time></trkpt><trkpt lat="45.25870921108825" lon="11.718614626986454"><ele>1.0</ele><time>2026-04-04T14:34:09.001Z</time></trkpt><trkpt lat="45.258599471793175" lon="11.718427143053425"><ele>1.0</ele><time>2026-04-04T14:34:10.001Z</time></trkpt><trkpt lat="45.2584934077176" lon="11.718243045478257"><ele>2.3333333333333335</ele><time>2026-04-04T14:34:11.001Z</time></trkpt><trkpt lat="45.25838816292275" lon="11.718059057086764"><ele>3.666666666666667</ele><time>2026-04-04T14:34:12.001Z</time></trkpt><trkpt lat="45.258279844493075" lon="11.717881170921197"><ele>5.0</ele><time>2026-04-04T14:34:13.001Z</time></trkpt><trkpt lat="45.25819146132072" lon="11.717676506337241"><ele>5.0</ele><time>2026-04-04T14:34:14.001Z</time></trkpt><trkpt lat="45.25812518631638" lon="11.717465475088728"><ele>5.0</ele><time>2026-04-04T14:34:15.001Z</time></trkpt><trkpt lat="45.25806535485157" lon="11.717249144757712"><ele>5.0</ele><time>2026-04-04T14:34:16.001Z</time></trkpt><trkpt lat="45.258005643363674" lon="11.717025927605977"><ele>5.25</ele><time>2026-04-04T14:34:17.001Z</time></trkpt><trkpt lat="45.257950448490746" lon="11.716815195905786"><ele>5.5</ele><time>2026-04-04T14:34:18.001Z</time></trkpt><trkpt lat="45.25789651464502" lon="11.716629512402195"><ele>5.75</ele><time>2026-04-04T14:34:19.001Z</time></trkpt><trkpt lat="45.257834693686874" lon="11.716478298393774"><ele>6.0</ele><time>2026-04-04T14:34:20.001Z</time></trkpt><trkpt lat="45.25776896939852" lon="11.716344940040043"><ele>6.0</ele><time>2026-04-04T14:34:21.001Z</time></trkpt><trkpt lat="45.257686189698916" lon="11.716211790297933"><ele>6.0</ele><time>2026-04-04T14:34:22.001Z</time></trkpt><trkpt lat="45.25757648333354" lon="11.71607941427719"><ele>6.0</ele><time>2026-04-04T14:34:23.001Z</time></trkpt><trkpt lat="45.25741931643025" lon="11.715996199518703"><ele>6.0</ele><time>2026-04-04T14:34:24.001Z</time></trkpt><trkpt lat="45.25723473626829" lon="11.715929908414612"><ele>7.0</ele><time>2026-04-04T14:34:25.001Z</time></trkpt><trkpt lat="45.257043942153516" lon="11.715857269497057"><ele>8.0</ele><time>2026-04-04T14:34:26.001Z</time></trkpt><trkpt lat="45.256870757302444" lon="11.715783806975915"><ele>9.0</ele><time>2026-04-04T14:34:27.001Z</time></trkpt><trkpt lat="45.25671795057205" lon="11.715708144889465"><ele>9.0</ele><time>2026-04-04T14:34:28Z</time></trkpt><trkpt lat="45.25657459938524" lon="11.715630150538026"><ele>9.0</ele><time>2026-04-04T14:34:29Z</time></trkpt><trkpt lat="45.25645055753892" lon="11.715557243306742"><ele>9.0</ele><time>2026-04-04T14:34:30Z</time></trkpt><trkpt lat="45.25634180259265" lon="11.715491418907552"><ele>9.0</ele><time>2026-04-04T14:34:31Z</time></trkpt><trkpt lat="45.25625358741922" lon="11.715445871774124"><ele>8.666666666666666</ele><time>2026-04-04T14:34:32Z</time></trkpt><trkpt lat="45.256173612912875" lon="11.71539957928427"><ele>8.333333333333334</ele><time>2026-04-04T14:34:33Z</time></trkpt><trkpt lat="45.256108654696256" lon="11.715338844693338"><ele>8.0</ele><time>2026-04-04T14:34:34Z</time></trkpt><trkpt lat="45.25605878348254" lon="11.715272651698106"><ele>7.666666666666667</ele><time>2026-04-04T14:34:35Z</time></trkpt><trkpt lat="45.25599705021846" lon="11.715246931485787"><ele>7.333333333333334</ele><time>2026-04-04T14:34:36Z</time></trkpt><trkpt lat="45.25600297913114" lon="11.715063192133016"><ele>7.0</ele><time>2026-04-04T14:34:37Z</time></trkpt><trkpt lat="45.25597579059552" lon="11.714952162192017"><ele>7.000000000000001</ele><time>2026-04-04T14:34:38Z</time></trkpt><trkpt lat="45.25596559744348" lon="11.71483750173048"><ele>7.0</ele><time>2026-04-04T14:34:39Z</time></trkpt><trkpt lat="45.25598331718768" lon="11.714718417791108"><ele>7.0</ele><time>2026-04-04T14:34:40Z</time></trkpt><trkpt lat="45.25602174951235" lon="11.714625270477892"><ele>7.0</ele><time>2026-04-04T14:34:41Z</time></trkpt><trkpt lat="45.25608660571986" lon="11.714548124454597"><ele>7.000000000000001</ele><time>2026-04-04T14:34:42Z</time></trkpt><trkpt lat="45.25616528949472" lon="11.714475300733632"><ele>7.0</ele><time>2026-04-04T14:34:43Z</time></trkpt><trkpt lat="45.25624748462033" lon="11.714388841388155"><ele>6.75</ele><time>2026-04-04T14:34:44Z</time></trkpt><trkpt lat="45.256342144524794" lon="11.7142814998656"><ele>6.5</ele><time>2026-04-04T14:34:45Z</time></trkpt><trkpt lat="45.25646245798367" lon="11.714183248268581"><ele>6.25</ele><time>2026-04-04T14:34:46Z</time></trkpt><trkpt lat="45.256590663261996" lon="11.714102445830445"><ele>6.0</ele><time>2026-04-04T14:34:47Z</time></trkpt><trkpt lat="45.2567258669009" lon="11.714014026476663"><ele>7.333333333333334</ele><time>2026-04-04T14:34:48Z</time></trkpt><trkpt lat="45.25687106318631" lon="11.7139119453731"><ele>8.666666666666668</ele><time>2026-04-04T14:34:49Z</time></trkpt><trkpt lat="45.257024310220366" lon="11.71381264991488"><ele>10.0</ele><time>2026-04-04T14:34:50Z</time></trkpt><trkpt lat="45.25718581672995" lon="11.713712623219823"><ele>9.666666666666668</ele><time>2026-04-04T14:34:51Z</time></trkpt><trkpt lat="45.25734285794592" lon="11.713600818621835"><ele>9.333333333333334</ele><time>2026-04-04T14:34:52Z</time></trkpt><trkpt lat="45.257501944588306" lon="11.713489137512022"><ele>9.0</ele><time>2026-04-04T14:34:53Z</time></trkpt><trkpt lat="45.257665724744726" lon="11.713384120829819"><ele>9.0</ele><time>2026-04-04T14:34:54Z</time></trkpt><trkpt lat="45.25782261257716" lon="11.71328761855965"><ele>9.0</ele><time>2026-04-04T14:34:55Z</time></trkpt><trkpt lat="45.25798591847247" lon="11.713200818187412"><ele>9.0</ele><time>2026-04-04T14:34:56Z</time></trkpt><trkpt lat="45.25814521470632" lon="11.713132262246555"><ele>11.0</ele><time>2026-04-04T14:34:57Z</time></trkpt><trkpt lat="45.25829976732433" lon="11.713121720409838"><ele>13.0</ele><time>2026-04-04T14:34:58Z</time></trkpt><trkpt lat="45.25845793493674" lon="11.713100946095317"><ele>15.0</ele><time>2026-04-04T14:34:59Z</time></trkpt><trkpt lat="45.25862860379905" lon="11.713079362398423"><ele>15.0</ele><time>2026-04-04T14:35:00Z</time></trkpt><trkpt lat="45.25881075837755" lon="11.713049246212426"><ele>15.0</ele><time>2026-04-04T14:35:01Z</time></trkpt><trkpt lat="45.25900032140606" lon="11.71301407472987"><ele>15.0</ele><time>2026-04-04T14:35:02Z</time></trkpt><trkpt lat="45.25919706059351" lon="11.712974223369832"><ele>17.0</ele><time>2026-04-04T14:35:03Z</time></trkpt><trkpt lat="45.259403088872105" lon="11.712903026505005"><ele>19.0</ele><time>2026-04-04T14:35:04Z</time></trkpt><trkpt lat="45.2596053530476" lon="11.712799010196875"><ele>21.0</ele><time>2026-04-04T14:35:05Z</time></trkpt><trkpt lat="45.259819898786105" lon="11.712717530124678"><ele>17.0</ele><time>2026-04-04T14:35:06Z</time></trkpt><trkpt lat="45.26003227952039" lon="11.712616408827087"><ele>13.0</ele><time>2026-04-04T14:35:07Z</time></trkpt><trkpt lat="45.26023459669007" lon="11.712532170191144"><ele>9.0</ele><time>2026-04-04T14:35:08Z</time></trkpt><trkpt lat="45.26041988778321" lon="11.712457654428722"><ele>9.0</ele><time>2026-04-04T14:35:09Z</time></trkpt><trkpt lat="45.26059117125919" lon="11.712389997994865"><ele>9.0</ele><time>2026-04-04T14:35:10Z</time></trkpt><trkpt lat="45.260746176811125" lon="11.712346420544694"><ele>9.0</ele><time>2026-04-04T14:35:11Z</time></trkpt><trkpt lat="45.26089494565123" lon="11.712319211779329"><ele>9.75</ele><time>2026-04-04T14:35:12Z</time></trkpt><trkpt lat="45.2610237093529" lon="11.712340127383753"><ele>10.5</ele><time>2026-04-04T14:35:13Z</time></trkpt><trkpt lat="45.26116190251298" lon="11.712386018824882"><ele>11.25</ele><time>2026-04-04T14:35:14Z</time></trkpt><trkpt lat="45.2613078812221" lon="11.712442881058495"><ele>12.0</ele><time>2026-04-04T14:35:15Z</time></trkpt><trkpt lat="45.261453283510455" lon="11.712513294052824"><ele>12.0</ele><time>2026-04-04T14:35:16Z</time></trkpt><trkpt lat="45.26158740421754" lon="11.712600480616935"><ele>12.0</ele><time>2026-04-04T14:35:17Z</time></trkpt><trkpt lat="45.261708521895834" lon="11.71270176169715"><ele>12.0</ele><time>2026-04-04T14:35:18Z</time></trkpt><trkpt lat="45.261829001021496" lon="11.712806696898182"><ele>12.0</ele><time>2026-04-04T14:35:19Z</time></trkpt><trkpt lat="45.2619598146161" lon="11.712923310327476"><ele>12.666666666666668</ele><time>2026-04-04T14:35:20Z</time></trkpt><trkpt lat="45.26210537734335" lon="11.713022295872484"><ele>13.333333333333334</ele><time>2026-04-04T14:35:21Z</time></trkpt><trkpt lat="45.26226755288017" lon="11.713073475906054"><ele>14.0</ele><time>2026-04-04T14:35:22Z</time></trkpt><trkpt lat="45.262428380253425" lon="11.713071457810308"><ele>14.0</ele><time>2026-04-04T14:35:23Z</time></trkpt><trkpt lat="45.26259338991106" lon="11.713091372887934"><ele>14.0</ele><time>2026-04-04T14:35:24Z</time></trkpt><trkpt lat="45.26274836701145" lon="11.713138873871268"><ele>14.0</ele><time>2026-04-04T14:35:25Z</time></trkpt><trkpt lat="45.262910388157934" lon="11.713173401718242"><ele>14.0</ele><time>2026-04-04T14:35:26Z</time></trkpt><trkpt lat="45.26308687657601" lon="11.713226170096142"><ele>14.0</ele><time>2026-04-04T14:35:27Z</time></trkpt><trkpt lat="45.263262904642595" lon="11.713284452863588"><ele>14.0</ele><time>2026-04-04T14:35:28Z</time></trkpt><trkpt lat="45.2634415540005" lon="11.713334328388346"><ele>14.0</ele><time>2026-04-04T14:35:29Z</time></trkpt><trkpt lat="45.263602901776366" lon="11.713389227129596"><ele>14.0</ele><time>2026-04-04T14:35:30Z</time></trkpt><trkpt lat="45.263748011536194" lon="11.713439087911519"><ele>14.0</ele><time>2026-04-04T14:35:31Z</time></trkpt><trkpt lat="45.26387296138737" lon="11.713508399136268"><ele>14.0</ele><time>2026-04-04T14:35:32Z</time></trkpt><trkpt lat="45.26401326256424" lon="11.713563368647366"><ele>17.0</ele><time>2026-04-04T14:35:33Z</time></trkpt><trkpt lat="45.264151981628835" lon="11.713619561138628"><ele>20.0</ele><time>2026-04-04T14:35:34Z</time></trkpt><trkpt lat="45.264285763690204" lon="11.713677821429837"><ele>23.0</ele><time>2026-04-04T14:35:35Z</time></trkpt><trkpt lat="45.264431877568484" lon="11.713722010379673"><ele>26.0</ele><time>2026-04-04T14:35:36Z</time></trkpt><trkpt lat="45.26457637791616" lon="11.713792112596463"><ele>26.0</ele><time>2026-04-04T14:35:37Z</time></trkpt><trkpt lat="45.264721505553574" lon="11.71385505723853"><ele>26.0</ele><time>2026-04-04T14:35:38Z</time></trkpt><trkpt lat="45.264849868714805" lon="11.713912972179797"><ele>26.0</ele><time>2026-04-04T14:35:39Z</time></trkpt><trkpt lat="45.26496727600494" lon="11.713961229418851"><ele>26.0</ele><time>2026-04-04T14:35:40Z</time></trkpt><trkpt lat="45.26505915991187" lon="11.714000885252593"><ele>25.999999999999996</ele><time>2026-04-04T14:35:41Z</time></trkpt><trkpt lat="45.26512516612509" lon="11.714042950511825"><ele>26.0</ele><time>2026-04-04T14:35:42Z</time></trkpt><trkpt lat="45.26520411645549" lon="11.714104998615094"><ele>26.0</ele><time>2026-04-04T14:35:44Z</time></trkpt><trkpt lat="45.26524518762655" lon="11.71419434519574"><ele>26.0</ele><time>2026-04-04T14:35:48Z</time></trkpt><trkpt lat="45.26525198314597" lon="11.714357522801969"><ele>25.999999999999996</ele><time>2026-04-04T14:35:50Z</time></trkpt><trkpt lat="45.265340030087074" lon="11.714383171458953"><ele>26.0</ele><time>2026-04-04T14:35:51Z</time></trkpt><trkpt lat="45.265415262456116" lon="11.714394771938633"><ele>26.0</ele><time>2026-04-04T14:35:52Z</time></trkpt><trkpt lat="45.26551475172564" lon="11.714344365695249"><ele>26.0</ele><time>2026-04-04T14:35:53Z</time></trkpt><trkpt lat="45.265634104932346" lon="11.71436157827915"><ele>26.0</ele><time>2026-04-04T14:35:54Z</time></trkpt><trkpt lat="45.26573930276296" lon="11.714365341404168"><ele>26.0</ele><time>2026-04-04T14:35:55Z</time></trkpt><trkpt lat="45.26586007637184" lon="11.714387205123593"><ele>30.5</ele><time>2026-04-04T14:35:56Z</time></trkpt><trkpt lat="45.265980198204495" lon="11.71444140468339"><ele>35.0</ele><time>2026-04-04T14:35:57Z</time></trkpt><trkpt lat="45.266109199496846" lon="11.714487069169149"><ele>39.5</ele><time>2026-04-04T14:35:58Z</time></trkpt><trkpt lat="45.26624882887949" lon="11.714527072734304"><ele>44.0</ele><time>2026-04-04T14:35:59Z</time></trkpt><trkpt lat="45.26639184555399" lon="11.714558967196597"><ele>44.5</ele><time>2026-04-04T14:36:00Z</time></trkpt><trkpt lat="45.26653327000874" lon="11.71461703019442"><ele>45.0</ele><time>2026-04-04T14:36:01Z</time></trkpt><trkpt lat="45.266676216689405" lon="11.714646438920619"><ele>45.5</ele><time>2026-04-04T14:36:02Z</time></trkpt><trkpt lat="45.26680594219212" lon="11.71467529716828"><ele>46.0</ele><time>2026-04-04T14:36:03Z</time></trkpt><trkpt lat="45.266942180929355" lon="11.714707029694418"><ele>46.0</ele><time>2026-04-04T14:36:04Z</time></trkpt><trkpt lat="45.26708502227072" lon="11.714737413685747"><ele>46.0</ele><time>2026-04-04T14:36:05Z</time></trkpt><trkpt lat="45.267234280416815" lon="11.71477424137382"><ele>46.0</ele><time>2026-04-04T14:36:06Z</time></trkpt><trkpt lat="45.26738903842618" lon="11.71480334397459"><ele>47.5</ele><time>2026-04-04T14:36:07Z</time></trkpt><trkpt lat="45.26753782870923" lon="11.714830356414543"><ele>49.0</ele><time>2026-04-04T14:36:08Z</time></trkpt><trkpt lat="45.267677862803524" lon="11.71485985324813"><ele>50.5</ele><time>2026-04-04T14:36:09Z</time></trkpt><trkpt lat="45.26780730087379" lon="11.714890306972984"><ele>52.0</ele><time>2026-04-04T14:36:10Z</time></trkpt><trkpt lat="45.267913359919355" lon="11.71494816493358"><ele>52.0</ele><time>2026-04-04T14:36:11Z</time></trkpt><trkpt lat="45.26800763842673" lon="11.714976586787538"><ele>52.0</ele><time>2026-04-04T14:36:12Z</time></trkpt><trkpt lat="45.26810518882236" lon="11.71500802342183"><ele>52.0</ele><time>2026-04-04T14:36:13Z</time></trkpt><trkpt lat="45.26820287357731" lon="11.71504172896619"><ele>52.0</ele><time>2026-04-04T14:36:14Z</time></trkpt><trkpt lat="45.268292300847335" lon="11.715104889577983"><ele>52.0</ele><time>2026-04-04T14:36:15Z</time></trkpt><trkpt lat="45.26837580954144" lon="11.715209393228177"><ele>58.5</ele><time>2026-04-04T14:36:16Z</time></trkpt><trkpt lat="45.26849467054417" lon="11.715313957127696"><ele>65.0</ele><time>2026-04-04T14:36:17Z</time></trkpt><trkpt lat="45.268622498421486" lon="11.715420446476944"><ele>71.5</ele><time>2026-04-04T14:36:18Z</time></trkpt><trkpt lat="45.26875539220279" lon="11.715526235305619"><ele>78.0</ele><time>2026-04-04T14:36:19Z</time></trkpt><trkpt lat="45.268889319170135" lon="11.715631082261059"><ele>77.0</ele><time>2026-04-04T14:36:20Z</time></trkpt><trkpt lat="45.269009285653595" lon="11.715726656014587"><ele>76.0</ele><time>2026-04-04T14:36:21Z</time></trkpt><trkpt lat="45.269110536682035" lon="11.715804249902694"><ele>75.0</ele><time>2026-04-04T14:36:22Z</time></trkpt><trkpt lat="45.26920030935572" lon="11.715873734071193"><ele>74.0</ele><time>2026-04-04T14:36:23Z</time></trkpt><trkpt lat="45.26927954780908" lon="11.71593025502107"><ele>73.0</ele><time>2026-04-04T14:36:24Z</time></trkpt><trkpt lat="45.26933585800181" lon="11.71599481892867"><ele>73.0</ele><time>2026-04-04T14:36:25Z</time></trkpt><trkpt lat="45.26943298251608" lon="11.716048038624654"><ele>73.0</ele><time>2026-04-04T14:36:27Z</time></trkpt><trkpt lat="45.26950721913244" lon="11.716090386025867"><ele>73.0</ele><time>2026-04-04T14:36:29Z</time></trkpt><trkpt lat="45.269596560456996" lon="11.716143220756164"><ele>73.0</ele><time>2026-04-04T14:36:31Z</time></trkpt><trkpt lat="45.26966208198453" lon="11.716181377134083"><ele>73.0</ele><time>2026-04-04T14:36:33Z</time></trkpt><trkpt lat="45.26974074283657" lon="11.716235307210473"><ele>73.0</ele><time>2026-04-04T14:36:35Z</time></trkpt><trkpt lat="45.269825348288514" lon="11.71632049823491"><ele>74.4</ele><time>2026-04-04T14:36:37Z</time></trkpt><trkpt lat="45.269882513944644" lon="11.71637395696302"><ele>75.8</ele><time>2026-04-04T14:36:39Z</time></trkpt><trkpt lat="45.26993207201796" lon="11.716432074091458"><ele>77.2</ele><time>2026-04-04T14:36:47Z</time></trkpt><trkpt lat="45.26999539008015" lon="11.7165401179655"><ele>78.6</ele><time>2026-04-04T14:36:50Z</time></trkpt><trkpt lat="45.27006163263946" lon="11.716670991513618"><ele>80.0</ele><time>2026-04-04T14:36:52Z</time></trkpt><trkpt lat="45.27017194255987" lon="11.716770513761153"><ele>80.0</ele><time>2026-04-04T14:36:54Z</time></trkpt><trkpt lat="45.27027077949067" lon="11.71682313293921"><ele>80.0</ele><time>2026-04-04T14:36:56Z</time></trkpt><trkpt lat="45.27033547379249" lon="11.716829054644824"><ele>80.0</ele><time>2026-04-04T14:37:00Z</time></trkpt><trkpt lat="45.2702907725617" lon="11.716713581531337"><ele>80.0</ele><time>2026-04-04T14:38:58.999Z</time></trkpt><trkpt lat="45.27022748571004" lon="11.71668957779529"><ele>80.0</ele><time>2026-04-04T14:39:03.999Z</time></trkpt><trkpt lat="45.270164424196544" lon="11.716672641918391"><ele>80.0</ele><time>2026-04-04T14:39:08.999Z</time></trkpt><trkpt lat="45.270110308615656" lon="11.71661244522816"><ele>80.0</ele><time>2026-04-04T14:39:14.999Z</time></trkpt><trkpt lat="45.27014411777314" lon="11.716505963094185"><ele>80.0</ele><time>2026-04-04T14:39:31.999Z</time></trkpt><trkpt lat="45.270166793747784" lon="11.716618803615196"><ele>80.0</ele><time>2026-04-04T14:42:46.998Z</time></trkpt><trkpt lat="45.27010488003138" lon="11.716568448833563"><ele>80.0</ele><time>2026-04-04T14:54:44.008Z</time></trkpt><trkpt lat="45.27013094509403" lon="11.716661286178676"><ele>80.0</ele><time>2026-04-04T14:54:51.008Z</time></trkpt><trkpt lat="45.27018684314929" lon="11.716710736530526"><ele>80.0</ele><time>2026-04-04T14:54:56.008Z</time></trkpt><trkpt lat="45.27022800675179" lon="11.716778737159986"><ele>80.0</ele><time>2026-04-04T14:55:02.008Z</time></trkpt><trkpt lat="45.27028946386084" lon="11.716811413719537"><ele>80.0</ele><time>2026-04-04T14:55:09.008Z</time></trkpt><trkpt lat="45.27036082657478" lon="11.716803560573581"><ele>80.0</ele><time>2026-04-04T14:55:24.008Z</time></trkpt><trkpt lat="45.27026246301664" lon="11.716790750406203"><ele>80.0</ele><time>2026-04-04T14:59:04.01Z</time></trkpt><trkpt lat="45.27018820264127" lon="11.7167591516811"><ele>80.0</ele><time>2026-04-04T14:59:06.01Z</time></trkpt><trkpt lat="45.27011923026221" lon="11.716710993371992"><ele>80.0</ele><time>2026-04-04T14:59:09.01Z</time></trkpt><trkpt lat="45.27007480741522" lon="11.716632651021321"><ele>80.0</ele><time>2026-04-04T14:59:12.01Z</time></trkpt><trkpt lat="45.27003869820403" lon="11.716535888772789"><ele>80.0</ele><time>2026-04-04T14:59:15.01Z</time></trkpt><trkpt lat="45.2700082093005" lon="11.716451249165585"><ele>80.0</ele><time>2026-04-04T14:59:20.01Z</time></trkpt><trkpt lat="45.269937158687924" lon="11.716383372125218"><ele>80.0</ele><time>2026-04-04T14:59:24.01Z</time></trkpt><trkpt lat="45.26987293728348" lon="11.716316705367381"><ele>80.0</ele><time>2026-04-04T14:59:26.01Z</time></trkpt><trkpt lat="45.26979750148272" lon="11.716251904668233"><ele>80.0</ele><time>2026-04-04T14:59:28.01Z</time></trkpt><trkpt lat="45.269726240010925" lon="11.716205427400668"><ele>80.0</ele><time>2026-04-04T14:59:30.01Z</time></trkpt><trkpt lat="45.26965864739509" lon="11.71616129714213"><ele>81.0</ele><time>2026-04-04T14:59:32.01Z</time></trkpt><trkpt lat="45.26957635887686" lon="11.716114944739985"><ele>82.0</ele><time>2026-04-04T14:59:34.01Z</time></trkpt><trkpt lat="45.26947685797949" lon="11.716061789670599"><ele>83.0</ele><time>2026-04-04T14:59:36.01Z</time></trkpt><trkpt lat="45.26941706084431" lon="11.71602610456549"><ele>84.0</ele><time>2026-04-04T14:59:37.01Z</time></trkpt><trkpt lat="45.26934872213538" lon="11.715967283715763"><ele>85.0</ele><time>2026-04-04T14:59:38.01Z</time></trkpt><trkpt lat="45.26928844831582" lon="11.715925157843127"><ele>86.0</ele><time>2026-04-04T14:59:39.01Z</time></trkpt><trkpt lat="45.26918360604219" lon="11.71584341452153"><ele>84.39999999999999</ele><time>2026-04-04T14:59:41.01Z</time></trkpt><trkpt lat="45.26908157917168" lon="11.715766773000475"><ele>82.8</ele><time>2026-04-04T14:59:43.01Z</time></trkpt><trkpt lat="45.26902049334185" lon="11.715709776303111"><ele>81.19999999999999</ele><time>2026-04-04T14:59:44.01Z</time></trkpt><trkpt lat="45.26894833031062" lon="11.715656877393501"><ele>79.6</ele><time>2026-04-04T14:59:45.01Z</time></trkpt><trkpt lat="45.26888065720887" lon="11.7155822237251"><ele>78.0</ele><time>2026-04-04T14:59:46.01Z</time></trkpt><trkpt lat="45.26879828985949" lon="11.715516320607346"><ele>78.0</ele><time>2026-04-04T14:59:47.01Z</time></trkpt><trkpt lat="45.268732253635676" lon="11.715458381470421"><ele>78.0</ele><time>2026-04-04T14:59:48.01Z</time></trkpt><trkpt lat="45.26867052609065" lon="11.715406742590186"><ele>78.0</ele><time>2026-04-04T14:59:49.01Z</time></trkpt><trkpt lat="45.26860696788902" lon="11.715347431051491"><ele>78.0</ele><time>2026-04-04T14:59:50.01Z</time></trkpt><trkpt lat="45.26853672143297" lon="11.715278846586342"><ele>78.0</ele><time>2026-04-04T14:59:51.01Z</time></trkpt><trkpt lat="45.26846796526331" lon="11.715203349528707"><ele>78.0</ele><time>2026-04-04T14:59:52.01Z</time></trkpt><trkpt lat="45.26839114259076" lon="11.715131251648835"><ele>73.6</ele><time>2026-04-04T14:59:53.01Z</time></trkpt><trkpt lat="45.26831362401881" lon="11.715075383007841"><ele>69.19999999999999</ele><time>2026-04-04T14:59:54.01Z</time></trkpt><trkpt lat="45.268240608956006" lon="11.715017501442425"><ele>64.8</ele><time>2026-04-04T14:59:55.01Z</time></trkpt><trkpt lat="45.26816827830088" lon="11.714954898084919"><ele>60.4</ele><time>2026-04-04T14:59:56.01Z</time></trkpt><trkpt lat="45.26808464675602" lon="11.714901787571092"><ele>56.0</ele><time>2026-04-04T14:59:57.01Z</time></trkpt><trkpt lat="45.267978870641926" lon="11.714866137855763"><ele>55.0</ele><time>2026-04-04T14:59:58.01Z</time></trkpt><trkpt lat="45.26783239472688" lon="11.714867251274974"><ele>54.0</ele><time>2026-04-04T14:59:59.01Z</time></trkpt><trkpt lat="45.26770785625859" lon="11.714868227798508"><ele>53.0</ele><time>2026-04-04T15:00:00.01Z</time></trkpt><trkpt lat="45.26759638637479" lon="11.714839080063387"><ele>52.0</ele><time>2026-04-04T15:00:01.01Z</time></trkpt><trkpt lat="45.267471173396736" lon="11.714804328359083"><ele>52.0</ele><time>2026-04-04T15:00:02.01Z</time></trkpt><trkpt lat="45.26732590066997" lon="11.7147787708253"><ele>52.0</ele><time>2026-04-04T15:00:03.01Z</time></trkpt><trkpt lat="45.26718025178219" lon="11.714738684226935"><ele>52.0</ele><time>2026-04-04T15:00:04.01Z</time></trkpt><trkpt lat="45.26705268865335" lon="11.714706286611406"><ele>52.0</ele><time>2026-04-04T15:00:05.01Z</time></trkpt><trkpt lat="45.26692295934865" lon="11.714680499561945"><ele>50.5</ele><time>2026-04-04T15:00:06.01Z</time></trkpt><trkpt lat="45.26678258257423" lon="11.714654140765814"><ele>49.0</ele><time>2026-04-04T15:00:07.01Z</time></trkpt><trkpt lat="45.26664118320127" lon="11.714626894434424"><ele>47.5</ele><time>2026-04-04T15:00:08.01Z</time></trkpt><trkpt lat="45.26648753185094" lon="11.714599740439603"><ele>46.0</ele><time>2026-04-04T15:00:09.01Z</time></trkpt><trkpt lat="45.266345259038566" lon="11.714558789313598"><ele>45.5</ele><time>2026-04-04T15:00:10.01Z</time></trkpt><trkpt lat="45.266211339537186" lon="11.71450642694828"><ele>45.0</ele><time>2026-04-04T15:00:11.01Z</time></trkpt><trkpt lat="45.266083204029975" lon="11.71446434567205"><ele>44.5</ele><time>2026-04-04T15:00:12.01Z</time></trkpt><trkpt lat="45.26596792691064" lon="11.714421315407948"><ele>44.0</ele><time>2026-04-04T15:00:13.01Z</time></trkpt><trkpt lat="45.26586655835706" lon="11.714390017064414"><ele>40.400000000000006</ele><time>2026-04-04T15:00:14.01Z</time></trkpt><trkpt lat="45.26577480527899" lon="11.714356029348293"><ele>36.800000000000004</ele><time>2026-04-04T15:00:15.01Z</time></trkpt><trkpt lat="45.26570020832933" lon="11.714320178342943"><ele>33.2</ele><time>2026-04-04T15:00:16.01Z</time></trkpt><trkpt lat="45.26560935006159" lon="11.714285507345078"><ele>29.6</ele><time>2026-04-04T15:00:17.01Z</time></trkpt><trkpt lat="45.26550862132553" lon="11.714225115481103"><ele>26.0</ele><time>2026-04-04T15:00:19.01Z</time></trkpt><trkpt lat="45.26541838577866" lon="11.714178837362569"><ele>25.999999999999996</ele><time>2026-04-04T15:00:21.01Z</time></trkpt><trkpt lat="45.265347220184765" lon="11.714164665377737"><ele>26.0</ele><time>2026-04-04T15:00:22.01Z</time></trkpt><trkpt lat="45.265278709778165" lon="11.714173793448312"><ele>26.0</ele><time>2026-04-04T15:00:23.01Z</time></trkpt><trkpt lat="45.265213969566545" lon="11.714208049636857"><ele>26.0</ele><time>2026-04-04T15:00:24.01Z</time></trkpt><trkpt lat="45.2651556238853" lon="11.714269036052103"><ele>25.999999999999996</ele><time>2026-04-04T15:00:25.01Z</time></trkpt><trkpt lat="45.26508883811431" lon="11.714354113025735"><ele>26.0</ele><time>2026-04-04T15:00:26.01Z</time></trkpt><trkpt lat="45.264995558725474" lon="11.714431892186779"><ele>29.75</ele><time>2026-04-04T15:00:27.01Z</time></trkpt><trkpt lat="45.26486712110352" lon="11.714478494351189"><ele>33.5</ele><time>2026-04-04T15:00:28.01Z</time></trkpt><trkpt lat="45.2647387977655" lon="11.714537544449826"><ele>37.25</ele><time>2026-04-04T15:00:29.01Z</time></trkpt><trkpt lat="45.264610458052196" lon="11.714598845527004"><ele>41.0</ele><time>2026-04-04T15:00:30.01Z</time></trkpt><trkpt lat="45.264482126521685" lon="11.714665257137405"><ele>41.0</ele><time>2026-04-04T15:00:31.011Z</time></trkpt><trkpt lat="45.26434004710358" lon="11.714734984025"><ele>41.0</ele><time>2026-04-04T15:00:32.011Z</time></trkpt><trkpt lat="45.26419925352868" lon="11.714788287031563"><ele>41.0</ele><time>2026-04-04T15:00:33.011Z</time></trkpt><trkpt lat="45.26407252292959" lon="11.714818877312204"><ele>41.0</ele><time>2026-04-04T15:00:34.011Z</time></trkpt><trkpt lat="45.26395340131335" lon="11.714814997650953"><ele>41.666666666666664</ele><time>2026-04-04T15:00:35.011Z</time></trkpt><trkpt lat="45.26385194580801" lon="11.71479459731033"><ele>42.33333333333333</ele><time>2026-04-04T15:00:36.011Z</time></trkpt><trkpt lat="45.263784750815205" lon="11.714796171801805"><ele>43.0</ele><time>2026-04-04T15:00:37.011Z</time></trkpt><trkpt lat="45.26370672732356" lon="11.714875006957014"><ele>43.666666666666664</ele><time>2026-04-04T15:00:39.011Z</time></trkpt><trkpt lat="45.263709974512636" lon="11.715024112241855"><ele>44.333333333333336</ele><time>2026-04-04T15:00:41.012Z</time></trkpt><trkpt lat="45.26376008044383" lon="11.715090622036053"><ele>45.0</ele><time>2026-04-04T15:00:42.012Z</time></trkpt><trkpt lat="45.26386689811782" lon="11.7151524597465"><ele>44.0</ele><time>2026-04-04T15:00:43.011Z</time></trkpt><trkpt lat="45.26397913002216" lon="11.715236190547252"><ele>43.0</ele><time>2026-04-04T15:00:44.011Z</time></trkpt><trkpt lat="45.26403618801162" lon="11.715390501665041"><ele>42.0</ele><time>2026-04-04T15:00:45.011Z</time></trkpt><trkpt lat="45.26407200946758" lon="11.715564053345528"><ele>41.0</ele><time>2026-04-04T15:00:46.011Z</time></trkpt><trkpt lat="45.264093336688376" lon="11.715756574864693"><ele>44.0</ele><time>2026-04-04T15:00:47.011Z</time></trkpt><trkpt lat="45.26412970540702" lon="11.715920883895503"><ele>47.0</ele><time>2026-04-04T15:00:48.011Z</time></trkpt><trkpt lat="45.26417636110854" lon="11.716083385915374"><ele>50.0</ele><time>2026-04-04T15:00:49.011Z</time></trkpt><trkpt lat="45.26423385509393" lon="11.716231862783438"><ele>53.0</ele><time>2026-04-04T15:00:50.011Z</time></trkpt><trkpt lat="45.2643177641694" lon="11.716369309880395"><ele>53.0</ele><time>2026-04-04T15:00:51.011Z</time></trkpt><trkpt lat="45.26443219851859" lon="11.716507332764918"><ele>53.0</ele><time>2026-04-04T15:00:52.011Z</time></trkpt><trkpt lat="45.26457220911254" lon="11.716629526784935"><ele>53.0</ele><time>2026-04-04T15:00:53.011Z</time></trkpt><trkpt lat="45.264707534697465" lon="11.716761746247117"><ele>52.333333333333336</ele><time>2026-04-04T15:00:54.011Z</time></trkpt><trkpt lat="45.26482755963814" lon="11.716900168526774"><ele>51.66666666666667</ele><time>2026-04-04T15:00:55.011Z</time></trkpt><trkpt lat="45.26494468358643" lon="11.717057032256434"><ele>51.0</ele><time>2026-04-04T15:00:56.011Z</time></trkpt><trkpt lat="45.26506563615654" lon="11.717211968754274"><ele>51.0</ele><time>2026-04-04T15:00:57.011Z</time></trkpt><trkpt lat="45.26519446208888" lon="11.717366191857"><ele>51.0</ele><time>2026-04-04T15:00:58.011Z</time></trkpt><trkpt lat="45.265335845945046" lon="11.71753040671612"><ele>51.0</ele><time>2026-04-04T15:00:59.011Z</time></trkpt><trkpt lat="45.26548222266337" lon="11.717689547435771"><ele>50.33333333333333</ele><time>2026-04-04T15:01:00.011Z</time></trkpt><trkpt lat="45.26561207570706" lon="11.717842786746955"><ele>49.666666666666664</ele><time>2026-04-04T15:01:01.011Z</time></trkpt><trkpt lat="45.26573060713791" lon="11.717986029756567"><ele>49.0</ele><time>2026-04-04T15:01:02.011Z</time></trkpt><trkpt lat="45.26586138619523" lon="11.718096698832777"><ele>49.0</ele><time>2026-04-04T15:01:03.011Z</time></trkpt><trkpt lat="45.26599887209665" lon="11.718187607218011"><ele>49.0</ele><time>2026-04-04T15:01:04.011Z</time></trkpt><trkpt lat="45.26613270887316" lon="11.718274481550187"><ele>49.0</ele><time>2026-04-04T15:01:05.011Z</time></trkpt><trkpt lat="45.26627227566452" lon="11.718343924792727"><ele>49.0</ele><time>2026-04-04T15:01:06.011Z</time></trkpt><trkpt lat="45.266417142176884" lon="11.718398385127465"><ele>50.0</ele><time>2026-04-04T15:01:07.011Z</time></trkpt><trkpt lat="45.26655042924079" lon="11.718440549191978"><ele>51.0</ele><time>2026-04-04T15:01:08.011Z</time></trkpt><trkpt lat="45.26669733917108" lon="11.718451596653441"><ele>52.0</ele><time>2026-04-04T15:01:09.011Z</time></trkpt><trkpt lat="45.26685091759489" lon="11.718426025269315"><ele>53.0</ele><time>2026-04-04T15:01:10.011Z</time></trkpt><trkpt lat="45.26700355978986" lon="11.71837993395269"><ele>53.0</ele><time>2026-04-04T15:01:11.011Z</time></trkpt><trkpt lat="45.26715521280767" lon="11.718343457253642"><ele>53.0</ele><time>2026-04-04T15:01:12.011Z</time></trkpt><trkpt lat="45.267276523333166" lon="11.718329923315645"><ele>53.0</ele><time>2026-04-04T15:01:13.011Z</time></trkpt><trkpt lat="45.26741740770785" lon="11.718356128378662"><ele>53.0</ele><time>2026-04-04T15:01:14.011Z</time></trkpt><trkpt lat="45.2675562609586" lon="11.718401647128303"><ele>52.25</ele><time>2026-04-04T15:01:15.011Z</time></trkpt><trkpt lat="45.267699239775624" lon="11.718433116497208"><ele>51.5</ele><time>2026-04-04T15:01:16.011Z</time></trkpt><trkpt lat="45.26783119724096" lon="11.71849098505128"><ele>50.75</ele><time>2026-04-04T15:01:17.011Z</time></trkpt><trkpt lat="45.26794945390526" lon="11.718536147355408"><ele>50.0</ele><time>2026-04-04T15:01:18.011Z</time></trkpt><trkpt lat="45.26805511999677" lon="11.718596887441196"><ele>45.5</ele><time>2026-04-04T15:01:19.011Z</time></trkpt><trkpt lat="45.268168007678824" lon="11.718648672095336"><ele>41.0</ele><time>2026-04-04T15:01:20.011Z</time></trkpt><trkpt lat="45.26827416593619" lon="11.718680692541975"><ele>36.5</ele><time>2026-04-04T15:01:21.011Z</time></trkpt><trkpt lat="45.268388868833114" lon="11.71868171178686"><ele>32.0</ele><time>2026-04-04T15:01:22.011Z</time></trkpt><trkpt lat="45.26852185399254" lon="11.71864543537993"><ele>32.0</ele><time>2026-04-04T15:01:23.011Z</time></trkpt><trkpt lat="45.26866221858497" lon="11.718629211604524"><ele>32.0</ele><time>2026-04-04T15:01:24.011Z</time></trkpt><trkpt lat="45.26877770543846" lon="11.718620994283908"><ele>32.0</ele><time>2026-04-04T15:01:25.011Z</time></trkpt><trkpt lat="45.268850329726924" lon="11.71862724851178"><ele>32.0</ele><time>2026-04-04T15:01:26.011Z</time></trkpt><trkpt lat="45.26895162039911" lon="11.71865602416621"><ele>32.0</ele><time>2026-04-04T15:01:28.011Z</time></trkpt><trkpt lat="45.26898765301098" lon="11.718730459861886"><ele>33.6</ele><time>2026-04-04T15:01:29.011Z</time></trkpt><trkpt lat="45.26906652453242" lon="11.718824571731481"><ele>35.2</ele><time>2026-04-04T15:01:31.011Z</time></trkpt><trkpt lat="45.26911704245711" lon="11.718917223746264"><ele>36.8</ele><time>2026-04-04T15:01:33.011Z</time></trkpt><trkpt lat="45.26911357909819" lon="11.719034290069866"><ele>38.4</ele><time>2026-04-04T15:01:36.011Z</time></trkpt><trkpt lat="45.2691479764925" lon="11.719155565387302"><ele>40.0</ele><time>2026-04-04T15:01:39.011Z</time></trkpt><trkpt lat="45.269064711828754" lon="11.719094502699521"><ele>40.0</ele><time>2026-04-04T15:01:43.011Z</time></trkpt><trkpt lat="45.26896767941826" lon="11.719026134620059"><ele>40.0</ele><time>2026-04-04T15:01:45.011Z</time></trkpt><trkpt lat="45.268855578846306" lon="11.718974355216961"><ele>40.0</ele><time>2026-04-04T15:01:47.011Z</time></trkpt><trkpt lat="45.268741265563" lon="11.718951420696241"><ele>40.0</ele><time>2026-04-04T15:01:49.011Z</time></trkpt><trkpt lat="45.26864671025906" lon="11.718981170546025"><ele>40.0</ele><time>2026-04-04T15:01:51.011Z</time></trkpt><trkpt lat="45.268603732240436" lon="11.719114922512718"><ele>38.4</ele><time>2026-04-04T15:01:52.011Z</time></trkpt><trkpt lat="45.26855518521598" lon="11.719203758430229"><ele>36.8</ele><time>2026-04-04T15:01:53.011Z</time></trkpt><trkpt lat="45.26851639312996" lon="11.719299869092534"><ele>35.2</ele><time>2026-04-04T15:01:54.011Z</time></trkpt><trkpt lat="45.26848567834599" lon="11.719409233957517"><ele>33.6</ele><time>2026-04-04T15:01:55.011Z</time></trkpt><trkpt lat="45.26844913742776" lon="11.719569172267118"><ele>32.0</ele><time>2026-04-04T15:01:56.011Z</time></trkpt><trkpt lat="45.26841279953224" lon="11.719751531871065"><ele>29.666666666666664</ele><time>2026-04-04T15:01:57.011Z</time></trkpt><trkpt lat="45.26838210528512" lon="11.719968822516499"><ele>27.333333333333336</ele><time>2026-04-04T15:01:58.011Z</time></trkpt><trkpt lat="45.268339525820274" lon="11.720188323617615"><ele>25.0</ele><time>2026-04-04T15:01:59.011Z</time></trkpt><trkpt lat="45.26826902826175" lon="11.720381781361096"><ele>23.75</ele><time>2026-04-04T15:02:00.011Z</time></trkpt><trkpt lat="45.26817344879175" lon="11.720552435510617"><ele>22.5</ele><time>2026-04-04T15:02:01.011Z</time></trkpt><trkpt lat="45.26806024830734" lon="11.720701791890457"><ele>21.25</ele><time>2026-04-04T15:02:02.011Z</time></trkpt><trkpt lat="45.26795999319863" lon="11.720817764269439"><ele>20.0</ele><time>2026-04-04T15:02:03.011Z</time></trkpt><trkpt lat="45.26787821080584" lon="11.72092038432036"><ele>19.0</ele><time>2026-04-04T15:02:04.011Z</time></trkpt><trkpt lat="45.26781078205262" lon="11.720999690607323"><ele>18.0</ele><time>2026-04-04T15:02:05.011Z</time></trkpt><trkpt lat="45.26775673441248" lon="11.721073921360167"><ele>17.0</ele><time>2026-04-04T15:02:06.011Z</time></trkpt><trkpt lat="45.26766907544454" lon="11.721164253691413"><ele>16.0</ele><time>2026-04-04T15:02:08.011Z</time></trkpt><trkpt lat="45.26759708547588" lon="11.721239076344245"><ele>15.0</ele><time>2026-04-04T15:02:10.011Z</time></trkpt><trkpt lat="45.26758303830328" lon="11.721433187378592"><ele>15.0</ele><time>2026-04-04T15:02:12.011Z</time></trkpt><trkpt lat="45.26757286896378" lon="11.721610434539773"><ele>15.0</ele><time>2026-04-04T15:02:13.011Z</time></trkpt><trkpt lat="45.26754960277734" lon="11.721821366171776"><ele>15.0</ele><time>2026-04-04T15:02:14.011Z</time></trkpt><trkpt lat="45.26751697777096" lon="11.72202749171492"><ele>15.0</ele><time>2026-04-04T15:02:15.011Z</time></trkpt><trkpt lat="45.2675033522837" lon="11.72222103041343"><ele>15.0</ele><time>2026-04-04T15:02:16.011Z</time></trkpt><trkpt lat="45.26749197045243" lon="11.722392167118375"><ele>15.0</ele><time>2026-04-04T15:02:17.011Z</time></trkpt><trkpt lat="45.26749205383799" lon="11.722530013904592"><ele>15.0</ele><time>2026-04-04T15:02:18.011Z</time></trkpt><trkpt lat="45.267535443161464" lon="11.722646679124235"><ele>15.0</ele><time>2026-04-04T15:02:19.011Z</time></trkpt><trkpt lat="45.26760469359872" lon="11.722734058197235"><ele>15.0</ele><time>2026-04-04T15:02:20.011Z</time></trkpt><trkpt lat="45.26771368238193" lon="11.722821838056792"><ele>16.666666666666668</ele><time>2026-04-04T15:02:21.011Z</time></trkpt><trkpt lat="45.26787714896676" lon="11.722898944918963"><ele>18.333333333333336</ele><time>2026-04-04T15:02:22.011Z</time></trkpt><trkpt lat="45.26808391507712" lon="11.723009590030198"><ele>20.0</ele><time>2026-04-04T15:02:23.011Z</time></trkpt><trkpt lat="45.26825932141183" lon="11.72312505993694"><ele>20.0</ele><time>2026-04-04T15:02:24.011Z</time></trkpt><trkpt lat="45.268412535670265" lon="11.723256019072121"><ele>20.0</ele><time>2026-04-04T15:02:25.011Z</time></trkpt><trkpt lat="45.26851988113255" lon="11.723362069300041"><ele>20.0</ele><time>2026-04-04T15:02:26.011Z</time></trkpt><trkpt lat="45.26860998033718" lon="11.723479073026839"><ele>20.0</ele><time>2026-04-04T15:02:27.011Z</time></trkpt><trkpt lat="45.26873003117128" lon="11.72358598090725"><ele>22.0</ele><time>2026-04-04T15:02:28.011Z</time></trkpt><trkpt lat="45.268889903579975" lon="11.72368767753825"><ele>24.0</ele><time>2026-04-04T15:02:29.011Z</time></trkpt><trkpt lat="45.269083453526505" lon="11.723773982097653"><ele>26.0</ele><time>2026-04-04T15:02:30.011Z</time></trkpt><trkpt lat="45.2692742966408" lon="11.723858844263384"><ele>26.0</ele><time>2026-04-04T15:02:31.011Z</time></trkpt><trkpt lat="45.2694540701648" lon="11.723927856819717"><ele>26.0</ele><time>2026-04-04T15:02:32.011Z</time></trkpt><trkpt lat="45.26962156591138" lon="11.723997332015117"><ele>26.0</ele><time>2026-04-04T15:02:33.011Z</time></trkpt><trkpt lat="45.26977406786415" lon="11.724046330561128"><ele>27.8</ele><time>2026-04-04T15:02:34.011Z</time></trkpt><trkpt lat="45.26991183587114" lon="11.724088674024552"><ele>29.6</ele><time>2026-04-04T15:02:35.011Z</time></trkpt><trkpt lat="45.27002846593823" lon="11.724116618461307"><ele>31.4</ele><time>2026-04-04T15:02:36.011Z</time></trkpt><trkpt lat="45.2701243497064" lon="11.724140579249497"><ele>33.2</ele><time>2026-04-04T15:02:37.012Z</time></trkpt><trkpt lat="45.27020758716644" lon="11.724169086355074"><ele>35.0</ele><time>2026-04-04T15:02:38.012Z</time></trkpt><trkpt lat="45.27028172019266" lon="11.724196679291548"><ele>35.0</ele><time>2026-04-04T15:02:39.012Z</time></trkpt><trkpt lat="45.27032727360215" lon="11.724269360287542"><ele>35.0</ele><time>2026-04-04T15:02:40.012Z</time></trkpt><trkpt lat="45.27034594150335" lon="11.724392587815759"><ele>35.0</ele><time>2026-04-04T15:02:41.012Z</time></trkpt><trkpt lat="45.2703242760484" lon="11.72453072240465"><ele>35.0</ele><time>2026-04-04T15:02:42.012Z</time></trkpt><trkpt lat="45.2702673119703" lon="11.724699309421686"><ele>35.0</ele><time>2026-04-04T15:02:43.011Z</time></trkpt><trkpt lat="45.27020124573298" lon="11.72488860639111"><ele>36.5</ele><time>2026-04-04T15:02:44.011Z</time></trkpt><trkpt lat="45.270138668470565" lon="11.725066287014693"><ele>38.0</ele><time>2026-04-04T15:02:45.011Z</time></trkpt><trkpt lat="45.27008845497629" lon="11.725229005085167"><ele>39.5</ele><time>2026-04-04T15:02:46.012Z</time></trkpt><trkpt lat="45.270046124592234" lon="11.725379615287757"><ele>41.0</ele><time>2026-04-04T15:02:47.012Z</time></trkpt><trkpt lat="45.270019824545585" lon="11.725544859668945"><ele>42.75</ele><time>2026-04-04T15:02:48.012Z</time></trkpt><trkpt lat="45.26999999242237" lon="11.725700434642588"><ele>44.5</ele><time>2026-04-04T15:02:49.011Z</time></trkpt><trkpt lat="45.26996974915043" lon="11.725849801280527"><ele>46.25</ele><time>2026-04-04T15:02:50.012Z</time></trkpt><trkpt lat="45.26992972358179" lon="11.726010693818827"><ele>48.0</ele><time>2026-04-04T15:02:51.012Z</time></trkpt><trkpt lat="45.26986374812127" lon="11.726189133039927"><ele>48.25</ele><time>2026-04-04T15:02:52.012Z</time></trkpt><trkpt lat="45.269793497784754" lon="11.726365914855029"><ele>48.5</ele><time>2026-04-04T15:02:53.012Z</time></trkpt><trkpt lat="45.26973319375825" lon="11.726531648781844"><ele>48.75</ele><time>2026-04-04T15:02:54.012Z</time></trkpt><trkpt lat="45.269666943217906" lon="11.726656295263595"><ele>49.0</ele><time>2026-04-04T15:02:55.012Z</time></trkpt><trkpt lat="45.269585926964155" lon="11.726752037265863"><ele>49.0</ele><time>2026-04-04T15:02:56.012Z</time></trkpt><trkpt lat="45.26948465701435" lon="11.726830989508766"><ele>49.0</ele><time>2026-04-04T15:02:57.012Z</time></trkpt><trkpt lat="45.269383933982105" lon="11.726893786364055"><ele>49.0</ele><time>2026-04-04T15:02:58.012Z</time></trkpt><trkpt lat="45.26931419689164" lon="11.72692472634877"><ele>49.0</ele><time>2026-04-04T15:02:59.012Z</time></trkpt><trkpt lat="45.26924943253481" lon="11.726981972745717"><ele>49.0</ele><time>2026-04-04T15:03:00.012Z</time></trkpt><trkpt lat="45.26918507148076" lon="11.727108796403563"><ele>48.49999999999999</ele><time>2026-04-04T15:03:01.012Z</time></trkpt><trkpt lat="45.2691194360924" lon="11.727200145673578"><ele>48.0</ele><time>2026-04-04T15:03:02.012Z</time></trkpt><trkpt lat="45.26904199546519" lon="11.727271608348197"><ele>47.5</ele><time>2026-04-04T15:03:03.012Z</time></trkpt><trkpt lat="45.26895074182667" lon="11.727329101941077"><ele>47.0</ele><time>2026-04-04T15:03:04.012Z</time></trkpt><trkpt lat="45.268885031377486" lon="11.727376425142161"><ele>46.5</ele><time>2026-04-04T15:03:05.012Z</time></trkpt><trkpt lat="45.268794768282966" lon="11.727378344948988"><ele>46.0</ele><time>2026-04-04T15:03:07.012Z</time></trkpt><trkpt lat="45.26876270957743" lon="11.727480356020292"><ele>41.25</ele><time>2026-04-04T15:03:10.012Z</time></trkpt><trkpt lat="45.268815167975106" lon="11.727746033723438"><ele>36.5</ele><time>2026-04-04T15:04:03.012Z</time></trkpt><trkpt lat="45.26883397461459" lon="11.727884242237094"><ele>31.75</ele><time>2026-04-04T15:04:04.012Z</time></trkpt><trkpt lat="45.268873650925215" lon="11.728032310684037"><ele>27.0</ele><time>2026-04-04T15:04:05.012Z</time></trkpt><trkpt lat="45.26892653263183" lon="11.728186336581231"><ele>25.5</ele><time>2026-04-04T15:04:06.012Z</time></trkpt><trkpt lat="45.26902577003932" lon="11.728325307525909"><ele>24.0</ele><time>2026-04-04T15:04:07.012Z</time></trkpt><trkpt lat="45.269144580670165" lon="11.72847524716209"><ele>22.5</ele><time>2026-04-04T15:04:08.012Z</time></trkpt><trkpt lat="45.26925480739265" lon="11.728607586120138"><ele>21.0</ele><time>2026-04-04T15:04:09.012Z</time></trkpt><trkpt lat="45.26935635858439" lon="11.728716181161689"><ele>21.0</ele><time>2026-04-04T15:04:10.012Z</time></trkpt><trkpt lat="45.26944362291938" lon="11.72883002250003"><ele>21.0</ele><time>2026-04-04T15:04:11.012Z</time></trkpt><trkpt lat="45.26949998797642" lon="11.728956472145818"><ele>21.0</ele><time>2026-04-04T15:04:12.012Z</time></trkpt><trkpt lat="45.26955979496926" lon="11.729086902606408"><ele>21.0</ele><time>2026-04-04T15:04:13.012Z</time></trkpt><trkpt lat="45.26960100583682" lon="11.729232923055426"><ele>21.0</ele><time>2026-04-04T15:04:14.012Z</time></trkpt><trkpt lat="45.269608100266964" lon="11.72937559853137"><ele>19.0</ele><time>2026-04-04T15:04:15.012Z</time></trkpt><trkpt lat="45.269585965513" lon="11.729543902903032"><ele>17.0</ele><time>2026-04-04T15:04:16.012Z</time></trkpt><trkpt lat="45.269542906873134" lon="11.729746766197339"><ele>15.0</ele><time>2026-04-04T15:04:17.012Z</time></trkpt><trkpt lat="45.26949751578052" lon="11.729954427418107"><ele>13.0</ele><time>2026-04-04T15:04:18.012Z</time></trkpt><trkpt lat="45.26943668631833" lon="11.730238843680032"><ele>12.333333333333332</ele><time>2026-04-04T15:04:19.012Z</time></trkpt><trkpt lat="45.26937778274229" lon="11.730514944729467"><ele>11.666666666666666</ele><time>2026-04-04T15:04:20.012Z</time></trkpt><trkpt lat="45.269319545765164" lon="11.730790397063538"><ele>11.0</ele><time>2026-04-04T15:04:21.012Z</time></trkpt><trkpt lat="45.26926871449427" lon="11.731053202607269"><ele>11.0</ele><time>2026-04-04T15:04:22.012Z</time></trkpt><trkpt lat="45.26924020963527" lon="11.731298578492497"><ele>11.0</ele><time>2026-04-04T15:04:23.012Z</time></trkpt><trkpt lat="45.26920765402652" lon="11.731513151568528"><ele>11.0</ele><time>2026-04-04T15:04:24.012Z</time></trkpt><trkpt lat="45.269197366914156" lon="11.731705275542707"><ele>11.0</ele><time>2026-04-04T15:04:25.012Z</time></trkpt><trkpt lat="45.269211870010075" lon="11.731874677256334"><ele>11.0</ele><time>2026-04-04T15:04:26.012Z</time></trkpt><trkpt lat="45.26926175172895" lon="11.732029692675706"><ele>11.0</ele><time>2026-04-04T15:04:27.012Z</time></trkpt><trkpt lat="45.269351809287606" lon="11.732184193174268"><ele>11.0</ele><time>2026-04-04T15:04:28.012Z</time></trkpt><trkpt lat="45.26945416967577" lon="11.732325878687757"><ele>10.75</ele><time>2026-04-04T15:04:29.012Z</time></trkpt><trkpt lat="45.269544624711415" lon="11.732474197904443"><ele>10.5</ele><time>2026-04-04T15:04:30.012Z</time></trkpt><trkpt lat="45.26961919097776" lon="11.732619800047623"><ele>10.25</ele><time>2026-04-04T15:04:31.012Z</time></trkpt><trkpt lat="45.269658623126865" lon="11.732780818034287"><ele>10.0</ele><time>2026-04-04T15:04:32.012Z</time></trkpt><trkpt lat="45.26965479820321" lon="11.732960038833417"><ele>9.75</ele><time>2026-04-04T15:04:33.011Z</time></trkpt><trkpt lat="45.2696317880467" lon="11.733134589654773"><ele>9.5</ele><time>2026-04-04T15:04:34.011Z</time></trkpt><trkpt lat="45.26957345716109" lon="11.733320406141436"><ele>9.25</ele><time>2026-04-04T15:04:35.011Z</time></trkpt><trkpt lat="45.26951749244122" lon="11.73352347541137"><ele>9.0</ele><time>2026-04-04T15:04:36.011Z</time></trkpt><trkpt lat="45.269440944056036" lon="11.73374721134417"><ele>8.75</ele><time>2026-04-04T15:04:37.011Z</time></trkpt><trkpt lat="45.26939491445667" lon="11.733952074028728"><ele>8.5</ele><time>2026-04-04T15:04:38.011Z</time></trkpt><trkpt lat="45.26937465846068" lon="11.734138537128693"><ele>8.25</ele><time>2026-04-04T15:04:39.011Z</time></trkpt><trkpt lat="45.269375882473376" lon="11.734309558567594"><ele>8.0</ele><time>2026-04-04T15:04:40.011Z</time></trkpt><trkpt lat="45.26941443667981" lon="11.734493211644578"><ele>7.666666666666666</ele><time>2026-04-04T15:04:41.011Z</time></trkpt><trkpt lat="45.26947578068841" lon="11.73470448172154"><ele>7.333333333333334</ele><time>2026-04-04T15:04:42.011Z</time></trkpt><trkpt lat="45.269536481041385" lon="11.734946353288136"><ele>7.0</ele><time>2026-04-04T15:04:43.012Z</time></trkpt><trkpt lat="45.26958919742729" lon="11.735166173646675"><ele>7.0</ele><time>2026-04-04T15:04:44.013Z</time></trkpt><trkpt lat="45.269628417035705" lon="11.735366418347159"><ele>7.0</ele><time>2026-04-04T15:04:45.013Z</time></trkpt><trkpt lat="45.26964626336515" lon="11.73558042712622"><ele>7.0</ele><time>2026-04-04T15:04:46.012Z</time></trkpt><trkpt lat="45.26963459279972" lon="11.735825991351048"><ele>7.333333333333334</ele><time>2026-04-04T15:04:47.012Z</time></trkpt><trkpt lat="45.26961410081804" lon="11.736087087629665"><ele>7.666666666666666</ele><time>2026-04-04T15:04:48.012Z</time></trkpt><trkpt lat="45.26959809918577" lon="11.736359508425064"><ele>8.0</ele><time>2026-04-04T15:04:49.013Z</time></trkpt><trkpt lat="45.269600879163875" lon="11.73666293075597"><ele>8.0</ele><time>2026-04-04T15:04:50.012Z</time></trkpt><trkpt lat="45.269604166639446" lon="11.736976552375284"><ele>8.0</ele><time>2026-04-04T15:04:51.012Z</time></trkpt><trkpt lat="45.269609236312036" lon="11.737271790254571"><ele>8.0</ele><time>2026-04-04T15:04:52.013Z</time></trkpt><trkpt lat="45.26961586871872" lon="11.737540092703394"><ele>7.666666666666666</ele><time>2026-04-04T15:04:53.013Z</time></trkpt><trkpt lat="45.269634388038995" lon="11.73778432969821"><ele>7.333333333333334</ele><time>2026-04-04T15:04:54.013Z</time></trkpt><trkpt lat="45.26967136521637" lon="11.73804122775833"><ele>7.0</ele><time>2026-04-04T15:04:55.013Z</time></trkpt><trkpt lat="45.26972004987703" lon="11.738308425373035"><ele>9.0</ele><time>2026-04-04T15:04:56.012Z</time></trkpt><trkpt lat="45.26977644922195" lon="11.738569636685702"><ele>11.0</ele><time>2026-04-04T15:04:57.012Z</time></trkpt><trkpt lat="45.26982335323318" lon="11.738834330600042"><ele>13.0</ele><time>2026-04-04T15:04:58.012Z</time></trkpt><trkpt lat="45.26986024590169" lon="11.73909574418711"><ele>13.0</ele><time>2026-04-04T15:04:59.012Z</time></trkpt><trkpt lat="45.26991557341051" lon="11.739316879647609"><ele>13.0</ele><time>2026-04-04T15:05:00.012Z</time></trkpt><trkpt lat="45.2699465243092" lon="11.739549022423704"><ele>13.0</ele><time>2026-04-04T15:05:01.012Z</time></trkpt><trkpt lat="45.269995065384315" lon="11.73973773641011"><ele>12.0</ele><time>2026-04-04T15:05:02.012Z</time></trkpt><trkpt lat="45.27004103087982" lon="11.739931170303342"><ele>11.0</ele><time>2026-04-04T15:05:03.012Z</time></trkpt><trkpt lat="45.27010483158256" lon="11.740144462090218"><ele>10.0</ele><time>2026-04-04T15:05:04.012Z</time></trkpt><trkpt lat="45.27017500429664" lon="11.740358253819515"><ele>9.5</ele><time>2026-04-04T15:05:05.012Z</time></trkpt><trkpt lat="45.270253528808695" lon="11.740556616126822"><ele>9.0</ele><time>2026-04-04T15:05:06.012Z</time></trkpt><trkpt lat="45.27032738474596" lon="11.740726229861886"><ele>8.5</ele><time>2026-04-04T15:05:07.012Z</time></trkpt><trkpt lat="45.270401292554844" lon="11.740859232699743"><ele>8.0</ele><time>2026-04-04T15:05:08.012Z</time></trkpt><trkpt lat="45.27049698523502" lon="11.740961117988784"><ele>7.0</ele><time>2026-04-04T15:05:09.012Z</time></trkpt><trkpt lat="45.27062250819873" lon="11.741040354425467"><ele>6.0</ele><time>2026-04-04T15:05:10.012Z</time></trkpt><trkpt lat="45.27077233542585" lon="11.74111983752837"><ele>5.0</ele><time>2026-04-04T15:05:11.012Z</time></trkpt><trkpt lat="45.27092453812952" lon="11.741196188262913"><ele>5.0</ele><time>2026-04-04T15:05:12.012Z</time></trkpt><trkpt lat="45.27105708332061" lon="11.741285572746541"><ele>5.0</ele><time>2026-04-04T15:05:13.012Z</time></trkpt><trkpt lat="45.271179241878755" lon="11.741336199326046"><ele>5.0</ele><time>2026-04-04T15:05:14.012Z</time></trkpt><trkpt lat="45.271290282901624" lon="11.741380361615724"><ele>5.0</ele><time>2026-04-04T15:05:15.012Z</time></trkpt><trkpt lat="45.271391524551184" lon="11.741433630046647"><ele>7.0</ele><time>2026-04-04T15:05:16.012Z</time></trkpt><trkpt lat="45.27147591059405" lon="11.741492138473385"><ele>9.0</ele><time>2026-04-04T15:05:17.012Z</time></trkpt><trkpt lat="45.271556926191906" lon="11.741551140201658"><ele>11.0</ele><time>2026-04-04T15:05:18.012Z</time></trkpt><trkpt lat="45.27160962826737" lon="11.741673625418107"><ele>13.0</ele><time>2026-04-04T15:05:19.012Z</time></trkpt><trkpt lat="45.2716513590491" lon="11.74180823421169"><ele>15.0</ele><time>2026-04-04T15:05:20.012Z</time></trkpt><trkpt lat="45.27165887218132" lon="11.741977540000791"><ele>15.0</ele><time>2026-04-04T15:05:21.012Z</time></trkpt><trkpt lat="45.271630716887636" lon="11.742163517618431"><ele>15.0</ele><time>2026-04-04T15:05:22.012Z</time></trkpt><trkpt lat="45.27158926310078" lon="11.742353287347505"><ele>15.0</ele><time>2026-04-04T15:05:23.012Z</time></trkpt><trkpt lat="45.27153873685168" lon="11.74252686599663"><ele>15.0</ele><time>2026-04-04T15:05:24.012Z</time></trkpt><trkpt lat="45.271490859286075" lon="11.742682594066814"><ele>13.0</ele><time>2026-04-04T15:05:25.012Z</time></trkpt><trkpt lat="45.27143641612342" lon="11.742830736217266"><ele>11.0</ele><time>2026-04-04T15:05:26.012Z</time></trkpt><trkpt lat="45.271373822277404" lon="11.742965628730333"><ele>9.0</ele><time>2026-04-04T15:05:27.012Z</time></trkpt><trkpt lat="45.27129676971207" lon="11.743105865905536"><ele>7.0</ele><time>2026-04-04T15:05:28.012Z</time></trkpt><trkpt lat="45.27121754826083" lon="11.743255576812565"><ele>7.0</ele><time>2026-04-04T15:05:29.012Z</time></trkpt><trkpt lat="45.271129984686176" lon="11.743401768625475"><ele>7.0</ele><time>2026-04-04T15:05:30.012Z</time></trkpt><trkpt lat="45.27104698296942" lon="11.743541923891655"><ele>7.0</ele><time>2026-04-04T15:05:31.012Z</time></trkpt><trkpt lat="45.27096260755553" lon="11.743693433599582"><ele>7.0</ele><time>2026-04-04T15:05:32.012Z</time></trkpt><trkpt lat="45.270876046778895" lon="11.743833688259251"><ele>6.5</ele><time>2026-04-04T15:05:33.012Z</time></trkpt><trkpt lat="45.27078900772105" lon="11.743974487347101"><ele>6.0</ele><time>2026-04-04T15:05:34.012Z</time></trkpt><trkpt lat="45.270709418096814" lon="11.744101813631824"><ele>5.5</ele><time>2026-04-04T15:05:35.012Z</time></trkpt><trkpt lat="45.27064376898733" lon="11.74423019301431"><ele>5.0</ele><time>2026-04-04T15:05:36.012Z</time></trkpt><trkpt lat="45.27058903459404" lon="11.744351852662264"><ele>6.0</ele><time>2026-04-04T15:05:37.012Z</time></trkpt><trkpt lat="45.27053933948478" lon="11.744473121533424"><ele>7.0</ele><time>2026-04-04T15:05:38.012Z</time></trkpt><trkpt lat="45.27048443027741" lon="11.744598082645547"><ele>8.0</ele><time>2026-04-04T15:05:39.012Z</time></trkpt><trkpt lat="45.270417551968265" lon="11.744734440917219"><ele>9.0</ele><time>2026-04-04T15:05:40.012Z</time></trkpt><trkpt lat="45.27033796061037" lon="11.744869729711853"><ele>10.0</ele><time>2026-04-04T15:05:41.012Z</time></trkpt><trkpt lat="45.270252427860065" lon="11.745009765166076"><ele>10.0</ele><time>2026-04-04T15:05:42.012Z</time></trkpt><trkpt lat="45.27017518380767" lon="11.745140657903784"><ele>10.0</ele><time>2026-04-04T15:05:43.012Z</time></trkpt><trkpt lat="45.270102259846325" lon="11.745263012634734"><ele>10.0</ele><time>2026-04-04T15:05:44.012Z</time></trkpt><trkpt lat="45.27003445532697" lon="11.745387261170604"><ele>10.0</ele><time>2026-04-04T15:05:45.012Z</time></trkpt><trkpt lat="45.26997351875304" lon="11.745527913948425"><ele>9.75</ele><time>2026-04-04T15:05:46.012Z</time></trkpt><trkpt lat="45.269907993878256" lon="11.745677735805462"><ele>9.5</ele><time>2026-04-04T15:05:47.012Z</time></trkpt><trkpt lat="45.26984501870584" lon="11.745816613296308"><ele>9.25</ele><time>2026-04-04T15:05:48.012Z</time></trkpt><trkpt lat="45.26978829611981" lon="11.745949511183422"><ele>9.0</ele><time>2026-04-04T15:05:49.012Z</time></trkpt><trkpt lat="45.26971774164219" lon="11.746069601944493"><ele>9.0</ele><time>2026-04-04T15:05:50.012Z</time></trkpt><trkpt lat="45.26965178463946" lon="11.74620264206864"><ele>9.0</ele><time>2026-04-04T15:05:51.012Z</time></trkpt><trkpt lat="45.26958608163061" lon="11.74633499442195"><ele>9.0</ele><time>2026-04-04T15:05:52.012Z</time></trkpt><trkpt lat="45.26953283245418" lon="11.746443229862967"><ele>9.0</ele><time>2026-04-04T15:05:53.012Z</time></trkpt><trkpt lat="45.26947979886877" lon="11.746552399414345"><ele>9.0</ele><time>2026-04-04T15:05:54.012Z</time></trkpt><trkpt lat="45.269439498545495" lon="11.746636825222911"><ele>9.0</ele><time>2026-04-04T15:05:55.012Z</time></trkpt><trkpt lat="45.269400216978816" lon="11.746720027413664"><ele>9.0</ele><time>2026-04-04T15:05:56.012Z</time></trkpt><trkpt lat="45.269333510037356" lon="11.746850879184262"><ele>9.0</ele><time>2026-04-04T15:05:58.012Z</time></trkpt><trkpt lat="45.269272904126765" lon="11.746935727866493"><ele>9.0</ele><time>2026-04-04T15:06:00.012Z</time></trkpt><trkpt lat="45.26931155700926" lon="11.7470975184106"><ele>9.0</ele><time>2026-04-04T15:06:02.012Z</time></trkpt><trkpt lat="45.26942414992743" lon="11.747165977850186"><ele>9.0</ele><time>2026-04-04T15:06:04.012Z</time></trkpt><trkpt lat="45.26950472796126" lon="11.747202226119159"><ele>9.0</ele><time>2026-04-04T15:06:05.012Z</time></trkpt><trkpt lat="45.26959984834906" lon="11.747224360985967"><ele>9.0</ele><time>2026-04-04T15:06:06.012Z</time></trkpt><trkpt lat="45.269699802036165" lon="11.747244959284743"><ele>9.0</ele><time>2026-04-04T15:06:07.012Z</time></trkpt><trkpt lat="45.26980610490602" lon="11.747278713677687"><ele>9.0</ele><time>2026-04-04T15:06:08.012Z</time></trkpt><trkpt lat="45.26990741451582" lon="11.747312607102268"><ele>9.0</ele><time>2026-04-04T15:06:09.012Z</time></trkpt><trkpt lat="45.27001741773676" lon="11.747349927308386"><ele>9.0</ele><time>2026-04-04T15:06:10.012Z</time></trkpt><trkpt lat="45.27012320440124" lon="11.747376626649341"><ele>9.0</ele><time>2026-04-04T15:06:11.012Z</time></trkpt><trkpt lat="45.2702222112737" lon="11.74740604683638"><ele>9.0</ele><time>2026-04-04T15:06:12.012Z</time></trkpt><trkpt lat="45.27031524153791" lon="11.74747090364407"><ele>9.0</ele><time>2026-04-04T15:06:13.012Z</time></trkpt><trkpt lat="45.270409628059184" lon="11.747496582091106"><ele>9.0</ele><time>2026-04-04T15:06:14.012Z</time></trkpt><trkpt lat="45.2705086854004" lon="11.747518326740112"><ele>9.0</ele><time>2026-04-04T15:06:15.012Z</time></trkpt><trkpt lat="45.2706336365265" lon="11.74752189707972"><ele>9.0</ele><time>2026-04-04T15:06:16.012Z</time></trkpt><trkpt lat="45.27078502830103" lon="11.747510965062748"><ele>9.0</ele><time>2026-04-04T15:06:17.012Z</time></trkpt><trkpt lat="45.27094536975447" lon="11.747488631446542"><ele>9.333333333333334</ele><time>2026-04-04T15:06:18.012Z</time></trkpt><trkpt lat="45.27112164436514" lon="11.747464124533582"><ele>9.666666666666668</ele><time>2026-04-04T15:06:19.012Z</time></trkpt><trkpt lat="45.27130972913988" lon="11.74743285578924"><ele>10.0</ele><time>2026-04-04T15:06:20.012Z</time></trkpt><trkpt lat="45.27149160822579" lon="11.747415391602765"><ele>9.0</ele><time>2026-04-04T15:06:21.012Z</time></trkpt><trkpt lat="45.271683013354675" lon="11.74746326522712"><ele>8.0</ele><time>2026-04-04T15:06:22.012Z</time></trkpt><trkpt lat="45.27189726925965" lon="11.747512409663685"><ele>7.0</ele><time>2026-04-04T15:06:23.012Z</time></trkpt><trkpt lat="45.27213040773912" lon="11.747543222159239"><ele>7.0</ele><time>2026-04-04T15:06:24.012Z</time></trkpt><trkpt lat="45.27236202035821" lon="11.747597955324673"><ele>7.0</ele><time>2026-04-04T15:06:25.012Z</time></trkpt><trkpt lat="45.27258060914007" lon="11.74767329461936"><ele>6.666666666666667</ele><time>2026-04-04T15:06:26.012Z</time></trkpt><trkpt lat="45.27279615202365" lon="11.747721949202198"><ele>6.333333333333334</ele><time>2026-04-04T15:06:27.012Z</time></trkpt><trkpt lat="45.27298656052601" lon="11.747742561576624"><ele>6.0</ele><time>2026-04-04T15:06:28.012Z</time></trkpt><trkpt lat="45.27314469654461" lon="11.747789636694476"><ele>6.0</ele><time>2026-04-04T15:06:29.012Z</time></trkpt><trkpt lat="45.273290871979526" lon="11.74783263348023"><ele>6.0</ele><time>2026-04-04T15:06:30.012Z</time></trkpt><trkpt lat="45.27343766915944" lon="11.747867011773215"><ele>6.0</ele><time>2026-04-04T15:06:31.012Z</time></trkpt><trkpt lat="45.27359538429172" lon="11.747901462427196"><ele>6.0</ele><time>2026-04-04T15:06:32.012Z</time></trkpt><trkpt lat="45.27377037083259" lon="11.747941892116023"><ele>6.0</ele><time>2026-04-04T15:06:33.012Z</time></trkpt><trkpt lat="45.27396389440228" lon="11.747990955694068"><ele>6.0</ele><time>2026-04-04T15:06:34.012Z</time></trkpt><trkpt lat="45.274174511455726" lon="11.74803774915789"><ele>4.5</ele><time>2026-04-04T15:06:35.012Z</time></trkpt><trkpt lat="45.274399517214945" lon="11.748084837787777"><ele>3.0</ele><time>2026-04-04T15:06:36.012Z</time></trkpt><trkpt lat="45.27462915217127" lon="11.748136859556737"><ele>3.0</ele><time>2026-04-04T15:06:37.012Z</time></trkpt><trkpt lat="45.274856914170805" lon="11.748187264759125"><ele>3.0</ele><time>2026-04-04T15:06:38.012Z</time></trkpt><trkpt lat="45.275091132394344" lon="11.748243551462696"><ele>3.0</ele><time>2026-04-04T15:06:39.012Z</time></trkpt><trkpt lat="45.27532567609357" lon="11.74829808562429"><ele>3.0</ele><time>2026-04-04T15:06:40.012Z</time></trkpt><trkpt lat="45.275541114715644" lon="11.748349556071158"><ele>3.0</ele><time>2026-04-04T15:06:41.012Z</time></trkpt><trkpt lat="45.27574278199059" lon="11.748391204929703"><ele>3.0</ele><time>2026-04-04T15:06:42.012Z</time></trkpt><trkpt lat="45.27593275201308" lon="11.74841526958639"><ele>3.0</ele><time>2026-04-04T15:06:43.012Z</time></trkpt><trkpt lat="45.27612549155748" lon="11.748396902255514"><ele>3.0</ele><time>2026-04-04T15:06:44.012Z</time></trkpt><trkpt lat="45.276315169372346" lon="11.748332323075557"><ele>3.0</ele><time>2026-04-04T15:06:45.012Z</time></trkpt><trkpt lat="45.27650206096939" lon="11.748233374168484"><ele>3.0</ele><time>2026-04-04T15:06:46.012Z</time></trkpt><trkpt lat="45.27667638866977" lon="11.74808126703078"><ele>3.333333333333333</ele><time>2026-04-04T15:06:47.012Z</time></trkpt><trkpt lat="45.276833267203486" lon="11.747887758285252"><ele>3.6666666666666665</ele><time>2026-04-04T15:06:48.012Z</time></trkpt><trkpt lat="45.27696728930295" lon="11.747663050578442"><ele>4.0</ele><time>2026-04-04T15:06:49.013Z</time></trkpt><trkpt lat="45.27707472054808" lon="11.74739334863309"><ele>4.0</ele><time>2026-04-04T15:06:50.013Z</time></trkpt><trkpt lat="45.27716447789395" lon="11.747092038403938"><ele>4.0</ele><time>2026-04-04T15:06:51.013Z</time></trkpt><trkpt lat="45.277265279902615" lon="11.746778672960078"><ele>4.0</ele><time>2026-04-04T15:06:52.013Z</time></trkpt><trkpt lat="45.2773695405053" lon="11.746428590057423"><ele>4.0</ele><time>2026-04-04T15:06:53.013Z</time></trkpt><trkpt lat="45.27747318302363" lon="11.746070049196158"><ele>3.5</ele><time>2026-04-04T15:06:54.013Z</time></trkpt><trkpt lat="45.277580328851094" lon="11.745709764804571"><ele>3.0</ele><time>2026-04-04T15:06:55.013Z</time></trkpt><trkpt lat="45.277686852905944" lon="11.745356120087687"><ele>4.0</ele><time>2026-04-04T15:06:56.013Z</time></trkpt><trkpt lat="45.27778704355961" lon="11.745028213396296"><ele>5.0</ele><time>2026-04-04T15:06:57.013Z</time></trkpt><trkpt lat="45.277878468165994" lon="11.744718182040538"><ele>5.0</ele><time>2026-04-04T15:06:58.013Z</time></trkpt><trkpt lat="45.27796207025739" lon="11.744424058496824"><ele>5.0</ele><time>2026-04-04T15:06:59.013Z</time></trkpt><trkpt lat="45.27805637463378" lon="11.744154861150442"><ele>5.0</ele><time>2026-04-04T15:07:00.013Z</time></trkpt><trkpt lat="45.2780977400062" lon="11.7438771798754"><ele>5.333333333333334</ele><time>2026-04-04T15:07:01.013Z</time></trkpt><trkpt lat="45.27812305607633" lon="11.743596304567507"><ele>5.666666666666667</ele><time>2026-04-04T15:07:02.013Z</time></trkpt><trkpt lat="45.27814088556434" lon="11.743303110091581"><ele>6.0</ele><time>2026-04-04T15:07:03.013Z</time></trkpt><trkpt lat="45.2781774456771" lon="11.743002125899777"><ele>6.666666666666666</ele><time>2026-04-04T15:07:04.013Z</time></trkpt><trkpt lat="45.2782214176879" lon="11.74271329880137"><ele>7.333333333333333</ele><time>2026-04-04T15:07:05.013Z</time></trkpt><trkpt lat="45.27828462562803" lon="11.742431987213894"><ele>8.0</ele><time>2026-04-04T15:07:06.013Z</time></trkpt><trkpt lat="45.27836877866378" lon="11.74216426947997"><ele>8.0</ele><time>2026-04-04T15:07:07.013Z</time></trkpt><trkpt lat="45.27846986384418" lon="11.741915871215998"><ele>8.0</ele><time>2026-04-04T15:07:08.013Z</time></trkpt><trkpt lat="45.27857714817692" lon="11.741683666840617"><ele>8.0</ele><time>2026-04-04T15:07:09.013Z</time></trkpt><trkpt lat="45.2787051940929" lon="11.741437726860545"><ele>7.666666666666666</ele><time>2026-04-04T15:07:10.013Z</time></trkpt><trkpt lat="45.27883064026966" lon="11.741254413337408"><ele>7.333333333333334</ele><time>2026-04-04T15:07:11.013Z</time></trkpt><trkpt lat="45.27892400323512" lon="11.741072692262376"><ele>7.0</ele><time>2026-04-04T15:07:12.013Z</time></trkpt><trkpt lat="45.27900913159589" lon="11.740900531967155"><ele>7.5</ele><time>2026-04-04T15:07:13.013Z</time></trkpt><trkpt lat="45.27909567995479" lon="11.740729375944944"><ele>8.0</ele><time>2026-04-04T15:07:14.013Z</time></trkpt><trkpt lat="45.27917958438772" lon="11.740559148655505"><ele>8.5</ele><time>2026-04-04T15:07:15.013Z</time></trkpt><trkpt lat="45.279256685309036" lon="11.740398977128718"><ele>9.0</ele><time>2026-04-04T15:07:16.013Z</time></trkpt><trkpt lat="45.27932648879027" lon="11.740255733643115"><ele>9.25</ele><time>2026-04-04T15:07:17.013Z</time></trkpt><trkpt lat="45.279391112873924" lon="11.740119716448334"><ele>9.5</ele><time>2026-04-04T15:07:18.013Z</time></trkpt><trkpt lat="45.279460205802174" lon="11.739990569811017"><ele>9.75</ele><time>2026-04-04T15:07:19.013Z</time></trkpt><trkpt lat="45.27953575626376" lon="11.739852065078486"><ele>10.0</ele><time>2026-04-04T15:07:20.013Z</time></trkpt><trkpt lat="45.27962648089566" lon="11.739713934791522"><ele>10.0</ele><time>2026-04-04T15:07:21.013Z</time></trkpt><trkpt lat="45.27973923310437" lon="11.73962569676561"><ele>10.0</ele><time>2026-04-04T15:07:22.013Z</time></trkpt><trkpt lat="45.27986839150404" lon="11.73956577674603"><ele>10.0</ele><time>2026-04-04T15:07:23.013Z</time></trkpt><trkpt lat="45.27999986335987" lon="11.739520737121383"><ele>10.0</ele><time>2026-04-04T15:07:24.013Z</time></trkpt><trkpt lat="45.280135446790176" lon="11.739506713657965"><ele>11.0</ele><time>2026-04-04T15:07:25.013Z</time></trkpt><trkpt lat="45.28026153745618" lon="11.739525716332622"><ele>12.0</ele><time>2026-04-04T15:07:26.013Z</time></trkpt><trkpt lat="45.28038884172395" lon="11.739570521380722"><ele>13.0</ele><time>2026-04-04T15:07:27.013Z</time></trkpt><trkpt lat="45.280504625300416" lon="11.73965078503807"><ele>14.0</ele><time>2026-04-04T15:07:28.013Z</time></trkpt><trkpt lat="45.280628468802945" lon="11.739735887795709"><ele>16.2</ele><time>2026-04-04T15:07:29.013Z</time></trkpt><trkpt lat="45.28071287277382" lon="11.739876543891441"><ele>18.4</ele><time>2026-04-04T15:07:30.013Z</time></trkpt><trkpt lat="45.28079980763869" lon="11.739978426729794"><ele>20.6</ele><time>2026-04-04T15:07:31.013Z</time></trkpt><trkpt lat="45.280888749420846" lon="11.740034756215136"><ele>22.8</ele><time>2026-04-04T15:07:32.013Z</time></trkpt><trkpt lat="45.280974606986526" lon="11.740066836092339"><ele>25.0</ele><time>2026-04-04T15:07:33.013Z</time></trkpt><trkpt lat="45.28106559994765" lon="11.74006204566012"><ele>25.0</ele><time>2026-04-04T15:07:34.013Z</time></trkpt><trkpt lat="45.281167537775694" lon="11.740020862236854"><ele>25.0</ele><time>2026-04-04T15:07:35.013Z</time></trkpt><trkpt lat="45.281275903599955" lon="11.739942366357482"><ele>25.0</ele><time>2026-04-04T15:07:36.013Z</time></trkpt><trkpt lat="45.28139923045233" lon="11.739879417217654"><ele>25.0</ele><time>2026-04-04T15:07:37.013Z</time></trkpt><trkpt lat="45.281517477187855" lon="11.739792730773393"><ele>22.666666666666668</ele><time>2026-04-04T15:07:38.013Z</time></trkpt><trkpt lat="45.28163673039622" lon="11.739699642016337"><ele>20.333333333333336</ele><time>2026-04-04T15:07:39.013Z</time></trkpt><trkpt lat="45.28176679092544" lon="11.739587931839745"><ele>18.0</ele><time>2026-04-04T15:07:40.013Z</time></trkpt><trkpt lat="45.28190336552699" lon="11.739462938142639"><ele>19.0</ele><time>2026-04-04T15:07:41.013Z</time></trkpt><trkpt lat="45.28204161705504" lon="11.739342940839133"><ele>20.0</ele><time>2026-04-04T15:07:42.013Z</time></trkpt><trkpt lat="45.282186313214524" lon="11.739237722365585"><ele>21.0</ele><time>2026-04-04T15:07:43.013Z</time></trkpt><trkpt lat="45.282326239124345" lon="11.739138645745552"><ele>21.0</ele><time>2026-04-04T15:07:44.013Z</time></trkpt><trkpt lat="45.282464858682125" lon="11.739055640216833"><ele>21.0</ele><time>2026-04-04T15:07:45.013Z</time></trkpt><trkpt lat="45.2826052696015" lon="11.73896500171811"><ele>21.0</ele><time>2026-04-04T15:07:46.013Z</time></trkpt><trkpt lat="45.28276174178119" lon="11.73887937741717"><ele>21.0</ele><time>2026-04-04T15:07:47.013Z</time></trkpt><trkpt lat="45.28294320295255" lon="11.738783403247036"><ele>21.0</ele><time>2026-04-04T15:07:48.013Z</time></trkpt><trkpt lat="45.2831421244055" lon="11.738697222761978"><ele>21.0</ele><time>2026-04-04T15:07:49.013Z</time></trkpt><trkpt lat="45.283341972827024" lon="11.738629414393344"><ele>24.333333333333336</ele><time>2026-04-04T15:07:50.013Z</time></trkpt><trkpt lat="45.28353944054301" lon="11.73854778334764"><ele>27.666666666666668</ele><time>2026-04-04T15:07:51.013Z</time></trkpt><trkpt lat="45.28372544685578" lon="11.738526524532302"><ele>31.0</ele><time>2026-04-04T15:07:52.013Z</time></trkpt><trkpt lat="45.28388120446122" lon="11.738478732487724"><ele>31.0</ele><time>2026-04-04T15:07:53.013Z</time></trkpt><trkpt lat="45.284031407107875" lon="11.738388263171327"><ele>31.0</ele><time>2026-04-04T15:07:54.013Z</time></trkpt><trkpt lat="45.284168119990646" lon="11.738285543719664"><ele>31.0</ele><time>2026-04-04T15:07:55.013Z</time></trkpt><trkpt lat="45.284282066172146" lon="11.73818279461013"><ele>31.0</ele><time>2026-04-04T15:07:56.013Z</time></trkpt><trkpt lat="45.2843826103455" lon="11.738071676595865"><ele>31.0</ele><time>2026-04-04T15:07:57.013Z</time></trkpt><trkpt lat="45.28447308468149" lon="11.737938878866887"><ele>31.0</ele><time>2026-04-04T15:07:58.013Z</time></trkpt><trkpt lat="45.28454098300779" lon="11.73777271223595"><ele>31.0</ele><time>2026-04-04T15:07:59.013Z</time></trkpt><trkpt lat="45.28458018275463" lon="11.737570692525855"><ele>32.0</ele><time>2026-04-04T15:08:00.013Z</time></trkpt><trkpt lat="45.28458392302646" lon="11.73732571321675"><ele>33.0</ele><time>2026-04-04T15:08:01.013Z</time></trkpt><trkpt lat="45.284563230614246" lon="11.737061421390356"><ele>34.0</ele><time>2026-04-04T15:08:02.013Z</time></trkpt><trkpt lat="45.28451080327001" lon="11.736787509333585"><ele>31.666666666666668</ele><time>2026-04-04T15:08:03.013Z</time></trkpt><trkpt lat="45.28445007357977" lon="11.736530293561461"><ele>29.333333333333336</ele><time>2026-04-04T15:08:04.013Z</time></trkpt><trkpt lat="45.28438506904197" lon="11.73627457429473"><ele>27.0</ele><time>2026-04-04T15:08:05.013Z</time></trkpt><trkpt lat="45.28435013029614" lon="11.736034565544664"><ele>24.333333333333332</ele><time>2026-04-04T15:08:06.013Z</time></trkpt><trkpt lat="45.28435694603163" lon="11.735786300317125"><ele>21.666666666666664</ele><time>2026-04-04T15:08:07.013Z</time></trkpt><trkpt lat="45.28438586010247" lon="11.735531691078483"><ele>19.0</ele><time>2026-04-04T15:08:08.013Z</time></trkpt><trkpt lat="45.2844472181782" lon="11.73526901938773"><ele>19.666666666666664</ele><time>2026-04-04T15:08:09.013Z</time></trkpt><trkpt lat="45.28451548134042" lon="11.734996735891787"><ele>20.333333333333332</ele><time>2026-04-04T15:08:10.013Z</time></trkpt><trkpt lat="45.28458659400604" lon="11.734726291997681"><ele>21.0</ele><time>2026-04-04T15:08:11.013Z</time></trkpt><trkpt lat="45.2846662070347" lon="11.7344902640181"><ele>22.25</ele><time>2026-04-04T15:08:12.013Z</time></trkpt><trkpt lat="45.28474576872576" lon="11.734316583557108"><ele>23.5</ele><time>2026-04-04T15:08:13.013Z</time></trkpt><trkpt lat="45.28481542511067" lon="11.73416464439432"><ele>24.75</ele><time>2026-04-04T15:08:14.013Z</time></trkpt><trkpt lat="45.28491050219354" lon="11.73405692097682"><ele>26.0</ele><time>2026-04-04T15:08:15.013Z</time></trkpt><trkpt lat="45.28502014708415" lon="11.733954101841986"><ele>23.0</ele><time>2026-04-04T15:08:16.013Z</time></trkpt><trkpt lat="45.28515397626151" lon="11.733872646334737"><ele>20.0</ele><time>2026-04-04T15:08:17.013Z</time></trkpt><trkpt lat="45.28529182670396" lon="11.733808766076157"><ele>17.0</ele><time>2026-04-04T15:08:18.013Z</time></trkpt><trkpt lat="45.285436854390895" lon="11.733770830467828"><ele>14.0</ele><time>2026-04-04T15:08:19.013Z</time></trkpt><trkpt lat="45.28558348597648" lon="11.733759250689621"><ele>14.0</ele><time>2026-04-04T15:08:20.013Z</time></trkpt><trkpt lat="45.28573721173392" lon="11.733767054260142"><ele>14.0</ele><time>2026-04-04T15:08:21.013Z</time></trkpt><trkpt lat="45.285895870477994" lon="11.733774181913647"><ele>14.0</ele><time>2026-04-04T15:08:22.013Z</time></trkpt><trkpt lat="45.28606562292762" lon="11.73378144862482"><ele>14.0</ele><time>2026-04-04T15:08:23.013Z</time></trkpt><trkpt lat="45.28624355613729" lon="11.733790289856929"><ele>14.0</ele><time>2026-04-04T15:08:24.013Z</time></trkpt><trkpt lat="45.286425071145594" lon="11.733800298304804"><ele>14.0</ele><time>2026-04-04T15:08:25.013Z</time></trkpt><trkpt lat="45.28660354403092" lon="11.733808246115082"><ele>13.666666666666668</ele><time>2026-04-04T15:08:26.013Z</time></trkpt><trkpt lat="45.286781202927095" lon="11.733814155900765"><ele>13.333333333333332</ele><time>2026-04-04T15:08:27.013Z</time></trkpt><trkpt lat="45.28695299120683" lon="11.733820798539396"><ele>13.0</ele><time>2026-04-04T15:08:28.013Z</time></trkpt><trkpt lat="45.28711472210579" lon="11.733830284674752"><ele>13.0</ele><time>2026-04-04T15:08:29.013Z</time></trkpt><trkpt lat="45.287262058051525" lon="11.733835868411804"><ele>13.0</ele><time>2026-04-04T15:08:30.013Z</time></trkpt><trkpt lat="45.287403604876694" lon="11.733844617531485"><ele>13.0</ele><time>2026-04-04T15:08:31.013Z</time></trkpt><trkpt lat="45.28754224766677" lon="11.733852762378556"><ele>13.0</ele><time>2026-04-04T15:08:32.013Z</time></trkpt><trkpt lat="45.28767805708262" lon="11.733865697481479"><ele>13.0</ele><time>2026-04-04T15:08:33.013Z</time></trkpt><trkpt lat="45.287818181143564" lon="11.733887937712009"><ele>13.0</ele><time>2026-04-04T15:08:34.013Z</time></trkpt><trkpt lat="45.287961137638064" lon="11.733911611891735"><ele>13.0</ele><time>2026-04-04T15:08:35.013Z</time></trkpt><trkpt lat="45.288088892848855" lon="11.733922166095558"><ele>13.0</ele><time>2026-04-04T15:08:36.013Z</time></trkpt><trkpt lat="45.288206910645414" lon="11.733938320145556"><ele>13.75</ele><time>2026-04-04T15:08:37.013Z</time></trkpt><trkpt lat="45.288310942537976" lon="11.733964838753804"><ele>14.5</ele><time>2026-04-04T15:08:38.013Z</time></trkpt><trkpt lat="45.28840195849807" lon="11.73403070711092"><ele>15.25</ele><time>2026-04-04T15:08:39.013Z</time></trkpt><trkpt lat="45.28849287516737" lon="11.734137536755501"><ele>16.0</ele><time>2026-04-04T15:08:40.013Z</time></trkpt><trkpt lat="45.28858176761191" lon="11.734273461163959"><ele>14.75</ele><time>2026-04-04T15:08:41.013Z</time></trkpt><trkpt lat="45.28868849925073" lon="11.734399467091146"><ele>13.5</ele><time>2026-04-04T15:08:42.013Z</time></trkpt><trkpt lat="45.288820261767306" lon="11.734497096142618"><ele>12.25</ele><time>2026-04-04T15:08:43.013Z</time></trkpt><trkpt lat="45.288956297553426" lon="11.73455814926709"><ele>11.0</ele><time>2026-04-04T15:08:44.013Z</time></trkpt><trkpt lat="45.289094734672204" lon="11.734575338259555"><ele>11.0</ele><time>2026-04-04T15:08:45.013Z</time></trkpt><trkpt lat="45.28923458348538" lon="11.734578285873823"><ele>11.0</ele><time>2026-04-04T15:08:46.013Z</time></trkpt><trkpt lat="45.28936384200049" lon="11.734563517709118"><ele>11.0</ele><time>2026-04-04T15:08:47.013Z</time></trkpt><trkpt lat="45.2894800827718" lon="11.734516253395274"><ele>11.0</ele><time>2026-04-04T15:08:48.013Z</time></trkpt><trkpt lat="45.289573176742465" lon="11.734424296978496"><ele>10.5</ele><time>2026-04-04T15:08:49.013Z</time></trkpt><trkpt lat="45.28965246735867" lon="11.734294586621191"><ele>10.0</ele><time>2026-04-04T15:08:50.013Z</time></trkpt><trkpt lat="45.28971778372101" lon="11.734120718669907"><ele>9.5</ele><time>2026-04-04T15:08:51.013Z</time></trkpt><trkpt lat="45.28979508273734" lon="11.733931574400113"><ele>9.0</ele><time>2026-04-04T15:08:52.013Z</time></trkpt><trkpt lat="45.28987129645578" lon="11.733697570667964"><ele>11.333333333333332</ele><time>2026-04-04T15:08:53.013Z</time></trkpt><trkpt lat="45.28994534899221" lon="11.733441448334366"><ele>13.666666666666666</ele><time>2026-04-04T15:08:54.013Z</time></trkpt><trkpt lat="45.290022000429616" lon="11.733171660974065"><ele>16.0</ele><time>2026-04-04T15:08:55.014Z</time></trkpt><trkpt lat="45.29008886264316" lon="11.732895509005564"><ele>18.0</ele><time>2026-04-04T15:08:56.014Z</time></trkpt><trkpt lat="45.29015295874043" lon="11.732625459771308"><ele>20.0</ele><time>2026-04-04T15:08:57.014Z</time></trkpt><trkpt lat="45.29020838515949" lon="11.732383412683976"><ele>22.0</ele><time>2026-04-04T15:08:58.014Z</time></trkpt><trkpt lat="45.29025500126427" lon="11.732163336179337"><ele>22.0</ele><time>2026-04-04T15:08:59.014Z</time></trkpt><trkpt lat="45.29029736792211" lon="11.731957499794124"><ele>22.0</ele><time>2026-04-04T15:09:00.014Z</time></trkpt><trkpt lat="45.290345216260555" lon="11.731744318848131"><ele>22.0</ele><time>2026-04-04T15:09:01.014Z</time></trkpt><trkpt lat="45.29038715213002" lon="11.731532328308253"><ele>24.666666666666664</ele><time>2026-04-04T15:09:02.014Z</time></trkpt><trkpt lat="45.290415224487745" lon="11.731307150090931"><ele>27.333333333333332</ele><time>2026-04-04T15:09:03.014Z</time></trkpt><trkpt lat="45.290436580304664" lon="11.73107451314841"><ele>30.0</ele><time>2026-04-04T15:09:04.014Z</time></trkpt><trkpt lat="45.29045384203969" lon="11.730844251941235"><ele>31.0</ele><time>2026-04-04T15:09:05.014Z</time></trkpt><trkpt lat="45.29046777539514" lon="11.730617597569875"><ele>32.0</ele><time>2026-04-04T15:09:06.014Z</time></trkpt><trkpt lat="45.290484589697776" lon="11.730397002565171"><ele>33.0</ele><time>2026-04-04T15:09:07.013Z</time></trkpt><trkpt lat="45.29051304239612" lon="11.73019369588148"><ele>33.0</ele><time>2026-04-04T15:09:08.014Z</time></trkpt><trkpt lat="45.29055619944625" lon="11.730002529936682"><ele>33.0</ele><time>2026-04-04T15:09:09.014Z</time></trkpt><trkpt lat="45.29060600966789" lon="11.729831538951094"><ele>33.0</ele><time>2026-04-04T15:09:10.014Z</time></trkpt><trkpt lat="45.29066586761872" lon="11.729660967253064"><ele>33.0</ele><time>2026-04-04T15:09:11.014Z</time></trkpt><trkpt lat="45.29073392641832" lon="11.72947943436795"><ele>28.75</ele><time>2026-04-04T15:09:12.014Z</time></trkpt><trkpt lat="45.290831725649994" lon="11.729307949570577"><ele>24.5</ele><time>2026-04-04T15:09:13.014Z</time></trkpt><trkpt lat="45.29090976955565" lon="11.729135244884977"><ele>20.25</ele><time>2026-04-04T15:09:14.014Z</time></trkpt><trkpt lat="45.290984661891045" lon="11.72899202369767"><ele>16.0</ele><time>2026-04-04T15:09:15.014Z</time></trkpt><trkpt lat="45.29106136560202" lon="11.728864220281539"><ele>16.0</ele><time>2026-04-04T15:09:16.014Z</time></trkpt><trkpt lat="45.29114074142449" lon="11.728735490179659"><ele>16.0</ele><time>2026-04-04T15:09:17.014Z</time></trkpt><trkpt lat="45.291242268689075" lon="11.728655502527044"><ele>16.0</ele><time>2026-04-04T15:09:18.014Z</time></trkpt><trkpt lat="45.29133770982708" lon="11.728596449197179"><ele>16.0</ele><time>2026-04-04T15:09:19.014Z</time></trkpt><trkpt lat="45.2914362539181" lon="11.728556946571057"><ele>16.0</ele><time>2026-04-04T15:09:20.014Z</time></trkpt><trkpt lat="45.291535186424994" lon="11.728526255276623"><ele>16.333333333333332</ele><time>2026-04-04T15:09:21.014Z</time></trkpt><trkpt lat="45.291637461731014" lon="11.728509588942769"><ele>16.666666666666664</ele><time>2026-04-04T15:09:22.014Z</time></trkpt><trkpt lat="45.29173056057375" lon="11.728503759440198"><ele>17.0</ele><time>2026-04-04T15:09:23.014Z</time></trkpt><trkpt lat="45.291810991433586" lon="11.728511654637575"><ele>17.333333333333332</ele><time>2026-04-04T15:09:24.014Z</time></trkpt><trkpt lat="45.29189093135809" lon="11.72853033003795"><ele>17.666666666666668</ele><time>2026-04-04T15:09:25.014Z</time></trkpt><trkpt lat="45.29196341338406" lon="11.728592590954165"><ele>18.0</ele><time>2026-04-04T15:09:26.014Z</time></trkpt><trkpt lat="45.29204815924286" lon="11.72862778214289"><ele>17.2</ele><time>2026-04-04T15:09:27.014Z</time></trkpt><trkpt lat="45.29214222350425" lon="11.728668711412809"><ele>16.4</ele><time>2026-04-04T15:09:28.014Z</time></trkpt><trkpt lat="45.29223833395082" lon="11.728712329187372"><ele>15.599999999999998</ele><time>2026-04-04T15:09:29.014Z</time></trkpt><trkpt lat="45.29233452821801" lon="11.728760524487297"><ele>14.799999999999999</ele><time>2026-04-04T15:09:30.014Z</time></trkpt><trkpt lat="45.29243026682077" lon="11.728809414229557"><ele>14.0</ele><time>2026-04-04T15:09:31.014Z</time></trkpt><trkpt lat="45.29252218176301" lon="11.728860674340233"><ele>14.0</ele><time>2026-04-04T15:09:32.014Z</time></trkpt><trkpt lat="45.292733516571225" lon="11.728961082967846"><ele>14.0</ele><time>2026-04-04T15:09:34.014Z</time></trkpt><trkpt lat="45.29284636241517" lon="11.729010992641133"><ele>14.0</ele><time>2026-04-04T15:09:35.014Z</time></trkpt><trkpt lat="45.29294224234386" lon="11.729100168682171"><ele>14.0</ele><time>2026-04-04T15:09:36.014Z</time></trkpt><trkpt lat="45.29304364211787" lon="11.729151000619696"><ele>13.999999999999998</ele><time>2026-04-04T15:09:37.014Z</time></trkpt><trkpt lat="45.29313901550969" lon="11.729205187470976"><ele>13.999999999999998</ele><time>2026-04-04T15:09:38.014Z</time></trkpt><trkpt lat="45.29324163337327" lon="11.729246662233022"><ele>14.0</ele><time>2026-04-04T15:09:39.014Z</time></trkpt><trkpt lat="45.29335104818395" lon="11.729296180038514"><ele>14.0</ele><time>2026-04-04T15:09:40.014Z</time></trkpt><trkpt lat="45.29345939147008" lon="11.729340978336822"><ele>14.2</ele><time>2026-04-04T15:09:41.014Z</time></trkpt><trkpt lat="45.293563537534716" lon="11.729374905465795"><ele>14.399999999999999</ele><time>2026-04-04T15:09:42.014Z</time></trkpt><trkpt lat="45.293663554232516" lon="11.7294009883708"><ele>14.6</ele><time>2026-04-04T15:09:43.014Z</time></trkpt><trkpt lat="45.29376591565143" lon="11.729426950141908"><ele>14.8</ele><time>2026-04-04T15:09:44.014Z</time></trkpt><trkpt lat="45.29385345538225" lon="11.729451573677734"><ele>15.0</ele><time>2026-04-04T15:09:45.014Z</time></trkpt><trkpt lat="45.29395360329345" lon="11.729471899265414"><ele>15.75</ele><time>2026-04-04T15:09:46.014Z</time></trkpt><trkpt lat="45.29406311026604" lon="11.729488168247155"><ele>16.5</ele><time>2026-04-04T15:09:47.014Z</time></trkpt><trkpt lat="45.29417035621585" lon="11.729545995971643"><ele>17.25</ele><time>2026-04-04T15:09:48.014Z</time></trkpt><trkpt lat="45.29429597097131" lon="11.729561916918147"><ele>18.0</ele><time>2026-04-04T15:09:49.014Z</time></trkpt><trkpt lat="45.29442080527207" lon="11.729590231341787"><ele>18.0</ele><time>2026-04-04T15:09:50.014Z</time></trkpt><trkpt lat="45.29454705836597" lon="11.729654192505123"><ele>18.0</ele><time>2026-04-04T15:09:51.014Z</time></trkpt><trkpt lat="45.29466629370466" lon="11.729750617655906"><ele>18.0</ele><time>2026-04-04T15:09:52.014Z</time></trkpt><trkpt lat="45.29476722978138" lon="11.72984222395236"><ele>18.0</ele><time>2026-04-04T15:09:53.014Z</time></trkpt><trkpt lat="45.294850828159255" lon="11.729949327750269"><ele>18.8</ele><time>2026-04-04T15:09:54.014Z</time></trkpt><trkpt lat="45.29493060358867" lon="11.730067076193544"><ele>19.6</ele><time>2026-04-04T15:09:55.014Z</time></trkpt><trkpt lat="45.295008205181986" lon="11.73019402242967"><ele>20.400000000000002</ele><time>2026-04-04T15:09:56.014Z</time></trkpt><trkpt lat="45.295064167499206" lon="11.730325096272638"><ele>21.200000000000003</ele><time>2026-04-04T15:09:57.014Z</time></trkpt><trkpt lat="45.2951087556553" lon="11.730449749315015"><ele>22.0</ele><time>2026-04-04T15:09:58.014Z</time></trkpt><trkpt lat="45.29515998266927" lon="11.730588352095076"><ele>22.0</ele><time>2026-04-04T15:09:59.014Z</time></trkpt><trkpt lat="45.29519530006785" lon="11.73074371325245"><ele>22.0</ele><time>2026-04-04T15:10:00.014Z</time></trkpt><trkpt lat="45.2952319163923" lon="11.73090011136985"><ele>22.0</ele><time>2026-04-04T15:10:01.014Z</time></trkpt><trkpt lat="45.295269610246436" lon="11.73105131458092"><ele>22.0</ele><time>2026-04-04T15:10:02.014Z</time></trkpt><trkpt lat="45.29530597627043" lon="11.73120933798685"><ele>21.75</ele><time>2026-04-04T15:10:03.014Z</time></trkpt><trkpt lat="45.29533304730154" lon="11.731360725338048"><ele>21.5</ele><time>2026-04-04T15:10:04.014Z</time></trkpt><trkpt lat="45.29535290170608" lon="11.73152495090073"><ele>21.25</ele><time>2026-04-04T15:10:05.014Z</time></trkpt><trkpt lat="45.29536981976944" lon="11.731685891982758"><ele>21.0</ele><time>2026-04-04T15:10:06.014Z</time></trkpt><trkpt lat="45.29538268671808" lon="11.731855597757823"><ele>20.0</ele><time>2026-04-04T15:10:07.013Z</time></trkpt><trkpt lat="45.29538952326835" lon="11.732047967810715"><ele>19.0</ele><time>2026-04-04T15:10:08.013Z</time></trkpt><trkpt lat="45.295396795760304" lon="11.732272130332221"><ele>18.0</ele><time>2026-04-04T15:10:09.013Z</time></trkpt><trkpt lat="45.29537401281307" lon="11.732549206478947"><ele>18.0</ele><time>2026-04-04T15:10:10.013Z</time></trkpt><trkpt lat="45.29536215781009" lon="11.732847004124"><ele>18.0</ele><time>2026-04-04T15:10:11.013Z</time></trkpt><trkpt lat="45.295350622791695" lon="11.733136763810014"><ele>18.0</ele><time>2026-04-04T15:10:12.013Z</time></trkpt><trkpt lat="45.29534113296348" lon="11.733444085719166"><ele>16.666666666666668</ele><time>2026-04-04T15:10:13.013Z</time></trkpt><trkpt lat="45.295340446055505" lon="11.733744000234031"><ele>15.333333333333334</ele><time>2026-04-04T15:10:14.013Z</time></trkpt><trkpt lat="45.29536201281452" lon="11.73403397739991"><ele>14.0</ele><time>2026-04-04T15:10:15.013Z</time></trkpt><trkpt lat="45.295388283916076" lon="11.734345094005086"><ele>12.5</ele><time>2026-04-04T15:10:16.013Z</time></trkpt><trkpt lat="45.29541361339899" lon="11.734658210790887"><ele>11.0</ele><time>2026-04-04T15:10:17.013Z</time></trkpt><trkpt lat="45.295439777899105" lon="11.734981649868676"><ele>11.333333333333332</ele><time>2026-04-04T15:10:18.013Z</time></trkpt><trkpt lat="45.295464615369404" lon="11.735288933827043"><ele>11.666666666666666</ele><time>2026-04-04T15:10:19.013Z</time></trkpt><trkpt lat="45.2954868060168" lon="11.735564511945256"><ele>12.0</ele><time>2026-04-04T15:10:20.013Z</time></trkpt><trkpt lat="45.29550998197955" lon="11.735792680551151"><ele>12.0</ele><time>2026-04-04T15:10:21.013Z</time></trkpt><trkpt lat="45.295552880637246" lon="11.735987705857477"><ele>12.0</ele><time>2026-04-04T15:10:22.013Z</time></trkpt><trkpt lat="45.29559721146127" lon="11.736173282506753"><ele>12.0</ele><time>2026-04-04T15:10:23.013Z</time></trkpt><trkpt lat="45.29568115905531" lon="11.736348318190084"><ele>12.0</ele><time>2026-04-04T15:10:24.013Z</time></trkpt><trkpt lat="45.29580459284901" lon="11.73650267290475"><ele>11.0</ele><time>2026-04-04T15:10:25.013Z</time></trkpt><trkpt lat="45.29595403544934" lon="11.736652672785258"><ele>10.0</ele><time>2026-04-04T15:10:26.013Z</time></trkpt><trkpt lat="45.296108551886746" lon="11.736816244432653"><ele>9.0</ele><time>2026-04-04T15:10:27.013Z</time></trkpt><trkpt lat="45.29626765352074" lon="11.736974904487647"><ele>9.0</ele><time>2026-04-04T15:10:28.013Z</time></trkpt><trkpt lat="45.29641462859191" lon="11.73713514588608"><ele>9.0</ele><time>2026-04-04T15:10:29.013Z</time></trkpt><trkpt lat="45.296561219114125" lon="11.737290773063027"><ele>9.0</ele><time>2026-04-04T15:10:30.013Z</time></trkpt><trkpt lat="45.296693518487686" lon="11.73743358484735"><ele>10.666666666666668</ele><time>2026-04-04T15:10:31.013Z</time></trkpt><trkpt lat="45.29682847497085" lon="11.737576634638057"><ele>12.333333333333334</ele><time>2026-04-04T15:10:32.013Z</time></trkpt><trkpt lat="45.296971841259186" lon="11.737699152700786"><ele>14.0</ele><time>2026-04-04T15:10:33.013Z</time></trkpt><trkpt lat="45.297109709731" lon="11.737777455083235"><ele>15.0</ele><time>2026-04-04T15:10:34.013Z</time></trkpt><trkpt lat="45.297252794231746" lon="11.737808515363305"><ele>16.0</ele><time>2026-04-04T15:10:35.013Z</time></trkpt><trkpt lat="45.29739828371113" lon="11.737781120637768"><ele>17.0</ele><time>2026-04-04T15:10:36.013Z</time></trkpt><trkpt lat="45.29755038290466" lon="11.737709658591136"><ele>17.0</ele><time>2026-04-04T15:10:37.013Z</time></trkpt><trkpt lat="45.29772917518724" lon="11.7376105470643"><ele>17.0</ele><time>2026-04-04T15:10:38.013Z</time></trkpt><trkpt lat="45.29792836860687" lon="11.737498452289085"><ele>17.0</ele><time>2026-04-04T15:10:39.013Z</time></trkpt><trkpt lat="45.29811786985704" lon="11.73738980770872"><ele>14.333333333333334</ele><time>2026-04-04T15:10:40.013Z</time></trkpt><trkpt lat="45.298301521454746" lon="11.737293698011287"><ele>11.666666666666668</ele><time>2026-04-04T15:10:41.013Z</time></trkpt><trkpt lat="45.29847649734406" lon="11.737202741539852"><ele>9.0</ele><time>2026-04-04T15:10:42.013Z</time></trkpt><trkpt lat="45.29862627232615" lon="11.737116780328405"><ele>9.0</ele><time>2026-04-04T15:10:43.013Z</time></trkpt><trkpt lat="45.29875226687275" lon="11.737024661101742"><ele>9.0</ele><time>2026-04-04T15:10:44.013Z</time></trkpt><trkpt lat="45.298867079691206" lon="11.736912531975051"><ele>9.0</ele><time>2026-04-04T15:10:45.013Z</time></trkpt><trkpt lat="45.29896046269775" lon="11.73674138271475"><ele>9.0</ele><time>2026-04-04T15:10:46.013Z</time></trkpt><trkpt lat="45.29903158096384" lon="11.7365257054989"><ele>10.666666666666668</ele><time>2026-04-04T15:10:47.013Z</time></trkpt><trkpt lat="45.2990888979" lon="11.7362972203621"><ele>12.333333333333334</ele><time>2026-04-04T15:10:48.013Z</time></trkpt><trkpt lat="45.29916444882569" lon="11.736056479781087"><ele>14.0</ele><time>2026-04-04T15:10:49.013Z</time></trkpt><trkpt lat="45.29927471736346" lon="11.73584605207917"><ele>15.666666666666668</ele><time>2026-04-04T15:10:50.013Z</time></trkpt><trkpt lat="45.299408290986264" lon="11.735648607233664"><ele>17.333333333333332</ele><time>2026-04-04T15:10:51.013Z</time></trkpt><trkpt lat="45.299530518157766" lon="11.735463873569266"><ele>19.0</ele><time>2026-04-04T15:10:52.013Z</time></trkpt><trkpt lat="45.29965751329707" lon="11.735313916613624"><ele>17.0</ele><time>2026-04-04T15:10:53.013Z</time></trkpt><trkpt lat="45.29979392434796" lon="11.73519950139615"><ele>15.0</ele><time>2026-04-04T15:10:54.013Z</time></trkpt><trkpt lat="45.299940857445215" lon="11.735133116280705"><ele>13.0</ele><time>2026-04-04T15:10:55.013Z</time></trkpt><trkpt lat="45.30011116293577" lon="11.735093327248684"><ele>13.0</ele><time>2026-04-04T15:10:56.013Z</time></trkpt><trkpt lat="45.300289267570015" lon="11.73507438752172"><ele>13.0</ele><time>2026-04-04T15:10:57.013Z</time></trkpt><trkpt lat="45.300462857235665" lon="11.735077536084896"><ele>13.0</ele><time>2026-04-04T15:10:58.013Z</time></trkpt><trkpt lat="45.30062888650407" lon="11.735100832747694"><ele>12.0</ele><time>2026-04-04T15:10:59.013Z</time></trkpt><trkpt lat="45.30078945314707" lon="11.735155473175164"><ele>11.0</ele><time>2026-04-04T15:11:00.013Z</time></trkpt><trkpt lat="45.30093565389053" lon="11.735233330009855"><ele>10.0</ele><time>2026-04-04T15:11:01.014Z</time></trkpt><trkpt lat="45.30107075055408" lon="11.735352380860434"><ele>10.0</ele><time>2026-04-04T15:11:02.014Z</time></trkpt><trkpt lat="45.30117946294417" lon="11.73549250298527"><ele>10.0</ele><time>2026-04-04T15:11:03.014Z</time></trkpt><trkpt lat="45.301278172922146" lon="11.735644999800282"><ele>10.0</ele><time>2026-04-04T15:11:04.015Z</time></trkpt><trkpt lat="45.30137628910973" lon="11.735801075277962"><ele>10.0</ele><time>2026-04-04T15:11:05.014Z</time></trkpt><trkpt lat="45.30148866156497" lon="11.735944926311937"><ele>9.333333333333334</ele><time>2026-04-04T15:11:06.014Z</time></trkpt><trkpt lat="45.3016252372287" lon="11.736048806466101"><ele>8.666666666666666</ele><time>2026-04-04T15:11:07.014Z</time></trkpt><trkpt lat="45.30177993242511" lon="11.736102493442894"><ele>8.0</ele><time>2026-04-04T15:11:08.014Z</time></trkpt><trkpt lat="45.30194806073618" lon="11.736114435034787"><ele>8.0</ele><time>2026-04-04T15:11:09.014Z</time></trkpt><trkpt lat="45.30212432571403" lon="11.736093144430367"><ele>8.0</ele><time>2026-04-04T15:11:10.014Z</time></trkpt><trkpt lat="45.30231375234004" lon="11.736051901074486"><ele>8.0</ele><time>2026-04-04T15:11:11.014Z</time></trkpt><trkpt lat="45.302483880205344" lon="11.736017231085839"><ele>10.0</ele><time>2026-04-04T15:11:12.014Z</time></trkpt><trkpt lat="45.302655639231034" lon="11.735959203628019"><ele>12.0</ele><time>2026-04-04T15:11:13.015Z</time></trkpt><trkpt lat="45.30281211243367" lon="11.735875754981693"><ele>14.0</ele><time>2026-04-04T15:11:14.015Z</time></trkpt><trkpt lat="45.30295689134013" lon="11.73576474653739"><ele>13.333333333333334</ele><time>2026-04-04T15:11:15.015Z</time></trkpt><trkpt lat="45.30309051821472" lon="11.73561488985776"><ele>12.666666666666668</ele><time>2026-04-04T15:11:16.015Z</time></trkpt><trkpt lat="45.30323426421538" lon="11.735478071107632"><ele>12.0</ele><time>2026-04-04T15:11:17.015Z</time></trkpt><trkpt lat="45.30339944413658" lon="11.735414576364937"><ele>12.0</ele><time>2026-04-04T15:11:18.015Z</time></trkpt><trkpt lat="45.30357744456382" lon="11.735356653814913"><ele>12.0</ele><time>2026-04-04T15:11:19.015Z</time></trkpt><trkpt lat="45.30376472782473" lon="11.735302773055638"><ele>12.0</ele><time>2026-04-04T15:11:20.015Z</time></trkpt><trkpt lat="45.30394244464106" lon="11.735249161673076"><ele>12.0</ele><time>2026-04-04T15:11:21.015Z</time></trkpt><trkpt lat="45.30410269178659" lon="11.735232717134005"><ele>12.0</ele><time>2026-04-04T15:11:22.015Z</time></trkpt><trkpt lat="45.30425861127624" lon="11.735251144622541"><ele>12.0</ele><time>2026-04-04T15:11:23.015Z</time></trkpt><trkpt lat="45.30441674630545" lon="11.735276467769003"><ele>12.0</ele><time>2026-04-04T15:11:24.015Z</time></trkpt><trkpt lat="45.30458698863797" lon="11.735259629171846"><ele>12.0</ele><time>2026-04-04T15:11:25.015Z</time></trkpt><trkpt lat="45.30476467473804" lon="11.735187264151678"><ele>12.0</ele><time>2026-04-04T15:11:26.015Z</time></trkpt><trkpt lat="45.30494074052767" lon="11.735096770326226"><ele>13.333333333333332</ele><time>2026-04-04T15:11:27.015Z</time></trkpt><trkpt lat="45.305096901884255" lon="11.735010618971263"><ele>14.666666666666666</ele><time>2026-04-04T15:11:28.015Z</time></trkpt><trkpt lat="45.305237745344854" lon="11.734935372754416"><ele>16.0</ele><time>2026-04-04T15:11:29.015Z</time></trkpt><trkpt lat="45.30536137929287" lon="11.734869378111402"><ele>16.0</ele><time>2026-04-04T15:11:30.015Z</time></trkpt><trkpt lat="45.30547978545825" lon="11.734806020603378"><ele>16.0</ele><time>2026-04-04T15:11:31.015Z</time></trkpt><trkpt lat="45.30560163052694" lon="11.734740754578958"><ele>16.0</ele><time>2026-04-04T15:11:32.015Z</time></trkpt><trkpt lat="45.305715846023865" lon="11.73465331131426"><ele>16.0</ele><time>2026-04-04T15:11:33.015Z</time></trkpt><trkpt lat="45.305831770936564" lon="11.73458169273187"><ele>16.2</ele><time>2026-04-04T15:11:34.015Z</time></trkpt><trkpt lat="45.30593553130734" lon="11.734483552373414"><ele>16.400000000000002</ele><time>2026-04-04T15:11:35.015Z</time></trkpt><trkpt lat="45.30602187175162" lon="11.734370209599122"><ele>16.6</ele><time>2026-04-04T15:11:36.015Z</time></trkpt><trkpt lat="45.30609283403293" lon="11.73428190425889"><ele>16.8</ele><time>2026-04-04T15:11:37.015Z</time></trkpt><trkpt lat="45.30616643028975" lon="11.73423540625692"><ele>17.0</ele><time>2026-04-04T15:11:38.015Z</time></trkpt><trkpt lat="45.306238645969906" lon="11.73422144205971"><ele>17.166666666666668</ele><time>2026-04-04T15:11:39.015Z</time></trkpt><trkpt lat="45.30630705350913" lon="11.734217505077403"><ele>17.333333333333336</ele><time>2026-04-04T15:11:40.015Z</time></trkpt><trkpt lat="45.30643364436166" lon="11.734240576452601"><ele>17.5</ele><time>2026-04-04T15:11:42.015Z</time></trkpt><trkpt lat="45.3064978918997" lon="11.734243324134477"><ele>17.666666666666668</ele><time>2026-04-04T15:11:43.015Z</time></trkpt><trkpt lat="45.30655683321711" lon="11.73420808070519"><ele>17.833333333333332</ele><time>2026-04-04T15:11:44.015Z</time></trkpt><trkpt lat="45.30661065508264" lon="11.734118475689765"><ele>18.0</ele><time>2026-04-04T15:11:45.015Z</time></trkpt><trkpt lat="45.306665256173865" lon="11.733988546145447"><ele>18.0</ele><time>2026-04-04T15:11:46.015Z</time></trkpt><trkpt lat="45.30671899123347" lon="11.733821630789986"><ele>18.0</ele><time>2026-04-04T15:11:47.015Z</time></trkpt><trkpt lat="45.306768543779235" lon="11.733644576837081"><ele>18.0</ele><time>2026-04-04T15:11:48.015Z</time></trkpt><trkpt lat="45.306821742061885" lon="11.733458038029358"><ele>18.0</ele><time>2026-04-04T15:11:49.015Z</time></trkpt><trkpt lat="45.30687624658735" lon="11.733269730826844"><ele>18.5</ele><time>2026-04-04T15:11:50.015Z</time></trkpt><trkpt lat="45.306919711976086" lon="11.733096141774183"><ele>19.0</ele><time>2026-04-04T15:11:51.015Z</time></trkpt><trkpt lat="45.30696033350519" lon="11.732930509598024"><ele>19.5</ele><time>2026-04-04T15:11:52.015Z</time></trkpt><trkpt lat="45.307021118133825" lon="11.732776350357188"><ele>20.0</ele><time>2026-04-04T15:11:53.015Z</time></trkpt><trkpt lat="45.30707575904992" lon="11.73261828657068"><ele>19.5</ele><time>2026-04-04T15:11:54.015Z</time></trkpt><trkpt lat="45.3071360619004" lon="11.732449052764604"><ele>19.0</ele><time>2026-04-04T15:11:55.015Z</time></trkpt><trkpt lat="45.30720148461481" lon="11.732276415408101"><ele>18.5</ele><time>2026-04-04T15:11:56.015Z</time></trkpt><trkpt lat="45.3072710940587" lon="11.732101200465987"><ele>18.0</ele><time>2026-04-04T15:11:57.015Z</time></trkpt><trkpt lat="45.30733422801109" lon="11.731938507376256"><ele>18.4</ele><time>2026-04-04T15:11:58.015Z</time></trkpt><trkpt lat="45.3073740328587" lon="11.731796359384404"><ele>18.8</ele><time>2026-04-04T15:11:59.015Z</time></trkpt><trkpt lat="45.30742047451569" lon="11.73168436592253"><ele>19.2</ele><time>2026-04-04T15:12:00.015Z</time></trkpt><trkpt lat="45.307457203817954" lon="11.731576688047175"><ele>19.6</ele><time>2026-04-04T15:12:01.015Z</time></trkpt><trkpt lat="45.307529986427575" lon="11.731484873065662"><ele>20.0</ele><time>2026-04-04T15:12:02.015Z</time></trkpt><trkpt lat="45.30756831796964" lon="11.731381487795543"><ele>20.0</ele><time>2026-04-04T15:12:03.015Z</time></trkpt><trkpt lat="45.30760146262423" lon="11.73128603586405"><ele>20.0</ele><time>2026-04-04T15:12:04.015Z</time></trkpt><trkpt lat="45.30763822712401" lon="11.731176645632292"><ele>20.0</ele><time>2026-04-04T15:12:05.015Z</time></trkpt><trkpt lat="45.30767780998292" lon="11.731042815643226"><ele>20.0</ele><time>2026-04-04T15:12:06.015Z</time></trkpt><trkpt lat="45.30772996666655" lon="11.730891099956207"><ele>20.0</ele><time>2026-04-04T15:12:07.015Z</time></trkpt><trkpt lat="45.307787901559806" lon="11.730731475892098"><ele>20.0</ele><time>2026-04-04T15:12:08.015Z</time></trkpt><trkpt lat="45.3078428870607" lon="11.730567945757134"><ele>20.0</ele><time>2026-04-04T15:12:09.015Z</time></trkpt><trkpt lat="45.30789325520487" lon="11.730398442985452"><ele>20.0</ele><time>2026-04-04T15:12:10.015Z</time></trkpt><trkpt lat="45.30794557285928" lon="11.730235566059585"><ele>20.0</ele><time>2026-04-04T15:12:11.015Z</time></trkpt><trkpt lat="45.307995212429255" lon="11.730072970503628"><ele>20.2</ele><time>2026-04-04T15:12:12.015Z</time></trkpt><trkpt lat="45.30804305416516" lon="11.729914661198148"><ele>20.4</ele><time>2026-04-04T15:12:13.015Z</time></trkpt><trkpt lat="45.30809008204491" lon="11.729777146205576"><ele>20.6</ele><time>2026-04-04T15:12:14.014Z</time></trkpt><trkpt lat="45.308126618407634" lon="11.729638837319012"><ele>20.8</ele><time>2026-04-04T15:12:15.014Z</time></trkpt><trkpt lat="45.308172012677765" lon="11.729502615003904"><ele>21.0</ele><time>2026-04-04T15:12:16.014Z</time></trkpt><trkpt lat="45.30821482168072" lon="11.72936611734366"><ele>21.4</ele><time>2026-04-04T15:12:17.014Z</time></trkpt><trkpt lat="45.308256547780005" lon="11.729234066810998"><ele>21.8</ele><time>2026-04-04T15:12:18.014Z</time></trkpt><trkpt lat="45.30832158378033" lon="11.729135643321065"><ele>22.2</ele><time>2026-04-04T15:12:19.014Z</time></trkpt><trkpt lat="45.308357337127134" lon="11.72902985653867"><ele>22.599999999999998</ele><time>2026-04-04T15:12:20.014Z</time></trkpt><trkpt lat="45.30838790502968" lon="11.728942488918218"><ele>23.0</ele><time>2026-04-04T15:12:21.014Z</time></trkpt><trkpt lat="45.30843898305112" lon="11.728806597291388"><ele>23.0</ele><time>2026-04-04T15:12:23.014Z</time></trkpt><trkpt lat="45.30846910801429" lon="11.728715422276908"><ele>23.0</ele><time>2026-04-04T15:12:25.014Z</time></trkpt><trkpt lat="45.30852499147499" lon="11.728630318227106"><ele>23.0</ele><time>2026-04-04T15:12:27.014Z</time></trkpt><trkpt lat="45.308639405999706" lon="11.72861999608273"><ele>23.0</ele><time>2026-04-04T15:12:29.014Z</time></trkpt><trkpt lat="45.30873825427809" lon="11.72870375595163"><ele>23.0</ele><time>2026-04-04T15:12:31.014Z</time></trkpt><trkpt lat="45.30879222846125" lon="11.728771148434115"><ele>23.0</ele><time>2026-04-04T15:12:32.014Z</time></trkpt><trkpt lat="45.30885957714157" lon="11.72885677390567"><ele>23.0</ele><time>2026-04-04T15:12:33.014Z</time></trkpt><trkpt lat="45.308937469115286" lon="11.728938723581399"><ele>23.0</ele><time>2026-04-04T15:12:34.014Z</time></trkpt><trkpt lat="45.30901855980245" lon="11.729045151159935"><ele>23.0</ele><time>2026-04-04T15:12:35.014Z</time></trkpt><trkpt lat="45.309110175627794" lon="11.729166846222768"><ele>23.0</ele><time>2026-04-04T15:12:36.014Z</time></trkpt><trkpt lat="45.309201258977744" lon="11.729277686086663"><ele>22.5</ele><time>2026-04-04T15:12:37.014Z</time></trkpt><trkpt lat="45.309302473498846" lon="11.729392617881036"><ele>22.0</ele><time>2026-04-04T15:12:38.014Z</time></trkpt><trkpt lat="45.30940082150255" lon="11.729508218011635"><ele>21.5</ele><time>2026-04-04T15:12:39.014Z</time></trkpt><trkpt lat="45.309503772147636" lon="11.729605835929277"><ele>21.0</ele><time>2026-04-04T15:12:40.014Z</time></trkpt><trkpt lat="45.30960698572056" lon="11.729698344120917"><ele>21.0</ele><time>2026-04-04T15:12:41.014Z</time></trkpt><trkpt lat="45.30971813139353" lon="11.729775654420497"><ele>21.0</ele><time>2026-04-04T15:12:42.014Z</time></trkpt><trkpt lat="45.30982926972154" lon="11.72985240557394"><ele>21.0</ele><time>2026-04-04T15:12:43.014Z</time></trkpt><trkpt lat="45.30995553294971" lon="11.729923324534552"><ele>21.0</ele><time>2026-04-04T15:12:44.014Z</time></trkpt><trkpt lat="45.31009204695888" lon="11.730000290082438"><ele>20.25</ele><time>2026-04-04T15:12:45.014Z</time></trkpt><trkpt lat="45.31022463828999" lon="11.730073046604478"><ele>19.5</ele><time>2026-04-04T15:12:46.014Z</time></trkpt><trkpt lat="45.310346770232954" lon="11.73013293295367"><ele>18.75</ele><time>2026-04-04T15:12:47.014Z</time></trkpt><trkpt lat="45.31046691035277" lon="11.730193794742695"><ele>18.0</ele><time>2026-04-04T15:12:48.014Z</time></trkpt><trkpt lat="45.310592597275914" lon="11.7302434072624"><ele>17.5</ele><time>2026-04-04T15:12:49.014Z</time></trkpt><trkpt lat="45.31072049545001" lon="11.730274809318022"><ele>17.0</ele><time>2026-04-04T15:12:50.014Z</time></trkpt><trkpt lat="45.310855658195244" lon="11.730285201932611"><ele>16.5</ele><time>2026-04-04T15:12:51.014Z</time></trkpt><trkpt lat="45.31099999768068" lon="11.730264608888522"><ele>16.0</ele><time>2026-04-04T15:12:52.014Z</time></trkpt><trkpt lat="45.31115054427877" lon="11.730194357282988"><ele>17.666666666666664</ele><time>2026-04-04T15:12:53.014Z</time></trkpt><trkpt lat="45.31130436831983" lon="11.730115205131499"><ele>19.333333333333332</ele><time>2026-04-04T15:12:54.014Z</time></trkpt><trkpt lat="45.311464698590015" lon="11.730010356122973"><ele>21.0</ele><time>2026-04-04T15:12:55.014Z</time></trkpt><trkpt lat="45.31163581182821" lon="11.72992404694916"><ele>21.0</ele><time>2026-04-04T15:12:56.014Z</time></trkpt><trkpt lat="45.31179957360196" lon="11.729830052221152"><ele>21.0</ele><time>2026-04-04T15:12:57.014Z</time></trkpt><trkpt lat="45.31196816937205" lon="11.729812497117328"><ele>21.0</ele><time>2026-04-04T15:12:58.014Z</time></trkpt><trkpt lat="45.31210575368815" lon="11.729755330471278"><ele>21.0</ele><time>2026-04-04T15:12:59.014Z</time></trkpt><trkpt lat="45.31222681137071" lon="11.729705904246979"><ele>21.0</ele><time>2026-04-04T15:13:00.014Z</time></trkpt><trkpt lat="45.31235622888921" lon="11.729676003179238"><ele>21.0</ele><time>2026-04-04T15:13:01.014Z</time></trkpt><trkpt lat="45.312474040889896" lon="11.729643734890818"><ele>21.0</ele><time>2026-04-04T15:13:02.014Z</time></trkpt><trkpt lat="45.3125929479426" lon="11.729645666928059"><ele>23.25</ele><time>2026-04-04T15:13:03.014Z</time></trkpt><trkpt lat="45.312713824046924" lon="11.729664743075611"><ele>25.5</ele><time>2026-04-04T15:13:04.014Z</time></trkpt><trkpt lat="45.31283769690535" lon="11.729680979998745"><ele>27.75</ele><time>2026-04-04T15:13:05.014Z</time></trkpt><trkpt lat="45.312961357990766" lon="11.729668687679712"><ele>30.0</ele><time>2026-04-04T15:13:06.014Z</time></trkpt><trkpt lat="45.3130715812732" lon="11.72963679071436"><ele>29.6</ele><time>2026-04-04T15:13:07.015Z</time></trkpt><trkpt lat="45.31316289388477" lon="11.729603799389741"><ele>29.2</ele><time>2026-04-04T15:13:08.015Z</time></trkpt><trkpt lat="45.31324931331829" lon="11.729552465581671"><ele>28.799999999999997</ele><time>2026-04-04T15:13:09.015Z</time></trkpt><trkpt lat="45.313337966282916" lon="11.729506021450728"><ele>28.4</ele><time>2026-04-04T15:13:10.015Z</time></trkpt><trkpt lat="45.31338775632015" lon="11.729401717925025"><ele>28.0</ele><time>2026-04-04T15:13:11.015Z</time></trkpt><trkpt lat="45.31340300311097" lon="11.729278946353125"><ele>28.000000000000004</ele><time>2026-04-04T15:13:12.015Z</time></trkpt><trkpt lat="45.31340173731144" lon="11.729185540097129"><ele>28.0</ele><time>2026-04-04T15:13:13.015Z</time></trkpt><trkpt lat="45.31340050932349" lon="11.729033610377792"><ele>28.0</ele><time>2026-04-04T15:13:15.015Z</time></trkpt><trkpt lat="45.31341668272253" lon="11.728924012024496"><ele>28.0</ele><time>2026-04-04T15:13:17.015Z</time></trkpt><trkpt lat="45.313499964825944" lon="11.728909024119378"><ele>28.000000000000004</ele><time>2026-04-04T15:13:18.015Z</time></trkpt><trkpt lat="45.31355349106488" lon="11.728971131979016"><ele>28.0</ele><time>2026-04-04T15:13:19.015Z</time></trkpt><trkpt lat="45.31357982823121" lon="11.729075751990727"><ele>28.0</ele><time>2026-04-04T15:13:20.015Z</time></trkpt><trkpt lat="45.313599136705555" lon="11.72921770589465"><ele>28.0</ele><time>2026-04-04T15:13:21.015Z</time></trkpt><trkpt lat="45.31361500543446" lon="11.72937862097911"><ele>28.0</ele><time>2026-04-04T15:13:22.015Z</time></trkpt><trkpt lat="45.313648843228066" lon="11.729538998739113"><ele>28.0</ele><time>2026-04-04T15:13:23.015Z</time></trkpt><trkpt lat="45.313722408614176" lon="11.729681512331702"><ele>30.0</ele><time>2026-04-04T15:13:24.015Z</time></trkpt><trkpt lat="45.31382237042309" lon="11.72981752022207"><ele>32.0</ele><time>2026-04-04T15:13:25.015Z</time></trkpt><trkpt lat="45.31395013391379" lon="11.729937949517776"><ele>34.0</ele><time>2026-04-04T15:13:26.015Z</time></trkpt><trkpt lat="45.31409346105727" lon="11.73006205013345"><ele>29.333333333333336</ele><time>2026-04-04T15:13:27.015Z</time></trkpt><trkpt lat="45.31424654798362" lon="11.730183523579768"><ele>24.666666666666668</ele><time>2026-04-04T15:13:28.015Z</time></trkpt><trkpt lat="45.31438357001102" lon="11.730300434532046"><ele>20.0</ele><time>2026-04-04T15:13:29.015Z</time></trkpt><trkpt lat="45.31450191386623" lon="11.730406833406064"><ele>20.0</ele><time>2026-04-04T15:13:30.015Z</time></trkpt><trkpt lat="45.314583425387895" lon="11.730529403889301"><ele>20.0</ele><time>2026-04-04T15:13:31.015Z</time></trkpt><trkpt lat="45.314722841285885" lon="11.730624641529799"><ele>20.0</ele><time>2026-04-04T15:13:32.015Z</time></trkpt><trkpt lat="45.31489777113047" lon="11.730692881428899"><ele>18.333333333333336</ele><time>2026-04-04T15:13:33.015Z</time></trkpt><trkpt lat="45.31509351762508" lon="11.730739086199865"><ele>16.666666666666668</ele><time>2026-04-04T15:13:34.015Z</time></trkpt><trkpt lat="45.3152810575947" lon="11.73079505665452"><ele>15.0</ele><time>2026-04-04T15:13:35.015Z</time></trkpt><trkpt lat="45.31545061761747" lon="11.730876772673648"><ele>15.0</ele><time>2026-04-04T15:13:36.015Z</time></trkpt><trkpt lat="45.31560152209122" lon="11.730983672621255"><ele>15.0</ele><time>2026-04-04T15:13:37.015Z</time></trkpt><trkpt lat="45.31575489877013" lon="11.731115326360104"><ele>15.0</ele><time>2026-04-04T15:13:38.015Z</time></trkpt><trkpt lat="45.315897385546776" lon="11.731243166207173"><ele>15.0</ele><time>2026-04-04T15:13:39.015Z</time></trkpt><trkpt lat="45.31602844490087" lon="11.731365252695767"><ele>15.0</ele><time>2026-04-04T15:13:40.015Z</time></trkpt><trkpt lat="45.316151612592584" lon="11.731477790271315"><ele>15.0</ele><time>2026-04-04T15:13:41.015Z</time></trkpt><trkpt lat="45.3162724086448" lon="11.731583840240424"><ele>15.0</ele><time>2026-04-04T15:13:42.015Z</time></trkpt><trkpt lat="45.31638587753703" lon="11.731672727347693"><ele>16.0</ele><time>2026-04-04T15:13:43.015Z</time></trkpt><trkpt lat="45.31649988740873" lon="11.731724546440919"><ele>17.0</ele><time>2026-04-04T15:13:44.015Z</time></trkpt><trkpt lat="45.31659975816557" lon="11.731728034770597"><ele>18.0</ele><time>2026-04-04T15:13:45.015Z</time></trkpt><trkpt lat="45.31670568717659" lon="11.731703103480328"><ele>19.0</ele><time>2026-04-04T15:13:46.015Z</time></trkpt><trkpt lat="45.31681399291435" lon="11.731643848440726"><ele>20.0</ele><time>2026-04-04T15:13:47.015Z</time></trkpt><trkpt lat="45.31693931600582" lon="11.731554579755258"><ele>20.0</ele><time>2026-04-04T15:13:48.015Z</time></trkpt><trkpt lat="45.317044250726944" lon="11.731472046086584"><ele>20.0</ele><time>2026-04-04T15:13:49.015Z</time></trkpt><trkpt lat="45.317130111008964" lon="11.731395509688662"><ele>20.0</ele><time>2026-04-04T15:13:50.015Z</time></trkpt><trkpt lat="45.317214763519715" lon="11.73136653192361"><ele>20.0</ele><time>2026-04-04T15:13:51.015Z</time></trkpt><trkpt lat="45.31727918982194" lon="11.7313047954238"><ele>20.0</ele><time>2026-04-04T15:13:52.015Z</time></trkpt><trkpt lat="45.317345448920605" lon="11.731240183427477"><ele>21.166666666666668</ele><time>2026-04-04T15:13:53.015Z</time></trkpt><trkpt lat="45.317398514478654" lon="11.73117917809987"><ele>22.333333333333336</ele><time>2026-04-04T15:13:54.015Z</time></trkpt><trkpt lat="45.31745985873585" lon="11.731123777738334"><ele>23.5</ele><time>2026-04-04T15:13:55.015Z</time></trkpt><trkpt lat="45.31752609171801" lon="11.73107508576333"><ele>24.666666666666668</ele><time>2026-04-04T15:13:56.015Z</time></trkpt><trkpt lat="45.317604828362946" lon="11.731062769689936"><ele>25.833333333333332</ele><time>2026-04-04T15:13:57.015Z</time></trkpt><trkpt lat="45.31769027197946" lon="11.731102966081957"><ele>27.0</ele><time>2026-04-04T15:13:58.015Z</time></trkpt><trkpt lat="45.31776374846471" lon="11.731193567706258"><ele>27.0</ele><time>2026-04-04T15:13:59.015Z</time></trkpt><trkpt lat="45.31781831740048" lon="11.731324500800921"><ele>27.000000000000004</ele><time>2026-04-04T15:14:00.015Z</time></trkpt><trkpt lat="45.31788047589335" lon="11.731448094187202"><ele>27.000000000000004</ele><time>2026-04-04T15:14:01.015Z</time></trkpt><trkpt lat="45.31795228456288" lon="11.73154127991199"><ele>27.0</ele><time>2026-04-04T15:14:02.015Z</time></trkpt><trkpt lat="45.31803050387583" lon="11.731617421184144"><ele>27.0</ele><time>2026-04-04T15:14:03.015Z</time></trkpt><trkpt lat="45.31812330787819" lon="11.73167239403287"><ele>28.400000000000002</ele><time>2026-04-04T15:14:04.015Z</time></trkpt><trkpt lat="45.3182162629438" lon="11.731706787759125"><ele>29.800000000000004</ele><time>2026-04-04T15:14:05.015Z</time></trkpt><trkpt lat="45.31831095220253" lon="11.731743081339452"><ele>31.2</ele><time>2026-04-04T15:14:06.015Z</time></trkpt><trkpt lat="45.318397670377166" lon="11.73178308842073"><ele>32.6</ele><time>2026-04-04T15:14:07.015Z</time></trkpt><trkpt lat="45.318480353721405" lon="11.731834156615976"><ele>34.0</ele><time>2026-04-04T15:14:08.015Z</time></trkpt><trkpt lat="45.31854792612291" lon="11.731906749116883"><ele>34.0</ele><time>2026-04-04T15:14:09.015Z</time></trkpt><trkpt lat="45.31859387720544" lon="11.732001848548835"><ele>34.0</ele><time>2026-04-04T15:14:10.015Z</time></trkpt><trkpt lat="45.31861672405086" lon="11.73211201277019"><ele>34.0</ele><time>2026-04-04T15:14:11.015Z</time></trkpt><trkpt lat="45.31862943083822" lon="11.732223420488133"><ele>34.0</ele><time>2026-04-04T15:14:12.015Z</time></trkpt><trkpt lat="45.31864213768667" lon="11.73233332045453"><ele>34.0</ele><time>2026-04-04T15:14:13.015Z</time></trkpt><trkpt lat="45.31865372132697" lon="11.732431311408845"><ele>34.0</ele><time>2026-04-04T15:14:14.015Z</time></trkpt><trkpt lat="45.31875843260593" lon="11.732555099684264"><ele>34.0</ele><time>2026-04-04T15:14:16.015Z</time></trkpt><trkpt lat="45.318837382946576" lon="11.732585618424618"><ele>34.0</ele><time>2026-04-04T15:14:17.015Z</time></trkpt><trkpt lat="45.31892658944526" lon="11.732569975830861"><ele>34.0</ele><time>2026-04-04T15:14:18.015Z</time></trkpt><trkpt lat="45.318995127444666" lon="11.732552141124888"><ele>34.0</ele><time>2026-04-04T15:14:19.015Z</time></trkpt><trkpt lat="45.319064857888556" lon="11.732538471259693"><ele>34.0</ele><time>2026-04-04T15:14:20.014Z</time></trkpt><trkpt lat="45.31913216094842" lon="11.732534035817638"><ele>34.0</ele><time>2026-04-04T15:14:21.014Z</time></trkpt><trkpt lat="45.3191998443918" lon="11.732609295688038"><ele>37.2</ele><time>2026-04-04T15:14:22.014Z</time></trkpt><trkpt lat="45.319248519913906" lon="11.732716396612247"><ele>40.4</ele><time>2026-04-04T15:14:23.014Z</time></trkpt><trkpt lat="45.31928757462634" lon="11.732835626504391"><ele>43.6</ele><time>2026-04-04T15:14:24.014Z</time></trkpt><trkpt lat="45.31932341282065" lon="11.73295363069286"><ele>46.8</ele><time>2026-04-04T15:14:25.014Z</time></trkpt><trkpt lat="45.31937818344008" lon="11.733051219250322"><ele>50.0</ele><time>2026-04-04T15:14:26.014Z</time></trkpt><trkpt lat="45.319463433319434" lon="11.73312647527337"><ele>50.0</ele><time>2026-04-04T15:14:27.014Z</time></trkpt><trkpt lat="45.319572252414744" lon="11.73316904061495"><ele>50.0</ele><time>2026-04-04T15:14:28.014Z</time></trkpt><trkpt lat="45.31968579073448" lon="11.73318634358009"><ele>50.0</ele><time>2026-04-04T15:14:29.014Z</time></trkpt><trkpt lat="45.31980295551544" lon="11.733175763625528"><ele>50.0</ele><time>2026-04-04T15:14:30.014Z</time></trkpt><trkpt lat="45.319913380911956" lon="11.733181597972434"><ele>52.8</ele><time>2026-04-04T15:14:31.014Z</time></trkpt><trkpt lat="45.32000892910931" lon="11.733174890364658"><ele>55.6</ele><time>2026-04-04T15:14:32.014Z</time></trkpt><trkpt lat="45.32009685400213" lon="11.73316143140939"><ele>58.400000000000006</ele><time>2026-04-04T15:14:33.014Z</time></trkpt><trkpt lat="45.320191852690286" lon="11.733204582532665"><ele>61.2</ele><time>2026-04-04T15:14:34.014Z</time></trkpt><trkpt lat="45.32028281879663" lon="11.73325369515171"><ele>64.0</ele><time>2026-04-04T15:14:35.014Z</time></trkpt><trkpt lat="45.320368106346166" lon="11.73330181985962"><ele>64.0</ele><time>2026-04-04T15:14:36.014Z</time></trkpt><trkpt lat="45.32043841142997" lon="11.733406238203631"><ele>64.0</ele><time>2026-04-04T15:14:37.014Z</time></trkpt><trkpt lat="45.32053858591756" lon="11.733451400832998"><ele>64.0</ele><time>2026-04-04T15:14:38.014Z</time></trkpt><trkpt lat="45.32064856689309" lon="11.733494072238953"><ele>64.0</ele><time>2026-04-04T15:14:39.014Z</time></trkpt><trkpt lat="45.32075891307564" lon="11.73354035341538"><ele>64.0</ele><time>2026-04-04T15:14:40.014Z</time></trkpt><trkpt lat="45.32086946589635" lon="11.733593940138705"><ele>65.2</ele><time>2026-04-04T15:14:41.014Z</time></trkpt><trkpt lat="45.32096682609194" lon="11.733642448086737"><ele>66.4</ele><time>2026-04-04T15:14:42.014Z</time></trkpt><trkpt lat="45.32105185486707" lon="11.733700926181243"><ele>67.6</ele><time>2026-04-04T15:14:43.014Z</time></trkpt><trkpt lat="45.32111996221616" lon="11.733755975407249"><ele>68.8</ele><time>2026-04-04T15:14:44.014Z</time></trkpt><trkpt lat="45.32119494620795" lon="11.733788030443993"><ele>70.0</ele><time>2026-04-04T15:14:45.014Z</time></trkpt><trkpt lat="45.32130183125621" lon="11.73383382165116"><ele>70.0</ele><time>2026-04-04T15:14:47.014Z</time></trkpt><trkpt lat="45.32139539202591" lon="11.733798363195506"><ele>70.0</ele><time>2026-04-04T15:14:49.014Z</time></trkpt><trkpt lat="45.32143810360045" lon="11.73367881276785"><ele>70.0</ele><time>2026-04-04T15:14:50.014Z</time></trkpt><trkpt lat="45.321403858752475" lon="11.73355082128521"><ele>70.0</ele><time>2026-04-04T15:14:51.014Z</time></trkpt><trkpt lat="45.32137135602888" lon="11.733466480391186"><ele>70.0</ele><time>2026-04-04T15:14:52.014Z</time></trkpt><trkpt lat="45.32133502856454" lon="11.733368313734612"><ele>70.0</ele><time>2026-04-04T15:14:53.014Z</time></trkpt><trkpt lat="45.32131254583784" lon="11.733240256037698"><ele>68.2</ele><time>2026-04-04T15:14:55.014Z</time></trkpt><trkpt lat="45.32137471804663" lon="11.733146008213676"><ele>66.4</ele><time>2026-04-04T15:14:57.014Z</time></trkpt><trkpt lat="45.32148749362754" lon="11.733221089330074"><ele>64.6</ele><time>2026-04-04T15:14:59.014Z</time></trkpt><trkpt lat="45.32152704233734" lon="11.733341261696204"><ele>62.8</ele><time>2026-04-04T15:15:00.014Z</time></trkpt><trkpt lat="45.32155931811639" lon="11.73345559421868"><ele>61.0</ele><time>2026-04-04T15:15:01.014Z</time></trkpt><trkpt lat="45.321576674352585" lon="11.733560631224565"><ele>58.83333333333333</ele><time>2026-04-04T15:15:02.014Z</time></trkpt><trkpt lat="45.321598189720234" lon="11.733657960079258"><ele>56.666666666666664</ele><time>2026-04-04T15:15:03.014Z</time></trkpt><trkpt lat="45.32161555754371" lon="11.733757628405824"><ele>54.5</ele><time>2026-04-04T15:15:04.014Z</time></trkpt><trkpt lat="45.321651734975504" lon="11.733921667963491"><ele>52.33333333333333</ele><time>2026-04-04T15:15:06.014Z</time></trkpt><trkpt lat="45.321711788549194" lon="11.73404963089014"><ele>50.166666666666664</ele><time>2026-04-04T15:15:08.014Z</time></trkpt><trkpt lat="45.32177561170746" lon="11.73407366409084"><ele>48.0</ele><time>2026-04-04T15:15:09.014Z</time></trkpt><trkpt lat="45.321846470892496" lon="11.734050751329729"><ele>48.0</ele><time>2026-04-04T15:15:10.014Z</time></trkpt><trkpt lat="45.321894349098436" lon="11.733977356736105"><ele>48.0</ele><time>2026-04-04T15:15:11.014Z</time></trkpt><trkpt lat="45.321896658277836" lon="11.73386405952387"><ele>48.0</ele><time>2026-04-04T15:15:12.014Z</time></trkpt><trkpt lat="45.3218792769446" lon="11.733757322918104"><ele>48.0</ele><time>2026-04-04T15:15:13.015Z</time></trkpt><trkpt lat="45.32185887623842" lon="11.733646607266081"><ele>48.0</ele><time>2026-04-04T15:15:14.016Z</time></trkpt><trkpt lat="45.321841670281046" lon="11.733538374063587"><ele>48.0</ele><time>2026-04-04T15:15:15.016Z</time></trkpt><trkpt lat="45.3218064333877" lon="11.733366600129607"><ele>48.0</ele><time>2026-04-04T15:15:17.016Z</time></trkpt><trkpt lat="45.32182176943376" lon="11.733236421653395"><ele>48.0</ele><time>2026-04-04T15:15:19.015Z</time></trkpt><trkpt lat="45.32192202026883" lon="11.73316259350826"><ele>48.0</ele><time>2026-04-04T15:15:21.015Z</time></trkpt><trkpt lat="45.321985694138995" lon="11.733218651009924"><ele>48.0</ele><time>2026-04-04T15:15:22.016Z</time></trkpt><trkpt lat="45.32200668978116" lon="11.73330490719445"><ele>48.0</ele><time>2026-04-04T15:15:23.016Z</time></trkpt><trkpt lat="45.3220149159336" lon="11.733413092510718"><ele>48.0</ele><time>2026-04-04T15:15:24.016Z</time></trkpt><trkpt lat="45.32202093241465" lon="11.733557346826686"><ele>48.0</ele><time>2026-04-04T15:15:25.016Z</time></trkpt><trkpt lat="45.32203137871379" lon="11.733687522136552"><ele>48.0</ele><time>2026-04-04T15:15:26.015Z</time></trkpt><trkpt lat="45.3220621024478" lon="11.733802717801877"><ele>48.0</ele><time>2026-04-04T15:15:27.015Z</time></trkpt><trkpt lat="45.32210175385235" lon="11.733891084044757"><ele>48.0</ele><time>2026-04-04T15:15:28.015Z</time></trkpt><trkpt lat="45.32217816999974" lon="11.73395275206498"><ele>48.0</ele><time>2026-04-04T15:15:29.015Z</time></trkpt><trkpt lat="45.322262566350474" lon="11.733937869719757"><ele>48.0</ele><time>2026-04-04T15:15:30.015Z</time></trkpt><trkpt lat="45.32233505178374" lon="11.733887385091363"><ele>45.166666666666664</ele><time>2026-04-04T15:15:31.015Z</time></trkpt><trkpt lat="45.32237699823345" lon="11.733794031628154"><ele>42.333333333333336</ele><time>2026-04-04T15:15:32.015Z</time></trkpt><trkpt lat="45.322405648338986" lon="11.733667944662914"><ele>39.5</ele><time>2026-04-04T15:15:33.015Z</time></trkpt><trkpt lat="45.322428546048684" lon="11.733551159020337"><ele>36.66666666666667</ele><time>2026-04-04T15:15:34.015Z</time></trkpt><trkpt lat="45.322442555788584" lon="11.733434014021094"><ele>33.833333333333336</ele><time>2026-04-04T15:15:35.015Z</time></trkpt><trkpt lat="45.322448251339466" lon="11.733322767832792"><ele>31.0</ele><time>2026-04-04T15:15:36.015Z</time></trkpt><trkpt lat="45.32245695434786" lon="11.733216235597105"><ele>31.000000000000004</ele><time>2026-04-04T15:15:37.015Z</time></trkpt><trkpt lat="45.322472327832415" lon="11.733118971568508"><ele>31.0</ele><time>2026-04-04T15:15:38.015Z</time></trkpt><trkpt lat="45.322490633030355" lon="11.733025184473503"><ele>31.0</ele><time>2026-04-04T15:15:39.015Z</time></trkpt><trkpt lat="45.322580839838416" lon="11.732903556933902"><ele>31.0</ele><time>2026-04-04T15:15:41.015Z</time></trkpt><trkpt lat="45.32265376065001" lon="11.732889656981257"><ele>31.000000000000004</ele><time>2026-04-04T15:15:42.015Z</time></trkpt><trkpt lat="45.32275846753589" lon="11.732895356472481"><ele>31.0</ele><time>2026-04-04T15:15:43.015Z</time></trkpt><trkpt lat="45.32287733533299" lon="11.732911263618064"><ele>31.0</ele><time>2026-04-04T15:15:44.015Z</time></trkpt><trkpt lat="45.322984353163925" lon="11.732976427163472"><ele>31.0</ele><time>2026-04-04T15:15:45.015Z</time></trkpt><trkpt lat="45.32313068738731" lon="11.733044671228756"><ele>31.0</ele><time>2026-04-04T15:15:46.015Z</time></trkpt><trkpt lat="45.323288617212064" lon="11.73307312847005"><ele>31.0</ele><time>2026-04-04T15:15:47.015Z</time></trkpt><trkpt lat="45.323457721649206" lon="11.733100094833052"><ele>26.333333333333336</ele><time>2026-04-04T15:15:48.015Z</time></trkpt><trkpt lat="45.32365608168938" lon="11.733098494521895"><ele>21.666666666666668</ele><time>2026-04-04T15:15:49.015Z</time></trkpt><trkpt lat="45.32388002909506" lon="11.733095540072078"><ele>17.0</ele><time>2026-04-04T15:15:50.015Z</time></trkpt><trkpt lat="45.32410663373991" lon="11.733074015578515"><ele>16.666666666666668</ele><time>2026-04-04T15:15:51.015Z</time></trkpt><trkpt lat="45.324319985217386" lon="11.733081320830806"><ele>16.333333333333332</ele><time>2026-04-04T15:15:52.015Z</time></trkpt><trkpt lat="45.324504328398966" lon="11.733090268881561"><ele>16.0</ele><time>2026-04-04T15:15:53.015Z</time></trkpt><trkpt lat="45.32466150851431" lon="11.733097718522751"><ele>15.25</ele><time>2026-04-04T15:15:54.015Z</time></trkpt><trkpt lat="45.32479610891343" lon="11.733071949448835"><ele>14.5</ele><time>2026-04-04T15:15:55.015Z</time></trkpt><trkpt lat="45.32492483014532" lon="11.733002449378791"><ele>13.75</ele><time>2026-04-04T15:15:56.015Z</time></trkpt><trkpt lat="45.3250559487134" lon="11.732900805740405"><ele>13.0</ele><time>2026-04-04T15:15:57.015Z</time></trkpt><trkpt lat="45.32519477837383" lon="11.732781318878565"><ele>16.666666666666664</ele><time>2026-04-04T15:15:58.015Z</time></trkpt><trkpt lat="45.32532687238955" lon="11.73264546773245"><ele>20.333333333333332</ele><time>2026-04-04T15:15:59.015Z</time></trkpt><trkpt lat="45.325432053565365" lon="11.732493413589038"><ele>24.0</ele><time>2026-04-04T15:16:00.015Z</time></trkpt><trkpt lat="45.3255118801058" lon="11.73232321517589"><ele>21.75</ele><time>2026-04-04T15:16:01.015Z</time></trkpt><trkpt lat="45.32557964932815" lon="11.732154980345145"><ele>19.5</ele><time>2026-04-04T15:16:02.015Z</time></trkpt><trkpt lat="45.325620800657916" lon="11.731986799364169"><ele>17.25</ele><time>2026-04-04T15:16:03.015Z</time></trkpt><trkpt lat="45.325662835528746" lon="11.731834980789655"><ele>15.0</ele><time>2026-04-04T15:16:04.015Z</time></trkpt><trkpt lat="45.32570567630649" lon="11.731738479167344"><ele>15.0</ele><time>2026-04-04T15:16:05.015Z</time></trkpt><trkpt lat="45.325755187662494" lon="11.731674697363147"><ele>15.0</ele><time>2026-04-04T15:16:06.015Z</time></trkpt><trkpt lat="45.325865419540875" lon="11.731596568374576"><ele>15.0</ele><time>2026-04-04T15:16:08.015Z</time></trkpt><trkpt lat="45.32594201165261" lon="11.731596146845591"><ele>15.0</ele><time>2026-04-04T15:16:09.015Z</time></trkpt><trkpt lat="45.32601243060955" lon="11.731622622020224"><ele>15.0</ele><time>2026-04-04T15:16:10.015Z</time></trkpt><trkpt lat="45.32608063771499" lon="11.731661653085252"><ele>15.0</ele><time>2026-04-04T15:16:11.015Z</time></trkpt><trkpt lat="45.326156055141695" lon="11.731698202223145"><ele>15.0</ele><time>2026-04-04T15:16:12.015Z</time></trkpt><trkpt lat="45.32622894090695" lon="11.731732592077297"><ele>15.0</ele><time>2026-04-04T15:16:13.015Z</time></trkpt><trkpt lat="45.32629945106982" lon="11.731760305109198"><ele>15.0</ele><time>2026-04-04T15:16:14.015Z</time></trkpt><trkpt lat="45.32636681782845" lon="11.731777309406166"><ele>15.0</ele><time>2026-04-04T15:16:15.015Z</time></trkpt><trkpt lat="45.3264439515195" lon="11.73178508890577"><ele>15.0</ele><time>2026-04-04T15:16:16.015Z</time></trkpt><trkpt lat="45.32653169347862" lon="11.731777898810693"><ele>15.0</ele><time>2026-04-04T15:16:17.015Z</time></trkpt><trkpt lat="45.32662374543146" lon="11.73176124624746"><ele>14.4</ele><time>2026-04-04T15:16:18.015Z</time></trkpt><trkpt lat="45.326711328998535" lon="11.731740572261106"><ele>13.8</ele><time>2026-04-04T15:16:19.015Z</time></trkpt><trkpt lat="45.326807029851054" lon="11.731711015350665"><ele>13.2</ele><time>2026-04-04T15:16:20.015Z</time></trkpt><trkpt lat="45.32691209843839" lon="11.731678144869802"><ele>12.6</ele><time>2026-04-04T15:16:21.015Z</time></trkpt><trkpt lat="45.32702595268001" lon="11.73164688180733"><ele>12.0</ele><time>2026-04-04T15:16:22.015Z</time></trkpt><trkpt lat="45.32714548691369" lon="11.731613539295633"><ele>11.75</ele><time>2026-04-04T15:16:23.015Z</time></trkpt><trkpt lat="45.32727882528311" lon="11.731585367482465"><ele>11.5</ele><time>2026-04-04T15:16:24.015Z</time></trkpt><trkpt lat="45.32741814023649" lon="11.731571721565688"><ele>11.25</ele><time>2026-04-04T15:16:25.015Z</time></trkpt><trkpt lat="45.32756788693657" lon="11.731556932647322"><ele>11.0</ele><time>2026-04-04T15:16:26.015Z</time></trkpt><trkpt lat="45.32771602965483" lon="11.731560131145205"><ele>11.0</ele><time>2026-04-04T15:16:27.015Z</time></trkpt><trkpt lat="45.327850962358795" lon="11.731565596547398"><ele>11.0</ele><time>2026-04-04T15:16:28.015Z</time></trkpt><trkpt lat="45.327973840675305" lon="11.731572887363122"><ele>11.0</ele><time>2026-04-04T15:16:29.015Z</time></trkpt><trkpt lat="45.32809106019998" lon="11.73158968282188"><ele>11.0</ele><time>2026-04-04T15:16:30.015Z</time></trkpt><trkpt lat="45.32822394056802" lon="11.73160337554242"><ele>11.5</ele><time>2026-04-04T15:16:31.015Z</time></trkpt><trkpt lat="45.328362691215716" lon="11.731624245031629"><ele>12.0</ele><time>2026-04-04T15:16:32.015Z</time></trkpt><trkpt lat="45.32849796415924" lon="11.731644057930167"><ele>12.5</ele><time>2026-04-04T15:16:33.015Z</time></trkpt><trkpt lat="45.32863405157952" lon="11.731670698837153"><ele>13.0</ele><time>2026-04-04T15:16:34.015Z</time></trkpt><trkpt lat="45.328766193210825" lon="11.731707591860317"><ele>13.0</ele><time>2026-04-04T15:16:35.015Z</time></trkpt><trkpt lat="45.328895397810946" lon="11.731755075124147"><ele>13.0</ele><time>2026-04-04T15:16:36.015Z</time></trkpt><trkpt lat="45.32902347486859" lon="11.731811969711043"><ele>13.0</ele><time>2026-04-04T15:16:37.015Z</time></trkpt><trkpt lat="45.329149944588956" lon="11.731874731295521"><ele>13.0</ele><time>2026-04-04T15:16:38.015Z</time></trkpt><trkpt lat="45.329278990070655" lon="11.731937677710562"><ele>13.0</ele><time>2026-04-04T15:16:39.015Z</time></trkpt><trkpt lat="45.32940564557678" lon="11.732001995745922"><ele>13.0</ele><time>2026-04-04T15:16:40.015Z</time></trkpt><trkpt lat="45.32952381049105" lon="11.732073021348175"><ele>13.0</ele><time>2026-04-04T15:16:41.015Z</time></trkpt><trkpt lat="45.32963645140529" lon="11.732134311827638"><ele>13.0</ele><time>2026-04-04T15:16:42.015Z</time></trkpt><trkpt lat="45.32974497726226" lon="11.732195022725918"><ele>13.5</ele><time>2026-04-04T15:16:43.015Z</time></trkpt><trkpt lat="45.32985790199931" lon="11.732245496336672"><ele>14.0</ele><time>2026-04-04T15:16:44.015Z</time></trkpt><trkpt lat="45.32998236275645" lon="11.732293662128892"><ele>14.5</ele><time>2026-04-04T15:16:45.015Z</time></trkpt><trkpt lat="45.33010125879331" lon="11.732333917864892"><ele>15.0</ele><time>2026-04-04T15:16:46.015Z</time></trkpt><trkpt lat="45.33022086735982" lon="11.732362518466985"><ele>15.0</ele><time>2026-04-04T15:16:47.015Z</time></trkpt><trkpt lat="45.33036137568819" lon="11.732390463519106"><ele>15.0</ele><time>2026-04-04T15:16:48.015Z</time></trkpt><trkpt lat="45.3305115619047" lon="11.732417928248353"><ele>15.0</ele><time>2026-04-04T15:16:49.015Z</time></trkpt><trkpt lat="45.33067812438518" lon="11.73244441319188"><ele>14.333333333333332</ele><time>2026-04-04T15:16:50.015Z</time></trkpt><trkpt lat="45.33086228658602" lon="11.73247430379718"><ele>13.666666666666666</ele><time>2026-04-04T15:16:51.015Z</time></trkpt><trkpt lat="45.33107176915428" lon="11.73251703082459"><ele>13.0</ele><time>2026-04-04T15:16:52.015Z</time></trkpt><trkpt lat="45.331286961204526" lon="11.732562591470089"><ele>12.666666666666666</ele><time>2026-04-04T15:16:53.015Z</time></trkpt><trkpt lat="45.33149644873707" lon="11.732582249190763"><ele>12.333333333333332</ele><time>2026-04-04T15:16:54.015Z</time></trkpt><trkpt lat="45.33169408990483" lon="11.732618146476446"><ele>12.0</ele><time>2026-04-04T15:16:55.015Z</time></trkpt><trkpt lat="45.33186421652093" lon="11.732660773909915"><ele>12.0</ele><time>2026-04-04T15:16:56.015Z</time></trkpt><trkpt lat="45.332023170023575" lon="11.732648636088332"><ele>12.0</ele><time>2026-04-04T15:16:57.015Z</time></trkpt><trkpt lat="45.33219144107385" lon="11.732631452887958"><ele>12.0</ele><time>2026-04-04T15:16:58.015Z</time></trkpt><trkpt lat="45.33235159275417" lon="11.732604566248897"><ele>12.0</ele><time>2026-04-04T15:16:59.015Z</time></trkpt><trkpt lat="45.3325145067966" lon="11.732588094261349"><ele>12.0</ele><time>2026-04-04T15:17:00.015Z</time></trkpt><trkpt lat="45.33268273967859" lon="11.732571911454174"><ele>12.0</ele><time>2026-04-04T15:17:01.015Z</time></trkpt><trkpt lat="45.33285913158784" lon="11.732550415416226"><ele>12.0</ele><time>2026-04-04T15:17:02.015Z</time></trkpt><trkpt lat="45.33304048547994" lon="11.73254470385445"><ele>12.0</ele><time>2026-04-04T15:17:03.015Z</time></trkpt><trkpt lat="45.333212542717774" lon="11.732523353902724"><ele>12.0</ele><time>2026-04-04T15:17:04.015Z</time></trkpt><trkpt lat="45.33336210003998" lon="11.732500106777946"><ele>11.75</ele><time>2026-04-04T15:17:05.015Z</time></trkpt><trkpt lat="45.33349674373848" lon="11.732488116080285"><ele>11.5</ele><time>2026-04-04T15:17:06.015Z</time></trkpt><trkpt lat="45.333626301865806" lon="11.732469957409611"><ele>11.25</ele><time>2026-04-04T15:17:07.015Z</time></trkpt><trkpt lat="45.33375865990236" lon="11.732451507074408"><ele>11.0</ele><time>2026-04-04T15:17:08.015Z</time></trkpt><trkpt lat="45.33388729561512" lon="11.73243607062262"><ele>11.5</ele><time>2026-04-04T15:17:09.015Z</time></trkpt><trkpt lat="45.33401530609604" lon="11.732414750678927"><ele>12.0</ele><time>2026-04-04T15:17:10.015Z</time></trkpt><trkpt lat="45.33414972571923" lon="11.732398975126488"><ele>12.5</ele><time>2026-04-04T15:17:11.015Z</time></trkpt><trkpt lat="45.33428012021417" lon="11.732381795417673"><ele>13.0</ele><time>2026-04-04T15:17:12.015Z</time></trkpt><trkpt lat="45.334413778170955" lon="11.73236834325754"><ele>13.0</ele><time>2026-04-04T15:17:13.015Z</time></trkpt><trkpt lat="45.33454873873608" lon="11.732355616317477"><ele>13.0</ele><time>2026-04-04T15:17:14.015Z</time></trkpt><trkpt lat="45.334684322120175" lon="11.732338002000038"><ele>13.0</ele><time>2026-04-04T15:17:15.015Z</time></trkpt><trkpt lat="45.334819771963545" lon="11.732324688916473"><ele>13.0</ele><time>2026-04-04T15:17:16.015Z</time></trkpt><trkpt lat="45.33494152783373" lon="11.732312405047733"><ele>12.999999999999998</ele><time>2026-04-04T15:17:17.015Z</time></trkpt><trkpt lat="45.33505454847524" lon="11.73228720369843"><ele>13.0</ele><time>2026-04-04T15:17:18.015Z</time></trkpt><trkpt lat="45.335147061351755" lon="11.732262228042979"><ele>13.0</ele><time>2026-04-04T15:17:19.016Z</time></trkpt><trkpt lat="45.335218164811" lon="11.732224248655468"><ele>13.0</ele><time>2026-04-04T15:17:20.016Z</time></trkpt><trkpt lat="45.33527975310478" lon="11.732186505256665"><ele>12.999999999999998</ele><time>2026-04-04T15:17:23.016Z</time></trkpt><trkpt lat="45.33535747475457" lon="11.732160408527239"><ele>13.0</ele><time>2026-04-04T15:17:31.017Z</time></trkpt><trkpt lat="45.33547622682773" lon="11.732132269475988"><ele>13.0</ele><time>2026-04-04T15:17:33.016Z</time></trkpt><trkpt lat="45.33550920617117" lon="11.731979473416724"><ele>13.0</ele><time>2026-04-04T15:17:35.016Z</time></trkpt><trkpt lat="45.335480051025534" lon="11.73187142651927"><ele>13.0</ele><time>2026-04-04T15:17:36.016Z</time></trkpt><trkpt lat="45.33542233215925" lon="11.731748587275167"><ele>13.0</ele><time>2026-04-04T15:17:37.016Z</time></trkpt><trkpt lat="45.33538365533382" lon="11.731653252253468"><ele>13.0</ele><time>2026-04-04T15:17:38.016Z</time></trkpt><trkpt lat="45.335361517714794" lon="11.731542208279143"><ele>13.4</ele><time>2026-04-04T15:17:39.016Z</time></trkpt><trkpt lat="45.33534056579252" lon="11.731412871669479"><ele>13.8</ele><time>2026-04-04T15:17:40.016Z</time></trkpt><trkpt lat="45.335328749097094" lon="11.73128775993239"><ele>14.2</ele><time>2026-04-04T15:17:41.016Z</time></trkpt><trkpt lat="45.33532429792662" lon="11.731141540060362"><ele>14.6</ele><time>2026-04-04T15:17:42.016Z</time></trkpt><trkpt lat="45.33532573990993" lon="11.730990698743957"><ele>15.0</ele><time>2026-04-04T15:17:43.016Z</time></trkpt><trkpt lat="45.33532626586061" lon="11.730822425517754"><ele>15.2</ele><time>2026-04-04T15:17:44.016Z</time></trkpt><trkpt lat="45.335331715066964" lon="11.730663634448732"><ele>15.4</ele><time>2026-04-04T15:17:45.016Z</time></trkpt><trkpt lat="45.33534511755283" lon="11.730508959885418"><ele>15.600000000000001</ele><time>2026-04-04T15:17:46.016Z</time></trkpt><trkpt lat="45.33535238323254" lon="11.730352827865723"><ele>15.8</ele><time>2026-04-04T15:17:47.016Z</time></trkpt><trkpt lat="45.335367671602135" lon="11.730194789573623"><ele>16.0</ele><time>2026-04-04T15:17:48.016Z</time></trkpt><trkpt lat="45.33538197118541" lon="11.730040117584839"><ele>16.25</ele><time>2026-04-04T15:17:49.016Z</time></trkpt><trkpt lat="45.33539877128196" lon="11.729888908939063"><ele>16.5</ele><time>2026-04-04T15:17:50.016Z</time></trkpt><trkpt lat="45.33541090212124" lon="11.7297350269775"><ele>16.75</ele><time>2026-04-04T15:17:51.016Z</time></trkpt><trkpt lat="45.335417553044145" lon="11.729568114440717"><ele>17.0</ele><time>2026-04-04T15:17:52.016Z</time></trkpt><trkpt lat="45.33542534377939" lon="11.729383092482761"><ele>17.2</ele><time>2026-04-04T15:17:53.016Z</time></trkpt><trkpt lat="45.3354154621686" lon="11.729211028327484"><ele>17.4</ele><time>2026-04-04T15:17:54.016Z</time></trkpt><trkpt lat="45.33537871002849" lon="11.729071674502121"><ele>17.6</ele><time>2026-04-04T15:17:55.016Z</time></trkpt><trkpt lat="45.33536157186957" lon="11.72894253806932"><ele>17.8</ele><time>2026-04-04T15:17:56.016Z</time></trkpt><trkpt lat="45.335364362477875" lon="11.728805801642809"><ele>18.0</ele><time>2026-04-04T15:17:57.016Z</time></trkpt><trkpt lat="45.33535609084005" lon="11.728659468763889"><ele>18.0</ele><time>2026-04-04T15:17:58.016Z</time></trkpt><trkpt lat="45.3353535742222" lon="11.728485851064503"><ele>18.0</ele><time>2026-04-04T15:17:59.016Z</time></trkpt><trkpt lat="45.33536084256792" lon="11.728284157754636"><ele>18.0</ele><time>2026-04-04T15:18:00.016Z</time></trkpt><trkpt lat="45.335369008870764" lon="11.728089341070369"><ele>18.0</ele><time>2026-04-04T15:18:01.016Z</time></trkpt><trkpt lat="45.33536512961509" lon="11.72790210349643"><ele>18.25</ele><time>2026-04-04T15:18:02.016Z</time></trkpt><trkpt lat="45.33539190538348" lon="11.72772128291177"><ele>18.5</ele><time>2026-04-04T15:18:03.016Z</time></trkpt><trkpt lat="45.33542742541322" lon="11.727536566257285"><ele>18.75</ele><time>2026-04-04T15:18:04.016Z</time></trkpt><trkpt lat="45.33546574717674" lon="11.727343824546054"><ele>19.0</ele><time>2026-04-04T15:18:05.016Z</time></trkpt><trkpt lat="45.33553740098406" lon="11.72715297818703"><ele>19.0</ele><time>2026-04-04T15:18:06.016Z</time></trkpt><trkpt lat="45.335593220395836" lon="11.726936924917043"><ele>19.0</ele><time>2026-04-04T15:18:07.016Z</time></trkpt><trkpt lat="45.33565033765455" lon="11.726713068861494"><ele>19.0</ele><time>2026-04-04T15:18:08.016Z</time></trkpt><trkpt lat="45.33565740847248" lon="11.726478265776803"><ele>19.0</ele><time>2026-04-04T15:18:09.016Z</time></trkpt><trkpt lat="45.33569497964013" lon="11.726266785414406"><ele>19.0</ele><time>2026-04-04T15:18:10.016Z</time></trkpt><trkpt lat="45.33572386866501" lon="11.72606220051784"><ele>19.0</ele><time>2026-04-04T15:18:11.016Z</time></trkpt><trkpt lat="45.33575232452087" lon="11.725868272438914"><ele>19.0</ele><time>2026-04-04T15:18:12.016Z</time></trkpt><trkpt lat="45.335819453479985" lon="11.725690925198181"><ele>19.25</ele><time>2026-04-04T15:18:13.016Z</time></trkpt><trkpt lat="45.335798712265785" lon="11.725477285332229"><ele>19.5</ele><time>2026-04-04T15:18:14.016Z</time></trkpt><trkpt lat="45.33581431473173" lon="11.725274856353044"><ele>19.75</ele><time>2026-04-04T15:18:15.016Z</time></trkpt><trkpt lat="45.33581749184948" lon="11.725079798352906"><ele>20.0</ele><time>2026-04-04T15:18:16.015Z</time></trkpt><trkpt lat="45.33580894832531" lon="11.724901072463453"><ele>20.5</ele><time>2026-04-04T15:18:17.015Z</time></trkpt><trkpt lat="45.33583922674325" lon="11.724719671779651"><ele>21.0</ele><time>2026-04-04T15:18:18.015Z</time></trkpt><trkpt lat="45.33580759301276" lon="11.724551742436915"><ele>21.5</ele><time>2026-04-04T15:18:19.015Z</time></trkpt><trkpt lat="45.3357699642135" lon="11.724410353462144"><ele>22.0</ele><time>2026-04-04T15:18:20.015Z</time></trkpt><trkpt lat="45.3356595467338" lon="11.724301242745065"><ele>22.200000000000003</ele><time>2026-04-04T15:18:21.015Z</time></trkpt><trkpt lat="45.33556235999854" lon="11.72423823356245"><ele>22.4</ele><time>2026-04-04T15:18:22.015Z</time></trkpt><trkpt lat="45.335464173853836" lon="11.724168471797912"><ele>22.6</ele><time>2026-04-04T15:18:23.015Z</time></trkpt><trkpt lat="45.3353623686924" lon="11.724089792848813"><ele>22.799999999999997</ele><time>2026-04-04T15:18:24.015Z</time></trkpt><trkpt lat="45.335298676186746" lon="11.723972194760087"><ele>23.0</ele><time>2026-04-04T15:18:25.015Z</time></trkpt><trkpt lat="45.33526084876523" lon="11.72384716737806"><ele>23.0</ele><time>2026-04-04T15:18:26.015Z</time></trkpt><trkpt lat="45.33522755941176" lon="11.723680204573219"><ele>23.0</ele><time>2026-04-04T15:18:27.015Z</time></trkpt><trkpt lat="45.33521776784361" lon="11.723469335704888"><ele>23.0</ele><time>2026-04-04T15:18:28.015Z</time></trkpt><trkpt lat="45.33521832020198" lon="11.723230416045359"><ele>23.0</ele><time>2026-04-04T15:18:29.015Z</time></trkpt><trkpt lat="45.33522773722288" lon="11.722979699763856"><ele>23.0</ele><time>2026-04-04T15:18:30.015Z</time></trkpt><trkpt lat="45.33524360627961" lon="11.72274859025084"><ele>23.0</ele><time>2026-04-04T15:18:31.015Z</time></trkpt><trkpt lat="45.3352609513337" lon="11.722540586487785"><ele>23.0</ele><time>2026-04-04T15:18:32.015Z</time></trkpt><trkpt lat="45.33517773423677" lon="11.722207412708899"><ele>23.75</ele><time>2026-04-04T15:18:34.015Z</time></trkpt><trkpt lat="45.33511487095916" lon="11.722062718974591"><ele>24.5</ele><time>2026-04-04T15:18:35.015Z</time></trkpt><trkpt lat="45.335043623476544" lon="11.72192575745613"><ele>25.25</ele><time>2026-04-04T15:18:36.015Z</time></trkpt><trkpt lat="45.33496738715571" lon="11.721769584972535"><ele>26.0</ele><time>2026-04-04T15:18:37.015Z</time></trkpt><trkpt lat="45.33493710428782" lon="11.721580315388394"><ele>26.0</ele><time>2026-04-04T15:18:38.015Z</time></trkpt><trkpt lat="45.33488534319577" lon="11.72139612828644"><ele>26.0</ele><time>2026-04-04T15:18:39.015Z</time></trkpt><trkpt lat="45.33487716370295" lon="11.721200116313495"><ele>26.0</ele><time>2026-04-04T15:18:40.015Z</time></trkpt><trkpt lat="45.334868177603276" lon="11.720990275618767"><ele>26.0</ele><time>2026-04-04T15:18:41.015Z</time></trkpt><trkpt lat="45.33485457818701" lon="11.720760863940184"><ele>26.666666666666664</ele><time>2026-04-04T15:18:42.015Z</time></trkpt><trkpt lat="45.33482525771516" lon="11.720515264136424"><ele>27.333333333333336</ele><time>2026-04-04T15:18:43.015Z</time></trkpt><trkpt lat="45.33477075180693" lon="11.720255689863535"><ele>28.0</ele><time>2026-04-04T15:18:44.015Z</time></trkpt><trkpt lat="45.33471734812171" lon="11.719989222328055"><ele>30.0</ele><time>2026-04-04T15:18:45.015Z</time></trkpt><trkpt lat="45.334664640925844" lon="11.71972922753081"><ele>32.0</ele><time>2026-04-04T15:18:46.015Z</time></trkpt><trkpt lat="45.334615434307686" lon="11.719489552946998"><ele>34.0</ele><time>2026-04-04T15:18:47.015Z</time></trkpt><trkpt lat="45.334571467657916" lon="11.719271580658894"><ele>34.25</ele><time>2026-04-04T15:18:48.015Z</time></trkpt><trkpt lat="45.33452960409169" lon="11.719064584951038"><ele>34.5</ele><time>2026-04-04T15:18:49.015Z</time></trkpt><trkpt lat="45.33449366386531" lon="11.71888687827467"><ele>34.75</ele><time>2026-04-04T15:18:50.015Z</time></trkpt><trkpt lat="45.334457551173095" lon="11.718718746416291"><ele>35.0</ele><time>2026-04-04T15:18:51.015Z</time></trkpt><trkpt lat="45.33438307957499" lon="11.718553214102348"><ele>35.75</ele><time>2026-04-04T15:18:52.015Z</time></trkpt><trkpt lat="45.33427980419746" lon="11.718406947294163"><ele>36.5</ele><time>2026-04-04T15:18:53.015Z</time></trkpt><trkpt lat="45.334159597080806" lon="11.718290612627083"><ele>37.25</ele><time>2026-04-04T15:18:54.015Z</time></trkpt><trkpt lat="45.33403281484885" lon="11.718185150215868"><ele>38.0</ele><time>2026-04-04T15:18:55.015Z</time></trkpt><trkpt lat="45.33392249486619" lon="11.718071771723638"><ele>40.0</ele><time>2026-04-04T15:18:56.015Z</time></trkpt><trkpt lat="45.33382767270924" lon="11.717934780380435"><ele>42.0</ele><time>2026-04-04T15:18:57.015Z</time></trkpt><trkpt lat="45.33375394734757" lon="11.717763078978061"><ele>44.0</ele><time>2026-04-04T15:18:58.015Z</time></trkpt><trkpt lat="45.333684828208455" lon="11.717560705284395"><ele>46.0</ele><time>2026-04-04T15:18:59.015Z</time></trkpt><trkpt lat="45.333618424456276" lon="11.717355232824334"><ele>46.66666666666667</ele><time>2026-04-04T15:19:00.015Z</time></trkpt><trkpt lat="45.3335299921114" lon="11.717151889710825"><ele>47.333333333333336</ele><time>2026-04-04T15:19:01.015Z</time></trkpt><trkpt lat="45.33342379007322" lon="11.716972712827184"><ele>48.0</ele><time>2026-04-04T15:19:02.015Z</time></trkpt><trkpt lat="45.33332252133189" lon="11.716803279761642"><ele>48.33333333333333</ele><time>2026-04-04T15:19:03.015Z</time></trkpt><trkpt lat="45.333216666888184" lon="11.716626285700096"><ele>48.666666666666664</ele><time>2026-04-04T15:19:04.015Z</time></trkpt><trkpt lat="45.333113127976" lon="11.7164531633267"><ele>49.0</ele><time>2026-04-04T15:19:05.015Z</time></trkpt><trkpt lat="45.33301223316886" lon="11.716285402330085"><ele>49.0</ele><time>2026-04-04T15:19:06.015Z</time></trkpt><trkpt lat="45.33291346635684" lon="11.716133736087771"><ele>49.0</ele><time>2026-04-04T15:19:07.015Z</time></trkpt><trkpt lat="45.33281014713202" lon="11.715999983438058"><ele>49.0</ele><time>2026-04-04T15:19:08.015Z</time></trkpt><trkpt lat="45.33269869376642" lon="11.71587700551143"><ele>49.0</ele><time>2026-04-04T15:19:09.015Z</time></trkpt><trkpt lat="45.33257638488874" lon="11.715758312879986"><ele>49.5</ele><time>2026-04-04T15:19:10.015Z</time></trkpt><trkpt lat="45.33245685954775" lon="11.715652099224075"><ele>50.0</ele><time>2026-04-04T15:19:11.015Z</time></trkpt><trkpt lat="45.33234461758727" lon="11.715542427263657"><ele>50.5</ele><time>2026-04-04T15:19:12.015Z</time></trkpt><trkpt lat="45.332241308123166" lon="11.71541767954132"><ele>51.0</ele><time>2026-04-04T15:19:13.015Z</time></trkpt><trkpt lat="45.332162123217024" lon="11.715264450364073"><ele>51.66666666666667</ele><time>2026-04-04T15:19:14.015Z</time></trkpt><trkpt lat="45.332107918804915" lon="11.715101891555639"><ele>52.333333333333336</ele><time>2026-04-04T15:19:15.015Z</time></trkpt><trkpt lat="45.33204903163626" lon="11.714893547869663"><ele>53.0</ele><time>2026-04-04T15:19:16.015Z</time></trkpt><trkpt lat="45.33199056730723" lon="11.714668485596778"><ele>53.0</ele><time>2026-04-04T15:19:17.015Z</time></trkpt><trkpt lat="45.331930260813316" lon="11.714436474603737"><ele>53.0</ele><time>2026-04-04T15:19:18.015Z</time></trkpt><trkpt lat="45.33187889216656" lon="11.714249500821627"><ele>53.0</ele><time>2026-04-04T15:19:19.015Z</time></trkpt><trkpt lat="45.33184333423814" lon="11.7141307593889"><ele>53.0</ele><time>2026-04-04T15:19:20.015Z</time></trkpt><trkpt lat="45.331779217777374" lon="11.714067510493726"><ele>54.599999999999994</ele><time>2026-04-04T15:19:21.015Z</time></trkpt><trkpt lat="45.331733139234466" lon="11.714003466179568"><ele>56.199999999999996</ele><time>2026-04-04T15:19:22.015Z</time></trkpt><trkpt lat="45.33166504904894" lon="11.713991839041466"><ele>57.8</ele><time>2026-04-04T15:19:23.015Z</time></trkpt><trkpt lat="45.331592100098874" lon="11.714095919544503"><ele>59.4</ele><time>2026-04-04T15:19:24.015Z</time></trkpt><trkpt lat="45.33154101608281" lon="11.71421940711452"><ele>61.0</ele><time>2026-04-04T15:19:25.017Z</time></trkpt><trkpt lat="45.33148324862659" lon="11.71436099314988"><ele>61.8</ele><time>2026-04-04T15:19:26.016Z</time></trkpt><trkpt lat="45.33138016333494" lon="11.714495988766839"><ele>62.599999999999994</ele><time>2026-04-04T15:19:27.016Z</time></trkpt><trkpt lat="45.331301435308696" lon="11.714611984880483"><ele>63.4</ele><time>2026-04-04T15:19:28.017Z</time></trkpt><trkpt lat="45.33122634106863" lon="11.714715395484316"><ele>64.2</ele><time>2026-04-04T15:19:29.017Z</time></trkpt><trkpt lat="45.3311621835167" lon="11.714779913988812"><ele>65.0</ele><time>2026-04-04T15:19:30.017Z</time></trkpt><trkpt lat="45.331095557990984" lon="11.71480264996785"><ele>65.0</ele><time>2026-04-04T15:19:31.016Z</time></trkpt><trkpt lat="45.331010801079884" lon="11.714785546568294"><ele>65.0</ele><time>2026-04-04T15:19:32.016Z</time></trkpt><trkpt lat="45.33093551311458" lon="11.714688162445926"><ele>65.0</ele><time>2026-04-04T15:19:33.016Z</time></trkpt><trkpt lat="45.33086528774167" lon="11.714546680582975"><ele>65.0</ele><time>2026-04-04T15:19:34.017Z</time></trkpt><trkpt lat="45.330813745169536" lon="11.71437255409952"><ele>65.0</ele><time>2026-04-04T15:19:35.017Z</time></trkpt><trkpt lat="45.330767332630195" lon="11.714205553269826"><ele>66.2</ele><time>2026-04-04T15:19:36.017Z</time></trkpt><trkpt lat="45.33072483256591" lon="11.71406396415294"><ele>67.4</ele><time>2026-04-04T15:19:37.017Z</time></trkpt><trkpt lat="45.330676269967064" lon="11.713963712525148"><ele>68.6</ele><time>2026-04-04T15:19:38.017Z</time></trkpt><trkpt lat="45.33062396630203" lon="11.713879923533307"><ele>69.8</ele><time>2026-04-04T15:19:39.017Z</time></trkpt><trkpt lat="45.3305179601966" lon="11.713889931113325"><ele>71.0</ele><time>2026-04-04T15:19:40.017Z</time></trkpt><trkpt lat="45.33042099280099" lon="11.713904787103882"><ele>73.75</ele><time>2026-04-04T15:19:41.017Z</time></trkpt><trkpt lat="45.330320595782425" lon="11.71392851739944"><ele>76.5</ele><time>2026-04-04T15:19:42.017Z</time></trkpt><trkpt lat="45.33022559123274" lon="11.71403823969783"><ele>79.25</ele><time>2026-04-04T15:19:43.017Z</time></trkpt><trkpt lat="45.33015766588346" lon="11.714197181356974"><ele>82.0</ele><time>2026-04-04T15:19:44.017Z</time></trkpt><trkpt lat="45.33009556192559" lon="11.714388681330572"><ele>82.0</ele><time>2026-04-04T15:19:45.017Z</time></trkpt><trkpt lat="45.33000116168293" lon="11.714591132443157"><ele>82.0</ele><time>2026-04-04T15:19:46.017Z</time></trkpt><trkpt lat="45.3299057402839" lon="11.714817676952503"><ele>82.0</ele><time>2026-04-04T15:19:47.017Z</time></trkpt><trkpt lat="45.329811964773825" lon="11.715030281704625"><ele>88.66666666666666</ele><time>2026-04-04T15:19:48.017Z</time></trkpt><trkpt lat="45.329712965455535" lon="11.715238017310098"><ele>95.33333333333333</ele><time>2026-04-04T15:19:49.017Z</time></trkpt><trkpt lat="45.32959793984888" lon="11.715448416458626"><ele>102.0</ele><time>2026-04-04T15:19:50.017Z</time></trkpt><trkpt lat="45.329491570617755" lon="11.715634189648073"><ele>102.0</ele><time>2026-04-04T15:19:51.017Z</time></trkpt><trkpt lat="45.32937977021422" lon="11.715824938745081"><ele>102.0</ele><time>2026-04-04T15:19:52.017Z</time></trkpt><trkpt lat="45.32924926785512" lon="11.715992941300888"><ele>102.0</ele><time>2026-04-04T15:19:53.017Z</time></trkpt><trkpt lat="45.32912209144248" lon="11.7161399047295"><ele>99.75</ele><time>2026-04-04T15:19:54.017Z</time></trkpt><trkpt lat="45.32897809131732" lon="11.716250561374308"><ele>97.5</ele><time>2026-04-04T15:19:55.017Z</time></trkpt><trkpt lat="45.32883925405716" lon="11.716330175464176"><ele>95.25</ele><time>2026-04-04T15:19:56.017Z</time></trkpt><trkpt lat="45.328714371081254" lon="11.716404373877534"><ele>93.0</ele><time>2026-04-04T15:19:57.017Z</time></trkpt><trkpt lat="45.32859534008739" lon="11.716514883025564"><ele>97.0</ele><time>2026-04-04T15:19:58.017Z</time></trkpt><trkpt lat="45.32851300964303" lon="11.716690223366097"><ele>101.0</ele><time>2026-04-04T15:19:59.017Z</time></trkpt><trkpt lat="45.32842111614195" lon="11.716852311964495"><ele>105.0</ele><time>2026-04-04T15:20:00.017Z</time></trkpt><trkpt lat="45.32833375148372" lon="11.717024424055287"><ele>109.0</ele><time>2026-04-04T15:20:01.017Z</time></trkpt><trkpt lat="45.32824384749719" lon="11.717177823563777"><ele>109.0</ele><time>2026-04-04T15:20:02.017Z</time></trkpt><trkpt lat="45.3281442361643" lon="11.717297540838114"><ele>109.0</ele><time>2026-04-04T15:20:03.017Z</time></trkpt><trkpt lat="45.32803352043354" lon="11.717408622541"><ele>109.0</ele><time>2026-04-04T15:20:04.017Z</time></trkpt><trkpt lat="45.327915949765206" lon="11.71752232820819"><ele>109.0</ele><time>2026-04-04T15:20:05.017Z</time></trkpt><trkpt lat="45.32782288477262" lon="11.71760832106924"><ele>109.50000000000001</ele><time>2026-04-04T15:20:06.017Z</time></trkpt><trkpt lat="45.32774080079213" lon="11.71768468044798"><ele>110.0</ele><time>2026-04-04T15:20:07.017Z</time></trkpt><trkpt lat="45.32766916825205" lon="11.717749721581818"><ele>110.5</ele><time>2026-04-04T15:20:08.017Z</time></trkpt><trkpt lat="45.32763166572817" lon="11.717845723213257"><ele>111.0</ele><time>2026-04-04T15:20:09.017Z</time></trkpt><trkpt lat="45.3276272152225" lon="11.717935666166314"><ele>111.50000000000001</ele><time>2026-04-04T15:20:10.017Z</time></trkpt><trkpt lat="45.32763348131969" lon="11.718033506059582"><ele>112.0</ele><time>2026-04-04T15:20:11.017Z</time></trkpt><trkpt lat="45.327562098437156" lon="11.71812494756242"><ele>112.0</ele><time>2026-04-04T15:20:13.017Z</time></trkpt><trkpt lat="45.32752143134062" lon="11.71801714184455"><ele>111.99999999999999</ele><time>2026-04-04T15:20:15.017Z</time></trkpt><trkpt lat="45.327527664042464" lon="11.717924758876249"><ele>111.99999999999999</ele><time>2026-04-04T15:20:16.017Z</time></trkpt><trkpt lat="45.32759864189681" lon="11.717803821969353"><ele>112.0</ele><time>2026-04-04T15:20:17.017Z</time></trkpt><trkpt lat="45.32769042809655" lon="11.717647619263655"><ele>112.0</ele><time>2026-04-04T15:20:18.017Z</time></trkpt><trkpt lat="45.32778578132775" lon="11.717470977332098"><ele>116.66666666666667</ele><time>2026-04-04T15:20:19.017Z</time></trkpt><trkpt lat="45.32787422101398" lon="11.717287109528725"><ele>121.33333333333334</ele><time>2026-04-04T15:20:20.017Z</time></trkpt><trkpt lat="45.32795284202376" lon="11.717091778928063"><ele>126.0</ele><time>2026-04-04T15:20:21.017Z</time></trkpt><trkpt lat="45.32802494534808" lon="11.716880484889504"><ele>121.0</ele><time>2026-04-04T15:20:22.017Z</time></trkpt><trkpt lat="45.32809213828854" lon="11.716650925166293"><ele>116.0</ele><time>2026-04-04T15:20:23.016Z</time></trkpt><trkpt lat="45.32816618469753" lon="11.716425211763601"><ele>111.0</ele><time>2026-04-04T15:20:24.016Z</time></trkpt><trkpt lat="45.32821197268126" lon="11.716197948372828"><ele>114.0</ele><time>2026-04-04T15:20:25.016Z</time></trkpt><trkpt lat="45.32825484370157" lon="11.715983975542597"><ele>117.0</ele><time>2026-04-04T15:20:26.016Z</time></trkpt><trkpt lat="45.328297811947444" lon="11.71580655218736"><ele>120.0</ele><time>2026-04-04T15:20:27.016Z</time></trkpt><trkpt lat="45.32834474474499" lon="11.715652100563467"><ele>123.0</ele><time>2026-04-04T15:20:28.016Z</time></trkpt><trkpt lat="45.32839074233465" lon="11.715519469244924"><ele>123.0</ele><time>2026-04-04T15:20:29.016Z</time></trkpt><trkpt lat="45.3284355028566" lon="11.715395099473534"><ele>123.00000000000001</ele><time>2026-04-04T15:20:30.016Z</time></trkpt><trkpt lat="45.328471593497724" lon="11.715239237864882"><ele>123.00000000000001</ele><time>2026-04-04T15:20:31.016Z</time></trkpt><trkpt lat="45.32848696442391" lon="11.715078930401564"><ele>123.0</ele><time>2026-04-04T15:20:32.016Z</time></trkpt><trkpt lat="45.328480858846824" lon="11.714913686599779"><ele>123.0</ele><time>2026-04-04T15:20:33.016Z</time></trkpt><trkpt lat="45.328456705700546" lon="11.714747662751652"><ele>124.5</ele><time>2026-04-04T15:20:34.016Z</time></trkpt><trkpt lat="45.32841150287579" lon="11.714594648182388"><ele>126.0</ele><time>2026-04-04T15:20:35.016Z</time></trkpt><trkpt lat="45.32834077756915" lon="11.714451226304144"><ele>127.5</ele><time>2026-04-04T15:20:36.016Z</time></trkpt><trkpt lat="45.32826028719754" lon="11.714327983719176"><ele>129.0</ele><time>2026-04-04T15:20:37.016Z</time></trkpt><trkpt lat="45.32817298098095" lon="11.71420347032741"><ele>129.0</ele><time>2026-04-04T15:20:38.016Z</time></trkpt><trkpt lat="45.328081071224865" lon="11.714073169073636"><ele>129.0</ele><time>2026-04-04T15:20:39.016Z</time></trkpt><trkpt lat="45.32798278880128" lon="11.713933833183422"><ele>129.0</ele><time>2026-04-04T15:20:40.016Z</time></trkpt><trkpt lat="45.32789296939468" lon="11.713797294714487"><ele>129.0</ele><time>2026-04-04T15:20:41.016Z</time></trkpt><trkpt lat="45.327814432427715" lon="11.713667419367125"><ele>133.5</ele><time>2026-04-04T15:20:42.016Z</time></trkpt><trkpt lat="45.327748433059845" lon="11.713531386624464"><ele>138.0</ele><time>2026-04-04T15:20:43.016Z</time></trkpt><trkpt lat="45.32769408507889" lon="11.713390700389052"><ele>142.5</ele><time>2026-04-04T15:20:44.016Z</time></trkpt><trkpt lat="45.32764875571177" lon="11.713239919964943"><ele>147.0</ele><time>2026-04-04T15:20:45.016Z</time></trkpt><trkpt lat="45.3276029647567" lon="11.713059588192134"><ele>147.0</ele><time>2026-04-04T15:20:46.016Z</time></trkpt><trkpt lat="45.32754090045517" lon="11.712877351543153"><ele>147.0</ele><time>2026-04-04T15:20:47.016Z</time></trkpt><trkpt lat="45.32750463381592" lon="11.712681727016994"><ele>147.0</ele><time>2026-04-04T15:20:48.016Z</time></trkpt><trkpt lat="45.32745760708202" lon="11.712503387401243"><ele>147.0</ele><time>2026-04-04T15:20:49.016Z</time></trkpt><trkpt lat="45.327407294874114" lon="11.712346021705818"><ele>145.4</ele><time>2026-04-04T15:20:50.016Z</time></trkpt><trkpt lat="45.32735215906029" lon="11.71220050840385"><ele>143.79999999999998</ele><time>2026-04-04T15:20:51.016Z</time></trkpt><trkpt lat="45.327296219674565" lon="11.71206662551684"><ele>142.2</ele><time>2026-04-04T15:20:52.016Z</time></trkpt><trkpt lat="45.327226025456866" lon="11.711948392939444"><ele>140.6</ele><time>2026-04-04T15:20:53.016Z</time></trkpt><trkpt lat="45.327147031042074" lon="11.711855414065479"><ele>139.0</ele><time>2026-04-04T15:20:54.016Z</time></trkpt><trkpt lat="45.327062604225176" lon="11.711774013651986"><ele>143.6</ele><time>2026-04-04T15:20:55.016Z</time></trkpt><trkpt lat="45.326987925383875" lon="11.711672130106212"><ele>148.2</ele><time>2026-04-04T15:20:56.016Z</time></trkpt><trkpt lat="45.32692899058447" lon="11.711558345218062"><ele>152.79999999999998</ele><time>2026-04-04T15:20:57.016Z</time></trkpt><trkpt lat="45.326884813962614" lon="11.711420169623107"><ele>157.4</ele><time>2026-04-04T15:20:58.016Z</time></trkpt><trkpt lat="45.32685352299951" lon="11.711280993923701"><ele>162.0</ele><time>2026-04-04T15:20:59.016Z</time></trkpt><trkpt lat="45.326844924462414" lon="11.711151764696133"><ele>161.83333333333334</ele><time>2026-04-04T15:21:00.016Z</time></trkpt><trkpt lat="45.32683630239771" lon="11.711041754048228"><ele>161.66666666666666</ele><time>2026-04-04T15:21:01.016Z</time></trkpt><trkpt lat="45.32681729279213" lon="11.71093720516031"><ele>161.5</ele><time>2026-04-04T15:21:02.016Z</time></trkpt><trkpt lat="45.32680012059835" lon="11.710810163579474"><ele>161.33333333333331</ele><time>2026-04-04T15:21:03.016Z</time></trkpt><trkpt lat="45.326755852993905" lon="11.710686938846777"><ele>161.16666666666666</ele><time>2026-04-04T15:21:04.016Z</time></trkpt><trkpt lat="45.32668593122575" lon="11.71057091028072"><ele>161.0</ele><time>2026-04-04T15:21:05.016Z</time></trkpt><trkpt lat="45.32658119247456" lon="11.710482146696538"><ele>161.0</ele><time>2026-04-04T15:21:06.016Z</time></trkpt><trkpt lat="45.326476825076945" lon="11.71043240243565"><ele>161.0</ele><time>2026-04-04T15:21:07.016Z</time></trkpt><trkpt lat="45.326370816106476" lon="11.710399614938673"><ele>161.0</ele><time>2026-04-04T15:21:08.016Z</time></trkpt><trkpt lat="45.32627699515379" lon="11.710365581221467"><ele>161.0</ele><time>2026-04-04T15:21:09.016Z</time></trkpt><trkpt lat="45.326203694298314" lon="11.71031165833251"><ele>161.0</ele><time>2026-04-04T15:21:10.016Z</time></trkpt><trkpt lat="45.32614430504727" lon="11.710231887911995"><ele>163.0</ele><time>2026-04-04T15:21:11.016Z</time></trkpt><trkpt lat="45.32610690101578" lon="11.710131805510924"><ele>165.0</ele><time>2026-04-04T15:21:12.016Z</time></trkpt><trkpt lat="45.32609070372887" lon="11.710014789601065"><ele>167.0</ele><time>2026-04-04T15:21:13.016Z</time></trkpt><trkpt lat="45.32608584502194" lon="11.709875410073849"><ele>169.0</ele><time>2026-04-04T15:21:14.016Z</time></trkpt><trkpt lat="45.326105480615006" lon="11.709711752800812"><ele>171.0</ele><time>2026-04-04T15:21:15.016Z</time></trkpt><trkpt lat="45.32613988861338" lon="11.709551193311679"><ele>171.0</ele><time>2026-04-04T15:21:16.016Z</time></trkpt><trkpt lat="45.32616264782084" lon="11.709412389689922"><ele>171.0</ele><time>2026-04-04T15:21:17.016Z</time></trkpt><trkpt lat="45.32617667622279" lon="11.70927073616118"><ele>171.0</ele><time>2026-04-04T15:21:18.016Z</time></trkpt><trkpt lat="45.32617924472695" lon="11.709115472093835"><ele>171.0</ele><time>2026-04-04T15:21:19.016Z</time></trkpt><trkpt lat="45.32617636002954" lon="11.708951778655463"><ele>171.0</ele><time>2026-04-04T15:21:20.016Z</time></trkpt><trkpt lat="45.326165808294064" lon="11.708796663840461"><ele>171.16666666666666</ele><time>2026-04-04T15:21:21.016Z</time></trkpt><trkpt lat="45.32614639056709" lon="11.708665955108724"><ele>171.33333333333334</ele><time>2026-04-04T15:21:22.016Z</time></trkpt><trkpt lat="45.32613009802452" lon="11.70857747166833"><ele>171.5</ele><time>2026-04-04T15:21:23.016Z</time></trkpt><trkpt lat="45.326107986581455" lon="11.708485876500674"><ele>171.66666666666669</ele><time>2026-04-04T15:21:24.016Z</time></trkpt><trkpt lat="45.326068509192154" lon="11.708360561101252"><ele>171.83333333333334</ele><time>2026-04-04T15:21:26.016Z</time></trkpt><trkpt lat="45.32603777626727" lon="11.708275344330028"><ele>172.0</ele><time>2026-04-04T15:21:28.016Z</time></trkpt><trkpt lat="45.325989446815925" lon="11.708140817683525"><ele>173.16666666666669</ele><time>2026-04-04T15:21:30.016Z</time></trkpt><trkpt lat="45.32595814500386" lon="11.708054617208568"><ele>174.33333333333334</ele><time>2026-04-04T15:21:31.017Z</time></trkpt><trkpt lat="45.32592600147255" lon="11.707965272379036"><ele>175.5</ele><time>2026-04-04T15:21:32.017Z</time></trkpt><trkpt lat="45.325894569785895" lon="11.707866726207428"><ele>176.66666666666666</ele><time>2026-04-04T15:21:33.017Z</time></trkpt><trkpt lat="45.325857785123496" lon="11.707744772805757"><ele>177.83333333333331</ele><time>2026-04-04T15:21:34.018Z</time></trkpt><trkpt lat="45.32583310835685" lon="11.707621191862572"><ele>179.0</ele><time>2026-04-04T15:21:35.018Z</time></trkpt><trkpt lat="45.3258231213259" lon="11.707501712802982"><ele>180.2</ele><time>2026-04-04T15:21:36.018Z</time></trkpt><trkpt lat="45.32583493502058" lon="11.707387419898724"><ele>181.39999999999998</ele><time>2026-04-04T15:21:37.017Z</time></trkpt><trkpt lat="45.32583740348319" lon="11.707243206711228"><ele>182.6</ele><time>2026-04-04T15:21:38.018Z</time></trkpt><trkpt lat="45.32583344492146" lon="11.707129704748766"><ele>183.8</ele><time>2026-04-04T15:21:39.018Z</time></trkpt><trkpt lat="45.32584185114975" lon="11.70699984856382"><ele>185.0</ele><time>2026-04-04T15:21:40.017Z</time></trkpt><trkpt lat="45.32580722314514" lon="11.706864440004711"><ele>185.4</ele><time>2026-04-04T15:21:41.017Z</time></trkpt><trkpt lat="45.32575628677839" lon="11.706746943160292"><ele>185.8</ele><time>2026-04-04T15:21:42.017Z</time></trkpt><trkpt lat="45.32570606278536" lon="11.706626322619403"><ele>186.2</ele><time>2026-04-04T15:21:43.018Z</time></trkpt><trkpt lat="45.32564871502317" lon="11.706491551694366"><ele>186.6</ele><time>2026-04-04T15:21:44.018Z</time></trkpt><trkpt lat="45.32558758058794" lon="11.706369734843937"><ele>187.0</ele><time>2026-04-04T15:21:45.018Z</time></trkpt><trkpt lat="45.325510502924196" lon="11.70625832908585"><ele>187.6</ele><time>2026-04-04T15:21:46.018Z</time></trkpt><trkpt lat="45.32541868746645" lon="11.706166926392669"><ele>188.2</ele><time>2026-04-04T15:21:47.018Z</time></trkpt><trkpt lat="45.32531559522452" lon="11.706097499551463"><ele>188.8</ele><time>2026-04-04T15:21:48.018Z</time></trkpt><trkpt lat="45.325205118823725" lon="11.706059497483036"><ele>189.4</ele><time>2026-04-04T15:21:49.018Z</time></trkpt><trkpt lat="45.325105494017194" lon="11.706036707091766"><ele>190.0</ele><time>2026-04-04T15:21:50.018Z</time></trkpt><trkpt lat="45.325010973988654" lon="11.706042756036465"><ele>190.0</ele><time>2026-04-04T15:21:51.018Z</time></trkpt><trkpt lat="45.32494535394437" lon="11.706008405419428"><ele>190.0</ele><time>2026-04-04T15:21:52.018Z</time></trkpt><trkpt lat="45.32487813397634" lon="11.70599851200265"><ele>190.0</ele><time>2026-04-04T15:21:53.018Z</time></trkpt><trkpt lat="45.324809046238045" lon="11.705984340605813"><ele>190.0</ele><time>2026-04-04T15:21:54.018Z</time></trkpt><trkpt lat="45.324734756114516" lon="11.705957980677171"><ele>190.0</ele><time>2026-04-04T15:21:55.018Z</time></trkpt><trkpt lat="45.32465869412574" lon="11.705929180056186"><ele>190.0</ele><time>2026-04-04T15:21:56.018Z</time></trkpt><trkpt lat="45.3245883663702" lon="11.705884672825217"><ele>190.0</ele><time>2026-04-04T15:21:57.018Z</time></trkpt><trkpt lat="45.32452766980503" lon="11.705835065588147"><ele>192.2</ele><time>2026-04-04T15:21:58.018Z</time></trkpt><trkpt lat="45.324445086989016" lon="11.70576256903629"><ele>194.4</ele><time>2026-04-04T15:22:00.018Z</time></trkpt><trkpt lat="45.32434894129696" lon="11.705684810433857"><ele>196.60000000000002</ele><time>2026-04-04T15:22:02.018Z</time></trkpt><trkpt lat="45.32428656128548" lon="11.70562670166779"><ele>198.8</ele><time>2026-04-04T15:22:03.018Z</time></trkpt><trkpt lat="45.324239459972155" lon="11.705505367254439"><ele>201.0</ele><time>2026-04-04T15:22:04.018Z</time></trkpt><trkpt lat="45.32416654476265" lon="11.705405027256132"><ele>201.0</ele><time>2026-04-04T15:22:05.018Z</time></trkpt><trkpt lat="45.32409462367332" lon="11.705296957747445"><ele>201.0</ele><time>2026-04-04T15:22:06.018Z</time></trkpt><trkpt lat="45.32404099540976" lon="11.705164140581847"><ele>201.0</ele><time>2026-04-04T15:22:07.018Z</time></trkpt><trkpt lat="45.32400606873696" lon="11.704997971042301"><ele>201.0</ele><time>2026-04-04T15:22:08.018Z</time></trkpt><trkpt lat="45.32399387350594" lon="11.704824743032587"><ele>199.25</ele><time>2026-04-04T15:22:09.018Z</time></trkpt><trkpt lat="45.32400011868503" lon="11.704654636817944"><ele>197.5</ele><time>2026-04-04T15:22:10.018Z</time></trkpt><trkpt lat="45.32401830321722" lon="11.704501912590603"><ele>195.75</ele><time>2026-04-04T15:22:11.018Z</time></trkpt><trkpt lat="45.32405238033878" lon="11.704345485049682"><ele>194.0</ele><time>2026-04-04T15:22:12.018Z</time></trkpt><trkpt lat="45.324134737317046" lon="11.704201806204903"><ele>193.33333333333334</ele><time>2026-04-04T15:22:13.018Z</time></trkpt><trkpt lat="45.32424183068973" lon="11.704063377394558"><ele>192.66666666666669</ele><time>2026-04-04T15:22:14.018Z</time></trkpt><trkpt lat="45.3243678389838" lon="11.703930091607933"><ele>192.0</ele><time>2026-04-04T15:22:15.018Z</time></trkpt><trkpt lat="45.32451780147941" lon="11.703788231535361"><ele>192.0</ele><time>2026-04-04T15:22:16.018Z</time></trkpt><trkpt lat="45.32467503593722" lon="11.703642324352884"><ele>192.0</ele><time>2026-04-04T15:22:17.018Z</time></trkpt><trkpt lat="45.32484665579288" lon="11.703513083359628"><ele>192.0</ele><time>2026-04-04T15:22:18.018Z</time></trkpt><trkpt lat="45.325025930463376" lon="11.703405039701792"><ele>190.33333333333334</ele><time>2026-04-04T15:22:19.018Z</time></trkpt><trkpt lat="45.32521970353612" lon="11.703308087301973"><ele>188.66666666666669</ele><time>2026-04-04T15:22:20.018Z</time></trkpt><trkpt lat="45.325418695340204" lon="11.703226267848637"><ele>187.0</ele><time>2026-04-04T15:22:21.017Z</time></trkpt><trkpt lat="45.32561808551683" lon="11.703147533813816"><ele>186.66666666666669</ele><time>2026-04-04T15:22:22.017Z</time></trkpt><trkpt lat="45.325796997510686" lon="11.703074948928935"><ele>186.33333333333334</ele><time>2026-04-04T15:22:23.017Z</time></trkpt><trkpt lat="45.32594864483416" lon="11.702998538620253"><ele>186.0</ele><time>2026-04-04T15:22:24.017Z</time></trkpt><trkpt lat="45.326069284322244" lon="11.702898574709804"><ele>188.5</ele><time>2026-04-04T15:22:25.017Z</time></trkpt><trkpt lat="45.32617390015651" lon="11.702746015392695"><ele>191.0</ele><time>2026-04-04T15:22:26.017Z</time></trkpt><trkpt lat="45.32625567938682" lon="11.702568980328602"><ele>193.5</ele><time>2026-04-04T15:22:27.017Z</time></trkpt><trkpt lat="45.32631554058796" lon="11.702396233298735"><ele>196.0</ele><time>2026-04-04T15:22:28.017Z</time></trkpt><trkpt lat="45.32638713041887" lon="11.702241543273958"><ele>195.0</ele><time>2026-04-04T15:22:29.017Z</time></trkpt><trkpt lat="45.32647823237799" lon="11.702121601072758"><ele>194.0</ele><time>2026-04-04T15:22:30.017Z</time></trkpt><trkpt lat="45.32658587176054" lon="11.702037802092953"><ele>193.0</ele><time>2026-04-04T15:22:31.017Z</time></trkpt><trkpt lat="45.32668434521232" lon="11.701964395519253"><ele>192.0</ele><time>2026-04-04T15:22:32.017Z</time></trkpt><trkpt lat="45.32675202067016" lon="11.701873780442963"><ele>195.75</ele><time>2026-04-04T15:22:33.017Z</time></trkpt><trkpt lat="45.326796328943594" lon="11.701716394597248"><ele>199.5</ele><time>2026-04-04T15:22:34.017Z</time></trkpt><trkpt lat="45.32683118889326" lon="11.701522417040254"><ele>203.25</ele><time>2026-04-04T15:22:35.017Z</time></trkpt><trkpt lat="45.32686875605126" lon="11.701318117495672"><ele>207.0</ele><time>2026-04-04T15:22:36.017Z</time></trkpt><trkpt lat="45.32689069113522" lon="11.701125599785364"><ele>209.39999999999998</ele><time>2026-04-04T15:22:37.017Z</time></trkpt><trkpt lat="45.32691264571579" lon="11.70097013622984"><ele>211.79999999999998</ele><time>2026-04-04T15:22:38.017Z</time></trkpt><trkpt lat="45.32694186094146" lon="11.700849850224316"><ele>214.2</ele><time>2026-04-04T15:22:39.017Z</time></trkpt><trkpt lat="45.326995108489825" lon="11.700763727554381"><ele>216.6</ele><time>2026-04-04T15:22:40.017Z</time></trkpt><trkpt lat="45.32708883409735" lon="11.700713224111293"><ele>219.0</ele><time>2026-04-04T15:22:41.017Z</time></trkpt><trkpt lat="45.327197866385376" lon="11.700719695428967"><ele>217.25</ele><time>2026-04-04T15:22:42.017Z</time></trkpt><trkpt lat="45.32730040850753" lon="11.700782339713209"><ele>215.5</ele><time>2026-04-04T15:22:43.017Z</time></trkpt><trkpt lat="45.32740898385962" lon="11.70087778011329"><ele>213.75</ele><time>2026-04-04T15:22:44.017Z</time></trkpt><trkpt lat="45.32753788695428" lon="11.700985275265834"><ele>212.0</ele><time>2026-04-04T15:22:45.017Z</time></trkpt><trkpt lat="45.32766556529047" lon="11.701090962893108"><ele>210.39999999999998</ele><time>2026-04-04T15:22:46.017Z</time></trkpt><trkpt lat="45.32778084668075" lon="11.701186719503248"><ele>208.79999999999998</ele><time>2026-04-04T15:22:47.017Z</time></trkpt><trkpt lat="45.32787049923075" lon="11.701250237498531"><ele>207.2</ele><time>2026-04-04T15:22:48.017Z</time></trkpt><trkpt lat="45.32794626836586" lon="11.70126652433349"><ele>205.6</ele><time>2026-04-04T15:22:49.017Z</time></trkpt><trkpt lat="45.32801613279724" lon="11.70123567120676"><ele>204.0</ele><time>2026-04-04T15:22:50.017Z</time></trkpt><trkpt lat="45.32809529759864" lon="11.701184854548677"><ele>207.0</ele><time>2026-04-04T15:22:51.017Z</time></trkpt><trkpt lat="45.328151001284674" lon="11.701057036998368"><ele>210.0</ele><time>2026-04-04T15:22:52.017Z</time></trkpt><trkpt lat="45.32818546028326" lon="11.700878880635054"><ele>213.0</ele><time>2026-04-04T15:22:53.017Z</time></trkpt><trkpt lat="45.32822029053641" lon="11.70068171057911"><ele>216.0</ele><time>2026-04-04T15:22:54.017Z</time></trkpt><trkpt lat="45.32825725195651" lon="11.700499907941719"><ele>216.0</ele><time>2026-04-04T15:22:55.017Z</time></trkpt><trkpt lat="45.328291296730036" lon="11.700370805439013"><ele>216.00000000000003</ele><time>2026-04-04T15:22:56.017Z</time></trkpt><trkpt lat="45.32835385304254" lon="11.700276136095688"><ele>216.00000000000003</ele><time>2026-04-04T15:22:57.017Z</time></trkpt><trkpt lat="45.32844925892246" lon="11.700204131792391"><ele>216.0</ele><time>2026-04-04T15:22:58.017Z</time></trkpt><trkpt lat="45.32856299436946" lon="11.70013945624218"><ele>216.0</ele><time>2026-04-04T15:22:59.017Z</time></trkpt><trkpt lat="45.32867187308539" lon="11.700079731002045"><ele>217.75</ele><time>2026-04-04T15:23:00.017Z</time></trkpt><trkpt lat="45.32877176412072" lon="11.700036966888218"><ele>219.5</ele><time>2026-04-04T15:23:01.017Z</time></trkpt><trkpt lat="45.32888815553833" lon="11.700030247864088"><ele>221.25</ele><time>2026-04-04T15:23:02.017Z</time></trkpt><trkpt lat="45.32901789778978" lon="11.700051242902145"><ele>223.0</ele><time>2026-04-04T15:23:03.017Z</time></trkpt><trkpt lat="45.32914868788978" lon="11.700072765669342"><ele>224.25</ele><time>2026-04-04T15:23:04.017Z</time></trkpt><trkpt lat="45.329294096794335" lon="11.70006623932098"><ele>225.5</ele><time>2026-04-04T15:23:05.017Z</time></trkpt><trkpt lat="45.329440997517324" lon="11.70001361453056"><ele>226.75</ele><time>2026-04-04T15:23:06.017Z</time></trkpt><trkpt lat="45.32957881190035" lon="11.699930416725982"><ele>228.0</ele><time>2026-04-04T15:23:07.017Z</time></trkpt><trkpt lat="45.32971744612157" lon="11.699874189492759"><ele>228.0</ele><time>2026-04-04T15:23:08.017Z</time></trkpt><trkpt lat="45.32984050747505" lon="11.699825654559623"><ele>228.0</ele><time>2026-04-04T15:23:09.017Z</time></trkpt><trkpt lat="45.329951344508984" lon="11.699815354130923"><ele>228.0</ele><time>2026-04-04T15:23:10.017Z</time></trkpt><trkpt lat="45.330029407272384" lon="11.699775332999232"><ele>228.0</ele><time>2026-04-04T15:23:11.017Z</time></trkpt><trkpt lat="45.330077424529975" lon="11.699649978866121"><ele>228.0</ele><time>2026-04-04T15:23:13.017Z</time></trkpt><trkpt lat="45.33005169993871" lon="11.69947775285355"><ele>228.0</ele><time>2026-04-04T15:23:15.017Z</time></trkpt><trkpt lat="45.32993699140087" lon="11.699451503166909"><ele>228.0</ele><time>2026-04-04T15:23:16.017Z</time></trkpt><trkpt lat="45.329844869126" lon="11.699512674062948"><ele>228.0</ele><time>2026-04-04T15:23:17.017Z</time></trkpt><trkpt lat="45.32973189105917" lon="11.699591510060834"><ele>228.0</ele><time>2026-04-04T15:23:18.017Z</time></trkpt><trkpt lat="45.3296482655316" lon="11.699638980386645"><ele>228.0</ele><time>2026-04-04T15:23:19.017Z</time></trkpt><trkpt lat="45.32958252878407" lon="11.699658674255291"><ele>228.0</ele><time>2026-04-04T15:23:20.017Z</time></trkpt><trkpt lat="45.32956120599533" lon="11.699531377952438"><ele>228.0</ele><time>2026-04-04T15:23:23.017Z</time></trkpt><trkpt lat="45.329630615175894" lon="11.699461400429648"><ele>228.0</ele><time>2026-04-04T15:23:24.017Z</time></trkpt><trkpt lat="45.329736793963754" lon="11.699409258249094"><ele>228.0</ele><time>2026-04-04T15:23:25.017Z</time></trkpt><trkpt lat="45.329861396431504" lon="11.699345576076315"><ele>228.0</ele><time>2026-04-04T15:23:26.017Z</time></trkpt><trkpt lat="45.32999159124877" lon="11.69928673601632"><ele>234.0</ele><time>2026-04-04T15:23:27.017Z</time></trkpt><trkpt lat="45.33012419350438" lon="11.699257872329534"><ele>240.0</ele><time>2026-04-04T15:23:28.017Z</time></trkpt><trkpt lat="45.33025956994513" lon="11.69927188596692"><ele>246.0</ele><time>2026-04-04T15:23:29.017Z</time></trkpt><trkpt lat="45.33039367264953" lon="11.699315902175165"><ele>252.0</ele><time>2026-04-04T15:23:30.017Z</time></trkpt><trkpt lat="45.33053011865242" lon="11.699387518277454"><ele>252.39999999999998</ele><time>2026-04-04T15:23:31.017Z</time></trkpt><trkpt lat="45.33065296903324" lon="11.699394372529026"><ele>252.79999999999998</ele><time>2026-04-04T15:23:32.017Z</time></trkpt><trkpt lat="45.33073960597745" lon="11.699423458773177"><ele>253.2</ele><time>2026-04-04T15:23:33.017Z</time></trkpt><trkpt lat="45.330847105871136" lon="11.69940235553903"><ele>253.6</ele><time>2026-04-04T15:23:35.017Z</time></trkpt><trkpt lat="45.33088987342738" lon="11.699244440198484"><ele>254.0</ele><time>2026-04-04T15:23:37.017Z</time></trkpt><trkpt lat="45.33076224384664" lon="11.699118539057515"><ele>254.0</ele><time>2026-04-04T15:23:39.018Z</time></trkpt><trkpt lat="45.33064607888676" lon="11.6990653506045"><ele>254.0</ele><time>2026-04-04T15:23:40.018Z</time></trkpt><trkpt lat="45.330488881519386" lon="11.69897555839634"><ele>254.0</ele><time>2026-04-04T15:23:41.018Z</time></trkpt><trkpt lat="45.3303368623012" lon="11.698908148259854"><ele>253.33333333333334</ele><time>2026-04-04T15:23:42.018Z</time></trkpt><trkpt lat="45.33017561714303" lon="11.69885842776221"><ele>252.66666666666669</ele><time>2026-04-04T15:23:43.018Z</time></trkpt><trkpt lat="45.33001589296335" lon="11.698840007204668"><ele>252.0</ele><time>2026-04-04T15:23:44.018Z</time></trkpt><trkpt lat="45.32985984454926" lon="11.698841710782707"><ele>250.75</ele><time>2026-04-04T15:23:45.018Z</time></trkpt><trkpt lat="45.32972517396556" lon="11.698860523953492"><ele>249.5</ele><time>2026-04-04T15:23:46.017Z</time></trkpt><trkpt lat="45.329607063507446" lon="11.698913135259422"><ele>248.25</ele><time>2026-04-04T15:23:47.018Z</time></trkpt><trkpt lat="45.32952631397376" lon="11.698953434238973"><ele>247.0</ele><time>2026-04-04T15:23:48.018Z</time></trkpt><trkpt lat="45.32942344336672" lon="11.698991500430004"><ele>247.0</ele><time>2026-04-04T15:23:50.018Z</time></trkpt><trkpt lat="45.32940326098456" lon="11.698821052669587"><ele>247.0</ele><time>2026-04-04T15:23:52.018Z</time></trkpt><trkpt lat="45.32944702876701" lon="11.698710638611661"><ele>247.0</ele><time>2026-04-04T15:23:53.018Z</time></trkpt><trkpt lat="45.3295116823564" lon="11.69856698695655"><ele>247.0</ele><time>2026-04-04T15:23:54.018Z</time></trkpt><trkpt lat="45.32958359344367" lon="11.69840691026201"><ele>247.75</ele><time>2026-04-04T15:23:55.018Z</time></trkpt><trkpt lat="45.32966910631112" lon="11.698253232511844"><ele>248.5</ele><time>2026-04-04T15:23:56.018Z</time></trkpt><trkpt lat="45.329749612224305" lon="11.698106535701239"><ele>249.25</ele><time>2026-04-04T15:23:57.018Z</time></trkpt><trkpt lat="45.329820312298615" lon="11.697965111145015"><ele>250.0</ele><time>2026-04-04T15:23:58.018Z</time></trkpt><trkpt lat="45.32988454013532" lon="11.697827051737457"><ele>254.0</ele><time>2026-04-04T15:23:59.018Z</time></trkpt><trkpt lat="45.32992361147913" lon="11.697658527039936"><ele>258.0</ele><time>2026-04-04T15:24:00.018Z</time></trkpt><trkpt lat="45.32995691681943" lon="11.697460670159217"><ele>262.0</ele><time>2026-04-04T15:24:01.018Z</time></trkpt><trkpt lat="45.32996374524938" lon="11.697238422698907"><ele>266.0</ele><time>2026-04-04T15:24:02.018Z</time></trkpt><trkpt lat="45.32992847604043" lon="11.697008389291891"><ele>266.0</ele><time>2026-04-04T15:24:03.018Z</time></trkpt><trkpt lat="45.329934352545955" lon="11.69680052732126"><ele>266.0</ele><time>2026-04-04T15:24:04.018Z</time></trkpt><trkpt lat="45.329941941671635" lon="11.69659619587491"><ele>266.0</ele><time>2026-04-04T15:24:05.018Z</time></trkpt><trkpt lat="45.32993694613758" lon="11.696412328929492"><ele>266.0</ele><time>2026-04-04T15:24:06.018Z</time></trkpt><trkpt lat="45.32992265070716" lon="11.696270187081122"><ele>266.0</ele><time>2026-04-04T15:24:07.018Z</time></trkpt><trkpt lat="45.32990305284629" lon="11.696127108920162"><ele>266.0</ele><time>2026-04-04T15:24:08.018Z</time></trkpt><trkpt lat="45.32981960714995" lon="11.696027239486225"><ele>266.0</ele><time>2026-04-04T15:24:09.018Z</time></trkpt><trkpt lat="45.32968856328709" lon="11.695988011056572"><ele>266.0</ele><time>2026-04-04T15:24:10.018Z</time></trkpt><trkpt lat="45.32954901194743" lon="11.696004464196237"><ele>268.6</ele><time>2026-04-04T15:24:11.018Z</time></trkpt><trkpt lat="45.329425834202574" lon="11.696022302910526"><ele>271.20000000000005</ele><time>2026-04-04T15:24:12.018Z</time></trkpt><trkpt lat="45.32933500759831" lon="11.696033543215183"><ele>273.79999999999995</ele><time>2026-04-04T15:24:13.018Z</time></trkpt><trkpt lat="45.329262396382354" lon="11.69603390159935"><ele>276.4</ele><time>2026-04-04T15:24:14.018Z</time></trkpt><trkpt lat="45.32920654985473" lon="11.696076453337247"><ele>279.0</ele><time>2026-04-04T15:24:15.018Z</time></trkpt><trkpt lat="45.32918974415483" lon="11.695858477017236"><ele>279.0</ele><time>2026-04-04T15:24:17.018Z</time></trkpt><trkpt lat="45.329204215372826" lon="11.695680963424712"><ele>279.0</ele><time>2026-04-04T15:24:18.018Z</time></trkpt><trkpt lat="45.32924745654122" lon="11.695484068307053"><ele>279.0</ele><time>2026-04-04T15:24:19.018Z</time></trkpt><trkpt lat="45.32930145815858" lon="11.695270488666589"><ele>279.0</ele><time>2026-04-04T15:24:20.017Z</time></trkpt><trkpt lat="45.329351777824584" lon="11.695052624331456"><ele>282.75</ele><time>2026-04-04T15:24:21.017Z</time></trkpt><trkpt lat="45.32940683594484" lon="11.694842910213648"><ele>286.5</ele><time>2026-04-04T15:24:22.017Z</time></trkpt><trkpt lat="45.32944388920723" lon="11.694647800237668"><ele>290.25</ele><time>2026-04-04T15:24:23.017Z</time></trkpt><trkpt lat="45.329459384957" lon="11.694474036494585"><ele>294.0</ele><time>2026-04-04T15:24:24.017Z</time></trkpt><trkpt lat="45.32944714392136" lon="11.694324671602788"><ele>294.5</ele><time>2026-04-04T15:24:25.017Z</time></trkpt><trkpt lat="45.32942914050249" lon="11.694183756003994"><ele>295.0</ele><time>2026-04-04T15:24:26.017Z</time></trkpt><trkpt lat="45.32937536290686" lon="11.694023476123801"><ele>295.5</ele><time>2026-04-04T15:24:27.017Z</time></trkpt><trkpt lat="45.329259076163574" lon="11.693841194783953"><ele>296.0</ele><time>2026-04-04T15:24:28.017Z</time></trkpt><trkpt lat="45.329139785405125" lon="11.69361756793931"><ele>294.33333333333337</ele><time>2026-04-04T15:24:29.017Z</time></trkpt><trkpt lat="45.32902145949835" lon="11.69336532941746"><ele>292.6666666666667</ele><time>2026-04-04T15:24:30.017Z</time></trkpt><trkpt lat="45.32891192606151" lon="11.693126276951126"><ele>291.0</ele><time>2026-04-04T15:24:31.017Z</time></trkpt><trkpt lat="45.328813029669895" lon="11.692908024170418"><ele>291.0</ele><time>2026-04-04T15:24:32.017Z</time></trkpt><trkpt lat="45.32873295550854" lon="11.692730619263887"><ele>291.0</ele><time>2026-04-04T15:24:33.017Z</time></trkpt><trkpt lat="45.32865823594873" lon="11.6925519439029"><ele>291.0</ele><time>2026-04-04T15:24:34.017Z</time></trkpt><trkpt lat="45.32860493208662" lon="11.692377751979697"><ele>291.0</ele><time>2026-04-04T15:24:35.017Z</time></trkpt><trkpt lat="45.328576662940876" lon="11.69221398370149"><ele>291.0</ele><time>2026-04-04T15:24:36.017Z</time></trkpt><trkpt lat="45.328579198531486" lon="11.692053208782593"><ele>291.0</ele><time>2026-04-04T15:24:37.017Z</time></trkpt><trkpt lat="45.32861996506351" lon="11.691881199754123"><ele>291.0</ele><time>2026-04-04T15:24:38.017Z</time></trkpt><trkpt lat="45.328692980903455" lon="11.691701793999112"><ele>291.0</ele><time>2026-04-04T15:24:39.017Z</time></trkpt><trkpt lat="45.32879503872116" lon="11.691524190199512"><ele>291.3333333333333</ele><time>2026-04-04T15:24:40.017Z</time></trkpt><trkpt lat="45.328912111865705" lon="11.691329629222754"><ele>291.66666666666663</ele><time>2026-04-04T15:24:41.017Z</time></trkpt><trkpt lat="45.329042084876114" lon="11.691104706950766"><ele>292.0</ele><time>2026-04-04T15:24:42.017Z</time></trkpt><trkpt lat="45.329172966727846" lon="11.690877389147358"><ele>292.0</ele><time>2026-04-04T15:24:43.017Z</time></trkpt><trkpt lat="45.32930462189812" lon="11.690650778221086"><ele>292.0</ele><time>2026-04-04T15:24:44.017Z</time></trkpt><trkpt lat="45.329417523350244" lon="11.690443386975025"><ele>292.0</ele><time>2026-04-04T15:24:45.017Z</time></trkpt><trkpt lat="45.32950987318064" lon="11.690235832390513"><ele>293.0</ele><time>2026-04-04T15:24:46.017Z</time></trkpt><trkpt lat="45.32958026038322" lon="11.69002023203641"><ele>294.0</ele><time>2026-04-04T15:24:47.017Z</time></trkpt><trkpt lat="45.32964185495432" lon="11.689781651040779"><ele>295.0</ele><time>2026-04-04T15:24:48.017Z</time></trkpt><trkpt lat="45.32970962022656" lon="11.689515290223161"><ele>288.3333333333333</ele><time>2026-04-04T15:24:49.017Z</time></trkpt><trkpt lat="45.32976437493928" lon="11.689228650931126"><ele>281.6666666666667</ele><time>2026-04-04T15:24:50.017Z</time></trkpt><trkpt lat="45.329850941023004" lon="11.688965621325002"><ele>275.0</ele><time>2026-04-04T15:24:51.017Z</time></trkpt><trkpt lat="45.32992404941713" lon="11.68871721355954"><ele>277.33333333333337</ele><time>2026-04-04T15:24:52.017Z</time></trkpt><trkpt lat="45.32999788713475" lon="11.688486101847262"><ele>279.6666666666667</ele><time>2026-04-04T15:24:53.017Z</time></trkpt><trkpt lat="45.33007432209026" lon="11.688291067399025"><ele>282.0</ele><time>2026-04-04T15:24:54.017Z</time></trkpt><trkpt lat="45.33016220942399" lon="11.688138593353287"><ele>282.0</ele><time>2026-04-04T15:24:55.017Z</time></trkpt><trkpt lat="45.330259762863605" lon="11.68803340137412"><ele>282.0</ele><time>2026-04-04T15:24:56.017Z</time></trkpt><trkpt lat="45.33038351839634" lon="11.687956647870438"><ele>282.0</ele><time>2026-04-04T15:24:57.017Z</time></trkpt><trkpt lat="45.33053557821797" lon="11.687910857540908"><ele>282.0</ele><time>2026-04-04T15:24:58.017Z</time></trkpt><trkpt lat="45.3307055975994" lon="11.687890093117588"><ele>278.3333333333333</ele><time>2026-04-04T15:24:59.017Z</time></trkpt><trkpt lat="45.33086946797664" lon="11.687872237740645"><ele>274.66666666666663</ele><time>2026-04-04T15:25:00.017Z</time></trkpt><trkpt lat="45.33102286691471" lon="11.687837682139556"><ele>271.0</ele><time>2026-04-04T15:25:01.017Z</time></trkpt><trkpt lat="45.33116221532704" lon="11.687779970053871"><ele>268.5</ele><time>2026-04-04T15:25:02.017Z</time></trkpt><trkpt lat="45.33128777526207" lon="11.687711422322428"><ele>266.0</ele><time>2026-04-04T15:25:03.017Z</time></trkpt><trkpt lat="45.33139934738699" lon="11.687644416044197"><ele>263.5</ele><time>2026-04-04T15:25:04.017Z</time></trkpt><trkpt lat="45.331495390508366" lon="11.687560969163911"><ele>261.0</ele><time>2026-04-04T15:25:05.017Z</time></trkpt><trkpt lat="45.33157731465335" lon="11.687465207059214"><ele>261.0</ele><time>2026-04-04T15:25:06.017Z</time></trkpt><trkpt lat="45.33162967811826" lon="11.687352735512874"><ele>261.0</ele><time>2026-04-04T15:25:07.017Z</time></trkpt><trkpt lat="45.33163582914286" lon="11.68719268863916"><ele>261.0</ele><time>2026-04-04T15:25:08.017Z</time></trkpt><trkpt lat="45.331610508989975" lon="11.687006622450804"><ele>261.0</ele><time>2026-04-04T15:25:09.017Z</time></trkpt><trkpt lat="45.33156945498298" lon="11.68678639463525"><ele>262.6666666666667</ele><time>2026-04-04T15:25:10.017Z</time></trkpt><trkpt lat="45.331511173730945" lon="11.686589812121118"><ele>264.33333333333337</ele><time>2026-04-04T15:25:11.017Z</time></trkpt><trkpt lat="45.33142907574475" lon="11.686409565979183"><ele>266.0</ele><time>2026-04-04T15:25:12.017Z</time></trkpt><trkpt lat="45.33132524953505" lon="11.686246521274054"><ele>266.33333333333337</ele><time>2026-04-04T15:25:13.017Z</time></trkpt><trkpt lat="45.33118691955569" lon="11.686092548022193"><ele>266.6666666666667</ele><time>2026-04-04T15:25:14.017Z</time></trkpt><trkpt lat="45.33104210308686" lon="11.685958099452021"><ele>267.0</ele><time>2026-04-04T15:25:15.017Z</time></trkpt><trkpt lat="45.330913381353916" lon="11.685829497879565"><ele>267.0</ele><time>2026-04-04T15:25:16.017Z</time></trkpt><trkpt lat="45.33081436625659" lon="11.685717572995515"><ele>267.0</ele><time>2026-04-04T15:25:17.017Z</time></trkpt><trkpt lat="45.33074645921602" lon="11.685604764204601"><ele>267.0</ele><time>2026-04-04T15:25:18.017Z</time></trkpt><trkpt lat="45.33070581466332" lon="11.685476345595738"><ele>267.0</ele><time>2026-04-04T15:25:19.017Z</time></trkpt><trkpt lat="45.33069805734784" lon="11.685342808613191"><ele>267.0</ele><time>2026-04-04T15:25:20.017Z</time></trkpt><trkpt lat="45.33074793854284" lon="11.685186322427242"><ele>263.5</ele><time>2026-04-04T15:25:22.017Z</time></trkpt><trkpt lat="45.33089535861103" lon="11.685152589304314"><ele>260.0</ele><time>2026-04-04T15:25:24.017Z</time></trkpt><trkpt lat="45.33099994278435" lon="11.685159420472953"><ele>256.5</ele><time>2026-04-04T15:25:25.017Z</time></trkpt><trkpt lat="45.331129515182774" lon="11.685167656923873"><ele>253.0</ele><time>2026-04-04T15:25:26.017Z</time></trkpt><trkpt lat="45.33126210768451" lon="11.685150599012808"><ele>254.0</ele><time>2026-04-04T15:25:27.017Z</time></trkpt><trkpt lat="45.331412393566715" lon="11.68516615815897"><ele>255.0</ele><time>2026-04-04T15:25:28.017Z</time></trkpt><trkpt lat="45.331579710509715" lon="11.685083994827822"><ele>256.0</ele><time>2026-04-04T15:25:29.017Z</time></trkpt><trkpt lat="45.33174698279763" lon="11.684958047295902"><ele>256.0</ele><time>2026-04-04T15:25:30.017Z</time></trkpt><trkpt lat="45.331903653341755" lon="11.684829071287757"><ele>256.0</ele><time>2026-04-04T15:25:31.017Z</time></trkpt><trkpt lat="45.33206980035888" lon="11.684692294737705"><ele>256.0</ele><time>2026-04-04T15:25:32.017Z</time></trkpt><trkpt lat="45.332223756155905" lon="11.684564018322579"><ele>250.66666666666666</ele><time>2026-04-04T15:25:33.017Z</time></trkpt><trkpt lat="45.332369948269985" lon="11.684421721418778"><ele>245.33333333333331</ele><time>2026-04-04T15:25:34.017Z</time></trkpt><trkpt lat="45.33248370402796" lon="11.684261107211452"><ele>240.0</ele><time>2026-04-04T15:25:35.017Z</time></trkpt><trkpt lat="45.33260214010153" lon="11.684115250925082"><ele>240.0</ele><time>2026-04-04T15:25:36.017Z</time></trkpt><trkpt lat="45.33273391766063" lon="11.683981415833692"><ele>240.0</ele><time>2026-04-04T15:25:37.017Z</time></trkpt><trkpt lat="45.33289257546661" lon="11.68385346833801"><ele>240.0</ele><time>2026-04-04T15:25:38.017Z</time></trkpt><trkpt lat="45.333055822566244" lon="11.683728690054108"><ele>242.66666666666669</ele><time>2026-04-04T15:25:39.017Z</time></trkpt><trkpt lat="45.33322722105936" lon="11.683623037088237"><ele>245.33333333333334</ele><time>2026-04-04T15:25:40.017Z</time></trkpt><trkpt lat="45.33338457054092" lon="11.683490601056516"><ele>248.0</ele><time>2026-04-04T15:25:41.017Z</time></trkpt><trkpt lat="45.333564844315504" lon="11.683425824987642"><ele>241.0</ele><time>2026-04-04T15:25:42.017Z</time></trkpt><trkpt lat="45.333753952713046" lon="11.683372845659292"><ele>234.0</ele><time>2026-04-04T15:25:43.019Z</time></trkpt><trkpt lat="45.33394783700164" lon="11.68332211080856"><ele>227.0</ele><time>2026-04-04T15:25:44.019Z</time></trkpt><trkpt lat="45.33412947831509" lon="11.68325755635393"><ele>227.0</ele><time>2026-04-04T15:25:45.019Z</time></trkpt><trkpt lat="45.334303472627525" lon="11.683159811305911"><ele>227.0</ele><time>2026-04-04T15:25:46.018Z</time></trkpt><trkpt lat="45.33446625526917" lon="11.683012492151587"><ele>227.0</ele><time>2026-04-04T15:25:47.018Z</time></trkpt><trkpt lat="45.33462972570885" lon="11.68286042635256"><ele>221.33333333333334</ele><time>2026-04-04T15:25:48.018Z</time></trkpt><trkpt lat="45.334793293182884" lon="11.682673864953443"><ele>215.66666666666669</ele><time>2026-04-04T15:25:49.018Z</time></trkpt><trkpt lat="45.334966733439686" lon="11.682469085440216"><ele>210.0</ele><time>2026-04-04T15:25:50.019Z</time></trkpt><trkpt lat="45.335130688216495" lon="11.682258900972448"><ele>210.0</ele><time>2026-04-04T15:25:51.019Z</time></trkpt><trkpt lat="45.33530562156418" lon="11.682073476756049"><ele>210.0</ele><time>2026-04-04T15:25:52.018Z</time></trkpt><trkpt lat="45.335461708545516" lon="11.681890227008083"><ele>210.0</ele><time>2026-04-04T15:25:53.018Z</time></trkpt><trkpt lat="45.33561604822732" lon="11.68170982860872"><ele>209.0</ele><time>2026-04-04T15:25:54.018Z</time></trkpt><trkpt lat="45.335762682321175" lon="11.681538589772542"><ele>208.0</ele><time>2026-04-04T15:25:55.018Z</time></trkpt><trkpt lat="45.335886063497355" lon="11.681365416502038"><ele>207.0</ele><time>2026-04-04T15:25:56.018Z</time></trkpt><trkpt lat="45.33601299581513" lon="11.68122482835755"><ele>207.0</ele><time>2026-04-04T15:25:57.018Z</time></trkpt><trkpt lat="45.336131229872464" lon="11.68110193454795"><ele>207.0</ele><time>2026-04-04T15:25:58.018Z</time></trkpt><trkpt lat="45.336231405627984" lon="11.68098730137726"><ele>207.0</ele><time>2026-04-04T15:25:59.018Z</time></trkpt><trkpt lat="45.33631307672956" lon="11.680874267134486"><ele>207.0</ele><time>2026-04-04T15:26:00.018Z</time></trkpt><trkpt lat="45.33636600732116" lon="11.680739661835416"><ele>206.33333333333334</ele><time>2026-04-04T15:26:01.018Z</time></trkpt><trkpt lat="45.336383697108005" lon="11.68059496670844"><ele>205.66666666666669</ele><time>2026-04-04T15:26:02.018Z</time></trkpt><trkpt lat="45.33639339087078" lon="11.6804698705193"><ele>205.0</ele><time>2026-04-04T15:26:03.018Z</time></trkpt><trkpt lat="45.33642234746818" lon="11.680365312733977"><ele>204.33333333333334</ele><time>2026-04-04T15:26:04.018Z</time></trkpt><trkpt lat="45.336484384866424" lon="11.680304632224162"><ele>203.66666666666669</ele><time>2026-04-04T15:26:05.018Z</time></trkpt><trkpt lat="45.33656634137066" lon="11.680303658240524"><ele>203.0</ele><time>2026-04-04T15:26:06.018Z</time></trkpt><trkpt lat="45.33663410578325" lon="11.680381595325457"><ele>203.0</ele><time>2026-04-04T15:26:07.018Z</time></trkpt><trkpt lat="45.336713011200324" lon="11.68043051149562"><ele>203.0</ele><time>2026-04-04T15:26:08.018Z</time></trkpt><trkpt lat="45.336778088442415" lon="11.680501299773766"><ele>203.0</ele><time>2026-04-04T15:26:09.018Z</time></trkpt><trkpt lat="45.336870731217566" lon="11.680522904786995"><ele>203.0</ele><time>2026-04-04T15:26:10.018Z</time></trkpt><trkpt lat="45.33696663242674" lon="11.680487535960317"><ele>203.0</ele><time>2026-04-04T15:26:11.018Z</time></trkpt><trkpt lat="45.33704942312149" lon="11.680349531515995"><ele>202.4</ele><time>2026-04-04T15:26:12.018Z</time></trkpt><trkpt lat="45.337123404833505" lon="11.68021675442223"><ele>201.8</ele><time>2026-04-04T15:26:13.018Z</time></trkpt><trkpt lat="45.33718574441816" lon="11.680100859493134"><ele>201.2</ele><time>2026-04-04T15:26:14.018Z</time></trkpt><trkpt lat="45.3372411611446" lon="11.67998975138502"><ele>200.6</ele><time>2026-04-04T15:26:15.018Z</time></trkpt><trkpt lat="45.33726694043026" lon="11.679886424718855"><ele>200.0</ele><time>2026-04-04T15:26:16.018Z</time></trkpt><trkpt lat="45.337249576002705" lon="11.67977951205793"><ele>200.00000000000003</ele><time>2026-04-04T15:26:17.018Z</time></trkpt><trkpt lat="45.337172302620345" lon="11.679733612360163"><ele>200.0</ele><time>2026-04-04T15:26:18.018Z</time></trkpt><trkpt lat="45.33705183259068" lon="11.6797909423925"><ele>200.0</ele><time>2026-04-04T15:26:20.018Z</time></trkpt><trkpt lat="45.3369904432761" lon="11.679833389996706"><ele>200.0</ele><time>2026-04-04T15:26:21.018Z</time></trkpt><trkpt lat="45.33691363400855" lon="11.679820387496655"><ele>200.00000000000003</ele><time>2026-04-04T15:26:23.018Z</time></trkpt><trkpt lat="45.33696285144493" lon="11.679724625406239"><ele>200.0</ele><time>2026-04-04T15:26:25.018Z</time></trkpt><trkpt lat="45.337032176207344" lon="11.679658074792718"><ele>200.0</ele><time>2026-04-04T15:26:26.018Z</time></trkpt><trkpt lat="45.33712848322915" lon="11.67958344374215"><ele>200.0</ele><time>2026-04-04T15:26:27.018Z</time></trkpt><trkpt lat="45.33722502466133" lon="11.679520678429329"><ele>200.0</ele><time>2026-04-04T15:26:28.018Z</time></trkpt><trkpt lat="45.33731181399149" lon="11.679511100757296"><ele>200.0</ele><time>2026-04-04T15:26:29.018Z</time></trkpt><trkpt lat="45.337381870804066" lon="11.679538971318541"><ele>200.0</ele><time>2026-04-04T15:26:30.018Z</time></trkpt><trkpt lat="45.337497389844074" lon="11.679576266354129"><ele>195.4</ele><time>2026-04-04T15:26:32.018Z</time></trkpt><trkpt lat="45.337599249293305" lon="11.679430785004856"><ele>190.8</ele><time>2026-04-04T15:26:34.018Z</time></trkpt><trkpt lat="45.33758864075238" lon="11.679310907910363"><ele>186.2</ele><time>2026-04-04T15:26:35.018Z</time></trkpt><trkpt lat="45.33750809512673" lon="11.679222119011694"><ele>181.6</ele><time>2026-04-04T15:26:36.018Z</time></trkpt><trkpt lat="45.33742253068817" lon="11.679170567546073"><ele>177.0</ele><time>2026-04-04T15:26:37.018Z</time></trkpt><trkpt lat="45.33732713907801" lon="11.679165065222971"><ele>177.0</ele><time>2026-04-04T15:26:38.018Z</time></trkpt><trkpt lat="45.33725703355235" lon="11.679182318989595"><ele>177.0</ele><time>2026-04-04T15:26:39.018Z</time></trkpt><trkpt lat="45.33717184654721" lon="11.67914679137429"><ele>177.0</ele><time>2026-04-04T15:26:41.018Z</time></trkpt><trkpt lat="45.33718501866877" lon="11.67898977742624"><ele>177.0</ele><time>2026-04-04T15:26:43.018Z</time></trkpt><trkpt lat="45.33725585144486" lon="11.678959558282253"><ele>177.0</ele><time>2026-04-04T15:26:44.018Z</time></trkpt><trkpt lat="45.337359575890865" lon="11.678971244195697"><ele>177.0</ele><time>2026-04-04T15:26:45.018Z</time></trkpt><trkpt lat="45.33747288568541" lon="11.67901943229996"><ele>177.0</ele><time>2026-04-04T15:26:46.018Z</time></trkpt><trkpt lat="45.33757564079323" lon="11.679091852447266"><ele>177.0</ele><time>2026-04-04T15:26:47.018Z</time></trkpt><trkpt lat="45.33765573771974" lon="11.679177785622732"><ele>177.0</ele><time>2026-04-04T15:26:48.018Z</time></trkpt><trkpt lat="45.33772132967185" lon="11.679241579432112"><ele>177.0</ele><time>2026-04-04T15:26:49.018Z</time></trkpt><trkpt lat="45.3377832670629" lon="11.679272987028442"><ele>177.0</ele><time>2026-04-04T15:26:50.018Z</time></trkpt><trkpt lat="45.337874221468184" lon="11.679188806885575"><ele>177.0</ele><time>2026-04-04T15:26:52.018Z</time></trkpt><trkpt lat="45.33783644013278" lon="11.67900804300419"><ele>177.0</ele><time>2026-04-04T15:26:54.018Z</time></trkpt><trkpt lat="45.33773901082491" lon="11.678975923334114"><ele>177.0</ele><time>2026-04-04T15:26:55.018Z</time></trkpt><trkpt lat="45.33766339547213" lon="11.678938026291432"><ele>177.0</ele><time>2026-04-04T15:26:56.018Z</time></trkpt><trkpt lat="45.33759265451743" lon="11.678899933092948"><ele>177.0</ele><time>2026-04-04T15:26:57.018Z</time></trkpt><trkpt lat="45.337523375507864" lon="11.678818161832078"><ele>177.0</ele><time>2026-04-04T15:26:59.018Z</time></trkpt><trkpt lat="45.33757893044096" lon="11.678734347956413"><ele>177.0</ele><time>2026-04-04T15:27:01.018Z</time></trkpt><trkpt lat="45.337649015484935" lon="11.67875230498651"><ele>177.0</ele><time>2026-04-04T15:27:02.018Z</time></trkpt><trkpt lat="45.337731166025186" lon="11.67883740359803"><ele>177.0</ele><time>2026-04-04T15:27:03.018Z</time></trkpt><trkpt lat="45.337822453164016" lon="11.678904324584307"><ele>177.0</ele><time>2026-04-04T15:27:04.018Z</time></trkpt><trkpt lat="45.33792665295965" lon="11.678922491639742"><ele>177.0</ele><time>2026-04-04T15:27:05.018Z</time></trkpt><trkpt lat="45.33804707536064" lon="11.67889931138319"><ele>177.0</ele><time>2026-04-04T15:27:06.018Z</time></trkpt><trkpt lat="45.33816322425072" lon="11.678831055751537"><ele>177.0</ele><time>2026-04-04T15:27:07.018Z</time></trkpt><trkpt lat="45.338266671245506" lon="11.678746310472558"><ele>177.0</ele><time>2026-04-04T15:27:08.018Z</time></trkpt><trkpt lat="45.33836137911781" lon="11.678676167830917"><ele>176.75</ele><time>2026-04-04T15:27:09.018Z</time></trkpt><trkpt lat="45.338456560644794" lon="11.678639251940492"><ele>176.5</ele><time>2026-04-04T15:27:10.018Z</time></trkpt><trkpt lat="45.338565764870594" lon="11.678631488280312"><ele>176.25</ele><time>2026-04-04T15:27:11.018Z</time></trkpt><trkpt lat="45.33868780007275" lon="11.678682609440438"><ele>176.0</ele><time>2026-04-04T15:27:12.018Z</time></trkpt><trkpt lat="45.3388228157446" lon="11.678767230132431"><ele>173.0</ele><time>2026-04-04T15:27:13.018Z</time></trkpt><trkpt lat="45.338980227429516" lon="11.678820746534555"><ele>170.0</ele><time>2026-04-04T15:27:14.018Z</time></trkpt><trkpt lat="45.339158050891136" lon="11.678832810534066"><ele>167.0</ele><time>2026-04-04T15:27:15.018Z</time></trkpt><trkpt lat="45.33935943646317" lon="11.67883580020604"><ele>167.0</ele><time>2026-04-04T15:27:16.018Z</time></trkpt><trkpt lat="45.3395411163609" lon="11.678843060275527"><ele>167.0</ele><time>2026-04-04T15:27:17.018Z</time></trkpt><trkpt lat="45.339710010198885" lon="11.67886098339034"><ele>167.0</ele><time>2026-04-04T15:27:18.018Z</time></trkpt><trkpt lat="45.33986440391403" lon="11.678873655613279"><ele>163.25</ele><time>2026-04-04T15:27:19.018Z</time></trkpt><trkpt lat="45.33999548285515" lon="11.678851061976893"><ele>159.5</ele><time>2026-04-04T15:27:20.018Z</time></trkpt><trkpt lat="45.34010640006863" lon="11.678786333917738"><ele>155.75</ele><time>2026-04-04T15:27:21.018Z</time></trkpt><trkpt lat="45.34020554732525" lon="11.6786604651495"><ele>152.0</ele><time>2026-04-04T15:27:22.018Z</time></trkpt><trkpt lat="45.34028104304534" lon="11.678481915656311"><ele>149.66666666666666</ele><time>2026-04-04T15:27:23.018Z</time></trkpt><trkpt lat="45.34034318444213" lon="11.678277250160363"><ele>147.33333333333334</ele><time>2026-04-04T15:27:24.018Z</time></trkpt><trkpt lat="45.340404354108934" lon="11.678075407907563"><ele>145.0</ele><time>2026-04-04T15:27:25.018Z</time></trkpt><trkpt lat="45.34046081453813" lon="11.677858432675004"><ele>144.0</ele><time>2026-04-04T15:27:26.018Z</time></trkpt><trkpt lat="45.34054037603547" lon="11.677686490213741"><ele>143.0</ele><time>2026-04-04T15:27:27.018Z</time></trkpt><trkpt lat="45.34060684219801" lon="11.677508301376813"><ele>142.0</ele><time>2026-04-04T15:27:28.018Z</time></trkpt><trkpt lat="45.340690984622114" lon="11.677348361999254"><ele>141.0</ele><time>2026-04-04T15:27:29.018Z</time></trkpt><trkpt lat="45.340801408040484" lon="11.67721053466069"><ele>140.5</ele><time>2026-04-04T15:27:30.018Z</time></trkpt><trkpt lat="45.3409312532807" lon="11.677116952313334"><ele>140.0</ele><time>2026-04-04T15:27:31.018Z</time></trkpt><trkpt lat="45.341068974127" lon="11.67704827504244"><ele>139.5</ele><time>2026-04-04T15:27:32.018Z</time></trkpt><trkpt lat="45.34120901406556" lon="11.677007298230679"><ele>139.0</ele><time>2026-04-04T15:27:33.018Z</time></trkpt><trkpt lat="45.34134350380086" lon="11.676994182859472"><ele>139.0</ele><time>2026-04-04T15:27:34.018Z</time></trkpt><trkpt lat="45.34146957576322" lon="11.676977764136847"><ele>139.0</ele><time>2026-04-04T15:27:35.018Z</time></trkpt><trkpt lat="45.34159708393268" lon="11.676953301491125"><ele>139.0</ele><time>2026-04-04T15:27:36.018Z</time></trkpt><trkpt lat="45.341740478874755" lon="11.676939549990117"><ele>139.0</ele><time>2026-04-04T15:27:37.018Z</time></trkpt><trkpt lat="45.341894488007426" lon="11.676872581669222"><ele>139.0</ele><time>2026-04-04T15:27:38.018Z</time></trkpt><trkpt lat="45.34205044650416" lon="11.676753159368781"><ele>139.0</ele><time>2026-04-04T15:27:39.018Z</time></trkpt><trkpt lat="45.34221200487428" lon="11.676627082995044"><ele>139.0</ele><time>2026-04-04T15:27:40.018Z</time></trkpt><trkpt lat="45.342367208013954" lon="11.676504924648311"><ele>141.33333333333334</ele><time>2026-04-04T15:27:41.018Z</time></trkpt><trkpt lat="45.34251427297773" lon="11.676388740736854"><ele>143.66666666666666</ele><time>2026-04-04T15:27:42.018Z</time></trkpt><trkpt lat="45.34265424229018" lon="11.676275448177659"><ele>146.0</ele><time>2026-04-04T15:27:43.018Z</time></trkpt><trkpt lat="45.342789439925134" lon="11.676166017900997"><ele>147.0</ele><time>2026-04-04T15:27:44.018Z</time></trkpt><trkpt lat="45.34292060386132" lon="11.676062276052175"><ele>148.0</ele><time>2026-04-04T15:27:45.018Z</time></trkpt><trkpt lat="45.343047940953284" lon="11.675979012681957"><ele>149.0</ele><time>2026-04-04T15:27:46.018Z</time></trkpt><trkpt lat="45.343179629401384" lon="11.675898934672517"><ele>150.0</ele><time>2026-04-04T15:27:47.018Z</time></trkpt><trkpt lat="45.34332353113564" lon="11.67586381476179"><ele>150.0</ele><time>2026-04-04T15:27:48.018Z</time></trkpt><trkpt lat="45.343461627767844" lon="11.675836669017187"><ele>150.0</ele><time>2026-04-04T15:27:49.019Z</time></trkpt><trkpt lat="45.34360068327676" lon="11.675806327401478"><ele>150.0</ele><time>2026-04-04T15:27:50.019Z</time></trkpt><trkpt lat="45.34372995832865" lon="11.675760961114376"><ele>150.0</ele><time>2026-04-04T15:27:51.019Z</time></trkpt><trkpt lat="45.34384935585337" lon="11.675703064170275"><ele>149.0</ele><time>2026-04-04T15:27:52.019Z</time></trkpt><trkpt lat="45.34396598837941" lon="11.675638250077016"><ele>148.0</ele><time>2026-04-04T15:27:53.019Z</time></trkpt><trkpt lat="45.344090490361346" lon="11.675573777367218"><ele>147.0</ele><time>2026-04-04T15:27:54.019Z</time></trkpt><trkpt lat="45.34421521896055" lon="11.675504791203053"><ele>146.0</ele><time>2026-04-04T15:27:55.019Z</time></trkpt><trkpt lat="45.34433758903411" lon="11.6754372244132"><ele>146.0</ele><time>2026-04-04T15:27:56.019Z</time></trkpt><trkpt lat="45.3444661384912" lon="11.675362873504735"><ele>146.0</ele><time>2026-04-04T15:27:57.019Z</time></trkpt><trkpt lat="45.34462185335313" lon="11.675326653271572"><ele>146.0</ele><time>2026-04-04T15:27:58.019Z</time></trkpt><trkpt lat="45.344777096870196" lon="11.675252032349125"><ele>149.0</ele><time>2026-04-04T15:27:59.019Z</time></trkpt><trkpt lat="45.34493794285311" lon="11.675168476234246"><ele>152.0</ele><time>2026-04-04T15:28:00.019Z</time></trkpt><trkpt lat="45.34510090181169" lon="11.675080010411033"><ele>155.0</ele><time>2026-04-04T15:28:01.019Z</time></trkpt><trkpt lat="45.34525578553726" lon="11.674999871210444"><ele>155.0</ele><time>2026-04-04T15:28:02.019Z</time></trkpt><trkpt lat="45.345390130548104" lon="11.674927214697282"><ele>155.0</ele><time>2026-04-04T15:28:03.019Z</time></trkpt><trkpt lat="45.34551075676634" lon="11.674867630098454"><ele>155.0</ele><time>2026-04-04T15:28:04.019Z</time></trkpt><trkpt lat="45.34564253709458" lon="11.67479101607478"><ele>155.0</ele><time>2026-04-04T15:28:05.019Z</time></trkpt><trkpt lat="45.34578296792437" lon="11.674691074039952"><ele>153.0</ele><time>2026-04-04T15:28:06.019Z</time></trkpt><trkpt lat="45.34592487900695" lon="11.674575570212355"><ele>151.0</ele><time>2026-04-04T15:28:07.019Z</time></trkpt><trkpt lat="45.34605527470588" lon="11.674450693826598"><ele>149.0</ele><time>2026-04-04T15:28:08.019Z</time></trkpt><trkpt lat="45.346174296390075" lon="11.67433502133718"><ele>148.25</ele><time>2026-04-04T15:28:09.019Z</time></trkpt><trkpt lat="45.346302728371356" lon="11.674226376444379"><ele>147.5</ele><time>2026-04-04T15:28:10.019Z</time></trkpt><trkpt lat="45.346435079442955" lon="11.674116357634116"><ele>146.75</ele><time>2026-04-04T15:28:11.019Z</time></trkpt><trkpt lat="45.34655547103623" lon="11.674003188719885"><ele>146.0</ele><time>2026-04-04T15:28:12.019Z</time></trkpt><trkpt lat="45.34666529680357" lon="11.673909499311709"><ele>146.0</ele><time>2026-04-04T15:28:13.019Z</time></trkpt><trkpt lat="45.34677781422823" lon="11.67381352576733"><ele>146.0</ele><time>2026-04-04T15:28:14.019Z</time></trkpt><trkpt lat="45.34688599557623" lon="11.673715764589003"><ele>146.0</ele><time>2026-04-04T15:28:15.019Z</time></trkpt><trkpt lat="45.34699383878249" lon="11.67362538196057"><ele>146.0</ele><time>2026-04-04T15:28:16.019Z</time></trkpt><trkpt lat="45.34710571080236" lon="11.673573147507863"><ele>147.5</ele><time>2026-04-04T15:28:17.019Z</time></trkpt><trkpt lat="45.34720485596568" lon="11.673487013899612"><ele>149.0</ele><time>2026-04-04T15:28:18.019Z</time></trkpt><trkpt lat="45.347309294080794" lon="11.673407099495547"><ele>150.5</ele><time>2026-04-04T15:28:19.019Z</time></trkpt><trkpt lat="45.34741585192222" lon="11.673330019077303"><ele>152.0</ele><time>2026-04-04T15:28:20.019Z</time></trkpt><trkpt lat="45.34752036450772" lon="11.673256592638772"><ele>152.0</ele><time>2026-04-04T15:28:21.019Z</time></trkpt><trkpt lat="45.34761572243587" lon="11.6731904994407"><ele>152.0</ele><time>2026-04-04T15:28:22.019Z</time></trkpt><trkpt lat="45.34770364003921" lon="11.673134415583336"><ele>152.0</ele><time>2026-04-04T15:28:23.019Z</time></trkpt><trkpt lat="45.34778078258307" lon="11.673088374520939"><ele>152.0</ele><time>2026-04-04T15:28:24.019Z</time></trkpt><trkpt lat="45.34784673850525" lon="11.673040223807071"><ele>152.0</ele><time>2026-04-04T15:28:25.019Z</time></trkpt><trkpt lat="45.34795574030444" lon="11.672959851628073"><ele>152.0</ele><time>2026-04-04T15:28:27.019Z</time></trkpt><trkpt lat="45.348014843592594" lon="11.672920971205036"><ele>152.0</ele><time>2026-04-04T15:28:28.019Z</time></trkpt><trkpt lat="45.3480748027572" lon="11.672878556502104"><ele>152.0</ele><time>2026-04-04T15:28:29.019Z</time></trkpt><trkpt lat="45.34816977745212" lon="11.672807389765543"><ele>152.0</ele><time>2026-04-04T15:28:31.019Z</time></trkpt><trkpt lat="45.34828206584577" lon="11.6727560034495"><ele>152.0</ele><time>2026-04-04T15:28:33.019Z</time></trkpt><trkpt lat="45.34834070399784" lon="11.672718830807645"><ele>152.0</ele><time>2026-04-04T15:28:34.019Z</time></trkpt><trkpt lat="45.34839780442253" lon="11.67265892820339"><ele>153.2</ele><time>2026-04-04T15:28:35.019Z</time></trkpt><trkpt lat="45.34849498772107" lon="11.672633183789147"><ele>154.39999999999998</ele><time>2026-04-04T15:28:37.019Z</time></trkpt><trkpt lat="45.34856054526378" lon="11.672615533544702"><ele>155.60000000000002</ele><time>2026-04-04T15:28:39.019Z</time></trkpt><trkpt lat="45.34864558764847" lon="11.672585279489237"><ele>156.8</ele><time>2026-04-04T15:28:43.019Z</time></trkpt><trkpt lat="45.34871220033983" lon="11.672562521490134"><ele>158.0</ele><time>2026-04-04T15:28:56.019Z</time></trkpt><trkpt lat="45.34866598389263" lon="11.672365242908056"><ele>158.0</ele><time>2026-04-04T15:28:58.019Z</time></trkpt><trkpt lat="45.348596421477396" lon="11.67230954812188"><ele>158.0</ele><time>2026-04-04T15:28:59.019Z</time></trkpt><trkpt lat="45.34848858503325" lon="11.67225771527319"><ele>158.0</ele><time>2026-04-04T15:29:00.019Z</time></trkpt><trkpt lat="45.348376565190414" lon="11.672233280566518"><ele>158.0</ele><time>2026-04-04T15:29:01.019Z</time></trkpt><trkpt lat="45.348249717263876" lon="11.672172967625581"><ele>158.0</ele><time>2026-04-04T15:29:02.019Z</time></trkpt><trkpt lat="45.34811781635376" lon="11.672125403320072"><ele>158.25</ele><time>2026-04-04T15:29:03.019Z</time></trkpt><trkpt lat="45.347988154554294" lon="11.672073260016283"><ele>158.5</ele><time>2026-04-04T15:29:04.019Z</time></trkpt><trkpt lat="45.34786059385459" lon="11.672022727302465"><ele>158.75</ele><time>2026-04-04T15:29:05.019Z</time></trkpt><trkpt lat="45.34774052151532" lon="11.671972896401082"><ele>159.0</ele><time>2026-04-04T15:29:06.019Z</time></trkpt><trkpt lat="45.34763704919608" lon="11.671930575176313"><ele>158.25</ele><time>2026-04-04T15:29:07.019Z</time></trkpt><trkpt lat="45.34753403034823" lon="11.671891663134328"><ele>157.5</ele><time>2026-04-04T15:29:08.019Z</time></trkpt><trkpt lat="45.34741974372088" lon="11.671848584250048"><ele>156.75</ele><time>2026-04-04T15:29:09.019Z</time></trkpt><trkpt lat="45.34729730832247" lon="11.67182396610687"><ele>156.0</ele><time>2026-04-04T15:29:10.019Z</time></trkpt><trkpt lat="45.347192683574384" lon="11.671776888624889"><ele>156.0</ele><time>2026-04-04T15:29:11.019Z</time></trkpt><trkpt lat="45.347086008903716" lon="11.671758648123632"><ele>156.0</ele><time>2026-04-04T15:29:12.019Z</time></trkpt><trkpt lat="45.346975223328364" lon="11.67173780944764"><ele>156.0</ele><time>2026-04-04T15:29:13.019Z</time></trkpt><trkpt lat="45.34685615055326" lon="11.671693347418637"><ele>156.0</ele><time>2026-04-04T15:29:14.019Z</time></trkpt><trkpt lat="45.34674174052423" lon="11.671616555762744"><ele>156.0</ele><time>2026-04-04T15:29:15.019Z</time></trkpt><trkpt lat="45.34664157389482" lon="11.671512844767294"><ele>156.0</ele><time>2026-04-04T15:29:16.019Z</time></trkpt><trkpt lat="45.346554772081305" lon="11.671400038898703"><ele>156.0</ele><time>2026-04-04T15:29:17.019Z</time></trkpt><trkpt lat="45.346467896270966" lon="11.67129407639635"><ele>156.0</ele><time>2026-04-04T15:29:18.019Z</time></trkpt><trkpt lat="45.34636961667285" lon="11.671208352939345"><ele>154.5</ele><time>2026-04-04T15:29:19.019Z</time></trkpt><trkpt lat="45.346256913436925" lon="11.671130867263978"><ele>153.0</ele><time>2026-04-04T15:29:20.019Z</time></trkpt><trkpt lat="45.34613398481591" lon="11.671065109948074"><ele>151.5</ele><time>2026-04-04T15:29:21.019Z</time></trkpt><trkpt lat="45.34599880292894" lon="11.671005648289942"><ele>150.0</ele><time>2026-04-04T15:29:22.019Z</time></trkpt><trkpt lat="45.34586356152288" lon="11.670948335364786"><ele>150.0</ele><time>2026-04-04T15:29:23.019Z</time></trkpt><trkpt lat="45.34570671529461" lon="11.670921790106021"><ele>150.0</ele><time>2026-04-04T15:29:24.019Z</time></trkpt><trkpt lat="45.34554732434768" lon="11.670905135711909"><ele>150.0</ele><time>2026-04-04T15:29:25.019Z</time></trkpt><trkpt lat="45.34538669610292" lon="11.670913411642525"><ele>149.66666666666666</ele><time>2026-04-04T15:29:26.019Z</time></trkpt><trkpt lat="45.34522684243762" lon="11.670932600918686"><ele>149.33333333333331</ele><time>2026-04-04T15:29:27.019Z</time></trkpt><trkpt lat="45.345079443762906" lon="11.670939602032064"><ele>149.0</ele><time>2026-04-04T15:29:28.019Z</time></trkpt><trkpt lat="45.34492301781168" lon="11.67093914136128"><ele>149.0</ele><time>2026-04-04T15:29:29.019Z</time></trkpt><trkpt lat="45.344753542213205" lon="11.670905385986977"><ele>149.0</ele><time>2026-04-04T15:29:30.019Z</time></trkpt><trkpt lat="45.34458384763146" lon="11.670902216469143"><ele>149.0</ele><time>2026-04-04T15:29:31.019Z</time></trkpt><trkpt lat="45.34443112774537" lon="11.670860455098618"><ele>148.66666666666666</ele><time>2026-04-04T15:29:32.019Z</time></trkpt><trkpt lat="45.34428383202613" lon="11.670806315195742"><ele>148.33333333333334</ele><time>2026-04-04T15:29:33.019Z</time></trkpt><trkpt lat="45.34413164552434" lon="11.670725693243549"><ele>148.0</ele><time>2026-04-04T15:29:34.019Z</time></trkpt><trkpt lat="45.34398641710163" lon="11.670625341293515"><ele>149.0</ele><time>2026-04-04T15:29:35.019Z</time></trkpt><trkpt lat="45.34385834465248" lon="11.670503378856143"><ele>150.0</ele><time>2026-04-04T15:29:36.019Z</time></trkpt><trkpt lat="45.3437294898544" lon="11.670382806148819"><ele>151.0</ele><time>2026-04-04T15:29:37.019Z</time></trkpt><trkpt lat="45.34360014747328" lon="11.670272977400565"><ele>149.0</ele><time>2026-04-04T15:29:38.019Z</time></trkpt><trkpt lat="45.343491671827856" lon="11.670123794012078"><ele>147.0</ele><time>2026-04-04T15:29:39.019Z</time></trkpt><trkpt lat="45.34340433176216" lon="11.669951052341972"><ele>145.0</ele><time>2026-04-04T15:29:40.019Z</time></trkpt><trkpt lat="45.34332186446681" lon="11.669781550980725"><ele>143.0</ele><time>2026-04-04T15:29:41.019Z</time></trkpt><trkpt lat="45.34327361936471" lon="11.669599601504117"><ele>140.75</ele><time>2026-04-04T15:29:42.019Z</time></trkpt><trkpt lat="45.34323788514274" lon="11.669405091269141"><ele>138.5</ele><time>2026-04-04T15:29:43.019Z</time></trkpt><trkpt lat="45.343206162659634" lon="11.66920281830041"><ele>136.25</ele><time>2026-04-04T15:29:44.019Z</time></trkpt><trkpt lat="45.34315647659798" lon="11.669000063342384"><ele>134.0</ele><time>2026-04-04T15:29:45.019Z</time></trkpt><trkpt lat="45.34307020077337" lon="11.668809791247426"><ele>133.33333333333331</ele><time>2026-04-04T15:29:46.019Z</time></trkpt><trkpt lat="45.34296517292662" lon="11.668630897343386"><ele>132.66666666666666</ele><time>2026-04-04T15:29:47.019Z</time></trkpt><trkpt lat="45.34284896664616" lon="11.668450090826779"><ele>132.0</ele><time>2026-04-04T15:29:48.019Z</time></trkpt><trkpt lat="45.342727121806725" lon="11.668258153571996"><ele>130.0</ele><time>2026-04-04T15:29:49.019Z</time></trkpt><trkpt lat="45.34260503425702" lon="11.66805958515358"><ele>128.0</ele><time>2026-04-04T15:29:50.019Z</time></trkpt><trkpt lat="45.342487445818904" lon="11.667857174078641"><ele>126.0</ele><time>2026-04-04T15:29:51.019Z</time></trkpt><trkpt lat="45.342381888554115" lon="11.667666583693133"><ele>125.75</ele><time>2026-04-04T15:29:52.019Z</time></trkpt><trkpt lat="45.34229125371624" lon="11.667490298838612"><ele>125.5</ele><time>2026-04-04T15:29:53.019Z</time></trkpt><trkpt lat="45.342217777920204" lon="11.667309394568916"><ele>125.25</ele><time>2026-04-04T15:29:54.019Z</time></trkpt><trkpt lat="45.342164039361506" lon="11.667112588153007"><ele>125.0</ele><time>2026-04-04T15:29:55.019Z</time></trkpt><trkpt lat="45.34213205010966" lon="11.666881262299542"><ele>121.0</ele><time>2026-04-04T15:29:56.019Z</time></trkpt><trkpt lat="45.34210578987554" lon="11.666618745598209"><ele>117.0</ele><time>2026-04-04T15:29:57.019Z</time></trkpt><trkpt lat="45.34208031491493" lon="11.666342025273067"><ele>113.0</ele><time>2026-04-04T15:29:58.019Z</time></trkpt><trkpt lat="45.34205520665856" lon="11.666069051665174"><ele>113.0</ele><time>2026-04-04T15:29:59.019Z</time></trkpt><trkpt lat="45.342032232299275" lon="11.665790937486163"><ele>113.0</ele><time>2026-04-04T15:30:00.019Z</time></trkpt><trkpt lat="45.34201125534942" lon="11.665510456124371"><ele>113.0</ele><time>2026-04-04T15:30:01.02Z</time></trkpt><trkpt lat="45.34199416092249" lon="11.665231526613537"><ele>112.33333333333333</ele><time>2026-04-04T15:30:02.02Z</time></trkpt><trkpt lat="45.34198381069103" lon="11.664969023495928"><ele>111.66666666666666</ele><time>2026-04-04T15:30:03.02Z</time></trkpt><trkpt lat="45.34197757542459" lon="11.664725593488473"><ele>111.0</ele><time>2026-04-04T15:30:04.02Z</time></trkpt><trkpt lat="45.34197364559829" lon="11.664498869017427"><ele>110.25</ele><time>2026-04-04T15:30:05.019Z</time></trkpt><trkpt lat="45.34197799586594" lon="11.664291390467156"><ele>109.5</ele><time>2026-04-04T15:30:06.019Z</time></trkpt><trkpt lat="45.3419875748163" lon="11.664094806586819"><ele>108.75</ele><time>2026-04-04T15:30:07.019Z</time></trkpt><trkpt lat="45.34200184743959" lon="11.663904993583982"><ele>108.0</ele><time>2026-04-04T15:30:08.019Z</time></trkpt><trkpt lat="45.34202825502951" lon="11.663706692648537"><ele>107.75</ele><time>2026-04-04T15:30:09.019Z</time></trkpt><trkpt lat="45.342056913005315" lon="11.663516876307133"><ele>107.5</ele><time>2026-04-04T15:30:10.019Z</time></trkpt><trkpt lat="45.342078214795336" lon="11.66333577981759"><ele>107.25</ele><time>2026-04-04T15:30:11.019Z</time></trkpt><trkpt lat="45.34208304560624" lon="11.663170939324745"><ele>107.0</ele><time>2026-04-04T15:30:12.019Z</time></trkpt><trkpt lat="45.34206884398626" lon="11.663021620107267"><ele>107.0</ele><time>2026-04-04T15:30:13.019Z</time></trkpt><trkpt lat="45.342022290177596" lon="11.662894321577584"><ele>106.99999999999999</ele><time>2026-04-04T15:30:14.019Z</time></trkpt><trkpt lat="45.341948109428074" lon="11.662780948318003"><ele>106.99999999999999</ele><time>2026-04-04T15:30:15.019Z</time></trkpt><trkpt lat="45.341841792937664" lon="11.662705664773359"><ele>107.0</ele><time>2026-04-04T15:30:16.019Z</time></trkpt><trkpt lat="45.34173222920169" lon="11.662685138805642"><ele>107.0</ele><time>2026-04-04T15:30:17.019Z</time></trkpt><trkpt lat="45.34162830449021" lon="11.662715764753154"><ele>107.0</ele><time>2026-04-04T15:30:18.019Z</time></trkpt><trkpt lat="45.34154649338891" lon="11.662784348820487"><ele>106.99999999999999</ele><time>2026-04-04T15:30:19.019Z</time></trkpt><trkpt lat="45.34149742571942" lon="11.662882843672152"><ele>106.99999999999999</ele><time>2026-04-04T15:30:20.019Z</time></trkpt><trkpt lat="45.34144028234342" lon="11.663022278477756"><ele>107.0</ele><time>2026-04-04T15:30:22.019Z</time></trkpt><trkpt lat="45.34141018758655" lon="11.663218503397786"><ele>107.0</ele><time>2026-04-04T15:30:24.019Z</time></trkpt><trkpt lat="45.34140988160668" lon="11.663359758690172"><ele>107.0</ele><time>2026-04-04T15:30:25.019Z</time></trkpt><trkpt lat="45.34141809984483" lon="11.663546695075777"><ele>107.0</ele><time>2026-04-04T15:30:26.019Z</time></trkpt><trkpt lat="45.3414310749488" lon="11.6637404084895"><ele>107.0</ele><time>2026-04-04T15:30:27.019Z</time></trkpt><trkpt lat="45.341436377141065" lon="11.663933835757708"><ele>107.0</ele><time>2026-04-04T15:30:28.019Z</time></trkpt><trkpt lat="45.34144625735028" lon="11.664138948964169"><ele>107.25</ele><time>2026-04-04T15:30:29.019Z</time></trkpt><trkpt lat="45.34144453935962" lon="11.664327451210298"><ele>107.5</ele><time>2026-04-04T15:30:30.019Z</time></trkpt><trkpt lat="45.3414276373449" lon="11.664496581636454"><ele>107.75</ele><time>2026-04-04T15:30:31.019Z</time></trkpt><trkpt lat="45.34138706397287" lon="11.664656363771599"><ele>108.0</ele><time>2026-04-04T15:30:32.019Z</time></trkpt><trkpt lat="45.34131033869624" lon="11.664800502178402"><ele>104.5</ele><time>2026-04-04T15:30:33.019Z</time></trkpt><trkpt lat="45.341212815120755" lon="11.66494323523217"><ele>101.0</ele><time>2026-04-04T15:30:34.019Z</time></trkpt><trkpt lat="45.34108915874089" lon="11.665048441963057"><ele>97.5</ele><time>2026-04-04T15:30:35.019Z</time></trkpt><trkpt lat="45.34097701618463" lon="11.665149730681891"><ele>94.0</ele><time>2026-04-04T15:30:36.019Z</time></trkpt><trkpt lat="45.34086495264348" lon="11.665223047488608"><ele>94.0</ele><time>2026-04-04T15:30:37.019Z</time></trkpt><trkpt lat="45.34075648114178" lon="11.665258902980908"><ele>94.0</ele><time>2026-04-04T15:30:38.019Z</time></trkpt><trkpt lat="45.3406432243585" lon="11.66526834663628"><ele>94.0</ele><time>2026-04-04T15:30:39.019Z</time></trkpt><trkpt lat="45.34053950870549" lon="11.665253116405106"><ele>94.0</ele><time>2026-04-04T15:30:40.019Z</time></trkpt><trkpt lat="45.34043484252275" lon="11.665261118752609"><ele>94.0</ele><time>2026-04-04T15:30:41.019Z</time></trkpt><trkpt lat="45.34035044465108" lon="11.665271741814793"><ele>92.33333333333333</ele><time>2026-04-04T15:30:42.019Z</time></trkpt><trkpt lat="45.340282276128484" lon="11.665316948638702"><ele>90.66666666666666</ele><time>2026-04-04T15:30:43.019Z</time></trkpt><trkpt lat="45.34023313062824" lon="11.665394341713464"><ele>89.0</ele><time>2026-04-04T15:30:44.019Z</time></trkpt><trkpt lat="45.3402065028474" lon="11.66549294354967"><ele>87.33333333333333</ele><time>2026-04-04T15:30:45.019Z</time></trkpt><trkpt lat="45.340208178977655" lon="11.665607228008769"><ele>85.66666666666667</ele><time>2026-04-04T15:30:46.019Z</time></trkpt><trkpt lat="45.34024437136727" lon="11.665737013114923"><ele>84.0</ele><time>2026-04-04T15:30:47.019Z</time></trkpt><trkpt lat="45.34031024952184" lon="11.66585401847896"><ele>84.0</ele><time>2026-04-04T15:30:48.019Z</time></trkpt><trkpt lat="45.3403957488459" lon="11.665952480116461"><ele>84.0</ele><time>2026-04-04T15:30:49.019Z</time></trkpt><trkpt lat="45.340493108614176" lon="11.666068410344861"><ele>84.0</ele><time>2026-04-04T15:30:50.019Z</time></trkpt><trkpt lat="45.34058702965063" lon="11.666215867633081"><ele>84.0</ele><time>2026-04-04T15:30:51.019Z</time></trkpt><trkpt lat="45.34066963782401" lon="11.666367946352036"><ele>85.75</ele><time>2026-04-04T15:30:52.019Z</time></trkpt><trkpt lat="45.340742813824164" lon="11.666516360810647"><ele>87.5</ele><time>2026-04-04T15:30:53.019Z</time></trkpt><trkpt lat="45.34081742427321" lon="11.666663505427023"><ele>89.25</ele><time>2026-04-04T15:30:54.019Z</time></trkpt><trkpt lat="45.34088797926842" lon="11.666805706645455"><ele>91.0</ele><time>2026-04-04T15:30:55.019Z</time></trkpt><trkpt lat="45.340945459036924" lon="11.666936788746556"><ele>90.66666666666666</ele><time>2026-04-04T15:30:56.019Z</time></trkpt><trkpt lat="45.34098112512337" lon="11.667059986881386"><ele>90.33333333333333</ele><time>2026-04-04T15:30:57.019Z</time></trkpt><trkpt lat="45.340989402448656" lon="11.66718159576067"><ele>90.0</ele><time>2026-04-04T15:30:58.019Z</time></trkpt><trkpt lat="45.340971636779074" lon="11.667288826528647"><ele>89.66666666666667</ele><time>2026-04-04T15:30:59.019Z</time></trkpt><trkpt lat="45.34090989519225" lon="11.667357501360653"><ele>89.33333333333334</ele><time>2026-04-04T15:31:00.019Z</time></trkpt><trkpt lat="45.34083425497473" lon="11.66740694871085"><ele>89.0</ele><time>2026-04-04T15:31:01.019Z</time></trkpt><trkpt lat="45.34075055203361" lon="11.66739704292303"><ele>89.0</ele><time>2026-04-04T15:31:02.019Z</time></trkpt><trkpt lat="45.34065351512448" lon="11.667353918859405"><ele>89.0</ele><time>2026-04-04T15:31:03.019Z</time></trkpt><trkpt lat="45.3405982632388" lon="11.667231020255171"><ele>89.0</ele><time>2026-04-04T15:31:04.019Z</time></trkpt><trkpt lat="45.34059449411557" lon="11.667080996193443"><ele>89.0</ele><time>2026-04-04T15:31:05.019Z</time></trkpt><trkpt lat="45.340608750016735" lon="11.666911070091226"><ele>89.0</ele><time>2026-04-04T15:31:06.019Z</time></trkpt><trkpt lat="45.34059945596799" lon="11.666745972796413"><ele>89.5</ele><time>2026-04-04T15:31:07.019Z</time></trkpt><trkpt lat="45.34055981290189" lon="11.666596220643902"><ele>90.0</ele><time>2026-04-04T15:31:08.019Z</time></trkpt><trkpt lat="45.34049665996699" lon="11.666449947440988"><ele>90.5</ele><time>2026-04-04T15:31:09.019Z</time></trkpt><trkpt lat="45.340417992714464" lon="11.666317859972876"><ele>91.0</ele><time>2026-04-04T15:31:10.019Z</time></trkpt><trkpt lat="45.340328692094154" lon="11.66619365842131"><ele>89.25</ele><time>2026-04-04T15:31:11.019Z</time></trkpt><trkpt lat="45.340226037682264" lon="11.666094108288705"><ele>87.5</ele><time>2026-04-04T15:31:12.019Z</time></trkpt><trkpt lat="45.34011793462938" lon="11.666008895005254"><ele>85.75</ele><time>2026-04-04T15:31:13.019Z</time></trkpt><trkpt lat="45.33999864592474" lon="11.665929586298255"><ele>84.0</ele><time>2026-04-04T15:31:14.019Z</time></trkpt><trkpt lat="45.339889317338" lon="11.665816569539217"><ele>84.0</ele><time>2026-04-04T15:31:15.019Z</time></trkpt><trkpt lat="45.33978804084342" lon="11.665752678684596"><ele>84.0</ele><time>2026-04-04T15:31:16.019Z</time></trkpt><trkpt lat="45.339690804661636" lon="11.66569954636573"><ele>84.0</ele><time>2026-04-04T15:31:17.019Z</time></trkpt><trkpt lat="45.339597919059145" lon="11.665647547771494"><ele>84.0</ele><time>2026-04-04T15:31:18.019Z</time></trkpt><trkpt lat="45.33950805376085" lon="11.665590251014047"><ele>84.0</ele><time>2026-04-04T15:31:19.019Z</time></trkpt><trkpt lat="45.33942286789084" lon="11.66548919825281"><ele>82.60000000000001</ele><time>2026-04-04T15:31:20.019Z</time></trkpt><trkpt lat="45.3393552924487" lon="11.665363261551054"><ele>81.2</ele><time>2026-04-04T15:31:21.019Z</time></trkpt><trkpt lat="45.339318405378734" lon="11.665217152431145"><ele>79.80000000000001</ele><time>2026-04-04T15:31:22.019Z</time></trkpt><trkpt lat="45.33932028821812" lon="11.665072822423065"><ele>78.4</ele><time>2026-04-04T15:31:23.019Z</time></trkpt><trkpt lat="45.339354954350554" lon="11.664941924362749"><ele>77.0</ele><time>2026-04-04T15:31:24.019Z</time></trkpt><trkpt lat="45.33942128175912" lon="11.664819992241101"><ele>76.0</ele><time>2026-04-04T15:31:25.019Z</time></trkpt><trkpt lat="45.339529313528935" lon="11.66475663859333"><ele>75.0</ele><time>2026-04-04T15:31:26.019Z</time></trkpt><trkpt lat="45.339643029538564" lon="11.664687504979907"><ele>74.0</ele><time>2026-04-04T15:31:27.019Z</time></trkpt><trkpt lat="45.33978023038413" lon="11.664652102098277"><ele>73.0</ele><time>2026-04-04T15:31:28.019Z</time></trkpt><trkpt lat="45.3399058776466" lon="11.664605061478339"><ele>72.2</ele><time>2026-04-04T15:31:29.019Z</time></trkpt><trkpt lat="45.3400107187707" lon="11.664542126601756"><ele>71.4</ele><time>2026-04-04T15:31:30.019Z</time></trkpt><trkpt lat="45.340095687890596" lon="11.664476612014331"><ele>70.60000000000001</ele><time>2026-04-04T15:31:31.019Z</time></trkpt><trkpt lat="45.340178016340154" lon="11.664421211101763"><ele>69.8</ele><time>2026-04-04T15:31:32.019Z</time></trkpt><trkpt lat="45.340218251607276" lon="11.664305589121641"><ele>69.0</ele><time>2026-04-04T15:31:33.019Z</time></trkpt><trkpt lat="45.3402378884471" lon="11.66418615024036"><ele>69.0</ele><time>2026-04-04T15:31:34.019Z</time></trkpt><trkpt lat="45.34022995218178" lon="11.664045847520809"><ele>69.0</ele><time>2026-04-04T15:31:35.019Z</time></trkpt><trkpt lat="45.34020167330762" lon="11.663913423183173"><ele>69.0</ele><time>2026-04-04T15:31:36.019Z</time></trkpt><trkpt lat="45.3401810739728" lon="11.663778014277426"><ele>69.0</ele><time>2026-04-04T15:31:37.019Z</time></trkpt><trkpt lat="45.34018904508609" lon="11.66362419070589"><ele>69.0</ele><time>2026-04-04T15:31:38.019Z</time></trkpt><trkpt lat="45.340220313569034" lon="11.663453940608562"><ele>68.25</ele><time>2026-04-04T15:31:39.019Z</time></trkpt><trkpt lat="45.34025931099225" lon="11.6632624139085"><ele>67.5</ele><time>2026-04-04T15:31:40.019Z</time></trkpt><trkpt lat="45.3403175064799" lon="11.66306742728882"><ele>66.75</ele><time>2026-04-04T15:31:41.019Z</time></trkpt><trkpt lat="45.34035949226045" lon="11.662872280006187"><ele>66.0</ele><time>2026-04-04T15:31:42.019Z</time></trkpt><trkpt lat="45.34040023311893" lon="11.662695622230139"><ele>65.25</ele><time>2026-04-04T15:31:43.019Z</time></trkpt><trkpt lat="45.340445923313936" lon="11.662527556121528"><ele>64.5</ele><time>2026-04-04T15:31:44.019Z</time></trkpt><trkpt lat="45.34050078199802" lon="11.662372060104987"><ele>63.75</ele><time>2026-04-04T15:31:45.019Z</time></trkpt><trkpt lat="45.34057207014426" lon="11.66222615815156"><ele>63.0</ele><time>2026-04-04T15:31:46.019Z</time></trkpt><trkpt lat="45.34066382113199" lon="11.662079619479675"><ele>62.75</ele><time>2026-04-04T15:31:47.019Z</time></trkpt><trkpt lat="45.34076194654337" lon="11.661924009909262"><ele>62.5</ele><time>2026-04-04T15:31:48.019Z</time></trkpt><trkpt lat="45.3408703458897" lon="11.661795436539213"><ele>62.25</ele><time>2026-04-04T15:31:49.019Z</time></trkpt><trkpt lat="45.34097313564611" lon="11.661681833150384"><ele>62.0</ele><time>2026-04-04T15:31:50.019Z</time></trkpt><trkpt lat="45.341063975492055" lon="11.661568864391262"><ele>62.0</ele><time>2026-04-04T15:31:51.019Z</time></trkpt><trkpt lat="45.34114475985505" lon="11.661450237194689"><ele>62.0</ele><time>2026-04-04T15:31:52.019Z</time></trkpt><trkpt lat="45.34122302415284" lon="11.661335535636237"><ele>62.0</ele><time>2026-04-04T15:31:53.019Z</time></trkpt><trkpt lat="45.34128955795966" lon="11.661218391038998"><ele>62.0</ele><time>2026-04-04T15:31:54.019Z</time></trkpt><trkpt lat="45.3413375440905" lon="11.661103608722108"><ele>62.0</ele><time>2026-04-04T15:31:55.019Z</time></trkpt><trkpt lat="45.341383323716975" lon="11.66099779293586"><ele>61.2</ele><time>2026-04-04T15:31:56.019Z</time></trkpt><trkpt lat="45.34138054213177" lon="11.660858232946248"><ele>60.400000000000006</ele><time>2026-04-04T15:31:57.019Z</time></trkpt><trkpt lat="45.34136592114779" lon="11.660718166366769"><ele>59.599999999999994</ele><time>2026-04-04T15:31:58.019Z</time></trkpt><trkpt lat="45.34132389946883" lon="11.660559706239281"><ele>58.8</ele><time>2026-04-04T15:31:59.019Z</time></trkpt><trkpt lat="45.3412485945201" lon="11.660405300918134"><ele>58.0</ele><time>2026-04-04T15:32:00.019Z</time></trkpt><trkpt lat="45.34115259163608" lon="11.660251198078903"><ele>58.0</ele><time>2026-04-04T15:32:01.02Z</time></trkpt><trkpt lat="45.341044674186236" lon="11.660098993272129"><ele>58.0</ele><time>2026-04-04T15:32:02.02Z</time></trkpt><trkpt lat="45.340934888835655" lon="11.65992804909575"><ele>58.0</ele><time>2026-04-04T15:32:03.02Z</time></trkpt><trkpt lat="45.34082188787011" lon="11.659770210444863"><ele>58.0</ele><time>2026-04-04T15:32:04.02Z</time></trkpt><trkpt lat="45.340706362505465" lon="11.65961637483392"><ele>58.0</ele><time>2026-04-04T15:32:05.02Z</time></trkpt><trkpt lat="45.34059379668815" lon="11.659460100887534"><ele>58.0</ele><time>2026-04-04T15:32:06.02Z</time></trkpt><trkpt lat="45.34047523237635" lon="11.659303985644362"><ele>58.666666666666664</ele><time>2026-04-04T15:32:07.02Z</time></trkpt><trkpt lat="45.3403548097831" lon="11.65914130714344"><ele>59.33333333333333</ele><time>2026-04-04T15:32:08.02Z</time></trkpt><trkpt lat="45.34023915542939" lon="11.65898234492686"><ele>60.0</ele><time>2026-04-04T15:32:09.02Z</time></trkpt><trkpt lat="45.34012914705419" lon="11.65882992493065"><ele>60.0</ele><time>2026-04-04T15:32:10.021Z</time></trkpt><trkpt lat="45.34003298010866" lon="11.658701310143767"><ele>60.0</ele><time>2026-04-04T15:32:11.021Z</time></trkpt><trkpt lat="45.33994408314668" lon="11.65859027039407"><ele>60.0</ele><time>2026-04-04T15:32:12.021Z</time></trkpt><trkpt lat="45.33987375679511" lon="11.658470616144848"><ele>60.0</ele><time>2026-04-04T15:32:13.02Z</time></trkpt><trkpt lat="45.33981373389047" lon="11.658330547743443"><ele>61.0</ele><time>2026-04-04T15:32:14.02Z</time></trkpt><trkpt lat="45.33979055790196" lon="11.658155200954132"><ele>62.0</ele><time>2026-04-04T15:32:15.02Z</time></trkpt><trkpt lat="45.339746417798715" lon="11.657945188659157"><ele>63.0</ele><time>2026-04-04T15:32:16.02Z</time></trkpt><trkpt lat="45.3396965014372" lon="11.657705529771665"><ele>63.0</ele><time>2026-04-04T15:32:17.02Z</time></trkpt><trkpt lat="45.33963905842656" lon="11.657427283854673"><ele>63.0</ele><time>2026-04-04T15:32:18.02Z</time></trkpt><trkpt lat="45.339579527252575" lon="11.657150168669144"><ele>63.0</ele><time>2026-04-04T15:32:19.02Z</time></trkpt><trkpt lat="45.339522955462584" lon="11.65688642167919"><ele>60.66666666666667</ele><time>2026-04-04T15:32:20.02Z</time></trkpt><trkpt lat="45.33947163347531" lon="11.65664811645474"><ele>58.333333333333336</ele><time>2026-04-04T15:32:21.02Z</time></trkpt><trkpt lat="45.33942296359552" lon="11.656422195352977"><ele>56.0</ele><time>2026-04-04T15:32:22.02Z</time></trkpt><trkpt lat="45.339377600132266" lon="11.656209684143684"><ele>54.66666666666667</ele><time>2026-04-04T15:32:23.02Z</time></trkpt><trkpt lat="45.339334551218975" lon="11.655996904897515"><ele>53.33333333333333</ele><time>2026-04-04T15:32:24.02Z</time></trkpt><trkpt lat="45.33929364306725" lon="11.655777013803727"><ele>52.0</ele><time>2026-04-04T15:32:25.02Z</time></trkpt><trkpt lat="45.33925653580162" lon="11.655551898873643"><ele>52.0</ele><time>2026-04-04T15:32:26.02Z</time></trkpt><trkpt lat="45.33923171106818" lon="11.655324197043447"><ele>52.0</ele><time>2026-04-04T15:32:27.02Z</time></trkpt><trkpt lat="45.339229621231254" lon="11.655122137840259"><ele>52.0</ele><time>2026-04-04T15:32:28.02Z</time></trkpt><trkpt lat="45.33924701282302" lon="11.654934857087706"><ele>52.0</ele><time>2026-04-04T15:32:29.02Z</time></trkpt><trkpt lat="45.339283255967395" lon="11.65476465505397"><ele>52.33333333333333</ele><time>2026-04-04T15:32:30.02Z</time></trkpt><trkpt lat="45.33933864705786" lon="11.654563888751133"><ele>52.66666666666667</ele><time>2026-04-04T15:32:31.02Z</time></trkpt><trkpt lat="45.33940511885843" lon="11.654359292171367"><ele>53.0</ele><time>2026-04-04T15:32:32.02Z</time></trkpt><trkpt lat="45.339473801246896" lon="11.654158266696964"><ele>51.66666666666667</ele><time>2026-04-04T15:32:33.02Z</time></trkpt><trkpt lat="45.33954950172201" lon="11.653941999575233"><ele>50.33333333333333</ele><time>2026-04-04T15:32:34.02Z</time></trkpt><trkpt lat="45.33963799514437" lon="11.65369361504314"><ele>49.0</ele><time>2026-04-04T15:32:35.02Z</time></trkpt><trkpt lat="45.33973334452281" lon="11.653415088022882"><ele>49.0</ele><time>2026-04-04T15:32:36.02Z</time></trkpt><trkpt lat="45.33984108731312" lon="11.653110038093761"><ele>49.0</ele><time>2026-04-04T15:32:37.02Z</time></trkpt><trkpt lat="45.33995587402118" lon="11.65279743338721"><ele>46.0</ele><time>2026-04-04T15:32:38.02Z</time></trkpt><trkpt lat="45.34006667034184" lon="11.652522798403835"><ele>43.0</ele><time>2026-04-04T15:32:39.02Z</time></trkpt><trkpt lat="45.340191340368634" lon="11.652280372755659"><ele>40.0</ele><time>2026-04-04T15:32:40.02Z</time></trkpt><trkpt lat="45.340321021816216" lon="11.65205558830636"><ele>40.0</ele><time>2026-04-04T15:32:41.02Z</time></trkpt><trkpt lat="45.34045093820256" lon="11.65183761175739"><ele>40.0</ele><time>2026-04-04T15:32:42.02Z</time></trkpt><trkpt lat="45.34057042805712" lon="11.651631027729904"><ele>40.0</ele><time>2026-04-04T15:32:43.02Z</time></trkpt><trkpt lat="45.34064336427496" lon="11.651386144678996"><ele>40.0</ele><time>2026-04-04T15:32:44.02Z</time></trkpt><trkpt lat="45.34071881942354" lon="11.651166215977215"><ele>40.0</ele><time>2026-04-04T15:32:45.02Z</time></trkpt><trkpt lat="45.340766109847756" lon="11.650923524179447"><ele>40.0</ele><time>2026-04-04T15:32:46.02Z</time></trkpt><trkpt lat="45.340806019124116" lon="11.650652502483474"><ele>37.66666666666667</ele><time>2026-04-04T15:32:47.02Z</time></trkpt><trkpt lat="45.34086940630632" lon="11.650396602464705"><ele>35.333333333333336</ele><time>2026-04-04T15:32:48.02Z</time></trkpt><trkpt lat="45.34090541014091" lon="11.650158991226307"><ele>33.0</ele><time>2026-04-04T15:32:49.02Z</time></trkpt><trkpt lat="45.340931864241625" lon="11.649954207294892"><ele>32.6</ele><time>2026-04-04T15:32:50.02Z</time></trkpt><trkpt lat="45.34092664871567" lon="11.649781278305387"><ele>32.199999999999996</ele><time>2026-04-04T15:32:51.02Z</time></trkpt><trkpt lat="45.34091170143919" lon="11.649673127042814"><ele>31.8</ele><time>2026-04-04T15:32:52.02Z</time></trkpt><trkpt lat="45.34086900497012" lon="11.64958430486913"><ele>31.4</ele><time>2026-04-04T15:32:53.02Z</time></trkpt><trkpt lat="45.34078864478211" lon="11.649497850049213"><ele>31.0</ele><time>2026-04-04T15:32:54.02Z</time></trkpt><trkpt lat="45.34067569713699" lon="11.649390993273453"><ele>33.333333333333336</ele><time>2026-04-04T15:32:55.02Z</time></trkpt><trkpt lat="45.34054450729415" lon="11.649254434237742"><ele>35.666666666666664</ele><time>2026-04-04T15:32:56.02Z</time></trkpt><trkpt lat="45.34040089983555" lon="11.649081138543439"><ele>38.0</ele><time>2026-04-04T15:32:57.02Z</time></trkpt><trkpt lat="45.34025131588456" lon="11.64889616912043"><ele>38.0</ele><time>2026-04-04T15:32:58.02Z</time></trkpt><trkpt lat="45.34010137947175" lon="11.648703193381577"><ele>38.0</ele><time>2026-04-04T15:32:59.02Z</time></trkpt><trkpt lat="45.33995664471435" lon="11.648521878876256"><ele>38.0</ele><time>2026-04-04T15:33:00.02Z</time></trkpt><trkpt lat="45.33982501359514" lon="11.648355557860778"><ele>36.0</ele><time>2026-04-04T15:33:01.02Z</time></trkpt><trkpt lat="45.33971554187698" lon="11.648181768772417"><ele>34.0</ele><time>2026-04-04T15:33:02.02Z</time></trkpt><trkpt lat="45.33960123667623" lon="11.64803115189213"><ele>32.0</ele><time>2026-04-04T15:33:03.02Z</time></trkpt><trkpt lat="45.33949383786373" lon="11.647888239317862"><ele>30.5</ele><time>2026-04-04T15:33:04.02Z</time></trkpt><trkpt lat="45.33939304166883" lon="11.647754112553278"><ele>29.0</ele><time>2026-04-04T15:33:05.02Z</time></trkpt><trkpt lat="45.33928884796677" lon="11.647615466456626"><ele>27.5</ele><time>2026-04-04T15:33:06.02Z</time></trkpt><trkpt lat="45.33917394608923" lon="11.647463318262384"><ele>26.0</ele><time>2026-04-04T15:33:07.02Z</time></trkpt><trkpt lat="45.33905268105673" lon="11.647302452287121"><ele>26.0</ele><time>2026-04-04T15:33:08.02Z</time></trkpt><trkpt lat="45.33893616503648" lon="11.647147886264442"><ele>26.0</ele><time>2026-04-04T15:33:09.02Z</time></trkpt><trkpt lat="45.33881846422513" lon="11.646991749100275"><ele>26.0</ele><time>2026-04-04T15:33:10.02Z</time></trkpt><trkpt lat="45.338692320797186" lon="11.646822255233984"><ele>25.666666666666664</ele><time>2026-04-04T15:33:11.02Z</time></trkpt><trkpt lat="45.33857091995001" lon="11.64665865978773"><ele>25.333333333333336</ele><time>2026-04-04T15:33:12.02Z</time></trkpt><trkpt lat="45.33845756239963" lon="11.646505367355832"><ele>25.0</ele><time>2026-04-04T15:33:13.02Z</time></trkpt><trkpt lat="45.338350205960424" lon="11.646360190410066"><ele>25.0</ele><time>2026-04-04T15:33:14.02Z</time></trkpt><trkpt lat="45.3382457127298" lon="11.646219597140519"><ele>25.0</ele><time>2026-04-04T15:33:15.02Z</time></trkpt><trkpt lat="45.33813808140357" lon="11.646075166258045"><ele>25.0</ele><time>2026-04-04T15:33:16.02Z</time></trkpt><trkpt lat="45.33803475171688" lon="11.64593650864027"><ele>25.0</ele><time>2026-04-04T15:33:17.02Z</time></trkpt><trkpt lat="45.337925429957764" lon="11.645819263200988"><ele>24.5</ele><time>2026-04-04T15:33:18.02Z</time></trkpt><trkpt lat="45.337834914411914" lon="11.645673895797541"><ele>24.0</ele><time>2026-04-04T15:33:19.02Z</time></trkpt><trkpt lat="45.33773591412093" lon="11.6455349929455"><ele>23.5</ele><time>2026-04-04T15:33:20.02Z</time></trkpt><trkpt lat="45.33764020905592" lon="11.645401955065186"><ele>23.0</ele><time>2026-04-04T15:33:21.02Z</time></trkpt><trkpt lat="45.33754353684815" lon="11.645278747546882"><ele>22.5</ele><time>2026-04-04T15:33:22.02Z</time></trkpt><trkpt lat="45.33744920691445" lon="11.645151750364155"><ele>22.0</ele><time>2026-04-04T15:33:23.02Z</time></trkpt><trkpt lat="45.3373573817122" lon="11.645030510476376"><ele>21.5</ele><time>2026-04-04T15:33:24.02Z</time></trkpt><trkpt lat="45.337257038755034" lon="11.644901073265306"><ele>21.0</ele><time>2026-04-04T15:33:25.02Z</time></trkpt><trkpt lat="45.33715692334001" lon="11.644767656837903"><ele>21.0</ele><time>2026-04-04T15:33:26.02Z</time></trkpt><trkpt lat="45.337053796513125" lon="11.64464602297085"><ele>21.0</ele><time>2026-04-04T15:33:27.02Z</time></trkpt><trkpt lat="45.33696009164183" lon="11.644516766124127"><ele>21.0</ele><time>2026-04-04T15:33:28.02Z</time></trkpt><trkpt lat="45.33685028180419" lon="11.644366109277984"><ele>21.0</ele><time>2026-04-04T15:33:29.02Z</time></trkpt><trkpt lat="45.33673267768515" lon="11.644210430638505"><ele>21.0</ele><time>2026-04-04T15:33:30.02Z</time></trkpt><trkpt lat="45.336617096858376" lon="11.644039024299152"><ele>21.0</ele><time>2026-04-04T15:33:31.02Z</time></trkpt><trkpt lat="45.33649909843742" lon="11.643882792916353"><ele>21.0</ele><time>2026-04-04T15:33:32.02Z</time></trkpt><trkpt lat="45.336377966143324" lon="11.643719109448288"><ele>21.0</ele><time>2026-04-04T15:33:33.02Z</time></trkpt><trkpt lat="45.33625931108441" lon="11.643557811600404"><ele>21.0</ele><time>2026-04-04T15:33:34.02Z</time></trkpt><trkpt lat="45.336144972246494" lon="11.643401475537965"><ele>21.0</ele><time>2026-04-04T15:33:35.02Z</time></trkpt><trkpt lat="45.33603665880513" lon="11.643255742208801"><ele>21.0</ele><time>2026-04-04T15:33:36.02Z</time></trkpt><trkpt lat="45.33593366997952" lon="11.643117651824234"><ele>21.0</ele><time>2026-04-04T15:33:37.02Z</time></trkpt><trkpt lat="45.33583765659472" lon="11.642988912997376"><ele>21.0</ele><time>2026-04-04T15:33:38.02Z</time></trkpt><trkpt lat="45.335744660479605" lon="11.642864219810026"><ele>21.0</ele><time>2026-04-04T15:33:39.02Z</time></trkpt><trkpt lat="45.33565342383239" lon="11.642741885852313"><ele>21.25</ele><time>2026-04-04T15:33:40.02Z</time></trkpt><trkpt lat="45.33554995200102" lon="11.642603146453157"><ele>21.5</ele><time>2026-04-04T15:33:41.02Z</time></trkpt><trkpt lat="45.335431630813936" lon="11.642474480464813"><ele>21.75</ele><time>2026-04-04T15:33:42.02Z</time></trkpt><trkpt lat="45.3353398036987" lon="11.642311819493315"><ele>22.0</ele><time>2026-04-04T15:33:43.02Z</time></trkpt><trkpt lat="45.335244499726045" lon="11.642176385106943"><ele>22.0</ele><time>2026-04-04T15:33:44.02Z</time></trkpt><trkpt lat="45.335143933971224" lon="11.642042994730195"><ele>22.0</ele><time>2026-04-04T15:33:45.02Z</time></trkpt><trkpt lat="45.33505206469945" lon="11.641920240652825"><ele>22.0</ele><time>2026-04-04T15:33:46.02Z</time></trkpt><trkpt lat="45.33496652168489" lon="11.641802684691884"><ele>22.0</ele><time>2026-04-04T15:33:47.02Z</time></trkpt><trkpt lat="45.33487981293761" lon="11.641696189116114"><ele>22.0</ele><time>2026-04-04T15:33:48.02Z</time></trkpt><trkpt lat="45.33479528782536" lon="11.641590887420339"><ele>22.0</ele><time>2026-04-04T15:33:49.02Z</time></trkpt><trkpt lat="45.334719131032124" lon="11.641490116060716"><ele>22.0</ele><time>2026-04-04T15:33:50.02Z</time></trkpt><trkpt lat="45.33464836189238" lon="11.641394045942686"><ele>22.0</ele><time>2026-04-04T15:33:51.02Z</time></trkpt><trkpt lat="45.33459513040143" lon="11.641319179579769"><ele>22.0</ele><time>2026-04-04T15:33:52.02Z</time></trkpt><trkpt lat="45.33453856605152" lon="11.64118430904338"><ele>21.833333333333332</ele><time>2026-04-04T15:33:54.02Z</time></trkpt><trkpt lat="45.3345691172524" lon="11.641031097068955"><ele>21.666666666666664</ele><time>2026-04-04T15:33:56.02Z</time></trkpt><trkpt lat="45.334610145639964" lon="11.64094824855529"><ele>21.5</ele><time>2026-04-04T15:33:57.02Z</time></trkpt><trkpt lat="45.3346231565066" lon="11.64084970889649"><ele>21.333333333333332</ele><time>2026-04-04T15:33:58.02Z</time></trkpt><trkpt lat="45.33456311076199" lon="11.640697151635859"><ele>21.166666666666668</ele><time>2026-04-04T15:34:00.02Z</time></trkpt><trkpt lat="45.33450000733432" lon="11.6406513260305"><ele>21.0</ele><time>2026-04-04T15:34:01.02Z</time></trkpt><trkpt lat="45.33443679353044" lon="11.640653665697716"><ele>21.0</ele><time>2026-04-04T15:34:02.02Z</time></trkpt><trkpt lat="45.33437822587533" lon="11.640707372570807"><ele>21.0</ele><time>2026-04-04T15:34:03.02Z</time></trkpt><trkpt lat="45.33433246573772" lon="11.6407821660018"><ele>21.0</ele><time>2026-04-04T15:34:04.02Z</time></trkpt><trkpt lat="45.33427848518173" lon="11.640866192348641"><ele>21.0</ele><time>2026-04-04T15:34:05.019Z</time></trkpt><trkpt lat="45.334198506731504" lon="11.640926877954762"><ele>21.0</ele><time>2026-04-04T15:34:06.019Z</time></trkpt><trkpt lat="45.33409516917132" lon="11.640943609838134"><ele>21.0</ele><time>2026-04-04T15:34:07.02Z</time></trkpt><trkpt lat="45.33398727384243" lon="11.640949228092596"><ele>21.0</ele><time>2026-04-04T15:34:08.021Z</time></trkpt><trkpt lat="45.33387823081173" lon="11.640946867082112"><ele>21.0</ele><time>2026-04-04T15:34:09.021Z</time></trkpt><trkpt lat="45.33376012328142" lon="11.640948007145761"><ele>21.0</ele><time>2026-04-04T15:34:10.021Z</time></trkpt><trkpt lat="45.33364460163136" lon="11.640956498377545"><ele>21.0</ele><time>2026-04-04T15:34:11.021Z</time></trkpt><trkpt lat="45.33353516886254" lon="11.640967647895902"><ele>21.0</ele><time>2026-04-04T15:34:12.021Z</time></trkpt><trkpt lat="45.33342381932529" lon="11.640982097962903"><ele>21.0</ele><time>2026-04-04T15:34:13.021Z</time></trkpt><trkpt lat="45.33330461523798" lon="11.640989904736518"><ele>21.0</ele><time>2026-04-04T15:34:14.02Z</time></trkpt><trkpt lat="45.33317786040031" lon="11.640998374428039"><ele>21.0</ele><time>2026-04-04T15:34:15.02Z</time></trkpt><trkpt lat="45.33304825671166" lon="11.641013362928609"><ele>20.75</ele><time>2026-04-04T15:34:16.021Z</time></trkpt><trkpt lat="45.33291396092279" lon="11.640999591732454"><ele>20.5</ele><time>2026-04-04T15:34:17.021Z</time></trkpt><trkpt lat="45.33278078720733" lon="11.640968194337844"><ele>20.25</ele><time>2026-04-04T15:34:18.021Z</time></trkpt><trkpt lat="45.33265138779586" lon="11.640912602558258"><ele>20.0</ele><time>2026-04-04T15:34:19.021Z</time></trkpt><trkpt lat="45.332527215918205" lon="11.640835458111482"><ele>20.0</ele><time>2026-04-04T15:34:20.021Z</time></trkpt><trkpt lat="45.332402682631866" lon="11.64075602327493"><ele>20.0</ele><time>2026-04-04T15:34:21.021Z</time></trkpt><trkpt lat="45.332286615125575" lon="11.640682870761216"><ele>20.0</ele><time>2026-04-04T15:34:22.021Z</time></trkpt><trkpt lat="45.33216596515591" lon="11.640616825440564"><ele>20.0</ele><time>2026-04-04T15:34:23.021Z</time></trkpt><trkpt lat="45.33203388055931" lon="11.640563185219401"><ele>20.0</ele><time>2026-04-04T15:34:24.021Z</time></trkpt><trkpt lat="45.33189372973871" lon="11.640521379249707"><ele>20.0</ele><time>2026-04-04T15:34:25.021Z</time></trkpt><trkpt lat="45.33175373058257" lon="11.640514032208904"><ele>20.0</ele><time>2026-04-04T15:34:26.021Z</time></trkpt><trkpt lat="45.331613697916374" lon="11.640495905348915"><ele>20.0</ele><time>2026-04-04T15:34:27.021Z</time></trkpt><trkpt lat="45.33147790875349" lon="11.640497224140931"><ele>20.5</ele><time>2026-04-04T15:34:28.021Z</time></trkpt><trkpt lat="45.331348381147464" lon="11.640514435966109"><ele>21.0</ele><time>2026-04-04T15:34:29.021Z</time></trkpt><trkpt lat="45.33122299221348" lon="11.640541774831906"><ele>21.5</ele><time>2026-04-04T15:34:30.021Z</time></trkpt><trkpt lat="45.331103254474726" lon="11.640568435141352"><ele>22.0</ele><time>2026-04-04T15:34:31.021Z</time></trkpt><trkpt lat="45.33098742601841" lon="11.640602468439486"><ele>22.0</ele><time>2026-04-04T15:34:32.021Z</time></trkpt><trkpt lat="45.3308739939086" lon="11.64060512111351"><ele>22.0</ele><time>2026-04-04T15:34:33.021Z</time></trkpt><trkpt lat="45.330773276556314" lon="11.64062105950493"><ele>22.0</ele><time>2026-04-04T15:34:34.021Z</time></trkpt><trkpt lat="45.33068017236809" lon="11.64063182038881"><ele>22.0</ele><time>2026-04-04T15:34:35.021Z</time></trkpt><trkpt lat="45.330585935565814" lon="11.64063861330675"><ele>22.0</ele><time>2026-04-04T15:34:36.021Z</time></trkpt><trkpt lat="45.33048654874886" lon="11.640631281474478"><ele>22.0</ele><time>2026-04-04T15:34:37.021Z</time></trkpt><trkpt lat="45.33038773985381" lon="11.640611258789027"><ele>22.0</ele><time>2026-04-04T15:34:38.021Z</time></trkpt><trkpt lat="45.33028578654589" lon="11.64060131483253"><ele>22.0</ele><time>2026-04-04T15:34:39.021Z</time></trkpt><trkpt lat="45.3301952523093" lon="11.640524763051914"><ele>22.0</ele><time>2026-04-04T15:34:40.021Z</time></trkpt><trkpt lat="45.33009883345941" lon="11.640471312980862"><ele>22.0</ele><time>2026-04-04T15:34:41.021Z</time></trkpt><trkpt lat="45.32999615141459" lon="11.640410297659066"><ele>22.0</ele><time>2026-04-04T15:34:42.021Z</time></trkpt><trkpt lat="45.329886386812625" lon="11.640346053212093"><ele>22.0</ele><time>2026-04-04T15:34:43.021Z</time></trkpt><trkpt lat="45.32977820566661" lon="11.640280231126573"><ele>22.0</ele><time>2026-04-04T15:34:44.021Z</time></trkpt><trkpt lat="45.32966285410446" lon="11.640210046731193"><ele>22.0</ele><time>2026-04-04T15:34:45.021Z</time></trkpt><trkpt lat="45.32955679604428" lon="11.640141979188739"><ele>21.666666666666664</ele><time>2026-04-04T15:34:46.021Z</time></trkpt><trkpt lat="45.32947180231887" lon="11.640088367235688"><ele>21.333333333333332</ele><time>2026-04-04T15:34:47.021Z</time></trkpt><trkpt lat="45.32940253834049" lon="11.640043756388527"><ele>21.0</ele><time>2026-04-04T15:34:48.021Z</time></trkpt><trkpt lat="45.32933937910992" lon="11.640003006907508"><ele>20.666666666666668</ele><time>2026-04-04T15:34:49.021Z</time></trkpt><trkpt lat="45.329280209585306" lon="11.639964832028765"><ele>20.333333333333336</ele><time>2026-04-04T15:34:50.021Z</time></trkpt><trkpt lat="45.32916745571334" lon="11.639905154627057"><ele>20.0</ele><time>2026-04-04T15:34:52.021Z</time></trkpt><trkpt lat="45.329051060194395" lon="11.639849932918802"><ele>20.0</ele><time>2026-04-04T15:34:54.021Z</time></trkpt><trkpt lat="45.32895461351505" lon="11.63987000005204"><ele>20.0</ele><time>2026-04-04T15:34:55.021Z</time></trkpt><trkpt lat="45.32887342459171" lon="11.639809818845357"><ele>20.0</ele><time>2026-04-04T15:34:56.021Z</time></trkpt><trkpt lat="45.328792792605775" lon="11.639741894374936"><ele>20.0</ele><time>2026-04-04T15:34:57.021Z</time></trkpt><trkpt lat="45.328719430177756" lon="11.639664055477756"><ele>20.0</ele><time>2026-04-04T15:34:58.021Z</time></trkpt><trkpt lat="45.328676374284946" lon="11.639507231667748"><ele>19.6</ele><time>2026-04-04T15:34:59.021Z</time></trkpt><trkpt lat="45.32859298803476" lon="11.63944343660415"><ele>19.2</ele><time>2026-04-04T15:35:00.021Z</time></trkpt><trkpt lat="45.32849914224757" lon="11.639372033002683"><ele>18.8</ele><time>2026-04-04T15:35:01.021Z</time></trkpt><trkpt lat="45.32840168685774" lon="11.639298121407776"><ele>18.4</ele><time>2026-04-04T15:35:02.021Z</time></trkpt><trkpt lat="45.32830233663188" lon="11.639225622585155"><ele>18.0</ele><time>2026-04-04T15:35:03.021Z</time></trkpt><trkpt lat="45.32820633219855" lon="11.639155565289196"><ele>18.0</ele><time>2026-04-04T15:35:04.021Z</time></trkpt><trkpt lat="45.32811510677438" lon="11.639088995478721"><ele>18.0</ele><time>2026-04-04T15:35:05.021Z</time></trkpt><trkpt lat="45.32802258717181" lon="11.639022349753574"><ele>18.0</ele><time>2026-04-04T15:35:06.021Z</time></trkpt><trkpt lat="45.32793082599982" lon="11.638956202792416"><ele>18.0</ele><time>2026-04-04T15:35:07.021Z</time></trkpt><trkpt lat="45.32783431062892" lon="11.638887985581471"><ele>18.0</ele><time>2026-04-04T15:35:08.021Z</time></trkpt><trkpt lat="45.32774188692387" lon="11.638823022012636"><ele>17.8</ele><time>2026-04-04T15:35:09.021Z</time></trkpt><trkpt lat="45.3276481607845" lon="11.638757059840486"><ele>17.6</ele><time>2026-04-04T15:35:10.021Z</time></trkpt><trkpt lat="45.327556246535316" lon="11.63869237284218"><ele>17.4</ele><time>2026-04-04T15:35:11.021Z</time></trkpt><trkpt lat="45.32746404136833" lon="11.638627440766582"><ele>17.2</ele><time>2026-04-04T15:35:12.021Z</time></trkpt><trkpt lat="45.327369290501316" lon="11.638560574320353"><ele>17.0</ele><time>2026-04-04T15:35:13.021Z</time></trkpt><trkpt lat="45.327273146032965" lon="11.638491473663098"><ele>16.5</ele><time>2026-04-04T15:35:14.021Z</time></trkpt><trkpt lat="45.327165797360145" lon="11.638419085519667"><ele>16.0</ele><time>2026-04-04T15:35:15.021Z</time></trkpt><trkpt lat="45.3270669663388" lon="11.638354944055754"><ele>15.5</ele><time>2026-04-04T15:35:16.021Z</time></trkpt><trkpt lat="45.32696506318877" lon="11.638290788564253"><ele>15.0</ele><time>2026-04-04T15:35:17.021Z</time></trkpt><trkpt lat="45.326852481377024" lon="11.638224715474596"><ele>15.0</ele><time>2026-04-04T15:35:18.021Z</time></trkpt><trkpt lat="45.326734863206354" lon="11.63816007922295"><ele>15.0</ele><time>2026-04-04T15:35:19.021Z</time></trkpt><trkpt lat="45.326612999163885" lon="11.638101805499467"><ele>15.0</ele><time>2026-04-04T15:35:20.021Z</time></trkpt><trkpt lat="45.326487661671294" lon="11.638047901715478"><ele>15.0</ele><time>2026-04-04T15:35:21.021Z</time></trkpt><trkpt lat="45.326367456564256" lon="11.638003946756612"><ele>15.0</ele><time>2026-04-04T15:35:22.021Z</time></trkpt><trkpt lat="45.32623674999539" lon="11.637974843293556"><ele>15.0</ele><time>2026-04-04T15:35:23.021Z</time></trkpt><trkpt lat="45.32609913415602" lon="11.637900076359898"><ele>15.0</ele><time>2026-04-04T15:35:24.021Z</time></trkpt><trkpt lat="45.32593376612793" lon="11.637860017750091"><ele>15.0</ele><time>2026-04-04T15:35:25.021Z</time></trkpt><trkpt lat="45.32574722910175" lon="11.637817267054636"><ele>15.333333333333332</ele><time>2026-04-04T15:35:26.021Z</time></trkpt><trkpt lat="45.3255633216433" lon="11.637775950871273"><ele>15.666666666666666</ele><time>2026-04-04T15:35:27.021Z</time></trkpt><trkpt lat="45.32537493812669" lon="11.637746198459554"><ele>16.0</ele><time>2026-04-04T15:35:28.021Z</time></trkpt><trkpt lat="45.325192516770215" lon="11.63773567975064"><ele>16.0</ele><time>2026-04-04T15:35:29.021Z</time></trkpt><trkpt lat="45.32501746953828" lon="11.637748536691822"><ele>16.0</ele><time>2026-04-04T15:35:30.021Z</time></trkpt><trkpt lat="45.32485037923553" lon="11.637770645594962"><ele>16.0</ele><time>2026-04-04T15:35:31.021Z</time></trkpt><trkpt lat="45.324688881896584" lon="11.637788359999016"><ele>15.666666666666666</ele><time>2026-04-04T15:35:32.021Z</time></trkpt><trkpt lat="45.3245331743928" lon="11.637808859230077"><ele>15.333333333333332</ele><time>2026-04-04T15:35:33.021Z</time></trkpt><trkpt lat="45.32438214681346" lon="11.637827517403254"><ele>15.0</ele><time>2026-04-04T15:35:34.021Z</time></trkpt><trkpt lat="45.32422715828757" lon="11.637856991386546"><ele>15.0</ele><time>2026-04-04T15:35:35.02Z</time></trkpt><trkpt lat="45.324076877944435" lon="11.637876228234518"><ele>15.0</ele><time>2026-04-04T15:35:36.02Z</time></trkpt><trkpt lat="45.32393686428368" lon="11.637895118067725"><ele>15.0</ele><time>2026-04-04T15:35:37.02Z</time></trkpt><trkpt lat="45.32380906434193" lon="11.637911400613389"><ele>15.0</ele><time>2026-04-04T15:35:38.02Z</time></trkpt><trkpt lat="45.323699398603935" lon="11.637924232412848"><ele>15.166666666666666</ele><time>2026-04-04T15:35:39.02Z</time></trkpt><trkpt lat="45.32361152370853" lon="11.637934068549008"><ele>15.333333333333332</ele><time>2026-04-04T15:35:40.02Z</time></trkpt><trkpt lat="45.32352851209205" lon="11.637943471600083"><ele>15.5</ele><time>2026-04-04T15:35:41.02Z</time></trkpt><trkpt lat="45.323460924073835" lon="11.637943442716841"><ele>15.666666666666666</ele><time>2026-04-04T15:35:42.02Z</time></trkpt><trkpt lat="45.323343607804425" lon="11.637908429190475"><ele>15.833333333333332</ele><time>2026-04-04T15:35:44.02Z</time></trkpt><trkpt lat="45.32327361498384" lon="11.637855702496012"><ele>16.0</ele><time>2026-04-04T15:35:45.02Z</time></trkpt><trkpt lat="45.32319664897454" lon="11.63781363513739"><ele>16.25</ele><time>2026-04-04T15:35:46.02Z</time></trkpt><trkpt lat="45.32311024607171" lon="11.637780658596622"><ele>16.5</ele><time>2026-04-04T15:35:47.02Z</time></trkpt><trkpt lat="45.32300152019645" lon="11.637812844702971"><ele>16.75</ele><time>2026-04-04T15:35:48.02Z</time></trkpt><trkpt lat="45.322879004265054" lon="11.63779185938035"><ele>17.0</ele><time>2026-04-04T15:35:49.02Z</time></trkpt><trkpt lat="45.322742434367555" lon="11.63774992435372"><ele>17.0</ele><time>2026-04-04T15:35:50.02Z</time></trkpt><trkpt lat="45.32260402758698" lon="11.637702401218233"><ele>17.0</ele><time>2026-04-04T15:35:51.02Z</time></trkpt><trkpt lat="45.32245346615365" lon="11.637656498082231"><ele>17.0</ele><time>2026-04-04T15:35:52.02Z</time></trkpt><trkpt lat="45.32230298897807" lon="11.637616639295121"><ele>17.0</ele><time>2026-04-04T15:35:53.02Z</time></trkpt><trkpt lat="45.322155761058205" lon="11.63759920307343"><ele>17.0</ele><time>2026-04-04T15:35:54.02Z</time></trkpt><trkpt lat="45.32201174597241" lon="11.637599805427945"><ele>17.0</ele><time>2026-04-04T15:35:55.02Z</time></trkpt><trkpt lat="45.321874173968986" lon="11.637623536970507"><ele>17.0</ele><time>2026-04-04T15:35:56.02Z</time></trkpt><trkpt lat="45.32173042449085" lon="11.637675522273332"><ele>17.0</ele><time>2026-04-04T15:35:57.02Z</time></trkpt><trkpt lat="45.32157971424005" lon="11.637759028407864"><ele>16.333333333333336</ele><time>2026-04-04T15:35:58.02Z</time></trkpt><trkpt lat="45.321416477270134" lon="11.637886588594263"><ele>15.666666666666668</ele><time>2026-04-04T15:35:59.02Z</time></trkpt><trkpt lat="45.32124916439721" lon="11.638056231743171"><ele>15.0</ele><time>2026-04-04T15:36:00.02Z</time></trkpt><trkpt lat="45.3210915285027" lon="11.638238959790352"><ele>15.0</ele><time>2026-04-04T15:36:01.02Z</time></trkpt><trkpt lat="45.32093811294048" lon="11.638442682045207"><ele>15.0</ele><time>2026-04-04T15:36:02.02Z</time></trkpt><trkpt lat="45.320781398869904" lon="11.638632028152598"><ele>15.0</ele><time>2026-04-04T15:36:03.02Z</time></trkpt><trkpt lat="45.320613856004066" lon="11.638793975266157"><ele>15.666666666666668</ele><time>2026-04-04T15:36:04.02Z</time></trkpt><trkpt lat="45.320424415241554" lon="11.638893345639442"><ele>16.333333333333336</ele><time>2026-04-04T15:36:05.02Z</time></trkpt><trkpt lat="45.320219161550966" lon="11.638977556983646"><ele>17.0</ele><time>2026-04-04T15:36:06.02Z</time></trkpt><trkpt lat="45.32000904730306" lon="11.639056115137441"><ele>17.0</ele><time>2026-04-04T15:36:07.02Z</time></trkpt><trkpt lat="45.319801672186586" lon="11.639136348455612"><ele>17.0</ele><time>2026-04-04T15:36:08.02Z</time></trkpt><trkpt lat="45.31959868211225" lon="11.639165720564364"><ele>17.0</ele><time>2026-04-04T15:36:09.02Z</time></trkpt><trkpt lat="45.31940450365921" lon="11.639233154101625"><ele>17.0</ele><time>2026-04-04T15:36:10.02Z</time></trkpt><trkpt lat="45.31920150311713" lon="11.639304907470839"><ele>17.0</ele><time>2026-04-04T15:36:11.02Z</time></trkpt><trkpt lat="45.31898493339356" lon="11.639382825068013"><ele>17.0</ele><time>2026-04-04T15:36:12.02Z</time></trkpt><trkpt lat="45.318760179414625" lon="11.639467385815436"><ele>17.0</ele><time>2026-04-04T15:36:13.021Z</time></trkpt><trkpt lat="45.31853301157413" lon="11.63955594322252"><ele>17.0</ele><time>2026-04-04T15:36:14.022Z</time></trkpt><trkpt lat="45.318308914896534" lon="11.63963979980698"><ele>17.0</ele><time>2026-04-04T15:36:15.022Z</time></trkpt><trkpt lat="45.31810311907385" lon="11.639723355199221"><ele>17.0</ele><time>2026-04-04T15:36:16.021Z</time></trkpt><trkpt lat="45.31790337873909" lon="11.63979744557633"><ele>17.0</ele><time>2026-04-04T15:36:17.022Z</time></trkpt><trkpt lat="45.31770735319358" lon="11.639832435706655"><ele>17.666666666666668</ele><time>2026-04-04T15:36:18.022Z</time></trkpt><trkpt lat="45.31750345447606" lon="11.63983783411825"><ele>18.333333333333332</ele><time>2026-04-04T15:36:19.022Z</time></trkpt><trkpt lat="45.317300364679944" lon="11.639786595763992"><ele>19.0</ele><time>2026-04-04T15:36:20.022Z</time></trkpt><trkpt lat="45.317094079701434" lon="11.639704972648822"><ele>19.0</ele><time>2026-04-04T15:36:21.022Z</time></trkpt><trkpt lat="45.31687848656198" lon="11.63961509410738"><ele>19.0</ele><time>2026-04-04T15:36:22.021Z</time></trkpt><trkpt lat="45.316655250513946" lon="11.63953473702176"><ele>17.5</ele><time>2026-04-04T15:36:23.021Z</time></trkpt><trkpt lat="45.316429843751614" lon="11.639449372267322"><ele>16.0</ele><time>2026-04-04T15:36:24.021Z</time></trkpt><trkpt lat="45.31620325194893" lon="11.639362147955142"><ele>16.0</ele><time>2026-04-04T15:36:25.021Z</time></trkpt><trkpt lat="45.31597522809005" lon="11.639276353501433"><ele>16.0</ele><time>2026-04-04T15:36:26.022Z</time></trkpt><trkpt lat="45.31575023884646" lon="11.639190297681226"><ele>17.0</ele><time>2026-04-04T15:36:27.022Z</time></trkpt><trkpt lat="45.31552702333128" lon="11.639117450152385"><ele>18.0</ele><time>2026-04-04T15:36:28.022Z</time></trkpt><trkpt lat="45.31530225510474" lon="11.639069162169367"><ele>18.0</ele><time>2026-04-04T15:36:29.022Z</time></trkpt><trkpt lat="45.31508224492737" lon="11.638993510671341"><ele>18.0</ele><time>2026-04-04T15:36:30.022Z</time></trkpt><trkpt lat="45.314860893457706" lon="11.638967474146712"><ele>18.0</ele><time>2026-04-04T15:36:31.022Z</time></trkpt><trkpt lat="45.314651053683825" lon="11.63893856225405"><ele>18.0</ele><time>2026-04-04T15:36:32.022Z</time></trkpt><trkpt lat="45.31445870200281" lon="11.63891640732856"><ele>18.0</ele><time>2026-04-04T15:36:33.022Z</time></trkpt><trkpt lat="45.314282291349336" lon="11.638895148547514"><ele>18.0</ele><time>2026-04-04T15:36:34.022Z</time></trkpt><trkpt lat="45.31412364981182" lon="11.638869080376049"><ele>18.0</ele><time>2026-04-04T15:36:35.022Z</time></trkpt><trkpt lat="45.31397618257408" lon="11.638850939864358"><ele>18.0</ele><time>2026-04-04T15:36:36.022Z</time></trkpt><trkpt lat="45.31383291691659" lon="11.638843383383412"><ele>18.0</ele><time>2026-04-04T15:36:37.022Z</time></trkpt><trkpt lat="45.31368080655345" lon="11.638826363705427"><ele>18.0</ele><time>2026-04-04T15:36:38.022Z</time></trkpt><trkpt lat="45.31350974061781" lon="11.638807891885433"><ele>18.0</ele><time>2026-04-04T15:36:39.022Z</time></trkpt><trkpt lat="45.3133304628114" lon="11.638787685138933"><ele>18.0</ele><time>2026-04-04T15:36:40.022Z</time></trkpt><trkpt lat="45.31313608913255" lon="11.638768048196717"><ele>18.0</ele><time>2026-04-04T15:36:41.022Z</time></trkpt><trkpt lat="45.31294470834813" lon="11.63874712870749"><ele>18.0</ele><time>2026-04-04T15:36:42.022Z</time></trkpt><trkpt lat="45.31276322554923" lon="11.6387225405885"><ele>18.0</ele><time>2026-04-04T15:36:43.022Z</time></trkpt><trkpt lat="45.31259451764077" lon="11.638702756938963"><ele>18.0</ele><time>2026-04-04T15:36:44.022Z</time></trkpt><trkpt lat="45.31243633918465" lon="11.638683175641246"><ele>18.0</ele><time>2026-04-04T15:36:45.022Z</time></trkpt><trkpt lat="45.31227966874359" lon="11.638666656134136"><ele>18.0</ele><time>2026-04-04T15:36:46.022Z</time></trkpt><trkpt lat="45.31211521137561" lon="11.63864709869971"><ele>18.0</ele><time>2026-04-04T15:36:47.022Z</time></trkpt><trkpt lat="45.31192685673625" lon="11.638651351856007"><ele>17.666666666666668</ele><time>2026-04-04T15:36:48.022Z</time></trkpt><trkpt lat="45.31173640638688" lon="11.638668635456296"><ele>17.333333333333336</ele><time>2026-04-04T15:36:49.022Z</time></trkpt><trkpt lat="45.31155957195456" lon="11.638691369457751"><ele>17.0</ele><time>2026-04-04T15:36:50.022Z</time></trkpt><trkpt lat="45.311379567101" lon="11.638713099212438"><ele>16.666666666666668</ele><time>2026-04-04T15:36:51.022Z</time></trkpt><trkpt lat="45.311203209921246" lon="11.638734406977054"><ele>16.333333333333332</ele><time>2026-04-04T15:36:52.022Z</time></trkpt><trkpt lat="45.31102771904559" lon="11.63875864028293"><ele>16.0</ele><time>2026-04-04T15:36:53.022Z</time></trkpt><trkpt lat="45.31085302404113" lon="11.63878097558913"><ele>16.0</ele><time>2026-04-04T15:36:54.022Z</time></trkpt><trkpt lat="45.310688525029626" lon="11.638804379112237"><ele>16.0</ele><time>2026-04-04T15:36:55.022Z</time></trkpt><trkpt lat="45.31053429111522" lon="11.638831175150848"><ele>16.0</ele><time>2026-04-04T15:36:56.022Z</time></trkpt><trkpt lat="45.31038876321866" lon="11.638845974731593"><ele>15.666666666666666</ele><time>2026-04-04T15:36:57.022Z</time></trkpt><trkpt lat="45.31023675153069" lon="11.6388664269451"><ele>15.333333333333332</ele><time>2026-04-04T15:36:58.022Z</time></trkpt><trkpt lat="45.31008298381873" lon="11.638881624909171"><ele>15.0</ele><time>2026-04-04T15:36:59.022Z</time></trkpt><trkpt lat="45.30992373772693" lon="11.638898189518056"><ele>15.0</ele><time>2026-04-04T15:37:00.022Z</time></trkpt><trkpt lat="45.309764877761175" lon="11.638918075220706"><ele>15.0</ele><time>2026-04-04T15:37:01.022Z</time></trkpt><trkpt lat="45.309596823237364" lon="11.638942049875514"><ele>15.0</ele><time>2026-04-04T15:37:02.022Z</time></trkpt><trkpt lat="45.30943601433594" lon="11.638957371172816"><ele>15.0</ele><time>2026-04-04T15:37:03.022Z</time></trkpt><trkpt lat="45.30927989114018" lon="11.638970352790325"><ele>15.0</ele><time>2026-04-04T15:37:04.022Z</time></trkpt><trkpt lat="45.30912193153613" lon="11.638994638298778"><ele>15.0</ele><time>2026-04-04T15:37:05.022Z</time></trkpt><trkpt lat="45.30896539541937" lon="11.639017045483401"><ele>15.0</ele><time>2026-04-04T15:37:06.022Z</time></trkpt><trkpt lat="45.30879990586812" lon="11.639057700790012"><ele>15.0</ele><time>2026-04-04T15:37:07.022Z</time></trkpt><trkpt lat="45.308645029835105" lon="11.639106631539981"><ele>15.0</ele><time>2026-04-04T15:37:08.022Z</time></trkpt><trkpt lat="45.308491667291534" lon="11.63918089121866"><ele>15.0</ele><time>2026-04-04T15:37:09.022Z</time></trkpt><trkpt lat="45.308328443181324" lon="11.63927676694314"><ele>15.0</ele><time>2026-04-04T15:37:10.022Z</time></trkpt><trkpt lat="45.3081661562086" lon="11.639381996382427"><ele>15.0</ele><time>2026-04-04T15:37:11.021Z</time></trkpt><trkpt lat="45.30800528862819" lon="11.639476042097566"><ele>15.333333333333332</ele><time>2026-04-04T15:37:12.021Z</time></trkpt><trkpt lat="45.30783428868683" lon="11.639540562263539"><ele>15.666666666666666</ele><time>2026-04-04T15:37:13.021Z</time></trkpt><trkpt lat="45.307677379504106" lon="11.639561769815133"><ele>16.0</ele><time>2026-04-04T15:37:14.021Z</time></trkpt><trkpt lat="45.30752261441961" lon="11.639560117647772"><ele>16.0</ele><time>2026-04-04T15:37:15.021Z</time></trkpt><trkpt lat="45.307363410647845" lon="11.639554695115715"><ele>16.0</ele><time>2026-04-04T15:37:16.021Z</time></trkpt><trkpt lat="45.307195461809144" lon="11.63951551662532"><ele>16.0</ele><time>2026-04-04T15:37:17.021Z</time></trkpt><trkpt lat="45.307039739389424" lon="11.639486028068736"><ele>15.0</ele><time>2026-04-04T15:37:18.021Z</time></trkpt><trkpt lat="45.306886701379156" lon="11.639452777468954"><ele>14.0</ele><time>2026-04-04T15:37:19.021Z</time></trkpt><trkpt lat="45.30672230000326" lon="11.639423277043418"><ele>13.0</ele><time>2026-04-04T15:37:20.021Z</time></trkpt><trkpt lat="45.306549238498114" lon="11.639385534197643"><ele>12.666666666666666</ele><time>2026-04-04T15:37:21.021Z</time></trkpt><trkpt lat="45.30637331645067" lon="11.63932204727487"><ele>12.333333333333332</ele><time>2026-04-04T15:37:22.021Z</time></trkpt><trkpt lat="45.30621350888711" lon="11.639243885150133"><ele>12.0</ele><time>2026-04-04T15:37:23.021Z</time></trkpt><trkpt lat="45.306063964594756" lon="11.639161234604757"><ele>12.0</ele><time>2026-04-04T15:37:24.021Z</time></trkpt><trkpt lat="45.30591576911916" lon="11.639095711856383"><ele>12.0</ele><time>2026-04-04T15:37:25.021Z</time></trkpt><trkpt lat="45.305769449474376" lon="11.639032127237988"><ele>12.0</ele><time>2026-04-04T15:37:26.021Z</time></trkpt><trkpt lat="45.30563029678937" lon="11.638961642392783"><ele>12.333333333333332</ele><time>2026-04-04T15:37:27.021Z</time></trkpt><trkpt lat="45.305483633726084" lon="11.638888970241071"><ele>12.666666666666666</ele><time>2026-04-04T15:37:28.021Z</time></trkpt><trkpt lat="45.30532801966103" lon="11.63881068661182"><ele>13.0</ele><time>2026-04-04T15:37:29.021Z</time></trkpt><trkpt lat="45.305172359443155" lon="11.638732014731335"><ele>13.0</ele><time>2026-04-04T15:37:30.021Z</time></trkpt><trkpt lat="45.30501907107892" lon="11.638654951821268"><ele>13.0</ele><time>2026-04-04T15:37:31.021Z</time></trkpt><trkpt lat="45.30486419047414" lon="11.638593837545077"><ele>13.0</ele><time>2026-04-04T15:37:32.021Z</time></trkpt><trkpt lat="45.3047024504422" lon="11.638552483908319"><ele>13.0</ele><time>2026-04-04T15:37:33.021Z</time></trkpt><trkpt lat="45.304533460291104" lon="11.638536310880841"><ele>13.0</ele><time>2026-04-04T15:37:34.021Z</time></trkpt><trkpt lat="45.30436630056863" lon="11.638534122497932"><ele>13.0</ele><time>2026-04-04T15:37:35.021Z</time></trkpt><trkpt lat="45.30420479754686" lon="11.638544045483874"><ele>13.0</ele><time>2026-04-04T15:37:36.021Z</time></trkpt><trkpt lat="45.30404423963731" lon="11.638563529819146"><ele>13.0</ele><time>2026-04-04T15:37:37.021Z</time></trkpt><trkpt lat="45.30388655466384" lon="11.638587194972851"><ele>13.0</ele><time>2026-04-04T15:37:38.021Z</time></trkpt><trkpt lat="45.30372700325106" lon="11.63861511806582"><ele>14.666666666666666</ele><time>2026-04-04T15:37:39.021Z</time></trkpt><trkpt lat="45.30355718123888" lon="11.638646281276067"><ele>16.333333333333332</ele><time>2026-04-04T15:37:40.021Z</time></trkpt><trkpt lat="45.30339172117453" lon="11.638672781675787"><ele>18.0</ele><time>2026-04-04T15:37:41.021Z</time></trkpt><trkpt lat="45.30321772484426" lon="11.638707866725484"><ele>20.333333333333336</ele><time>2026-04-04T15:37:42.021Z</time></trkpt><trkpt lat="45.30304658641301" lon="11.63873578389719"><ele>22.666666666666668</ele><time>2026-04-04T15:37:43.021Z</time></trkpt><trkpt lat="45.30287567736165" lon="11.638762348096547"><ele>25.0</ele><time>2026-04-04T15:37:44.021Z</time></trkpt><trkpt lat="45.302696378099334" lon="11.638787033574356"><ele>25.0</ele><time>2026-04-04T15:37:45.021Z</time></trkpt><trkpt lat="45.30251340259235" lon="11.63881975049527"><ele>25.0</ele><time>2026-04-04T15:37:46.021Z</time></trkpt><trkpt lat="45.30233005171759" lon="11.638829029617277"><ele>25.0</ele><time>2026-04-04T15:37:47.021Z</time></trkpt><trkpt lat="45.30214963299311" lon="11.638860717075083"><ele>24.333333333333336</ele><time>2026-04-04T15:37:48.021Z</time></trkpt><trkpt lat="45.30197076173933" lon="11.638892249520765"><ele>23.666666666666668</ele><time>2026-04-04T15:37:49.021Z</time></trkpt><trkpt lat="45.30179377599387" lon="11.638928180005395"><ele>23.0</ele><time>2026-04-04T15:37:50.021Z</time></trkpt><trkpt lat="45.3016302342244" lon="11.638963738018468"><ele>23.0</ele><time>2026-04-04T15:37:51.021Z</time></trkpt><trkpt lat="45.301466967283645" lon="11.639007117349289"><ele>23.0</ele><time>2026-04-04T15:37:52.021Z</time></trkpt><trkpt lat="45.30130562358575" lon="11.639067510402787"><ele>23.0</ele><time>2026-04-04T15:37:53.021Z</time></trkpt><trkpt lat="45.30114192041931" lon="11.63915645382322"><ele>23.0</ele><time>2026-04-04T15:37:54.021Z</time></trkpt><trkpt lat="45.30096713351105" lon="11.639301191450667"><ele>23.0</ele><time>2026-04-04T15:37:55.021Z</time></trkpt><trkpt lat="45.30079619263369" lon="11.639464070626858"><ele>23.0</ele><time>2026-04-04T15:37:56.021Z</time></trkpt><trkpt lat="45.30062046357402" lon="11.639607472979131"><ele>18.0</ele><time>2026-04-04T15:37:57.021Z</time></trkpt><trkpt lat="45.300426112942354" lon="11.639776851288596"><ele>13.0</ele><time>2026-04-04T15:37:58.021Z</time></trkpt><trkpt lat="45.30020654201467" lon="11.639924778707131"><ele>13.0</ele><time>2026-04-04T15:37:59.021Z</time></trkpt><trkpt lat="45.299987049812614" lon="11.640079525593796"><ele>13.0</ele><time>2026-04-04T15:38:00.021Z</time></trkpt><trkpt lat="45.29978082567503" lon="11.640226963683354"><ele>13.333333333333332</ele><time>2026-04-04T15:38:01.021Z</time></trkpt><trkpt lat="45.29957694454978" lon="11.640341735647478"><ele>13.666666666666668</ele><time>2026-04-04T15:38:02.021Z</time></trkpt><trkpt lat="45.29939180593704" lon="11.640448768223091"><ele>14.0</ele><time>2026-04-04T15:38:03.021Z</time></trkpt><trkpt lat="45.299225180725074" lon="11.640572535999766"><ele>14.0</ele><time>2026-04-04T15:38:04.021Z</time></trkpt><trkpt lat="45.29906379927711" lon="11.640690529620178"><ele>14.0</ele><time>2026-04-04T15:38:05.021Z</time></trkpt><trkpt lat="45.29889854808711" lon="11.640809875985997"><ele>14.0</ele><time>2026-04-04T15:38:06.021Z</time></trkpt><trkpt lat="45.298739690516996" lon="11.64093752702395"><ele>13.333333333333334</ele><time>2026-04-04T15:38:07.021Z</time></trkpt><trkpt lat="45.29857943413613" lon="11.641093387712617"><ele>12.666666666666668</ele><time>2026-04-04T15:38:08.021Z</time></trkpt><trkpt lat="45.29843164186246" lon="11.641271478009644"><ele>12.0</ele><time>2026-04-04T15:38:09.021Z</time></trkpt><trkpt lat="45.298287910896754" lon="11.641468535957996"><ele>11.333333333333334</ele><time>2026-04-04T15:38:10.021Z</time></trkpt><trkpt lat="45.29814428649745" lon="11.641682114007686"><ele>10.666666666666668</ele><time>2026-04-04T15:38:11.021Z</time></trkpt><trkpt lat="45.29799454309285" lon="11.641894537110362"><ele>10.0</ele><time>2026-04-04T15:38:12.021Z</time></trkpt><trkpt lat="45.29784338279574" lon="11.642086426865285"><ele>11.666666666666668</ele><time>2026-04-04T15:38:13.021Z</time></trkpt><trkpt lat="45.297707171489314" lon="11.642290695089361"><ele>13.333333333333334</ele><time>2026-04-04T15:38:14.021Z</time></trkpt><trkpt lat="45.29756415827943" lon="11.642492037600963"><ele>15.0</ele><time>2026-04-04T15:38:15.021Z</time></trkpt><trkpt lat="45.29741698000882" lon="11.642698364332546"><ele>16.0</ele><time>2026-04-04T15:38:16.021Z</time></trkpt><trkpt lat="45.2972442016053" lon="11.642876009582654"><ele>17.0</ele><time>2026-04-04T15:38:17.021Z</time></trkpt><trkpt lat="45.29709316206885" lon="11.643080558834436"><ele>18.0</ele><time>2026-04-04T15:38:18.021Z</time></trkpt><trkpt lat="45.29694387435333" lon="11.643284425166723"><ele>18.0</ele><time>2026-04-04T15:38:19.022Z</time></trkpt><trkpt lat="45.29679370575988" lon="11.643490338753782"><ele>18.0</ele><time>2026-04-04T15:38:20.022Z</time></trkpt><trkpt lat="45.296638818095076" lon="11.643700494993464"><ele>18.0</ele><time>2026-04-04T15:38:21.022Z</time></trkpt><trkpt lat="45.29648669242231" lon="11.643917257399218"><ele>17.666666666666668</ele><time>2026-04-04T15:38:22.022Z</time></trkpt><trkpt lat="45.29633268989738" lon="11.644128583164424"><ele>17.333333333333336</ele><time>2026-04-04T15:38:23.022Z</time></trkpt><trkpt lat="45.29618291951794" lon="11.644343234871219"><ele>17.0</ele><time>2026-04-04T15:38:24.022Z</time></trkpt><trkpt lat="45.29604591972235" lon="11.64454404028458"><ele>18.666666666666668</ele><time>2026-04-04T15:38:25.022Z</time></trkpt><trkpt lat="45.2959171843963" lon="11.644732602357905"><ele>20.333333333333332</ele><time>2026-04-04T15:38:26.022Z</time></trkpt><trkpt lat="45.29578764242416" lon="11.644917333862919"><ele>22.0</ele><time>2026-04-04T15:38:27.022Z</time></trkpt><trkpt lat="45.29565724963609" lon="11.645085141172967"><ele>22.0</ele><time>2026-04-04T15:38:28.023Z</time></trkpt><trkpt lat="45.29553009903291" lon="11.64523504616584"><ele>22.0</ele><time>2026-04-04T15:38:29.023Z</time></trkpt><trkpt lat="45.295398830223725" lon="11.645369431875183"><ele>22.0</ele><time>2026-04-04T15:38:30.023Z</time></trkpt><trkpt lat="45.29525507868495" lon="11.645459926075453"><ele>22.0</ele><time>2026-04-04T15:38:31.022Z</time></trkpt><trkpt lat="45.29512115676902" lon="11.645584112570123"><ele>22.0</ele><time>2026-04-04T15:38:32.022Z</time></trkpt><trkpt lat="45.29496548443284" lon="11.64565931352547"><ele>22.0</ele><time>2026-04-04T15:38:33.022Z</time></trkpt><trkpt lat="45.294798193858846" lon="11.645726601751353"><ele>22.25</ele><time>2026-04-04T15:38:34.022Z</time></trkpt><trkpt lat="45.294642759053694" lon="11.645777256321933"><ele>22.5</ele><time>2026-04-04T15:38:35.022Z</time></trkpt><trkpt lat="45.294499125101396" lon="11.645822730101534"><ele>22.75</ele><time>2026-04-04T15:38:36.022Z</time></trkpt><trkpt lat="45.294383559626944" lon="11.645831701549914"><ele>23.0</ele><time>2026-04-04T15:38:37.022Z</time></trkpt><trkpt lat="45.294270708651375" lon="11.645848342075707"><ele>23.0</ele><time>2026-04-04T15:38:38.022Z</time></trkpt><trkpt lat="45.29414788366033" lon="11.645864667958332"><ele>23.0</ele><time>2026-04-04T15:38:39.022Z</time></trkpt><trkpt lat="45.29400346455011" lon="11.645878019347522"><ele>23.0</ele><time>2026-04-04T15:38:40.022Z</time></trkpt><trkpt lat="45.29383738019851" lon="11.645905677665072"><ele>23.0</ele><time>2026-04-04T15:38:41.022Z</time></trkpt><trkpt lat="45.293659164197514" lon="11.645892476537675"><ele>22.0</ele><time>2026-04-04T15:38:42.022Z</time></trkpt><trkpt lat="45.293480275560846" lon="11.645938189300407"><ele>21.0</ele><time>2026-04-04T15:38:43.022Z</time></trkpt><trkpt lat="45.29329453482437" lon="11.64596359175054"><ele>20.0</ele><time>2026-04-04T15:38:44.022Z</time></trkpt><trkpt lat="45.29310717507231" lon="11.645962911451793"><ele>19.666666666666668</ele><time>2026-04-04T15:38:45.022Z</time></trkpt><trkpt lat="45.29292937692835" lon="11.645982831866885"><ele>19.333333333333332</ele><time>2026-04-04T15:38:46.022Z</time></trkpt><trkpt lat="45.292757728796104" lon="11.6459954560622"><ele>19.0</ele><time>2026-04-04T15:38:47.022Z</time></trkpt><trkpt lat="45.292607274387166" lon="11.645983996172882"><ele>19.0</ele><time>2026-04-04T15:38:48.022Z</time></trkpt><trkpt lat="45.292462883736704" lon="11.64597659798891"><ele>19.0</ele><time>2026-04-04T15:38:49.022Z</time></trkpt><trkpt lat="45.29231366064003" lon="11.645957142112831"><ele>19.0</ele><time>2026-04-04T15:38:50.022Z</time></trkpt><trkpt lat="45.292154883277156" lon="11.645937077600522"><ele>19.0</ele><time>2026-04-04T15:38:51.022Z</time></trkpt><trkpt lat="45.29198040515911" lon="11.645905779690501"><ele>19.0</ele><time>2026-04-04T15:38:52.022Z</time></trkpt><trkpt lat="45.291791165632795" lon="11.64587229946773"><ele>19.0</ele><time>2026-04-04T15:38:53.022Z</time></trkpt><trkpt lat="45.291600922837986" lon="11.645836539676532"><ele>18.666666666666664</ele><time>2026-04-04T15:38:54.022Z</time></trkpt><trkpt lat="45.29140801467433" lon="11.64580799489362"><ele>18.333333333333332</ele><time>2026-04-04T15:38:55.022Z</time></trkpt><trkpt lat="45.291219205091856" lon="11.645779182086113"><ele>18.0</ele><time>2026-04-04T15:38:56.022Z</time></trkpt><trkpt lat="45.29103137750016" lon="11.645733944188853"><ele>18.0</ele><time>2026-04-04T15:38:57.022Z</time></trkpt><trkpt lat="45.2908435005467" lon="11.645732538814455"><ele>18.0</ele><time>2026-04-04T15:38:58.022Z</time></trkpt><trkpt lat="45.290661117776594" lon="11.645710680676334"><ele>18.0</ele><time>2026-04-04T15:38:59.022Z</time></trkpt><trkpt lat="45.290489234501386" lon="11.645713308167949"><ele>17.333333333333332</ele><time>2026-04-04T15:39:00.022Z</time></trkpt><trkpt lat="45.290316475734876" lon="11.645728834207622"><ele>16.666666666666664</ele><time>2026-04-04T15:39:01.022Z</time></trkpt><trkpt lat="45.290140790076606" lon="11.645754561691545"><ele>16.0</ele><time>2026-04-04T15:39:02.022Z</time></trkpt><trkpt lat="45.2899611181428" lon="11.645794497659507"><ele>16.0</ele><time>2026-04-04T15:39:03.022Z</time></trkpt><trkpt lat="45.28979610974234" lon="11.645833794163567"><ele>16.0</ele><time>2026-04-04T15:39:04.022Z</time></trkpt><trkpt lat="45.28965184489615" lon="11.645877767713015"><ele>16.0</ele><time>2026-04-04T15:39:05.022Z</time></trkpt><trkpt lat="45.28951990597509" lon="11.645925205545936"><ele>16.5</ele><time>2026-04-04T15:39:06.022Z</time></trkpt><trkpt lat="45.289383222373125" lon="11.64596210169231"><ele>17.0</ele><time>2026-04-04T15:39:07.022Z</time></trkpt><trkpt lat="45.289240270723646" lon="11.645994000102803"><ele>17.5</ele><time>2026-04-04T15:39:08.022Z</time></trkpt><trkpt lat="45.28908799501903" lon="11.646055700068585"><ele>18.0</ele><time>2026-04-04T15:39:09.022Z</time></trkpt><trkpt lat="45.28892984964651" lon="11.646159496715956"><ele>18.0</ele><time>2026-04-04T15:39:10.022Z</time></trkpt><trkpt lat="45.28876998485627" lon="11.64629994902618"><ele>18.0</ele><time>2026-04-04T15:39:11.022Z</time></trkpt><trkpt lat="45.288610691142495" lon="11.64645714309006"><ele>18.0</ele><time>2026-04-04T15:39:12.022Z</time></trkpt><trkpt lat="45.288455001501895" lon="11.646639494220743"><ele>18.0</ele><time>2026-04-04T15:39:13.022Z</time></trkpt><trkpt lat="45.288295947703205" lon="11.646835551529024"><ele>18.0</ele><time>2026-04-04T15:39:14.022Z</time></trkpt><trkpt lat="45.2881261429293" lon="11.64703348196034"><ele>18.0</ele><time>2026-04-04T15:39:15.022Z</time></trkpt><trkpt lat="45.28795954404451" lon="11.647232228866411"><ele>18.0</ele><time>2026-04-04T15:39:16.022Z</time></trkpt><trkpt lat="45.287775704068466" lon="11.647375453755048"><ele>18.0</ele><time>2026-04-04T15:39:17.022Z</time></trkpt><trkpt lat="45.28758150557201" lon="11.647487837282322"><ele>18.0</ele><time>2026-04-04T15:39:18.022Z</time></trkpt><trkpt lat="45.28738857227314" lon="11.647597324258697"><ele>17.0</ele><time>2026-04-04T15:39:19.022Z</time></trkpt><trkpt lat="45.28720300914932" lon="11.647697810126292"><ele>16.0</ele><time>2026-04-04T15:39:20.022Z</time></trkpt><trkpt lat="45.28701262458387" lon="11.647793734268507"><ele>15.0</ele><time>2026-04-04T15:39:21.022Z</time></trkpt><trkpt lat="45.286826006268235" lon="11.647892999639563"><ele>15.666666666666668</ele><time>2026-04-04T15:39:22.022Z</time></trkpt><trkpt lat="45.28664392115318" lon="11.648003828051703"><ele>16.333333333333336</ele><time>2026-04-04T15:39:23.021Z</time></trkpt><trkpt lat="45.28646628456153" lon="11.64810835324234"><ele>17.0</ele><time>2026-04-04T15:39:24.021Z</time></trkpt><trkpt lat="45.286288873085745" lon="11.64817964802412"><ele>17.0</ele><time>2026-04-04T15:39:25.021Z</time></trkpt><trkpt lat="45.28611842893811" lon="11.648205441046441"><ele>17.0</ele><time>2026-04-04T15:39:26.021Z</time></trkpt><trkpt lat="45.28595424694452" lon="11.64819019639938"><ele>17.0</ele><time>2026-04-04T15:39:27.021Z</time></trkpt><trkpt lat="45.28579130022351" lon="11.648151005766895"><ele>17.0</ele><time>2026-04-04T15:39:28.021Z</time></trkpt><trkpt lat="45.28562557616698" lon="11.648089803375852"><ele>17.0</ele><time>2026-04-04T15:39:29.021Z</time></trkpt><trkpt lat="45.285456289463326" lon="11.648022570770188"><ele>17.0</ele><time>2026-04-04T15:39:30.021Z</time></trkpt><trkpt lat="45.28529749291371" lon="11.647947929752211"><ele>19.0</ele><time>2026-04-04T15:39:31.021Z</time></trkpt><trkpt lat="45.285170821664614" lon="11.647867938172347"><ele>21.0</ele><time>2026-04-04T15:39:32.021Z</time></trkpt><trkpt lat="45.285058860059635" lon="11.647778540671588"><ele>23.0</ele><time>2026-04-04T15:39:33.021Z</time></trkpt><trkpt lat="45.284983162066794" lon="11.64764689187296"><ele>25.0</ele><time>2026-04-04T15:39:34.021Z</time></trkpt><trkpt lat="45.28494400739904" lon="11.647485728254432"><ele>25.0</ele><time>2026-04-04T15:39:35.021Z</time></trkpt><trkpt lat="45.28491176749385" lon="11.647280671535716"><ele>25.0</ele><time>2026-04-04T15:39:36.021Z</time></trkpt><trkpt lat="45.28487934597339" lon="11.64704152884454"><ele>25.0</ele><time>2026-04-04T15:39:37.021Z</time></trkpt><trkpt lat="45.284845142496664" lon="11.64678902417548"><ele>24.333333333333336</ele><time>2026-04-04T15:39:38.021Z</time></trkpt><trkpt lat="45.28481121929651" lon="11.64653858854411"><ele>23.666666666666668</ele><time>2026-04-04T15:39:39.021Z</time></trkpt><trkpt lat="45.28477797968363" lon="11.64630997643149"><ele>23.0</ele><time>2026-04-04T15:39:40.021Z</time></trkpt><trkpt lat="45.28473517801144" lon="11.646097683234816"><ele>25.75</ele><time>2026-04-04T15:39:41.021Z</time></trkpt><trkpt lat="45.28467118135418" lon="11.64591782850891"><ele>28.5</ele><time>2026-04-04T15:39:42.021Z</time></trkpt><trkpt lat="45.28457571195093" lon="11.645775464901437"><ele>31.25</ele><time>2026-04-04T15:39:43.021Z</time></trkpt><trkpt lat="45.28443744655915" lon="11.645694957150285"><ele>34.0</ele><time>2026-04-04T15:39:44.021Z</time></trkpt><trkpt lat="45.284293756617416" lon="11.645704379539357"><ele>34.0</ele><time>2026-04-04T15:39:45.021Z</time></trkpt><trkpt lat="45.2841443370406" lon="11.645710139649958"><ele>34.0</ele><time>2026-04-04T15:39:46.021Z</time></trkpt><trkpt lat="45.28399809880414" lon="11.645757162038064"><ele>34.0</ele><time>2026-04-04T15:39:47.021Z</time></trkpt><trkpt lat="45.28386093578716" lon="11.64583719592967"><ele>34.0</ele><time>2026-04-04T15:39:48.021Z</time></trkpt><trkpt lat="45.283707175372335" lon="11.645961341381001"><ele>33.0</ele><time>2026-04-04T15:39:49.021Z</time></trkpt><trkpt lat="45.283564400482504" lon="11.646132884706036"><ele>32.0</ele><time>2026-04-04T15:39:50.021Z</time></trkpt><trkpt lat="45.28340958819733" lon="11.646327575279278"><ele>31.0</ele><time>2026-04-04T15:39:51.021Z</time></trkpt><trkpt lat="45.28326038849996" lon="11.646516023428733"><ele>31.0</ele><time>2026-04-04T15:39:52.021Z</time></trkpt><trkpt lat="45.283112947519356" lon="11.64670106478646"><ele>31.0</ele><time>2026-04-04T15:39:53.021Z</time></trkpt><trkpt lat="45.28297216311874" lon="11.646874877496854"><ele>31.0</ele><time>2026-04-04T15:39:54.021Z</time></trkpt><trkpt lat="45.28281931655469" lon="11.647033287849789"><ele>31.0</ele><time>2026-04-04T15:39:55.021Z</time></trkpt><trkpt lat="45.28265092663055" lon="11.647167169368943"><ele>31.0</ele><time>2026-04-04T15:39:56.021Z</time></trkpt><trkpt lat="45.282467421086444" lon="11.647291686605216"><ele>31.0</ele><time>2026-04-04T15:39:57.021Z</time></trkpt><trkpt lat="45.28227986890922" lon="11.647394134314757"><ele>29.333333333333336</ele><time>2026-04-04T15:39:58.021Z</time></trkpt><trkpt lat="45.282076210966885" lon="11.64748153497639"><ele>27.666666666666664</ele><time>2026-04-04T15:39:59.021Z</time></trkpt><trkpt lat="45.28186725499631" lon="11.647546187340398"><ele>26.0</ele><time>2026-04-04T15:40:00.021Z</time></trkpt><trkpt lat="45.281646328471396" lon="11.647574675205794"><ele>26.5</ele><time>2026-04-04T15:40:01.021Z</time></trkpt><trkpt lat="45.28141048686089" lon="11.64758071751535"><ele>27.0</ele><time>2026-04-04T15:40:02.021Z</time></trkpt><trkpt lat="45.28116615223321" lon="11.647561470728737"><ele>27.0</ele><time>2026-04-04T15:40:03.021Z</time></trkpt><trkpt lat="45.28091656389732" lon="11.647529719665494"><ele>27.0</ele><time>2026-04-04T15:40:04.021Z</time></trkpt><trkpt lat="45.28066130791667" lon="11.647494614754311"><ele>26.5</ele><time>2026-04-04T15:40:05.021Z</time></trkpt><trkpt lat="45.28041512671907" lon="11.647496808911754"><ele>26.0</ele><time>2026-04-04T15:40:06.021Z</time></trkpt><trkpt lat="45.280189034096985" lon="11.647465774391293"><ele>26.0</ele><time>2026-04-04T15:40:07.021Z</time></trkpt><trkpt lat="45.27997775820575" lon="11.647438083983838"><ele>26.0</ele><time>2026-04-04T15:40:08.021Z</time></trkpt><trkpt lat="45.279778484842566" lon="11.647410018582788"><ele>26.0</ele><time>2026-04-04T15:40:09.021Z</time></trkpt><trkpt lat="45.27957581495486" lon="11.64734468385336"><ele>26.0</ele><time>2026-04-04T15:40:10.021Z</time></trkpt><trkpt lat="45.2793590687154" lon="11.6473153309462"><ele>26.0</ele><time>2026-04-04T15:40:11.021Z</time></trkpt><trkpt lat="45.279132862959564" lon="11.647284696983265"><ele>26.0</ele><time>2026-04-04T15:40:12.021Z</time></trkpt><trkpt lat="45.27891124289172" lon="11.64725468404516"><ele>25.666666666666664</ele><time>2026-04-04T15:40:13.021Z</time></trkpt><trkpt lat="45.27869443330541" lon="11.647225324593137"><ele>25.333333333333336</ele><time>2026-04-04T15:40:14.021Z</time></trkpt><trkpt lat="45.27847347898658" lon="11.647195342967077"><ele>25.0</ele><time>2026-04-04T15:40:15.021Z</time></trkpt><trkpt lat="45.27824516796586" lon="11.64716429232676"><ele>26.0</ele><time>2026-04-04T15:40:16.021Z</time></trkpt><trkpt lat="45.27801089129187" lon="11.64713295494393"><ele>27.0</ele><time>2026-04-04T15:40:17.021Z</time></trkpt><trkpt lat="45.27777589089983" lon="11.647112122097264"><ele>27.0</ele><time>2026-04-04T15:40:18.021Z</time></trkpt><trkpt lat="45.277544475573166" lon="11.647123474580523"><ele>27.0</ele><time>2026-04-04T15:40:19.021Z</time></trkpt><trkpt lat="45.27732793152252" lon="11.64709912241057"><ele>27.0</ele><time>2026-04-04T15:40:20.021Z</time></trkpt><trkpt lat="45.27711907788485" lon="11.647101953863535"><ele>26.666666666666664</ele><time>2026-04-04T15:40:21.021Z</time></trkpt><trkpt lat="45.2769049083249" lon="11.64711549693251"><ele>26.333333333333332</ele><time>2026-04-04T15:40:22.021Z</time></trkpt><trkpt lat="45.276694419493225" lon="11.647147584443287"><ele>26.0</ele><time>2026-04-04T15:40:23.021Z</time></trkpt><trkpt lat="45.276482955795025" lon="11.647209189484897"><ele>24.666666666666664</ele><time>2026-04-04T15:40:24.021Z</time></trkpt><trkpt lat="45.2762731306305" lon="11.647281927252779"><ele>23.333333333333332</ele><time>2026-04-04T15:40:25.022Z</time></trkpt><trkpt lat="45.27605880128614" lon="11.64735622649331"><ele>22.0</ele><time>2026-04-04T15:40:26.023Z</time></trkpt><trkpt lat="45.27585642059644" lon="11.64742638359395"><ele>22.0</ele><time>2026-04-04T15:40:27.023Z</time></trkpt><trkpt lat="45.275665058638104" lon="11.64752089918555"><ele>22.0</ele><time>2026-04-04T15:40:28.023Z</time></trkpt><trkpt lat="45.27547128652966" lon="11.647579453804193"><ele>22.0</ele><time>2026-04-04T15:40:29.022Z</time></trkpt><trkpt lat="45.275280158150004" lon="11.647654554069707"><ele>20.333333333333332</ele><time>2026-04-04T15:40:30.022Z</time></trkpt><trkpt lat="45.27508995214649" lon="11.647731793738917"><ele>18.666666666666668</ele><time>2026-04-04T15:40:31.023Z</time></trkpt><trkpt lat="45.27490427782303" lon="11.647812905460647"><ele>17.0</ele><time>2026-04-04T15:40:32.023Z</time></trkpt><trkpt lat="45.27473556236904" lon="11.648028392838244"><ele>17.0</ele><time>2026-04-04T15:40:33.023Z</time></trkpt><trkpt lat="45.27455620827532" lon="11.648158255542956"><ele>17.0</ele><time>2026-04-04T15:40:34.023Z</time></trkpt><trkpt lat="45.27440581445098" lon="11.6483059202086"><ele>17.0</ele><time>2026-04-04T15:40:35.023Z</time></trkpt><trkpt lat="45.27428725408613" lon="11.648466340629813"><ele>19.666666666666668</ele><time>2026-04-04T15:40:36.023Z</time></trkpt><trkpt lat="45.27418691645632" lon="11.64865242271722"><ele>22.333333333333336</ele><time>2026-04-04T15:40:37.022Z</time></trkpt><trkpt lat="45.27408329840179" lon="11.648875762156292"><ele>25.0</ele><time>2026-04-04T15:40:38.022Z</time></trkpt><trkpt lat="45.27397123084273" lon="11.649146125678937"><ele>20.5</ele><time>2026-04-04T15:40:39.022Z</time></trkpt><trkpt lat="45.273853306409414" lon="11.649447058599874"><ele>16.0</ele><time>2026-04-04T15:40:40.022Z</time></trkpt><trkpt lat="45.27373385574182" lon="11.649758564036054"><ele>16.0</ele><time>2026-04-04T15:40:41.022Z</time></trkpt><trkpt lat="45.27360203770531" lon="11.650074482698708"><ele>16.0</ele><time>2026-04-04T15:40:42.022Z</time></trkpt><trkpt lat="45.273469252527036" lon="11.65039690569975"><ele>18.5</ele><time>2026-04-04T15:40:43.022Z</time></trkpt><trkpt lat="45.27333788254438" lon="11.650708210676772"><ele>21.0</ele><time>2026-04-04T15:40:44.022Z</time></trkpt><trkpt lat="45.2732264650206" lon="11.651026504821163"><ele>24.5</ele><time>2026-04-04T15:40:45.022Z</time></trkpt><trkpt lat="45.27311743501722" lon="11.651346495110083"><ele>28.0</ele><time>2026-04-04T15:40:46.022Z</time></trkpt><trkpt lat="45.27301263136899" lon="11.651679701822665"><ele>21.5</ele><time>2026-04-04T15:40:47.022Z</time></trkpt><trkpt lat="45.27290327746141" lon="11.652020030259912"><ele>15.0</ele><time>2026-04-04T15:40:48.022Z</time></trkpt><trkpt lat="45.27278870479559" lon="11.652368973877252"><ele>15.0</ele><time>2026-04-04T15:40:49.022Z</time></trkpt><trkpt lat="45.27267318288521" lon="11.652718026448532"><ele>15.0</ele><time>2026-04-04T15:40:50.022Z</time></trkpt><trkpt lat="45.272567020102315" lon="11.65304405611348"><ele>16.333333333333332</ele><time>2026-04-04T15:40:51.022Z</time></trkpt><trkpt lat="45.27246777556307" lon="11.653343273501138"><ele>17.666666666666664</ele><time>2026-04-04T15:40:52.022Z</time></trkpt><trkpt lat="45.272379414153846" lon="11.653604601622058"><ele>19.0</ele><time>2026-04-04T15:40:53.022Z</time></trkpt><trkpt lat="45.27231385395661" lon="11.653841868320788"><ele>17.333333333333332</ele><time>2026-04-04T15:40:54.022Z</time></trkpt><trkpt lat="45.27225147939327" lon="11.654073602092147"><ele>15.666666666666668</ele><time>2026-04-04T15:40:55.022Z</time></trkpt><trkpt lat="45.27220598960149" lon="11.654313519807154"><ele>14.0</ele><time>2026-04-04T15:40:56.022Z</time></trkpt><trkpt lat="45.272181204389334" lon="11.654568512276748"><ele>14.0</ele><time>2026-04-04T15:40:57.022Z</time></trkpt><trkpt lat="45.27218022562402" lon="11.654817135872714"><ele>14.0</ele><time>2026-04-04T15:40:58.022Z</time></trkpt><trkpt lat="45.27219409388077" lon="11.655054539825912"><ele>14.0</ele><time>2026-04-04T15:40:59.022Z</time></trkpt><trkpt lat="45.27223104285228" lon="11.655281763915792"><ele>14.0</ele><time>2026-04-04T15:41:00.022Z</time></trkpt><trkpt lat="45.272254500219915" lon="11.655475481617376"><ele>13.999999999999998</ele><time>2026-04-04T15:41:01.022Z</time></trkpt><trkpt lat="45.27225723196299" lon="11.65562329651245"><ele>13.999999999999998</ele><time>2026-04-04T15:41:02.022Z</time></trkpt><trkpt lat="45.272253562769336" lon="11.655735523169735"><ele>14.0</ele><time>2026-04-04T15:41:03.022Z</time></trkpt><trkpt lat="45.272240665909926" lon="11.655861761610106"><ele>14.0</ele><time>2026-04-04T15:41:05.022Z</time></trkpt><trkpt lat="45.272206150529804" lon="11.655995264627549"><ele>14.0</ele><time>2026-04-04T15:41:07.022Z</time></trkpt><trkpt lat="45.27217929620613" lon="11.656098345262707"><ele>13.999999999999998</ele><time>2026-04-04T15:41:08.022Z</time></trkpt><trkpt lat="45.27213924546246" lon="11.656220493046764"><ele>13.999999999999998</ele><time>2026-04-04T15:41:09.022Z</time></trkpt><trkpt lat="45.272073343841754" lon="11.656352233294536"><ele>14.0</ele><time>2026-04-04T15:41:10.022Z</time></trkpt><trkpt lat="45.271972334754686" lon="11.656500296133713"><ele>14.0</ele><time>2026-04-04T15:41:11.022Z</time></trkpt><trkpt lat="45.27188324252048" lon="11.656650309115774"><ele>14.0</ele><time>2026-04-04T15:41:12.022Z</time></trkpt><trkpt lat="45.2717790740732" lon="11.6568198416727"><ele>14.0</ele><time>2026-04-04T15:41:13.022Z</time></trkpt><trkpt lat="45.27166314211614" lon="11.65698310095729"><ele>14.0</ele><time>2026-04-04T15:41:14.022Z</time></trkpt><trkpt lat="45.271541205449374" lon="11.65715244733918"><ele>13.0</ele><time>2026-04-04T15:41:15.022Z</time></trkpt><trkpt lat="45.27140706846645" lon="11.657354304297835"><ele>12.0</ele><time>2026-04-04T15:41:16.022Z</time></trkpt><trkpt lat="45.271254132879676" lon="11.657557888073677"><ele>11.0</ele><time>2026-04-04T15:41:17.022Z</time></trkpt><trkpt lat="45.27108791861784" lon="11.657758920572336"><ele>11.0</ele><time>2026-04-04T15:41:18.022Z</time></trkpt><trkpt lat="45.27092396890595" lon="11.657962099571348"><ele>11.0</ele><time>2026-04-04T15:41:19.022Z</time></trkpt><trkpt lat="45.27076372673608" lon="11.65815670638488"><ele>11.0</ele><time>2026-04-04T15:41:20.022Z</time></trkpt><trkpt lat="45.27060510793528" lon="11.658342825938874"><ele>11.0</ele><time>2026-04-04T15:41:21.022Z</time></trkpt><trkpt lat="45.27044448077203" lon="11.65850081630914"><ele>11.0</ele><time>2026-04-04T15:41:22.022Z</time></trkpt><trkpt lat="45.27028058363804" lon="11.65861926675619"><ele>11.0</ele><time>2026-04-04T15:41:23.022Z</time></trkpt><trkpt lat="45.27010962966827" lon="11.658696769926035"><ele>11.333333333333332</ele><time>2026-04-04T15:41:24.022Z</time></trkpt><trkpt lat="45.269922577096295" lon="11.658739328725018"><ele>11.666666666666666</ele><time>2026-04-04T15:41:25.022Z</time></trkpt><trkpt lat="45.26973382924759" lon="11.658736244088496"><ele>12.0</ele><time>2026-04-04T15:41:26.022Z</time></trkpt><trkpt lat="45.26953420228442" lon="11.658690078476118"><ele>11.666666666666666</ele><time>2026-04-04T15:41:27.022Z</time></trkpt><trkpt lat="45.269323002255135" lon="11.658613228726246"><ele>11.333333333333332</ele><time>2026-04-04T15:41:28.022Z</time></trkpt><trkpt lat="45.26910338746033" lon="11.65851784062383"><ele>11.0</ele><time>2026-04-04T15:41:29.022Z</time></trkpt><trkpt lat="45.268869050679434" lon="11.65839486296716"><ele>10.0</ele><time>2026-04-04T15:41:30.022Z</time></trkpt><trkpt lat="45.26863295231264" lon="11.658267064024455"><ele>9.0</ele><time>2026-04-04T15:41:31.022Z</time></trkpt><trkpt lat="45.26839896677914" lon="11.658125624985237"><ele>9.0</ele><time>2026-04-04T15:41:32.022Z</time></trkpt><trkpt lat="45.26816170271026" lon="11.657975222198536"><ele>9.0</ele><time>2026-04-04T15:41:33.022Z</time></trkpt><trkpt lat="45.2679094961162" lon="11.657821150447214"><ele>9.5</ele><time>2026-04-04T15:41:34.022Z</time></trkpt><trkpt lat="45.26764674985945" lon="11.657647452986845"><ele>10.0</ele><time>2026-04-04T15:41:35.022Z</time></trkpt><trkpt lat="45.267373127284735" lon="11.6574662715048"><ele>9.0</ele><time>2026-04-04T15:41:36.022Z</time></trkpt><trkpt lat="45.267106803207035" lon="11.657252618377617"><ele>8.0</ele><time>2026-04-04T15:41:37.022Z</time></trkpt><trkpt lat="45.2668347042573" lon="11.657081510619875"><ele>8.5</ele><time>2026-04-04T15:41:38.022Z</time></trkpt><trkpt lat="45.26656763826289" lon="11.656912240994442"><ele>9.0</ele><time>2026-04-04T15:41:39.022Z</time></trkpt><trkpt lat="45.26630673420172" lon="11.65673845986504"><ele>9.0</ele><time>2026-04-04T15:41:40.022Z</time></trkpt><trkpt lat="45.26605621981739" lon="11.656550412914738"><ele>9.0</ele><time>2026-04-04T15:41:41.022Z</time></trkpt><trkpt lat="45.26580415373438" lon="11.656350945533276"><ele>9.0</ele><time>2026-04-04T15:41:42.022Z</time></trkpt><trkpt lat="45.26555647407916" lon="11.656162322264985"><ele>9.0</ele><time>2026-04-04T15:41:43.022Z</time></trkpt><trkpt lat="45.26532638662363" lon="11.655994561470925"><ele>9.0</ele><time>2026-04-04T15:41:44.022Z</time></trkpt><trkpt lat="45.26511020467339" lon="11.655834158227938"><ele>9.0</ele><time>2026-04-04T15:41:45.022Z</time></trkpt><trkpt lat="45.26489485037905" lon="11.655651053930333"><ele>8.5</ele><time>2026-04-04T15:41:46.022Z</time></trkpt><trkpt lat="45.26468689562442" lon="11.655444543924848"><ele>8.0</ele><time>2026-04-04T15:41:47.022Z</time></trkpt><trkpt lat="45.264499033299025" lon="11.655217118435953"><ele>8.666666666666666</ele><time>2026-04-04T15:41:48.022Z</time></trkpt><trkpt lat="45.26432889136282" lon="11.654991168135513"><ele>9.333333333333334</ele><time>2026-04-04T15:41:49.022Z</time></trkpt><trkpt lat="45.264175698358954" lon="11.654787034829841"><ele>10.0</ele><time>2026-04-04T15:41:50.022Z</time></trkpt><trkpt lat="45.26402206517301" lon="11.65459444060127"><ele>11.666666666666668</ele><time>2026-04-04T15:41:51.022Z</time></trkpt><trkpt lat="45.26385393946389" lon="11.654421938662688"><ele>13.333333333333334</ele><time>2026-04-04T15:41:52.022Z</time></trkpt><trkpt lat="45.26367171410367" lon="11.654291507831127"><ele>15.0</ele><time>2026-04-04T15:41:53.022Z</time></trkpt><trkpt lat="45.2634886387061" lon="11.654157621138154"><ele>15.0</ele><time>2026-04-04T15:41:54.022Z</time></trkpt><trkpt lat="45.26331893178453" lon="11.654011390136201"><ele>15.0</ele><time>2026-04-04T15:41:55.022Z</time></trkpt><trkpt lat="45.263159822642045" lon="11.653821585417369"><ele>15.0</ele><time>2026-04-04T15:41:56.022Z</time></trkpt><trkpt lat="45.263008970724584" lon="11.653604541629958"><ele>16.0</ele><time>2026-04-04T15:41:57.022Z</time></trkpt><trkpt lat="45.262858359203165" lon="11.653367364385007"><ele>17.0</ele><time>2026-04-04T15:41:58.022Z</time></trkpt><trkpt lat="45.26271127623205" lon="11.653117359391691"><ele>17.0</ele><time>2026-04-04T15:41:59.022Z</time></trkpt><trkpt lat="45.2625604635299" lon="11.65286050423883"><ele>17.0</ele><time>2026-04-04T15:42:00.022Z</time></trkpt><trkpt lat="45.262408335688214" lon="11.652598800244393"><ele>18.0</ele><time>2026-04-04T15:42:01.022Z</time></trkpt><trkpt lat="45.262256313698515" lon="11.652337278115288"><ele>19.0</ele><time>2026-04-04T15:42:02.022Z</time></trkpt><trkpt lat="45.26211654372467" lon="11.652096053738912"><ele>18.666666666666664</ele><time>2026-04-04T15:42:03.022Z</time></trkpt><trkpt lat="45.262010452424754" lon="11.651912699689762"><ele>18.333333333333332</ele><time>2026-04-04T15:42:04.022Z</time></trkpt><trkpt lat="45.261908963193825" lon="11.651737299242303"><ele>18.0</ele><time>2026-04-04T15:42:05.022Z</time></trkpt><trkpt lat="45.26180613413867" lon="11.651559824944693"><ele>18.0</ele><time>2026-04-04T15:42:06.022Z</time></trkpt><trkpt lat="45.26169381610253" lon="11.651366844084604"><ele>18.0</ele><time>2026-04-04T15:42:07.022Z</time></trkpt><trkpt lat="45.26157486862006" lon="11.651162472760127"><ele>18.0</ele><time>2026-04-04T15:42:08.022Z</time></trkpt><trkpt lat="45.26145307111427" lon="11.650951401203873"><ele>19.666666666666668</ele><time>2026-04-04T15:42:09.022Z</time></trkpt><trkpt lat="45.26131815240826" lon="11.650746209627869"><ele>21.333333333333336</ele><time>2026-04-04T15:42:10.022Z</time></trkpt><trkpt lat="45.26116760322662" lon="11.650560370701477"><ele>23.0</ele><time>2026-04-04T15:42:11.022Z</time></trkpt><trkpt lat="45.261003304209304" lon="11.650405325161268"><ele>22.666666666666668</ele><time>2026-04-04T15:42:12.022Z</time></trkpt><trkpt lat="45.26083511783981" lon="11.65028314473819"><ele>22.333333333333332</ele><time>2026-04-04T15:42:13.022Z</time></trkpt><trkpt lat="45.26065025780834" lon="11.65017619910626"><ele>22.0</ele><time>2026-04-04T15:42:14.022Z</time></trkpt><trkpt lat="45.26045122513964" lon="11.6500812250032"><ele>22.0</ele><time>2026-04-04T15:42:15.022Z</time></trkpt><trkpt lat="45.26023163369925" lon="11.650013441952913"><ele>22.0</ele><time>2026-04-04T15:42:16.022Z</time></trkpt><trkpt lat="45.260016231689576" lon="11.649928959430294"><ele>22.0</ele><time>2026-04-04T15:42:17.022Z</time></trkpt><trkpt lat="45.259811166927925" lon="11.649861383226831"><ele>22.333333333333332</ele><time>2026-04-04T15:42:18.022Z</time></trkpt><trkpt lat="45.25964534561022" lon="11.649738587978572"><ele>22.666666666666668</ele><time>2026-04-04T15:42:19.022Z</time></trkpt><trkpt lat="45.25948829511045" lon="11.649662017125744"><ele>23.0</ele><time>2026-04-04T15:42:20.022Z</time></trkpt><trkpt lat="45.25934926664402" lon="11.64956757857673"><ele>22.0</ele><time>2026-04-04T15:42:21.022Z</time></trkpt><trkpt lat="45.259210093363365" lon="11.649444933707562"><ele>21.0</ele><time>2026-04-04T15:42:22.022Z</time></trkpt><trkpt lat="45.259071474435835" lon="11.649279421317942"><ele>20.0</ele><time>2026-04-04T15:42:23.022Z</time></trkpt><trkpt lat="45.25894008567581" lon="11.649078874790627"><ele>20.0</ele><time>2026-04-04T15:42:24.022Z</time></trkpt><trkpt lat="45.25882406915827" lon="11.648829406438008"><ele>20.0</ele><time>2026-04-04T15:42:25.022Z</time></trkpt><trkpt lat="45.258705007349704" lon="11.648578679578454"><ele>20.0</ele><time>2026-04-04T15:42:26.022Z</time></trkpt><trkpt lat="45.25859538228812" lon="11.648340263592598"><ele>19.666666666666668</ele><time>2026-04-04T15:42:27.022Z</time></trkpt><trkpt lat="45.258494576482974" lon="11.64812647753074"><ele>19.333333333333332</ele><time>2026-04-04T15:42:28.022Z</time></trkpt><trkpt lat="45.25839685879791" lon="11.647928338809912"><ele>19.0</ele><time>2026-04-04T15:42:29.022Z</time></trkpt><trkpt lat="45.25829886446107" lon="11.647727198129985"><ele>18.333333333333332</ele><time>2026-04-04T15:42:30.022Z</time></trkpt><trkpt lat="45.25819243642608" lon="11.64753390068724"><ele>17.666666666666668</ele><time>2026-04-04T15:42:31.023Z</time></trkpt><trkpt lat="45.25807352383034" lon="11.647356735294665"><ele>17.0</ele><time>2026-04-04T15:42:32.023Z</time></trkpt><trkpt lat="45.257938911077645" lon="11.647191339391744"><ele>17.0</ele><time>2026-04-04T15:42:33.023Z</time></trkpt><trkpt lat="45.257815389771736" lon="11.647012341632072"><ele>17.0</ele><time>2026-04-04T15:42:34.023Z</time></trkpt><trkpt lat="45.2576899769195" lon="11.646834378693699"><ele>17.0</ele><time>2026-04-04T15:42:35.024Z</time></trkpt><trkpt lat="45.25750826944074" lon="11.646709642880058"><ele>16.333333333333336</ele><time>2026-04-04T15:42:36.024Z</time></trkpt><trkpt lat="45.25736828778915" lon="11.646528656082936"><ele>15.666666666666668</ele><time>2026-04-04T15:42:37.024Z</time></trkpt><trkpt lat="45.25721245612221" lon="11.646397675478967"><ele>15.0</ele><time>2026-04-04T15:42:38.024Z</time></trkpt><trkpt lat="45.25707132364473" lon="11.64626128813658"><ele>15.666666666666668</ele><time>2026-04-04T15:42:39.024Z</time></trkpt><trkpt lat="45.2569322654768" lon="11.64611888848235"><ele>16.333333333333336</ele><time>2026-04-04T15:42:40.023Z</time></trkpt><trkpt lat="45.25679885027733" lon="11.645974605483506"><ele>17.0</ele><time>2026-04-04T15:42:41.024Z</time></trkpt><trkpt lat="45.256659982508204" lon="11.645805692808796"><ele>17.0</ele><time>2026-04-04T15:42:42.024Z</time></trkpt><trkpt lat="45.256512853827346" lon="11.64562720325633"><ele>17.0</ele><time>2026-04-04T15:42:43.023Z</time></trkpt><trkpt lat="45.25636529573696" lon="11.645437714518204"><ele>17.0</ele><time>2026-04-04T15:42:44.023Z</time></trkpt><trkpt lat="45.2562325565935" lon="11.645248749018874"><ele>18.333333333333336</ele><time>2026-04-04T15:42:45.023Z</time></trkpt><trkpt lat="45.25610908578508" lon="11.645062334362631"><ele>19.666666666666668</ele><time>2026-04-04T15:42:46.023Z</time></trkpt><trkpt lat="45.2559876278178" lon="11.644878895868224"><ele>21.0</ele><time>2026-04-04T15:42:47.023Z</time></trkpt><trkpt lat="45.255868824881404" lon="11.644682772570661"><ele>21.0</ele><time>2026-04-04T15:42:48.023Z</time></trkpt><trkpt lat="45.25575500210136" lon="11.644491753773938"><ele>21.0</ele><time>2026-04-04T15:42:49.023Z</time></trkpt><trkpt lat="45.25565098493734" lon="11.644315584702634"><ele>21.0</ele><time>2026-04-04T15:42:50.023Z</time></trkpt><trkpt lat="45.25554991292001" lon="11.644148229545236"><ele>21.666666666666668</ele><time>2026-04-04T15:42:51.023Z</time></trkpt><trkpt lat="45.25544547115569" lon="11.643980452276141"><ele>22.333333333333336</ele><time>2026-04-04T15:42:52.023Z</time></trkpt><trkpt lat="45.25531834636538" lon="11.643833222771958"><ele>23.0</ele><time>2026-04-04T15:42:53.023Z</time></trkpt><trkpt lat="45.255167332901046" lon="11.643698149525394"><ele>24.0</ele><time>2026-04-04T15:42:54.023Z</time></trkpt><trkpt lat="45.255008590850714" lon="11.643565405869694"><ele>25.0</ele><time>2026-04-04T15:42:55.023Z</time></trkpt><trkpt lat="45.25486480010857" lon="11.643430375520815"><ele>26.0</ele><time>2026-04-04T15:42:56.023Z</time></trkpt><trkpt lat="45.25474506441904" lon="11.6432785185044"><ele>26.0</ele><time>2026-04-04T15:42:57.023Z</time></trkpt><trkpt lat="45.25464858921943" lon="11.643110239633517"><ele>26.0</ele><time>2026-04-04T15:42:58.023Z</time></trkpt><trkpt lat="45.25457284561142" lon="11.642925475283601"><ele>26.0</ele><time>2026-04-04T15:42:59.023Z</time></trkpt><trkpt lat="45.254505868266115" lon="11.642730497246495"><ele>24.0</ele><time>2026-04-04T15:43:00.023Z</time></trkpt><trkpt lat="45.25444412191753" lon="11.642521524360067"><ele>22.0</ele><time>2026-04-04T15:43:01.023Z</time></trkpt><trkpt lat="45.25438453032715" lon="11.642325652116046"><ele>20.0</ele><time>2026-04-04T15:43:02.023Z</time></trkpt><trkpt lat="45.25432038138028" lon="11.642143340010984"><ele>20.0</ele><time>2026-04-04T15:43:03.023Z</time></trkpt><trkpt lat="45.25423283700249" lon="11.64196702613872"><ele>20.0</ele><time>2026-04-04T15:43:04.023Z</time></trkpt><trkpt lat="45.254129931893424" lon="11.641809418751446"><ele>20.0</ele><time>2026-04-04T15:43:05.023Z</time></trkpt><trkpt lat="45.254010634530204" lon="11.641678440721705"><ele>20.0</ele><time>2026-04-04T15:43:06.023Z</time></trkpt><trkpt lat="45.253883085743134" lon="11.641568089063322"><ele>20.0</ele><time>2026-04-04T15:43:07.023Z</time></trkpt><trkpt lat="45.25373471214329" lon="11.641486152471447"><ele>20.0</ele><time>2026-04-04T15:43:08.023Z</time></trkpt><trkpt lat="45.25357340892587" lon="11.641444923968002"><ele>20.0</ele><time>2026-04-04T15:43:09.023Z</time></trkpt><trkpt lat="45.25342245472986" lon="11.641428297267627"><ele>20.0</ele><time>2026-04-04T15:43:10.023Z</time></trkpt><trkpt lat="45.253291202418005" lon="11.641404524453936"><ele>20.0</ele><time>2026-04-04T15:43:11.023Z</time></trkpt><trkpt lat="45.2531665973533" lon="11.641387435656046"><ele>20.0</ele><time>2026-04-04T15:43:12.023Z</time></trkpt><trkpt lat="45.253056214266216" lon="11.641366080345717"><ele>19.0</ele><time>2026-04-04T15:43:13.023Z</time></trkpt><trkpt lat="45.252943620805524" lon="11.6413372095416"><ele>18.0</ele><time>2026-04-04T15:43:14.023Z</time></trkpt><trkpt lat="45.25281301395354" lon="11.64130650424639"><ele>17.0</ele><time>2026-04-04T15:43:15.023Z</time></trkpt><trkpt lat="45.25267949647571" lon="11.641241364749693"><ele>16.0</ele><time>2026-04-04T15:43:16.023Z</time></trkpt><trkpt lat="45.25254883265488" lon="11.641161622161356"><ele>15.75</ele><time>2026-04-04T15:43:17.023Z</time></trkpt><trkpt lat="45.25242412694195" lon="11.6410690870938"><ele>15.5</ele><time>2026-04-04T15:43:18.023Z</time></trkpt><trkpt lat="45.252296707336406" lon="11.640955924722158"><ele>15.25</ele><time>2026-04-04T15:43:19.023Z</time></trkpt><trkpt lat="45.25217191486168" lon="11.640847651126695"><ele>15.0</ele><time>2026-04-04T15:43:20.023Z</time></trkpt><trkpt lat="45.252047944989584" lon="11.64073724274645"><ele>15.0</ele><time>2026-04-04T15:43:21.023Z</time></trkpt><trkpt lat="45.25192028555944" lon="11.640626006502053"><ele>15.0</ele><time>2026-04-04T15:43:22.023Z</time></trkpt><trkpt lat="45.25178788653556" lon="11.64052033357631"><ele>15.0</ele><time>2026-04-04T15:43:23.023Z</time></trkpt><trkpt lat="45.25166106131022" lon="11.640422376837007"><ele>15.0</ele><time>2026-04-04T15:43:24.023Z</time></trkpt><trkpt lat="45.25154106960584" lon="11.64032696043138"><ele>14.666666666666668</ele><time>2026-04-04T15:43:25.023Z</time></trkpt><trkpt lat="45.25141482012049" lon="11.640204559698452"><ele>14.333333333333334</ele><time>2026-04-04T15:43:26.023Z</time></trkpt><trkpt lat="45.25125751548288" lon="11.64018814608238"><ele>14.0</ele><time>2026-04-04T15:43:27.023Z</time></trkpt><trkpt lat="45.25111246142227" lon="11.64017551899127"><ele>14.0</ele><time>2026-04-04T15:43:28.023Z</time></trkpt><trkpt lat="45.25095931976756" lon="11.64015175524384"><ele>14.0</ele><time>2026-04-04T15:43:29.023Z</time></trkpt><trkpt lat="45.25080557595346" lon="11.640160846897466"><ele>14.0</ele><time>2026-04-04T15:43:30.023Z</time></trkpt><trkpt lat="45.25065044015101" lon="11.640170989728263"><ele>13.799999999999999</ele><time>2026-04-04T15:43:31.023Z</time></trkpt><trkpt lat="45.2505086948338" lon="11.640178942925985"><ele>13.599999999999998</ele><time>2026-04-04T15:43:32.023Z</time></trkpt><trkpt lat="45.25039011135107" lon="11.640189570236858"><ele>13.4</ele><time>2026-04-04T15:43:33.023Z</time></trkpt><trkpt lat="45.25028708862662" lon="11.640204545457445"><ele>13.2</ele><time>2026-04-04T15:43:34.023Z</time></trkpt><trkpt lat="45.25021087452191" lon="11.640213809631987"><ele>13.0</ele><time>2026-04-04T15:43:35.023Z</time></trkpt><trkpt lat="45.25012141192248" lon="11.640234142595416"><ele>13.0</ele><time>2026-04-04T15:43:37.023Z</time></trkpt><trkpt lat="45.25004006886316" lon="11.640130831157453"><ele>13.0</ele><time>2026-04-04T15:43:39.023Z</time></trkpt><trkpt lat="45.249995658232635" lon="11.640057259915157"><ele>13.0</ele><time>2026-04-04T15:43:40.023Z</time></trkpt><trkpt lat="45.24988803576657" lon="11.640078000583491"><ele>13.0</ele><time>2026-04-04T15:43:42.023Z</time></trkpt><trkpt lat="45.24984601589323" lon="11.640180686656565"><ele>13.0</ele><time>2026-04-04T15:43:43.023Z</time></trkpt><trkpt lat="45.24983567859956" lon="11.64031314972012"><ele>13.0</ele><time>2026-04-04T15:43:44.023Z</time></trkpt><trkpt lat="45.24981674187791" lon="11.640464269361166"><ele>13.0</ele><time>2026-04-04T15:43:45.023Z</time></trkpt><trkpt lat="45.24975864345658" lon="11.640633810254217"><ele>13.0</ele><time>2026-04-04T15:43:46.023Z</time></trkpt><trkpt lat="45.249680111587686" lon="11.640805879344857"><ele>13.0</ele><time>2026-04-04T15:43:47.023Z</time></trkpt><trkpt lat="45.24960801083066" lon="11.6409766373971"><ele>13.0</ele><time>2026-04-04T15:43:48.023Z</time></trkpt><trkpt lat="45.24953947004117" lon="11.64113988172752"><ele>13.0</ele><time>2026-04-04T15:43:49.023Z</time></trkpt><trkpt lat="45.24945668165019" lon="11.641289818710145"><ele>13.0</ele><time>2026-04-04T15:43:50.023Z</time></trkpt><trkpt lat="45.249370018193716" lon="11.641458168789086"><ele>13.0</ele><time>2026-04-04T15:43:51.023Z</time></trkpt><trkpt lat="45.24926304948643" lon="11.641610540818435"><ele>13.0</ele><time>2026-04-04T15:43:52.023Z</time></trkpt><trkpt lat="45.249135498434434" lon="11.641739245910152"><ele>13.0</ele><time>2026-04-04T15:43:53.023Z</time></trkpt><trkpt lat="45.248994116416156" lon="11.641845274207453"><ele>13.0</ele><time>2026-04-04T15:43:54.023Z</time></trkpt><trkpt lat="45.24883919461465" lon="11.641938960824717"><ele>13.666666666666666</ele><time>2026-04-04T15:43:55.023Z</time></trkpt><trkpt lat="45.248667683837354" lon="11.642033915689703"><ele>14.333333333333332</ele><time>2026-04-04T15:43:56.023Z</time></trkpt><trkpt lat="45.24849148205856" lon="11.642134820215494"><ele>15.0</ele><time>2026-04-04T15:43:57.023Z</time></trkpt><trkpt lat="45.24830263883818" lon="11.642236571004961"><ele>14.333333333333332</ele><time>2026-04-04T15:43:58.023Z</time></trkpt><trkpt lat="45.24811592557424" lon="11.642340281123973"><ele>13.666666666666666</ele><time>2026-04-04T15:43:59.023Z</time></trkpt><trkpt lat="45.247927781110185" lon="11.642443730312628"><ele>13.0</ele><time>2026-04-04T15:44:00.023Z</time></trkpt><trkpt lat="45.247740383228894" lon="11.64253875882604"><ele>13.0</ele><time>2026-04-04T15:44:01.023Z</time></trkpt><trkpt lat="45.247563752524535" lon="11.642624326894724"><ele>13.0</ele><time>2026-04-04T15:44:02.023Z</time></trkpt><trkpt lat="45.24738191082976" lon="11.642699095935537"><ele>13.0</ele><time>2026-04-04T15:44:03.023Z</time></trkpt><trkpt lat="45.24721211884318" lon="11.642748597405392"><ele>13.0</ele><time>2026-04-04T15:44:04.023Z</time></trkpt><trkpt lat="45.247052248444525" lon="11.642784072964124"><ele>13.0</ele><time>2026-04-04T15:44:05.023Z</time></trkpt><trkpt lat="45.24690077738271" lon="11.642859549794572"><ele>13.0</ele><time>2026-04-04T15:44:06.023Z</time></trkpt><trkpt lat="45.246745798867856" lon="11.642882191363721"><ele>14.0</ele><time>2026-04-04T15:44:07.023Z</time></trkpt><trkpt lat="45.2465918648528" lon="11.642902843511015"><ele>15.0</ele><time>2026-04-04T15:44:08.023Z</time></trkpt><trkpt lat="45.24641473091958" lon="11.642924165948765"><ele>16.0</ele><time>2026-04-04T15:44:09.023Z</time></trkpt><trkpt lat="45.24622402444531" lon="11.64293366000745"><ele>16.0</ele><time>2026-04-04T15:44:10.023Z</time></trkpt><trkpt lat="45.246010729031354" lon="11.642958880175769"><ele>16.0</ele><time>2026-04-04T15:44:11.023Z</time></trkpt><trkpt lat="45.24579257275216" lon="11.642989931871751"><ele>16.0</ele><time>2026-04-04T15:44:12.023Z</time></trkpt><trkpt lat="45.24557785955506" lon="11.64301569842069"><ele>15.666666666666666</ele><time>2026-04-04T15:44:13.023Z</time></trkpt><trkpt lat="45.245375993575266" lon="11.643055895822492"><ele>15.333333333333332</ele><time>2026-04-04T15:44:14.023Z</time></trkpt><trkpt lat="45.245182074738764" lon="11.643061539656099"><ele>15.0</ele><time>2026-04-04T15:44:15.023Z</time></trkpt><trkpt lat="45.244995026330606" lon="11.64312062780203"><ele>15.0</ele><time>2026-04-04T15:44:16.023Z</time></trkpt><trkpt lat="45.24480467543574" lon="11.643188299200329"><ele>15.0</ele><time>2026-04-04T15:44:17.023Z</time></trkpt><trkpt lat="45.24461163487686" lon="11.643260859783174"><ele>15.0</ele><time>2026-04-04T15:44:18.023Z</time></trkpt><trkpt lat="45.244417213553696" lon="11.643334124862552"><ele>14.0</ele><time>2026-04-04T15:44:19.023Z</time></trkpt><trkpt lat="45.24422149484418" lon="11.643407936473034"><ele>13.0</ele><time>2026-04-04T15:44:20.023Z</time></trkpt><trkpt lat="45.244024023998556" lon="11.64348245970582"><ele>12.0</ele><time>2026-04-04T15:44:21.023Z</time></trkpt><trkpt lat="45.24382732246071" lon="11.643556766533536"><ele>13.333333333333332</ele><time>2026-04-04T15:44:22.023Z</time></trkpt><trkpt lat="45.24363575519686" lon="11.643651310204099"><ele>14.666666666666666</ele><time>2026-04-04T15:44:23.022Z</time></trkpt><trkpt lat="45.24344046955771" lon="11.643701748148944"><ele>16.0</ele><time>2026-04-04T15:44:24.022Z</time></trkpt><trkpt lat="45.24325413030895" lon="11.643765014616578"><ele>15.666666666666666</ele><time>2026-04-04T15:44:25.022Z</time></trkpt><trkpt lat="45.243069414117265" lon="11.643830654334224"><ele>15.333333333333332</ele><time>2026-04-04T15:44:26.022Z</time></trkpt><trkpt lat="45.24289545972289" lon="11.64389944541751"><ele>15.0</ele><time>2026-04-04T15:44:27.022Z</time></trkpt><trkpt lat="45.24272368363881" lon="11.643966441509178"><ele>15.0</ele><time>2026-04-04T15:44:28.022Z</time></trkpt><trkpt lat="45.242554168141936" lon="11.644028546555397"><ele>15.0</ele><time>2026-04-04T15:44:29.022Z</time></trkpt><trkpt lat="45.242377653648056" lon="11.644096842789008"><ele>15.0</ele><time>2026-04-04T15:44:30.022Z</time></trkpt><trkpt lat="45.2422067450715" lon="11.644167968335395"><ele>14.333333333333332</ele><time>2026-04-04T15:44:31.022Z</time></trkpt><trkpt lat="45.24203904940751" lon="11.644235969239334"><ele>13.666666666666666</ele><time>2026-04-04T15:44:32.022Z</time></trkpt><trkpt lat="45.24187541013501" lon="11.644304692684358"><ele>13.0</ele><time>2026-04-04T15:44:33.022Z</time></trkpt><trkpt lat="45.24171016241637" lon="11.644392624291706"><ele>13.0</ele><time>2026-04-04T15:44:34.022Z</time></trkpt><trkpt lat="45.241545339558606" lon="11.644488670986938"><ele>13.0</ele><time>2026-04-04T15:44:35.022Z</time></trkpt><trkpt lat="45.24138182757603" lon="11.644586910744747"><ele>13.0</ele><time>2026-04-04T15:44:35.968Z</time></trkpt><trkpt lat="45.24123879091361" lon="11.644688017264064"><ele>13.0</ele><time>2026-04-04T15:44:36.97Z</time></trkpt><trkpt lat="45.24111073099146" lon="11.644750410970149"><ele>13.0</ele><time>2026-04-04T15:44:37.969Z</time></trkpt><trkpt lat="45.240990689566054" lon="11.644827855435306"><ele>13.0</ele><time>2026-04-04T15:44:38.969Z</time></trkpt><trkpt lat="45.24086828197174" lon="11.644901611563295"><ele>13.0</ele><time>2026-04-04T15:44:39.969Z</time></trkpt><trkpt lat="45.24074381492639" lon="11.644982085133016"><ele>13.0</ele><time>2026-04-04T15:44:40.97Z</time></trkpt><trkpt lat="45.24063424872251" lon="11.645066887064973"><ele>13.0</ele><time>2026-04-04T15:44:41.97Z</time></trkpt><trkpt lat="45.24052832102444" lon="11.645135585192499"><ele>13.0</ele><time>2026-04-04T15:44:42.969Z</time></trkpt><trkpt lat="45.24042484182303" lon="11.645190348051099"><ele>13.0</ele><time>2026-04-04T15:44:43.969Z</time></trkpt><trkpt lat="45.24031634284433" lon="11.645239987665475"><ele>14.0</ele><time>2026-04-04T15:44:44.969Z</time></trkpt><trkpt lat="45.24020997241721" lon="11.64530383197003"><ele>15.0</ele><time>2026-04-04T15:44:45.969Z</time></trkpt><trkpt lat="45.24009870652916" lon="11.645361447013654"><ele>16.0</ele><time>2026-04-04T15:44:46.97Z</time></trkpt><trkpt lat="45.23997724599054" lon="11.6454285883519"><ele>17.0</ele><time>2026-04-04T15:44:47.97Z</time></trkpt><trkpt lat="45.23984748903143" lon="11.645501704003445"><ele>16.25</ele><time>2026-04-04T15:44:48.969Z</time></trkpt><trkpt lat="45.23971901200753" lon="11.645581674029916"><ele>15.5</ele><time>2026-04-04T15:44:49.969Z</time></trkpt><trkpt lat="45.239585070354856" lon="11.645665266130143"><ele>14.75</ele><time>2026-04-04T15:44:50.969Z</time></trkpt><trkpt lat="45.239448072738625" lon="11.645759020213664"><ele>14.0</ele><time>2026-04-04T15:44:51.969Z</time></trkpt><trkpt lat="45.239305133342185" lon="11.645848857757937"><ele>14.0</ele><time>2026-04-04T15:44:52.969Z</time></trkpt><trkpt lat="45.23916418766818" lon="11.645944993170046"><ele>14.0</ele><time>2026-04-04T15:44:53.969Z</time></trkpt><trkpt lat="45.23902469770212" lon="11.646049794619387"><ele>14.0</ele><time>2026-04-04T15:44:54.969Z</time></trkpt><trkpt lat="45.2388981760749" lon="11.646166334410683"><ele>14.333333333333334</ele><time>2026-04-04T15:44:55.969Z</time></trkpt><trkpt lat="45.23877519031856" lon="11.646291498031793"><ele>14.666666666666668</ele><time>2026-04-04T15:44:56.969Z</time></trkpt><trkpt lat="45.23865654024777" lon="11.646441525238632"><ele>15.0</ele><time>2026-04-04T15:44:57.969Z</time></trkpt><trkpt lat="45.23854628957915" lon="11.646619723657615"><ele>15.0</ele><time>2026-04-04T15:44:58.969Z</time></trkpt><trkpt lat="45.238448719807806" lon="11.64682379603187"><ele>15.0</ele><time>2026-04-04T15:44:59.969Z</time></trkpt><trkpt lat="45.23836160843" lon="11.647034621835505"><ele>15.0</ele><time>2026-04-04T15:45:00.969Z</time></trkpt><trkpt lat="45.23827059550393" lon="11.647238449479888"><ele>14.666666666666668</ele><time>2026-04-04T15:45:01.969Z</time></trkpt><trkpt lat="45.23817661759321" lon="11.647418491348036"><ele>14.333333333333334</ele><time>2026-04-04T15:45:02.969Z</time></trkpt><trkpt lat="45.23806467539907" lon="11.647590556519681"><ele>14.0</ele><time>2026-04-04T15:45:03.969Z</time></trkpt><trkpt lat="45.23792108181648" lon="11.64770545569119"><ele>14.333333333333334</ele><time>2026-04-04T15:45:04.969Z</time></trkpt><trkpt lat="45.237778130060526" lon="11.647813094007624"><ele>14.666666666666668</ele><time>2026-04-04T15:45:05.969Z</time></trkpt><trkpt lat="45.237633571608804" lon="11.647919000509551"><ele>15.0</ele><time>2026-04-04T15:45:06.969Z</time></trkpt><trkpt lat="45.2374840888271" lon="11.64802833082089"><ele>15.0</ele><time>2026-04-04T15:45:07.969Z</time></trkpt><trkpt lat="45.23732891036086" lon="11.648139200133816"><ele>15.0</ele><time>2026-04-04T15:45:08.969Z</time></trkpt><trkpt lat="45.23719200507528" lon="11.648291305732293"><ele>15.0</ele><time>2026-04-04T15:45:09.969Z</time></trkpt><trkpt lat="45.23704453924783" lon="11.648388681146935"><ele>15.0</ele><time>2026-04-04T15:45:10.969Z</time></trkpt><trkpt lat="45.23692039023383" lon="11.648477518382096"><ele>15.0</ele><time>2026-04-04T15:45:11.969Z</time></trkpt><trkpt lat="45.236812228666004" lon="11.648547354523568"><ele>15.0</ele><time>2026-04-04T15:45:12.969Z</time></trkpt><trkpt lat="45.236700896826655" lon="11.648585007768165"><ele>15.0</ele><time>2026-04-04T15:45:13.969Z</time></trkpt><trkpt lat="45.236590876157905" lon="11.648663485934497"><ele>15.0</ele><time>2026-04-04T15:45:14.969Z</time></trkpt><trkpt lat="45.236472444095924" lon="11.648747963991157"><ele>15.0</ele><time>2026-04-04T15:45:15.969Z</time></trkpt><trkpt lat="45.236354771612234" lon="11.648831900219484"><ele>15.0</ele><time>2026-04-04T15:45:16.969Z</time></trkpt><trkpt lat="45.236243254168485" lon="11.64893670147288"><ele>15.0</ele><time>2026-04-04T15:45:17.969Z</time></trkpt><trkpt lat="45.236122813391226" lon="11.648999838213971"><ele>15.0</ele><time>2026-04-04T15:45:18.969Z</time></trkpt><trkpt lat="45.236016740297295" lon="11.64907418513426"><ele>15.0</ele><time>2026-04-04T15:45:19.969Z</time></trkpt><trkpt lat="45.235911887111854" lon="11.649157152033398"><ele>15.0</ele><time>2026-04-04T15:45:20.969Z</time></trkpt><trkpt lat="45.235801037382295" lon="11.649246792582446"><ele>15.0</ele><time>2026-04-04T15:45:21.969Z</time></trkpt><trkpt lat="45.23566656035497" lon="11.649293951073345"><ele>14.75</ele><time>2026-04-04T15:45:22.969Z</time></trkpt><trkpt lat="45.235547672568934" lon="11.649372387108645"><ele>14.5</ele><time>2026-04-04T15:45:23.969Z</time></trkpt><trkpt lat="45.2354376539869" lon="11.649445714654764"><ele>14.25</ele><time>2026-04-04T15:45:24.969Z</time></trkpt><trkpt lat="45.235338809746544" lon="11.649514330785511"><ele>14.0</ele><time>2026-04-04T15:45:25.969Z</time></trkpt><trkpt lat="45.235237715095856" lon="11.64959255304227"><ele>14.0</ele><time>2026-04-04T15:45:26.969Z</time></trkpt><trkpt lat="45.23512435901494" lon="11.64965497803825"><ele>14.0</ele><time>2026-04-04T15:45:27.969Z</time></trkpt><trkpt lat="45.235010108825925" lon="11.649701985008669"><ele>14.0</ele><time>2026-04-04T15:45:28.969Z</time></trkpt><trkpt lat="45.23488666646214" lon="11.649706617204743"><ele>14.0</ele><time>2026-04-04T15:45:29.969Z</time></trkpt><trkpt lat="45.23474871360928" lon="11.649668864073778"><ele>13.75</ele><time>2026-04-04T15:45:30.969Z</time></trkpt><trkpt lat="45.23461231682645" lon="11.649634923182926"><ele>13.5</ele><time>2026-04-04T15:45:31.969Z</time></trkpt><trkpt lat="45.23448368710961" lon="11.649594786935888"><ele>13.25</ele><time>2026-04-04T15:45:32.969Z</time></trkpt><trkpt lat="45.234349492187576" lon="11.64956689641427"><ele>13.0</ele><time>2026-04-04T15:45:33.969Z</time></trkpt><trkpt lat="45.23421355675536" lon="11.649565209929735"><ele>13.0</ele><time>2026-04-04T15:45:34.969Z</time></trkpt><trkpt lat="45.23407788138833" lon="11.649586310794454"><ele>13.0</ele><time>2026-04-04T15:45:35.969Z</time></trkpt><trkpt lat="45.233950059986505" lon="11.649628763523937"><ele>13.0</ele><time>2026-04-04T15:45:36.969Z</time></trkpt><trkpt lat="45.23382741684267" lon="11.649686896844496"><ele>13.0</ele><time>2026-04-04T15:45:37.969Z</time></trkpt><trkpt lat="45.23370903249948" lon="11.649769520048542"><ele>13.0</ele><time>2026-04-04T15:45:38.969Z</time></trkpt><trkpt lat="45.233583744915165" lon="11.649843296923335"><ele>13.0</ele><time>2026-04-04T15:45:39.969Z</time></trkpt><trkpt lat="45.23347355269345" lon="11.649952333109374"><ele>13.0</ele><time>2026-04-04T15:45:40.969Z</time></trkpt><trkpt lat="45.2333836162809" lon="11.650095318533033"><ele>13.0</ele><time>2026-04-04T15:45:41.968Z</time></trkpt><trkpt lat="45.233300037400376" lon="11.650224899059394"><ele>13.0</ele><time>2026-04-04T15:45:42.968Z</time></trkpt><trkpt lat="45.23322907551947" lon="11.65033919672973"><ele>13.0</ele><time>2026-04-04T15:45:43.968Z</time></trkpt><trkpt lat="45.233154943553146" lon="11.65042371183129"><ele>13.0</ele><time>2026-04-04T15:45:44.968Z</time></trkpt><trkpt lat="45.233096656020194" lon="11.650527812981469"><ele>13.0</ele><time>2026-04-04T15:45:45.968Z</time></trkpt><trkpt lat="45.23303864978329" lon="11.650629639356747"><ele>13.0</ele><time>2026-04-04T15:45:46.968Z</time></trkpt><trkpt lat="45.23299503125009" lon="11.650709738162451"><ele>13.0</ele><time>2026-04-04T15:45:47.968Z</time></trkpt><trkpt lat="45.23295463049951" lon="11.650784143633924"><ele>13.0</ele><time>2026-04-04T15:45:48.968Z</time></trkpt><trkpt lat="45.23289137412223" lon="11.650912114101258"><ele>13.0</ele><time>2026-04-04T15:45:50.968Z</time></trkpt><trkpt lat="45.23282195602776" lon="11.650985642597044"><ele>13.0</ele><time>2026-04-04T15:45:51.968Z</time></trkpt><trkpt lat="45.23276192058816" lon="11.65110224565618"><ele>13.0</ele><time>2026-04-04T15:45:52.968Z</time></trkpt><trkpt lat="45.232694327251295" lon="11.651216555333546"><ele>13.0</ele><time>2026-04-04T15:45:53.968Z</time></trkpt><trkpt lat="45.23262529082753" lon="11.651341093209114"><ele>13.0</ele><time>2026-04-04T15:45:54.968Z</time></trkpt><trkpt lat="45.23255535220717" lon="11.651467013212804"><ele>13.0</ele><time>2026-04-04T15:45:55.968Z</time></trkpt><trkpt lat="45.23248729266294" lon="11.651588091523616"><ele>13.0</ele><time>2026-04-04T15:45:56.968Z</time></trkpt><trkpt lat="45.232421289113184" lon="11.651706822788707"><ele>13.0</ele><time>2026-04-04T15:45:57.968Z</time></trkpt><trkpt lat="45.232362404269644" lon="11.651824180760745"><ele>13.0</ele><time>2026-04-04T15:45:58.968Z</time></trkpt><trkpt lat="45.23229147221525" lon="11.65194197380378"><ele>13.0</ele><time>2026-04-04T15:45:59.968Z</time></trkpt><trkpt lat="45.2322209345751" lon="11.652055986890822"><ele>13.0</ele><time>2026-04-04T15:46:00.968Z</time></trkpt><trkpt lat="45.232145760204254" lon="11.652154082810465"><ele>13.0</ele><time>2026-04-04T15:46:01.968Z</time></trkpt><trkpt lat="45.232062572324395" lon="11.65224571048088"><ele>13.0</ele><time>2026-04-04T15:46:02.968Z</time></trkpt><trkpt lat="45.23197281928484" lon="11.652327230910153"><ele>13.0</ele><time>2026-04-04T15:46:03.968Z</time></trkpt><trkpt lat="45.231880182764634" lon="11.652403495995303"><ele>13.0</ele><time>2026-04-04T15:46:04.968Z</time></trkpt><trkpt lat="45.23178844966126" lon="11.652477095066565"><ele>13.0</ele><time>2026-04-04T15:46:05.968Z</time></trkpt><trkpt lat="45.23168061245925" lon="11.652521253915495"><ele>13.0</ele><time>2026-04-04T15:46:06.968Z</time></trkpt><trkpt lat="45.23159557704991" lon="11.65261613780271"><ele>13.0</ele><time>2026-04-04T15:46:07.968Z</time></trkpt><trkpt lat="45.23150893725007" lon="11.652715350922504"><ele>12.8</ele><time>2026-04-04T15:46:08.968Z</time></trkpt><trkpt lat="45.23142689245776" lon="11.652819007796852"><ele>12.600000000000001</ele><time>2026-04-04T15:46:09.968Z</time></trkpt><trkpt lat="45.23134830787199" lon="11.652931325693443"><ele>12.399999999999999</ele><time>2026-04-04T15:46:10.968Z</time></trkpt><trkpt lat="45.23127632185129" lon="11.653047242794813"><ele>12.2</ele><time>2026-04-04T15:46:11.968Z</time></trkpt><trkpt lat="45.23119940906231" lon="11.653155369367102"><ele>12.0</ele><time>2026-04-04T15:46:12.968Z</time></trkpt><trkpt lat="45.231124760670184" lon="11.653256427118322"><ele>12.0</ele><time>2026-04-04T15:46:13.968Z</time></trkpt><trkpt lat="45.23105186862451" lon="11.65335495542266"><ele>12.0</ele><time>2026-04-04T15:46:14.968Z</time></trkpt><trkpt lat="45.230981339061735" lon="11.653447377317338"><ele>12.0</ele><time>2026-04-04T15:46:15.968Z</time></trkpt><trkpt lat="45.230907123221726" lon="11.653543658389536"><ele>12.0</ele><time>2026-04-04T15:46:16.968Z</time></trkpt><trkpt lat="45.23084475713688" lon="11.653632167025027"><ele>12.0</ele><time>2026-04-04T15:46:17.968Z</time></trkpt><trkpt lat="45.2307806945317" lon="11.653727570617132"><ele>12.0</ele><time>2026-04-04T15:46:18.968Z</time></trkpt><trkpt lat="45.230724450764654" lon="11.65381216282298"><ele>12.0</ele><time>2026-04-04T15:46:19.968Z</time></trkpt><trkpt lat="45.23067104709647" lon="11.653894441215575"><ele>12.0</ele><time>2026-04-04T15:46:20.968Z</time></trkpt><trkpt lat="45.23061568770021" lon="11.653973817212531"><ele>12.0</ele><time>2026-04-04T15:46:21.968Z</time></trkpt><trkpt lat="45.230557538978935" lon="11.65406136986053"><ele>12.0</ele><time>2026-04-04T15:46:22.968Z</time></trkpt><trkpt lat="45.2305026250933" lon="11.654149266766339"><ele>12.0</ele><time>2026-04-04T15:46:23.968Z</time></trkpt><trkpt lat="45.23043752465726" lon="11.654216657578862"><ele>12.0</ele><time>2026-04-04T15:46:24.968Z</time></trkpt><trkpt lat="45.230382350911114" lon="11.654294078806135"><ele>12.0</ele><time>2026-04-04T15:46:25.968Z</time></trkpt><trkpt lat="45.23032780009528" lon="11.65437062591204"><ele>12.0</ele><time>2026-04-04T15:46:26.968Z</time></trkpt><trkpt lat="45.230271519511014" lon="11.654449574087396"><ele>12.0</ele><time>2026-04-04T15:46:27.968Z</time></trkpt><trkpt lat="45.2302149451416" lon="11.654528928158896"><ele>12.0</ele><time>2026-04-04T15:46:28.968Z</time></trkpt><trkpt lat="45.2301554228534" lon="11.654619910377324"><ele>12.0</ele><time>2026-04-04T15:46:29.968Z</time></trkpt><trkpt lat="45.23009908679627" lon="11.654708869061151"><ele>12.0</ele><time>2026-04-04T15:46:30.967Z</time></trkpt><trkpt lat="45.23004350336459" lon="11.654797952949558"><ele>12.0</ele><time>2026-04-04T15:46:31.967Z</time></trkpt><trkpt lat="45.22999057463741" lon="11.654883681774649"><ele>12.0</ele><time>2026-04-04T15:46:32.967Z</time></trkpt><trkpt lat="45.22993679253349" lon="11.654973598505046"><ele>12.0</ele><time>2026-04-04T15:46:33.967Z</time></trkpt><trkpt lat="45.22988080929252" lon="11.655069669243957"><ele>12.0</ele><time>2026-04-04T15:46:34.967Z</time></trkpt><trkpt lat="45.229826211570874" lon="11.655163832502165"><ele>12.0</ele><time>2026-04-04T15:46:35.967Z</time></trkpt><trkpt lat="45.2297739470627" lon="11.65525942813539"><ele>12.333333333333334</ele><time>2026-04-04T15:46:36.967Z</time></trkpt><trkpt lat="45.22972202286152" lon="11.655350917410283"><ele>12.666666666666668</ele><time>2026-04-04T15:46:37.967Z</time></trkpt><trkpt lat="45.22967121688216" lon="11.655440436456875"><ele>13.0</ele><time>2026-04-04T15:46:38.967Z</time></trkpt><trkpt lat="45.22962086507909" lon="11.65552832069937"><ele>13.333333333333334</ele><time>2026-04-04T15:46:39.967Z</time></trkpt><trkpt lat="45.22958332208094" lon="11.655630054170587"><ele>13.666666666666668</ele><time>2026-04-04T15:46:40.967Z</time></trkpt><trkpt lat="45.229513447839636" lon="11.655706586301669"><ele>14.0</ele><time>2026-04-04T15:46:41.967Z</time></trkpt><trkpt lat="45.22946249807835" lon="11.655789128515515"><ele>14.0</ele><time>2026-04-04T15:46:42.969Z</time></trkpt><trkpt lat="45.229412349875226" lon="11.655869840354322"><ele>13.999999999999998</ele><time>2026-04-04T15:46:43.968Z</time></trkpt><trkpt lat="45.229365723260784" lon="11.655943308839772"><ele>13.999999999999998</ele><time>2026-04-04T15:46:44.968Z</time></trkpt><trkpt lat="45.22928985037375" lon="11.656073622325932"><ele>14.0</ele><time>2026-04-04T15:46:46.969Z</time></trkpt><trkpt lat="45.229211178057284" lon="11.65622549262294"><ele>14.0</ele><time>2026-04-04T15:46:48.968Z</time></trkpt><trkpt lat="45.229170708669336" lon="11.65631136992213"><ele>14.000000000000002</ele><time>2026-04-04T15:46:49.969Z</time></trkpt><trkpt lat="45.22912812233282" lon="11.656387251594314"><ele>14.0</ele><time>2026-04-04T15:46:50.969Z</time></trkpt><trkpt lat="45.22908571054492" lon="11.65646457396388"><ele>14.0</ele><time>2026-04-04T15:46:51.969Z</time></trkpt><trkpt lat="45.22903823925089" lon="11.656539348492146"><ele>14.0</ele><time>2026-04-04T15:46:52.968Z</time></trkpt><trkpt lat="45.228987802095624" lon="11.656628109012505"><ele>14.000000000000002</ele><time>2026-04-04T15:46:53.968Z</time></trkpt><trkpt lat="45.228933599426185" lon="11.65671839349619"><ele>14.0</ele><time>2026-04-04T15:46:54.968Z</time></trkpt><trkpt lat="45.22889556425841" lon="11.656815221594275"><ele>14.000000000000002</ele><time>2026-04-04T15:46:55.968Z</time></trkpt><trkpt lat="45.22885340880733" lon="11.656884629409788"><ele>14.0</ele><time>2026-04-04T15:46:56.968Z</time></trkpt><trkpt lat="45.22878309116265" lon="11.656991881342787"><ele>14.0</ele><time>2026-04-04T15:46:58.968Z</time></trkpt><trkpt lat="45.228735198407186" lon="11.657081415617284"><ele>14.0</ele><time>2026-04-04T15:47:00.968Z</time></trkpt><trkpt lat="45.22869546492197" lon="11.657169333322296"><ele>14.000000000000002</ele><time>2026-04-04T15:47:03.968Z</time></trkpt><trkpt lat="45.22865174558529" lon="11.657237865093897"><ele>14.0</ele><time>2026-04-04T15:47:11.968Z</time></trkpt><trkpt lat="45.22862116929999" lon="11.657332085282953"><ele>14.0</ele><time>2026-04-04T15:47:15.968Z</time></trkpt><trkpt lat="45.22856821680303" lon="11.657409567906969"><ele>13.999999999999998</ele><time>2026-04-04T15:47:21.968Z</time></trkpt><trkpt lat="45.22849133249998" lon="11.657526434138765"><ele>13.999999999999998</ele><time>2026-04-04T15:47:23.968Z</time></trkpt><trkpt lat="45.22844182825003" lon="11.657619138771803"><ele>14.0</ele><time>2026-04-04T15:47:24.968Z</time></trkpt><trkpt lat="45.22839541464406" lon="11.657699600898574"><ele>14.0</ele><time>2026-04-04T15:47:25.968Z</time></trkpt><trkpt lat="45.22833699238645" lon="11.657851359860599"><ele>14.000000000000002</ele><time>2026-04-04T15:47:27.968Z</time></trkpt><trkpt lat="45.22834022480383" lon="11.657944769906377"><ele>14.0</ele><time>2026-04-04T15:47:28.968Z</time></trkpt><trkpt lat="45.22838045623323" lon="11.658038107138664"><ele>14.0</ele><time>2026-04-04T15:47:29.968Z</time></trkpt><trkpt lat="45.22842256937178" lon="11.658151730038716"><ele>14.0</ele><time>2026-04-04T15:47:30.968Z</time></trkpt><trkpt lat="45.22847319116912" lon="11.658248414268058"><ele>14.000000000000002</ele><time>2026-04-04T15:47:31.968Z</time></trkpt><trkpt lat="45.22851664204224" lon="11.658333532000228"><ele>14.0</ele><time>2026-04-04T15:47:32.968Z</time></trkpt><trkpt lat="45.22856722802973" lon="11.658409356561775"><ele>14.000000000000002</ele><time>2026-04-04T15:47:33.967Z</time></trkpt><trkpt lat="45.228593798053325" lon="11.658529903895973"><ele>14.0</ele><time>2026-04-04T15:47:35.967Z</time></trkpt><trkpt lat="45.2286414611922" lon="11.65861409240389"><ele>14.0</ele><time>2026-04-04T15:47:38.967Z</time></trkpt><trkpt lat="45.22868849888931" lon="11.658693107360756"><ele>14.0</ele><time>2026-04-04T15:47:45.967Z</time></trkpt><trkpt lat="45.228748806963935" lon="11.658777365632094"><ele>14.000000000000002</ele><time>2026-04-04T15:47:48.967Z</time></trkpt><trkpt lat="45.22880846360585" lon="11.658870693543232"><ele>14.0</ele><time>2026-04-04T15:48:00.967Z</time></trkpt><trkpt lat="45.22887388914988" lon="11.658943360407585"><ele>14.000000000000002</ele><time>2026-04-04T15:48:01.967Z</time></trkpt><trkpt lat="45.22890955890724" lon="11.659043386455712"><ele>14.0</ele><time>2026-04-04T15:48:02.967Z</time></trkpt><trkpt lat="45.22896146202602" lon="11.659137139698496"><ele>14.0</ele><time>2026-04-04T15:48:03.967Z</time></trkpt><trkpt lat="45.22901766271392" lon="11.659237557676562"><ele>14.0</ele><time>2026-04-04T15:48:04.967Z</time></trkpt><trkpt lat="45.22907543240351" lon="11.659340779155327"><ele>14.000000000000002</ele><time>2026-04-04T15:48:05.967Z</time></trkpt><trkpt lat="45.22913124914988" lon="11.659443683714093"><ele>14.0</ele><time>2026-04-04T15:48:06.967Z</time></trkpt><trkpt lat="45.22917869173942" lon="11.659544474559267"><ele>13.666666666666668</ele><time>2026-04-04T15:48:07.967Z</time></trkpt><trkpt lat="45.22921966900032" lon="11.659633263514644"><ele>13.333333333333334</ele><time>2026-04-04T15:48:08.967Z</time></trkpt><trkpt lat="45.22925894813375" lon="11.659713931930288"><ele>13.0</ele><time>2026-04-04T15:48:09.967Z</time></trkpt><trkpt lat="45.2292984976351" lon="11.659790222320702"><ele>12.666666666666668</ele><time>2026-04-04T15:48:10.967Z</time></trkpt><trkpt lat="45.22936216335069" lon="11.659909086478539"><ele>12.333333333333334</ele><time>2026-04-04T15:48:12.967Z</time></trkpt><trkpt lat="45.22941836421554" lon="11.660046943760262"><ele>12.0</ele><time>2026-04-04T15:48:14.967Z</time></trkpt><trkpt lat="45.229462454366924" lon="11.660215552414746"><ele>12.166666666666666</ele><time>2026-04-04T15:48:16.967Z</time></trkpt><trkpt lat="45.2294607377319" lon="11.660324418577575"><ele>12.333333333333332</ele><time>2026-04-04T15:48:17.967Z</time></trkpt><trkpt lat="45.22941611905471" lon="11.66044166468284"><ele>12.5</ele><time>2026-04-04T15:48:18.967Z</time></trkpt><trkpt lat="45.2293998174976" lon="11.660561780227388"><ele>12.666666666666666</ele><time>2026-04-04T15:48:19.967Z</time></trkpt><trkpt lat="45.229321626365056" lon="11.660640669029291"><ele>12.833333333333332</ele><time>2026-04-04T15:48:20.967Z</time></trkpt><trkpt lat="45.22928061733247" lon="11.660737714811603"><ele>13.0</ele><time>2026-04-04T15:48:21.967Z</time></trkpt><trkpt lat="45.22924223986499" lon="11.66082853320554"><ele>12.999999999999998</ele><time>2026-04-04T15:48:22.967Z</time></trkpt><trkpt lat="45.22920449395361" lon="11.660917856967123"><ele>13.0</ele><time>2026-04-04T15:48:23.966Z</time></trkpt><trkpt lat="45.22916251102134" lon="11.66101597788919"><ele>13.0</ele><time>2026-04-04T15:48:24.966Z</time></trkpt><trkpt lat="45.22912059963664" lon="11.661113598967525"><ele>13.0</ele><time>2026-04-04T15:48:25.966Z</time></trkpt><trkpt lat="45.22908612349178" lon="11.661238391348585"><ele>12.999999999999998</ele><time>2026-04-04T15:48:26.966Z</time></trkpt><trkpt lat="45.22902200577338" lon="11.661341167840861"><ele>13.0</ele><time>2026-04-04T15:48:27.966Z</time></trkpt><trkpt lat="45.228972632697364" lon="11.661456698676837"><ele>12.833333333333332</ele><time>2026-04-04T15:48:28.966Z</time></trkpt><trkpt lat="45.22892732321552" lon="11.661557241444914"><ele>12.666666666666666</ele><time>2026-04-04T15:48:29.966Z</time></trkpt><trkpt lat="45.228884409493894" lon="11.661658064764211"><ele>12.5</ele><time>2026-04-04T15:48:30.966Z</time></trkpt><trkpt lat="45.22884599170368" lon="11.661760375015422"><ele>12.333333333333332</ele><time>2026-04-04T15:48:31.966Z</time></trkpt><trkpt lat="45.228806797434935" lon="11.661866223506683"><ele>12.166666666666666</ele><time>2026-04-04T15:48:32.966Z</time></trkpt><trkpt lat="45.2287680388318" lon="11.661980157235206"><ele>12.0</ele><time>2026-04-04T15:48:33.966Z</time></trkpt><trkpt lat="45.22872396846832" lon="11.662085148952697"><ele>11.666666666666666</ele><time>2026-04-04T15:48:34.966Z</time></trkpt><trkpt lat="45.22868158284824" lon="11.662186596712976"><ele>11.333333333333334</ele><time>2026-04-04T15:48:35.966Z</time></trkpt><trkpt lat="45.22864040123302" lon="11.662283320174973"><ele>11.0</ele><time>2026-04-04T15:48:36.966Z</time></trkpt><trkpt lat="45.22860125147616" lon="11.662372956065886"><ele>10.666666666666668</ele><time>2026-04-04T15:48:37.966Z</time></trkpt><trkpt lat="45.22857002751809" lon="11.662454283800669"><ele>10.333333333333334</ele><time>2026-04-04T15:48:38.966Z</time></trkpt><trkpt lat="45.228531097236406" lon="11.662574410695324"><ele>10.0</ele><time>2026-04-04T15:48:40.966Z</time></trkpt><trkpt lat="45.22847194156601" lon="11.662696286079367"><ele>10.0</ele><time>2026-04-04T15:48:48.967Z</time></trkpt><trkpt lat="45.22839789422975" lon="11.662759107807988"><ele>10.0</ele><time>2026-04-04T15:48:50.967Z</time></trkpt><trkpt lat="45.22834777188833" lon="11.662874169550603"><ele>10.0</ele><time>2026-04-04T15:48:52.967Z</time></trkpt><trkpt lat="45.22832048903122" lon="11.663035600367296"><ele>10.0</ele><time>2026-04-04T15:48:54.967Z</time></trkpt><trkpt lat="45.228275909229936" lon="11.663105189035976"><ele>10.0</ele><time>2026-04-04T15:48:55.967Z</time></trkpt><trkpt lat="45.228236808952325" lon="11.66319205887319"><ele>10.0</ele><time>2026-04-04T15:48:56.967Z</time></trkpt><trkpt lat="45.22819217675342" lon="11.663292711104088"><ele>10.0</ele><time>2026-04-04T15:48:57.967Z</time></trkpt><trkpt lat="45.22816353596524" lon="11.66340296894708"><ele>10.0</ele><time>2026-04-04T15:48:58.967Z</time></trkpt><trkpt lat="45.22811051290935" lon="11.663484052941769"><ele>10.0</ele><time>2026-04-04T15:48:59.967Z</time></trkpt><trkpt lat="45.22806046160391" lon="11.663589996600862"><ele>10.0</ele><time>2026-04-04T15:49:00.967Z</time></trkpt><trkpt lat="45.22800789006323" lon="11.66369186904585"><ele>10.0</ele><time>2026-04-04T15:49:01.967Z</time></trkpt><trkpt lat="45.227952288567124" lon="11.663807103848617"><ele>10.0</ele><time>2026-04-04T15:49:02.967Z</time></trkpt><trkpt lat="45.227903266518545" lon="11.663917928727365"><ele>10.0</ele><time>2026-04-04T15:49:03.967Z</time></trkpt><trkpt lat="45.22785509170085" lon="11.664021282118844"><ele>10.0</ele><time>2026-04-04T15:49:04.967Z</time></trkpt><trkpt lat="45.227807086161754" lon="11.664116171398588"><ele>10.0</ele><time>2026-04-04T15:49:05.967Z</time></trkpt><trkpt lat="45.22775886624364" lon="11.664216133062713"><ele>10.0</ele><time>2026-04-04T15:49:06.967Z</time></trkpt><trkpt lat="45.22770638864563" lon="11.664313557844192"><ele>10.0</ele><time>2026-04-04T15:49:07.967Z</time></trkpt><trkpt lat="45.22766184968104" lon="11.664422970048653"><ele>10.0</ele><time>2026-04-04T15:49:08.967Z</time></trkpt><trkpt lat="45.22760706887778" lon="11.664534946594804"><ele>10.166666666666668</ele><time>2026-04-04T15:49:09.967Z</time></trkpt><trkpt lat="45.227531614728235" lon="11.66463902720949"><ele>10.333333333333334</ele><time>2026-04-04T15:49:10.967Z</time></trkpt><trkpt lat="45.227460868121746" lon="11.66472077131351"><ele>10.5</ele><time>2026-04-04T15:49:11.967Z</time></trkpt><trkpt lat="45.22740307151067" lon="11.664789241861197"><ele>10.666666666666666</ele><time>2026-04-04T15:49:12.967Z</time></trkpt><trkpt lat="45.227339436358605" lon="11.664853569541222"><ele>10.833333333333332</ele><time>2026-04-04T15:49:13.967Z</time></trkpt><trkpt lat="45.227276632100896" lon="11.66490743552118"><ele>11.0</ele><time>2026-04-04T15:49:14.967Z</time></trkpt><trkpt lat="45.227209553965494" lon="11.664959456510894"><ele>11.0</ele><time>2026-04-04T15:49:15.967Z</time></trkpt><trkpt lat="45.2270938927514" lon="11.665044170722627"><ele>11.0</ele><time>2026-04-04T15:49:17.967Z</time></trkpt><trkpt lat="45.22702103786133" lon="11.665092157531758"><ele>11.0</ele><time>2026-04-04T15:49:18.967Z</time></trkpt><trkpt lat="45.2269298586068" lon="11.665130984450037"><ele>11.0</ele><time>2026-04-04T15:49:19.967Z</time></trkpt><trkpt lat="45.226834675724064" lon="11.665170568816649"><ele>11.0</ele><time>2026-04-04T15:49:20.967Z</time></trkpt><trkpt lat="45.22674824704119" lon="11.665197012968795"><ele>11.0</ele><time>2026-04-04T15:49:21.967Z</time></trkpt><trkpt lat="45.226656763457754" lon="11.665211836300745"><ele>11.0</ele><time>2026-04-04T15:49:22.967Z</time></trkpt><trkpt lat="45.22655171631885" lon="11.66521888791956"><ele>11.0</ele><time>2026-04-04T15:49:23.967Z</time></trkpt><trkpt lat="45.22644595444525" lon="11.665226613940701"><ele>11.0</ele><time>2026-04-04T15:49:24.967Z</time></trkpt><trkpt lat="45.22632662841177" lon="11.665217503186646"><ele>11.0</ele><time>2026-04-04T15:49:25.967Z</time></trkpt><trkpt lat="45.22620893203405" lon="11.665197145467285"><ele>11.0</ele><time>2026-04-04T15:49:26.967Z</time></trkpt><trkpt lat="45.22610223499881" lon="11.66517032207261"><ele>11.0</ele><time>2026-04-04T15:49:27.967Z</time></trkpt><trkpt lat="45.225998971969375" lon="11.665139060304135"><ele>11.0</ele><time>2026-04-04T15:49:28.967Z</time></trkpt><trkpt lat="45.22589418069867" lon="11.665108470178021"><ele>11.0</ele><time>2026-04-04T15:49:29.967Z</time></trkpt><trkpt lat="45.225778593170446" lon="11.665078712765842"><ele>11.0</ele><time>2026-04-04T15:49:30.967Z</time></trkpt><trkpt lat="45.22567272532615" lon="11.665050778016276"><ele>10.8</ele><time>2026-04-04T15:49:31.967Z</time></trkpt><trkpt lat="45.2255616910712" lon="11.66502528977962"><ele>10.600000000000001</ele><time>2026-04-04T15:49:32.967Z</time></trkpt><trkpt lat="45.22545693059505" lon="11.665019042910762"><ele>10.4</ele><time>2026-04-04T15:49:33.967Z</time></trkpt><trkpt lat="45.22535148448439" lon="11.665018995516354"><ele>10.2</ele><time>2026-04-04T15:49:34.967Z</time></trkpt><trkpt lat="45.22523887775355" lon="11.66500827548926"><ele>10.0</ele><time>2026-04-04T15:49:35.967Z</time></trkpt><trkpt lat="45.22512307518705" lon="11.66503412695484"><ele>10.0</ele><time>2026-04-04T15:49:36.967Z</time></trkpt><trkpt lat="45.225007536614044" lon="11.665073130703039"><ele>10.0</ele><time>2026-04-04T15:49:37.967Z</time></trkpt><trkpt lat="45.22488965543305" lon="11.665122215374051"><ele>10.0</ele><time>2026-04-04T15:49:38.967Z</time></trkpt><trkpt lat="45.22477745049901" lon="11.66518270230673"><ele>10.0</ele><time>2026-04-04T15:49:39.967Z</time></trkpt><trkpt lat="45.22468759998824" lon="11.665245860392433"><ele>10.4</ele><time>2026-04-04T15:49:40.967Z</time></trkpt><trkpt lat="45.22461376540688" lon="11.665341180843045"><ele>10.8</ele><time>2026-04-04T15:49:41.967Z</time></trkpt><trkpt lat="45.22453015047853" lon="11.665426524702134"><ele>11.2</ele><time>2026-04-04T15:49:42.967Z</time></trkpt><trkpt lat="45.22444781309438" lon="11.665515564709182"><ele>11.6</ele><time>2026-04-04T15:49:43.967Z</time></trkpt><trkpt lat="45.22437413737841" lon="11.66560704330703"><ele>12.0</ele><time>2026-04-04T15:49:44.967Z</time></trkpt><trkpt lat="45.22430970923184" lon="11.665716970719023"><ele>12.0</ele><time>2026-04-04T15:49:45.967Z</time></trkpt><trkpt lat="45.224248063765906" lon="11.665815273232674"><ele>12.0</ele><time>2026-04-04T15:49:46.966Z</time></trkpt><trkpt lat="45.22419398801182" lon="11.665898744653546"><ele>12.0</ele><time>2026-04-04T15:49:47.966Z</time></trkpt><trkpt lat="45.22413820464344" lon="11.665988768080457"><ele>12.0</ele><time>2026-04-04T15:49:48.966Z</time></trkpt><trkpt lat="45.22408214873582" lon="11.666088380622718"><ele>12.0</ele><time>2026-04-04T15:49:49.966Z</time></trkpt><trkpt lat="45.22403029583691" lon="11.666178894213768"><ele>12.0</ele><time>2026-04-04T15:49:50.966Z</time></trkpt><trkpt lat="45.223983153405804" lon="11.66627433207422"><ele>11.666666666666666</ele><time>2026-04-04T15:49:51.966Z</time></trkpt><trkpt lat="45.22393716129534" lon="11.666366824804605"><ele>11.333333333333334</ele><time>2026-04-04T15:49:52.966Z</time></trkpt><trkpt lat="45.22389905356685" lon="11.66645497887613"><ele>11.0</ele><time>2026-04-04T15:49:53.966Z</time></trkpt><trkpt lat="45.22386423239616" lon="11.666538348692011"><ele>10.666666666666668</ele><time>2026-04-04T15:49:54.966Z</time></trkpt><trkpt lat="45.22380044104734" lon="11.66667206347491"><ele>10.333333333333334</ele><time>2026-04-04T15:49:56.966Z</time></trkpt><trkpt lat="45.223731644836846" lon="11.66673323131984"><ele>10.0</ele><time>2026-04-04T15:49:58.966Z</time></trkpt><trkpt lat="45.223622139053646" lon="11.666748374704909"><ele>10.0</ele><time>2026-04-04T15:50:00.966Z</time></trkpt><trkpt lat="45.22353952978598" lon="11.666753939258182"><ele>10.0</ele><time>2026-04-04T15:50:02.966Z</time></trkpt><trkpt lat="45.22346195155797" lon="11.666857416693553"><ele>10.0</ele><time>2026-04-04T15:50:04.966Z</time></trkpt><trkpt lat="45.223439224884544" lon="11.666944133291004"><ele>10.0</ele><time>2026-04-04T15:50:05.966Z</time></trkpt><trkpt lat="45.22342200524257" lon="11.667039404077912"><ele>10.0</ele><time>2026-04-04T15:50:06.966Z</time></trkpt><trkpt lat="45.223397439139475" lon="11.667136303115509"><ele>10.0</ele><time>2026-04-04T15:50:07.966Z</time></trkpt><trkpt lat="45.223360147704156" lon="11.667255586530231"><ele>10.0</ele><time>2026-04-04T15:50:08.966Z</time></trkpt><trkpt lat="45.22332647647766" lon="11.667372297138188"><ele>10.0</ele><time>2026-04-04T15:50:09.966Z</time></trkpt><trkpt lat="45.223272512855864" lon="11.667479517170937"><ele>10.0</ele><time>2026-04-04T15:50:10.966Z</time></trkpt><trkpt lat="45.22322766690918" lon="11.667599186073632"><ele>10.0</ele><time>2026-04-04T15:50:11.966Z</time></trkpt><trkpt lat="45.22318172238693" lon="11.66772011270801"><ele>10.0</ele><time>2026-04-04T15:50:12.966Z</time></trkpt><trkpt lat="45.22312781842402" lon="11.667838281626324"><ele>10.0</ele><time>2026-04-04T15:50:13.966Z</time></trkpt><trkpt lat="45.22308042353863" lon="11.667952622545696"><ele>10.0</ele><time>2026-04-04T15:50:14.966Z</time></trkpt><trkpt lat="45.223035847034126" lon="11.668062541844817"><ele>10.0</ele><time>2026-04-04T15:50:15.966Z</time></trkpt><trkpt lat="45.22298754899796" lon="11.668169662347967"><ele>10.0</ele><time>2026-04-04T15:50:16.966Z</time></trkpt><trkpt lat="45.22293899901404" lon="11.668283638985816"><ele>10.0</ele><time>2026-04-04T15:50:17.966Z</time></trkpt><trkpt lat="45.22289258406957" lon="11.668396986478761"><ele>10.0</ele><time>2026-04-04T15:50:18.966Z</time></trkpt><trkpt lat="45.222844505767064" lon="11.668508961576965"><ele>10.0</ele><time>2026-04-04T15:50:19.966Z</time></trkpt><trkpt lat="45.22278836915319" lon="11.668622727948827"><ele>10.0</ele><time>2026-04-04T15:50:20.966Z</time></trkpt><trkpt lat="45.22272863257414" lon="11.668740270558406"><ele>10.0</ele><time>2026-04-04T15:50:21.966Z</time></trkpt><trkpt lat="45.22266139020117" lon="11.668864774035795"><ele>10.0</ele><time>2026-04-04T15:50:22.966Z</time></trkpt><trkpt lat="45.22259169398828" lon="11.668996135178437"><ele>10.0</ele><time>2026-04-04T15:50:23.966Z</time></trkpt><trkpt lat="45.222523058230365" lon="11.669136031376054"><ele>10.0</ele><time>2026-04-04T15:50:24.966Z</time></trkpt><trkpt lat="45.22244026284949" lon="11.669257343220147"><ele>10.0</ele><time>2026-04-04T15:50:25.966Z</time></trkpt><trkpt lat="45.22237109121513" lon="11.669392641510026"><ele>10.0</ele><time>2026-04-04T15:50:26.966Z</time></trkpt><trkpt lat="45.2223079962911" lon="11.669532897576307"><ele>10.0</ele><time>2026-04-04T15:50:27.966Z</time></trkpt><trkpt lat="45.22224763213202" lon="11.66968198701306"><ele>10.0</ele><time>2026-04-04T15:50:28.966Z</time></trkpt><trkpt lat="45.2221874017766" lon="11.669844592805589"><ele>10.0</ele><time>2026-04-04T15:50:29.966Z</time></trkpt><trkpt lat="45.22213349803952" lon="11.67000833373637"><ele>10.0</ele><time>2026-04-04T15:50:30.966Z</time></trkpt><trkpt lat="45.22208011324593" lon="11.670176744699654"><ele>10.0</ele><time>2026-04-04T15:50:31.966Z</time></trkpt><trkpt lat="45.22203136186335" lon="11.670345597904966"><ele>10.0</ele><time>2026-04-04T15:50:32.966Z</time></trkpt><trkpt lat="45.22198696754979" lon="11.670508772539248"><ele>10.0</ele><time>2026-04-04T15:50:33.966Z</time></trkpt><trkpt lat="45.22194376944075" lon="11.670667427402392"><ele>10.0</ele><time>2026-04-04T15:50:34.966Z</time></trkpt><trkpt lat="45.22190125825218" lon="11.670826314901058"><ele>10.0</ele><time>2026-04-04T15:50:35.965Z</time></trkpt><trkpt lat="45.22188204097726" lon="11.671006904903962"><ele>10.0</ele><time>2026-04-04T15:50:36.965Z</time></trkpt><trkpt lat="45.22183895097397" lon="11.67117826306079"><ele>10.0</ele><time>2026-04-04T15:50:37.965Z</time></trkpt><trkpt lat="45.22179013995961" lon="11.671347632330788"><ele>10.0</ele><time>2026-04-04T15:50:38.965Z</time></trkpt><trkpt lat="45.221744521326904" lon="11.671517117346"><ele>10.0</ele><time>2026-04-04T15:50:39.965Z</time></trkpt><trkpt lat="45.2216716595901" lon="11.671674840646297"><ele>10.0</ele><time>2026-04-04T15:50:40.965Z</time></trkpt><trkpt lat="45.221624067439386" lon="11.671846611878467"><ele>10.0</ele><time>2026-04-04T15:50:41.965Z</time></trkpt><trkpt lat="45.221578924152475" lon="11.672013441609545"><ele>10.0</ele><time>2026-04-04T15:50:42.965Z</time></trkpt><trkpt lat="45.22153434034222" lon="11.672178804324448"><ele>10.0</ele><time>2026-04-04T15:50:43.965Z</time></trkpt><trkpt lat="45.2214898821283" lon="11.6723445665216"><ele>10.0</ele><time>2026-04-04T15:50:44.965Z</time></trkpt><trkpt lat="45.22144867835016" lon="11.6725104629137"><ele>10.0</ele><time>2026-04-04T15:50:45.965Z</time></trkpt><trkpt lat="45.22141209624296" lon="11.672674655045801"><ele>10.0</ele><time>2026-04-04T15:50:46.965Z</time></trkpt><trkpt lat="45.22137904632565" lon="11.67283386904219"><ele>10.0</ele><time>2026-04-04T15:50:47.965Z</time></trkpt><trkpt lat="45.22134542380071" lon="11.6729907485821"><ele>10.0</ele><time>2026-04-04T15:50:48.965Z</time></trkpt><trkpt lat="45.22131277491863" lon="11.67314324221882"><ele>10.0</ele><time>2026-04-04T15:50:49.965Z</time></trkpt><trkpt lat="45.221281532509096" lon="11.67328853647162"><ele>10.0</ele><time>2026-04-04T15:50:50.965Z</time></trkpt><trkpt lat="45.22125098639845" lon="11.673425624058515"><ele>10.0</ele><time>2026-04-04T15:50:51.965Z</time></trkpt><trkpt lat="45.22122520194841" lon="11.673565783666378"><ele>10.2</ele><time>2026-04-04T15:50:52.965Z</time></trkpt><trkpt lat="45.22119267710039" lon="11.673700299188832"><ele>10.4</ele><time>2026-04-04T15:50:53.965Z</time></trkpt><trkpt lat="45.22116466109856" lon="11.673835749996357"><ele>10.600000000000001</ele><time>2026-04-04T15:50:54.965Z</time></trkpt><trkpt lat="45.22113744469678" lon="11.673965758991974"><ele>10.8</ele><time>2026-04-04T15:50:55.966Z</time></trkpt><trkpt lat="45.221111075220854" lon="11.674079702461208"><ele>11.0</ele><time>2026-04-04T15:50:56.966Z</time></trkpt><trkpt lat="45.221088091764635" lon="11.67418582549245"><ele>11.0</ele><time>2026-04-04T15:50:57.965Z</time></trkpt><trkpt lat="45.22105890175814" lon="11.674267532974346"><ele>11.0</ele><time>2026-04-04T15:50:58.965Z</time></trkpt><trkpt lat="45.22098137934672" lon="11.674415853308306"><ele>11.0</ele><time>2026-04-04T15:51:00.966Z</time></trkpt><trkpt lat="45.22088857279085" lon="11.674526698631576"><ele>11.0</ele><time>2026-04-04T15:51:02.966Z</time></trkpt><trkpt lat="45.2208243558262" lon="11.674569659669022"><ele>11.0</ele><time>2026-04-04T15:51:03.966Z</time></trkpt><trkpt lat="45.220749848777736" lon="11.674575512347003"><ele>11.0</ele><time>2026-04-04T15:51:04.966Z</time></trkpt><trkpt lat="45.22066747111017" lon="11.674548908564258"><ele>11.0</ele><time>2026-04-04T15:51:05.966Z</time></trkpt><trkpt lat="45.22056785774703" lon="11.674500318818836"><ele>11.0</ele><time>2026-04-04T15:51:06.966Z</time></trkpt><trkpt lat="45.22046393730548" lon="11.674439034378034"><ele>11.0</ele><time>2026-04-04T15:51:07.966Z</time></trkpt><trkpt lat="45.22035149894857" lon="11.674372728745148"><ele>11.0</ele><time>2026-04-04T15:51:08.966Z</time></trkpt><trkpt lat="45.220250941989605" lon="11.674287616742838"><ele>11.0</ele><time>2026-04-04T15:51:09.966Z</time></trkpt><trkpt lat="45.220141689857606" lon="11.6742523693294"><ele>11.0</ele><time>2026-04-04T15:51:10.966Z</time></trkpt><trkpt lat="45.220042058012545" lon="11.674186625230806"><ele>11.0</ele><time>2026-04-04T15:51:11.966Z</time></trkpt><trkpt lat="45.219947643059285" lon="11.674132932897464"><ele>11.0</ele><time>2026-04-04T15:51:12.966Z</time></trkpt><trkpt lat="45.21984192662604" lon="11.674071813592644"><ele>11.0</ele><time>2026-04-04T15:51:13.966Z</time></trkpt><trkpt lat="45.219741178786926" lon="11.67398915622237"><ele>10.75</ele><time>2026-04-04T15:51:14.966Z</time></trkpt><trkpt lat="45.219646787063404" lon="11.673890732000991"><ele>10.5</ele><time>2026-04-04T15:51:15.966Z</time></trkpt><trkpt lat="45.219614003860514" lon="11.673691844881791"><ele>10.25</ele><time>2026-04-04T15:51:16.966Z</time></trkpt><trkpt lat="45.2195319799754" lon="11.67359069263463"><ele>10.0</ele><time>2026-04-04T15:51:17.966Z</time></trkpt><trkpt lat="45.21944766383201" lon="11.673485143240717"><ele>9.75</ele><time>2026-04-04T15:51:18.966Z</time></trkpt><trkpt lat="45.219357425438844" lon="11.673370259451152"><ele>9.5</ele><time>2026-04-04T15:51:19.966Z</time></trkpt><trkpt lat="45.21926339774766" lon="11.673250550269131"><ele>9.25</ele><time>2026-04-04T15:51:20.966Z</time></trkpt><trkpt lat="45.219176246723656" lon="11.673138963761092"><ele>9.0</ele><time>2026-04-04T15:51:21.966Z</time></trkpt><trkpt lat="45.21909254925051" lon="11.673032095792422"><ele>9.0</ele><time>2026-04-04T15:51:22.966Z</time></trkpt><trkpt lat="45.21901281299251" lon="11.67293047201044"><ele>9.0</ele><time>2026-04-04T15:51:23.966Z</time></trkpt><trkpt lat="45.21893574624502" lon="11.672832250501907"><ele>9.0</ele><time>2026-04-04T15:51:24.965Z</time></trkpt><trkpt lat="45.2188646089598" lon="11.6727415861056"><ele>9.0</ele><time>2026-04-04T15:51:25.965Z</time></trkpt><trkpt lat="45.21881004889021" lon="11.672672049311778"><ele>9.0</ele><time>2026-04-04T15:51:26.965Z</time></trkpt><trkpt lat="45.21872419568125" lon="11.67260319311555"><ele>9.0</ele><time>2026-04-04T15:51:28.965Z</time></trkpt><trkpt lat="45.21854549626987" lon="11.672835998355298"><ele>9.0</ele><time>2026-04-04T15:51:29.965Z</time></trkpt><trkpt lat="45.21848025398692" lon="11.672946733640009"><ele>9.0</ele><time>2026-04-04T15:51:31.965Z</time></trkpt><trkpt lat="45.21844016445697" lon="11.673030635885379"><ele>9.0</ele><time>2026-04-04T15:51:32.965Z</time></trkpt><trkpt lat="45.2183704091582" lon="11.673140563522155"><ele>9.0</ele><time>2026-04-04T15:51:33.965Z</time></trkpt><trkpt lat="45.21829080096238" lon="11.673272725242269"><ele>9.0</ele><time>2026-04-04T15:51:34.965Z</time></trkpt><trkpt lat="45.2182135550024" lon="11.673399670009431"><ele>9.0</ele><time>2026-04-04T15:51:35.965Z</time></trkpt><trkpt lat="45.21813680381079" lon="11.673509899262285"><ele>9.0</ele><time>2026-04-04T15:51:36.965Z</time></trkpt><trkpt lat="45.218062495338735" lon="11.673620094604152"><ele>9.0</ele><time>2026-04-04T15:51:37.965Z</time></trkpt><trkpt lat="45.21799860138372" lon="11.67372730029679"><ele>9.0</ele><time>2026-04-04T15:51:38.965Z</time></trkpt><trkpt lat="45.217929853571185" lon="11.673831138322173"><ele>9.0</ele><time>2026-04-04T15:51:39.965Z</time></trkpt><trkpt lat="45.21785748205086" lon="11.67395045544567"><ele>9.0</ele><time>2026-04-04T15:51:40.965Z</time></trkpt><trkpt lat="45.217780370743924" lon="11.674065733675004"><ele>9.0</ele><time>2026-04-04T15:51:41.965Z</time></trkpt><trkpt lat="45.21769589185108" lon="11.674161181119928"><ele>9.0</ele><time>2026-04-04T15:51:42.965Z</time></trkpt><trkpt lat="45.217623227179274" lon="11.674270911276343"><ele>9.0</ele><time>2026-04-04T15:51:43.965Z</time></trkpt><trkpt lat="45.217545748221546" lon="11.674377483446907"><ele>9.0</ele><time>2026-04-04T15:51:44.965Z</time></trkpt><trkpt lat="45.21747148280731" lon="11.674492938231104"><ele>9.0</ele><time>2026-04-04T15:51:45.965Z</time></trkpt><trkpt lat="45.217398629742384" lon="11.674601639911153"><ele>9.0</ele><time>2026-04-04T15:51:46.965Z</time></trkpt><trkpt lat="45.21732473946221" lon="11.674714475145551"><ele>9.0</ele><time>2026-04-04T15:51:47.965Z</time></trkpt><trkpt lat="45.217257217802725" lon="11.674821386566673"><ele>9.0</ele><time>2026-04-04T15:51:48.965Z</time></trkpt><trkpt lat="45.21720205999166" lon="11.674903577331321"><ele>9.0</ele><time>2026-04-04T15:51:49.965Z</time></trkpt><trkpt lat="45.21713093236213" lon="11.674987614092341"><ele>9.0</ele><time>2026-04-04T15:51:51.965Z</time></trkpt><trkpt lat="45.2170723119869" lon="11.674908809884133"><ele>9.0</ele><time>2026-04-04T15:51:52.965Z</time></trkpt><trkpt lat="45.216978901595915" lon="11.674786285814493"><ele>9.0</ele><time>2026-04-04T15:51:54.965Z</time></trkpt><trkpt lat="45.21690185557839" lon="11.674687464980206"><ele>9.0</ele><time>2026-04-04T15:51:55.965Z</time></trkpt><trkpt lat="45.21681339929552" lon="11.674580326978488"><ele>9.0</ele><time>2026-04-04T15:51:56.965Z</time></trkpt><trkpt lat="45.21673126742841" lon="11.674456656888145"><ele>9.0</ele><time>2026-04-04T15:51:57.965Z</time></trkpt><trkpt lat="45.21666273726137" lon="11.67431087053957"><ele>9.0</ele><time>2026-04-04T15:51:58.965Z</time></trkpt><trkpt lat="45.216588587430884" lon="11.674161677628598"><ele>9.0</ele><time>2026-04-04T15:51:59.965Z</time></trkpt><trkpt lat="45.21650188714812" lon="11.674033080819179"><ele>9.0</ele><time>2026-04-04T15:52:00.965Z</time></trkpt><trkpt lat="45.21642241858664" lon="11.673922327522599"><ele>9.0</ele><time>2026-04-04T15:52:01.965Z</time></trkpt><trkpt lat="45.21634026961885" lon="11.673821082455882"><ele>9.2</ele><time>2026-04-04T15:52:02.965Z</time></trkpt><trkpt lat="45.21628122318298" lon="11.673748020117829"><ele>9.4</ele><time>2026-04-04T15:52:03.965Z</time></trkpt><trkpt lat="45.216208015738914" lon="11.673654741795628"><ele>9.6</ele><time>2026-04-04T15:52:05.965Z</time></trkpt><trkpt lat="45.21615971556145" lon="11.673592692428032"><ele>9.8</ele><time>2026-04-04T15:52:11.965Z</time></trkpt><trkpt lat="45.216107309083775" lon="11.673542515406217"><ele>10.0</ele><time>2026-04-04T15:52:13.965Z</time></trkpt><trkpt lat="45.216003786992076" lon="11.67368684347099"><ele>10.0</ele><time>2026-04-04T15:52:14.964Z</time></trkpt><trkpt lat="45.21595088017887" lon="11.673768084998256"><ele>10.0</ele><time>2026-04-04T15:52:15.964Z</time></trkpt><trkpt lat="45.21590116749799" lon="11.673850039414683"><ele>10.0</ele><time>2026-04-04T15:52:16.964Z</time></trkpt><trkpt lat="45.215853580659214" lon="11.673965429635818"><ele>10.0</ele><time>2026-04-04T15:52:17.964Z</time></trkpt><trkpt lat="45.21581781715265" lon="11.674108918108152"><ele>10.0</ele><time>2026-04-04T15:52:18.964Z</time></trkpt><trkpt lat="45.215797371348415" lon="11.674283866173734"><ele>10.0</ele><time>2026-04-04T15:52:19.964Z</time></trkpt><trkpt lat="45.21580146681752" lon="11.674473582294736"><ele>10.0</ele><time>2026-04-04T15:52:20.964Z</time></trkpt><trkpt lat="45.215801271761606" lon="11.674627406967474"><ele>10.0</ele><time>2026-04-04T15:52:21.964Z</time></trkpt><trkpt lat="45.215792310902025" lon="11.67478856721629"><ele>10.0</ele><time>2026-04-04T15:52:22.964Z</time></trkpt><trkpt lat="45.21577196292213" lon="11.674954150393491"><ele>10.0</ele><time>2026-04-04T15:52:23.964Z</time></trkpt><trkpt lat="45.21575169951624" lon="11.675114179816795"><ele>10.0</ele><time>2026-04-04T15:52:24.964Z</time></trkpt><trkpt lat="45.21572840146312" lon="11.675269692322045"><ele>10.0</ele><time>2026-04-04T15:52:25.964Z</time></trkpt><trkpt lat="45.21569823483987" lon="11.675428539657856"><ele>10.0</ele><time>2026-04-04T15:52:26.964Z</time></trkpt><trkpt lat="45.21564064178715" lon="11.675573901911807"><ele>10.0</ele><time>2026-04-04T15:52:27.964Z</time></trkpt><trkpt lat="45.2155711332189" lon="11.675711703868366"><ele>10.0</ele><time>2026-04-04T15:52:28.964Z</time></trkpt><trkpt lat="45.21548968868019" lon="11.675847291862127"><ele>10.0</ele><time>2026-04-04T15:52:29.964Z</time></trkpt><trkpt lat="45.2154266101836" lon="11.676027993203782"><ele>10.0</ele><time>2026-04-04T15:52:30.964Z</time></trkpt><trkpt lat="45.215334515517604" lon="11.676173471536076"><ele>10.0</ele><time>2026-04-04T15:52:31.964Z</time></trkpt><trkpt lat="45.215251745012864" lon="11.676312389443119"><ele>10.0</ele><time>2026-04-04T15:52:32.964Z</time></trkpt><trkpt lat="45.21517210207379" lon="11.676453815476787"><ele>10.0</ele><time>2026-04-04T15:52:33.964Z</time></trkpt><trkpt lat="45.21508141733626" lon="11.676610095678848"><ele>10.0</ele><time>2026-04-04T15:52:34.964Z</time></trkpt><trkpt lat="45.2149853993044" lon="11.676767263048939"><ele>10.0</ele><time>2026-04-04T15:52:35.964Z</time></trkpt><trkpt lat="45.21488777425687" lon="11.67691701276501"><ele>10.0</ele><time>2026-04-04T15:52:36.964Z</time></trkpt><trkpt lat="45.21479776380355" lon="11.677070078469947"><ele>10.0</ele><time>2026-04-04T15:52:37.964Z</time></trkpt><trkpt lat="45.2147039938673" lon="11.677228320013535"><ele>10.0</ele><time>2026-04-04T15:52:38.964Z</time></trkpt><trkpt lat="45.21460737426609" lon="11.677393101430603"><ele>9.333333333333334</ele><time>2026-04-04T15:52:39.964Z</time></trkpt><trkpt lat="45.21450483623007" lon="11.677550112909936"><ele>8.666666666666666</ele><time>2026-04-04T15:52:40.964Z</time></trkpt><trkpt lat="45.214405967731324" lon="11.677718891092432"><ele>8.0</ele><time>2026-04-04T15:52:41.964Z</time></trkpt><trkpt lat="45.21430951836772" lon="11.677888459235414"><ele>8.0</ele><time>2026-04-04T15:52:42.964Z</time></trkpt><trkpt lat="45.21420976498097" lon="11.67805006201387"><ele>8.0</ele><time>2026-04-04T15:52:43.964Z</time></trkpt><trkpt lat="45.21411194327882" lon="11.678212801125067"><ele>8.0</ele><time>2026-04-04T15:52:44.964Z</time></trkpt><trkpt lat="45.214013191253784" lon="11.678381909000253"><ele>8.0</ele><time>2026-04-04T15:52:45.964Z</time></trkpt><trkpt lat="45.213923703402926" lon="11.678551947613283"><ele>8.0</ele><time>2026-04-04T15:52:46.964Z</time></trkpt><trkpt lat="45.21382612061075" lon="11.67868463621446"><ele>8.0</ele><time>2026-04-04T15:52:47.964Z</time></trkpt><trkpt lat="45.21375366754576" lon="11.678806706947295"><ele>8.0</ele><time>2026-04-04T15:52:48.964Z</time></trkpt><trkpt lat="45.21368440834032" lon="11.678923864518246"><ele>7.999999999999999</ele><time>2026-04-04T15:52:49.964Z</time></trkpt><trkpt lat="45.21363294006449" lon="11.67901952725519"><ele>8.0</ele><time>2026-04-04T15:52:50.964Z</time></trkpt><trkpt lat="45.213598404600525" lon="11.679105881265677"><ele>8.0</ele><time>2026-04-04T15:52:51.964Z</time></trkpt><trkpt lat="45.21354835874459" lon="11.679171887478669"><ele>8.0</ele><time>2026-04-04T15:52:52.964Z</time></trkpt><trkpt lat="45.213484014662484" lon="11.679219898525462"><ele>7.999999999999999</ele><time>2026-04-04T15:52:53.964Z</time></trkpt><trkpt lat="45.213424082661014" lon="11.679252389173685"><ele>8.0</ele><time>2026-04-04T15:52:54.964Z</time></trkpt><trkpt lat="45.21333847802179" lon="11.679184055200208"><ele>8.0</ele><time>2026-04-04T15:52:55.964Z</time></trkpt><trkpt lat="45.21324233356223" lon="11.679136766727748"><ele>8.0</ele><time>2026-04-04T15:52:56.964Z</time></trkpt><trkpt lat="45.21316444573914" lon="11.6789901373504"><ele>8.0</ele><time>2026-04-04T15:52:57.964Z</time></trkpt><trkpt lat="45.21305250768998" lon="11.678859536367595"><ele>8.0</ele><time>2026-04-04T15:52:58.964Z</time></trkpt><trkpt lat="45.21293473671611" lon="11.678721314911535"><ele>8.333333333333332</ele><time>2026-04-04T15:52:59.964Z</time></trkpt><trkpt lat="45.21279733764768" lon="11.67857061632057"><ele>8.666666666666666</ele><time>2026-04-04T15:53:00.965Z</time></trkpt><trkpt lat="45.21264451371078" lon="11.678420533254187"><ele>9.0</ele><time>2026-04-04T15:53:01.965Z</time></trkpt><trkpt lat="45.21248747216804" lon="11.67827053628886"><ele>9.0</ele><time>2026-04-04T15:53:02.965Z</time></trkpt><trkpt lat="45.212333815324286" lon="11.678124230571672"><ele>9.0</ele><time>2026-04-04T15:53:03.965Z</time></trkpt><trkpt lat="45.21218749679973" lon="11.677984912327355"><ele>9.0</ele><time>2026-04-04T15:53:04.964Z</time></trkpt><trkpt lat="45.21205246925271" lon="11.67785663949137"><ele>9.0</ele><time>2026-04-04T15:53:05.964Z</time></trkpt><trkpt lat="45.211932951375296" lon="11.67774333439866"><ele>9.0</ele><time>2026-04-04T15:53:06.965Z</time></trkpt><trkpt lat="45.2118270301315" lon="11.677664958908778"><ele>9.0</ele><time>2026-04-04T15:53:07.964Z</time></trkpt><trkpt lat="45.211750443690065" lon="11.67756869577451"><ele>9.0</ele><time>2026-04-04T15:53:08.964Z</time></trkpt><trkpt lat="45.211690771224426" lon="11.677509889284622"><ele>9.0</ele><time>2026-04-04T15:53:09.964Z</time></trkpt><trkpt lat="45.211653773008464" lon="11.6774331348629"><ele>9.0</ele><time>2026-04-04T15:53:10.965Z</time></trkpt><trkpt lat="45.21163846169619" lon="11.677334957866275"><ele>9.0</ele><time>2026-04-04T15:53:11.965Z</time></trkpt><trkpt lat="45.21161242623218" lon="11.677230570271112"><ele>9.0</ele><time>2026-04-04T15:53:12.965Z</time></trkpt><trkpt lat="45.2115565267444" lon="11.677176637998926"><ele>9.0</ele><time>2026-04-04T15:53:13.964Z</time></trkpt><trkpt lat="45.21157066683583" lon="11.677061191292177"><ele>9.0</ele><time>2026-04-04T15:53:14.964Z</time></trkpt><trkpt lat="45.21143143602171" lon="11.677230145418948"><ele>9.0</ele><time>2026-04-04T15:53:15.964Z</time></trkpt><trkpt lat="45.21137269290834" lon="11.677334720822277"><ele>9.0</ele><time>2026-04-04T15:53:16.964Z</time></trkpt><trkpt lat="45.21131475100585" lon="11.677482010021098"><ele>9.0</ele><time>2026-04-04T15:53:17.964Z</time></trkpt><trkpt lat="45.21126308449397" lon="11.677657359395754"><ele>9.0</ele><time>2026-04-04T15:53:18.964Z</time></trkpt><trkpt lat="45.211207835393274" lon="11.677844775902075"><ele>9.25</ele><time>2026-04-04T15:53:19.964Z</time></trkpt><trkpt lat="45.211155126822284" lon="11.678026816409474"><ele>9.5</ele><time>2026-04-04T15:53:20.964Z</time></trkpt><trkpt lat="45.211114813274285" lon="11.678212236885217"><ele>9.75</ele><time>2026-04-04T15:53:21.964Z</time></trkpt><trkpt lat="45.21106975330322" lon="11.678398786292764"><ele>10.0</ele><time>2026-04-04T15:53:22.964Z</time></trkpt><trkpt lat="45.21102304069837" lon="11.678590550702168"><ele>9.666666666666668</ele><time>2026-04-04T15:53:23.964Z</time></trkpt><trkpt lat="45.2109719397027" lon="11.678785448897612"><ele>9.333333333333334</ele><time>2026-04-04T15:53:24.964Z</time></trkpt><trkpt lat="45.21088585053528" lon="11.678978686967762"><ele>9.0</ele><time>2026-04-04T15:53:25.964Z</time></trkpt><trkpt lat="45.21083164092872" lon="11.679187798794844"><ele>9.0</ele><time>2026-04-04T15:53:26.964Z</time></trkpt><trkpt lat="45.21077794953741" lon="11.679411753607535"><ele>9.0</ele><time>2026-04-04T15:53:27.964Z</time></trkpt><trkpt lat="45.210725586753036" lon="11.679646215959892"><ele>9.0</ele><time>2026-04-04T15:53:28.964Z</time></trkpt><trkpt lat="45.210676019506295" lon="11.679889338855983"><ele>8.666666666666666</ele><time>2026-04-04T15:53:29.964Z</time></trkpt><trkpt lat="45.21062704412394" lon="11.680139375110826"><ele>8.333333333333332</ele><time>2026-04-04T15:53:30.964Z</time></trkpt><trkpt lat="45.21058093794427" lon="11.680394555237749"><ele>8.0</ele><time>2026-04-04T15:53:31.964Z</time></trkpt><trkpt lat="45.210541041907724" lon="11.68066117395045"><ele>8.0</ele><time>2026-04-04T15:53:32.964Z</time></trkpt><trkpt lat="45.21051224636544" lon="11.680941992583914"><ele>8.0</ele><time>2026-04-04T15:53:33.964Z</time></trkpt><trkpt lat="45.210482978279956" lon="11.681225765134345"><ele>8.0</ele><time>2026-04-04T15:53:34.964Z</time></trkpt><trkpt lat="45.210456040048236" lon="11.681513506472534"><ele>8.0</ele><time>2026-04-04T15:53:35.964Z</time></trkpt><trkpt lat="45.21041900055595" lon="11.681796257509461"><ele>8.0</ele><time>2026-04-04T15:53:36.963Z</time></trkpt><trkpt lat="45.21038253286065" lon="11.682075467349783"><ele>8.0</ele><time>2026-04-04T15:53:37.963Z</time></trkpt><trkpt lat="45.210353548979036" lon="11.682334695758954"><ele>8.0</ele><time>2026-04-04T15:53:38.963Z</time></trkpt><trkpt lat="45.21030074942976" lon="11.682583105314443"><ele>8.0</ele><time>2026-04-04T15:53:39.963Z</time></trkpt><trkpt lat="45.21023336697959" lon="11.682834281861034"><ele>8.0</ele><time>2026-04-04T15:53:40.963Z</time></trkpt><trkpt lat="45.21014992407277" lon="11.683071973388"><ele>8.0</ele><time>2026-04-04T15:53:41.963Z</time></trkpt><trkpt lat="45.21003479489426" lon="11.683274625232208"><ele>8.0</ele><time>2026-04-04T15:53:42.963Z</time></trkpt><trkpt lat="45.20991778832575" lon="11.683480214665499"><ele>8.0</ele><time>2026-04-04T15:53:43.963Z</time></trkpt><trkpt lat="45.209784506165605" lon="11.68367894225743"><ele>8.333333333333332</ele><time>2026-04-04T15:53:44.963Z</time></trkpt><trkpt lat="45.20964005451962" lon="11.683876036135187"><ele>8.666666666666666</ele><time>2026-04-04T15:53:45.963Z</time></trkpt><trkpt lat="45.20949077118663" lon="11.68407390858332"><ele>9.0</ele><time>2026-04-04T15:53:46.963Z</time></trkpt><trkpt lat="45.20933570259247" lon="11.684279384865409"><ele>9.0</ele><time>2026-04-04T15:53:47.963Z</time></trkpt><trkpt lat="45.20917484326403" lon="11.684488590955896"><ele>9.0</ele><time>2026-04-04T15:53:48.963Z</time></trkpt><trkpt lat="45.20901774197198" lon="11.684692909393796"><ele>9.0</ele><time>2026-04-04T15:53:49.963Z</time></trkpt><trkpt lat="45.208880691746124" lon="11.684913882413582"><ele>9.0</ele><time>2026-04-04T15:53:50.963Z</time></trkpt><trkpt lat="45.20874292653593" lon="11.68509816560799"><ele>9.0</ele><time>2026-04-04T15:53:51.963Z</time></trkpt><trkpt lat="45.20861265583457" lon="11.685287104157785"><ele>9.0</ele><time>2026-04-04T15:53:52.963Z</time></trkpt><trkpt lat="45.20848983444286" lon="11.685484472797338"><ele>9.0</ele><time>2026-04-04T15:53:53.963Z</time></trkpt><trkpt lat="45.208367077693296" lon="11.685691544562376"><ele>9.0</ele><time>2026-04-04T15:53:54.963Z</time></trkpt><trkpt lat="45.20823700243483" lon="11.685903047286612"><ele>9.0</ele><time>2026-04-04T15:53:55.963Z</time></trkpt><trkpt lat="45.208102912077614" lon="11.686132503482646"><ele>9.0</ele><time>2026-04-04T15:53:56.963Z</time></trkpt><trkpt lat="45.207969229817856" lon="11.686357617440713"><ele>9.0</ele><time>2026-04-04T15:53:57.963Z</time></trkpt><trkpt lat="45.207834714335604" lon="11.68657961660162"><ele>9.0</ele><time>2026-04-04T15:53:58.963Z</time></trkpt><trkpt lat="45.20769928054149" lon="11.686770206940398"><ele>8.666666666666666</ele><time>2026-04-04T15:53:59.963Z</time></trkpt><trkpt lat="45.207584421833026" lon="11.686959310902001"><ele>8.333333333333332</ele><time>2026-04-04T15:54:00.963Z</time></trkpt><trkpt lat="45.207471749333905" lon="11.687140140057323"><ele>8.0</ele><time>2026-04-04T15:54:01.963Z</time></trkpt><trkpt lat="45.20736704714791" lon="11.687328745855774"><ele>8.0</ele><time>2026-04-04T15:54:02.963Z</time></trkpt><trkpt lat="45.20725192011599" lon="11.687483383533023"><ele>8.0</ele><time>2026-04-04T15:54:03.963Z</time></trkpt><trkpt lat="45.20714568390732" lon="11.68762749192074"><ele>8.0</ele><time>2026-04-04T15:54:04.963Z</time></trkpt><trkpt lat="45.2070513948484" lon="11.687751714723838"><ele>8.0</ele><time>2026-04-04T15:54:05.963Z</time></trkpt><trkpt lat="45.20697245457804" lon="11.68786498154406"><ele>7.999999999999999</ele><time>2026-04-04T15:54:06.963Z</time></trkpt><trkpt lat="45.20691954770437" lon="11.687945283675475"><ele>8.0</ele><time>2026-04-04T15:54:07.963Z</time></trkpt><trkpt lat="45.20687614112374" lon="11.688015721369155"><ele>8.0</ele><time>2026-04-04T15:54:08.963Z</time></trkpt><trkpt lat="45.20682756823671" lon="11.688082327196957"><ele>8.0</ele><time>2026-04-04T15:54:09.963Z</time></trkpt><trkpt lat="45.20673469174685" lon="11.688138113801687"><ele>7.999999999999999</ele><time>2026-04-04T15:54:10.963Z</time></trkpt><trkpt lat="45.206657191509905" lon="11.688274517966407"><ele>8.0</ele><time>2026-04-04T15:54:11.963Z</time></trkpt><trkpt lat="45.20653330153361" lon="11.688372685949076"><ele>8.0</ele><time>2026-04-04T15:54:12.963Z</time></trkpt><trkpt lat="45.20641576736034" lon="11.688504032232736"><ele>8.0</ele><time>2026-04-04T15:54:13.963Z</time></trkpt><trkpt lat="45.206290051597314" lon="11.688664173316546"><ele>8.0</ele><time>2026-04-04T15:54:14.963Z</time></trkpt><trkpt lat="45.20616590342139" lon="11.688830156397403"><ele>8.0</ele><time>2026-04-04T15:54:15.963Z</time></trkpt><trkpt lat="45.20603612562535" lon="11.689003666067308"><ele>8.0</ele><time>2026-04-04T15:54:16.963Z</time></trkpt><trkpt lat="45.205907110059904" lon="11.689169462218443"><ele>8.0</ele><time>2026-04-04T15:54:17.963Z</time></trkpt><trkpt lat="45.20577158999495" lon="11.68931773447619"><ele>8.0</ele><time>2026-04-04T15:54:18.963Z</time></trkpt><trkpt lat="45.2056197297795" lon="11.689436110472721"><ele>8.0</ele><time>2026-04-04T15:54:19.963Z</time></trkpt><trkpt lat="45.20545914624975" lon="11.689512456822355"><ele>8.0</ele><time>2026-04-04T15:54:20.963Z</time></trkpt><trkpt lat="45.20529045869018" lon="11.689555999432066"><ele>8.0</ele><time>2026-04-04T15:54:21.963Z</time></trkpt><trkpt lat="45.20512520565409" lon="11.689578123309492"><ele>8.0</ele><time>2026-04-04T15:54:22.963Z</time></trkpt><trkpt lat="45.204971875434" lon="11.689577504765241"><ele>8.0</ele><time>2026-04-04T15:54:23.963Z</time></trkpt><trkpt lat="45.204828970856894" lon="11.689590993914324"><ele>8.0</ele><time>2026-04-04T15:54:24.963Z</time></trkpt><trkpt lat="45.20468875053414" lon="11.689594895891279"><ele>8.0</ele><time>2026-04-04T15:54:25.962Z</time></trkpt><trkpt lat="45.20454349621845" lon="11.689592633047956"><ele>8.0</ele><time>2026-04-04T15:54:26.962Z</time></trkpt><trkpt lat="45.20440938325434" lon="11.689574317367473"><ele>8.0</ele><time>2026-04-04T15:54:27.962Z</time></trkpt><trkpt lat="45.204281980700905" lon="11.689547741183722"><ele>8.0</ele><time>2026-04-04T15:54:28.962Z</time></trkpt><trkpt lat="45.20415940616671" lon="11.689516617606179"><ele>8.0</ele><time>2026-04-04T15:54:29.962Z</time></trkpt><trkpt lat="45.20403021838487" lon="11.689481731854997"><ele>8.0</ele><time>2026-04-04T15:54:30.962Z</time></trkpt><trkpt lat="45.20389088912902" lon="11.689449490470974"><ele>8.0</ele><time>2026-04-04T15:54:31.962Z</time></trkpt><trkpt lat="45.203745177605406" lon="11.689403265561928"><ele>8.333333333333332</ele><time>2026-04-04T15:54:32.962Z</time></trkpt><trkpt lat="45.20359650047465" lon="11.689347261822462"><ele>8.666666666666666</ele><time>2026-04-04T15:54:33.962Z</time></trkpt><trkpt lat="45.203450582178526" lon="11.689279304879966"><ele>9.0</ele><time>2026-04-04T15:54:34.962Z</time></trkpt><trkpt lat="45.20330618497206" lon="11.689210900206723"><ele>9.0</ele><time>2026-04-04T15:54:35.962Z</time></trkpt><trkpt lat="45.2031652842987" lon="11.689147522479391"><ele>9.0</ele><time>2026-04-04T15:54:36.962Z</time></trkpt><trkpt lat="45.20302881342272" lon="11.689084944968664"><ele>9.0</ele><time>2026-04-04T15:54:37.962Z</time></trkpt><trkpt lat="45.202897136589854" lon="11.689029283244562"><ele>9.0</ele><time>2026-04-04T15:54:38.962Z</time></trkpt><trkpt lat="45.20276570807127" lon="11.688966275847218"><ele>9.2</ele><time>2026-04-04T15:54:39.962Z</time></trkpt><trkpt lat="45.202639527131076" lon="11.688907875058293"><ele>9.4</ele><time>2026-04-04T15:54:40.962Z</time></trkpt><trkpt lat="45.20252283739966" lon="11.688857876066683"><ele>9.6</ele><time>2026-04-04T15:54:41.962Z</time></trkpt><trkpt lat="45.20243520525045" lon="11.688793225500923"><ele>9.8</ele><time>2026-04-04T15:54:42.962Z</time></trkpt><trkpt lat="45.20234466619775" lon="11.688750227571141"><ele>10.0</ele><time>2026-04-04T15:54:43.962Z</time></trkpt><trkpt lat="45.2022484784832" lon="11.68870381494751"><ele>9.8</ele><time>2026-04-04T15:54:44.962Z</time></trkpt><trkpt lat="45.20213984562651" lon="11.688654252625032"><ele>9.6</ele><time>2026-04-04T15:54:45.962Z</time></trkpt><trkpt lat="45.202033336541085" lon="11.688600084900074"><ele>9.4</ele><time>2026-04-04T15:54:46.962Z</time></trkpt><trkpt lat="45.20193204402172" lon="11.688549551306657"><ele>9.2</ele><time>2026-04-04T15:54:47.962Z</time></trkpt><trkpt lat="45.20182837671679" lon="11.688491625009474"><ele>9.0</ele><time>2026-04-04T15:54:48.962Z</time></trkpt><trkpt lat="45.201722506825234" lon="11.688415823040028"><ele>9.0</ele><time>2026-04-04T15:54:49.962Z</time></trkpt><trkpt lat="45.20161573821295" lon="11.688330410669836"><ele>9.0</ele><time>2026-04-04T15:54:50.962Z</time></trkpt><trkpt lat="45.20151133580535" lon="11.68822578738376"><ele>9.0</ele><time>2026-04-04T15:54:51.962Z</time></trkpt><trkpt lat="45.201421974647886" lon="11.688114781124"><ele>9.0</ele><time>2026-04-04T15:54:52.962Z</time></trkpt><trkpt lat="45.2013372120203" lon="11.688031580628863"><ele>8.8</ele><time>2026-04-04T15:54:53.962Z</time></trkpt><trkpt lat="45.201253101972455" lon="11.687950239887828"><ele>8.600000000000001</ele><time>2026-04-04T15:54:54.962Z</time></trkpt><trkpt lat="45.20116730280079" lon="11.687866707960843"><ele>8.4</ele><time>2026-04-04T15:54:55.962Z</time></trkpt><trkpt lat="45.20108065875828" lon="11.68775703012174"><ele>8.200000000000001</ele><time>2026-04-04T15:54:56.962Z</time></trkpt><trkpt lat="45.201020907386045" lon="11.68759815516917"><ele>8.0</ele><time>2026-04-04T15:54:57.962Z</time></trkpt><trkpt lat="45.200949081587154" lon="11.687452717202165"><ele>8.5</ele><time>2026-04-04T15:54:58.962Z</time></trkpt><trkpt lat="45.200881763169676" lon="11.687289009541498"><ele>9.0</ele><time>2026-04-04T15:54:59.962Z</time></trkpt><trkpt lat="45.200817493125975" lon="11.687112486317417"><ele>9.5</ele><time>2026-04-04T15:55:00.962Z</time></trkpt><trkpt lat="45.20075100113589" lon="11.68692828997372"><ele>10.0</ele><time>2026-04-04T15:55:01.962Z</time></trkpt><trkpt lat="45.200681822269985" lon="11.686733945368195"><ele>10.333333333333334</ele><time>2026-04-04T15:55:02.962Z</time></trkpt><trkpt lat="45.20059584493338" lon="11.686542135251802"><ele>10.666666666666666</ele><time>2026-04-04T15:55:03.962Z</time></trkpt><trkpt lat="45.20053425638988" lon="11.686322344927014"><ele>11.0</ele><time>2026-04-04T15:55:04.962Z</time></trkpt><trkpt lat="45.2004685887965" lon="11.686115858544415"><ele>10.75</ele><time>2026-04-04T15:55:05.962Z</time></trkpt><trkpt lat="45.20041014296241" lon="11.685951411455816"><ele>10.5</ele><time>2026-04-04T15:55:06.963Z</time></trkpt><trkpt lat="45.20034933121241" lon="11.68578979039974"><ele>10.25</ele><time>2026-04-04T15:55:07.963Z</time></trkpt><trkpt lat="45.20028450359951" lon="11.685609654302397"><ele>10.0</ele><time>2026-04-04T15:55:08.963Z</time></trkpt><trkpt lat="45.20020872171874" lon="11.685419222265933"><ele>9.666666666666668</ele><time>2026-04-04T15:55:09.963Z</time></trkpt><trkpt lat="45.20012105177915" lon="11.685224168968702"><ele>9.333333333333334</ele><time>2026-04-04T15:55:10.963Z</time></trkpt><trkpt lat="45.200044118028856" lon="11.68502800662649"><ele>9.0</ele><time>2026-04-04T15:55:11.963Z</time></trkpt><trkpt lat="45.19993105163109" lon="11.684870896356385"><ele>9.333333333333334</ele><time>2026-04-04T15:55:12.963Z</time></trkpt><trkpt lat="45.19980409178964" lon="11.684722005691025"><ele>9.666666666666668</ele><time>2026-04-04T15:55:13.964Z</time></trkpt><trkpt lat="45.19966027404405" lon="11.68458865979017"><ele>10.0</ele><time>2026-04-04T15:55:14.963Z</time></trkpt><trkpt lat="45.19951695334154" lon="11.684451323341657"><ele>10.0</ele><time>2026-04-04T15:55:15.963Z</time></trkpt><trkpt lat="45.19936260006531" lon="11.684331914144087"><ele>10.0</ele><time>2026-04-04T15:55:16.964Z</time></trkpt><trkpt lat="45.19920640875615" lon="11.684214663500644"><ele>10.0</ele><time>2026-04-04T15:55:17.964Z</time></trkpt><trkpt lat="45.199040002983395" lon="11.684114239831656"><ele>10.0</ele><time>2026-04-04T15:55:18.963Z</time></trkpt><trkpt lat="45.198849361095945" lon="11.684036912203963"><ele>10.0</ele><time>2026-04-04T15:55:19.963Z</time></trkpt><trkpt lat="45.19865310348808" lon="11.683989356549441"><ele>10.0</ele><time>2026-04-04T15:55:20.963Z</time></trkpt><trkpt lat="45.19846231801741" lon="11.683962903444291"><ele>10.0</ele><time>2026-04-04T15:55:21.963Z</time></trkpt><trkpt lat="45.19826110772224" lon="11.683984054184982"><ele>10.0</ele><time>2026-04-04T15:55:22.963Z</time></trkpt><trkpt lat="45.19804373740052" lon="11.684030264705646"><ele>10.0</ele><time>2026-04-04T15:55:23.963Z</time></trkpt><trkpt lat="45.19782827950684" lon="11.684081531823331"><ele>9.333333333333334</ele><time>2026-04-04T15:55:24.963Z</time></trkpt><trkpt lat="45.19761521460139" lon="11.684136469263041"><ele>8.666666666666666</ele><time>2026-04-04T15:55:25.963Z</time></trkpt><trkpt lat="45.19739081516079" lon="11.68421077177561"><ele>8.0</ele><time>2026-04-04T15:55:26.963Z</time></trkpt><trkpt lat="45.197167007951215" lon="11.684283474609197"><ele>8.0</ele><time>2026-04-04T15:55:27.963Z</time></trkpt><trkpt lat="45.19694764393893" lon="11.684367544630058"><ele>8.0</ele><time>2026-04-04T15:55:28.963Z</time></trkpt><trkpt lat="45.1967361184456" lon="11.684441160407498"><ele>8.0</ele><time>2026-04-04T15:55:29.963Z</time></trkpt><trkpt lat="45.196539971289766" lon="11.684499169950174"><ele>8.333333333333332</ele><time>2026-04-04T15:55:30.963Z</time></trkpt><trkpt lat="45.1963578442873" lon="11.68455636140496"><ele>8.666666666666666</ele><time>2026-04-04T15:55:31.963Z</time></trkpt><trkpt lat="45.19617513729679" lon="11.684566989387235"><ele>9.0</ele><time>2026-04-04T15:55:32.963Z</time></trkpt><trkpt lat="45.19598004458475" lon="11.684552175418531"><ele>9.0</ele><time>2026-04-04T15:55:33.963Z</time></trkpt><trkpt lat="45.1957732540621" lon="11.684510123450503"><ele>9.0</ele><time>2026-04-04T15:55:34.963Z</time></trkpt><trkpt lat="45.195563318308885" lon="11.68443168464025"><ele>9.0</ele><time>2026-04-04T15:55:35.963Z</time></trkpt><trkpt lat="45.195352462634155" lon="11.684342513421546"><ele>9.0</ele><time>2026-04-04T15:55:36.963Z</time></trkpt><trkpt lat="45.19512611013557" lon="11.684262809576984"><ele>9.0</ele><time>2026-04-04T15:55:37.963Z</time></trkpt><trkpt lat="45.19489525196428" lon="11.68417692615792"><ele>9.0</ele><time>2026-04-04T15:55:38.962Z</time></trkpt><trkpt lat="45.19466012079111" lon="11.68409637279132"><ele>9.0</ele><time>2026-04-04T15:55:39.962Z</time></trkpt><trkpt lat="45.194414644147386" lon="11.684013205850153"><ele>9.0</ele><time>2026-04-04T15:55:40.962Z</time></trkpt><trkpt lat="45.1941686855341" lon="11.68392523660647"><ele>9.0</ele><time>2026-04-04T15:55:41.962Z</time></trkpt><trkpt lat="45.193924043581355" lon="11.683816580346004"><ele>8.5</ele><time>2026-04-04T15:55:42.962Z</time></trkpt><trkpt lat="45.19366553639663" lon="11.68372873275918"><ele>8.0</ele><time>2026-04-04T15:55:43.962Z</time></trkpt><trkpt lat="45.1934051479861" lon="11.68365104896419"><ele>8.0</ele><time>2026-04-04T15:55:44.962Z</time></trkpt><trkpt lat="45.19315411853994" lon="11.683583218296715"><ele>8.0</ele><time>2026-04-04T15:55:45.962Z</time></trkpt><trkpt lat="45.19292451733775" lon="11.68352512622863"><ele>8.0</ele><time>2026-04-04T15:55:46.962Z</time></trkpt><trkpt lat="45.19270386435715" lon="11.683470067015321"><ele>8.0</ele><time>2026-04-04T15:55:47.962Z</time></trkpt><trkpt lat="45.19248444381835" lon="11.68341874165167"><ele>8.0</ele><time>2026-04-04T15:55:48.962Z</time></trkpt><trkpt lat="45.19226882671982" lon="11.683366810984861"><ele>8.0</ele><time>2026-04-04T15:55:49.962Z</time></trkpt><trkpt lat="45.19206040014227" lon="11.683315266884476"><ele>8.0</ele><time>2026-04-04T15:55:50.962Z</time></trkpt><trkpt lat="45.19186008039695" lon="11.68326734511067"><ele>8.0</ele><time>2026-04-04T15:55:51.962Z</time></trkpt><trkpt lat="45.19165970000928" lon="11.683219408823405"><ele>8.0</ele><time>2026-04-04T15:55:52.962Z</time></trkpt><trkpt lat="45.19146382959797" lon="11.683172551443779"><ele>8.0</ele><time>2026-04-04T15:55:53.962Z</time></trkpt><trkpt lat="45.191269891008425" lon="11.683126156202878"><ele>8.0</ele><time>2026-04-04T15:55:54.962Z</time></trkpt><trkpt lat="45.19109090620493" lon="11.68308333829873"><ele>8.0</ele><time>2026-04-04T15:55:55.962Z</time></trkpt><trkpt lat="45.19091699759331" lon="11.683040477884868"><ele>8.0</ele><time>2026-04-04T15:55:56.962Z</time></trkpt><trkpt lat="45.190749917273045" lon="11.682996697013778"><ele>8.0</ele><time>2026-04-04T15:55:57.962Z</time></trkpt><trkpt lat="45.190593350873684" lon="11.682951816987936"><ele>8.0</ele><time>2026-04-04T15:55:58.962Z</time></trkpt><trkpt lat="45.19043278374797" lon="11.682891608711637"><ele>8.0</ele><time>2026-04-04T15:55:59.962Z</time></trkpt><trkpt lat="45.19027092786637" lon="11.682815016305748"><ele>8.0</ele><time>2026-04-04T15:56:00.962Z</time></trkpt><trkpt lat="45.1901116515635" lon="11.682723902358099"><ele>8.0</ele><time>2026-04-04T15:56:01.962Z</time></trkpt><trkpt lat="45.18995719343754" lon="11.682607236671867"><ele>8.0</ele><time>2026-04-04T15:56:02.962Z</time></trkpt><trkpt lat="45.18979670702986" lon="11.682472543109904"><ele>8.0</ele><time>2026-04-04T15:56:03.962Z</time></trkpt><trkpt lat="45.18963535983459" lon="11.682356230517472"><ele>7.666666666666666</ele><time>2026-04-04T15:56:04.962Z</time></trkpt><trkpt lat="45.18950097512253" lon="11.68220772951391"><ele>7.333333333333334</ele><time>2026-04-04T15:56:05.962Z</time></trkpt><trkpt lat="45.18937522398954" lon="11.682072821036865"><ele>7.0</ele><time>2026-04-04T15:56:06.962Z</time></trkpt><trkpt lat="45.18926264514872" lon="11.681939154388838"><ele>7.0</ele><time>2026-04-04T15:56:07.962Z</time></trkpt><trkpt lat="45.18912788063172" lon="11.681828325073106"><ele>7.0</ele><time>2026-04-04T15:56:08.962Z</time></trkpt><trkpt lat="45.18900181116065" lon="11.68169039865937"><ele>7.0</ele><time>2026-04-04T15:56:09.962Z</time></trkpt><trkpt lat="45.18887942905824" lon="11.681552441784696"><ele>7.0</ele><time>2026-04-04T15:56:10.962Z</time></trkpt><trkpt lat="45.18876795018348" lon="11.681421219015306"><ele>7.0</ele><time>2026-04-04T15:56:11.962Z</time></trkpt><trkpt lat="45.18866724078256" lon="11.681301296886934"><ele>7.0</ele><time>2026-04-04T15:56:12.962Z</time></trkpt><trkpt lat="45.18857085309205" lon="11.681187561337822"><ele>7.0</ele><time>2026-04-04T15:56:13.962Z</time></trkpt><trkpt lat="45.18847260409373" lon="11.681068129798264"><ele>7.0</ele><time>2026-04-04T15:56:14.962Z</time></trkpt><trkpt lat="45.18837168499951" lon="11.680940163980827"><ele>7.0</ele><time>2026-04-04T15:56:15.962Z</time></trkpt><trkpt lat="45.18826360963332" lon="11.680799356451503"><ele>7.0</ele><time>2026-04-04T15:56:16.962Z</time></trkpt><trkpt lat="45.18814308142973" lon="11.680652668577803"><ele>7.0</ele><time>2026-04-04T15:56:17.962Z</time></trkpt><trkpt lat="45.18802042104341" lon="11.680504781244"><ele>7.0</ele><time>2026-04-04T15:56:18.962Z</time></trkpt><trkpt lat="45.18789965144975" lon="11.680356234249183"><ele>7.0</ele><time>2026-04-04T15:56:19.962Z</time></trkpt><trkpt lat="45.18778061329408" lon="11.68020543111557"><ele>7.0</ele><time>2026-04-04T15:56:20.962Z</time></trkpt><trkpt lat="45.18766454663738" lon="11.68006469644792"><ele>7.0</ele><time>2026-04-04T15:56:21.962Z</time></trkpt><trkpt lat="45.18755357681939" lon="11.679916300487264"><ele>7.0</ele><time>2026-04-04T15:56:22.962Z</time></trkpt><trkpt lat="45.18743819359878" lon="11.679780235212414"><ele>7.0</ele><time>2026-04-04T15:56:23.962Z</time></trkpt><trkpt lat="45.18732587012424" lon="11.679639941592482"><ele>7.0</ele><time>2026-04-04T15:56:24.962Z</time></trkpt><trkpt lat="45.18720929140194" lon="11.67950175983581"><ele>7.0</ele><time>2026-04-04T15:56:25.962Z</time></trkpt><trkpt lat="45.18709000368088" lon="11.679362170981431"><ele>7.0</ele><time>2026-04-04T15:56:26.962Z</time></trkpt><trkpt lat="45.18696383496295" lon="11.679217198262023"><ele>7.0</ele><time>2026-04-04T15:56:27.962Z</time></trkpt><trkpt lat="45.18683339832344" lon="11.679077562444471"><ele>7.0</ele><time>2026-04-04T15:56:28.961Z</time></trkpt><trkpt lat="45.18670539433225" lon="11.678932355431169"><ele>7.0</ele><time>2026-04-04T15:56:29.961Z</time></trkpt><trkpt lat="45.186579519153256" lon="11.678777033221305"><ele>6.666666666666667</ele><time>2026-04-04T15:56:30.961Z</time></trkpt><trkpt lat="45.18645184190414" lon="11.678636122421391"><ele>6.333333333333334</ele><time>2026-04-04T15:56:31.961Z</time></trkpt><trkpt lat="45.18632496672176" lon="11.678476134499082"><ele>6.0</ele><time>2026-04-04T15:56:32.961Z</time></trkpt><trkpt lat="45.186201615991344" lon="11.678303484721333"><ele>6.0</ele><time>2026-04-04T15:56:33.961Z</time></trkpt><trkpt lat="45.186082026095896" lon="11.678125501903061"><ele>6.0</ele><time>2026-04-04T15:56:34.961Z</time></trkpt><trkpt lat="45.18597766673162" lon="11.677935478966"><ele>6.0</ele><time>2026-04-04T15:56:35.961Z</time></trkpt><trkpt lat="45.18587914089503" lon="11.677727904120017"><ele>6.0</ele><time>2026-04-04T15:56:36.961Z</time></trkpt><trkpt lat="45.18579591502366" lon="11.677519282755082"><ele>6.0</ele><time>2026-04-04T15:56:37.961Z</time></trkpt><trkpt lat="45.18572055388007" lon="11.677323444947692"><ele>6.0</ele><time>2026-04-04T15:56:38.961Z</time></trkpt><trkpt lat="45.185654215233605" lon="11.677138848293495"><ele>6.0</ele><time>2026-04-04T15:56:39.961Z</time></trkpt><trkpt lat="45.185578389430184" lon="11.67695893042181"><ele>6.0</ele><time>2026-04-04T15:56:40.961Z</time></trkpt><trkpt lat="45.18549705954559" lon="11.676775661662775"><ele>6.0</ele><time>2026-04-04T15:56:41.961Z</time></trkpt><trkpt lat="45.18541120930648" lon="11.676589471177117"><ele>6.0</ele><time>2026-04-04T15:56:42.961Z</time></trkpt><trkpt lat="45.1853343398717" lon="11.676413222308454"><ele>6.0</ele><time>2026-04-04T15:56:43.961Z</time></trkpt><trkpt lat="45.18525345845377" lon="11.67622488765167"><ele>6.0</ele><time>2026-04-04T15:56:44.961Z</time></trkpt><trkpt lat="45.185173904015855" lon="11.676019392759956"><ele>6.333333333333334</ele><time>2026-04-04T15:56:45.961Z</time></trkpt><trkpt lat="45.185087411375356" lon="11.67580441980922"><ele>6.666666666666667</ele><time>2026-04-04T15:56:46.961Z</time></trkpt><trkpt lat="45.184988182541666" lon="11.675591785724706"><ele>7.0</ele><time>2026-04-04T15:56:47.961Z</time></trkpt><trkpt lat="45.18489336154185" lon="11.67539513949637"><ele>7.25</ele><time>2026-04-04T15:56:48.961Z</time></trkpt><trkpt lat="45.18480653732445" lon="11.675211998792388"><ele>7.5</ele><time>2026-04-04T15:56:49.961Z</time></trkpt><trkpt lat="45.18472401293555" lon="11.675048958907821"><ele>7.75</ele><time>2026-04-04T15:56:50.961Z</time></trkpt><trkpt lat="45.184642850853166" lon="11.674870711109003"><ele>8.0</ele><time>2026-04-04T15:56:51.961Z</time></trkpt><trkpt lat="45.18455678422979" lon="11.674703004322627"><ele>8.0</ele><time>2026-04-04T15:56:52.961Z</time></trkpt><trkpt lat="45.18446285769484" lon="11.674545719247615"><ele>8.0</ele><time>2026-04-04T15:56:53.961Z</time></trkpt><trkpt lat="45.18437086749652" lon="11.67438966902917"><ele>8.0</ele><time>2026-04-04T15:56:54.961Z</time></trkpt><trkpt lat="45.18428019770414" lon="11.674236546983797"><ele>8.0</ele><time>2026-04-04T15:56:55.961Z</time></trkpt><trkpt lat="45.184199947582634" lon="11.674081228267534"><ele>7.75</ele><time>2026-04-04T15:56:56.961Z</time></trkpt><trkpt lat="45.18412082332351" lon="11.673926205630295"><ele>7.5</ele><time>2026-04-04T15:56:57.961Z</time></trkpt><trkpt lat="45.18404569704672" lon="11.673769060486762"><ele>7.25</ele><time>2026-04-04T15:56:58.961Z</time></trkpt><trkpt lat="45.183977961183686" lon="11.67361901256188"><ele>7.0</ele><time>2026-04-04T15:56:59.961Z</time></trkpt><trkpt lat="45.183912327759565" lon="11.67346382687454"><ele>7.0</ele><time>2026-04-04T15:57:00.961Z</time></trkpt><trkpt lat="45.18384926479045" lon="11.673317398453383"><ele>7.0</ele><time>2026-04-04T15:57:01.961Z</time></trkpt><trkpt lat="45.183784133377245" lon="11.673172044600207"><ele>7.0</ele><time>2026-04-04T15:57:02.961Z</time></trkpt><trkpt lat="45.183718485952" lon="11.673037396309677"><ele>7.0</ele><time>2026-04-04T15:57:03.961Z</time></trkpt><trkpt lat="45.18365256355196" lon="11.672902132350183"><ele>7.0</ele><time>2026-04-04T15:57:04.961Z</time></trkpt><trkpt lat="45.183575563431795" lon="11.672764172723102"><ele>7.0</ele><time>2026-04-04T15:57:05.961Z</time></trkpt><trkpt lat="45.18349717398633" lon="11.672608936289814"><ele>7.0</ele><time>2026-04-04T15:57:06.961Z</time></trkpt><trkpt lat="45.18341877217799" lon="11.672453153542499"><ele>7.0</ele><time>2026-04-04T15:57:07.961Z</time></trkpt><trkpt lat="45.1833374800269" lon="11.672297914953509"><ele>7.0</ele><time>2026-04-04T15:57:08.961Z</time></trkpt><trkpt lat="45.183259161384115" lon="11.672151135887006"><ele>7.0</ele><time>2026-04-04T15:57:09.961Z</time></trkpt><trkpt lat="45.1831935301064" lon="11.671979853512818"><ele>7.0</ele><time>2026-04-04T15:57:10.961Z</time></trkpt><trkpt lat="45.18309946342632" lon="11.671834058300899"><ele>7.0</ele><time>2026-04-04T15:57:11.961Z</time></trkpt><trkpt lat="45.182995004841636" lon="11.671706403958648"><ele>7.333333333333334</ele><time>2026-04-04T15:57:12.962Z</time></trkpt><trkpt lat="45.18286818953821" lon="11.671589098492097"><ele>7.666666666666666</ele><time>2026-04-04T15:57:13.962Z</time></trkpt><trkpt lat="45.18272923795241" lon="11.671486753744308"><ele>8.0</ele><time>2026-04-04T15:57:14.962Z</time></trkpt><trkpt lat="45.182586460277975" lon="11.671413424147042"><ele>8.0</ele><time>2026-04-04T15:57:15.962Z</time></trkpt><trkpt lat="45.18244758689147" lon="11.67136109352513"><ele>8.0</ele><time>2026-04-04T15:57:16.962Z</time></trkpt><trkpt lat="45.182301031146565" lon="11.671342471521292"><ele>8.0</ele><time>2026-04-04T15:57:17.962Z</time></trkpt><trkpt lat="45.1821423251166" lon="11.67131823916589"><ele>7.333333333333333</ele><time>2026-04-04T15:57:18.962Z</time></trkpt><trkpt lat="45.1819847008082" lon="11.671299075747138"><ele>6.666666666666666</ele><time>2026-04-04T15:57:19.962Z</time></trkpt><trkpt lat="45.18182696766859" lon="11.671284315727833"><ele>6.0</ele><time>2026-04-04T15:57:20.962Z</time></trkpt><trkpt lat="45.1816724704918" lon="11.671266825697256"><ele>6.0</ele><time>2026-04-04T15:57:21.961Z</time></trkpt><trkpt lat="45.18151667047785" lon="11.671263597483733"><ele>6.0</ele><time>2026-04-04T15:57:22.962Z</time></trkpt><trkpt lat="45.18137154788232" lon="11.67126113417225"><ele>6.0</ele><time>2026-04-04T15:57:23.962Z</time></trkpt><trkpt lat="45.18123255863127" lon="11.671218656310666"><ele>6.0</ele><time>2026-04-04T15:57:24.962Z</time></trkpt><trkpt lat="45.181095247994485" lon="11.67121167038152"><ele>6.0</ele><time>2026-04-04T15:57:25.962Z</time></trkpt><trkpt lat="45.18095993692613" lon="11.671202781510026"><ele>6.0</ele><time>2026-04-04T15:57:26.962Z</time></trkpt><trkpt lat="45.1808243143575" lon="11.671202288839188"><ele>6.0</ele><time>2026-04-04T15:57:27.962Z</time></trkpt><trkpt lat="45.1806880080355" lon="11.671197655977387"><ele>6.0</ele><time>2026-04-04T15:57:28.962Z</time></trkpt><trkpt lat="45.180557451748776" lon="11.671197231589318"><ele>6.0</ele><time>2026-04-04T15:57:29.962Z</time></trkpt><trkpt lat="45.18042572426411" lon="11.671167787856612"><ele>6.0</ele><time>2026-04-04T15:57:30.962Z</time></trkpt><trkpt lat="45.18029022057778" lon="11.671156757812726"><ele>6.0</ele><time>2026-04-04T15:57:31.962Z</time></trkpt><trkpt lat="45.1801543300714" lon="11.671145696285173"><ele>6.0</ele><time>2026-04-04T15:57:32.962Z</time></trkpt><trkpt lat="45.18002189230752" lon="11.671134928841205"><ele>6.0</ele><time>2026-04-04T15:57:33.962Z</time></trkpt><trkpt lat="45.17988958407465" lon="11.671145532396798"><ele>6.0</ele><time>2026-04-04T15:57:34.962Z</time></trkpt><trkpt lat="45.1797530672538" lon="11.67112981281742"><ele>6.0</ele><time>2026-04-04T15:57:35.962Z</time></trkpt><trkpt lat="45.1796165931051" lon="11.671119311130917"><ele>6.0</ele><time>2026-04-04T15:57:36.962Z</time></trkpt><trkpt lat="45.17947635478659" lon="11.671108464993083"><ele>6.5</ele><time>2026-04-04T15:57:37.962Z</time></trkpt><trkpt lat="45.17933688442565" lon="11.671100304719483"><ele>7.0</ele><time>2026-04-04T15:57:38.962Z</time></trkpt><trkpt lat="45.1792006211663" lon="11.671088936906084"><ele>7.5</ele><time>2026-04-04T15:57:39.962Z</time></trkpt><trkpt lat="45.17907281926179" lon="11.671076746227671"><ele>8.0</ele><time>2026-04-04T15:57:40.962Z</time></trkpt><trkpt lat="45.17895020442415" lon="11.671062872450042"><ele>8.0</ele><time>2026-04-04T15:57:41.962Z</time></trkpt><trkpt lat="45.1788302465156" lon="11.671050116409997"><ele>8.0</ele><time>2026-04-04T15:57:42.962Z</time></trkpt><trkpt lat="45.17871289469726" lon="11.671005027292107"><ele>8.0</ele><time>2026-04-04T15:57:43.962Z</time></trkpt><trkpt lat="45.17858990920178" lon="11.670989482222945"><ele>8.0</ele><time>2026-04-04T15:57:44.962Z</time></trkpt><trkpt lat="45.1784695748011" lon="11.670973718447494"><ele>8.0</ele><time>2026-04-04T15:57:45.962Z</time></trkpt><trkpt lat="45.1783468765168" lon="11.670963707254225"><ele>8.0</ele><time>2026-04-04T15:57:46.962Z</time></trkpt><trkpt lat="45.17822218187372" lon="11.670952264567406"><ele>8.0</ele><time>2026-04-04T15:57:47.962Z</time></trkpt><trkpt lat="45.17809684425976" lon="11.670943000598617"><ele>8.0</ele><time>2026-04-04T15:57:48.962Z</time></trkpt><trkpt lat="45.17795885395298" lon="11.670925076734264"><ele>8.0</ele><time>2026-04-04T15:57:49.962Z</time></trkpt><trkpt lat="45.177817688176354" lon="11.670917358474316"><ele>8.0</ele><time>2026-04-04T15:57:50.962Z</time></trkpt><trkpt lat="45.17767711531666" lon="11.670907668755456"><ele>8.0</ele><time>2026-04-04T15:57:51.962Z</time></trkpt><trkpt lat="45.177547228383226" lon="11.67090087589533"><ele>8.0</ele><time>2026-04-04T15:57:52.962Z</time></trkpt><trkpt lat="45.17742743910906" lon="11.670898037863934"><ele>7.833333333333333</ele><time>2026-04-04T15:57:53.962Z</time></trkpt><trkpt lat="45.177321012466464" lon="11.670893659668486"><ele>7.666666666666666</ele><time>2026-04-04T15:57:54.962Z</time></trkpt><trkpt lat="45.17722587547065" lon="11.670884575020178"><ele>7.5</ele><time>2026-04-04T15:57:55.962Z</time></trkpt><trkpt lat="45.17714042046866" lon="11.670880869420811"><ele>7.333333333333334</ele><time>2026-04-04T15:57:56.962Z</time></trkpt><trkpt lat="45.1770692144546" lon="11.67087177631201"><ele>7.166666666666667</ele><time>2026-04-04T15:57:57.961Z</time></trkpt><trkpt lat="45.177002587765976" lon="11.670865874519247"><ele>7.0</ele><time>2026-04-04T15:57:58.961Z</time></trkpt><trkpt lat="45.17687187942119" lon="11.670865252101324"><ele>7.000000000000001</ele><time>2026-04-04T15:58:00.961Z</time></trkpt><trkpt lat="45.17679686148187" lon="11.670860469990197"><ele>7.0</ele><time>2026-04-04T15:58:01.961Z</time></trkpt><trkpt lat="45.17671860291008" lon="11.670859355090528"><ele>7.0</ele><time>2026-04-04T15:58:02.961Z</time></trkpt><trkpt lat="45.176645113921246" lon="11.670850944061838"><ele>7.0</ele><time>2026-04-04T15:58:03.961Z</time></trkpt><trkpt lat="45.176575164643204" lon="11.670843094050452"><ele>7.000000000000001</ele><time>2026-04-04T15:58:04.961Z</time></trkpt><trkpt lat="45.17645730550625" lon="11.670817487611396"><ele>7.0</ele><time>2026-04-04T15:58:06.961Z</time></trkpt><trkpt lat="45.176357197440154" lon="11.670797958421693"><ele>7.199999999999999</ele><time>2026-04-04T15:58:08.961Z</time></trkpt><trkpt lat="45.176262616213" lon="11.670773136910128"><ele>7.3999999999999995</ele><time>2026-04-04T15:58:10.961Z</time></trkpt><trkpt lat="45.17616808274521" lon="11.6707391353749"><ele>7.6000000000000005</ele><time>2026-04-04T15:58:12.961Z</time></trkpt><trkpt lat="45.17608444240433" lon="11.670660584942036"><ele>7.800000000000001</ele><time>2026-04-04T15:58:14.961Z</time></trkpt><trkpt lat="45.176002182273756" lon="11.670614689223349"><ele>8.0</ele><time>2026-04-04T15:58:16.961Z</time></trkpt><trkpt lat="45.175934922584574" lon="11.670578805406963"><ele>8.0</ele><time>2026-04-04T15:58:18.961Z</time></trkpt><trkpt lat="45.175858131102466" lon="11.670507906352773"><ele>8.0</ele><time>2026-04-04T15:58:21.961Z</time></trkpt><trkpt lat="45.17577772888433" lon="11.670452301008865"><ele>8.0</ele><time>2026-04-04T15:58:23.961Z</time></trkpt><trkpt lat="45.1756752648639" lon="11.670378248096902"><ele>8.0</ele><time>2026-04-04T15:58:25.961Z</time></trkpt><trkpt lat="45.175611084948386" lon="11.670327114201912"><ele>8.0</ele><time>2026-04-04T15:58:26.961Z</time></trkpt><trkpt lat="45.17553237969688" lon="11.670256918503858"><ele>8.0</ele><time>2026-04-04T15:58:27.961Z</time></trkpt><trkpt lat="45.17545272245464" lon="11.67016224919567"><ele>8.0</ele><time>2026-04-04T15:58:28.961Z</time></trkpt><trkpt lat="45.175372882682844" lon="11.670088637260589"><ele>8.0</ele><time>2026-04-04T15:58:29.961Z</time></trkpt><trkpt lat="45.17528565150716" lon="11.670009286406728"><ele>8.0</ele><time>2026-04-04T15:58:30.961Z</time></trkpt><trkpt lat="45.17520167984819" lon="11.669932900608236"><ele>8.0</ele><time>2026-04-04T15:58:31.961Z</time></trkpt><trkpt lat="45.175116737912255" lon="11.669855632203792"><ele>8.0</ele><time>2026-04-04T15:58:32.961Z</time></trkpt><trkpt lat="45.17503044689676" lon="11.66977713657704"><ele>8.0</ele><time>2026-04-04T15:58:33.961Z</time></trkpt><trkpt lat="45.17493810198659" lon="11.669693133952272"><ele>8.0</ele><time>2026-04-04T15:58:34.961Z</time></trkpt><trkpt lat="45.174839933508046" lon="11.66960383385122"><ele>8.0</ele><time>2026-04-04T15:58:35.961Z</time></trkpt><trkpt lat="45.17474115566453" lon="11.669513979465984"><ele>8.0</ele><time>2026-04-04T15:58:36.961Z</time></trkpt><trkpt lat="45.17464573811574" lon="11.669426930977103"><ele>8.0</ele><time>2026-04-04T15:58:37.961Z</time></trkpt><trkpt lat="45.17455140610347" lon="11.669340139258807"><ele>8.0</ele><time>2026-04-04T15:58:38.961Z</time></trkpt><trkpt lat="45.17445743580856" lon="11.669252395916828"><ele>8.0</ele><time>2026-04-04T15:58:39.961Z</time></trkpt><trkpt lat="45.17436308874001" lon="11.669165335729929"><ele>8.0</ele><time>2026-04-04T15:58:40.961Z</time></trkpt><trkpt lat="45.17426616142701" lon="11.669076972624095"><ele>8.0</ele><time>2026-04-04T15:58:41.961Z</time></trkpt><trkpt lat="45.174167395790406" lon="11.668987181223743"><ele>8.0</ele><time>2026-04-04T15:58:42.961Z</time></trkpt><trkpt lat="45.17407234076953" lon="11.668900765000735"><ele>8.0</ele><time>2026-04-04T15:58:43.961Z</time></trkpt><trkpt lat="45.1739781017421" lon="11.668815088766603"><ele>8.0</ele><time>2026-04-04T15:58:44.961Z</time></trkpt><trkpt lat="45.17389077780895" lon="11.668735710296678"><ele>8.0</ele><time>2026-04-04T15:58:45.961Z</time></trkpt><trkpt lat="45.17379339821251" lon="11.66867334504139"><ele>8.200000000000001</ele><time>2026-04-04T15:58:46.961Z</time></trkpt><trkpt lat="45.17371044721961" lon="11.668571936101502"><ele>8.4</ele><time>2026-04-04T15:58:47.96Z</time></trkpt><trkpt lat="45.17362469440562" lon="11.668483329634062"><ele>8.600000000000001</ele><time>2026-04-04T15:58:48.96Z</time></trkpt><trkpt lat="45.17353797151826" lon="11.668397735777003"><ele>8.8</ele><time>2026-04-04T15:58:49.96Z</time></trkpt><trkpt lat="45.17344240812621" lon="11.668306836666183"><ele>9.0</ele><time>2026-04-04T15:58:50.96Z</time></trkpt><trkpt lat="45.173348595081016" lon="11.66821758070248"><ele>9.0</ele><time>2026-04-04T15:58:51.96Z</time></trkpt><trkpt lat="45.17325093622965" lon="11.668127511044617"><ele>9.0</ele><time>2026-04-04T15:58:52.96Z</time></trkpt><trkpt lat="45.173157980527066" lon="11.668027864781077"><ele>9.0</ele><time>2026-04-04T15:58:53.96Z</time></trkpt><trkpt lat="45.17306660396423" lon="11.667925715916706"><ele>9.0</ele><time>2026-04-04T15:58:54.96Z</time></trkpt><trkpt lat="45.17296596914531" lon="11.667830974515615"><ele>9.0</ele><time>2026-04-04T15:58:55.96Z</time></trkpt><trkpt lat="45.17285890339188" lon="11.667742166055076"><ele>9.0</ele><time>2026-04-04T15:58:56.96Z</time></trkpt><trkpt lat="45.172756542865976" lon="11.667647697656081"><ele>9.0</ele><time>2026-04-04T15:58:57.96Z</time></trkpt><trkpt lat="45.1726535781003" lon="11.667548957764874"><ele>9.0</ele><time>2026-04-04T15:58:58.96Z</time></trkpt><trkpt lat="45.172552652688516" lon="11.667458838262592"><ele>9.0</ele><time>2026-04-04T15:58:59.96Z</time></trkpt><trkpt lat="45.1724384615458" lon="11.667367074460985"><ele>9.0</ele><time>2026-04-04T15:59:00.96Z</time></trkpt><trkpt lat="45.172323825148176" lon="11.667267966120379"><ele>9.0</ele><time>2026-04-04T15:59:01.96Z</time></trkpt><trkpt lat="45.17220496121282" lon="11.667170749003954"><ele>9.0</ele><time>2026-04-04T15:59:02.96Z</time></trkpt><trkpt lat="45.17208404059178" lon="11.6670752183153"><ele>8.75</ele><time>2026-04-04T15:59:03.96Z</time></trkpt><trkpt lat="45.17195771312253" lon="11.666976114160784"><ele>8.5</ele><time>2026-04-04T15:59:04.96Z</time></trkpt><trkpt lat="45.171826824265594" lon="11.666872190248768"><ele>8.25</ele><time>2026-04-04T15:59:05.96Z</time></trkpt><trkpt lat="45.17170194046059" lon="11.666755147522538"><ele>8.0</ele><time>2026-04-04T15:59:06.96Z</time></trkpt><trkpt lat="45.17158537974356" lon="11.666647696532054"><ele>8.0</ele><time>2026-04-04T15:59:07.96Z</time></trkpt><trkpt lat="45.17147406564762" lon="11.666552043673724"><ele>8.0</ele><time>2026-04-04T15:59:08.96Z</time></trkpt><trkpt lat="45.171369505601966" lon="11.666451788705379"><ele>8.0</ele><time>2026-04-04T15:59:09.96Z</time></trkpt><trkpt lat="45.17125428601497" lon="11.666347475048473"><ele>8.0</ele><time>2026-04-04T15:59:10.96Z</time></trkpt><trkpt lat="45.17115121055025" lon="11.666215439962794"><ele>8.25</ele><time>2026-04-04T15:59:11.96Z</time></trkpt><trkpt lat="45.17103064961442" lon="11.666106000928382"><ele>8.5</ele><time>2026-04-04T15:59:12.96Z</time></trkpt><trkpt lat="45.17092099667735" lon="11.666007860420606"><ele>8.75</ele><time>2026-04-04T15:59:13.96Z</time></trkpt><trkpt lat="45.17080914790463" lon="11.665913557239985"><ele>9.0</ele><time>2026-04-04T15:59:14.96Z</time></trkpt><trkpt lat="45.17070255167358" lon="11.665821799328981"><ele>9.0</ele><time>2026-04-04T15:59:15.96Z</time></trkpt><trkpt lat="45.170585257563935" lon="11.665730167001984"><ele>9.0</ele><time>2026-04-04T15:59:16.96Z</time></trkpt><trkpt lat="45.17047473893469" lon="11.665643964052705"><ele>9.0</ele><time>2026-04-04T15:59:17.96Z</time></trkpt><trkpt lat="45.17035779106412" lon="11.665553201719952"><ele>9.0</ele><time>2026-04-04T15:59:18.96Z</time></trkpt><trkpt lat="45.170252040424735" lon="11.665431746992162"><ele>9.0</ele><time>2026-04-04T15:59:19.96Z</time></trkpt><trkpt lat="45.17013635869534" lon="11.665327916965966"><ele>9.0</ele><time>2026-04-04T15:59:20.96Z</time></trkpt><trkpt lat="45.17002911127623" lon="11.665231657106373"><ele>9.0</ele><time>2026-04-04T15:59:21.96Z</time></trkpt><trkpt lat="45.169926385634895" lon="11.66513957286176"><ele>9.0</ele><time>2026-04-04T15:59:22.961Z</time></trkpt><trkpt lat="45.169824819827355" lon="11.665050325536214"><ele>8.5</ele><time>2026-04-04T15:59:23.961Z</time></trkpt><trkpt lat="45.169720378405735" lon="11.664955726107504"><ele>8.0</ele><time>2026-04-04T15:59:24.96Z</time></trkpt><trkpt lat="45.16961739093326" lon="11.66486043751843"><ele>7.5</ele><time>2026-04-04T15:59:25.961Z</time></trkpt><trkpt lat="45.16950910649119" lon="11.664759369431309"><ele>7.0</ele><time>2026-04-04T15:59:26.961Z</time></trkpt><trkpt lat="45.16939122335246" lon="11.664655279606373"><ele>7.0</ele><time>2026-04-04T15:59:27.96Z</time></trkpt><trkpt lat="45.16926625886223" lon="11.664550896594719"><ele>7.0</ele><time>2026-04-04T15:59:28.961Z</time></trkpt><trkpt lat="45.169141625689015" lon="11.664452413701783"><ele>7.0</ele><time>2026-04-04T15:59:29.961Z</time></trkpt><trkpt lat="45.16901685663363" lon="11.664349510350888"><ele>7.0</ele><time>2026-04-04T15:59:30.961Z</time></trkpt><trkpt lat="45.168886921821304" lon="11.664229036998442"><ele>7.0</ele><time>2026-04-04T15:59:31.96Z</time></trkpt><trkpt lat="45.16875742730031" lon="11.664109051030549"><ele>7.0</ele><time>2026-04-04T15:59:32.96Z</time></trkpt><trkpt lat="45.168630368765726" lon="11.663997891317013"><ele>7.0</ele><time>2026-04-04T15:59:33.96Z</time></trkpt><trkpt lat="45.168506007957845" lon="11.66388670883958"><ele>7.0</ele><time>2026-04-04T15:59:34.96Z</time></trkpt><trkpt lat="45.1683923525795" lon="11.663761212146179"><ele>7.0</ele><time>2026-04-04T15:59:35.96Z</time></trkpt><trkpt lat="45.16827415145066" lon="11.66364804274285"><ele>7.0</ele><time>2026-04-04T15:59:36.96Z</time></trkpt><trkpt lat="45.16815400416525" lon="11.663544578703329"><ele>7.0</ele><time>2026-04-04T15:59:37.96Z</time></trkpt><trkpt lat="45.16803501021845" lon="11.663421955232526"><ele>6.75</ele><time>2026-04-04T15:59:38.96Z</time></trkpt><trkpt lat="45.16791697282404" lon="11.663291982944191"><ele>6.5</ele><time>2026-04-04T15:59:39.96Z</time></trkpt><trkpt lat="45.16780495160993" lon="11.663161742796976"><ele>6.25</ele><time>2026-04-04T15:59:40.96Z</time></trkpt><trkpt lat="45.167700607182006" lon="11.663034547217203"><ele>6.0</ele><time>2026-04-04T15:59:41.96Z</time></trkpt><trkpt lat="45.16760287438189" lon="11.662915265819656"><ele>6.0</ele><time>2026-04-04T15:59:42.96Z</time></trkpt><trkpt lat="45.16751246763761" lon="11.662803084142011"><ele>6.0</ele><time>2026-04-04T15:59:43.96Z</time></trkpt><trkpt lat="45.16742188894233" lon="11.662688373456321"><ele>6.0</ele><time>2026-04-04T15:59:44.96Z</time></trkpt><trkpt lat="45.167316124055056" lon="11.662561666260734"><ele>6.0</ele><time>2026-04-04T15:59:45.96Z</time></trkpt><trkpt lat="45.16720254512013" lon="11.662409533297502"><ele>6.0</ele><time>2026-04-04T15:59:46.96Z</time></trkpt><trkpt lat="45.167078663545134" lon="11.662244916923697"><ele>6.0</ele><time>2026-04-04T15:59:47.96Z</time></trkpt><trkpt lat="45.166951159134086" lon="11.662076805369209"><ele>6.0</ele><time>2026-04-04T15:59:48.96Z</time></trkpt><trkpt lat="45.16682534487456" lon="11.661918021163915"><ele>6.0</ele><time>2026-04-04T15:59:49.96Z</time></trkpt><trkpt lat="45.16670438931097" lon="11.661758339913957"><ele>6.0</ele><time>2026-04-04T15:59:50.96Z</time></trkpt><trkpt lat="45.166580802099176" lon="11.66160075122811"><ele>6.0</ele><time>2026-04-04T15:59:51.96Z</time></trkpt><trkpt lat="45.16645605630383" lon="11.661448087832676"><ele>6.0</ele><time>2026-04-04T15:59:52.96Z</time></trkpt><trkpt lat="45.16633798044932" lon="11.66129735749097"><ele>6.0</ele><time>2026-04-04T15:59:53.96Z</time></trkpt><trkpt lat="45.166249373136246" lon="11.661122398892546"><ele>6.0</ele><time>2026-04-04T15:59:54.96Z</time></trkpt><trkpt lat="45.166144048526384" lon="11.660975315960656"><ele>6.0</ele><time>2026-04-04T15:59:55.96Z</time></trkpt><trkpt lat="45.16603941868009" lon="11.660829616687318"><ele>6.0</ele><time>2026-04-04T15:59:56.96Z</time></trkpt><trkpt lat="45.16593142986279" lon="11.660687762254831"><ele>6.0</ele><time>2026-04-04T15:59:57.96Z</time></trkpt><trkpt lat="45.16582803558679" lon="11.660548519238818"><ele>6.0</ele><time>2026-04-04T15:59:58.96Z</time></trkpt><trkpt lat="45.16572622428708" lon="11.66041252350998"><ele>6.25</ele><time>2026-04-04T15:59:59.96Z</time></trkpt><trkpt lat="45.165624593589506" lon="11.660273264301013"><ele>6.5</ele><time>2026-04-04T16:00:00.96Z</time></trkpt><trkpt lat="45.16551889899923" lon="11.660139544446679"><ele>6.75</ele><time>2026-04-04T16:00:01.96Z</time></trkpt><trkpt lat="45.16540979879459" lon="11.660003456659588"><ele>7.0</ele><time>2026-04-04T16:00:02.96Z</time></trkpt><trkpt lat="45.16530302382578" lon="11.65987237525437"><ele>7.0</ele><time>2026-04-04T16:00:03.96Z</time></trkpt><trkpt lat="45.16520431696917" lon="11.659747572068001"><ele>7.0</ele><time>2026-04-04T16:00:04.96Z</time></trkpt><trkpt lat="45.1651126634858" lon="11.659624876751431"><ele>7.0</ele><time>2026-04-04T16:00:05.96Z</time></trkpt><trkpt lat="45.165018785145406" lon="11.659497244336944"><ele>7.0</ele><time>2026-04-04T16:00:06.96Z</time></trkpt><trkpt lat="45.1649223462965" lon="11.659375617812557"><ele>7.0</ele><time>2026-04-04T16:00:07.96Z</time></trkpt><trkpt lat="45.16482649267518" lon="11.659256288913122"><ele>7.0</ele><time>2026-04-04T16:00:08.96Z</time></trkpt><trkpt lat="45.16473180628939" lon="11.65913838890497"><ele>7.0</ele><time>2026-04-04T16:00:09.96Z</time></trkpt><trkpt lat="45.16462711071388" lon="11.659021591556359"><ele>7.0</ele><time>2026-04-04T16:00:10.96Z</time></trkpt><trkpt lat="45.16452531150003" lon="11.658898983460787"><ele>7.0</ele><time>2026-04-04T16:00:11.96Z</time></trkpt><trkpt lat="45.164423375226875" lon="11.658772066014178"><ele>7.0</ele><time>2026-04-04T16:00:12.96Z</time></trkpt><trkpt lat="45.16431988109972" lon="11.658641701708108"><ele>7.0</ele><time>2026-04-04T16:00:13.96Z</time></trkpt><trkpt lat="45.16420888671704" lon="11.658499012662045"><ele>7.0</ele><time>2026-04-04T16:00:14.96Z</time></trkpt><trkpt lat="45.16409329084948" lon="11.658363297077237"><ele>7.0</ele><time>2026-04-04T16:00:15.959Z</time></trkpt><trkpt lat="45.16397531558216" lon="11.658214923883744"><ele>7.0</ele><time>2026-04-04T16:00:16.959Z</time></trkpt><trkpt lat="45.163861507051564" lon="11.658051275070488"><ele>7.0</ele><time>2026-04-04T16:00:17.959Z</time></trkpt><trkpt lat="45.16375024792789" lon="11.657882575023505"><ele>7.0</ele><time>2026-04-04T16:00:18.959Z</time></trkpt><trkpt lat="45.16363950579645" lon="11.65771814501557"><ele>7.0</ele><time>2026-04-04T16:00:19.959Z</time></trkpt><trkpt lat="45.163533072744656" lon="11.657559402186934"><ele>7.0</ele><time>2026-04-04T16:00:20.959Z</time></trkpt><trkpt lat="45.1634271211472" lon="11.657398285782326"><ele>7.0</ele><time>2026-04-04T16:00:21.959Z</time></trkpt><trkpt lat="45.16332357350272" lon="11.657236770813874"><ele>7.0</ele><time>2026-04-04T16:00:22.959Z</time></trkpt><trkpt lat="45.16322392861048" lon="11.657081563878117"><ele>7.0</ele><time>2026-04-04T16:00:23.959Z</time></trkpt><trkpt lat="45.16311726424208" lon="11.656917366236815"><ele>6.666666666666667</ele><time>2026-04-04T16:00:24.959Z</time></trkpt><trkpt lat="45.163017801791106" lon="11.656759097519265"><ele>6.333333333333334</ele><time>2026-04-04T16:00:25.959Z</time></trkpt><trkpt lat="45.162914350761596" lon="11.656601497103836"><ele>6.0</ele><time>2026-04-04T16:00:26.959Z</time></trkpt><trkpt lat="45.16280799947129" lon="11.656437590928364"><ele>6.0</ele><time>2026-04-04T16:00:27.959Z</time></trkpt><trkpt lat="45.162718454467516" lon="11.656251978739235"><ele>6.0</ele><time>2026-04-04T16:00:28.959Z</time></trkpt><trkpt lat="45.16261183070194" lon="11.656090953890645"><ele>6.0</ele><time>2026-04-04T16:00:29.959Z</time></trkpt><trkpt lat="45.16250023074763" lon="11.65593325983217"><ele>5.666666666666667</ele><time>2026-04-04T16:00:30.959Z</time></trkpt><trkpt lat="45.162382663409055" lon="11.655780940428771"><ele>5.333333333333334</ele><time>2026-04-04T16:00:31.959Z</time></trkpt><trkpt lat="45.16225440937073" lon="11.655641587139556"><ele>5.0</ele><time>2026-04-04T16:00:32.959Z</time></trkpt><trkpt lat="45.16212134409635" lon="11.655507150016497"><ele>5.0</ele><time>2026-04-04T16:00:33.959Z</time></trkpt><trkpt lat="45.16197426828668" lon="11.655381941263933"><ele>5.0</ele><time>2026-04-04T16:00:34.958Z</time></trkpt><trkpt lat="45.16183137958938" lon="11.65524768133179"><ele>5.0</ele><time>2026-04-04T16:00:35.956Z</time></trkpt><trkpt lat="45.161687604966225" lon="11.655122279400777"><ele>5.0</ele><time>2026-04-04T16:00:36.955Z</time></trkpt><trkpt lat="45.161552212610964" lon="11.65500539516312"><ele>5.0</ele><time>2026-04-04T16:00:37.954Z</time></trkpt><trkpt lat="45.16141356764327" lon="11.65488328273392"><ele>5.0</ele><time>2026-04-04T16:00:38.953Z</time></trkpt><trkpt lat="45.16128120326551" lon="11.654760095173202"><ele>5.0</ele><time>2026-04-04T16:00:39.951Z</time></trkpt><trkpt lat="45.161150658791215" lon="11.654633961819828"><ele>5.0</ele><time>2026-04-04T16:00:40.95Z</time></trkpt><trkpt lat="45.16101165052149" lon="11.654507599028669"><ele>5.0</ele><time>2026-04-04T16:00:41.949Z</time></trkpt><trkpt lat="45.16087673107562" lon="11.654371395988605"><ele>5.0</ele><time>2026-04-04T16:00:42.948Z</time></trkpt><trkpt lat="45.16074697320736" lon="11.654231485502345"><ele>5.0</ele><time>2026-04-04T16:00:43.948Z</time></trkpt><trkpt lat="45.16061181017296" lon="11.65409330142916"><ele>5.0</ele><time>2026-04-04T16:00:44.947Z</time></trkpt><trkpt lat="45.16048059967568" lon="11.653949612173108"><ele>5.0</ele><time>2026-04-04T16:00:45.946Z</time></trkpt><trkpt lat="45.16034832613771" lon="11.65380635477966"><ele>5.0</ele><time>2026-04-04T16:00:46.945Z</time></trkpt><trkpt lat="45.160226746263845" lon="11.653662620462054"><ele>5.0</ele><time>2026-04-04T16:00:47.945Z</time></trkpt><trkpt lat="45.16011125630533" lon="11.653518291044639"><ele>5.0</ele><time>2026-04-04T16:00:48.944Z</time></trkpt><trkpt lat="45.15999907059326" lon="11.653369186953054"><ele>5.0</ele><time>2026-04-04T16:00:49.943Z</time></trkpt><trkpt lat="45.15989139505558" lon="11.6532243757368"><ele>5.0</ele><time>2026-04-04T16:00:50.943Z</time></trkpt><trkpt lat="45.15978138150441" lon="11.653078968700353"><ele>5.0</ele><time>2026-04-04T16:00:51.942Z</time></trkpt><trkpt lat="45.15967524153336" lon="11.652921286662124"><ele>5.0</ele><time>2026-04-04T16:00:52.942Z</time></trkpt><trkpt lat="45.159570320483844" lon="11.65274890037318"><ele>5.0</ele><time>2026-04-04T16:00:53.941Z</time></trkpt><trkpt lat="45.159482362127285" lon="11.65256054656571"><ele>4.666666666666667</ele><time>2026-04-04T16:00:54.941Z</time></trkpt><trkpt lat="45.15940897021908" lon="11.652365007413568"><ele>4.333333333333333</ele><time>2026-04-04T16:00:55.94Z</time></trkpt><trkpt lat="45.15933642735352" lon="11.652172194441395"><ele>4.0</ele><time>2026-04-04T16:00:56.94Z</time></trkpt><trkpt lat="45.159263849479245" lon="11.651970426114671"><ele>4.333333333333333</ele><time>2026-04-04T16:00:57.94Z</time></trkpt><trkpt lat="45.15919487542639" lon="11.651758620150966"><ele>4.666666666666667</ele><time>2026-04-04T16:00:58.939Z</time></trkpt><trkpt lat="45.15912444255621" lon="11.651547015467408"><ele>5.0</ele><time>2026-04-04T16:00:59.939Z</time></trkpt><trkpt lat="45.15905347200583" lon="11.651323390947267"><ele>5.333333333333334</ele><time>2026-04-04T16:01:00.939Z</time></trkpt><trkpt lat="45.158979499122616" lon="11.651101052157602"><ele>5.666666666666667</ele><time>2026-04-04T16:01:01.938Z</time></trkpt><trkpt lat="45.15890053602269" lon="11.650875903036454"><ele>6.0</ele><time>2026-04-04T16:01:02.938Z</time></trkpt><trkpt lat="45.15882104732949" lon="11.650667753382729"><ele>6.0</ele><time>2026-04-04T16:01:03.938Z</time></trkpt><trkpt lat="45.15874609362956" lon="11.650475878498005"><ele>6.0</ele><time>2026-04-04T16:01:04.938Z</time></trkpt><trkpt lat="45.15867881420666" lon="11.650275522378292"><ele>6.0</ele><time>2026-04-04T16:01:05.937Z</time></trkpt><trkpt lat="45.15862409590092" lon="11.650080596786578"><ele>6.25</ele><time>2026-04-04T16:01:06.937Z</time></trkpt><trkpt lat="45.15858196657291" lon="11.649889546020725"><ele>6.5</ele><time>2026-04-04T16:01:07.937Z</time></trkpt><trkpt lat="45.15855546904437" lon="11.649695187074423"><ele>6.75</ele><time>2026-04-04T16:01:08.937Z</time></trkpt><trkpt lat="45.15852821164708" lon="11.649496798427807"><ele>7.0</ele><time>2026-04-04T16:01:09.937Z</time></trkpt><trkpt lat="45.1585004689211" lon="11.64929023442891"><ele>7.0</ele><time>2026-04-04T16:01:10.936Z</time></trkpt><trkpt lat="45.15847646021814" lon="11.649080440423008"><ele>7.0</ele><time>2026-04-04T16:01:11.936Z</time></trkpt><trkpt lat="45.15844833018088" lon="11.648867443942223"><ele>7.0</ele><time>2026-04-04T16:01:12.936Z</time></trkpt><trkpt lat="45.15841768892442" lon="11.648663637747902"><ele>7.0</ele><time>2026-04-04T16:01:13.936Z</time></trkpt><trkpt lat="45.15835703270424" lon="11.648458574501959"><ele>7.0</ele><time>2026-04-04T16:01:14.936Z</time></trkpt><trkpt lat="45.15826753081703" lon="11.64827975763696"><ele>7.0</ele><time>2026-04-04T16:01:15.936Z</time></trkpt><trkpt lat="45.15817954818449" lon="11.648092812472466"><ele>7.0</ele><time>2026-04-04T16:01:16.936Z</time></trkpt><trkpt lat="45.15808024751668" lon="11.647909778665081"><ele>7.0</ele><time>2026-04-04T16:01:17.935Z</time></trkpt><trkpt lat="45.157984361780436" lon="11.647742211986465"><ele>7.0</ele><time>2026-04-04T16:01:18.935Z</time></trkpt><trkpt lat="45.15788861239719" lon="11.647572511715358"><ele>7.0</ele><time>2026-04-04T16:01:19.935Z</time></trkpt><trkpt lat="45.157785826262625" lon="11.64741657356396"><ele>7.0</ele><time>2026-04-04T16:01:20.935Z</time></trkpt><trkpt lat="45.1576884734391" lon="11.647281606084883"><ele>7.0</ele><time>2026-04-04T16:01:21.935Z</time></trkpt><trkpt lat="45.157592703016746" lon="11.647125211500255"><ele>7.0</ele><time>2026-04-04T16:01:22.935Z</time></trkpt><trkpt lat="45.15747041456493" lon="11.647001872856722"><ele>6.666666666666667</ele><time>2026-04-04T16:01:23.935Z</time></trkpt><trkpt lat="45.15733211539745" lon="11.646899318882976"><ele>6.333333333333334</ele><time>2026-04-04T16:01:24.936Z</time></trkpt><trkpt lat="45.157189076369754" lon="11.646816524186576"><ele>6.0</ele><time>2026-04-04T16:01:25.937Z</time></trkpt><trkpt lat="45.157036803938716" lon="11.646742781146479"><ele>6.0</ele><time>2026-04-04T16:01:26.936Z</time></trkpt><trkpt lat="45.156883619544125" lon="11.64670144153966"><ele>6.0</ele><time>2026-04-04T16:01:27.936Z</time></trkpt><trkpt lat="45.15671850369811" lon="11.646668103590471"><ele>6.0</ele><time>2026-04-04T16:01:28.936Z</time></trkpt><trkpt lat="45.156558692633396" lon="11.646655529176323"><ele>5.75</ele><time>2026-04-04T16:01:29.936Z</time></trkpt><trkpt lat="45.15640933678969" lon="11.646655598425413"><ele>5.5</ele><time>2026-04-04T16:01:30.935Z</time></trkpt><trkpt lat="45.15626445238521" lon="11.646654516996533"><ele>5.25</ele><time>2026-04-04T16:01:31.936Z</time></trkpt><trkpt lat="45.1561242593798" lon="11.646655104797524"><ele>5.0</ele><time>2026-04-04T16:01:32.936Z</time></trkpt><trkpt lat="45.15598547346173" lon="11.646661276556358"><ele>5.0</ele><time>2026-04-04T16:01:33.936Z</time></trkpt><trkpt lat="45.155837241026646" lon="11.646671682484072"><ele>5.0</ele><time>2026-04-04T16:01:34.936Z</time></trkpt><trkpt lat="45.155685284727426" lon="11.64667262335861"><ele>5.0</ele><time>2026-04-04T16:01:35.936Z</time></trkpt><trkpt lat="45.15553007534954" lon="11.646671345439728"><ele>4.666666666666667</ele><time>2026-04-04T16:01:36.936Z</time></trkpt><trkpt lat="45.15535795991826" lon="11.646670823622237"><ele>4.333333333333333</ele><time>2026-04-04T16:01:37.936Z</time></trkpt><trkpt lat="45.15518840944974" lon="11.646662282187279"><ele>4.0</ele><time>2026-04-04T16:01:38.936Z</time></trkpt><trkpt lat="45.1550116705102" lon="11.646641020549106"><ele>4.666666666666666</ele><time>2026-04-04T16:01:39.936Z</time></trkpt><trkpt lat="45.15484949608483" lon="11.646612751050732"><ele>5.333333333333333</ele><time>2026-04-04T16:01:40.935Z</time></trkpt><trkpt lat="45.154697025075684" lon="11.646581656212954"><ele>6.0</ele><time>2026-04-04T16:01:41.935Z</time></trkpt><trkpt lat="45.15455568226055" lon="11.646521442174596"><ele>6.0</ele><time>2026-04-04T16:01:42.935Z</time></trkpt><trkpt lat="45.15442579361827" lon="11.64647953418113"><ele>6.0</ele><time>2026-04-04T16:01:43.935Z</time></trkpt><trkpt lat="45.15430263147891" lon="11.646439796536558"><ele>6.0</ele><time>2026-04-04T16:01:44.935Z</time></trkpt><trkpt lat="45.15417203506303" lon="11.64639663826027"><ele>6.0</ele><time>2026-04-04T16:01:45.935Z</time></trkpt><trkpt lat="45.15403209279464" lon="11.646348729701817"><ele>6.333333333333334</ele><time>2026-04-04T16:01:46.935Z</time></trkpt><trkpt lat="45.15388714412075" lon="11.64629920647657"><ele>6.666666666666667</ele><time>2026-04-04T16:01:47.935Z</time></trkpt><trkpt lat="45.15373919935204" lon="11.64625048849627"><ele>7.0</ele><time>2026-04-04T16:01:48.935Z</time></trkpt><trkpt lat="45.15359045142882" lon="11.646223410089133"><ele>7.0</ele><time>2026-04-04T16:01:49.935Z</time></trkpt><trkpt lat="45.153444683856684" lon="11.646175200457327"><ele>7.0</ele><time>2026-04-04T16:01:50.935Z</time></trkpt><trkpt lat="45.1532999627196" lon="11.646129398717498"><ele>7.0</ele><time>2026-04-04T16:01:51.935Z</time></trkpt><trkpt lat="45.15316486560941" lon="11.646061827361436"><ele>7.0</ele><time>2026-04-04T16:01:52.935Z</time></trkpt><trkpt lat="45.153033012556875" lon="11.646019054590994"><ele>7.25</ele><time>2026-04-04T16:01:53.935Z</time></trkpt><trkpt lat="45.15290403828071" lon="11.645977412439176"><ele>7.5</ele><time>2026-04-04T16:01:54.935Z</time></trkpt><trkpt lat="45.152765698120476" lon="11.645933327333912"><ele>7.75</ele><time>2026-04-04T16:01:55.935Z</time></trkpt><trkpt lat="45.15262170505399" lon="11.645887483687192"><ele>8.0</ele><time>2026-04-04T16:01:56.935Z</time></trkpt><trkpt lat="45.15247995698478" lon="11.645840828679155"><ele>8.0</ele><time>2026-04-04T16:01:57.935Z</time></trkpt><trkpt lat="45.152330838122786" lon="11.645814001312322"><ele>8.0</ele><time>2026-04-04T16:01:58.935Z</time></trkpt><trkpt lat="45.152193197710936" lon="11.6457274145493"><ele>8.0</ele><time>2026-04-04T16:01:59.935Z</time></trkpt><trkpt lat="45.152043059205845" lon="11.645674076766339"><ele>8.0</ele><time>2026-04-04T16:02:00.935Z</time></trkpt><trkpt lat="45.151891104648136" lon="11.645619004350381"><ele>8.0</ele><time>2026-04-04T16:02:01.935Z</time></trkpt><trkpt lat="45.15173957871197" lon="11.645564734472043"><ele>8.0</ele><time>2026-04-04T16:02:02.935Z</time></trkpt><trkpt lat="45.1515842040195" lon="11.64551431514935"><ele>8.0</ele><time>2026-04-04T16:02:03.935Z</time></trkpt><trkpt lat="45.15143186320583" lon="11.645467556047455"><ele>8.0</ele><time>2026-04-04T16:02:04.935Z</time></trkpt><trkpt lat="45.15127081807053" lon="11.645433264852443"><ele>8.0</ele><time>2026-04-04T16:02:05.935Z</time></trkpt><trkpt lat="45.15110677196837" lon="11.64540881341597"><ele>8.0</ele><time>2026-04-04T16:02:06.935Z</time></trkpt><trkpt lat="45.15094501520282" lon="11.645386907474698"><ele>8.0</ele><time>2026-04-04T16:02:07.934Z</time></trkpt><trkpt lat="45.1507853917901" lon="11.645362184234388"><ele>8.0</ele><time>2026-04-04T16:02:08.934Z</time></trkpt><trkpt lat="45.15062554758929" lon="11.645343414388122"><ele>7.666666666666666</ele><time>2026-04-04T16:02:09.934Z</time></trkpt><trkpt lat="45.15046966407518" lon="11.645318839805265"><ele>7.333333333333334</ele><time>2026-04-04T16:02:10.934Z</time></trkpt><trkpt lat="45.15030959344945" lon="11.645292355008461"><ele>7.0</ele><time>2026-04-04T16:02:11.934Z</time></trkpt><trkpt lat="45.15015568656832" lon="11.645280138266749"><ele>7.0</ele><time>2026-04-04T16:02:12.934Z</time></trkpt><trkpt lat="45.1500078474431" lon="11.645254943790373"><ele>7.0</ele><time>2026-04-04T16:02:13.934Z</time></trkpt><trkpt lat="45.14986344211498" lon="11.645238347038525"><ele>7.0</ele><time>2026-04-04T16:02:14.934Z</time></trkpt><trkpt lat="45.149731657187886" lon="11.645219279370387"><ele>7.0</ele><time>2026-04-04T16:02:15.934Z</time></trkpt><trkpt lat="45.14959040153889" lon="11.645200955694818"><ele>6.333333333333334</ele><time>2026-04-04T16:02:16.934Z</time></trkpt><trkpt lat="45.14944800617853" lon="11.645153295978844"><ele>5.666666666666667</ele><time>2026-04-04T16:02:17.934Z</time></trkpt><trkpt lat="45.149294172646925" lon="11.645126572982225"><ele>5.0</ele><time>2026-04-04T16:02:18.934Z</time></trkpt><trkpt lat="45.14913851498699" lon="11.645099930441148"><ele>5.333333333333334</ele><time>2026-04-04T16:02:19.934Z</time></trkpt><trkpt lat="45.14898473342445" lon="11.645074344222959"><ele>5.666666666666667</ele><time>2026-04-04T16:02:20.934Z</time></trkpt><trkpt lat="45.148832504220024" lon="11.645049016301822"><ele>6.0</ele><time>2026-04-04T16:02:21.934Z</time></trkpt><trkpt lat="45.14868338877931" lon="11.645024206450032"><ele>6.0</ele><time>2026-04-04T16:02:22.934Z</time></trkpt><trkpt lat="45.14853224004367" lon="11.64499905830819"><ele>6.0</ele><time>2026-04-04T16:02:23.934Z</time></trkpt><trkpt lat="45.14837596164077" lon="11.644973041044762"><ele>6.0</ele><time>2026-04-04T16:02:24.934Z</time></trkpt><trkpt lat="45.1482185556372" lon="11.644945792114898"><ele>6.0</ele><time>2026-04-04T16:02:25.934Z</time></trkpt><trkpt lat="45.14806917862465" lon="11.644919682268494"><ele>6.0</ele><time>2026-04-04T16:02:26.934Z</time></trkpt><trkpt lat="45.1479217242715" lon="11.64489317449376"><ele>6.0</ele><time>2026-04-04T16:02:27.934Z</time></trkpt><trkpt lat="45.14777185220942" lon="11.644866232103082"><ele>6.0</ele><time>2026-04-04T16:02:28.934Z</time></trkpt><trkpt lat="45.14763394580435" lon="11.644841285032728"><ele>6.0</ele><time>2026-04-04T16:02:29.934Z</time></trkpt><trkpt lat="45.147504353451765" lon="11.644817787033247"><ele>6.0</ele><time>2026-04-04T16:02:30.934Z</time></trkpt><trkpt lat="45.14738320173324" lon="11.644795819468895"><ele>6.0</ele><time>2026-04-04T16:02:31.934Z</time></trkpt><trkpt lat="45.14726279266575" lon="11.64477449460137"><ele>6.5</ele><time>2026-04-04T16:02:32.934Z</time></trkpt><trkpt lat="45.147133306602356" lon="11.644752345667507"><ele>7.0</ele><time>2026-04-04T16:02:33.934Z</time></trkpt><trkpt lat="45.146998072556876" lon="11.64473031324497"><ele>7.5</ele><time>2026-04-04T16:02:34.934Z</time></trkpt><trkpt lat="45.146855867687215" lon="11.64470819631989"><ele>8.0</ele><time>2026-04-04T16:02:35.934Z</time></trkpt><trkpt lat="45.14671164278257" lon="11.644685765220961"><ele>8.0</ele><time>2026-04-04T16:02:36.934Z</time></trkpt><trkpt lat="45.14656777941354" lon="11.644663390363707"><ele>8.0</ele><time>2026-04-04T16:02:37.934Z</time></trkpt><trkpt lat="45.146427619120495" lon="11.644641591440278"><ele>8.0</ele><time>2026-04-04T16:02:38.934Z</time></trkpt><trkpt lat="45.14628304019509" lon="11.644619105285216"><ele>8.0</ele><time>2026-04-04T16:02:39.934Z</time></trkpt><trkpt lat="45.1461374537578" lon="11.644619046507712"><ele>7.333333333333333</ele><time>2026-04-04T16:02:40.934Z</time></trkpt><trkpt lat="45.14598908328036" lon="11.644591966706134"><ele>6.666666666666666</ele><time>2026-04-04T16:02:41.934Z</time></trkpt><trkpt lat="45.14583415985321" lon="11.64454964245035"><ele>6.0</ele><time>2026-04-04T16:02:42.934Z</time></trkpt><trkpt lat="45.145680854868566" lon="11.64452596247987"><ele>6.0</ele><time>2026-04-04T16:02:43.934Z</time></trkpt><trkpt lat="45.14552925824763" lon="11.64450630817155"><ele>6.0</ele><time>2026-04-04T16:02:44.933Z</time></trkpt><trkpt lat="45.14538317260146" lon="11.644473680364275"><ele>6.0</ele><time>2026-04-04T16:02:45.933Z</time></trkpt><trkpt lat="45.14524240477089" lon="11.644434389959212"><ele>6.0</ele><time>2026-04-04T16:02:46.933Z</time></trkpt><trkpt lat="45.145107581403316" lon="11.644390099023715"><ele>6.0</ele><time>2026-04-04T16:02:47.933Z</time></trkpt><trkpt lat="45.144979321053306" lon="11.64433892704141"><ele>6.0</ele><time>2026-04-04T16:02:48.933Z</time></trkpt><trkpt lat="45.14485616295884" lon="11.644259067729433"><ele>6.0</ele><time>2026-04-04T16:02:49.933Z</time></trkpt><trkpt lat="45.14471754512206" lon="11.644209482988717"><ele>6.0</ele><time>2026-04-04T16:02:50.933Z</time></trkpt><trkpt lat="45.14458557818173" lon="11.644139984047431"><ele>5.75</ele><time>2026-04-04T16:02:51.933Z</time></trkpt><trkpt lat="45.14446002467301" lon="11.644069896731516"><ele>5.5</ele><time>2026-04-04T16:02:52.933Z</time></trkpt><trkpt lat="45.14433460005614" lon="11.644002989501175"><ele>5.25</ele><time>2026-04-04T16:02:53.933Z</time></trkpt><trkpt lat="45.144199582563935" lon="11.643935607327228"><ele>5.0</ele><time>2026-04-04T16:02:54.933Z</time></trkpt><trkpt lat="45.144071502003065" lon="11.643834078971105"><ele>5.0</ele><time>2026-04-04T16:02:55.933Z</time></trkpt><trkpt lat="45.14392793225748" lon="11.643757389217544"><ele>5.0</ele><time>2026-04-04T16:02:56.933Z</time></trkpt><trkpt lat="45.14377745522426" lon="11.643683177275257"><ele>5.0</ele><time>2026-04-04T16:02:57.933Z</time></trkpt><trkpt lat="45.14361908160108" lon="11.643603203367524"><ele>5.333333333333334</ele><time>2026-04-04T16:02:58.933Z</time></trkpt><trkpt lat="45.143460211892794" lon="11.6435228218737"><ele>5.666666666666667</ele><time>2026-04-04T16:02:59.933Z</time></trkpt><trkpt lat="45.143296998526544" lon="11.64344296105882"><ele>6.0</ele><time>2026-04-04T16:03:00.933Z</time></trkpt><trkpt lat="45.14313557365672" lon="11.643361732135022"><ele>6.0</ele><time>2026-04-04T16:03:01.933Z</time></trkpt><trkpt lat="45.142975221887376" lon="11.643281036960492"><ele>6.0</ele><time>2026-04-04T16:03:02.933Z</time></trkpt><trkpt lat="45.142823645812115" lon="11.643197136970711"><ele>6.0</ele><time>2026-04-04T16:03:03.933Z</time></trkpt><trkpt lat="45.142683464431684" lon="11.643126722508962"><ele>6.0</ele><time>2026-04-04T16:03:04.933Z</time></trkpt><trkpt lat="45.142545013799946" lon="11.643062368411025"><ele>6.0</ele><time>2026-04-04T16:03:05.933Z</time></trkpt><trkpt lat="45.14242108832446" lon="11.642998188008024"><ele>6.0</ele><time>2026-04-04T16:03:06.933Z</time></trkpt><trkpt lat="45.14230127177582" lon="11.642941225354077"><ele>6.0</ele><time>2026-04-04T16:03:07.933Z</time></trkpt><trkpt lat="45.14218336828185" lon="11.642889561680521"><ele>6.0</ele><time>2026-04-04T16:03:08.933Z</time></trkpt><trkpt lat="45.14207828118646" lon="11.642831984564506"><ele>6.0</ele><time>2026-04-04T16:03:09.933Z</time></trkpt><trkpt lat="45.14197915019772" lon="11.642774110534441"><ele>6.0</ele><time>2026-04-04T16:03:10.933Z</time></trkpt><trkpt lat="45.14190162926145" lon="11.642719348153046"><ele>6.0</ele><time>2026-04-04T16:03:11.933Z</time></trkpt><trkpt lat="45.141841659153854" lon="11.642673091197537"><ele>6.0</ele><time>2026-04-04T16:03:12.933Z</time></trkpt><trkpt lat="45.1417640952587" lon="11.642595903389866"><ele>5.8</ele><time>2026-04-04T16:03:14.933Z</time></trkpt><trkpt lat="45.141706888208645" lon="11.642538197649623"><ele>5.6</ele><time>2026-04-04T16:03:16.933Z</time></trkpt><trkpt lat="45.1416131289437" lon="11.642563423962034"><ele>5.4</ele><time>2026-04-04T16:03:19.933Z</time></trkpt><trkpt lat="45.1415257284054" lon="11.642639407902623"><ele>5.2</ele><time>2026-04-04T16:03:21.933Z</time></trkpt><trkpt lat="45.1414145624241" lon="11.642720246813813"><ele>5.0</ele><time>2026-04-04T16:03:23.932Z</time></trkpt><trkpt lat="45.141321500732175" lon="11.642765444438313"><ele>5.25</ele><time>2026-04-04T16:03:24.932Z</time></trkpt><trkpt lat="45.14122198467548" lon="11.642805539511967"><ele>5.5</ele><time>2026-04-04T16:03:25.932Z</time></trkpt><trkpt lat="45.1411065773672" lon="11.642843142205603"><ele>5.75</ele><time>2026-04-04T16:03:26.932Z</time></trkpt><trkpt lat="45.14098380055854" lon="11.64289634053932"><ele>6.0</ele><time>2026-04-04T16:03:27.932Z</time></trkpt><trkpt lat="45.14085899307515" lon="11.642978096109884"><ele>6.0</ele><time>2026-04-04T16:03:28.932Z</time></trkpt><trkpt lat="45.140738611968445" lon="11.643063385449825"><ele>6.0</ele><time>2026-04-04T16:03:29.932Z</time></trkpt><trkpt lat="45.140623664303874" lon="11.643157216157329"><ele>6.0</ele><time>2026-04-04T16:03:30.933Z</time></trkpt><trkpt lat="45.1405027268495" lon="11.64324772959367"><ele>6.0</ele><time>2026-04-04T16:03:31.934Z</time></trkpt><trkpt lat="45.14038141649243" lon="11.643334400491057"><ele>6.0</ele><time>2026-04-04T16:03:32.933Z</time></trkpt><trkpt lat="45.14025561762081" lon="11.643395806471682"><ele>6.0</ele><time>2026-04-04T16:03:33.933Z</time></trkpt><trkpt lat="45.14012579772049" lon="11.643425319564116"><ele>6.0</ele><time>2026-04-04T16:03:34.933Z</time></trkpt><trkpt lat="45.139987280341266" lon="11.64343889456136"><ele>6.0</ele><time>2026-04-04T16:03:35.933Z</time></trkpt><trkpt lat="45.13985251369834" lon="11.64344561188148"><ele>6.0</ele><time>2026-04-04T16:03:36.934Z</time></trkpt><trkpt lat="45.1397226595338" lon="11.643450631170037"><ele>6.0</ele><time>2026-04-04T16:03:37.933Z</time></trkpt><trkpt lat="45.139586058694874" lon="11.643473253799693"><ele>6.0</ele><time>2026-04-04T16:03:38.933Z</time></trkpt><trkpt lat="45.13944259081788" lon="11.64347854900479"><ele>6.0</ele><time>2026-04-04T16:03:39.933Z</time></trkpt><trkpt lat="45.13929377516961" lon="11.643506606303347"><ele>6.0</ele><time>2026-04-04T16:03:40.933Z</time></trkpt><trkpt lat="45.13913873449227" lon="11.643551886295747"><ele>6.0</ele><time>2026-04-04T16:03:41.933Z</time></trkpt><trkpt lat="45.138981161809575" lon="11.643620258660462"><ele>6.0</ele><time>2026-04-04T16:03:42.933Z</time></trkpt><trkpt lat="45.13882388860448" lon="11.643666980050252"><ele>5.75</ele><time>2026-04-04T16:03:43.933Z</time></trkpt><trkpt lat="45.138683992349684" lon="11.643724901896478"><ele>5.5</ele><time>2026-04-04T16:03:44.933Z</time></trkpt><trkpt lat="45.13856897964977" lon="11.643771314304075"><ele>5.25</ele><time>2026-04-04T16:03:45.933Z</time></trkpt><trkpt lat="45.13846024446292" lon="11.643807404865264"><ele>5.0</ele><time>2026-04-04T16:03:46.933Z</time></trkpt><trkpt lat="45.13833245553641" lon="11.643828299451854"><ele>4.666666666666667</ele><time>2026-04-04T16:03:47.933Z</time></trkpt><trkpt lat="45.13818892367697" lon="11.64384382550496"><ele>4.333333333333333</ele><time>2026-04-04T16:03:48.933Z</time></trkpt><trkpt lat="45.13802812404058" lon="11.643852653540732"><ele>4.0</ele><time>2026-04-04T16:03:49.933Z</time></trkpt><trkpt lat="45.13784941250861" lon="11.643859527529361"><ele>4.0</ele><time>2026-04-04T16:03:50.933Z</time></trkpt><trkpt lat="45.13767024089672" lon="11.643853327204871"><ele>4.0</ele><time>2026-04-04T16:03:51.933Z</time></trkpt><trkpt lat="45.13748700044107" lon="11.6438222858019"><ele>4.0</ele><time>2026-04-04T16:03:52.933Z</time></trkpt><trkpt lat="45.137302384072015" lon="11.643816475901868"><ele>3.6666666666666665</ele><time>2026-04-04T16:03:53.933Z</time></trkpt><trkpt lat="45.13711424969623" lon="11.643811442194957"><ele>3.333333333333333</ele><time>2026-04-04T16:03:54.933Z</time></trkpt><trkpt lat="45.136917160398006" lon="11.643835621472554"><ele>3.0</ele><time>2026-04-04T16:03:55.933Z</time></trkpt><trkpt lat="45.136720938909775" lon="11.643885682461459"><ele>3.333333333333333</ele><time>2026-04-04T16:03:56.933Z</time></trkpt><trkpt lat="45.13653100696967" lon="11.64397292547863"><ele>3.6666666666666665</ele><time>2026-04-04T16:03:57.933Z</time></trkpt><trkpt lat="45.136347581706765" lon="11.644086995825406"><ele>4.0</ele><time>2026-04-04T16:03:58.933Z</time></trkpt><trkpt lat="45.13618193246246" lon="11.644260474753128"><ele>4.0</ele><time>2026-04-04T16:03:59.933Z</time></trkpt><trkpt lat="45.13601297675634" lon="11.644435124379127"><ele>4.0</ele><time>2026-04-04T16:04:00.932Z</time></trkpt><trkpt lat="45.13585838084776" lon="11.644645841894105"><ele>4.0</ele><time>2026-04-04T16:04:01.932Z</time></trkpt><trkpt lat="45.135715330209734" lon="11.64488243811148"><ele>4.333333333333333</ele><time>2026-04-04T16:04:02.932Z</time></trkpt><trkpt lat="45.1355813311076" lon="11.64512481478598"><ele>4.666666666666667</ele><time>2026-04-04T16:04:03.932Z</time></trkpt><trkpt lat="45.13543065434644" lon="11.645352688907302"><ele>5.0</ele><time>2026-04-04T16:04:04.932Z</time></trkpt><trkpt lat="45.13529315795393" lon="11.645597086385816"><ele>5.0</ele><time>2026-04-04T16:04:05.932Z</time></trkpt><trkpt lat="45.13516786513309" lon="11.64585044469889"><ele>5.0</ele><time>2026-04-04T16:04:06.932Z</time></trkpt><trkpt lat="45.13503817565204" lon="11.64608751625941"><ele>5.0</ele><time>2026-04-04T16:04:07.932Z</time></trkpt><trkpt lat="45.13492994400342" lon="11.646330191487277"><ele>5.333333333333334</ele><time>2026-04-04T16:04:08.932Z</time></trkpt><trkpt lat="45.13485286277182" lon="11.646586676176467"><ele>5.666666666666667</ele><time>2026-04-04T16:04:09.932Z</time></trkpt><trkpt lat="45.134807287531245" lon="11.646852137622282"><ele>6.0</ele><time>2026-04-04T16:04:10.932Z</time></trkpt><trkpt lat="45.134747971890256" lon="11.647116765864816"><ele>6.0</ele><time>2026-04-04T16:04:11.932Z</time></trkpt><trkpt lat="45.134706601554406" lon="11.647363501212986"><ele>6.0</ele><time>2026-04-04T16:04:12.932Z</time></trkpt><trkpt lat="45.134664098230786" lon="11.647582802913147"><ele>6.0</ele><time>2026-04-04T16:04:13.932Z</time></trkpt><trkpt lat="45.13461277348731" lon="11.647782104033416"><ele>5.666666666666667</ele><time>2026-04-04T16:04:14.932Z</time></trkpt><trkpt lat="45.13454220261815" lon="11.647961747805818"><ele>5.333333333333334</ele><time>2026-04-04T16:04:15.932Z</time></trkpt><trkpt lat="45.134447532862445" lon="11.648130828732965"><ele>5.0</ele><time>2026-04-04T16:04:16.932Z</time></trkpt><trkpt lat="45.134338731524316" lon="11.648306947621668"><ele>5.0</ele><time>2026-04-04T16:04:17.932Z</time></trkpt><trkpt lat="45.13423617037795" lon="11.648465590721921"><ele>5.0</ele><time>2026-04-04T16:04:18.932Z</time></trkpt><trkpt lat="45.13414311857369" lon="11.648618989235455"><ele>5.0</ele><time>2026-04-04T16:04:19.932Z</time></trkpt><trkpt lat="45.1340795601661" lon="11.64878119828698"><ele>5.0</ele><time>2026-04-04T16:04:20.932Z</time></trkpt><trkpt lat="45.13400858394888" lon="11.648935170600504"><ele>5.0</ele><time>2026-04-04T16:04:21.932Z</time></trkpt><trkpt lat="45.13393808409861" lon="11.649099160920501"><ele>5.0</ele><time>2026-04-04T16:04:22.932Z</time></trkpt><trkpt lat="45.133866048068356" lon="11.649261087538356"><ele>5.0</ele><time>2026-04-04T16:04:23.932Z</time></trkpt><trkpt lat="45.133799263793335" lon="11.64938916511265"><ele>5.0</ele><time>2026-04-04T16:04:24.932Z</time></trkpt><trkpt lat="45.13373189574746" lon="11.649491962855752"><ele>5.25</ele><time>2026-04-04T16:04:25.932Z</time></trkpt><trkpt lat="45.13364429512359" lon="11.649574456314054"><ele>5.5</ele><time>2026-04-04T16:04:26.932Z</time></trkpt><trkpt lat="45.1335337030354" lon="11.649605580614306"><ele>5.75</ele><time>2026-04-04T16:04:27.932Z</time></trkpt><trkpt lat="45.13341736054019" lon="11.649619825342917"><ele>6.0</ele><time>2026-04-04T16:04:28.932Z</time></trkpt><trkpt lat="45.13330303543457" lon="11.649599589573626"><ele>5.75</ele><time>2026-04-04T16:04:29.932Z</time></trkpt><trkpt lat="45.133187654807514" lon="11.649569171642787"><ele>5.5</ele><time>2026-04-04T16:04:30.932Z</time></trkpt><trkpt lat="45.1330823623848" lon="11.649540666679894"><ele>5.25</ele><time>2026-04-04T16:04:31.932Z</time></trkpt><trkpt lat="45.13297586776936" lon="11.64951122909403"><ele>5.0</ele><time>2026-04-04T16:04:32.932Z</time></trkpt><trkpt lat="45.132857682648186" lon="11.649479119388818"><ele>5.333333333333334</ele><time>2026-04-04T16:04:33.932Z</time></trkpt><trkpt lat="45.132718076615" lon="11.649440608553183"><ele>5.666666666666667</ele><time>2026-04-04T16:04:34.932Z</time></trkpt><trkpt lat="45.13256098182139" lon="11.649397273439881"><ele>6.0</ele><time>2026-04-04T16:04:35.932Z</time></trkpt><trkpt lat="45.1323893503552" lon="11.649350769059698"><ele>5.0</ele><time>2026-04-04T16:04:36.932Z</time></trkpt><trkpt lat="45.13221415835425" lon="11.649303552494217"><ele>4.0</ele><time>2026-04-04T16:04:37.932Z</time></trkpt><trkpt lat="45.13203141479979" lon="11.649254300721614"><ele>3.0</ele><time>2026-04-04T16:04:38.932Z</time></trkpt><trkpt lat="45.13183931803089" lon="11.649201319649398"><ele>3.0</ele><time>2026-04-04T16:04:39.931Z</time></trkpt><trkpt lat="45.131629683101295" lon="11.649143285249107"><ele>3.0</ele><time>2026-04-04T16:04:40.931Z</time></trkpt><trkpt lat="45.13140798695266" lon="11.649081911849123"><ele>3.0</ele><time>2026-04-04T16:04:41.931Z</time></trkpt><trkpt lat="45.13117321942389" lon="11.649016919892876"><ele>3.333333333333333</ele><time>2026-04-04T16:04:42.931Z</time></trkpt><trkpt lat="45.13095293768362" lon="11.64895837133193"><ele>3.6666666666666665</ele><time>2026-04-04T16:04:43.931Z</time></trkpt><trkpt lat="45.13075234872627" lon="11.648905533682584"><ele>4.0</ele><time>2026-04-04T16:04:44.931Z</time></trkpt><trkpt lat="45.130557610101576" lon="11.648854572527435"><ele>4.0</ele><time>2026-04-04T16:04:45.931Z</time></trkpt><trkpt lat="45.1303750537656" lon="11.648806799370078"><ele>4.0</ele><time>2026-04-04T16:04:46.931Z</time></trkpt><trkpt lat="45.1301998967098" lon="11.648757419362374"><ele>4.0</ele><time>2026-04-04T16:04:47.931Z</time></trkpt><trkpt lat="45.13002627303162" lon="11.648708487459835"><ele>4.0</ele><time>2026-04-04T16:04:48.931Z</time></trkpt><trkpt lat="45.12986394655662" lon="11.648662739393865"><ele>4.0</ele><time>2026-04-04T16:04:49.931Z</time></trkpt><trkpt lat="45.12969743880796" lon="11.64861581296084"><ele>4.0</ele><time>2026-04-04T16:04:50.931Z</time></trkpt><trkpt lat="45.12953460283087" lon="11.64856992130933"><ele>4.0</ele><time>2026-04-04T16:04:51.931Z</time></trkpt><trkpt lat="45.12937784087344" lon="11.648526328466557"><ele>4.0</ele><time>2026-04-04T16:04:52.931Z</time></trkpt><trkpt lat="45.12923242342647" lon="11.648491982750302"><ele>4.0</ele><time>2026-04-04T16:04:53.931Z</time></trkpt><trkpt lat="45.12909477141161" lon="11.648488682527473"><ele>4.0</ele><time>2026-04-04T16:04:54.931Z</time></trkpt><trkpt lat="45.128965883306094" lon="11.648474316330427"><ele>5.0</ele><time>2026-04-04T16:04:55.931Z</time></trkpt><trkpt lat="45.12884979778491" lon="11.648453613132617"><ele>6.0</ele><time>2026-04-04T16:04:56.931Z</time></trkpt><trkpt lat="45.12874641484379" lon="11.648429369138192"><ele>7.0</ele><time>2026-04-04T16:04:57.931Z</time></trkpt><trkpt lat="45.1286587238768" lon="11.648389261197785"><ele>8.0</ele><time>2026-04-04T16:04:58.931Z</time></trkpt><trkpt lat="45.12856546562884" lon="11.64832995710368"><ele>9.0</ele><time>2026-04-04T16:04:59.931Z</time></trkpt><trkpt lat="45.128473863682736" lon="11.648249337082751"><ele>9.0</ele><time>2026-04-04T16:05:00.931Z</time></trkpt><trkpt lat="45.128402284140016" lon="11.648127843226979"><ele>9.0</ele><time>2026-04-04T16:05:01.931Z</time></trkpt><trkpt lat="45.12833541159122" lon="11.647983966568376"><ele>9.0</ele><time>2026-04-04T16:05:02.931Z</time></trkpt><trkpt lat="45.128283922437724" lon="11.647816277783702"><ele>9.0</ele><time>2026-04-04T16:05:03.931Z</time></trkpt><trkpt lat="45.1282434302906" lon="11.647655021324859"><ele>8.5</ele><time>2026-04-04T16:05:04.931Z</time></trkpt><trkpt lat="45.12819368768948" lon="11.647499638413507"><ele>8.0</ele><time>2026-04-04T16:05:05.931Z</time></trkpt><trkpt lat="45.12814839672868" lon="11.647347323513975"><ele>7.5</ele><time>2026-04-04T16:05:06.931Z</time></trkpt><trkpt lat="45.128093967807395" lon="11.647191269383686"><ele>7.0</ele><time>2026-04-04T16:05:07.931Z</time></trkpt><trkpt lat="45.12803094241833" lon="11.647044440131026"><ele>7.0</ele><time>2026-04-04T16:05:08.931Z</time></trkpt><trkpt lat="45.12796270549724" lon="11.646933768554582"><ele>7.0</ele><time>2026-04-04T16:05:09.931Z</time></trkpt><trkpt lat="45.12787089105891" lon="11.646830605784201"><ele>7.0</ele><time>2026-04-04T16:05:10.931Z</time></trkpt><trkpt lat="45.127764878951766" lon="11.646746764199413"><ele>7.0</ele><time>2026-04-04T16:05:11.931Z</time></trkpt><trkpt lat="45.12764652486461" lon="11.6466788489454"><ele>7.0</ele><time>2026-04-04T16:05:12.931Z</time></trkpt><trkpt lat="45.12751894498895" lon="11.64665717295208"><ele>7.0</ele><time>2026-04-04T16:05:13.931Z</time></trkpt><trkpt lat="45.12738537463603" lon="11.646645077088415"><ele>7.0</ele><time>2026-04-04T16:05:14.931Z</time></trkpt><trkpt lat="45.127233426285606" lon="11.64663174192499"><ele>7.0</ele><time>2026-04-04T16:05:15.931Z</time></trkpt><trkpt lat="45.12708682564056" lon="11.646612711741982"><ele>6.75</ele><time>2026-04-04T16:05:16.931Z</time></trkpt><trkpt lat="45.12695227774029" lon="11.646573473532516"><ele>6.5</ele><time>2026-04-04T16:05:17.931Z</time></trkpt><trkpt lat="45.12683566699846" lon="11.64652997935766"><ele>6.25</ele><time>2026-04-04T16:05:18.93Z</time></trkpt><trkpt lat="45.12673644622772" lon="11.646482212252224"><ele>6.0</ele><time>2026-04-04T16:05:19.93Z</time></trkpt><trkpt lat="45.126643182076975" lon="11.646421812495865"><ele>6.199999999999999</ele><time>2026-04-04T16:05:20.93Z</time></trkpt><trkpt lat="45.12655907670519" lon="11.646374581990013"><ele>6.3999999999999995</ele><time>2026-04-04T16:05:21.93Z</time></trkpt><trkpt lat="45.12647117296408" lon="11.646339915292474"><ele>6.6</ele><time>2026-04-04T16:05:22.93Z</time></trkpt><trkpt lat="45.12639759646638" lon="11.646314318205137"><ele>6.8</ele><time>2026-04-04T16:05:23.93Z</time></trkpt><trkpt lat="45.12629621572505" lon="11.646302500591426"><ele>7.0</ele><time>2026-04-04T16:05:25.93Z</time></trkpt><trkpt lat="45.12618155212591" lon="11.646347643068466"><ele>7.0</ele><time>2026-04-04T16:05:27.93Z</time></trkpt><trkpt lat="45.1261034103454" lon="11.646261693010775"><ele>6.999999999999999</ele><time>2026-04-04T16:05:28.93Z</time></trkpt><trkpt lat="45.126004150810274" lon="11.646210707431807"><ele>6.999999999999999</ele><time>2026-04-04T16:05:30.93Z</time></trkpt><trkpt lat="45.12589983096026" lon="11.646233457134985"><ele>7.0</ele><time>2026-04-04T16:05:32.93Z</time></trkpt><trkpt lat="45.125823234287516" lon="11.646278024570076"><ele>7.0</ele><time>2026-04-04T16:05:33.93Z</time></trkpt><trkpt lat="45.12572208369192" lon="11.646339315194906"><ele>7.0</ele><time>2026-04-04T16:05:34.93Z</time></trkpt><trkpt lat="45.12562005010745" lon="11.64639902073409"><ele>7.0</ele><time>2026-04-04T16:05:35.93Z</time></trkpt><trkpt lat="45.12550249243515" lon="11.64644704374284"><ele>7.0</ele><time>2026-04-04T16:05:36.932Z</time></trkpt><trkpt lat="45.12538415346068" lon="11.646515052843792"><ele>7.0</ele><time>2026-04-04T16:05:37.932Z</time></trkpt><trkpt lat="45.12526017382499" lon="11.646611837013193"><ele>7.0</ele><time>2026-04-04T16:05:38.932Z</time></trkpt><trkpt lat="45.12512776704768" lon="11.64667272168256"><ele>7.0</ele><time>2026-04-04T16:05:39.932Z</time></trkpt><trkpt lat="45.125000069879164" lon="11.646737474590006"><ele>7.0</ele><time>2026-04-04T16:05:40.932Z</time></trkpt><trkpt lat="45.124858081887886" lon="11.646801048324152"><ele>7.0</ele><time>2026-04-04T16:05:41.932Z</time></trkpt><trkpt lat="45.12470741264717" lon="11.646857972393706"><ele>6.666666666666667</ele><time>2026-04-04T16:05:42.931Z</time></trkpt><trkpt lat="45.12454394127662" lon="11.64692640634451"><ele>6.333333333333334</ele><time>2026-04-04T16:05:43.932Z</time></trkpt><trkpt lat="45.12438350853702" lon="11.646988445440067"><ele>6.0</ele><time>2026-04-04T16:05:44.932Z</time></trkpt><trkpt lat="45.124226577702835" lon="11.647040401236287"><ele>6.0</ele><time>2026-04-04T16:05:45.931Z</time></trkpt><trkpt lat="45.12406742979437" lon="11.647092141170619"><ele>6.0</ele><time>2026-04-04T16:05:46.931Z</time></trkpt><trkpt lat="45.123908843787866" lon="11.647142376332722"><ele>6.0</ele><time>2026-04-04T16:05:47.931Z</time></trkpt><trkpt lat="45.12375991646956" lon="11.647183452715721"><ele>6.0</ele><time>2026-04-04T16:05:48.931Z</time></trkpt><trkpt lat="45.1236129469326" lon="11.647223565911434"><ele>6.0</ele><time>2026-04-04T16:05:49.931Z</time></trkpt><trkpt lat="45.12346691939677" lon="11.647263073581625"><ele>6.0</ele><time>2026-04-04T16:05:50.931Z</time></trkpt><trkpt lat="45.12331313032295" lon="11.647303400567328"><ele>6.25</ele><time>2026-04-04T16:05:51.931Z</time></trkpt><trkpt lat="45.12317221450828" lon="11.647336269347347"><ele>6.5</ele><time>2026-04-04T16:05:52.931Z</time></trkpt><trkpt lat="45.123032715819626" lon="11.64736575500168"><ele>6.75</ele><time>2026-04-04T16:05:53.931Z</time></trkpt><trkpt lat="45.12290365720413" lon="11.64739460655755"><ele>7.0</ele><time>2026-04-04T16:05:54.931Z</time></trkpt><trkpt lat="45.122764023338576" lon="11.647432809170615"><ele>7.0</ele><time>2026-04-04T16:05:55.931Z</time></trkpt><trkpt lat="45.122615686504446" lon="11.64747619437398"><ele>7.0</ele><time>2026-04-04T16:05:56.931Z</time></trkpt><trkpt lat="45.12244548399574" lon="11.64752420573533"><ele>7.0</ele><time>2026-04-04T16:05:57.931Z</time></trkpt><trkpt lat="45.12226754003649" lon="11.647589828154006"><ele>6.666666666666667</ele><time>2026-04-04T16:05:58.93Z</time></trkpt><trkpt lat="45.122079699939704" lon="11.64767725431297"><ele>6.333333333333334</ele><time>2026-04-04T16:05:59.93Z</time></trkpt><trkpt lat="45.12187949316382" lon="11.647785690051524"><ele>6.0</ele><time>2026-04-04T16:06:00.93Z</time></trkpt><trkpt lat="45.12167894327879" lon="11.64791197293011"><ele>6.0</ele><time>2026-04-04T16:06:01.93Z</time></trkpt><trkpt lat="45.12148795758663" lon="11.648038710978607"><ele>6.0</ele><time>2026-04-04T16:06:02.93Z</time></trkpt><trkpt lat="45.12132405203285" lon="11.648143742940375"><ele>6.0</ele><time>2026-04-04T16:06:03.93Z</time></trkpt><trkpt lat="45.12117832776132" lon="11.648227371359518"><ele>6.0</ele><time>2026-04-04T16:06:04.93Z</time></trkpt><trkpt lat="45.121034740297134" lon="11.648288151569307"><ele>6.0</ele><time>2026-04-04T16:06:05.93Z</time></trkpt><trkpt lat="45.12086883126211" lon="11.648318397262878"><ele>6.0</ele><time>2026-04-04T16:06:06.93Z</time></trkpt><trkpt lat="45.12070309528951" lon="11.648357271134866"><ele>5.666666666666667</ele><time>2026-04-04T16:06:07.93Z</time></trkpt><trkpt lat="45.1205368976285" lon="11.648394244777437"><ele>5.333333333333334</ele><time>2026-04-04T16:06:08.93Z</time></trkpt><trkpt lat="45.120380052274236" lon="11.648449281466169"><ele>5.0</ele><time>2026-04-04T16:06:09.93Z</time></trkpt><trkpt lat="45.12022455901636" lon="11.648561638547815"><ele>5.333333333333334</ele><time>2026-04-04T16:06:10.93Z</time></trkpt><trkpt lat="45.120074628931725" lon="11.648703358765717"><ele>5.666666666666667</ele><time>2026-04-04T16:06:11.93Z</time></trkpt><trkpt lat="45.11992491470304" lon="11.648851792440812"><ele>6.0</ele><time>2026-04-04T16:06:12.93Z</time></trkpt><trkpt lat="45.119782862619516" lon="11.648992662980051"><ele>6.0</ele><time>2026-04-04T16:06:13.93Z</time></trkpt><trkpt lat="45.11965838064496" lon="11.64911910504228"><ele>6.0</ele><time>2026-04-04T16:06:14.93Z</time></trkpt><trkpt lat="45.11954248842366" lon="11.64925919454873"><ele>6.0</ele><time>2026-04-04T16:06:15.93Z</time></trkpt><trkpt lat="45.11943595198841" lon="11.649435656161344"><ele>6.0</ele><time>2026-04-04T16:06:16.93Z</time></trkpt><trkpt lat="45.119370680635214" lon="11.649648107537166"><ele>6.0</ele><time>2026-04-04T16:06:17.93Z</time></trkpt><trkpt lat="45.11928434043349" lon="11.649847262845592"><ele>6.0</ele><time>2026-04-04T16:06:18.93Z</time></trkpt><trkpt lat="45.11920218235269" lon="11.65005068008633"><ele>6.0</ele><time>2026-04-04T16:06:19.93Z</time></trkpt><trkpt lat="45.11913733176162" lon="11.650265094595557"><ele>6.0</ele><time>2026-04-04T16:06:20.93Z</time></trkpt><trkpt lat="45.119092727250596" lon="11.650499814547468"><ele>6.0</ele><time>2026-04-04T16:06:21.93Z</time></trkpt><trkpt lat="45.11905646629932" lon="11.650744805672907"><ele>6.666666666666666</ele><time>2026-04-04T16:06:22.93Z</time></trkpt><trkpt lat="45.11899418557993" lon="11.651016139602996"><ele>7.333333333333333</ele><time>2026-04-04T16:06:23.93Z</time></trkpt><trkpt lat="45.11893864251485" lon="11.651303293207734"><ele>8.0</ele><time>2026-04-04T16:06:24.93Z</time></trkpt><trkpt lat="45.118891380474246" lon="11.651577581514921"><ele>8.0</ele><time>2026-04-04T16:06:25.93Z</time></trkpt><trkpt lat="45.118832234460896" lon="11.651837564182879"><ele>8.0</ele><time>2026-04-04T16:06:26.93Z</time></trkpt><trkpt lat="45.118780387671684" lon="11.652049579684558"><ele>8.0</ele><time>2026-04-04T16:06:27.93Z</time></trkpt><trkpt lat="45.11872843654117" lon="11.652238276299933"><ele>7.5</ele><time>2026-04-04T16:06:28.93Z</time></trkpt><trkpt lat="45.11865072470062" lon="11.652400056634589"><ele>7.0</ele><time>2026-04-04T16:06:29.93Z</time></trkpt><trkpt lat="45.11857485864453" lon="11.652546271764459"><ele>6.5</ele><time>2026-04-04T16:06:30.93Z</time></trkpt><trkpt lat="45.11847397917747" lon="11.652660419049663"><ele>6.0</ele><time>2026-04-04T16:06:31.93Z</time></trkpt><trkpt lat="45.11835237751104" lon="11.652732835074664"><ele>6.25</ele><time>2026-04-04T16:06:32.93Z</time></trkpt><trkpt lat="45.11822283819934" lon="11.652756189279751"><ele>6.5</ele><time>2026-04-04T16:06:33.93Z</time></trkpt><trkpt lat="45.11807885405334" lon="11.652761825776414"><ele>6.75</ele><time>2026-04-04T16:06:34.93Z</time></trkpt><trkpt lat="45.117928360450954" lon="11.652754941438337"><ele>7.0</ele><time>2026-04-04T16:06:35.93Z</time></trkpt><trkpt lat="45.117769167602454" lon="11.652746612535754"><ele>7.0</ele><time>2026-04-04T16:06:36.93Z</time></trkpt><trkpt lat="45.11762183377619" lon="11.652746938958014"><ele>7.0</ele><time>2026-04-04T16:06:37.929Z</time></trkpt><trkpt lat="45.11749035018151" lon="11.65275327043954"><ele>7.0</ele><time>2026-04-04T16:06:38.929Z</time></trkpt><trkpt lat="45.117372896105515" lon="11.652759300112082"><ele>7.0</ele><time>2026-04-04T16:06:39.929Z</time></trkpt><trkpt lat="45.11726965770956" lon="11.652759387306945"><ele>7.0</ele><time>2026-04-04T16:06:40.929Z</time></trkpt><trkpt lat="45.11717564293662" lon="11.652749870670057"><ele>6.999999999999999</ele><time>2026-04-04T16:06:41.929Z</time></trkpt><trkpt lat="45.117088500406666" lon="11.65273100780203"><ele>6.999999999999999</ele><time>2026-04-04T16:06:42.929Z</time></trkpt><trkpt lat="45.11699608013184" lon="11.652695845751577"><ele>7.0</ele><time>2026-04-04T16:06:43.929Z</time></trkpt><trkpt lat="45.11688564702323" lon="11.652639253581967"><ele>7.0</ele><time>2026-04-04T16:06:44.929Z</time></trkpt><trkpt lat="45.11676158402388" lon="11.652548352555272"><ele>7.0</ele><time>2026-04-04T16:06:45.929Z</time></trkpt><trkpt lat="45.116629012754345" lon="11.65243972559089"><ele>7.0</ele><time>2026-04-04T16:06:46.929Z</time></trkpt><trkpt lat="45.116495587566305" lon="11.652335504025688"><ele>7.0</ele><time>2026-04-04T16:06:47.929Z</time></trkpt><trkpt lat="45.116353895947434" lon="11.652237543512536"><ele>7.0</ele><time>2026-04-04T16:06:48.929Z</time></trkpt><trkpt lat="45.116206825754546" lon="11.652141172434481"><ele>7.0</ele><time>2026-04-04T16:06:49.929Z</time></trkpt><trkpt lat="45.116051036777634" lon="11.652039003065402"><ele>7.0</ele><time>2026-04-04T16:06:50.929Z</time></trkpt><trkpt lat="45.11588737360942" lon="11.651931669664034"><ele>6.666666666666667</ele><time>2026-04-04T16:06:51.929Z</time></trkpt><trkpt lat="45.11571626266408" lon="11.651821282948811"><ele>6.333333333333334</ele><time>2026-04-04T16:06:52.929Z</time></trkpt><trkpt lat="45.11554007052595" lon="11.651716748801618"><ele>6.0</ele><time>2026-04-04T16:06:53.929Z</time></trkpt><trkpt lat="45.1153744290766" lon="11.651623247331818"><ele>6.0</ele><time>2026-04-04T16:06:54.929Z</time></trkpt><trkpt lat="45.11521987614965" lon="11.651536005206275"><ele>6.0</ele><time>2026-04-04T16:06:55.929Z</time></trkpt><trkpt lat="45.11507452268039" lon="11.651453955934084"><ele>6.0</ele><time>2026-04-04T16:06:56.929Z</time></trkpt><trkpt lat="45.114943902803994" lon="11.651376030407537"><ele>5.75</ele><time>2026-04-04T16:06:57.929Z</time></trkpt><trkpt lat="45.114822997231165" lon="11.65129910522087"><ele>5.5</ele><time>2026-04-04T16:06:58.929Z</time></trkpt><trkpt lat="45.11471139066138" lon="11.651225965210934"><ele>5.25</ele><time>2026-04-04T16:06:59.929Z</time></trkpt><trkpt lat="45.11461405744821" lon="11.651164754048052"><ele>5.0</ele><time>2026-04-04T16:07:00.929Z</time></trkpt><trkpt lat="45.114529802290626" lon="11.651119170338664"><ele>5.0</ele><time>2026-04-04T16:07:01.929Z</time></trkpt><trkpt lat="45.1144456283201" lon="11.65110639364327"><ele>5.0</ele><time>2026-04-04T16:07:02.929Z</time></trkpt><trkpt lat="45.11435772299002" lon="11.651146503206379"><ele>5.0</ele><time>2026-04-04T16:07:03.929Z</time></trkpt><trkpt lat="45.114297890114905" lon="11.651293965249803"><ele>5.0</ele><time>2026-04-04T16:07:04.929Z</time></trkpt><trkpt lat="45.11426684067444" lon="11.651471123182969"><ele>5.0</ele><time>2026-04-04T16:07:05.929Z</time></trkpt><trkpt lat="45.11420585814138" lon="11.651675736577435"><ele>5.0</ele><time>2026-04-04T16:07:06.929Z</time></trkpt><trkpt lat="45.114136258390396" lon="11.65191673153873"><ele>5.0</ele><time>2026-04-04T16:07:07.929Z</time></trkpt><trkpt lat="45.11404993184271" lon="11.652170605874938"><ele>5.0</ele><time>2026-04-04T16:07:08.929Z</time></trkpt><trkpt lat="45.113968263830074" lon="11.652453705235057"><ele>5.0</ele><time>2026-04-04T16:07:09.929Z</time></trkpt><trkpt lat="45.11388381388514" lon="11.65274657103098"><ele>5.0</ele><time>2026-04-04T16:07:10.929Z</time></trkpt><trkpt lat="45.113796398668896" lon="11.653049720128434"><ele>4.666666666666667</ele><time>2026-04-04T16:07:11.929Z</time></trkpt><trkpt lat="45.11371060308518" lon="11.653351387806222"><ele>4.333333333333333</ele><time>2026-04-04T16:07:12.929Z</time></trkpt><trkpt lat="45.113634438546455" lon="11.65362463833565"><ele>4.0</ele><time>2026-04-04T16:07:13.929Z</time></trkpt><trkpt lat="45.11357808441619" lon="11.653880255058288"><ele>4.0</ele><time>2026-04-04T16:07:14.929Z</time></trkpt><trkpt lat="45.113492111483666" lon="11.654094353210379"><ele>4.0</ele><time>2026-04-04T16:07:15.928Z</time></trkpt><trkpt lat="45.11342991774615" lon="11.654286950047666"><ele>4.0</ele><time>2026-04-04T16:07:16.928Z</time></trkpt><trkpt lat="45.11338312480095" lon="11.654453442049553"><ele>3.9999999999999996</ele><time>2026-04-04T16:07:17.928Z</time></trkpt><trkpt lat="45.11334107992888" lon="11.654601684235569"><ele>4.0</ele><time>2026-04-04T16:07:18.928Z</time></trkpt><trkpt lat="45.11331413261819" lon="11.654724437049937"><ele>4.0</ele><time>2026-04-04T16:07:19.928Z</time></trkpt><trkpt lat="45.113303251213416" lon="11.65481693537415"><ele>4.0</ele><time>2026-04-04T16:07:20.928Z</time></trkpt><trkpt lat="45.11326664506986" lon="11.654931042153722"><ele>3.9999999999999996</ele><time>2026-04-04T16:07:22.928Z</time></trkpt><trkpt lat="45.11319106843479" lon="11.654908219070379"><ele>4.0</ele><time>2026-04-04T16:07:24.928Z</time></trkpt><trkpt lat="45.113076890085644" lon="11.654872891962766"><ele>4.0</ele><time>2026-04-04T16:07:25.928Z</time></trkpt><trkpt lat="45.112938165701586" lon="11.6548294087653"><ele>4.0</ele><time>2026-04-04T16:07:26.928Z</time></trkpt><trkpt lat="45.112788799506035" lon="11.654783672981903"><ele>4.0</ele><time>2026-04-04T16:07:27.928Z</time></trkpt><trkpt lat="45.1126263900861" lon="11.65475644666746"><ele>4.0</ele><time>2026-04-04T16:07:28.928Z</time></trkpt><trkpt lat="45.11248293977707" lon="11.654697709032666"><ele>4.0</ele><time>2026-04-04T16:07:29.928Z</time></trkpt><trkpt lat="45.11236029224998" lon="11.654653831461948"><ele>4.0</ele><time>2026-04-04T16:07:30.928Z</time></trkpt><trkpt lat="45.11224139985754" lon="11.654621309309835"><ele>4.0</ele><time>2026-04-04T16:07:31.928Z</time></trkpt><trkpt lat="45.11213179694876" lon="11.65459223360123"><ele>3.8000000000000003</ele><time>2026-04-04T16:07:32.928Z</time></trkpt><trkpt lat="45.11202400575631" lon="11.65456020140524"><ele>3.6000000000000005</ele><time>2026-04-04T16:07:33.928Z</time></trkpt><trkpt lat="45.11192151080027" lon="11.654529343307626"><ele>3.4</ele><time>2026-04-04T16:07:34.928Z</time></trkpt><trkpt lat="45.11181967294375" lon="11.654505835106484"><ele>3.2</ele><time>2026-04-04T16:07:35.928Z</time></trkpt><trkpt lat="45.11172378796212" lon="11.654480788512876"><ele>3.0</ele><time>2026-04-04T16:07:36.928Z</time></trkpt><trkpt lat="45.111628936245324" lon="11.654429005219903"><ele>3.0</ele><time>2026-04-04T16:07:37.928Z</time></trkpt><trkpt lat="45.11154251328006" lon="11.654404289706308"><ele>3.0</ele><time>2026-04-04T16:07:38.928Z</time></trkpt><trkpt lat="45.11146596790428" lon="11.654386094798928"><ele>3.0</ele><time>2026-04-04T16:07:39.928Z</time></trkpt><trkpt lat="45.11137963776671" lon="11.654363101215864"><ele>3.0</ele><time>2026-04-04T16:07:40.928Z</time></trkpt><trkpt lat="45.111278617837776" lon="11.654328413221608"><ele>3.0</ele><time>2026-04-04T16:07:41.928Z</time></trkpt><trkpt lat="45.111165490589606" lon="11.654290009158391"><ele>3.0</ele><time>2026-04-04T16:07:42.929Z</time></trkpt><trkpt lat="45.1110291563657" lon="11.654242209714916"><ele>3.0</ele><time>2026-04-04T16:07:43.929Z</time></trkpt><trkpt lat="45.110878758460025" lon="11.654191939875822"><ele>3.0</ele><time>2026-04-04T16:07:44.929Z</time></trkpt><trkpt lat="45.110722190879" lon="11.654147557796781"><ele>3.25</ele><time>2026-04-04T16:07:45.93Z</time></trkpt><trkpt lat="45.11058364237352" lon="11.654114316740163"><ele>3.5</ele><time>2026-04-04T16:07:46.93Z</time></trkpt><trkpt lat="45.11045760688786" lon="11.654084734776795"><ele>3.75</ele><time>2026-04-04T16:07:47.93Z</time></trkpt><trkpt lat="45.11033602338148" lon="11.654058116212571"><ele>4.0</ele><time>2026-04-04T16:07:48.929Z</time></trkpt><trkpt lat="45.11022455975" lon="11.654040448576241"><ele>3.9999999999999996</ele><time>2026-04-04T16:07:49.929Z</time></trkpt><trkpt lat="45.11012849512396" lon="11.653993384784629"><ele>4.0</ele><time>2026-04-04T16:07:50.929Z</time></trkpt><trkpt lat="45.11004367633187" lon="11.653979862930491"><ele>4.0</ele><time>2026-04-04T16:07:51.929Z</time></trkpt><trkpt lat="45.10998584466889" lon="11.653909117961113"><ele>4.0</ele><time>2026-04-04T16:07:52.929Z</time></trkpt><trkpt lat="45.10994593988993" lon="11.653811042453874"><ele>3.9999999999999996</ele><time>2026-04-04T16:07:53.929Z</time></trkpt><trkpt lat="45.109932020739144" lon="11.653686074778557"><ele>4.0</ele><time>2026-04-04T16:07:54.93Z</time></trkpt><trkpt lat="45.10993118366226" lon="11.653529589560536"><ele>4.166666666666666</ele><time>2026-04-04T16:07:55.929Z</time></trkpt><trkpt lat="45.1099136943172" lon="11.653393898554686"><ele>4.333333333333333</ele><time>2026-04-04T16:07:56.929Z</time></trkpt><trkpt lat="45.10988974642369" lon="11.653271036372605"><ele>4.5</ele><time>2026-04-04T16:07:57.929Z</time></trkpt><trkpt lat="45.10985794134232" lon="11.65317234262671"><ele>4.666666666666667</ele><time>2026-04-04T16:07:58.929Z</time></trkpt><trkpt lat="45.10980814551504" lon="11.653096475984176"><ele>4.833333333333334</ele><time>2026-04-04T16:07:59.929Z</time></trkpt><trkpt lat="45.10974322703839" lon="11.653017745515454"><ele>5.0</ele><time>2026-04-04T16:08:00.929Z</time></trkpt><trkpt lat="45.10965940201783" lon="11.65291674543678"><ele>5.25</ele><time>2026-04-04T16:08:01.929Z</time></trkpt><trkpt lat="45.10956825068329" lon="11.6528136429723"><ele>5.5</ele><time>2026-04-04T16:08:02.929Z</time></trkpt><trkpt lat="45.10946623610471" lon="11.6526871154318"><ele>5.75</ele><time>2026-04-04T16:08:03.929Z</time></trkpt><trkpt lat="45.10936851617245" lon="11.652586261118161"><ele>6.0</ele><time>2026-04-04T16:08:04.929Z</time></trkpt><trkpt lat="45.10928616821616" lon="11.652511101300403"><ele>6.4</ele><time>2026-04-04T16:08:05.929Z</time></trkpt><trkpt lat="45.10921069979021" lon="11.652450745148043"><ele>6.8</ele><time>2026-04-04T16:08:06.928Z</time></trkpt><trkpt lat="45.10913265119835" lon="11.652441195783148"><ele>7.200000000000001</ele><time>2026-04-04T16:08:07.928Z</time></trkpt><trkpt lat="45.10906146147801" lon="11.652562493862597"><ele>7.6000000000000005</ele><time>2026-04-04T16:08:08.928Z</time></trkpt><trkpt lat="45.108988015342085" lon="11.652682614836355"><ele>8.0</ele><time>2026-04-04T16:08:09.928Z</time></trkpt><trkpt lat="45.108905537181016" lon="11.652787580884755"><ele>8.25</ele><time>2026-04-04T16:08:10.928Z</time></trkpt><trkpt lat="45.10880064107794" lon="11.652880259525801"><ele>8.5</ele><time>2026-04-04T16:08:11.928Z</time></trkpt><trkpt lat="45.10867186281914" lon="11.652974146799096"><ele>8.75</ele><time>2026-04-04T16:08:12.928Z</time></trkpt><trkpt lat="45.108543126061846" lon="11.653098713930833"><ele>9.0</ele><time>2026-04-04T16:08:13.928Z</time></trkpt><trkpt lat="45.10839997457393" lon="11.653201597582706"><ele>9.0</ele><time>2026-04-04T16:08:14.928Z</time></trkpt><trkpt lat="45.10829739844745" lon="11.653311431909021"><ele>9.0</ele><time>2026-04-04T16:08:15.928Z</time></trkpt><trkpt lat="45.10821705799861" lon="11.653395252977942"><ele>9.0</ele><time>2026-04-04T16:08:16.928Z</time></trkpt><trkpt lat="45.10816268342141" lon="11.653448971797403"><ele>9.0</ele><time>2026-04-04T16:08:17.928Z</time></trkpt><trkpt lat="45.10808699243169" lon="11.653516276553713"><ele>9.0</ele><time>2026-04-04T16:08:19.928Z</time></trkpt><trkpt lat="45.10800441810711" lon="11.653552751489181"><ele>9.0</ele><time>2026-04-04T16:08:44.928Z</time></trkpt><trkpt lat="45.107845585882316" lon="11.65369076610687"><ele>9.0</ele><time>2026-04-04T16:08:46.927Z</time></trkpt><trkpt lat="45.107770739592134" lon="11.653777014936747"><ele>9.0</ele><time>2026-04-04T16:08:47.927Z</time></trkpt><trkpt lat="45.1076922842875" lon="11.653867422592873"><ele>9.0</ele><time>2026-04-04T16:08:48.927Z</time></trkpt><trkpt lat="45.10759725876876" lon="11.653976924892822"><ele>9.0</ele><time>2026-04-04T16:08:49.927Z</time></trkpt><trkpt lat="45.10749977460129" lon="11.65411930197368"><ele>9.0</ele><time>2026-04-04T16:08:50.927Z</time></trkpt><trkpt lat="45.107380053045425" lon="11.654235811781268"><ele>9.0</ele><time>2026-04-04T16:08:51.927Z</time></trkpt><trkpt lat="45.10726811193251" lon="11.654366199210658"><ele>9.0</ele><time>2026-04-04T16:08:52.927Z</time></trkpt><trkpt lat="45.10716506122713" lon="11.65449049351057"><ele>8.5</ele><time>2026-04-04T16:08:53.927Z</time></trkpt><trkpt lat="45.107056459995235" lon="11.654618245502505"><ele>8.0</ele><time>2026-04-04T16:08:54.927Z</time></trkpt><trkpt lat="45.10694089350788" lon="11.654727594888934"><ele>7.5</ele><time>2026-04-04T16:08:55.927Z</time></trkpt><trkpt lat="45.10682267310225" lon="11.654877359546715"><ele>7.0</ele><time>2026-04-04T16:08:56.927Z</time></trkpt><trkpt lat="45.10670157251429" lon="11.65504313580808"><ele>7.666666666666667</ele><time>2026-04-04T16:08:57.927Z</time></trkpt><trkpt lat="45.1065746413445" lon="11.655229393187335"><ele>8.333333333333334</ele><time>2026-04-04T16:08:58.927Z</time></trkpt><trkpt lat="45.10644782601063" lon="11.655422205224044"><ele>9.0</ele><time>2026-04-04T16:08:59.927Z</time></trkpt><trkpt lat="45.10634354588268" lon="11.65562471266286"><ele>9.0</ele><time>2026-04-04T16:09:00.927Z</time></trkpt><trkpt lat="45.10626539340104" lon="11.65583059143487"><ele>9.0</ele><time>2026-04-04T16:09:01.927Z</time></trkpt><trkpt lat="45.10620909370063" lon="11.6560537329394"><ele>9.0</ele><time>2026-04-04T16:09:02.927Z</time></trkpt><trkpt lat="45.10618586088827" lon="11.656293789334311"><ele>9.0</ele><time>2026-04-04T16:09:03.927Z</time></trkpt><trkpt lat="45.1061875773564" lon="11.656560501629443"><ele>9.0</ele><time>2026-04-04T16:09:04.927Z</time></trkpt><trkpt lat="45.10620171062294" lon="11.65683659929129"><ele>9.0</ele><time>2026-04-04T16:09:05.927Z</time></trkpt><trkpt lat="45.10621653164075" lon="11.657100219105049"><ele>9.0</ele><time>2026-04-04T16:09:06.927Z</time></trkpt><trkpt lat="45.106227559894826" lon="11.657345838533285"><ele>9.0</ele><time>2026-04-04T16:09:07.927Z</time></trkpt><trkpt lat="45.1062215391569" lon="11.657583433635617"><ele>9.0</ele><time>2026-04-04T16:09:08.927Z</time></trkpt><trkpt lat="45.10620163812871" lon="11.657819116388039"><ele>9.0</ele><time>2026-04-04T16:09:09.927Z</time></trkpt><trkpt lat="45.10617855339394" lon="11.658054030693023"><ele>9.0</ele><time>2026-04-04T16:09:10.927Z</time></trkpt><trkpt lat="45.10614539271708" lon="11.658277121757836"><ele>9.0</ele><time>2026-04-04T16:09:11.927Z</time></trkpt><trkpt lat="45.10609978688148" lon="11.658506812158056"><ele>8.5</ele><time>2026-04-04T16:09:12.927Z</time></trkpt><trkpt lat="45.1060476996845" lon="11.658737964978746"><ele>8.0</ele><time>2026-04-04T16:09:13.927Z</time></trkpt><trkpt lat="45.105980759241675" lon="11.658930041425183"><ele>7.5</ele><time>2026-04-04T16:09:14.927Z</time></trkpt><trkpt lat="45.10593115241624" lon="11.659081916316865"><ele>7.0</ele><time>2026-04-04T16:09:15.927Z</time></trkpt><trkpt lat="45.10590227066155" lon="11.659211328827666"><ele>7.0</ele><time>2026-04-04T16:09:16.927Z</time></trkpt><trkpt lat="45.10584415414825" lon="11.659313519036322"><ele>6.999999999999999</ele><time>2026-04-04T16:09:17.927Z</time></trkpt><trkpt lat="45.10581434227203" lon="11.659413623952497"><ele>6.999999999999999</ele><time>2026-04-04T16:09:18.927Z</time></trkpt><trkpt lat="45.105769127867234" lon="11.659565448868394"><ele>7.0</ele><time>2026-04-04T16:09:20.927Z</time></trkpt><trkpt lat="45.105738885764026" lon="11.659697497920815"><ele>7.0</ele><time>2026-04-04T16:09:22.927Z</time></trkpt><trkpt lat="45.105647460755975" lon="11.659680259586374"><ele>7.199999999999999</ele><time>2026-04-04T16:09:24.926Z</time></trkpt><trkpt lat="45.10555424154826" lon="11.65965202402456"><ele>7.3999999999999995</ele><time>2026-04-04T16:09:25.926Z</time></trkpt><trkpt lat="45.105457958563676" lon="11.65960381516402"><ele>7.6000000000000005</ele><time>2026-04-04T16:09:26.926Z</time></trkpt><trkpt lat="45.10534916371643" lon="11.659568439292466"><ele>7.800000000000001</ele><time>2026-04-04T16:09:27.926Z</time></trkpt><trkpt lat="45.10524739247595" lon="11.659492005086312"><ele>8.0</ele><time>2026-04-04T16:09:28.926Z</time></trkpt><trkpt lat="45.1051373859895" lon="11.65944211885308"><ele>7.5</ele><time>2026-04-04T16:09:29.926Z</time></trkpt><trkpt lat="45.10502803179736" lon="11.659389549346558"><ele>7.0</ele><time>2026-04-04T16:09:30.926Z</time></trkpt><trkpt lat="45.10490919513322" lon="11.659346140452353"><ele>6.5</ele><time>2026-04-04T16:09:31.926Z</time></trkpt><trkpt lat="45.104789853574765" lon="11.659296878705442"><ele>6.0</ele><time>2026-04-04T16:09:32.926Z</time></trkpt><trkpt lat="45.10467304020795" lon="11.659245827056708"><ele>6.833333333333333</ele><time>2026-04-04T16:09:33.926Z</time></trkpt><trkpt lat="45.104565691463094" lon="11.659200751013216"><ele>7.666666666666666</ele><time>2026-04-04T16:09:34.926Z</time></trkpt><trkpt lat="45.10447647554029" lon="11.659166634514223"><ele>8.5</ele><time>2026-04-04T16:09:35.926Z</time></trkpt><trkpt lat="45.10439533046161" lon="11.659130404995153"><ele>9.333333333333332</ele><time>2026-04-04T16:09:36.926Z</time></trkpt><trkpt lat="45.10432320879641" lon="11.659101655354334"><ele>10.166666666666666</ele><time>2026-04-04T16:09:37.926Z</time></trkpt><trkpt lat="45.10426068079068" lon="11.659081260752279"><ele>11.0</ele><time>2026-04-04T16:09:38.926Z</time></trkpt><trkpt lat="45.10416631870054" lon="11.659040663835501"><ele>11.0</ele><time>2026-04-04T16:09:40.926Z</time></trkpt><trkpt lat="45.10409884415435" lon="11.659012707250543"><ele>11.0</ele><time>2026-04-04T16:09:42.926Z</time></trkpt><trkpt lat="45.104053507806505" lon="11.659186407566489"><ele>11.0</ele><time>2026-04-04T16:09:43.926Z</time></trkpt><trkpt lat="45.10402144974796" lon="11.6593123742491"><ele>11.0</ele><time>2026-04-04T16:09:44.926Z</time></trkpt><trkpt lat="45.10399335172814" lon="11.659462921404993"><ele>11.0</ele><time>2026-04-04T16:09:45.926Z</time></trkpt><trkpt lat="45.10394923659577" lon="11.65961857963679"><ele>10.5</ele><time>2026-04-04T16:09:46.926Z</time></trkpt><trkpt lat="45.10389904662629" lon="11.659770551280733"><ele>10.0</ele><time>2026-04-04T16:09:47.926Z</time></trkpt><trkpt lat="45.103828914510835" lon="11.65991842392228"><ele>9.5</ele><time>2026-04-04T16:09:48.928Z</time></trkpt><trkpt lat="45.10373484438953" lon="11.660039538064764"><ele>9.0</ele><time>2026-04-04T16:09:49.927Z</time></trkpt><trkpt lat="45.10364191271951" lon="11.660166452313288"><ele>9.5</ele><time>2026-04-04T16:09:50.927Z</time></trkpt><trkpt lat="45.10355546202386" lon="11.660293776278507"><ele>10.0</ele><time>2026-04-04T16:09:51.927Z</time></trkpt><trkpt lat="45.10347275858527" lon="11.660419520185272"><ele>10.5</ele><time>2026-04-04T16:09:52.927Z</time></trkpt><trkpt lat="45.103391899259876" lon="11.660541423794731"><ele>11.0</ele><time>2026-04-04T16:09:53.927Z</time></trkpt><trkpt lat="45.10331534321943" lon="11.660661290455923"><ele>10.200000000000001</ele><time>2026-04-04T16:09:54.927Z</time></trkpt><trkpt lat="45.1032458322433" lon="11.660778965406749"><ele>9.4</ele><time>2026-04-04T16:09:55.927Z</time></trkpt><trkpt lat="45.10317832207383" lon="11.660884650249768"><ele>8.6</ele><time>2026-04-04T16:09:56.927Z</time></trkpt><trkpt lat="45.10310953444681" lon="11.660977460023414"><ele>7.8</ele><time>2026-04-04T16:09:57.928Z</time></trkpt><trkpt lat="45.10303415904782" lon="11.661059748207206"><ele>7.0</ele><time>2026-04-04T16:09:58.927Z</time></trkpt><trkpt lat="45.10295849678374" lon="11.661125934947448"><ele>7.0</ele><time>2026-04-04T16:09:59.927Z</time></trkpt><trkpt lat="45.102888457546236" lon="11.661195162030376"><ele>6.999999999999999</ele><time>2026-04-04T16:10:00.927Z</time></trkpt><trkpt lat="45.10281017077756" lon="11.66125703597176"><ele>6.999999999999999</ele><time>2026-04-04T16:10:01.927Z</time></trkpt><trkpt lat="45.102728751570545" lon="11.661320611911629"><ele>7.0</ele><time>2026-04-04T16:10:02.927Z</time></trkpt><trkpt lat="45.10264208259009" lon="11.661393435208513"><ele>7.0</ele><time>2026-04-04T16:10:03.927Z</time></trkpt><trkpt lat="45.10254947237224" lon="11.661456472944824"><ele>7.0</ele><time>2026-04-04T16:10:04.927Z</time></trkpt><trkpt lat="45.10245304390092" lon="11.661526505868656"><ele>6.999999999999999</ele><time>2026-04-04T16:10:05.927Z</time></trkpt><trkpt lat="45.10236349815125" lon="11.661595451239759"><ele>6.999999999999999</ele><time>2026-04-04T16:10:06.927Z</time></trkpt><trkpt lat="45.10228207841173" lon="11.661659414449717"><ele>7.0</ele><time>2026-04-04T16:10:07.927Z</time></trkpt><trkpt lat="45.10220099941476" lon="11.6617199703886"><ele>7.0</ele><time>2026-04-04T16:10:08.927Z</time></trkpt><trkpt lat="45.102111103680976" lon="11.661784621001798"><ele>7.0</ele><time>2026-04-04T16:10:09.927Z</time></trkpt><trkpt lat="45.10201709409435" lon="11.661860769647467"><ele>6.999999999999999</ele><time>2026-04-04T16:10:10.927Z</time></trkpt><trkpt lat="45.10191767189712" lon="11.661934154364616"><ele>6.999999999999999</ele><time>2026-04-04T16:10:11.927Z</time></trkpt><trkpt lat="45.10182370972945" lon="11.662003585377057"><ele>7.0</ele><time>2026-04-04T16:10:12.927Z</time></trkpt><trkpt lat="45.10173315605148" lon="11.662072109745829"><ele>7.0</ele><time>2026-04-04T16:10:13.927Z</time></trkpt><trkpt lat="45.10164581177858" lon="11.662137999373629"><ele>7.3999999999999995</ele><time>2026-04-04T16:10:14.927Z</time></trkpt><trkpt lat="45.101558741229056" lon="11.662210170065594"><ele>7.799999999999999</ele><time>2026-04-04T16:10:15.927Z</time></trkpt><trkpt lat="45.101471922517526" lon="11.662289394969113"><ele>8.2</ele><time>2026-04-04T16:10:16.927Z</time></trkpt><trkpt lat="45.10138199686554" lon="11.662359651348115"><ele>8.6</ele><time>2026-04-04T16:10:17.927Z</time></trkpt><trkpt lat="45.10129409266901" lon="11.662432373733527"><ele>9.0</ele><time>2026-04-04T16:10:18.926Z</time></trkpt><trkpt lat="45.101207893679955" lon="11.662503851229848"><ele>9.0</ele><time>2026-04-04T16:10:19.926Z</time></trkpt><trkpt lat="45.10112023444628" lon="11.66256391809595"><ele>9.0</ele><time>2026-04-04T16:10:20.926Z</time></trkpt><trkpt lat="45.101047037543225" lon="11.662621374579869"><ele>9.0</ele><time>2026-04-04T16:10:21.926Z</time></trkpt><trkpt lat="45.100979124678254" lon="11.662676400109227"><ele>9.0</ele><time>2026-04-04T16:10:22.926Z</time></trkpt><trkpt lat="45.10091384980255" lon="11.662724624190348"><ele>9.0</ele><time>2026-04-04T16:10:23.926Z</time></trkpt><trkpt lat="45.10081568349551" lon="11.662799990949685"><ele>9.0</ele><time>2026-04-04T16:10:25.926Z</time></trkpt><trkpt lat="45.100737452298674" lon="11.662864229757325"><ele>8.833333333333334</ele><time>2026-04-04T16:10:27.926Z</time></trkpt><trkpt lat="45.100669490950466" lon="11.662833568672868"><ele>8.666666666666666</ele><time>2026-04-04T16:10:29.926Z</time></trkpt><trkpt lat="45.10062094308445" lon="11.662734293638517"><ele>8.5</ele><time>2026-04-04T16:10:31.926Z</time></trkpt><trkpt lat="45.100581582155506" lon="11.662616981631475"><ele>8.333333333333332</ele><time>2026-04-04T16:10:33.926Z</time></trkpt><trkpt lat="45.1005360170456" lon="11.662531995736783"><ele>8.166666666666666</ele><time>2026-04-04T16:10:35.926Z</time></trkpt><trkpt lat="45.10045688627259" lon="11.662571472238518"><ele>8.0</ele><time>2026-04-04T16:10:36.926Z</time></trkpt><trkpt lat="45.10036723072058" lon="11.662619720740711"><ele>8.0</ele><time>2026-04-04T16:10:38.926Z</time></trkpt><trkpt lat="45.10029525272104" lon="11.662668377861937"><ele>8.0</ele><time>2026-04-04T16:10:40.926Z</time></trkpt><trkpt lat="45.10023615522134" lon="11.66270555714987"><ele>8.0</ele><time>2026-04-04T16:10:42.926Z</time></trkpt><trkpt lat="45.10014408457585" lon="11.662738089760142"><ele>8.0</ele><time>2026-04-04T16:10:45.926Z</time></trkpt><trkpt lat="45.100095032303855" lon="11.662586954569692"><ele>8.0</ele><time>2026-04-04T16:10:47.926Z</time></trkpt><trkpt lat="45.10003221803402" lon="11.662440802259754"><ele>7.999999999999999</ele><time>2026-04-04T16:10:49.926Z</time></trkpt><trkpt lat="45.10000469784936" lon="11.662350879606096"><ele>8.0</ele><time>2026-04-04T16:10:50.926Z</time></trkpt><trkpt lat="45.09997384192219" lon="11.662257531280279"><ele>8.0</ele><time>2026-04-04T16:10:51.926Z</time></trkpt><trkpt lat="45.09993906346032" lon="11.662153182305808"><ele>8.0</ele><time>2026-04-04T16:10:52.926Z</time></trkpt><trkpt lat="45.0999056978673" lon="11.662043582312686"><ele>7.999999999999999</ele><time>2026-04-04T16:10:53.926Z</time></trkpt><trkpt lat="45.09988000260214" lon="11.661928633573234"><ele>8.0</ele><time>2026-04-04T16:10:54.926Z</time></trkpt><trkpt lat="45.0998519144413" lon="11.661823339461874"><ele>7.833333333333333</ele><time>2026-04-04T16:10:55.926Z</time></trkpt><trkpt lat="45.09982264012707" lon="11.661730543534482"><ele>7.666666666666666</ele><time>2026-04-04T16:10:56.925Z</time></trkpt><trkpt lat="45.09978972804967" lon="11.661637367744387"><ele>7.5</ele><time>2026-04-04T16:10:57.925Z</time></trkpt><trkpt lat="45.09976028192116" lon="11.66155212408044"><ele>7.333333333333334</ele><time>2026-04-04T16:10:58.925Z</time></trkpt><trkpt lat="45.09972993428905" lon="11.661464722638712"><ele>7.166666666666667</ele><time>2026-04-04T16:10:59.925Z</time></trkpt><trkpt lat="45.09969633529001" lon="11.661383994032166"><ele>7.0</ele><time>2026-04-04T16:11:00.925Z</time></trkpt><trkpt lat="45.09963823202484" lon="11.661238919100402"><ele>7.0</ele><time>2026-04-04T16:11:02.925Z</time></trkpt><trkpt lat="45.09961667800584" lon="11.661091199782897"><ele>6.999999999999999</ele><time>2026-04-04T16:11:04.925Z</time></trkpt><trkpt lat="45.099569826331425" lon="11.660976041840684"><ele>6.999999999999999</ele><time>2026-04-04T16:11:06.925Z</time></trkpt><trkpt lat="45.09950997076401" lon="11.660878039518321"><ele>7.0</ele><time>2026-04-04T16:11:08.925Z</time></trkpt><trkpt lat="45.099398332183455" lon="11.660917681821704"><ele>7.0</ele><time>2026-04-04T16:11:09.925Z</time></trkpt><trkpt lat="45.09932155559299" lon="11.660960545614428"><ele>7.000000000000001</ele><time>2026-04-04T16:11:10.925Z</time></trkpt><trkpt lat="45.09923843849463" lon="11.661004921691188"><ele>7.0</ele><time>2026-04-04T16:11:11.925Z</time></trkpt><trkpt lat="45.099153420054996" lon="11.661049617695646"><ele>7.0</ele><time>2026-04-04T16:11:12.925Z</time></trkpt><trkpt lat="45.099071064982745" lon="11.661092685952116"><ele>7.0</ele><time>2026-04-04T16:11:13.925Z</time></trkpt><trkpt lat="45.09899126567792" lon="11.661134417646073"><ele>7.000000000000001</ele><time>2026-04-04T16:11:14.925Z</time></trkpt><trkpt lat="45.09891441850126" lon="11.661168205776313"><ele>7.0</ele><time>2026-04-04T16:11:15.925Z</time></trkpt><trkpt lat="45.098842345240456" lon="11.661195324688176"><ele>6.8</ele><time>2026-04-04T16:11:16.925Z</time></trkpt><trkpt lat="45.09877086338703" lon="11.661155011672168"><ele>6.6</ele><time>2026-04-04T16:11:17.925Z</time></trkpt><trkpt lat="45.09869026866496" lon="11.661081999053453"><ele>6.3999999999999995</ele><time>2026-04-04T16:11:18.925Z</time></trkpt><trkpt lat="45.09861912115916" lon="11.660977656042133"><ele>6.199999999999999</ele><time>2026-04-04T16:11:19.925Z</time></trkpt><trkpt lat="45.0985342717166" lon="11.660866330991542"><ele>6.0</ele><time>2026-04-04T16:11:20.925Z</time></trkpt><trkpt lat="45.098456532957016" lon="11.660760152721148"><ele>5.75</ele><time>2026-04-04T16:11:21.925Z</time></trkpt><trkpt lat="45.098377468198215" lon="11.660644988902842"><ele>5.5</ele><time>2026-04-04T16:11:22.925Z</time></trkpt><trkpt lat="45.09829328696031" lon="11.660526420330571"><ele>5.25</ele><time>2026-04-04T16:11:23.925Z</time></trkpt><trkpt lat="45.098213579414065" lon="11.660405629059126"><ele>5.0</ele><time>2026-04-04T16:11:24.925Z</time></trkpt><trkpt lat="45.09816223566994" lon="11.660279302784595"><ele>5.0</ele><time>2026-04-04T16:11:25.925Z</time></trkpt><trkpt lat="45.09810682803335" lon="11.660169928543354"><ele>5.0</ele><time>2026-04-04T16:11:26.925Z</time></trkpt><trkpt lat="45.09805979865877" lon="11.660070303396765"><ele>5.0</ele><time>2026-04-04T16:11:27.925Z</time></trkpt><trkpt lat="45.09801039995241" lon="11.660000102540957"><ele>5.0</ele><time>2026-04-04T16:11:28.925Z</time></trkpt><trkpt lat="45.09796952567891" lon="11.659856990226272"><ele>5.0</ele><time>2026-04-04T16:11:30.925Z</time></trkpt><trkpt lat="45.09783445019329" lon="11.660038135382196"><ele>5.0</ele><time>2026-04-04T16:11:33.925Z</time></trkpt><trkpt lat="45.097817270620006" lon="11.660193038239305"><ele>5.0</ele><time>2026-04-04T16:11:34.925Z</time></trkpt><trkpt lat="45.097806765431216" lon="11.660364954688996"><ele>5.0</ele><time>2026-04-04T16:11:35.924Z</time></trkpt><trkpt lat="45.09779994103715" lon="11.660559030598385"><ele>5.0</ele><time>2026-04-04T16:11:36.924Z</time></trkpt><trkpt lat="45.09779562419266" lon="11.66074558004884"><ele>5.0</ele><time>2026-04-04T16:11:37.924Z</time></trkpt><trkpt lat="45.0977852160259" lon="11.66094821305189"><ele>5.0</ele><time>2026-04-04T16:11:38.924Z</time></trkpt><trkpt lat="45.09776453528921" lon="11.661135441191744"><ele>5.0</ele><time>2026-04-04T16:11:39.924Z</time></trkpt><trkpt lat="45.09773070724274" lon="11.661303975494784"><ele>5.0</ele><time>2026-04-04T16:11:40.924Z</time></trkpt><trkpt lat="45.09769398554446" lon="11.661460618110175"><ele>5.0</ele><time>2026-04-04T16:11:41.924Z</time></trkpt><trkpt lat="45.0976417405698" lon="11.661627208021207"><ele>5.0</ele><time>2026-04-04T16:11:42.924Z</time></trkpt><trkpt lat="45.09758179710233" lon="11.661804867017613"><ele>5.0</ele><time>2026-04-04T16:11:43.924Z</time></trkpt><trkpt lat="45.097519809843156" lon="11.661983236665252"><ele>5.0</ele><time>2026-04-04T16:11:44.924Z</time></trkpt><trkpt lat="45.09745547049437" lon="11.662168374495876"><ele>5.25</ele><time>2026-04-04T16:11:45.924Z</time></trkpt><trkpt lat="45.097396514707086" lon="11.662338021016605"><ele>5.5</ele><time>2026-04-04T16:11:46.924Z</time></trkpt><trkpt lat="45.097351473776115" lon="11.662516321380048"><ele>5.75</ele><time>2026-04-04T16:11:47.924Z</time></trkpt><trkpt lat="45.09727357529851" lon="11.66269100461001"><ele>6.0</ele><time>2026-04-04T16:11:48.924Z</time></trkpt><trkpt lat="45.09720259967593" lon="11.662880702981164"><ele>6.0</ele><time>2026-04-04T16:11:49.924Z</time></trkpt><trkpt lat="45.09713606734754" lon="11.66307477595963"><ele>6.0</ele><time>2026-04-04T16:11:50.924Z</time></trkpt><trkpt lat="45.097071453319856" lon="11.663277617464232"><ele>6.0</ele><time>2026-04-04T16:11:51.924Z</time></trkpt><trkpt lat="45.097012101135064" lon="11.663474441456271"><ele>6.0</ele><time>2026-04-04T16:11:52.924Z</time></trkpt><trkpt lat="45.096957367632434" lon="11.663658782487785"><ele>6.0</ele><time>2026-04-04T16:11:53.924Z</time></trkpt><trkpt lat="45.09691145747166" lon="11.663822635095373"><ele>6.0</ele><time>2026-04-04T16:11:54.926Z</time></trkpt><trkpt lat="45.09687467595223" lon="11.663978509815948"><ele>6.0</ele><time>2026-04-04T16:11:55.925Z</time></trkpt><trkpt lat="45.09683024745464" lon="11.664117830828115"><ele>6.0</ele><time>2026-04-04T16:11:56.925Z</time></trkpt><trkpt lat="45.09677930827405" lon="11.66423591288175"><ele>6.0</ele><time>2026-04-04T16:11:57.925Z</time></trkpt><trkpt lat="45.09672320615225" lon="11.66433589958783"><ele>6.0</ele><time>2026-04-04T16:11:58.925Z</time></trkpt><trkpt lat="45.096684742304774" lon="11.664427935100097"><ele>6.0</ele><time>2026-04-04T16:11:59.925Z</time></trkpt><trkpt lat="45.096602074071896" lon="11.664475019571029"><ele>6.0</ele><time>2026-04-04T16:12:00.925Z</time></trkpt><trkpt lat="45.09654577967807" lon="11.664530120750024"><ele>6.0</ele><time>2026-04-04T16:12:01.925Z</time></trkpt><trkpt lat="45.09650140749227" lon="11.664610069108978"><ele>5.833333333333333</ele><time>2026-04-04T16:12:02.925Z</time></trkpt><trkpt lat="45.09648453106218" lon="11.664699465455593"><ele>5.666666666666667</ele><time>2026-04-04T16:12:03.925Z</time></trkpt><trkpt lat="45.09649153754563" lon="11.664792824780477"><ele>5.5</ele><time>2026-04-04T16:12:04.926Z</time></trkpt><trkpt lat="45.09652417335081" lon="11.664879846975596"><ele>5.333333333333334</ele><time>2026-04-04T16:12:05.926Z</time></trkpt><trkpt lat="45.0965841500654" lon="11.664948932985427"><ele>5.166666666666667</ele><time>2026-04-04T16:12:06.926Z</time></trkpt><trkpt lat="45.09666552424689" lon="11.664978832868448"><ele>5.0</ele><time>2026-04-04T16:12:07.926Z</time></trkpt><trkpt lat="45.096760826338496" lon="11.664985491788164"><ele>5.5</ele><time>2026-04-04T16:12:08.926Z</time></trkpt><trkpt lat="45.09687433858357" lon="11.664987732173405"><ele>6.0</ele><time>2026-04-04T16:12:09.926Z</time></trkpt><trkpt lat="45.09699856014092" lon="11.665033728477043"><ele>6.5</ele><time>2026-04-04T16:12:10.926Z</time></trkpt><trkpt lat="45.09712750928213" lon="11.66510838015664"><ele>7.0</ele><time>2026-04-04T16:12:11.926Z</time></trkpt><trkpt lat="45.097253894560325" lon="11.665195404801162"><ele>7.0</ele><time>2026-04-04T16:12:12.926Z</time></trkpt><trkpt lat="45.09735187022339" lon="11.665268964183516"><ele>6.999999999999999</ele><time>2026-04-04T16:12:13.925Z</time></trkpt><trkpt lat="45.0974289648648" lon="11.665324310806323"><ele>6.999999999999999</ele><time>2026-04-04T16:12:14.925Z</time></trkpt><trkpt lat="45.09751303551118" lon="11.665354850635962"><ele>7.0</ele><time>2026-04-04T16:12:16.925Z</time></trkpt><trkpt lat="45.09745242543638" lon="11.665163871530284"><ele>7.0</ele><time>2026-04-04T16:12:21.925Z</time></trkpt><trkpt lat="45.09735063441756" lon="11.665119121567649"><ele>7.0</ele><time>2026-04-04T16:12:23.925Z</time></trkpt><trkpt lat="45.09728639278188" lon="11.66507480786741"><ele>7.0</ele><time>2026-04-04T16:12:26.925Z</time></trkpt><trkpt lat="45.09728918584495" lon="11.664966756475676"><ele>7.0</ele><time>2026-04-04T16:12:51.925Z</time></trkpt><trkpt lat="45.0973519294773" lon="11.664916860657977"><ele>7.0</ele><time>2026-04-04T16:13:18.924Z</time></trkpt><trkpt lat="45.097322989063144" lon="11.665004362727165"><ele>7.0</ele><time>2026-04-04T16:20:29.931Z</time></trkpt><trkpt lat="45.09724016218195" lon="11.664976237665897"><ele>7.0</ele><time>2026-04-04T16:20:33.931Z</time></trkpt><trkpt lat="45.09717875222809" lon="11.66493244617839"><ele>7.0</ele><time>2026-04-04T16:20:36.931Z</time></trkpt><trkpt lat="45.097122396278124" lon="11.664847824109964"><ele>7.0</ele><time>2026-04-04T16:20:57.93Z</time></trkpt><trkpt lat="45.09706334140875" lon="11.664813816153572"><ele>6.999999999999999</ele><time>2026-04-04T16:20:59.93Z</time></trkpt><trkpt lat="45.09698159183728" lon="11.664823184373223"><ele>6.999999999999999</ele><time>2026-04-04T16:21:02.93Z</time></trkpt><trkpt lat="45.09687994631692" lon="11.664799243483348"><ele>7.0</ele><time>2026-04-04T16:21:04.93Z</time></trkpt><trkpt lat="45.09678841903927" lon="11.664723227148073"><ele>7.0</ele><time>2026-04-04T16:21:06.93Z</time></trkpt><trkpt lat="45.09671088509019" lon="11.66458517020681"><ele>7.0</ele><time>2026-04-04T16:21:08.93Z</time></trkpt><trkpt lat="45.0966531550788" lon="11.66453436013993"><ele>6.999999999999999</ele><time>2026-04-04T16:21:09.93Z</time></trkpt><trkpt lat="45.096577727281954" lon="11.664511109163291"><ele>6.999999999999999</ele><time>2026-04-04T16:21:10.93Z</time></trkpt><trkpt lat="45.09648481911814" lon="11.664506748376498"><ele>7.0</ele><time>2026-04-04T16:21:11.93Z</time></trkpt><trkpt lat="45.09637806951188" lon="11.664515507998676"><ele>7.0</ele><time>2026-04-04T16:21:12.93Z</time></trkpt><trkpt lat="45.09627439750575" lon="11.66449397947032"><ele>6.5</ele><time>2026-04-04T16:21:13.93Z</time></trkpt><trkpt lat="45.09616330479839" lon="11.664416580875669"><ele>6.0</ele><time>2026-04-04T16:21:14.93Z</time></trkpt><trkpt lat="45.09605350471824" lon="11.664322305106342"><ele>5.5</ele><time>2026-04-04T16:21:15.93Z</time></trkpt><trkpt lat="45.095950920060076" lon="11.66423545038808"><ele>5.0</ele><time>2026-04-04T16:21:16.93Z</time></trkpt><trkpt lat="45.09583930209038" lon="11.664160767867294"><ele>4.75</ele><time>2026-04-04T16:21:17.93Z</time></trkpt><trkpt lat="45.09571839009243" lon="11.664081597562015"><ele>4.5</ele><time>2026-04-04T16:21:18.93Z</time></trkpt><trkpt lat="45.09559388025011" lon="11.663999468761947"><ele>4.25</ele><time>2026-04-04T16:21:19.93Z</time></trkpt><trkpt lat="45.09546447304924" lon="11.66390233530861"><ele>4.0</ele><time>2026-04-04T16:21:20.93Z</time></trkpt><trkpt lat="45.095313580406255" lon="11.663790941312959"><ele>4.0</ele><time>2026-04-04T16:21:21.93Z</time></trkpt><trkpt lat="45.09515223016648" lon="11.663669302164058"><ele>4.0</ele><time>2026-04-04T16:21:22.93Z</time></trkpt><trkpt lat="45.09498024878037" lon="11.663545269162189"><ele>4.0</ele><time>2026-04-04T16:21:23.93Z</time></trkpt><trkpt lat="45.09481313680695" lon="11.663426967835093"><ele>4.333333333333333</ele><time>2026-04-04T16:21:24.93Z</time></trkpt><trkpt lat="45.09465806239989" lon="11.663307062314283"><ele>4.666666666666667</ele><time>2026-04-04T16:21:25.93Z</time></trkpt><trkpt lat="45.09450311181556" lon="11.663205276177882"><ele>5.0</ele><time>2026-04-04T16:21:26.929Z</time></trkpt><trkpt lat="45.094349270338164" lon="11.66310082745237"><ele>5.0</ele><time>2026-04-04T16:21:27.929Z</time></trkpt><trkpt lat="45.09419323259041" lon="11.662988002423097"><ele>5.0</ele><time>2026-04-04T16:21:28.929Z</time></trkpt><trkpt lat="45.09401766313146" lon="11.662869793407127"><ele>5.0</ele><time>2026-04-04T16:21:29.929Z</time></trkpt><trkpt lat="45.09383617107859" lon="11.662742005067416"><ele>5.0</ele><time>2026-04-04T16:21:30.929Z</time></trkpt><trkpt lat="45.0936498036677" lon="11.662612256300097"><ele>5.0</ele><time>2026-04-04T16:21:31.929Z</time></trkpt><trkpt lat="45.09346029280716" lon="11.662478191861723"><ele>5.0</ele><time>2026-04-04T16:21:32.929Z</time></trkpt><trkpt lat="45.093269855334924" lon="11.66234611969413"><ele>4.0</ele><time>2026-04-04T16:21:33.929Z</time></trkpt><trkpt lat="45.0930781348108" lon="11.662214913528281"><ele>3.0</ele><time>2026-04-04T16:21:34.929Z</time></trkpt><trkpt lat="45.09289164544553" lon="11.662092546669813"><ele>2.0</ele><time>2026-04-04T16:21:35.929Z</time></trkpt><trkpt lat="45.0927098339486" lon="11.66196112673366"><ele>2.6666666666666665</ele><time>2026-04-04T16:21:36.929Z</time></trkpt><trkpt lat="45.092528339225595" lon="11.661831356344658"><ele>3.333333333333333</ele><time>2026-04-04T16:21:37.929Z</time></trkpt><trkpt lat="45.092348613204486" lon="11.661706531443418"><ele>4.0</ele><time>2026-04-04T16:21:38.929Z</time></trkpt><trkpt lat="45.0921698689545" lon="11.661582640836638"><ele>4.0</ele><time>2026-04-04T16:21:39.929Z</time></trkpt><trkpt lat="45.091997455020966" lon="11.661463033924244"><ele>4.0</ele><time>2026-04-04T16:21:40.929Z</time></trkpt><trkpt lat="45.09182423212712" lon="11.661345617321375"><ele>4.0</ele><time>2026-04-04T16:21:41.929Z</time></trkpt><trkpt lat="45.091654013752716" lon="11.661222182225307"><ele>4.333333333333333</ele><time>2026-04-04T16:21:42.929Z</time></trkpt><trkpt lat="45.09147718991473" lon="11.661103453099576"><ele>4.666666666666667</ele><time>2026-04-04T16:21:43.929Z</time></trkpt><trkpt lat="45.091317862240835" lon="11.660996829064084"><ele>5.0</ele><time>2026-04-04T16:21:44.929Z</time></trkpt><trkpt lat="45.09117575707086" lon="11.660902054134562"><ele>5.0</ele><time>2026-04-04T16:21:45.929Z</time></trkpt><trkpt lat="45.091042839637176" lon="11.660807459226726"><ele>5.0</ele><time>2026-04-04T16:21:46.929Z</time></trkpt><trkpt lat="45.09090315550323" lon="11.660710399012101"><ele>5.0</ele><time>2026-04-04T16:21:47.929Z</time></trkpt><trkpt lat="45.090756771657404" lon="11.66061538698537"><ele>4.666666666666667</ele><time>2026-04-04T16:21:48.929Z</time></trkpt><trkpt lat="45.090605571624806" lon="11.660509684219008"><ele>4.333333333333333</ele><time>2026-04-04T16:21:49.929Z</time></trkpt><trkpt lat="45.090451042856735" lon="11.660413895505664"><ele>4.0</ele><time>2026-04-04T16:21:50.929Z</time></trkpt><trkpt lat="45.090297099241894" lon="11.66031136131781"><ele>4.333333333333333</ele><time>2026-04-04T16:21:51.929Z</time></trkpt><trkpt lat="45.09013674141506" lon="11.66022450676169"><ele>4.666666666666667</ele><time>2026-04-04T16:21:52.929Z</time></trkpt><trkpt lat="45.08996828452204" lon="11.66013235615676"><ele>5.0</ele><time>2026-04-04T16:21:53.929Z</time></trkpt><trkpt lat="45.08978809261653" lon="11.660074009884184"><ele>5.0</ele><time>2026-04-04T16:21:54.929Z</time></trkpt><trkpt lat="45.089601695139514" lon="11.660033529631129"><ele>5.0</ele><time>2026-04-04T16:21:55.929Z</time></trkpt><trkpt lat="45.08941308009065" lon="11.659997760232292"><ele>5.0</ele><time>2026-04-04T16:21:56.929Z</time></trkpt><trkpt lat="45.08921348499882" lon="11.659988775894973"><ele>4.666666666666667</ele><time>2026-04-04T16:21:57.929Z</time></trkpt><trkpt lat="45.08901071844113" lon="11.659981281654254"><ele>4.333333333333333</ele><time>2026-04-04T16:21:58.929Z</time></trkpt><trkpt lat="45.088812304070025" lon="11.659990412307343"><ele>4.0</ele><time>2026-04-04T16:21:59.929Z</time></trkpt><trkpt lat="45.088619897335526" lon="11.65998947062613"><ele>4.0</ele><time>2026-04-04T16:22:00.929Z</time></trkpt><trkpt lat="45.08842639476342" lon="11.659986604700107"><ele>4.0</ele><time>2026-04-04T16:22:01.929Z</time></trkpt><trkpt lat="45.08823193604949" lon="11.659995944375563"><ele>4.0</ele><time>2026-04-04T16:22:02.929Z</time></trkpt><trkpt lat="45.08804721253628" lon="11.659981030252858"><ele>4.333333333333333</ele><time>2026-04-04T16:22:03.929Z</time></trkpt><trkpt lat="45.08786836243934" lon="11.659935343035873"><ele>4.666666666666667</ele><time>2026-04-04T16:22:04.929Z</time></trkpt><trkpt lat="45.08768434721193" lon="11.659939306717474"><ele>5.0</ele><time>2026-04-04T16:22:05.929Z</time></trkpt><trkpt lat="45.08749538988631" lon="11.659949501212564"><ele>5.0</ele><time>2026-04-04T16:22:06.929Z</time></trkpt><trkpt lat="45.08731121531703" lon="11.659955149754936"><ele>5.0</ele><time>2026-04-04T16:22:07.929Z</time></trkpt><trkpt lat="45.08711693208274" lon="11.659952888167457"><ele>5.0</ele><time>2026-04-04T16:22:08.929Z</time></trkpt><trkpt lat="45.08691779900657" lon="11.659945066968877"><ele>5.0</ele><time>2026-04-04T16:22:09.928Z</time></trkpt><trkpt lat="45.086734436640135" lon="11.659943977730189"><ele>5.0</ele><time>2026-04-04T16:22:10.928Z</time></trkpt><trkpt lat="45.086542526313075" lon="11.659926006512244"><ele>5.0</ele><time>2026-04-04T16:22:11.928Z</time></trkpt><trkpt lat="45.086351685441755" lon="11.65991821012425"><ele>5.0</ele><time>2026-04-04T16:22:12.928Z</time></trkpt><trkpt lat="45.086155644765896" lon="11.65991811335655"><ele>5.0</ele><time>2026-04-04T16:22:13.928Z</time></trkpt><trkpt lat="45.08595818620698" lon="11.659917420069487"><ele>5.0</ele><time>2026-04-04T16:22:14.928Z</time></trkpt><trkpt lat="45.08575893536382" lon="11.659907220084104"><ele>5.0</ele><time>2026-04-04T16:22:15.928Z</time></trkpt><trkpt lat="45.08556487163934" lon="11.659901843060704"><ele>5.0</ele><time>2026-04-04T16:22:16.928Z</time></trkpt><trkpt lat="45.08536902658366" lon="11.659887644436987"><ele>5.0</ele><time>2026-04-04T16:22:17.928Z</time></trkpt><trkpt lat="45.085170263141215" lon="11.659889984361214"><ele>5.0</ele><time>2026-04-04T16:22:18.928Z</time></trkpt><trkpt lat="45.08496645642423" lon="11.659903806597658"><ele>5.0</ele><time>2026-04-04T16:22:19.928Z</time></trkpt><trkpt lat="45.08476372172163" lon="11.659947335615973"><ele>5.0</ele><time>2026-04-04T16:22:20.928Z</time></trkpt><trkpt lat="45.08457406300424" lon="11.66001306551228"><ele>4.333333333333334</ele><time>2026-04-04T16:22:21.928Z</time></trkpt><trkpt lat="45.084375740492845" lon="11.660086009062391"><ele>3.666666666666667</ele><time>2026-04-04T16:22:22.928Z</time></trkpt><trkpt lat="45.08417653803518" lon="11.66015501685249"><ele>3.0</ele><time>2026-04-04T16:22:23.928Z</time></trkpt><trkpt lat="45.0839866210699" lon="11.660209594744689"><ele>3.0</ele><time>2026-04-04T16:22:24.929Z</time></trkpt><trkpt lat="45.08380829934498" lon="11.660265893153497"><ele>3.0</ele><time>2026-04-04T16:22:25.929Z</time></trkpt><trkpt lat="45.083630282108835" lon="11.660317476955468"><ele>3.0</ele><time>2026-04-04T16:22:26.929Z</time></trkpt><trkpt lat="45.0834489033092" lon="11.660377930611578"><ele>3.333333333333333</ele><time>2026-04-04T16:22:27.929Z</time></trkpt><trkpt lat="45.083264579712576" lon="11.6604333374897"><ele>3.6666666666666665</ele><time>2026-04-04T16:22:28.93Z</time></trkpt><trkpt lat="45.083076713538155" lon="11.660490322554343"><ele>4.0</ele><time>2026-04-04T16:22:29.93Z</time></trkpt><trkpt lat="45.08289920884059" lon="11.660544807044953"><ele>4.333333333333333</ele><time>2026-04-04T16:22:30.93Z</time></trkpt><trkpt lat="45.08271764941168" lon="11.66057291079042"><ele>4.666666666666667</ele><time>2026-04-04T16:22:31.929Z</time></trkpt><trkpt lat="45.082537919299604" lon="11.660563390071124"><ele>5.0</ele><time>2026-04-04T16:22:32.929Z</time></trkpt><trkpt lat="45.082360808396494" lon="11.66055154578471"><ele>5.0</ele><time>2026-04-04T16:22:33.93Z</time></trkpt><trkpt lat="45.082187254107346" lon="11.66053535263214"><ele>5.0</ele><time>2026-04-04T16:22:34.93Z</time></trkpt><trkpt lat="45.08200470023501" lon="11.660502990667327"><ele>5.0</ele><time>2026-04-04T16:22:35.93Z</time></trkpt><trkpt lat="45.081818972907385" lon="11.660460900108546"><ele>5.0</ele><time>2026-04-04T16:22:36.929Z</time></trkpt><trkpt lat="45.0816428727268" lon="11.66039960271993"><ele>5.0</ele><time>2026-04-04T16:22:37.93Z</time></trkpt><trkpt lat="45.081476879550536" lon="11.66033047804739"><ele>5.0</ele><time>2026-04-04T16:22:38.93Z</time></trkpt><trkpt lat="45.08130663798895" lon="11.660254614797164"><ele>4.666666666666667</ele><time>2026-04-04T16:22:39.93Z</time></trkpt><trkpt lat="45.08113340952797" lon="11.660161056688917"><ele>4.333333333333333</ele><time>2026-04-04T16:22:40.93Z</time></trkpt><trkpt lat="45.080958165835305" lon="11.660057848117559"><ele>4.0</ele><time>2026-04-04T16:22:41.929Z</time></trkpt><trkpt lat="45.08078492199424" lon="11.659970449192901"><ele>4.0</ele><time>2026-04-04T16:22:42.929Z</time></trkpt><trkpt lat="45.08061933035642" lon="11.659878857058631"><ele>4.0</ele><time>2026-04-04T16:22:43.929Z</time></trkpt><trkpt lat="45.08044617875009" lon="11.65979154359552"><ele>4.0</ele><time>2026-04-04T16:22:44.929Z</time></trkpt><trkpt lat="45.08027916883258" lon="11.65966958639742"><ele>4.0</ele><time>2026-04-04T16:22:45.929Z</time></trkpt><trkpt lat="45.08011958180047" lon="11.65952261197019"><ele>4.0</ele><time>2026-04-04T16:22:46.929Z</time></trkpt><trkpt lat="45.07995744611995" lon="11.659354702475989"><ele>4.0</ele><time>2026-04-04T16:22:47.929Z</time></trkpt><trkpt lat="45.0797947223069" lon="11.659169885138649"><ele>4.0</ele><time>2026-04-04T16:22:48.929Z</time></trkpt><trkpt lat="45.07964812792963" lon="11.658961599920158"><ele>4.0</ele><time>2026-04-04T16:22:49.929Z</time></trkpt><trkpt lat="45.07951513303215" lon="11.658736567089006"><ele>4.0</ele><time>2026-04-04T16:22:50.929Z</time></trkpt><trkpt lat="45.07938773517783" lon="11.658504670102818"><ele>3.333333333333333</ele><time>2026-04-04T16:22:51.929Z</time></trkpt><trkpt lat="45.07925979004275" lon="11.658265888777779"><ele>2.6666666666666665</ele><time>2026-04-04T16:22:52.929Z</time></trkpt><trkpt lat="45.07912580120649" lon="11.658028718477267"><ele>2.0</ele><time>2026-04-04T16:22:53.929Z</time></trkpt><trkpt lat="45.07898564925147" lon="11.65778874782657"><ele>1.5</ele><time>2026-04-04T16:22:54.929Z</time></trkpt><trkpt lat="45.078836562801875" lon="11.657539963585949"><ele>1.0</ele><time>2026-04-04T16:22:55.929Z</time></trkpt><trkpt lat="45.07868464906293" lon="11.657271598316976"><ele>1.0</ele><time>2026-04-04T16:22:56.929Z</time></trkpt><trkpt lat="45.07853363221538" lon="11.656996162761425"><ele>1.0</ele><time>2026-04-04T16:22:57.929Z</time></trkpt><trkpt lat="45.07837791091805" lon="11.65671185052299"><ele>2.0</ele><time>2026-04-04T16:22:58.929Z</time></trkpt><trkpt lat="45.07822262788113" lon="11.656446193281297"><ele>3.0</ele><time>2026-04-04T16:22:59.929Z</time></trkpt><trkpt lat="45.07805651752276" lon="11.656186136539135"><ele>3.5</ele><time>2026-04-04T16:23:00.929Z</time></trkpt><trkpt lat="45.07788106235061" lon="11.655956692552614"><ele>4.0</ele><time>2026-04-04T16:23:01.929Z</time></trkpt><trkpt lat="45.077686967593976" lon="11.655757566636689"><ele>4.0</ele><time>2026-04-04T16:23:02.929Z</time></trkpt><trkpt lat="45.07747924187715" lon="11.65558609647984"><ele>4.0</ele><time>2026-04-04T16:23:03.929Z</time></trkpt><trkpt lat="45.07726207373645" lon="11.655438792915083"><ele>4.5</ele><time>2026-04-04T16:23:04.929Z</time></trkpt><trkpt lat="45.07703683250366" lon="11.65531710475091"><ele>5.0</ele><time>2026-04-04T16:23:05.929Z</time></trkpt><trkpt lat="45.076814476799576" lon="11.655233659492776"><ele>4.666666666666667</ele><time>2026-04-04T16:23:06.929Z</time></trkpt><trkpt lat="45.07661162242865" lon="11.655158208707443"><ele>4.333333333333333</ele><time>2026-04-04T16:23:07.929Z</time></trkpt><trkpt lat="45.07643131509406" lon="11.65510715053149"><ele>4.0</ele><time>2026-04-04T16:23:08.929Z</time></trkpt><trkpt lat="45.07627023776703" lon="11.65507975319649"><ele>4.0</ele><time>2026-04-04T16:23:09.929Z</time></trkpt><trkpt lat="45.0761157191419" lon="11.655045219423537"><ele>4.0</ele><time>2026-04-04T16:23:10.929Z</time></trkpt><trkpt lat="45.0760006380283" lon="11.654997944060732"><ele>4.0</ele><time>2026-04-04T16:23:11.929Z</time></trkpt><trkpt lat="45.07590557637564" lon="11.654955204677403"><ele>4.0</ele><time>2026-04-04T16:23:12.929Z</time></trkpt><trkpt lat="45.07582998455937" lon="11.654896110708943"><ele>3.833333333333333</ele><time>2026-04-04T16:23:13.929Z</time></trkpt><trkpt lat="45.07576084791488" lon="11.654839641383955"><ele>3.6666666666666665</ele><time>2026-04-04T16:23:14.929Z</time></trkpt><trkpt lat="45.07568688758816" lon="11.65474877650004"><ele>3.5</ele><time>2026-04-04T16:23:15.929Z</time></trkpt><trkpt lat="45.07561305086186" lon="11.6547042409592"><ele>3.333333333333333</ele><time>2026-04-04T16:23:16.929Z</time></trkpt><trkpt lat="45.075527122039816" lon="11.654706189243432"><ele>3.1666666666666665</ele><time>2026-04-04T16:23:17.929Z</time></trkpt><trkpt lat="45.075426715887204" lon="11.654738155775776"><ele>3.0</ele><time>2026-04-04T16:23:18.929Z</time></trkpt><trkpt lat="45.07530026939393" lon="11.654804960489116"><ele>3.0</ele><time>2026-04-04T16:23:19.929Z</time></trkpt><trkpt lat="45.075153967649804" lon="11.654855736510074"><ele>3.0</ele><time>2026-04-04T16:23:20.929Z</time></trkpt><trkpt lat="45.074993177552855" lon="11.654852450207912"><ele>3.0</ele><time>2026-04-04T16:23:21.929Z</time></trkpt><trkpt lat="45.074810884026" lon="11.654823510157089"><ele>3.0</ele><time>2026-04-04T16:23:22.929Z</time></trkpt><trkpt lat="45.07462869805192" lon="11.654795344128768"><ele>3.0</ele><time>2026-04-04T16:23:23.929Z</time></trkpt><trkpt lat="45.07444268052322" lon="11.65476222559928"><ele>3.0</ele><time>2026-04-04T16:23:24.929Z</time></trkpt><trkpt lat="45.074256061989544" lon="11.654716440297795"><ele>2.6666666666666665</ele><time>2026-04-04T16:23:25.928Z</time></trkpt><trkpt lat="45.07406935700838" lon="11.654677907525041"><ele>2.333333333333333</ele><time>2026-04-04T16:23:26.928Z</time></trkpt><trkpt lat="45.07389996359884" lon="11.654656421266482"><ele>2.0</ele><time>2026-04-04T16:23:27.928Z</time></trkpt><trkpt lat="45.073735893756066" lon="11.654636556431749"><ele>2.0</ele><time>2026-04-04T16:23:28.928Z</time></trkpt><trkpt lat="45.07355757818782" lon="11.654616607250455"><ele>2.0</ele><time>2026-04-04T16:23:29.928Z</time></trkpt><trkpt lat="45.073361329423" lon="11.65460085601497"><ele>2.0</ele><time>2026-04-04T16:23:30.928Z</time></trkpt><trkpt lat="45.073159354670636" lon="11.654576941504075"><ele>1.6666666666666665</ele><time>2026-04-04T16:23:31.928Z</time></trkpt><trkpt lat="45.07295747929695" lon="11.654541123984831"><ele>1.3333333333333333</ele><time>2026-04-04T16:23:32.928Z</time></trkpt><trkpt lat="45.07275334495677" lon="11.654508641675992"><ele>1.0</ele><time>2026-04-04T16:23:33.928Z</time></trkpt><trkpt lat="45.07256354024474" lon="11.654482700976738"><ele>1.6666666666666665</ele><time>2026-04-04T16:23:34.928Z</time></trkpt><trkpt lat="45.072380186866916" lon="11.65445151479401"><ele>2.3333333333333335</ele><time>2026-04-04T16:23:35.928Z</time></trkpt><trkpt lat="45.07219110299505" lon="11.654418971279116"><ele>3.0</ele><time>2026-04-04T16:23:36.928Z</time></trkpt><trkpt lat="45.07199612916748" lon="11.654382482606797"><ele>3.0</ele><time>2026-04-04T16:23:37.928Z</time></trkpt><trkpt lat="45.07180459751684" lon="11.654332947739348"><ele>3.0</ele><time>2026-04-04T16:23:38.928Z</time></trkpt><trkpt lat="45.07160892225275" lon="11.654290206838445"><ele>3.0</ele><time>2026-04-04T16:23:39.928Z</time></trkpt><trkpt lat="45.071425123797106" lon="11.654219292186756"><ele>3.0</ele><time>2026-04-04T16:23:40.928Z</time></trkpt><trkpt lat="45.071246388178565" lon="11.654150820726189"><ele>3.0</ele><time>2026-04-04T16:23:41.928Z</time></trkpt><trkpt lat="45.07106634787828" lon="11.654078649211707"><ele>3.0</ele><time>2026-04-04T16:23:42.928Z</time></trkpt><trkpt lat="45.07088835808682" lon="11.654017766483106"><ele>3.5</ele><time>2026-04-04T16:23:43.928Z</time></trkpt><trkpt lat="45.07072793970343" lon="11.653948850396667"><ele>4.0</ele><time>2026-04-04T16:23:44.928Z</time></trkpt><trkpt lat="45.07059580567552" lon="11.653900331605099"><ele>4.5</ele><time>2026-04-04T16:23:45.928Z</time></trkpt><trkpt lat="45.07046749822641" lon="11.653834195772905"><ele>5.0</ele><time>2026-04-04T16:23:46.928Z</time></trkpt><trkpt lat="45.070337859405605" lon="11.653728782408209"><ele>5.0</ele><time>2026-04-04T16:23:47.928Z</time></trkpt><trkpt lat="45.070203317795254" lon="11.65358598418684"><ele>5.0</ele><time>2026-04-04T16:23:48.928Z</time></trkpt><trkpt lat="45.07006731963283" lon="11.653426083468203"><ele>5.0</ele><time>2026-04-04T16:23:49.928Z</time></trkpt><trkpt lat="45.069912580038675" lon="11.653266687209177"><ele>4.333333333333334</ele><time>2026-04-04T16:23:50.928Z</time></trkpt><trkpt lat="45.06974034690193" lon="11.6531318750905"><ele>3.666666666666667</ele><time>2026-04-04T16:23:51.928Z</time></trkpt><trkpt lat="45.069544426063494" lon="11.652997982485253"><ele>3.0</ele><time>2026-04-04T16:23:52.928Z</time></trkpt><trkpt lat="45.06935048647918" lon="11.6528758474776"><ele>3.666666666666667</ele><time>2026-04-04T16:23:53.928Z</time></trkpt><trkpt lat="45.069153079843915" lon="11.6527692789513"><ele>4.333333333333334</ele><time>2026-04-04T16:23:54.928Z</time></trkpt><trkpt lat="45.0689475102182" lon="11.652680614649285"><ele>5.0</ele><time>2026-04-04T16:23:55.928Z</time></trkpt><trkpt lat="45.06872969502243" lon="11.652608994406537"><ele>5.0</ele><time>2026-04-04T16:23:56.928Z</time></trkpt><trkpt lat="45.068521984585885" lon="11.652531906391575"><ele>5.0</ele><time>2026-04-04T16:23:57.928Z</time></trkpt><trkpt lat="45.06832168537136" lon="11.652459012345647"><ele>5.0</ele><time>2026-04-04T16:23:58.928Z</time></trkpt><trkpt lat="45.06813720534818" lon="11.652389440498277"><ele>4.666666666666667</ele><time>2026-04-04T16:23:59.928Z</time></trkpt><trkpt lat="45.06796972019154" lon="11.65233051891403"><ele>4.333333333333333</ele><time>2026-04-04T16:24:00.928Z</time></trkpt><trkpt lat="45.06781896911336" lon="11.65227501553005"><ele>4.0</ele><time>2026-04-04T16:24:01.928Z</time></trkpt><trkpt lat="45.06767044155641" lon="11.652212021017688"><ele>4.0</ele><time>2026-04-04T16:24:02.928Z</time></trkpt><trkpt lat="45.067513625799386" lon="11.652153551199325"><ele>4.0</ele><time>2026-04-04T16:24:03.928Z</time></trkpt><trkpt lat="45.06734772089452" lon="11.652081213129536"><ele>4.0</ele><time>2026-04-04T16:24:04.928Z</time></trkpt><trkpt lat="45.06717235584159" lon="11.652011516827544"><ele>4.0</ele><time>2026-04-04T16:24:05.928Z</time></trkpt><trkpt lat="45.06698537413999" lon="11.651946227440073"><ele>4.0</ele><time>2026-04-04T16:24:06.928Z</time></trkpt><trkpt lat="45.06678488270123" lon="11.651897595751674"><ele>4.0</ele><time>2026-04-04T16:24:07.928Z</time></trkpt><trkpt lat="45.06658643332785" lon="11.651885055669446"><ele>3.333333333333333</ele><time>2026-04-04T16:24:08.927Z</time></trkpt><trkpt lat="45.06638259302107" lon="11.651889523299408"><ele>2.6666666666666665</ele><time>2026-04-04T16:24:09.927Z</time></trkpt><trkpt lat="45.06617387528518" lon="11.651911414921699"><ele>2.0</ele><time>2026-04-04T16:24:10.927Z</time></trkpt><trkpt lat="45.06598179086458" lon="11.6519550232787"><ele>2.333333333333333</ele><time>2026-04-04T16:24:11.927Z</time></trkpt><trkpt lat="45.06580431661336" lon="11.652032047596045"><ele>2.6666666666666665</ele><time>2026-04-04T16:24:12.927Z</time></trkpt><trkpt lat="45.06564380924991" lon="11.652100441326857"><ele>3.0</ele><time>2026-04-04T16:24:13.927Z</time></trkpt><trkpt lat="45.06548089924656" lon="11.652176588516843"><ele>3.0</ele><time>2026-04-04T16:24:14.927Z</time></trkpt><trkpt lat="45.065314673617216" lon="11.652288507552422"><ele>3.0</ele><time>2026-04-04T16:24:15.927Z</time></trkpt><trkpt lat="45.065128471468334" lon="11.652443429463286"><ele>3.0</ele><time>2026-04-04T16:24:16.927Z</time></trkpt><trkpt lat="45.064939929794704" lon="11.652613247119222"><ele>2.5</ele><time>2026-04-04T16:24:17.927Z</time></trkpt><trkpt lat="45.06472364435912" lon="11.652811771973868"><ele>2.0</ele><time>2026-04-04T16:24:18.927Z</time></trkpt><trkpt lat="45.06450100217101" lon="11.653009320822347"><ele>2.0</ele><time>2026-04-04T16:24:19.927Z</time></trkpt><trkpt lat="45.06428284981655" lon="11.653207795337643"><ele>2.0</ele><time>2026-04-04T16:24:20.927Z</time></trkpt><trkpt lat="45.06407232185905" lon="11.653399330359374"><ele>2.5</ele><time>2026-04-04T16:24:21.927Z</time></trkpt><trkpt lat="45.06386650766691" lon="11.653600489015837"><ele>3.0</ele><time>2026-04-04T16:24:22.927Z</time></trkpt><trkpt lat="45.063654943089574" lon="11.653776886535788"><ele>3.0</ele><time>2026-04-04T16:24:23.927Z</time></trkpt><trkpt lat="45.06345014438" lon="11.65396457760322"><ele>3.0</ele><time>2026-04-04T16:24:24.927Z</time></trkpt><trkpt lat="45.06324807600942" lon="11.654140527257198"><ele>3.0</ele><time>2026-04-04T16:24:25.927Z</time></trkpt><trkpt lat="45.06303454889914" lon="11.654295604235704"><ele>3.0</ele><time>2026-04-04T16:24:26.927Z</time></trkpt><trkpt lat="45.062807549722" lon="11.654426739426391"><ele>3.0</ele><time>2026-04-04T16:24:27.927Z</time></trkpt><trkpt lat="45.06256708548995" lon="11.654516965600433"><ele>3.0</ele><time>2026-04-04T16:24:28.927Z</time></trkpt><trkpt lat="45.062338896609" lon="11.654590341230875"><ele>3.0</ele><time>2026-04-04T16:24:29.927Z</time></trkpt><trkpt lat="45.06211435556028" lon="11.654641265151074"><ele>3.0</ele><time>2026-04-04T16:24:30.928Z</time></trkpt><trkpt lat="45.06187919175312" lon="11.654657333518914"><ele>3.0</ele><time>2026-04-04T16:24:31.929Z</time></trkpt><trkpt lat="45.06164317826774" lon="11.654643827070851"><ele>3.0</ele><time>2026-04-04T16:24:32.929Z</time></trkpt><trkpt lat="45.06139858928051" lon="11.654564012849724"><ele>4.0</ele><time>2026-04-04T16:24:33.928Z</time></trkpt><trkpt lat="45.06115522660938" lon="11.654471514684836"><ele>5.0</ele><time>2026-04-04T16:24:34.928Z</time></trkpt><trkpt lat="45.06091187846021" lon="11.65434127956973"><ele>3.0</ele><time>2026-04-04T16:24:35.928Z</time></trkpt><trkpt lat="45.060671957950646" lon="11.65418127998552"><ele>1.0</ele><time>2026-04-04T16:24:36.928Z</time></trkpt><trkpt lat="45.06042812964654" lon="11.654009370529103"><ele>1.0</ele><time>2026-04-04T16:24:37.928Z</time></trkpt><trkpt lat="45.060186989404954" lon="11.653842611744375"><ele>1.0</ele><time>2026-04-04T16:24:38.928Z</time></trkpt><trkpt lat="45.05994452536086" lon="11.653690370859684"><ele>1.5</ele><time>2026-04-04T16:24:39.928Z</time></trkpt><trkpt lat="45.05968891436795" lon="11.653536463326144"><ele>2.0</ele><time>2026-04-04T16:24:40.928Z</time></trkpt><trkpt lat="45.059431114008454" lon="11.653376082596548"><ele>2.0</ele><time>2026-04-04T16:24:41.928Z</time></trkpt><trkpt lat="45.05915225070447" lon="11.653238575488603"><ele>2.0</ele><time>2026-04-04T16:24:42.928Z</time></trkpt><trkpt lat="45.05886401288381" lon="11.653132737734945"><ele>2.0</ele><time>2026-04-04T16:24:43.928Z</time></trkpt><trkpt lat="45.05856236854805" lon="11.653015946603606"><ele>2.0</ele><time>2026-04-04T16:24:44.928Z</time></trkpt><trkpt lat="45.058260782473816" lon="11.652868941495093"><ele>2.5</ele><time>2026-04-04T16:24:45.928Z</time></trkpt><trkpt lat="45.05796306197231" lon="11.652750915778837"><ele>3.0</ele><time>2026-04-04T16:24:46.928Z</time></trkpt><trkpt lat="45.05766499578034" lon="11.652624218780101"><ele>3.0</ele><time>2026-04-04T16:24:47.928Z</time></trkpt><trkpt lat="45.057370544012485" lon="11.652502332801916"><ele>3.0</ele><time>2026-04-04T16:24:48.928Z</time></trkpt><trkpt lat="45.05708011312316" lon="11.652373869221579"><ele>3.0</ele><time>2026-04-04T16:24:49.928Z</time></trkpt><trkpt lat="45.05679701991068" lon="11.65226414884224"><ele>3.0</ele><time>2026-04-04T16:24:50.928Z</time></trkpt><trkpt lat="45.05655070963651" lon="11.652145966819543"><ele>3.0</ele><time>2026-04-04T16:24:51.928Z</time></trkpt><trkpt lat="45.056324828885145" lon="11.65205103217403"><ele>3.0</ele><time>2026-04-04T16:24:52.927Z</time></trkpt><trkpt lat="45.05611233436661" lon="11.651949863806092"><ele>3.0</ele><time>2026-04-04T16:24:53.927Z</time></trkpt><trkpt lat="45.0559124621346" lon="11.651876922607896"><ele>3.0</ele><time>2026-04-04T16:24:54.927Z</time></trkpt><trkpt lat="45.05570091274946" lon="11.651778006972224"><ele>3.0</ele><time>2026-04-04T16:24:55.927Z</time></trkpt><trkpt lat="45.055486228938285" lon="11.651648854278456"><ele>4.0</ele><time>2026-04-04T16:24:56.927Z</time></trkpt><trkpt lat="45.05528562825507" lon="11.651482473495006"><ele>5.0</ele><time>2026-04-04T16:24:57.927Z</time></trkpt><trkpt lat="45.055096257863624" lon="11.651299871715771"><ele>3.5</ele><time>2026-04-04T16:24:58.927Z</time></trkpt><trkpt lat="45.05492018956124" lon="11.651080154373313"><ele>2.0</ele><time>2026-04-04T16:24:59.927Z</time></trkpt><trkpt lat="45.054757631697115" lon="11.650845880962855"><ele>2.0</ele><time>2026-04-04T16:25:00.927Z</time></trkpt><trkpt lat="45.05460826181203" lon="11.6505946318703"><ele>2.0</ele><time>2026-04-04T16:25:01.927Z</time></trkpt><trkpt lat="45.054467141345064" lon="11.650332606823135"><ele>2.0</ele><time>2026-04-04T16:25:02.927Z</time></trkpt><trkpt lat="45.05433694293967" lon="11.650068634923386"><ele>2.0</ele><time>2026-04-04T16:25:03.927Z</time></trkpt><trkpt lat="45.054212725638955" lon="11.649788276284426"><ele>3.0</ele><time>2026-04-04T16:25:04.927Z</time></trkpt><trkpt lat="45.054089870774014" lon="11.649477286465869"><ele>4.0</ele><time>2026-04-04T16:25:05.927Z</time></trkpt><trkpt lat="45.053966654829274" lon="11.649186072758543"><ele>4.0</ele><time>2026-04-04T16:25:06.927Z</time></trkpt><trkpt lat="45.0538330359145" lon="11.648889071720232"><ele>4.0</ele><time>2026-04-04T16:25:07.927Z</time></trkpt><trkpt lat="45.053704802469916" lon="11.648617973713083"><ele>4.0</ele><time>2026-04-04T16:25:08.927Z</time></trkpt><trkpt lat="45.05358083285476" lon="11.648360074839573"><ele>4.0</ele><time>2026-04-04T16:25:09.927Z</time></trkpt><trkpt lat="45.05345945357078" lon="11.648119527413206"><ele>4.0</ele><time>2026-04-04T16:25:10.927Z</time></trkpt><trkpt lat="45.05332820268879" lon="11.64790822482349"><ele>5.0</ele><time>2026-04-04T16:25:11.927Z</time></trkpt><trkpt lat="45.053206348435644" lon="11.647751248066765"><ele>6.0</ele><time>2026-04-04T16:25:12.927Z</time></trkpt><trkpt lat="45.05310584919413" lon="11.647606360366215"><ele>7.0</ele><time>2026-04-04T16:25:13.927Z</time></trkpt><trkpt lat="45.05301498183832" lon="11.647487747580726"><ele>8.0</ele><time>2026-04-04T16:25:14.927Z</time></trkpt><trkpt lat="45.05293011903072" lon="11.647367233688621"><ele>7.999999999999999</ele><time>2026-04-04T16:25:15.927Z</time></trkpt><trkpt lat="45.05285534303604" lon="11.647272418022913"><ele>8.0</ele><time>2026-04-04T16:25:16.927Z</time></trkpt><trkpt lat="45.05279758375736" lon="11.64720020624393"><ele>8.0</ele><time>2026-04-04T16:25:17.927Z</time></trkpt><trkpt lat="45.05273729841282" lon="11.647148755569523"><ele>8.0</ele><time>2026-04-04T16:25:19.927Z</time></trkpt><trkpt lat="45.05263508511998" lon="11.647048316619061"><ele>7.999999999999999</ele><time>2026-04-04T16:25:49.926Z</time></trkpt><trkpt lat="45.05258183938814" lon="11.646972676858022"><ele>8.0</ele><time>2026-04-04T16:25:50.926Z</time></trkpt><trkpt lat="45.05251809059329" lon="11.646890856446921"><ele>8.166666666666666</ele><time>2026-04-04T16:25:51.926Z</time></trkpt><trkpt lat="45.05246127674385" lon="11.646804028236202"><ele>8.333333333333332</ele><time>2026-04-04T16:25:52.926Z</time></trkpt><trkpt lat="45.05240497755534" lon="11.646728953742642"><ele>8.5</ele><time>2026-04-04T16:25:53.926Z</time></trkpt><trkpt lat="45.05234942877958" lon="11.646657873543704"><ele>8.666666666666666</ele><time>2026-04-04T16:25:54.926Z</time></trkpt><trkpt lat="45.052289307765236" lon="11.646552036824511"><ele>8.833333333333334</ele><time>2026-04-04T16:25:55.926Z</time></trkpt><trkpt lat="45.05221661880163" lon="11.646464660173976"><ele>9.0</ele><time>2026-04-04T16:25:56.926Z</time></trkpt><trkpt lat="45.052141606603094" lon="11.646374351259844"><ele>9.0</ele><time>2026-04-04T16:25:57.926Z</time></trkpt><trkpt lat="45.05206645686843" lon="11.646310982713352"><ele>9.0</ele><time>2026-04-04T16:25:58.926Z</time></trkpt><trkpt lat="45.0520062705579" lon="11.646240282102394"><ele>9.0</ele><time>2026-04-04T16:25:59.926Z</time></trkpt><trkpt lat="45.051957523311906" lon="11.646160747925967"><ele>9.0</ele><time>2026-04-04T16:26:00.926Z</time></trkpt><trkpt lat="45.05189604588384" lon="11.646086691253215"><ele>9.0</ele><time>2026-04-04T16:26:01.926Z</time></trkpt><trkpt lat="45.05184069530684" lon="11.64598282806069"><ele>9.0</ele><time>2026-04-04T16:26:02.926Z</time></trkpt><trkpt lat="45.051785558820214" lon="11.645854137768964"><ele>9.0</ele><time>2026-04-04T16:26:03.926Z</time></trkpt><trkpt lat="45.05172054556445" lon="11.645738293012512"><ele>9.0</ele><time>2026-04-04T16:26:04.926Z</time></trkpt><trkpt lat="45.05166210613875" lon="11.645617252749403"><ele>9.0</ele><time>2026-04-04T16:26:05.926Z</time></trkpt><trkpt lat="45.05161423999778" lon="11.645480807437364"><ele>9.0</ele><time>2026-04-04T16:26:06.926Z</time></trkpt><trkpt lat="45.0515746508316" lon="11.645333999330576"><ele>9.0</ele><time>2026-04-04T16:26:07.926Z</time></trkpt><trkpt lat="45.051518515297985" lon="11.64519432132448"><ele>9.0</ele><time>2026-04-04T16:26:08.926Z</time></trkpt><trkpt lat="45.05144622163251" lon="11.64506735317057"><ele>9.0</ele><time>2026-04-04T16:26:09.926Z</time></trkpt><trkpt lat="45.051345800889344" lon="11.64497189321474"><ele>9.0</ele><time>2026-04-04T16:26:10.926Z</time></trkpt><trkpt lat="45.0512299439267" lon="11.644898327900092"><ele>9.0</ele><time>2026-04-04T16:26:11.926Z</time></trkpt><trkpt lat="45.05110831301821" lon="11.644858624360921"><ele>9.0</ele><time>2026-04-04T16:26:12.926Z</time></trkpt><trkpt lat="45.050980674129505" lon="11.644847104944045"><ele>9.0</ele><time>2026-04-04T16:26:13.926Z</time></trkpt><trkpt lat="45.050856292434744" lon="11.64484313120192"><ele>9.0</ele><time>2026-04-04T16:26:14.926Z</time></trkpt><trkpt lat="45.05071874371929" lon="11.644860282037316"><ele>9.0</ele><time>2026-04-04T16:26:15.926Z</time></trkpt><trkpt lat="45.05056956730987" lon="11.64490932719603"><ele>8.333333333333334</ele><time>2026-04-04T16:26:16.926Z</time></trkpt><trkpt lat="45.05041459964734" lon="11.644951996656859"><ele>7.666666666666667</ele><time>2026-04-04T16:26:17.926Z</time></trkpt><trkpt lat="45.05023559476474" lon="11.644999187615884"><ele>7.0</ele><time>2026-04-04T16:26:18.926Z</time></trkpt><trkpt lat="45.05006109181946" lon="11.645050328538328"><ele>7.0</ele><time>2026-04-04T16:26:19.925Z</time></trkpt><trkpt lat="45.04987746424883" lon="11.645108149269655"><ele>7.0</ele><time>2026-04-04T16:26:20.925Z</time></trkpt><trkpt lat="45.049697810175154" lon="11.645183573770197"><ele>7.0</ele><time>2026-04-04T16:26:21.925Z</time></trkpt><trkpt lat="45.04952236751525" lon="11.645270755484294"><ele>7.333333333333334</ele><time>2026-04-04T16:26:22.925Z</time></trkpt><trkpt lat="45.049352835243894" lon="11.645366061996066"><ele>7.666666666666666</ele><time>2026-04-04T16:26:23.925Z</time></trkpt><trkpt lat="45.04918118457988" lon="11.645478222790306"><ele>8.0</ele><time>2026-04-04T16:26:24.925Z</time></trkpt><trkpt lat="45.04900367397201" lon="11.645589871882928"><ele>8.0</ele><time>2026-04-04T16:26:25.925Z</time></trkpt><trkpt lat="45.048817853686316" lon="11.645726372080263"><ele>8.0</ele><time>2026-04-04T16:26:26.925Z</time></trkpt><trkpt lat="45.04862699297963" lon="11.645888493714489"><ele>8.0</ele><time>2026-04-04T16:26:27.925Z</time></trkpt><trkpt lat="45.048434274063325" lon="11.646064861824218"><ele>7.5</ele><time>2026-04-04T16:26:28.925Z</time></trkpt><trkpt lat="45.04824132662913" lon="11.646250427405223"><ele>7.0</ele><time>2026-04-04T16:26:29.925Z</time></trkpt><trkpt lat="45.04806315841154" lon="11.646437310049023"><ele>7.0</ele><time>2026-04-04T16:26:30.925Z</time></trkpt><trkpt lat="45.04788653109775" lon="11.64661709091958"><ele>7.0</ele><time>2026-04-04T16:26:31.925Z</time></trkpt><trkpt lat="45.04770995757591" lon="11.646762387298578"><ele>7.0</ele><time>2026-04-04T16:26:32.925Z</time></trkpt><trkpt lat="45.047522559522356" lon="11.646903371970243"><ele>6.333333333333334</ele><time>2026-04-04T16:26:33.925Z</time></trkpt><trkpt lat="45.04731783356958" lon="11.647018869358591"><ele>5.666666666666667</ele><time>2026-04-04T16:26:34.925Z</time></trkpt><trkpt lat="45.047109045518305" lon="11.647136125498653"><ele>5.0</ele><time>2026-04-04T16:26:35.925Z</time></trkpt><trkpt lat="45.046906155958226" lon="11.647251447797833"><ele>5.0</ele><time>2026-04-04T16:26:36.927Z</time></trkpt><trkpt lat="45.0466951142248" lon="11.647366901896001"><ele>5.0</ele><time>2026-04-04T16:26:37.927Z</time></trkpt><trkpt lat="45.04646887372236" lon="11.647498913992896"><ele>5.0</ele><time>2026-04-04T16:26:38.927Z</time></trkpt><trkpt lat="45.04622883962834" lon="11.647649003403489"><ele>5.0</ele><time>2026-04-04T16:26:39.927Z</time></trkpt><trkpt lat="45.04598521171786" lon="11.647802844016198"><ele>4.5</ele><time>2026-04-04T16:26:40.927Z</time></trkpt><trkpt lat="45.04573795244623" lon="11.647953047838518"><ele>4.0</ele><time>2026-04-04T16:26:41.927Z</time></trkpt><trkpt lat="45.04549541452639" lon="11.648090015122799"><ele>4.0</ele><time>2026-04-04T16:26:42.926Z</time></trkpt><trkpt lat="45.045237782689526" lon="11.648231130834818"><ele>4.0</ele><time>2026-04-04T16:26:43.926Z</time></trkpt><trkpt lat="45.04498412312243" lon="11.648384293733091"><ele>4.0</ele><time>2026-04-04T16:26:44.926Z</time></trkpt><trkpt lat="45.04473308022376" lon="11.648540364520409"><ele>4.0</ele><time>2026-04-04T16:26:45.926Z</time></trkpt><trkpt lat="45.04447782831109" lon="11.648703171146034"><ele>4.0</ele><time>2026-04-04T16:26:46.927Z</time></trkpt><trkpt lat="45.04422257860837" lon="11.648855329250349"><ele>4.0</ele><time>2026-04-04T16:26:47.927Z</time></trkpt><trkpt lat="45.043969389630675" lon="11.649008166589885"><ele>4.0</ele><time>2026-04-04T16:26:48.926Z</time></trkpt><trkpt lat="45.04374061389226" lon="11.649142884498195"><ele>4.0</ele><time>2026-04-04T16:26:49.926Z</time></trkpt><trkpt lat="45.04352657342312" lon="11.649269934958475"><ele>4.0</ele><time>2026-04-04T16:26:50.926Z</time></trkpt><trkpt lat="45.043311638620516" lon="11.649400849223237"><ele>4.0</ele><time>2026-04-04T16:26:51.926Z</time></trkpt><trkpt lat="45.04308635002739" lon="11.6495282870613"><ele>5.0</ele><time>2026-04-04T16:26:52.926Z</time></trkpt><trkpt lat="45.04285038871489" lon="11.649667643536763"><ele>6.0</ele><time>2026-04-04T16:26:53.926Z</time></trkpt><trkpt lat="45.04261402721831" lon="11.649802031966336"><ele>5.5</ele><time>2026-04-04T16:26:54.926Z</time></trkpt><trkpt lat="45.042361239406375" lon="11.649907968594976"><ele>5.0</ele><time>2026-04-04T16:26:55.926Z</time></trkpt><trkpt lat="45.042095228374656" lon="11.649999753832612"><ele>5.0</ele><time>2026-04-04T16:26:56.926Z</time></trkpt><trkpt lat="45.04182039661991" lon="11.650108403666104"><ele>5.0</ele><time>2026-04-04T16:26:57.926Z</time></trkpt><trkpt lat="45.04153243561216" lon="11.650227325376315"><ele>5.5</ele><time>2026-04-04T16:26:58.926Z</time></trkpt><trkpt lat="45.04123800944951" lon="11.650355520008292"><ele>6.0</ele><time>2026-04-04T16:26:59.926Z</time></trkpt><trkpt lat="45.040947106449444" lon="11.650487323995767"><ele>5.0</ele><time>2026-04-04T16:27:00.926Z</time></trkpt><trkpt lat="45.040657773425615" lon="11.650602233392963"><ele>4.0</ele><time>2026-04-04T16:27:01.926Z</time></trkpt><trkpt lat="45.040362986660675" lon="11.650720061413512"><ele>4.0</ele><time>2026-04-04T16:27:02.926Z</time></trkpt><trkpt lat="45.04006568058237" lon="11.650847727104807"><ele>4.0</ele><time>2026-04-04T16:27:03.926Z</time></trkpt><trkpt lat="45.03977289418558" lon="11.650980069276137"><ele>3.5</ele><time>2026-04-04T16:27:04.926Z</time></trkpt><trkpt lat="45.03950159827509" lon="11.65110204139475"><ele>3.0</ele><time>2026-04-04T16:27:05.926Z</time></trkpt><trkpt lat="45.0392510415094" lon="11.651206288502944"><ele>3.5</ele><time>2026-04-04T16:27:06.926Z</time></trkpt><trkpt lat="45.03901780288506" lon="11.651309029911069"><ele>4.0</ele><time>2026-04-04T16:27:07.926Z</time></trkpt><trkpt lat="45.03881877913155" lon="11.651390031071369"><ele>4.0</ele><time>2026-04-04T16:27:08.926Z</time></trkpt><trkpt lat="45.03864941580399" lon="11.651466049465812"><ele>4.0</ele><time>2026-04-04T16:27:09.926Z</time></trkpt><trkpt lat="45.038496297520574" lon="11.651532443167891"><ele>4.0</ele><time>2026-04-04T16:27:10.926Z</time></trkpt><trkpt lat="45.038366598668304" lon="11.651586542289348"><ele>4.0</ele><time>2026-04-04T16:27:11.926Z</time></trkpt><trkpt lat="45.03823574922012" lon="11.651630879894588"><ele>4.0</ele><time>2026-04-04T16:27:12.926Z</time></trkpt><trkpt lat="45.038093238017666" lon="11.651701738962672"><ele>4.0</ele><time>2026-04-04T16:27:13.926Z</time></trkpt><trkpt lat="45.03793154330806" lon="11.65172905078488"><ele>4.0</ele><time>2026-04-04T16:27:14.926Z</time></trkpt><trkpt lat="45.03775823460141" lon="11.651722061967524"><ele>4.0</ele><time>2026-04-04T16:27:15.926Z</time></trkpt><trkpt lat="45.03757558381258" lon="11.651668652403231"><ele>4.0</ele><time>2026-04-04T16:27:16.925Z</time></trkpt><trkpt lat="45.037384163862484" lon="11.651573449914084"><ele>4.0</ele><time>2026-04-04T16:27:17.925Z</time></trkpt><trkpt lat="45.03719735136416" lon="11.651484904991994"><ele>4.0</ele><time>2026-04-04T16:27:18.925Z</time></trkpt><trkpt lat="45.036987435185615" lon="11.651382627538917"><ele>4.0</ele><time>2026-04-04T16:27:19.925Z</time></trkpt><trkpt lat="45.03677774696047" lon="11.65130597154106"><ele>4.0</ele><time>2026-04-04T16:27:20.925Z</time></trkpt><trkpt lat="45.036578712940575" lon="11.651222277528566"><ele>4.0</ele><time>2026-04-04T16:27:21.925Z</time></trkpt><trkpt lat="45.03638555635861" lon="11.65114325994137"><ele>4.0</ele><time>2026-04-04T16:27:22.925Z</time></trkpt><trkpt lat="45.036184205205075" lon="11.651058608458257"><ele>4.0</ele><time>2026-04-04T16:27:23.925Z</time></trkpt><trkpt lat="45.03596832696599" lon="11.650986279305723"><ele>3.5</ele><time>2026-04-04T16:27:24.925Z</time></trkpt><trkpt lat="45.03574713651391" lon="11.650924311995679"><ele>3.0</ele><time>2026-04-04T16:27:25.925Z</time></trkpt><trkpt lat="45.035514440752316" lon="11.650861432994377"><ele>3.0</ele><time>2026-04-04T16:27:26.925Z</time></trkpt><trkpt lat="45.0352799165344" lon="11.650819987155144"><ele>3.0</ele><time>2026-04-04T16:27:27.925Z</time></trkpt><trkpt lat="45.03504693358514" lon="11.650828520301353"><ele>3.333333333333333</ele><time>2026-04-04T16:27:28.925Z</time></trkpt><trkpt lat="45.03483380560776" lon="11.65082708221464"><ele>3.6666666666666665</ele><time>2026-04-04T16:27:29.925Z</time></trkpt><trkpt lat="45.034628828830826" lon="11.650793625574611"><ele>4.0</ele><time>2026-04-04T16:27:30.925Z</time></trkpt><trkpt lat="45.034435867419894" lon="11.650783763318689"><ele>4.0</ele><time>2026-04-04T16:27:31.925Z</time></trkpt><trkpt lat="45.0342469755409" lon="11.650788191501391"><ele>4.0</ele><time>2026-04-04T16:27:32.925Z</time></trkpt><trkpt lat="45.03406674809312" lon="11.650779517244361"><ele>4.0</ele><time>2026-04-04T16:27:33.925Z</time></trkpt><trkpt lat="45.03389152544834" lon="11.650753230956786"><ele>3.6666666666666665</ele><time>2026-04-04T16:27:34.925Z</time></trkpt><trkpt lat="45.03370973291182" lon="11.650732672828047"><ele>3.333333333333333</ele><time>2026-04-04T16:27:35.925Z</time></trkpt><trkpt lat="45.03353580034574" lon="11.650713350820377"><ele>3.0</ele><time>2026-04-04T16:27:36.925Z</time></trkpt><trkpt lat="45.03336481019382" lon="11.650702263227325"><ele>4.0</ele><time>2026-04-04T16:27:37.925Z</time></trkpt><trkpt lat="45.03320212808767" lon="11.65067104169772"><ele>5.0</ele><time>2026-04-04T16:27:38.925Z</time></trkpt><trkpt lat="45.033033755369495" lon="11.65063069707048"><ele>6.0</ele><time>2026-04-04T16:27:39.925Z</time></trkpt><trkpt lat="45.03286784322551" lon="11.650573815028887"><ele>6.0</ele><time>2026-04-04T16:27:40.925Z</time></trkpt><trkpt lat="45.032701644158735" lon="11.650513430867774"><ele>6.0</ele><time>2026-04-04T16:27:41.925Z</time></trkpt><trkpt lat="45.03253257958983" lon="11.650447977469787"><ele>6.0</ele><time>2026-04-04T16:27:42.925Z</time></trkpt><trkpt lat="45.03237140650235" lon="11.650392892906428"><ele>6.0</ele><time>2026-04-04T16:27:43.925Z</time></trkpt><trkpt lat="45.03222214682114" lon="11.65034962548384"><ele>6.0</ele><time>2026-04-04T16:27:44.925Z</time></trkpt><trkpt lat="45.032066248526924" lon="11.650294751223155"><ele>6.0</ele><time>2026-04-04T16:27:45.925Z</time></trkpt><trkpt lat="45.03190278014938" lon="11.650219963003199"><ele>6.0</ele><time>2026-04-04T16:27:46.925Z</time></trkpt><trkpt lat="45.03172880353183" lon="11.650147981515271"><ele>6.0</ele><time>2026-04-04T16:27:47.925Z</time></trkpt><trkpt lat="45.03155156647786" lon="11.650081338104782"><ele>6.0</ele><time>2026-04-04T16:27:48.925Z</time></trkpt><trkpt lat="45.03137725237528" lon="11.650016140894692"><ele>5.666666666666667</ele><time>2026-04-04T16:27:49.925Z</time></trkpt><trkpt lat="45.03121839800512" lon="11.649938396370787"><ele>5.333333333333334</ele><time>2026-04-04T16:27:50.925Z</time></trkpt><trkpt lat="45.031064589964245" lon="11.649866171560843"><ele>5.0</ele><time>2026-04-04T16:27:51.925Z</time></trkpt><trkpt lat="45.030904119835114" lon="11.649790449279857"><ele>5.0</ele><time>2026-04-04T16:27:52.925Z</time></trkpt><trkpt lat="45.030748615546244" lon="11.649701662640508"><ele>5.0</ele><time>2026-04-04T16:27:53.925Z</time></trkpt><trkpt lat="45.03062393716515" lon="11.649596106127904"><ele>5.0</ele><time>2026-04-04T16:27:54.925Z</time></trkpt><trkpt lat="45.03051305628061" lon="11.649485151148998"><ele>5.0</ele><time>2026-04-04T16:27:55.925Z</time></trkpt><trkpt lat="45.030401478937954" lon="11.64937631749868"><ele>5.5</ele><time>2026-04-04T16:27:56.925Z</time></trkpt><trkpt lat="45.03030417013541" lon="11.649269328276583"><ele>6.0</ele><time>2026-04-04T16:27:57.925Z</time></trkpt><trkpt lat="45.030202268699384" lon="11.649163345813715"><ele>6.5</ele><time>2026-04-04T16:27:58.925Z</time></trkpt><trkpt lat="45.03009525495628" lon="11.649083510977157"><ele>7.0</ele><time>2026-04-04T16:27:59.925Z</time></trkpt><trkpt lat="45.02999531404263" lon="11.64899475362649"><ele>7.0</ele><time>2026-04-04T16:28:00.924Z</time></trkpt><trkpt lat="45.029899097307705" lon="11.648897576646075"><ele>6.999999999999999</ele><time>2026-04-04T16:28:01.924Z</time></trkpt><trkpt lat="45.02980872542494" lon="11.648810879035802"><ele>6.999999999999999</ele><time>2026-04-04T16:28:02.924Z</time></trkpt><trkpt lat="45.02973997302312" lon="11.64871987530443"><ele>7.0</ele><time>2026-04-04T16:28:03.924Z</time></trkpt><trkpt lat="45.029676966650996" lon="11.648663448438878"><ele>7.0</ele><time>2026-04-04T16:28:04.924Z</time></trkpt><trkpt lat="45.029603329242995" lon="11.648585341830422"><ele>7.0</ele><time>2026-04-04T16:28:06.924Z</time></trkpt><trkpt lat="45.029412589101774" lon="11.648444112809354"><ele>7.0</ele><time>2026-04-04T16:28:28.924Z</time></trkpt><trkpt lat="45.029326216925185" lon="11.648389587194828"><ele>7.0</ele><time>2026-04-04T16:28:29.924Z</time></trkpt><trkpt lat="45.02922093068795" lon="11.648333085817972"><ele>7.0</ele><time>2026-04-04T16:28:30.924Z</time></trkpt><trkpt lat="45.02911311530726" lon="11.648236200412754"><ele>7.0</ele><time>2026-04-04T16:28:31.924Z</time></trkpt><trkpt lat="45.028963576996574" lon="11.648172352526299"><ele>7.0</ele><time>2026-04-04T16:28:32.924Z</time></trkpt><trkpt lat="45.02880971700508" lon="11.64815412680153"><ele>7.0</ele><time>2026-04-04T16:28:33.924Z</time></trkpt><trkpt lat="45.028662350484986" lon="11.648112758983624"><ele>7.0</ele><time>2026-04-04T16:28:34.924Z</time></trkpt><trkpt lat="45.028512074312175" lon="11.648048396411008"><ele>7.0</ele><time>2026-04-04T16:28:35.924Z</time></trkpt><trkpt lat="45.02835624925145" lon="11.647983371483008"><ele>7.0</ele><time>2026-04-04T16:28:36.924Z</time></trkpt><trkpt lat="45.02821548890192" lon="11.647856688703056"><ele>6.666666666666667</ele><time>2026-04-04T16:28:37.924Z</time></trkpt><trkpt lat="45.02805510124374" lon="11.647789656638315"><ele>6.333333333333334</ele><time>2026-04-04T16:28:38.924Z</time></trkpt><trkpt lat="45.027893452721855" lon="11.647722140608405"><ele>6.0</ele><time>2026-04-04T16:28:39.924Z</time></trkpt><trkpt lat="45.02773249105901" lon="11.64765518985817"><ele>6.0</ele><time>2026-04-04T16:28:40.924Z</time></trkpt><trkpt lat="45.02757436792611" lon="11.647589597228201"><ele>6.0</ele><time>2026-04-04T16:28:41.924Z</time></trkpt><trkpt lat="45.02742132112962" lon="11.647526110372207"><ele>6.0</ele><time>2026-04-04T16:28:42.925Z</time></trkpt><trkpt lat="45.02728763110782" lon="11.647469084656214"><ele>6.0</ele><time>2026-04-04T16:28:43.925Z</time></trkpt><trkpt lat="45.02717723139333" lon="11.647421093250186"><ele>6.0</ele><time>2026-04-04T16:28:44.925Z</time></trkpt><trkpt lat="45.027084487862034" lon="11.647380182343683"><ele>6.0</ele><time>2026-04-04T16:28:45.925Z</time></trkpt><trkpt lat="45.02700187978975" lon="11.64734374233968"><ele>6.0</ele><time>2026-04-04T16:28:46.924Z</time></trkpt><trkpt lat="45.02691517999993" lon="11.647376790100203"><ele>6.0</ele><time>2026-04-04T16:28:47.924Z</time></trkpt><trkpt lat="45.02681352593978" lon="11.64734462538966"><ele>6.0</ele><time>2026-04-04T16:28:49.925Z</time></trkpt><trkpt lat="45.026731759850556" lon="11.647291564258968"><ele>6.0</ele><time>2026-04-04T16:29:02.925Z</time></trkpt><trkpt lat="45.02670386755473" lon="11.647499921698675"><ele>6.0</ele><time>2026-04-04T16:29:03.925Z</time></trkpt><trkpt lat="45.02671580724862" lon="11.647643937583997"><ele>6.0</ele><time>2026-04-04T16:29:04.925Z</time></trkpt><trkpt lat="45.02672472224302" lon="11.647811230362253"><ele>6.0</ele><time>2026-04-04T16:29:05.925Z</time></trkpt><trkpt lat="45.02674209374882" lon="11.648001426955837"><ele>6.0</ele><time>2026-04-04T16:29:06.925Z</time></trkpt><trkpt lat="45.026738453619295" lon="11.648210053817623"><ele>6.0</ele><time>2026-04-04T16:29:07.925Z</time></trkpt><trkpt lat="45.02674739628782" lon="11.648446502951208"><ele>6.0</ele><time>2026-04-04T16:29:08.925Z</time></trkpt><trkpt lat="45.0267556422342" lon="11.648677140838727"><ele>6.0</ele><time>2026-04-04T16:29:09.925Z</time></trkpt><trkpt lat="45.02676412199362" lon="11.648914411682926"><ele>6.0</ele><time>2026-04-04T16:29:10.925Z</time></trkpt><trkpt lat="45.026774135726306" lon="11.649177105255635"><ele>6.0</ele><time>2026-04-04T16:29:11.925Z</time></trkpt><trkpt lat="45.026784144239095" lon="11.649442541821962"><ele>6.0</ele><time>2026-04-04T16:29:12.925Z</time></trkpt><trkpt lat="45.02679447950484" lon="11.649728792220982"><ele>6.0</ele><time>2026-04-04T16:29:13.925Z</time></trkpt><trkpt lat="45.02680560833124" lon="11.650037021493128"><ele>6.0</ele><time>2026-04-04T16:29:14.925Z</time></trkpt><trkpt lat="45.026817290722086" lon="11.65036058256881"><ele>6.0</ele><time>2026-04-04T16:29:15.925Z</time></trkpt><trkpt lat="45.02683050872098" lon="11.650692119887667"><ele>6.0</ele><time>2026-04-04T16:29:16.925Z</time></trkpt><trkpt lat="45.02684472174405" lon="11.651042807513912"><ele>6.0</ele><time>2026-04-04T16:29:17.925Z</time></trkpt><trkpt lat="45.026858590050516" lon="11.651390722742509"><ele>6.5</ele><time>2026-04-04T16:29:18.925Z</time></trkpt><trkpt lat="45.02687041138897" lon="11.651727182215499"><ele>7.0</ele><time>2026-04-04T16:29:19.925Z</time></trkpt><trkpt lat="45.02688144603349" lon="11.652041250706679"><ele>7.0</ele><time>2026-04-04T16:29:20.925Z</time></trkpt><trkpt lat="45.026889253214186" lon="11.652341877503828"><ele>7.0</ele><time>2026-04-04T16:29:21.925Z</time></trkpt><trkpt lat="45.026882367015894" lon="11.652616367781253"><ele>7.0</ele><time>2026-04-04T16:29:22.925Z</time></trkpt><trkpt lat="45.02685722633633" lon="11.652888423548"><ele>6.666666666666667</ele><time>2026-04-04T16:29:23.925Z</time></trkpt><trkpt lat="45.026814224980335" lon="11.65315770707108"><ele>6.333333333333334</ele><time>2026-04-04T16:29:24.925Z</time></trkpt><trkpt lat="45.02674042132291" lon="11.653423629112034"><ele>6.0</ele><time>2026-04-04T16:29:25.924Z</time></trkpt><trkpt lat="45.02664633164348" lon="11.6536981539781"><ele>6.0</ele><time>2026-04-04T16:29:26.924Z</time></trkpt><trkpt lat="45.02652674567723" lon="11.653965562226247"><ele>6.0</ele><time>2026-04-04T16:29:27.924Z</time></trkpt><trkpt lat="45.02637936452053" lon="11.65422898102268"><ele>5.5</ele><time>2026-04-04T16:29:28.924Z</time></trkpt><trkpt lat="45.026218281694376" lon="11.654489195559043"><ele>5.0</ele><time>2026-04-04T16:29:29.924Z</time></trkpt><trkpt lat="45.02605368406588" lon="11.654744286080982"><ele>5.0</ele><time>2026-04-04T16:29:30.924Z</time></trkpt><trkpt lat="45.025893455577794" lon="11.655003963641606"><ele>5.0</ele><time>2026-04-04T16:29:31.924Z</time></trkpt><trkpt lat="45.02576442261717" lon="11.655274318706006"><ele>4.666666666666667</ele><time>2026-04-04T16:29:32.924Z</time></trkpt><trkpt lat="45.025677314686725" lon="11.655536296166284"><ele>4.333333333333333</ele><time>2026-04-04T16:29:33.924Z</time></trkpt><trkpt lat="45.02562464975594" lon="11.655802622094772"><ele>4.0</ele><time>2026-04-04T16:29:34.924Z</time></trkpt><trkpt lat="45.02559161970341" lon="11.656078892930402"><ele>4.333333333333333</ele><time>2026-04-04T16:29:35.924Z</time></trkpt><trkpt lat="45.02556449328892" lon="11.656381411238105"><ele>4.666666666666667</ele><time>2026-04-04T16:29:36.924Z</time></trkpt><trkpt lat="45.025522424471255" lon="11.656695650807457"><ele>5.0</ele><time>2026-04-04T16:29:37.924Z</time></trkpt><trkpt lat="45.02545632641893" lon="11.657032793389455"><ele>5.0</ele><time>2026-04-04T16:29:38.924Z</time></trkpt><trkpt lat="45.02538127414272" lon="11.65739546178904"><ele>5.0</ele><time>2026-04-04T16:29:39.924Z</time></trkpt><trkpt lat="45.025304082417186" lon="11.657771947517414"><ele>4.5</ele><time>2026-04-04T16:29:40.924Z</time></trkpt><trkpt lat="45.0252298462092" lon="11.658145944162726"><ele>4.0</ele><time>2026-04-04T16:29:41.924Z</time></trkpt><trkpt lat="45.02515751749495" lon="11.658515126707355"><ele>4.0</ele><time>2026-04-04T16:29:42.924Z</time></trkpt><trkpt lat="45.025089049616845" lon="11.658866856219307"><ele>4.0</ele><time>2026-04-04T16:29:43.924Z</time></trkpt><trkpt lat="45.02502583426813" lon="11.659206924635797"><ele>4.5</ele><time>2026-04-04T16:29:44.924Z</time></trkpt><trkpt lat="45.02496241664099" lon="11.659548099379885"><ele>5.0</ele><time>2026-04-04T16:29:45.924Z</time></trkpt><trkpt lat="45.024906373132474" lon="11.659889430855674"><ele>5.0</ele><time>2026-04-04T16:29:46.924Z</time></trkpt><trkpt lat="45.02486299626354" lon="11.66023882046935"><ele>5.0</ele><time>2026-04-04T16:29:47.924Z</time></trkpt><trkpt lat="45.0248264790982" lon="11.660571659913504"><ele>5.0</ele><time>2026-04-04T16:29:48.924Z</time></trkpt><trkpt lat="45.02479315552434" lon="11.660905182781232"><ele>5.0</ele><time>2026-04-04T16:29:49.924Z</time></trkpt><trkpt lat="45.024764420384926" lon="11.66120362862982"><ele>5.0</ele><time>2026-04-04T16:29:50.924Z</time></trkpt><trkpt lat="45.02473980638111" lon="11.661466161680142"><ele>5.0</ele><time>2026-04-04T16:29:51.924Z</time></trkpt><trkpt lat="45.0247184428215" lon="11.661711137720909"><ele>5.0</ele><time>2026-04-04T16:29:52.924Z</time></trkpt><trkpt lat="45.02469515379885" lon="11.661937320549802"><ele>5.0</ele><time>2026-04-04T16:29:53.924Z</time></trkpt><trkpt lat="45.02465718049635" lon="11.662143089029774"><ele>5.0</ele><time>2026-04-04T16:29:54.924Z</time></trkpt><trkpt lat="45.024611461377965" lon="11.662373693517178"><ele>5.0</ele><time>2026-04-04T16:29:55.924Z</time></trkpt><trkpt lat="45.02457138388955" lon="11.66263888929468"><ele>4.666666666666667</ele><time>2026-04-04T16:29:56.924Z</time></trkpt><trkpt lat="45.02455181574947" lon="11.662935619493705"><ele>4.333333333333333</ele><time>2026-04-04T16:29:57.924Z</time></trkpt><trkpt lat="45.024538359430736" lon="11.663242921952659"><ele>4.0</ele><time>2026-04-04T16:29:58.924Z</time></trkpt><trkpt lat="45.02454128859926" lon="11.663578490787561"><ele>4.5</ele><time>2026-04-04T16:29:59.924Z</time></trkpt><trkpt lat="45.02455811409843" lon="11.663929523589811"><ele>5.0</ele><time>2026-04-04T16:30:00.924Z</time></trkpt><trkpt lat="45.02457697037409" lon="11.664290843943178"><ele>5.0</ele><time>2026-04-04T16:30:01.924Z</time></trkpt><trkpt lat="45.024597275110516" lon="11.66463159065303"><ele>5.0</ele><time>2026-04-04T16:30:02.924Z</time></trkpt><trkpt lat="45.02461074171316" lon="11.664950452870432"><ele>5.0</ele><time>2026-04-04T16:30:03.924Z</time></trkpt><trkpt lat="45.02461372628543" lon="11.665251640777713"><ele>5.0</ele><time>2026-04-04T16:30:04.924Z</time></trkpt><trkpt lat="45.02460495019877" lon="11.665567292454318"><ele>5.0</ele><time>2026-04-04T16:30:05.924Z</time></trkpt><trkpt lat="45.02458683290723" lon="11.66589162175783"><ele>4.5</ele><time>2026-04-04T16:30:06.924Z</time></trkpt><trkpt lat="45.024571786776065" lon="11.666226384344272"><ele>4.0</ele><time>2026-04-04T16:30:07.924Z</time></trkpt><trkpt lat="45.024562853199356" lon="11.666571552887572"><ele>4.0</ele><time>2026-04-04T16:30:08.923Z</time></trkpt><trkpt lat="45.02456719553091" lon="11.66691900349962"><ele>4.0</ele><time>2026-04-04T16:30:09.923Z</time></trkpt><trkpt lat="45.02459208798453" lon="11.667274341930613"><ele>4.0</ele><time>2026-04-04T16:30:10.923Z</time></trkpt><trkpt lat="45.024600349395214" lon="11.66763909347956"><ele>4.0</ele><time>2026-04-04T16:30:11.923Z</time></trkpt><trkpt lat="45.02464367065201" lon="11.668001203431269"><ele>4.0</ele><time>2026-04-04T16:30:12.923Z</time></trkpt><trkpt lat="45.024684554357684" lon="11.668348805988117"><ele>4.0</ele><time>2026-04-04T16:30:13.923Z</time></trkpt><trkpt lat="45.024713482859326" lon="11.668645216015673"><ele>4.333333333333333</ele><time>2026-04-04T16:30:14.923Z</time></trkpt><trkpt lat="45.0247462114145" lon="11.668917564309293"><ele>4.666666666666667</ele><time>2026-04-04T16:30:15.923Z</time></trkpt><trkpt lat="45.0247449917998" lon="11.66918132502528"><ele>5.0</ele><time>2026-04-04T16:30:16.923Z</time></trkpt><trkpt lat="45.02471790353615" lon="11.669454547401429"><ele>5.0</ele><time>2026-04-04T16:30:17.923Z</time></trkpt><trkpt lat="45.024660065978814" lon="11.669742809963203"><ele>5.0</ele><time>2026-04-04T16:30:18.923Z</time></trkpt><trkpt lat="45.02458176520059" lon="11.670049715017374"><ele>5.0</ele><time>2026-04-04T16:30:19.923Z</time></trkpt><trkpt lat="45.02450321450959" lon="11.67037599517694"><ele>5.0</ele><time>2026-04-04T16:30:20.923Z</time></trkpt><trkpt lat="45.02442221126188" lon="11.670719334942842"><ele>5.0</ele><time>2026-04-04T16:30:21.923Z</time></trkpt><trkpt lat="45.0243402033021" lon="11.671075315644387"><ele>5.0</ele><time>2026-04-04T16:30:22.923Z</time></trkpt><trkpt lat="45.024255786183325" lon="11.67144121652691"><ele>5.0</ele><time>2026-04-04T16:30:23.923Z</time></trkpt><trkpt lat="45.02416733527323" lon="11.671800394001854"><ele>5.0</ele><time>2026-04-04T16:30:24.923Z</time></trkpt><trkpt lat="45.02409530226415" lon="11.672162445565775"><ele>5.0</ele><time>2026-04-04T16:30:25.923Z</time></trkpt><trkpt lat="45.024037889216636" lon="11.67248684944362"><ele>5.0</ele><time>2026-04-04T16:30:26.923Z</time></trkpt><trkpt lat="45.023972568872345" lon="11.672778315717714"><ele>5.0</ele><time>2026-04-04T16:30:27.923Z</time></trkpt><trkpt lat="45.02389921106685" lon="11.673019098289"><ele>5.0</ele><time>2026-04-04T16:30:28.923Z</time></trkpt><trkpt lat="45.0238240816176" lon="11.67322598798782"><ele>5.0</ele><time>2026-04-04T16:30:29.923Z</time></trkpt><trkpt lat="45.02371603825879" lon="11.67340029257628"><ele>5.0</ele><time>2026-04-04T16:30:30.923Z</time></trkpt><trkpt lat="45.02358808276927" lon="11.673558795587434"><ele>5.0</ele><time>2026-04-04T16:30:31.923Z</time></trkpt><trkpt lat="45.023433488655336" lon="11.673685945096024"><ele>5.333333333333334</ele><time>2026-04-04T16:30:32.923Z</time></trkpt><trkpt lat="45.02324150851932" lon="11.673780541152551"><ele>5.666666666666667</ele><time>2026-04-04T16:30:33.923Z</time></trkpt><trkpt lat="45.02302930505952" lon="11.673860731554647"><ele>6.0</ele><time>2026-04-04T16:30:34.923Z</time></trkpt><trkpt lat="45.02280385273693" lon="11.673928743694113"><ele>6.0</ele><time>2026-04-04T16:30:35.923Z</time></trkpt><trkpt lat="45.02257451868721" lon="11.673994870657657"><ele>6.0</ele><time>2026-04-04T16:30:36.923Z</time></trkpt><trkpt lat="45.022342573817056" lon="11.674088207733469"><ele>5.5</ele><time>2026-04-04T16:30:37.923Z</time></trkpt><trkpt lat="45.02210293516864" lon="11.674199930842235"><ele>5.0</ele><time>2026-04-04T16:30:38.924Z</time></trkpt><trkpt lat="45.02186143669016" lon="11.67432038503855"><ele>5.5</ele><time>2026-04-04T16:30:39.925Z</time></trkpt><trkpt lat="45.02162570963032" lon="11.674445419712564"><ele>6.0</ele><time>2026-04-04T16:30:40.925Z</time></trkpt><trkpt lat="45.021402335354225" lon="11.674569477459857"><ele>6.0</ele><time>2026-04-04T16:30:41.926Z</time></trkpt><trkpt lat="45.021194913833256" lon="11.674675689376764"><ele>6.0</ele><time>2026-04-04T16:30:42.927Z</time></trkpt><trkpt lat="45.02100895222733" lon="11.674774292978826"><ele>6.0</ele><time>2026-04-04T16:30:43.927Z</time></trkpt><trkpt lat="45.02083135393357" lon="11.67486715585836"><ele>5.333333333333333</ele><time>2026-04-04T16:30:44.928Z</time></trkpt><trkpt lat="45.02066390539378" lon="11.674953591342259"><ele>4.666666666666666</ele><time>2026-04-04T16:30:45.928Z</time></trkpt><trkpt lat="45.020490583636494" lon="11.675048928021942"><ele>4.0</ele><time>2026-04-04T16:30:46.929Z</time></trkpt><trkpt lat="45.020312995010684" lon="11.675159827700902"><ele>4.0</ele><time>2026-04-04T16:30:47.929Z</time></trkpt><trkpt lat="45.020134118284616" lon="11.675322835879038"><ele>4.0</ele><time>2026-04-04T16:30:48.93Z</time></trkpt><trkpt lat="45.01996544230399" lon="11.675507501466416"><ele>4.0</ele><time>2026-04-04T16:30:49.931Z</time></trkpt><trkpt lat="45.019815767903324" lon="11.675733824731033"><ele>3.5</ele><time>2026-04-04T16:30:50.931Z</time></trkpt><trkpt lat="45.01968675576003" lon="11.67601314125854"><ele>3.0</ele><time>2026-04-04T16:30:51.932Z</time></trkpt><trkpt lat="45.0195692378361" lon="11.676317996673397"><ele>2.5</ele><time>2026-04-04T16:30:52.933Z</time></trkpt><trkpt lat="45.01948101932559" lon="11.676650280094602"><ele>2.0</ele><time>2026-04-04T16:30:53.933Z</time></trkpt><trkpt lat="45.01941984677773" lon="11.67697474022012"><ele>2.0</ele><time>2026-04-04T16:30:54.933Z</time></trkpt><trkpt lat="45.01938814559771" lon="11.67731323879394"><ele>2.0</ele><time>2026-04-04T16:30:55.933Z</time></trkpt><trkpt lat="45.01938838218491" lon="11.677680717554908"><ele>2.0</ele><time>2026-04-04T16:30:56.933Z</time></trkpt><trkpt lat="45.01939290887654" lon="11.67804408042171"><ele>2.0</ele><time>2026-04-04T16:30:57.934Z</time></trkpt><trkpt lat="45.0194116105645" lon="11.678435799602303"><ele>3.0</ele><time>2026-04-04T16:30:58.934Z</time></trkpt><trkpt lat="45.0194209083711" lon="11.678803168108272"><ele>4.0</ele><time>2026-04-04T16:30:59.934Z</time></trkpt><trkpt lat="45.019423736654474" lon="11.67917954821161"><ele>4.0</ele><time>2026-04-04T16:31:00.935Z</time></trkpt><trkpt lat="45.019431665422694" lon="11.679560226201765"><ele>4.0</ele><time>2026-04-04T16:31:01.935Z</time></trkpt><trkpt lat="45.01943920924725" lon="11.679938515102759"><ele>4.5</ele><time>2026-04-04T16:31:02.935Z</time></trkpt><trkpt lat="45.01945257768841" lon="11.680327753374875"><ele>5.0</ele><time>2026-04-04T16:31:03.935Z</time></trkpt><trkpt lat="45.0194507228119" lon="11.68068589641305"><ele>5.0</ele><time>2026-04-04T16:31:04.935Z</time></trkpt><trkpt lat="45.01945016371539" lon="11.681034074320095"><ele>5.0</ele><time>2026-04-04T16:31:05.936Z</time></trkpt><trkpt lat="45.01942852796608" lon="11.68136566232994"><ele>5.0</ele><time>2026-04-04T16:31:06.936Z</time></trkpt><trkpt lat="45.019393830951415" lon="11.681676000036791"><ele>5.0</ele><time>2026-04-04T16:31:07.936Z</time></trkpt><trkpt lat="45.019317767865914" lon="11.681965642118804"><ele>5.0</ele><time>2026-04-04T16:31:08.936Z</time></trkpt><trkpt lat="45.019225275536115" lon="11.682223115486508"><ele>5.0</ele><time>2026-04-04T16:31:09.936Z</time></trkpt><trkpt lat="45.01910508060713" lon="11.682468868785413"><ele>5.0</ele><time>2026-04-04T16:31:10.936Z</time></trkpt><trkpt lat="45.01896037964469" lon="11.68270419560568"><ele>5.0</ele><time>2026-04-04T16:31:11.936Z</time></trkpt><trkpt lat="45.018793237759255" lon="11.682934302309194"><ele>5.0</ele><time>2026-04-04T16:31:12.936Z</time></trkpt><trkpt lat="45.01859756322467" lon="11.683156477375407"><ele>5.0</ele><time>2026-04-04T16:31:13.936Z</time></trkpt><trkpt lat="45.0183813787921" lon="11.683377698289767"><ele>5.0</ele><time>2026-04-04T16:31:14.936Z</time></trkpt><trkpt lat="45.018179890614306" lon="11.683597430329442"><ele>5.0</ele><time>2026-04-04T16:31:15.936Z</time></trkpt><trkpt lat="45.017963310049744" lon="11.683833637571231"><ele>5.0</ele><time>2026-04-04T16:31:16.937Z</time></trkpt><trkpt lat="45.01774339535981" lon="11.684067931100413"><ele>5.0</ele><time>2026-04-04T16:31:17.937Z</time></trkpt><trkpt lat="45.01752257456835" lon="11.684306499523503"><ele>5.0</ele><time>2026-04-04T16:31:18.937Z</time></trkpt><trkpt lat="45.017310016776115" lon="11.684543105986116"><ele>5.0</ele><time>2026-04-04T16:31:19.937Z</time></trkpt><trkpt lat="45.01711059021874" lon="11.684759005821277"><ele>5.0</ele><time>2026-04-04T16:31:20.937Z</time></trkpt><trkpt lat="45.01691818656419" lon="11.684966464124482"><ele>5.0</ele><time>2026-04-04T16:31:21.937Z</time></trkpt><trkpt lat="45.016731959770794" lon="11.685162506199113"><ele>5.0</ele><time>2026-04-04T16:31:22.937Z</time></trkpt><trkpt lat="45.01654600692629" lon="11.685353564979124"><ele>5.0</ele><time>2026-04-04T16:31:23.937Z</time></trkpt><trkpt lat="45.01636090462279" lon="11.68555074950128"><ele>5.0</ele><time>2026-04-04T16:31:24.937Z</time></trkpt><trkpt lat="45.016191772077924" lon="11.685762784830107"><ele>5.0</ele><time>2026-04-04T16:31:25.937Z</time></trkpt><trkpt lat="45.0160347692112" lon="11.686024677543193"><ele>5.0</ele><time>2026-04-04T16:31:26.937Z</time></trkpt><trkpt lat="45.01588160123879" lon="11.686325719041273"><ele>5.0</ele><time>2026-04-04T16:31:27.937Z</time></trkpt><trkpt lat="45.015735946313214" lon="11.686653193701376"><ele>6.0</ele><time>2026-04-04T16:31:28.937Z</time></trkpt><trkpt lat="45.01556441250158" lon="11.686969122815942"><ele>7.0</ele><time>2026-04-04T16:31:29.937Z</time></trkpt><trkpt lat="45.015417831691956" lon="11.687279282014327"><ele>7.0</ele><time>2026-04-04T16:31:30.937Z</time></trkpt><trkpt lat="45.015281586166786" lon="11.687562586621397"><ele>7.0</ele><time>2026-04-04T16:31:31.937Z</time></trkpt><trkpt lat="45.01515109672647" lon="11.687834537992149"><ele>7.0</ele><time>2026-04-04T16:31:32.937Z</time></trkpt><trkpt lat="45.01502421129694" lon="11.688102066023731"><ele>7.0</ele><time>2026-04-04T16:31:33.937Z</time></trkpt><trkpt lat="45.01490284702418" lon="11.688377827952614"><ele>5.5</ele><time>2026-04-04T16:31:34.937Z</time></trkpt><trkpt lat="45.01479151965344" lon="11.688671467732586"><ele>4.0</ele><time>2026-04-04T16:31:35.937Z</time></trkpt><trkpt lat="45.01469293802949" lon="11.68899159445123"><ele>4.0</ele><time>2026-04-04T16:31:36.937Z</time></trkpt><trkpt lat="45.01461828770296" lon="11.689323581656204"><ele>4.0</ele><time>2026-04-04T16:31:37.937Z</time></trkpt><trkpt lat="45.01457697460909" lon="11.689652069025886"><ele>4.0</ele><time>2026-04-04T16:31:38.937Z</time></trkpt><trkpt lat="45.014567707385304" lon="11.689971078874752"><ele>4.0</ele><time>2026-04-04T16:31:39.937Z</time></trkpt><trkpt lat="45.01456499109494" lon="11.690271047307103"><ele>4.0</ele><time>2026-04-04T16:31:40.937Z</time></trkpt><trkpt lat="45.01458425026006" lon="11.69054816031987"><ele>4.333333333333333</ele><time>2026-04-04T16:31:41.937Z</time></trkpt><trkpt lat="45.01460659123152" lon="11.690790712471095"><ele>4.666666666666667</ele><time>2026-04-04T16:31:42.937Z</time></trkpt><trkpt lat="45.0146319197901" lon="11.69101262763837"><ele>5.0</ele><time>2026-04-04T16:31:43.937Z</time></trkpt><trkpt lat="45.01465560466181" lon="11.691222403346218"><ele>5.0</ele><time>2026-04-04T16:31:44.937Z</time></trkpt><trkpt lat="45.01467196350416" lon="11.691427157108652"><ele>5.0</ele><time>2026-04-04T16:31:45.937Z</time></trkpt><trkpt lat="45.01467498645189" lon="11.691645170843739"><ele>5.0</ele><time>2026-04-04T16:31:46.937Z</time></trkpt><trkpt lat="45.01466297198573" lon="11.691866281907151"><ele>5.0</ele><time>2026-04-04T16:31:47.937Z</time></trkpt><trkpt lat="45.01463529047902" lon="11.692083762136223"><ele>5.0</ele><time>2026-04-04T16:31:48.937Z</time></trkpt><trkpt lat="45.01460607944166" lon="11.692260870615375"><ele>5.0</ele><time>2026-04-04T16:31:49.937Z</time></trkpt><trkpt lat="45.01458281279647" lon="11.692421020535328"><ele>5.0</ele><time>2026-04-04T16:31:50.937Z</time></trkpt><trkpt lat="45.014509981784705" lon="11.692548203380376"><ele>5.0</ele><time>2026-04-04T16:31:51.937Z</time></trkpt><trkpt lat="45.01448841625479" lon="11.692703488441161"><ele>5.0</ele><time>2026-04-04T16:31:52.937Z</time></trkpt><trkpt lat="45.01446946186512" lon="11.6928556886906"><ele>5.0</ele><time>2026-04-04T16:31:53.937Z</time></trkpt><trkpt lat="45.014450149646606" lon="11.693012466947538"><ele>5.0</ele><time>2026-04-04T16:31:54.937Z</time></trkpt><trkpt lat="45.01443832367363" lon="11.693158554537172"><ele>5.0</ele><time>2026-04-04T16:31:55.937Z</time></trkpt><trkpt lat="45.014424444005435" lon="11.693313678364996"><ele>5.5</ele><time>2026-04-04T16:31:56.937Z</time></trkpt><trkpt lat="45.01440348433744" lon="11.693477493855863"><ele>6.0</ele><time>2026-04-04T16:31:57.937Z</time></trkpt><trkpt lat="45.0143631958575" lon="11.693644823244066"><ele>6.5</ele><time>2026-04-04T16:31:58.937Z</time></trkpt><trkpt lat="45.01433681427802" lon="11.693817146901285"><ele>7.0</ele><time>2026-04-04T16:31:59.937Z</time></trkpt><trkpt lat="45.0143109731163" lon="11.693984047610119"><ele>7.0</ele><time>2026-04-04T16:32:00.937Z</time></trkpt><trkpt lat="45.01428377684265" lon="11.69415350608365"><ele>7.0</ele><time>2026-04-04T16:32:01.937Z</time></trkpt><trkpt lat="45.0142716813782" lon="11.694333133667174"><ele>7.0</ele><time>2026-04-04T16:32:02.937Z</time></trkpt><trkpt lat="45.01422318643221" lon="11.694491010791015"><ele>7.0</ele><time>2026-04-04T16:32:03.937Z</time></trkpt><trkpt lat="45.014195532791746" lon="11.694633121164493"><ele>6.833333333333334</ele><time>2026-04-04T16:32:04.937Z</time></trkpt><trkpt lat="45.014175027957435" lon="11.694758295662083"><ele>6.666666666666667</ele><time>2026-04-04T16:32:05.937Z</time></trkpt><trkpt lat="45.014148844963735" lon="11.694885052309834"><ele>6.5</ele><time>2026-04-04T16:32:06.937Z</time></trkpt><trkpt lat="45.014129117126366" lon="11.695013730294725"><ele>6.333333333333334</ele><time>2026-04-04T16:32:07.937Z</time></trkpt><trkpt lat="45.014114351051454" lon="11.695120440106102"><ele>6.166666666666667</ele><time>2026-04-04T16:32:08.937Z</time></trkpt><trkpt lat="45.01410018681962" lon="11.695215262813438"><ele>6.0</ele><time>2026-04-04T16:32:09.937Z</time></trkpt><trkpt lat="45.014088950409345" lon="11.69530908475548"><ele>5.8</ele><time>2026-04-04T16:32:10.937Z</time></trkpt><trkpt lat="45.014043267041124" lon="11.695384703209509"><ele>5.6</ele><time>2026-04-04T16:32:11.937Z</time></trkpt><trkpt lat="45.014007732976225" lon="11.695574582591368"><ele>5.4</ele><time>2026-04-04T16:32:13.936Z</time></trkpt><trkpt lat="45.013980638168526" lon="11.695706915085895"><ele>5.2</ele><time>2026-04-04T16:32:14.936Z</time></trkpt><trkpt lat="45.01395591442057" lon="11.695856126156965"><ele>5.0</ele><time>2026-04-04T16:32:15.936Z</time></trkpt><trkpt lat="45.01393124309254" lon="11.696026788334658"><ele>5.0</ele><time>2026-04-04T16:32:16.936Z</time></trkpt><trkpt lat="45.01390756209201" lon="11.696215902213163"><ele>5.0</ele><time>2026-04-04T16:32:17.936Z</time></trkpt><trkpt lat="45.013889651848906" lon="11.696434760203157"><ele>5.0</ele><time>2026-04-04T16:32:18.936Z</time></trkpt><trkpt lat="45.013866028355174" lon="11.696647321138716"><ele>5.0</ele><time>2026-04-04T16:32:19.936Z</time></trkpt><trkpt lat="45.01384029790544" lon="11.696876893262008"><ele>5.0</ele><time>2026-04-04T16:32:20.936Z</time></trkpt><trkpt lat="45.01380745630301" lon="11.697105416171539"><ele>5.0</ele><time>2026-04-04T16:32:21.936Z</time></trkpt><trkpt lat="45.01377609447367" lon="11.697312457887186"><ele>5.0</ele><time>2026-04-04T16:32:22.936Z</time></trkpt><trkpt lat="45.01373925316387" lon="11.697528218608841"><ele>4.666666666666667</ele><time>2026-04-04T16:32:23.936Z</time></trkpt><trkpt lat="45.01369399639676" lon="11.697760722953014"><ele>4.333333333333333</ele><time>2026-04-04T16:32:24.936Z</time></trkpt><trkpt lat="45.01363803409977" lon="11.6980148418908"><ele>4.0</ele><time>2026-04-04T16:32:25.936Z</time></trkpt><trkpt lat="45.01357914636957" lon="11.698283150471287"><ele>4.0</ele><time>2026-04-04T16:32:26.936Z</time></trkpt><trkpt lat="45.01351601531708" lon="11.698547564236154"><ele>4.0</ele><time>2026-04-04T16:32:27.936Z</time></trkpt><trkpt lat="45.013460286242385" lon="11.698802284481443"><ele>4.0</ele><time>2026-04-04T16:32:28.936Z</time></trkpt><trkpt lat="45.01341089442403" lon="11.699042783458284"><ele>4.0</ele><time>2026-04-04T16:32:29.936Z</time></trkpt><trkpt lat="45.013364038311515" lon="11.699259062186163"><ele>4.0</ele><time>2026-04-04T16:32:30.936Z</time></trkpt><trkpt lat="45.01330364634186" lon="11.699485675067994"><ele>4.0</ele><time>2026-04-04T16:32:31.936Z</time></trkpt><trkpt lat="45.01325695261548" lon="11.699716162500964"><ele>4.0</ele><time>2026-04-04T16:32:32.936Z</time></trkpt><trkpt lat="45.01321054214442" lon="11.699945251652796"><ele>4.0</ele><time>2026-04-04T16:32:33.936Z</time></trkpt><trkpt lat="45.013163973107055" lon="11.700161761877279"><ele>4.0</ele><time>2026-04-04T16:32:34.936Z</time></trkpt><trkpt lat="45.01311766829525" lon="11.700367520241313"><ele>4.0</ele><time>2026-04-04T16:32:35.936Z</time></trkpt><trkpt lat="45.01307016471107" lon="11.700573301205027"><ele>4.0</ele><time>2026-04-04T16:32:36.936Z</time></trkpt><trkpt lat="45.013025309588876" lon="11.700766178358503"><ele>4.0</ele><time>2026-04-04T16:32:37.936Z</time></trkpt><trkpt lat="45.01298238644865" lon="11.700946509658301"><ele>4.0</ele><time>2026-04-04T16:32:38.936Z</time></trkpt><trkpt lat="45.01293934707981" lon="11.701125205969767"><ele>4.25</ele><time>2026-04-04T16:32:39.936Z</time></trkpt><trkpt lat="45.01289526049189" lon="11.701302829343229"><ele>4.5</ele><time>2026-04-04T16:32:40.936Z</time></trkpt><trkpt lat="45.01285303615773" lon="11.701469853467772"><ele>4.75</ele><time>2026-04-04T16:32:41.936Z</time></trkpt><trkpt lat="45.01281509527159" lon="11.701617550262275"><ele>5.0</ele><time>2026-04-04T16:32:42.936Z</time></trkpt><trkpt lat="45.012779190952536" lon="11.701756074232266"><ele>5.0</ele><time>2026-04-04T16:32:43.936Z</time></trkpt><trkpt lat="45.01274511425978" lon="11.70188754679846"><ele>5.0</ele><time>2026-04-04T16:32:44.936Z</time></trkpt><trkpt lat="45.012707629206425" lon="11.702032169595723"><ele>5.0</ele><time>2026-04-04T16:32:45.936Z</time></trkpt><trkpt lat="45.01266140981056" lon="11.702205928875493"><ele>5.0</ele><time>2026-04-04T16:32:46.936Z</time></trkpt><trkpt lat="45.012610296497094" lon="11.702398390108334"><ele>5.0</ele><time>2026-04-04T16:32:47.936Z</time></trkpt><trkpt lat="45.01255184314895" lon="11.702618489424182"><ele>5.0</ele><time>2026-04-04T16:32:48.936Z</time></trkpt><trkpt lat="45.01248561477651" lon="11.702863493800285"><ele>5.0</ele><time>2026-04-04T16:32:49.936Z</time></trkpt><trkpt lat="45.01242256648722" lon="11.70312652409417"><ele>5.0</ele><time>2026-04-04T16:32:50.936Z</time></trkpt><trkpt lat="45.01234846009525" lon="11.703387448693656"><ele>5.0</ele><time>2026-04-04T16:32:51.936Z</time></trkpt><trkpt lat="45.01227824626227" lon="11.703652378068009"><ele>5.0</ele><time>2026-04-04T16:32:52.936Z</time></trkpt><trkpt lat="45.01220303346162" lon="11.703938607062202"><ele>5.0</ele><time>2026-04-04T16:32:53.936Z</time></trkpt><trkpt lat="45.012120841570685" lon="11.704222524074545"><ele>5.0</ele><time>2026-04-04T16:32:54.936Z</time></trkpt><trkpt lat="45.01204393043797" lon="11.704488949717996"><ele>5.0</ele><time>2026-04-04T16:32:55.937Z</time></trkpt><trkpt lat="45.01196229215908" lon="11.704710941675641"><ele>5.0</ele><time>2026-04-04T16:32:56.937Z</time></trkpt><trkpt lat="45.011905881047056" lon="11.704930832826717"><ele>5.0</ele><time>2026-04-04T16:32:57.937Z</time></trkpt><trkpt lat="45.01184594226671" lon="11.705145932362045"><ele>5.0</ele><time>2026-04-04T16:32:58.937Z</time></trkpt><trkpt lat="45.01178433784866" lon="11.705344498339917"><ele>5.0</ele><time>2026-04-04T16:32:59.937Z</time></trkpt><trkpt lat="45.011712091258936" lon="11.705546224786037"><ele>5.0</ele><time>2026-04-04T16:33:00.936Z</time></trkpt><trkpt lat="45.01161358692238" lon="11.705759721972546"><ele>5.0</ele><time>2026-04-04T16:33:01.937Z</time></trkpt><trkpt lat="45.01149550452925" lon="11.70598791788662"><ele>4.666666666666667</ele><time>2026-04-04T16:33:02.936Z</time></trkpt><trkpt lat="45.011377731917" lon="11.70623340074385"><ele>4.333333333333333</ele><time>2026-04-04T16:33:03.936Z</time></trkpt><trkpt lat="45.01125745590269" lon="11.706481692407568"><ele>4.0</ele><time>2026-04-04T16:33:04.936Z</time></trkpt><trkpt lat="45.011138778694814" lon="11.706729430274402"><ele>4.0</ele><time>2026-04-04T16:33:05.936Z</time></trkpt><trkpt lat="45.01101466231161" lon="11.706972119956273"><ele>4.0</ele><time>2026-04-04T16:33:06.936Z</time></trkpt><trkpt lat="45.010893143065424" lon="11.70721294626948"><ele>4.0</ele><time>2026-04-04T16:33:07.937Z</time></trkpt><trkpt lat="45.0107546235735" lon="11.707446606639753"><ele>4.0</ele><time>2026-04-04T16:33:08.937Z</time></trkpt><trkpt lat="45.01062522815671" lon="11.707702404746618"><ele>4.0</ele><time>2026-04-04T16:33:09.937Z</time></trkpt><trkpt lat="45.01049026291785" lon="11.707963231881433"><ele>4.0</ele><time>2026-04-04T16:33:10.937Z</time></trkpt><trkpt lat="45.010355090319145" lon="11.70821721530494"><ele>4.0</ele><time>2026-04-04T16:33:11.937Z</time></trkpt><trkpt lat="45.01021803230699" lon="11.708466201596622"><ele>4.0</ele><time>2026-04-04T16:33:12.937Z</time></trkpt><trkpt lat="45.01007816904718" lon="11.708702994088409"><ele>4.333333333333333</ele><time>2026-04-04T16:33:13.937Z</time></trkpt><trkpt lat="45.009930010552075" lon="11.70893870245409"><ele>4.666666666666667</ele><time>2026-04-04T16:33:14.937Z</time></trkpt><trkpt lat="45.009779953180086" lon="11.709176070961368"><ele>5.0</ele><time>2026-04-04T16:33:15.936Z</time></trkpt><trkpt lat="45.009637680269535" lon="11.709401125552596"><ele>4.666666666666667</ele><time>2026-04-04T16:33:16.936Z</time></trkpt><trkpt lat="45.00950133820197" lon="11.709627117580162"><ele>4.333333333333333</ele><time>2026-04-04T16:33:17.936Z</time></trkpt><trkpt lat="45.009374371218506" lon="11.709863996012423"><ele>4.0</ele><time>2026-04-04T16:33:18.936Z</time></trkpt><trkpt lat="45.009259093730954" lon="11.710109267244228"><ele>3.5</ele><time>2026-04-04T16:33:19.936Z</time></trkpt><trkpt lat="45.0091525952073" lon="11.710404763688492"><ele>3.0</ele><time>2026-04-04T16:33:20.936Z</time></trkpt><trkpt lat="45.00904484914186" lon="11.71073006343471"><ele>3.5</ele><time>2026-04-04T16:33:21.936Z</time></trkpt><trkpt lat="45.00893070624818" lon="11.711076078985775"><ele>4.0</ele><time>2026-04-04T16:33:22.936Z</time></trkpt><trkpt lat="45.00881983855737" lon="11.711412166140217"><ele>4.0</ele><time>2026-04-04T16:33:23.936Z</time></trkpt><trkpt lat="45.00871212669325" lon="11.711736734527959"><ele>4.0</ele><time>2026-04-04T16:33:24.936Z</time></trkpt><trkpt lat="45.008613007222564" lon="11.712042364159414"><ele>4.0</ele><time>2026-04-04T16:33:25.936Z</time></trkpt><trkpt lat="45.008530277296785" lon="11.712314982354737"><ele>4.0</ele><time>2026-04-04T16:33:26.936Z</time></trkpt><trkpt lat="45.00845877052743" lon="11.712578199519541"><ele>4.0</ele><time>2026-04-04T16:33:27.936Z</time></trkpt><trkpt lat="45.0083957022791" lon="11.712852911426749"><ele>4.0</ele><time>2026-04-04T16:33:28.936Z</time></trkpt><trkpt lat="45.008362154577796" lon="11.713146095095071"><ele>4.0</ele><time>2026-04-04T16:33:29.936Z</time></trkpt><trkpt lat="45.0083308540412" lon="11.713456461086933"><ele>4.0</ele><time>2026-04-04T16:33:30.936Z</time></trkpt><trkpt lat="45.008315327537055" lon="11.713784571921844"><ele>3.5</ele><time>2026-04-04T16:33:31.936Z</time></trkpt><trkpt lat="45.008323634786066" lon="11.7141287198879"><ele>3.0</ele><time>2026-04-04T16:33:32.936Z</time></trkpt><trkpt lat="45.00835288146228" lon="11.714478228101894"><ele>4.0</ele><time>2026-04-04T16:33:33.936Z</time></trkpt><trkpt lat="45.008403273411375" lon="11.714827868452119"><ele>5.0</ele><time>2026-04-04T16:33:34.936Z</time></trkpt><trkpt lat="45.00848477810935" lon="11.715173620065118"><ele>4.5</ele><time>2026-04-04T16:33:35.936Z</time></trkpt><trkpt lat="45.00859029052822" lon="11.715508529404776"><ele>4.0</ele><time>2026-04-04T16:33:36.936Z</time></trkpt><trkpt lat="45.00873343907388" lon="11.715842916804878"><ele>3.5</ele><time>2026-04-04T16:33:37.936Z</time></trkpt><trkpt lat="45.00890444833998" lon="11.716160143000298"><ele>3.0</ele><time>2026-04-04T16:33:38.936Z</time></trkpt><trkpt lat="45.00910815443285" lon="11.716466723081878"><ele>3.5</ele><time>2026-04-04T16:33:39.936Z</time></trkpt><trkpt lat="45.00930325092166" lon="11.716770461142398"><ele>4.0</ele><time>2026-04-04T16:33:40.936Z</time></trkpt><trkpt lat="45.00950167975213" lon="11.717067589213366"><ele>4.0</ele><time>2026-04-04T16:33:41.936Z</time></trkpt><trkpt lat="45.009685494284604" lon="11.717351202408073"><ele>4.0</ele><time>2026-04-04T16:33:42.936Z</time></trkpt><trkpt lat="45.00987309643914" lon="11.717623404619033"><ele>4.5</ele><time>2026-04-04T16:33:43.936Z</time></trkpt><trkpt lat="45.010052043314936" lon="11.71790420025057"><ele>5.0</ele><time>2026-04-04T16:33:44.936Z</time></trkpt><trkpt lat="45.01023888411267" lon="11.718184852080201"><ele>5.0</ele><time>2026-04-04T16:33:45.936Z</time></trkpt><trkpt lat="45.010430476244885" lon="11.718468409190944"><ele>5.0</ele><time>2026-04-04T16:33:46.936Z</time></trkpt><trkpt lat="45.01063301950698" lon="11.718754593167182"><ele>4.0</ele><time>2026-04-04T16:33:47.936Z</time></trkpt><trkpt lat="45.01083976605354" lon="11.719045650482597"><ele>3.0</ele><time>2026-04-04T16:33:48.936Z</time></trkpt><trkpt lat="45.011064193981305" lon="11.71932807981885"><ele>2.0</ele><time>2026-04-04T16:33:49.936Z</time></trkpt><trkpt lat="45.01129269786214" lon="11.719609804316143"><ele>1.0</ele><time>2026-04-04T16:33:50.936Z</time></trkpt><trkpt lat="45.011521548286176" lon="11.719884579346294"><ele>2.0</ele><time>2026-04-04T16:33:51.936Z</time></trkpt><trkpt lat="45.01173748376688" lon="11.720157829281646"><ele>3.0</ele><time>2026-04-04T16:33:52.936Z</time></trkpt><trkpt lat="45.01194209027268" lon="11.720409969815382"><ele>3.5</ele><time>2026-04-04T16:33:53.936Z</time></trkpt><trkpt lat="45.01214532734234" lon="11.720655801318262"><ele>4.0</ele><time>2026-04-04T16:33:54.936Z</time></trkpt><trkpt lat="45.01233434105804" lon="11.720895139371423"><ele>4.5</ele><time>2026-04-04T16:33:55.936Z</time></trkpt><trkpt lat="45.01252081540628" lon="11.721132810949873"><ele>5.0</ele><time>2026-04-04T16:33:56.936Z</time></trkpt><trkpt lat="45.012708538331836" lon="11.721367111944529"><ele>5.0</ele><time>2026-04-04T16:33:57.936Z</time></trkpt><trkpt lat="45.012890134471974" lon="11.72160101131487"><ele>5.0</ele><time>2026-04-04T16:33:58.936Z</time></trkpt><trkpt lat="45.01305802313067" lon="11.721840471911294"><ele>5.0</ele><time>2026-04-04T16:33:59.936Z</time></trkpt><trkpt lat="45.013215140080725" lon="11.722089412937114"><ele>5.0</ele><time>2026-04-04T16:34:00.936Z</time></trkpt><trkpt lat="45.01335999087022" lon="11.72233529981616"><ele>5.0</ele><time>2026-04-04T16:34:01.936Z</time></trkpt><trkpt lat="45.013492781187544" lon="11.722562384219689"><ele>5.0</ele><time>2026-04-04T16:34:02.936Z</time></trkpt><trkpt lat="45.013610877226874" lon="11.722771822702137"><ele>5.0</ele><time>2026-04-04T16:34:03.936Z</time></trkpt><trkpt lat="45.013718927673914" lon="11.722973451312031"><ele>5.0</ele><time>2026-04-04T16:34:04.935Z</time></trkpt><trkpt lat="45.01377618251195" lon="11.723195583807579"><ele>5.0</ele><time>2026-04-04T16:34:05.935Z</time></trkpt><trkpt lat="45.01381737744423" lon="11.72341472163786"><ele>5.0</ele><time>2026-04-04T16:34:06.935Z</time></trkpt><trkpt lat="45.0138270895585" lon="11.723645552833425"><ele>4.666666666666667</ele><time>2026-04-04T16:34:07.935Z</time></trkpt><trkpt lat="45.013821492276485" lon="11.723922265356194"><ele>4.333333333333333</ele><time>2026-04-04T16:34:08.935Z</time></trkpt><trkpt lat="45.01381236637275" lon="11.724216681981815"><ele>4.0</ele><time>2026-04-04T16:34:09.935Z</time></trkpt><trkpt lat="45.01380272238983" lon="11.724527812297591"><ele>4.0</ele><time>2026-04-04T16:34:10.935Z</time></trkpt><trkpt lat="45.01378925603165" lon="11.724841816495747"><ele>4.0</ele><time>2026-04-04T16:34:11.935Z</time></trkpt><trkpt lat="45.01375801344498" lon="11.725170266427355"><ele>4.5</ele><time>2026-04-04T16:34:12.935Z</time></trkpt><trkpt lat="45.01370891534674" lon="11.725524880344544"><ele>5.0</ele><time>2026-04-04T16:34:13.935Z</time></trkpt><trkpt lat="45.013672332677686" lon="11.725894327114089"><ele>5.5</ele><time>2026-04-04T16:34:14.935Z</time></trkpt><trkpt lat="45.013604424073044" lon="11.726254951166723"><ele>6.0</ele><time>2026-04-04T16:34:15.935Z</time></trkpt><trkpt lat="45.01354808031354" lon="11.72660679350976"><ele>5.0</ele><time>2026-04-04T16:34:16.935Z</time></trkpt><trkpt lat="45.01350031775661" lon="11.726937767875565"><ele>4.0</ele><time>2026-04-04T16:34:17.935Z</time></trkpt><trkpt lat="45.013454084978825" lon="11.727247670279644"><ele>4.0</ele><time>2026-04-04T16:34:18.935Z</time></trkpt><trkpt lat="45.01341467947102" lon="11.727532625072506"><ele>4.0</ele><time>2026-04-04T16:34:19.935Z</time></trkpt><trkpt lat="45.01338039857541" lon="11.727794297214842"><ele>4.0</ele><time>2026-04-04T16:34:20.935Z</time></trkpt><trkpt lat="45.013346284179704" lon="11.728055597290384"><ele>4.0</ele><time>2026-04-04T16:34:21.935Z</time></trkpt><trkpt lat="45.013306915888734" lon="11.728328775555369"><ele>4.0</ele><time>2026-04-04T16:34:22.935Z</time></trkpt><trkpt lat="45.01327189459271" lon="11.728623419705476"><ele>4.0</ele><time>2026-04-04T16:34:23.935Z</time></trkpt><trkpt lat="45.0132343909034" lon="11.728915967289298"><ele>4.0</ele><time>2026-04-04T16:34:24.935Z</time></trkpt><trkpt lat="45.013196601616706" lon="11.729201070633456"><ele>4.0</ele><time>2026-04-04T16:34:25.935Z</time></trkpt><trkpt lat="45.01316425942823" lon="11.729485045373353"><ele>4.0</ele><time>2026-04-04T16:34:26.935Z</time></trkpt><trkpt lat="45.01313341916908" lon="11.729754469299671"><ele>4.0</ele><time>2026-04-04T16:34:27.935Z</time></trkpt><trkpt lat="45.01308745779514" lon="11.729987710185751"><ele>4.0</ele><time>2026-04-04T16:34:28.935Z</time></trkpt><trkpt lat="45.01307161681995" lon="11.730212948959155"><ele>4.0</ele><time>2026-04-04T16:34:29.935Z</time></trkpt><trkpt lat="45.01303755464849" lon="11.730438630633259"><ele>3.6666666666666665</ele><time>2026-04-04T16:34:30.935Z</time></trkpt><trkpt lat="45.013005723751526" lon="11.730677332895592"><ele>3.333333333333333</ele><time>2026-04-04T16:34:31.935Z</time></trkpt><trkpt lat="45.01297408903604" lon="11.730919670350534"><ele>3.0</ele><time>2026-04-04T16:34:32.935Z</time></trkpt><trkpt lat="45.01294493541352" lon="11.731161023406257"><ele>3.0</ele><time>2026-04-04T16:34:33.935Z</time></trkpt><trkpt lat="45.012898672572305" lon="11.731387851947353"><ele>3.0</ele><time>2026-04-04T16:34:34.935Z</time></trkpt><trkpt lat="45.01288598215716" lon="11.731597214454814"><ele>3.0</ele><time>2026-04-04T16:34:35.935Z</time></trkpt><trkpt lat="45.012857274513536" lon="11.7318064112419"><ele>3.0</ele><time>2026-04-04T16:34:36.935Z</time></trkpt><trkpt lat="45.01283217570144" lon="11.732009744806412"><ele>3.0</ele><time>2026-04-04T16:34:37.935Z</time></trkpt><trkpt lat="45.01279336862319" lon="11.732225814223469"><ele>3.0</ele><time>2026-04-04T16:34:38.935Z</time></trkpt><trkpt lat="45.012765880197335" lon="11.732473508320512"><ele>3.0</ele><time>2026-04-04T16:34:39.935Z</time></trkpt><trkpt lat="45.01272512164052" lon="11.732742268025538"><ele>3.0</ele><time>2026-04-04T16:34:40.935Z</time></trkpt><trkpt lat="45.01268723056926" lon="11.733023829247454"><ele>3.0</ele><time>2026-04-04T16:34:41.935Z</time></trkpt><trkpt lat="45.01264860075047" lon="11.733318027360045"><ele>3.0</ele><time>2026-04-04T16:34:42.935Z</time></trkpt><trkpt lat="45.0126079698467" lon="11.733619428091986"><ele>3.0</ele><time>2026-04-04T16:34:43.935Z</time></trkpt><trkpt lat="45.01257388624211" lon="11.733925447022347"><ele>3.0</ele><time>2026-04-04T16:34:44.935Z</time></trkpt><trkpt lat="45.01252332567097" lon="11.734214153653683"><ele>3.0</ele><time>2026-04-04T16:34:45.935Z</time></trkpt><trkpt lat="45.012492204575075" lon="11.734499783493337"><ele>3.0</ele><time>2026-04-04T16:34:46.935Z</time></trkpt><trkpt lat="45.01248704815275" lon="11.734798291598054"><ele>3.0</ele><time>2026-04-04T16:34:47.935Z</time></trkpt><trkpt lat="45.01249207125297" lon="11.73509667234997"><ele>2.6666666666666665</ele><time>2026-04-04T16:34:48.935Z</time></trkpt><trkpt lat="45.01251763702018" lon="11.735411100177213"><ele>2.333333333333333</ele><time>2026-04-04T16:34:49.935Z</time></trkpt><trkpt lat="45.01256647292518" lon="11.735720494708207"><ele>2.0</ele><time>2026-04-04T16:34:50.935Z</time></trkpt><trkpt lat="45.012629694710185" lon="11.736030855854855"><ele>2.5</ele><time>2026-04-04T16:34:51.935Z</time></trkpt><trkpt lat="45.012697583248844" lon="11.736345989451575"><ele>3.0</ele><time>2026-04-04T16:34:52.935Z</time></trkpt><trkpt lat="45.0127628569993" lon="11.736667161647791"><ele>3.333333333333333</ele><time>2026-04-04T16:34:53.935Z</time></trkpt><trkpt lat="45.0128168797097" lon="11.736965711390845"><ele>3.6666666666666665</ele><time>2026-04-04T16:34:54.934Z</time></trkpt><trkpt lat="45.012854199631" lon="11.73725078995536"><ele>4.0</ele><time>2026-04-04T16:34:55.934Z</time></trkpt><trkpt lat="45.01287846313254" lon="11.737546845621726"><ele>3.6666666666666665</ele><time>2026-04-04T16:34:56.934Z</time></trkpt><trkpt lat="45.01288126303098" lon="11.73784080746383"><ele>3.333333333333333</ele><time>2026-04-04T16:34:57.934Z</time></trkpt><trkpt lat="45.01287050071393" lon="11.738108303855396"><ele>3.0</ele><time>2026-04-04T16:34:58.934Z</time></trkpt><trkpt lat="45.012837844596504" lon="11.738342640547987"><ele>3.666666666666667</ele><time>2026-04-04T16:34:59.934Z</time></trkpt><trkpt lat="45.01280348680475" lon="11.73857294704859"><ele>4.333333333333334</ele><time>2026-04-04T16:35:00.935Z</time></trkpt><trkpt lat="45.01276593086881" lon="11.738788883984157"><ele>5.0</ele><time>2026-04-04T16:35:01.936Z</time></trkpt><trkpt lat="45.012728660221796" lon="11.738990954311053"><ele>5.0</ele><time>2026-04-04T16:35:02.936Z</time></trkpt><trkpt lat="45.01269449408118" lon="11.739183114216457"><ele>5.0</ele><time>2026-04-04T16:35:03.935Z</time></trkpt><trkpt lat="45.01266579196836" lon="11.739389784733666"><ele>5.0</ele><time>2026-04-04T16:35:04.935Z</time></trkpt><trkpt lat="45.01261014657172" lon="11.739620482186261"><ele>5.0</ele><time>2026-04-04T16:35:05.935Z</time></trkpt><trkpt lat="45.01258102476634" lon="11.739883985440013"><ele>5.0</ele><time>2026-04-04T16:35:06.935Z</time></trkpt><trkpt lat="45.012519746534394" lon="11.74013765603059"><ele>5.0</ele><time>2026-04-04T16:35:07.935Z</time></trkpt><trkpt lat="45.0124712631352" lon="11.740388521503318"><ele>5.333333333333334</ele><time>2026-04-04T16:35:08.935Z</time></trkpt><trkpt lat="45.01243416490233" lon="11.740621883152553"><ele>5.666666666666667</ele><time>2026-04-04T16:35:09.935Z</time></trkpt><trkpt lat="45.01239564554685" lon="11.740852821218072"><ele>6.0</ele><time>2026-04-04T16:35:10.935Z</time></trkpt><trkpt lat="45.01235855770619" lon="11.741076836547446"><ele>6.0</ele><time>2026-04-04T16:35:11.935Z</time></trkpt><trkpt lat="45.01232645809472" lon="11.741254831346078"><ele>6.0</ele><time>2026-04-04T16:35:12.935Z</time></trkpt><trkpt lat="45.01229691820126" lon="11.741409703512288"><ele>6.0</ele><time>2026-04-04T16:35:13.935Z</time></trkpt><trkpt lat="45.012272702964005" lon="11.741537927285153"><ele>6.0</ele><time>2026-04-04T16:35:14.935Z</time></trkpt><trkpt lat="45.01224821740243" lon="11.741639502684661"><ele>6.0</ele><time>2026-04-04T16:35:15.935Z</time></trkpt><trkpt lat="45.012222142882784" lon="11.741725396553452"><ele>6.0</ele><time>2026-04-04T16:35:16.935Z</time></trkpt><trkpt lat="45.01218736108472" lon="11.741803536762415"><ele>6.0</ele><time>2026-04-04T16:35:17.935Z</time></trkpt><trkpt lat="45.0121509096211" lon="11.741889061116257"><ele>6.0</ele><time>2026-04-04T16:35:18.935Z</time></trkpt><trkpt lat="45.01213575207368" lon="11.741990437279886"><ele>6.0</ele><time>2026-04-04T16:35:19.935Z</time></trkpt><trkpt lat="45.01213899662664" lon="11.742129789797355"><ele>6.0</ele><time>2026-04-04T16:35:20.935Z</time></trkpt><trkpt lat="45.01215259210636" lon="11.742297835058887"><ele>6.0</ele><time>2026-04-04T16:35:21.935Z</time></trkpt><trkpt lat="45.012137734871416" lon="11.742491030724867"><ele>5.0</ele><time>2026-04-04T16:35:22.935Z</time></trkpt><trkpt lat="45.012081690779155" lon="11.742701533376362"><ele>4.0</ele><time>2026-04-04T16:35:23.935Z</time></trkpt><trkpt lat="45.01204206986018" lon="11.742933404876238"><ele>3.0</ele><time>2026-04-04T16:35:24.935Z</time></trkpt><trkpt lat="45.011996109443245" lon="11.743202376652008"><ele>2.6666666666666665</ele><time>2026-04-04T16:35:25.935Z</time></trkpt><trkpt lat="45.011949984931455" lon="11.743471593056338"><ele>2.333333333333333</ele><time>2026-04-04T16:35:26.935Z</time></trkpt><trkpt lat="45.011901182640315" lon="11.743753715768232"><ele>2.0</ele><time>2026-04-04T16:35:27.935Z</time></trkpt><trkpt lat="45.01184879818804" lon="11.74405382109593"><ele>2.0</ele><time>2026-04-04T16:35:28.935Z</time></trkpt><trkpt lat="45.011792734371916" lon="11.744365838667683"><ele>2.0</ele><time>2026-04-04T16:35:29.935Z</time></trkpt><trkpt lat="45.011730940274695" lon="11.744685931675695"><ele>2.0</ele><time>2026-04-04T16:35:30.935Z</time></trkpt><trkpt lat="45.01166286315468" lon="11.745012661633309"><ele>2.0</ele><time>2026-04-04T16:35:31.935Z</time></trkpt><trkpt lat="45.01158589809119" lon="11.745337171327195"><ele>1.5</ele><time>2026-04-04T16:35:32.934Z</time></trkpt><trkpt lat="45.01151771763913" lon="11.745667390786252"><ele>1.0</ele><time>2026-04-04T16:35:33.934Z</time></trkpt><trkpt lat="45.011433239316645" lon="11.746001363400381"><ele>1.5</ele><time>2026-04-04T16:35:34.934Z</time></trkpt><trkpt lat="45.01135156024966" lon="11.746358334949642"><ele>2.0</ele><time>2026-04-04T16:35:35.934Z</time></trkpt><trkpt lat="45.01127378838997" lon="11.746731005615846"><ele>2.5</ele><time>2026-04-04T16:35:36.934Z</time></trkpt><trkpt lat="45.011178772473215" lon="11.747100216028466"><ele>3.0</ele><time>2026-04-04T16:35:37.934Z</time></trkpt><trkpt lat="45.01109127585817" lon="11.747485570401384"><ele>2.5</ele><time>2026-04-04T16:35:38.934Z</time></trkpt><trkpt lat="45.01099962832507" lon="11.74787640580753"><ele>2.0</ele><time>2026-04-04T16:35:39.934Z</time></trkpt><trkpt lat="45.010906485747576" lon="11.748270822569822"><ele>2.5</ele><time>2026-04-04T16:35:40.934Z</time></trkpt><trkpt lat="45.01081381538482" lon="11.748675560849017"><ele>3.0</ele><time>2026-04-04T16:35:41.934Z</time></trkpt><trkpt lat="45.01072030757823" lon="11.749079598758957"><ele>3.0</ele><time>2026-04-04T16:35:42.934Z</time></trkpt><trkpt lat="45.01062838383626" lon="11.74947734792646"><ele>3.0</ele><time>2026-04-04T16:35:43.934Z</time></trkpt><trkpt lat="45.0105373408948" lon="11.749871535083189"><ele>3.5</ele><time>2026-04-04T16:35:44.934Z</time></trkpt><trkpt lat="45.010447888087576" lon="11.750258837422415"><ele>4.0</ele><time>2026-04-04T16:35:45.934Z</time></trkpt><trkpt lat="45.01036060430076" lon="11.750638052420678"><ele>4.0</ele><time>2026-04-04T16:35:46.934Z</time></trkpt><trkpt lat="45.01027404689409" lon="11.751011376514299"><ele>4.0</ele><time>2026-04-04T16:35:47.934Z</time></trkpt><trkpt lat="45.01018235598221" lon="11.751406610649713"><ele>4.0</ele><time>2026-04-04T16:35:48.934Z</time></trkpt><trkpt lat="45.01008749771551" lon="11.751814768483772"><ele>4.0</ele><time>2026-04-04T16:35:49.934Z</time></trkpt><trkpt lat="45.0099896371955" lon="11.752235111944211"><ele>3.0</ele><time>2026-04-04T16:35:50.934Z</time></trkpt><trkpt lat="45.00989156040816" lon="11.75265400066155"><ele>2.0</ele><time>2026-04-04T16:35:51.934Z</time></trkpt><trkpt lat="45.009794487788675" lon="11.75307129479983"><ele>1.5</ele><time>2026-04-04T16:35:52.934Z</time></trkpt><trkpt lat="45.009696124187656" lon="11.753495282700753"><ele>1.0</ele><time>2026-04-04T16:35:53.934Z</time></trkpt><trkpt lat="45.00959635231916" lon="11.753927066459733"><ele>1.0</ele><time>2026-04-04T16:35:54.934Z</time></trkpt><trkpt lat="45.00949467191051" lon="11.75437131508072"><ele>1.0</ele><time>2026-04-04T16:35:55.934Z</time></trkpt><trkpt lat="45.00938930894063" lon="11.754828575567803"><ele>1.5</ele><time>2026-04-04T16:35:56.934Z</time></trkpt><trkpt lat="45.009280322236755" lon="11.75529964368785"><ele>2.0</ele><time>2026-04-04T16:35:57.934Z</time></trkpt><trkpt lat="45.00916956280838" lon="11.755776291621158"><ele>0.5</ele><time>2026-04-04T16:35:58.934Z</time></trkpt><trkpt lat="45.00906007557079" lon="11.75624802846442"><ele>-1.0</ele><time>2026-04-04T16:35:59.934Z</time></trkpt><trkpt lat="45.008958864730474" lon="11.756687462973415"><ele>-1.0</ele><time>2026-04-04T16:36:00.934Z</time></trkpt><trkpt lat="45.00886390620405" lon="11.75709388471329"><ele>-1.0</ele><time>2026-04-04T16:36:01.934Z</time></trkpt><trkpt lat="45.00877447807384" lon="11.75747699187197"><ele>-0.5</ele><time>2026-04-04T16:36:02.934Z</time></trkpt><trkpt lat="45.00869441197016" lon="11.757823653831837"><ele>0.0</ele><time>2026-04-04T16:36:03.934Z</time></trkpt><trkpt lat="45.00861963845005" lon="11.758147400564994"><ele>0.0</ele><time>2026-04-04T16:36:04.934Z</time></trkpt><trkpt lat="45.00856602455579" lon="11.758446886328171"><ele>0.0</ele><time>2026-04-04T16:36:05.934Z</time></trkpt><trkpt lat="45.00849960284957" lon="11.758726154323668"><ele>0.0</ele><time>2026-04-04T16:36:06.934Z</time></trkpt><trkpt lat="45.00842480433737" lon="11.758980984385849"><ele>0.3333333333333333</ele><time>2026-04-04T16:36:07.934Z</time></trkpt><trkpt lat="45.00838041890597" lon="11.75923864958821"><ele>0.6666666666666666</ele><time>2026-04-04T16:36:08.934Z</time></trkpt><trkpt lat="45.00830635168216" lon="11.759465463228395"><ele>1.0</ele><time>2026-04-04T16:36:09.934Z</time></trkpt><trkpt lat="45.00825181487081" lon="11.759700404745361"><ele>1.0</ele><time>2026-04-04T16:36:10.934Z</time></trkpt><trkpt lat="45.00819273743242" lon="11.759938911009385"><ele>1.0</ele><time>2026-04-04T16:36:11.934Z</time></trkpt><trkpt lat="45.00813709848258" lon="11.760172907366357"><ele>1.0</ele><time>2026-04-04T16:36:12.934Z</time></trkpt><trkpt lat="45.00807731205692" lon="11.76041029549624"><ele>1.0</ele><time>2026-04-04T16:36:13.934Z</time></trkpt><trkpt lat="45.008023973169884" lon="11.76065474063003"><ele>1.0</ele><time>2026-04-04T16:36:14.934Z</time></trkpt><trkpt lat="45.00796778469242" lon="11.760898352356008"><ele>1.0</ele><time>2026-04-04T16:36:15.934Z</time></trkpt><trkpt lat="45.00791180677905" lon="11.761145049113528"><ele>1.0</ele><time>2026-04-04T16:36:16.934Z</time></trkpt><trkpt lat="45.007855081055695" lon="11.761387566236317"><ele>1.0</ele><time>2026-04-04T16:36:17.934Z</time></trkpt><trkpt lat="45.00780046329897" lon="11.761634119461684"><ele>1.0</ele><time>2026-04-04T16:36:18.934Z</time></trkpt><trkpt lat="45.007753987117624" lon="11.76187293700409"><ele>1.0</ele><time>2026-04-04T16:36:19.934Z</time></trkpt><trkpt lat="45.007703329930585" lon="11.76209965937913"><ele>1.0</ele><time>2026-04-04T16:36:20.934Z</time></trkpt><trkpt lat="45.00765725614294" lon="11.762300555816081"><ele>1.0</ele><time>2026-04-04T16:36:21.934Z</time></trkpt><trkpt lat="45.00761899560559" lon="11.762477648647023"><ele>1.0</ele><time>2026-04-04T16:36:22.933Z</time></trkpt><trkpt lat="45.007582175294154" lon="11.762646396921534"><ele>1.25</ele><time>2026-04-04T16:36:23.933Z</time></trkpt><trkpt lat="45.007539099089755" lon="11.762820519475087"><ele>1.5</ele><time>2026-04-04T16:36:24.933Z</time></trkpt><trkpt lat="45.00750321782199" lon="11.76299298142444"><ele>1.75</ele><time>2026-04-04T16:36:25.933Z</time></trkpt><trkpt lat="45.0074659623687" lon="11.763153381268364"><ele>2.0</ele><time>2026-04-04T16:36:26.933Z</time></trkpt><trkpt lat="45.00743257735223" lon="11.76330411739455"><ele>2.0</ele><time>2026-04-04T16:36:27.933Z</time></trkpt><trkpt lat="45.007405206316726" lon="11.76344782769533"><ele>2.0</ele><time>2026-04-04T16:36:28.933Z</time></trkpt><trkpt lat="45.00734995039183" lon="11.763578007540271"><ele>2.0</ele><time>2026-04-04T16:36:29.933Z</time></trkpt><trkpt lat="45.00732044553551" lon="11.763721152536798"><ele>2.0</ele><time>2026-04-04T16:36:30.933Z</time></trkpt><trkpt lat="45.00728961050861" lon="11.763868872713642"><ele>2.0</ele><time>2026-04-04T16:36:31.933Z</time></trkpt><trkpt lat="45.00725833984439" lon="11.764014761234561"><ele>2.1666666666666665</ele><time>2026-04-04T16:36:32.933Z</time></trkpt><trkpt lat="45.007232202663054" lon="11.764156956248415"><ele>2.333333333333333</ele><time>2026-04-04T16:36:33.933Z</time></trkpt><trkpt lat="45.00720801186263" lon="11.764275522766905"><ele>2.5</ele><time>2026-04-04T16:36:34.933Z</time></trkpt><trkpt lat="45.00717987492676" lon="11.76438201267328"><ele>2.6666666666666665</ele><time>2026-04-04T16:36:35.933Z</time></trkpt><trkpt lat="45.007169627957815" lon="11.76448341027546"><ele>2.8333333333333335</ele><time>2026-04-04T16:36:36.933Z</time></trkpt><trkpt lat="45.00714089726782" lon="11.76456421837757"><ele>3.0</ele><time>2026-04-04T16:36:37.933Z</time></trkpt><trkpt lat="45.007086675062546" lon="11.764659869691608"><ele>3.0</ele><time>2026-04-04T16:36:39.933Z</time></trkpt><trkpt lat="45.007024791238436" lon="11.764687904325104"><ele>3.0</ele><time>2026-04-04T16:36:45.933Z</time></trkpt><trkpt lat="45.00692441240964" lon="11.764729778268745"><ele>3.0</ele><time>2026-04-04T16:36:48.933Z</time></trkpt><trkpt lat="45.00686199459171" lon="11.764717075069107"><ele>3.0</ele><time>2026-04-04T16:36:49.933Z</time></trkpt><trkpt lat="45.006747877817595" lon="11.764676170434859"><ele>3.0</ele><time>2026-04-04T16:36:51.933Z</time></trkpt><trkpt lat="45.00668647901661" lon="11.764653601594748"><ele>3.0</ele><time>2026-04-04T16:36:52.933Z</time></trkpt><trkpt lat="45.00661756219261" lon="11.764599409474096"><ele>2.6666666666666665</ele><time>2026-04-04T16:36:53.933Z</time></trkpt><trkpt lat="45.0065380554351" lon="11.764574039871237"><ele>2.3333333333333335</ele><time>2026-04-04T16:36:54.933Z</time></trkpt><trkpt lat="45.00647235912629" lon="11.764527898505674"><ele>2.0</ele><time>2026-04-04T16:36:55.933Z</time></trkpt><trkpt lat="45.00639626659757" lon="11.764503227814286"><ele>1.6666666666666665</ele><time>2026-04-04T16:36:56.933Z</time></trkpt><trkpt lat="45.0063156920375" lon="11.764478850139763"><ele>1.3333333333333333</ele><time>2026-04-04T16:36:57.933Z</time></trkpt><trkpt lat="45.00623095351955" lon="11.764460870995697"><ele>1.0</ele><time>2026-04-04T16:36:58.933Z</time></trkpt><trkpt lat="45.00614583306453" lon="11.764441223430028"><ele>0.9999999999999999</ele><time>2026-04-04T16:36:59.933Z</time></trkpt><trkpt lat="45.006058201710296" lon="11.764429912448476"><ele>1.0</ele><time>2026-04-04T16:37:00.933Z</time></trkpt><trkpt lat="45.005977673202814" lon="11.764422473321103"><ele>1.0</ele><time>2026-04-04T16:37:01.933Z</time></trkpt><trkpt lat="45.00589131859052" lon="11.764418939124601"><ele>1.0</ele><time>2026-04-04T16:37:02.933Z</time></trkpt><trkpt lat="45.00580284347461" lon="11.764408485055581"><ele>0.9999999999999999</ele><time>2026-04-04T16:37:03.933Z</time></trkpt><trkpt lat="45.00571669496969" lon="11.764391948329374"><ele>1.0</ele><time>2026-04-04T16:37:04.933Z</time></trkpt><trkpt lat="45.005626409612674" lon="11.764376655353043"><ele>0.9999999999999999</ele><time>2026-04-04T16:37:05.933Z</time></trkpt><trkpt lat="45.005543873326964" lon="11.764321661464225"><ele>1.0</ele><time>2026-04-04T16:37:06.934Z</time></trkpt><trkpt lat="45.00545526922715" lon="11.764302874503954"><ele>1.0</ele><time>2026-04-04T16:37:07.934Z</time></trkpt><trkpt lat="45.00537380101142" lon="11.764286135448032"><ele>1.0</ele><time>2026-04-04T16:37:08.933Z</time></trkpt><trkpt lat="45.00529638175829" lon="11.764270228372"><ele>0.9999999999999999</ele><time>2026-04-04T16:37:09.934Z</time></trkpt><trkpt lat="45.0052245765429" lon="11.764255474749369"><ele>1.0</ele><time>2026-04-04T16:37:10.934Z</time></trkpt><trkpt lat="45.00515718586388" lon="11.764241627996347"><ele>1.0</ele><time>2026-04-04T16:37:11.934Z</time></trkpt><trkpt lat="45.00509411921919" lon="11.76422815713591"><ele>0.9999999999999999</ele><time>2026-04-04T16:37:12.934Z</time></trkpt><trkpt lat="45.005030126712015" lon="11.764214644540978"><ele>1.0</ele><time>2026-04-04T16:37:13.934Z</time></trkpt><trkpt lat="45.004963707260856" lon="11.764200619469214"><ele>1.0</ele><time>2026-04-04T16:37:14.934Z</time></trkpt><trkpt lat="45.004892525166625" lon="11.764185588725292"><ele>0.9999999999999999</ele><time>2026-04-04T16:37:15.934Z</time></trkpt><trkpt lat="45.00481832561544" lon="11.764169920827772"><ele>1.0</ele><time>2026-04-04T16:37:16.934Z</time></trkpt><trkpt lat="45.00474551511703" lon="11.764154546232783"><ele>1.0</ele><time>2026-04-04T16:37:17.934Z</time></trkpt><trkpt lat="45.00467270737523" lon="11.764139172228726"><ele>1.1428571428571428</ele><time>2026-04-04T16:37:18.934Z</time></trkpt><trkpt lat="45.004597962405064" lon="11.764123389148654"><ele>1.2857142857142856</ele><time>2026-04-04T16:37:19.933Z</time></trkpt><trkpt lat="45.00452287113667" lon="11.764107532954416"><ele>1.4285714285714284</ele><time>2026-04-04T16:37:20.933Z</time></trkpt><trkpt lat="45.00444536834841" lon="11.764091167538085"><ele>1.5714285714285714</ele><time>2026-04-04T16:37:21.933Z</time></trkpt><trkpt lat="45.00436839519096" lon="11.764074913966462"><ele>1.714285714285714</ele><time>2026-04-04T16:37:22.933Z</time></trkpt><trkpt lat="45.00429727455257" lon="11.764059896203657"><ele>1.857142857142857</ele><time>2026-04-04T16:37:23.933Z</time></trkpt><trkpt lat="45.0042307132014" lon="11.764045841175859"><ele>2.0</ele><time>2026-04-04T16:37:24.933Z</time></trkpt><trkpt lat="45.00411489476791" lon="11.764044157703962"><ele>2.333333333333333</ele><time>2026-04-04T16:37:26.933Z</time></trkpt><trkpt lat="45.00402324352754" lon="11.764002580099687"><ele>2.6666666666666665</ele><time>2026-04-04T16:37:28.933Z</time></trkpt><trkpt lat="45.00394722518617" lon="11.763983059064607"><ele>3.0</ele><time>2026-04-04T16:37:30.933Z</time></trkpt><trkpt lat="45.003884628023016" lon="11.763966360806007"><ele>3.333333333333333</ele><time>2026-04-04T16:37:32.933Z</time></trkpt><trkpt lat="45.003790489370544" lon="11.763931802247502"><ele>3.6666666666666665</ele><time>2026-04-04T16:38:33.932Z</time></trkpt><trkpt lat="45.00371345412479" lon="11.763917283951427"><ele>4.0</ele><time>2026-04-04T16:38:34.932Z</time></trkpt><trkpt lat="45.00363146682752" lon="11.763905972286986"><ele>4.0</ele><time>2026-04-04T16:38:35.932Z</time></trkpt><trkpt lat="45.003541141565925" lon="11.763891399636861"><ele>4.0</ele><time>2026-04-04T16:38:36.932Z</time></trkpt><trkpt lat="45.003445571006665" lon="11.763889601549002"><ele>4.0</ele><time>2026-04-04T16:38:37.932Z</time></trkpt><trkpt lat="45.00335406667864" lon="11.763850488639575"><ele>4.0</ele><time>2026-04-04T16:38:38.932Z</time></trkpt><trkpt lat="45.00324224565041" lon="11.763840007091689"><ele>4.0</ele><time>2026-04-04T16:38:39.932Z</time></trkpt><trkpt lat="45.00313295731846" lon="11.763831300322249"><ele>3.5</ele><time>2026-04-04T16:38:40.932Z</time></trkpt><trkpt lat="45.00302318909495" lon="11.763776103298063"><ele>3.0</ele><time>2026-04-04T16:38:41.932Z</time></trkpt><trkpt lat="45.002900653899864" lon="11.763756394965482"><ele>2.5</ele><time>2026-04-04T16:38:42.932Z</time></trkpt><trkpt lat="45.00278337438817" lon="11.763734306363542"><ele>2.0</ele><time>2026-04-04T16:38:43.932Z</time></trkpt><trkpt lat="45.00266575155184" lon="11.763712876835935"><ele>2.0</ele><time>2026-04-04T16:38:44.932Z</time></trkpt><trkpt lat="45.00254458736418" lon="11.763690748275478"><ele>2.0</ele><time>2026-04-04T16:38:45.932Z</time></trkpt><trkpt lat="45.00241723899212" lon="11.763670338087419"><ele>2.0</ele><time>2026-04-04T16:38:46.932Z</time></trkpt><trkpt lat="45.00229065779707" lon="11.763650369941791"><ele>2.0</ele><time>2026-04-04T16:38:47.932Z</time></trkpt><trkpt lat="45.0021775607641" lon="11.763635492462289"><ele>2.25</ele><time>2026-04-04T16:38:48.932Z</time></trkpt><trkpt lat="45.00207010882022" lon="11.763594564920757"><ele>2.5</ele><time>2026-04-04T16:38:49.932Z</time></trkpt><trkpt lat="45.00196131243913" lon="11.763572906177581"><ele>2.75</ele><time>2026-04-04T16:38:50.932Z</time></trkpt><trkpt lat="45.0018453153333" lon="11.763559164314197"><ele>3.0</ele><time>2026-04-04T16:38:51.932Z</time></trkpt><trkpt lat="45.001723272262325" lon="11.763534831595134"><ele>3.5</ele><time>2026-04-04T16:38:52.932Z</time></trkpt><trkpt lat="45.0016087270851" lon="11.763496839485379"><ele>4.0</ele><time>2026-04-04T16:38:53.932Z</time></trkpt><trkpt lat="45.00149754839086" lon="11.763477511008457"><ele>4.5</ele><time>2026-04-04T16:38:54.932Z</time></trkpt><trkpt lat="45.00138265086249" lon="11.763457867470505"><ele>5.0</ele><time>2026-04-04T16:38:55.932Z</time></trkpt><trkpt lat="45.001248937784894" lon="11.763434830604721"><ele>5.0</ele><time>2026-04-04T16:38:56.931Z</time></trkpt><trkpt lat="45.00111259140229" lon="11.763403929974201"><ele>5.0</ele><time>2026-04-04T16:38:57.931Z</time></trkpt><trkpt lat="45.00096870828536" lon="11.763380844758338"><ele>5.0</ele><time>2026-04-04T16:38:58.931Z</time></trkpt><trkpt lat="45.00083810735407" lon="11.763311593101466"><ele>5.0</ele><time>2026-04-04T16:38:59.931Z</time></trkpt><trkpt lat="45.000706206546305" lon="11.763290012019032"><ele>4.75</ele><time>2026-04-04T16:39:00.931Z</time></trkpt><trkpt lat="45.000578730854876" lon="11.763270750470893"><ele>4.5</ele><time>2026-04-04T16:39:01.931Z</time></trkpt><trkpt lat="45.00044985543641" lon="11.763243424481388"><ele>4.25</ele><time>2026-04-04T16:39:02.931Z</time></trkpt><trkpt lat="45.00030559998867" lon="11.763216059965496"><ele>4.0</ele><time>2026-04-04T16:39:03.931Z</time></trkpt><trkpt lat="45.00016302284208" lon="11.763184802310398"><ele>4.0</ele><time>2026-04-04T16:39:04.931Z</time></trkpt><trkpt lat="45.00002745251076" lon="11.763162686775471"><ele>4.0</ele><time>2026-04-04T16:39:05.931Z</time></trkpt><trkpt lat="44.99990218374049" lon="11.76316011870749"><ele>4.0</ele><time>2026-04-04T16:39:06.931Z</time></trkpt><trkpt lat="44.999778324874995" lon="11.763158846870741"><ele>4.0</ele><time>2026-04-04T16:39:07.931Z</time></trkpt><trkpt lat="44.99964574473289" lon="11.763136347894005"><ele>4.0</ele><time>2026-04-04T16:39:08.931Z</time></trkpt><trkpt lat="44.999507564016405" lon="11.763108276457128"><ele>4.0</ele><time>2026-04-04T16:39:09.931Z</time></trkpt><trkpt lat="44.999369329572815" lon="11.763075530654122"><ele>4.0</ele><time>2026-04-04T16:39:10.931Z</time></trkpt><trkpt lat="44.999238145615564" lon="11.763041895808753"><ele>4.0</ele><time>2026-04-04T16:39:11.931Z</time></trkpt><trkpt lat="44.999111990937934" lon="11.763020484141697"><ele>3.75</ele><time>2026-04-04T16:39:12.933Z</time></trkpt><trkpt lat="44.99898766730652" lon="11.76300097384928"><ele>3.5</ele><time>2026-04-04T16:39:13.933Z</time></trkpt><trkpt lat="44.998859355868866" lon="11.762977369650946"><ele>3.25</ele><time>2026-04-04T16:39:14.933Z</time></trkpt><trkpt lat="44.99873101129397" lon="11.762950888496443"><ele>3.0</ele><time>2026-04-04T16:39:15.933Z</time></trkpt><trkpt lat="44.99860109228024" lon="11.762926814241075"><ele>3.0</ele><time>2026-04-04T16:39:16.933Z</time></trkpt><trkpt lat="44.99846556755447" lon="11.762902108238887"><ele>3.0</ele><time>2026-04-04T16:39:17.933Z</time></trkpt><trkpt lat="44.998326149214314" lon="11.762880954963714"><ele>3.0</ele><time>2026-04-04T16:39:18.933Z</time></trkpt><trkpt lat="44.99820555922535" lon="11.762782669224192"><ele>3.0</ele><time>2026-04-04T16:39:19.932Z</time></trkpt><trkpt lat="44.99808275189717" lon="11.76275670174729"><ele>2.75</ele><time>2026-04-04T16:39:20.932Z</time></trkpt><trkpt lat="44.9979637543841" lon="11.762731539887273"><ele>2.5</ele><time>2026-04-04T16:39:21.933Z</time></trkpt><trkpt lat="44.99783369950043" lon="11.762704040012771"><ele>2.25</ele><time>2026-04-04T16:39:22.933Z</time></trkpt><trkpt lat="44.99769828437809" lon="11.762675406641769"><ele>2.0</ele><time>2026-04-04T16:39:23.933Z</time></trkpt><trkpt lat="44.99756690600928" lon="11.76264762704454"><ele>2.25</ele><time>2026-04-04T16:39:24.933Z</time></trkpt><trkpt lat="44.99743602671602" lon="11.76262044953609"><ele>2.5</ele><time>2026-04-04T16:39:25.933Z</time></trkpt><trkpt lat="44.997298115063586" lon="11.7626132045591"><ele>2.75</ele><time>2026-04-04T16:39:26.933Z</time></trkpt><trkpt lat="44.99716292389369" lon="11.762579452382415"><ele>3.0</ele><time>2026-04-04T16:39:27.933Z</time></trkpt><trkpt lat="44.99702915863804" lon="11.762553932369077"><ele>3.0</ele><time>2026-04-04T16:39:28.933Z</time></trkpt><trkpt lat="44.996899187425214" lon="11.76253150155004"><ele>3.0</ele><time>2026-04-04T16:39:29.933Z</time></trkpt><trkpt lat="44.99677506918221" lon="11.762505441687765"><ele>3.0</ele><time>2026-04-04T16:39:30.933Z</time></trkpt><trkpt lat="44.996648152472346" lon="11.762485584999398"><ele>3.0</ele><time>2026-04-04T16:39:31.932Z</time></trkpt><trkpt lat="44.99652483345786" lon="11.762427372588887"><ele>2.75</ele><time>2026-04-04T16:39:32.932Z</time></trkpt><trkpt lat="44.99639611470052" lon="11.762400276470814"><ele>2.5</ele><time>2026-04-04T16:39:33.932Z</time></trkpt><trkpt lat="44.99627047454713" lon="11.762373828412525"><ele>2.25</ele><time>2026-04-04T16:39:34.932Z</time></trkpt><trkpt lat="44.99614740316933" lon="11.762347920580194"><ele>2.0</ele><time>2026-04-04T16:39:35.932Z</time></trkpt><trkpt lat="44.99602187532896" lon="11.762320866721879"><ele>2.0</ele><time>2026-04-04T16:39:36.932Z</time></trkpt><trkpt lat="44.995892643902465" lon="11.762293217579597"><ele>2.0</ele><time>2026-04-04T16:39:37.932Z</time></trkpt><trkpt lat="44.995764849148614" lon="11.76226780757093"><ele>2.0</ele><time>2026-04-04T16:39:38.932Z</time></trkpt><trkpt lat="44.99563419828562" lon="11.76224150800519"><ele>2.0</ele><time>2026-04-04T16:39:39.932Z</time></trkpt><trkpt lat="44.995504194222406" lon="11.762214520846028"><ele>2.25</ele><time>2026-04-04T16:39:40.932Z</time></trkpt><trkpt lat="44.99536840982751" lon="11.76220827962238"><ele>2.5</ele><time>2026-04-04T16:39:41.932Z</time></trkpt><trkpt lat="44.99524504252787" lon="11.762159023071417"><ele>2.75</ele><time>2026-04-04T16:39:42.932Z</time></trkpt><trkpt lat="44.99511466843438" lon="11.762144128745092"><ele>3.0</ele><time>2026-04-04T16:39:43.932Z</time></trkpt><trkpt lat="44.99498851254172" lon="11.762091991632778"><ele>3.0</ele><time>2026-04-04T16:39:44.932Z</time></trkpt><trkpt lat="44.994855651383425" lon="11.762070655649586"><ele>3.0</ele><time>2026-04-04T16:39:45.932Z</time></trkpt><trkpt lat="44.99472124641552" lon="11.762058499219352"><ele>3.0</ele><time>2026-04-04T16:39:46.932Z</time></trkpt><trkpt lat="44.99459150334818" lon="11.76202572236655"><ele>3.0</ele><time>2026-04-04T16:39:47.932Z</time></trkpt><trkpt lat="44.99447092380592" lon="11.762001514993138"><ele>3.0</ele><time>2026-04-04T16:39:48.932Z</time></trkpt><trkpt lat="44.994352002328604" lon="11.761976515770762"><ele>3.0</ele><time>2026-04-04T16:39:49.932Z</time></trkpt><trkpt lat="44.99423673987624" lon="11.76195126977438"><ele>3.0</ele><time>2026-04-04T16:39:50.932Z</time></trkpt><trkpt lat="44.99411841722985" lon="11.76192522207149"><ele>3.0</ele><time>2026-04-04T16:39:51.932Z</time></trkpt><trkpt lat="44.99399663030082" lon="11.761899014509186"><ele>2.75</ele><time>2026-04-04T16:39:52.932Z</time></trkpt><trkpt lat="44.9938738801873" lon="11.761872565027613"><ele>2.5</ele><time>2026-04-04T16:39:53.932Z</time></trkpt><trkpt lat="44.99375167663805" lon="11.761845286292688"><ele>2.25</ele><time>2026-04-04T16:39:54.932Z</time></trkpt><trkpt lat="44.99362386670529" lon="11.76187082807129"><ele>2.0</ele><time>2026-04-04T16:39:55.932Z</time></trkpt><trkpt lat="44.99350167402432" lon="11.761849425192542"><ele>2.0</ele><time>2026-04-04T16:39:56.932Z</time></trkpt><trkpt lat="44.99337411916409" lon="11.761837101048014"><ele>2.0</ele><time>2026-04-04T16:39:57.932Z</time></trkpt><trkpt lat="44.993237705748435" lon="11.761825817487185"><ele>2.0</ele><time>2026-04-04T16:39:58.932Z</time></trkpt><trkpt lat="44.99310145742309" lon="11.76170749128321"><ele>2.0</ele><time>2026-04-04T16:39:59.932Z</time></trkpt><trkpt lat="44.992946610829776" lon="11.761675743223131"><ele>2.333333333333333</ele><time>2026-04-04T16:40:00.932Z</time></trkpt><trkpt lat="44.99278792391558" lon="11.761643207779386"><ele>2.6666666666666665</ele><time>2026-04-04T16:40:01.932Z</time></trkpt><trkpt lat="44.9926254944177" lon="11.761607518068642"><ele>3.0</ele><time>2026-04-04T16:40:02.932Z</time></trkpt><trkpt lat="44.99246071588527" lon="11.761570904007012"><ele>3.0</ele><time>2026-04-04T16:40:03.932Z</time></trkpt><trkpt lat="44.99229463271989" lon="11.761534000079871"><ele>3.0</ele><time>2026-04-04T16:40:04.932Z</time></trkpt><trkpt lat="44.99212616749914" lon="11.761528634250187"><ele>3.0</ele><time>2026-04-04T16:40:05.932Z</time></trkpt><trkpt lat="44.99195814546928" lon="11.761493227601221"><ele>3.0</ele><time>2026-04-04T16:40:06.932Z</time></trkpt><trkpt lat="44.99178410193483" lon="11.76146051551271"><ele>3.0</ele><time>2026-04-04T16:40:07.932Z</time></trkpt><trkpt lat="44.99161320801812" lon="11.761429301207425"><ele>3.0</ele><time>2026-04-04T16:40:08.932Z</time></trkpt><trkpt lat="44.99144639022204" lon="11.761357501900953"><ele>3.0</ele><time>2026-04-04T16:40:09.932Z</time></trkpt><trkpt lat="44.99127068552186" lon="11.76132011055862"><ele>3.0</ele><time>2026-04-04T16:40:10.932Z</time></trkpt><trkpt lat="44.99108934220968" lon="11.761281519275379"><ele>3.0</ele><time>2026-04-04T16:40:11.932Z</time></trkpt><trkpt lat="44.99090296426964" lon="11.761241856569814"><ele>3.0</ele><time>2026-04-04T16:40:12.932Z</time></trkpt><trkpt lat="44.990709795994846" lon="11.761245974340214"><ele>3.0</ele><time>2026-04-04T16:40:13.932Z</time></trkpt><trkpt lat="44.99051726298814" lon="11.761205642811564"><ele>3.0</ele><time>2026-04-04T16:40:14.932Z</time></trkpt><trkpt lat="44.9903197914284" lon="11.761169754503575"><ele>3.0</ele><time>2026-04-04T16:40:15.932Z</time></trkpt><trkpt lat="44.99013325756534" lon="11.761118965000765"><ele>3.0</ele><time>2026-04-04T16:40:16.932Z</time></trkpt><trkpt lat="44.98995507797189" lon="11.761043864333068"><ele>3.0</ele><time>2026-04-04T16:40:17.932Z</time></trkpt><trkpt lat="44.98978063727214" lon="11.76100868680715"><ele>2.0</ele><time>2026-04-04T16:40:18.932Z</time></trkpt><trkpt lat="44.989603406960406" lon="11.760972404197533"><ele>1.0</ele><time>2026-04-04T16:40:19.932Z</time></trkpt><trkpt lat="44.989419154316366" lon="11.76093315745576"><ele>0.0</ele><time>2026-04-04T16:40:20.931Z</time></trkpt><trkpt lat="44.98923173156867" lon="11.760893235493178"><ele>0.0</ele><time>2026-04-04T16:40:21.931Z</time></trkpt><trkpt lat="44.989041532507045" lon="11.760852722150684"><ele>0.0</ele><time>2026-04-04T16:40:22.931Z</time></trkpt><trkpt lat="44.98885131591354" lon="11.760812205070428"><ele>0.0</ele><time>2026-04-04T16:40:23.931Z</time></trkpt><trkpt lat="44.988659226788975" lon="11.760771272954265"><ele>0.0</ele><time>2026-04-04T16:40:24.931Z</time></trkpt><trkpt lat="44.988469354020886" lon="11.760730777133459"><ele>0.0</ele><time>2026-04-04T16:40:25.931Z</time></trkpt><trkpt lat="44.98827847177238" lon="11.760690066013801"><ele>0.0</ele><time>2026-04-04T16:40:26.931Z</time></trkpt><trkpt lat="44.98808914769147" lon="11.760649579034045"><ele>-0.3333333333333333</ele><time>2026-04-04T16:40:27.931Z</time></trkpt><trkpt lat="44.98789953703385" lon="11.760608361049707"><ele>-0.6666666666666666</ele><time>2026-04-04T16:40:28.931Z</time></trkpt><trkpt lat="44.98770541945954" lon="11.760566163373486"><ele>-1.0</ele><time>2026-04-04T16:40:29.931Z</time></trkpt><trkpt lat="44.98751846183328" lon="11.760527289296634"><ele>-0.6666666666666666</ele><time>2026-04-04T16:40:30.931Z</time></trkpt><trkpt lat="44.98733779598838" lon="11.760490637139453"><ele>-0.3333333333333333</ele><time>2026-04-04T16:40:31.931Z</time></trkpt><trkpt lat="44.98715738177096" lon="11.760453498655382"><ele>0.0</ele><time>2026-04-04T16:40:32.931Z</time></trkpt><trkpt lat="44.98698036974739" lon="11.760412346179985"><ele>0.0</ele><time>2026-04-04T16:40:33.931Z</time></trkpt><trkpt lat="44.98680303902715" lon="11.760384648157608"><ele>0.0</ele><time>2026-04-04T16:40:34.931Z</time></trkpt><trkpt lat="44.98662511469366" lon="11.760352829909"><ele>0.0</ele><time>2026-04-04T16:40:35.931Z</time></trkpt><trkpt lat="44.98644428239639" lon="11.760303539081885"><ele>0.0</ele><time>2026-04-04T16:40:36.931Z</time></trkpt><trkpt lat="44.98626483300361" lon="11.760280774416088"><ele>0.0</ele><time>2026-04-04T16:40:37.931Z</time></trkpt><trkpt lat="44.98608276207232" lon="11.760250626563904"><ele>0.0</ele><time>2026-04-04T16:40:38.931Z</time></trkpt><trkpt lat="44.98590515874725" lon="11.760192412085534"><ele>0.0</ele><time>2026-04-04T16:40:39.931Z</time></trkpt><trkpt lat="44.985724297555876" lon="11.76015504267414"><ele>0.0</ele><time>2026-04-04T16:40:40.931Z</time></trkpt><trkpt lat="44.985546446586504" lon="11.760118177840104"><ele>0.0</ele><time>2026-04-04T16:40:41.931Z</time></trkpt><trkpt lat="44.9853660029159" lon="11.760102466632006"><ele>0.0</ele><time>2026-04-04T16:40:42.931Z</time></trkpt><trkpt lat="44.98518400124817" lon="11.760043050380926"><ele>0.0</ele><time>2026-04-04T16:40:43.931Z</time></trkpt><trkpt lat="44.984994446464704" lon="11.76002465446108"><ele>0.0</ele><time>2026-04-04T16:40:44.931Z</time></trkpt><trkpt lat="44.984812798223686" lon="11.75992578162288"><ele>0.0</ele><time>2026-04-04T16:40:45.931Z</time></trkpt><trkpt lat="44.984623927248975" lon="11.759881881618371"><ele>0.0</ele><time>2026-04-04T16:40:46.931Z</time></trkpt><trkpt lat="44.98444016376496" lon="11.759836195587935"><ele>0.0</ele><time>2026-04-04T16:40:47.931Z</time></trkpt><trkpt lat="44.98425899126993" lon="11.759801957388179"><ele>0.3333333333333333</ele><time>2026-04-04T16:40:48.931Z</time></trkpt><trkpt lat="44.98409402918953" lon="11.759773947684636"><ele>0.6666666666666666</ele><time>2026-04-04T16:40:49.931Z</time></trkpt><trkpt lat="44.983932941742765" lon="11.7597656839716"><ele>1.0</ele><time>2026-04-04T16:40:50.931Z</time></trkpt><trkpt lat="44.983777457276716" lon="11.759749749801072"><ele>1.0</ele><time>2026-04-04T16:40:51.931Z</time></trkpt><trkpt lat="44.98362031816537" lon="11.759708338173036"><ele>1.0</ele><time>2026-04-04T16:40:52.931Z</time></trkpt><trkpt lat="44.98346086922592" lon="11.759678339362408"><ele>1.0</ele><time>2026-04-04T16:40:53.931Z</time></trkpt><trkpt lat="44.98330028459426" lon="11.759652741749669"><ele>0.6666666666666666</ele><time>2026-04-04T16:40:54.931Z</time></trkpt><trkpt lat="44.98313131298286" lon="11.759624962824825"><ele>0.3333333333333333</ele><time>2026-04-04T16:40:55.931Z</time></trkpt><trkpt lat="44.98296380432315" lon="11.759612179483572"><ele>0.0</ele><time>2026-04-04T16:40:56.931Z</time></trkpt><trkpt lat="44.98279996998903" lon="11.759565050947579"><ele>0.0</ele><time>2026-04-04T16:40:57.931Z</time></trkpt><trkpt lat="44.982631254644026" lon="11.759528622333294"><ele>0.0</ele><time>2026-04-04T16:40:58.931Z</time></trkpt><trkpt lat="44.98245871562618" lon="11.759482175094382"><ele>0.0</ele><time>2026-04-04T16:40:59.931Z</time></trkpt><trkpt lat="44.9822850907314" lon="11.759443427625587"><ele>0.0</ele><time>2026-04-04T16:41:00.931Z</time></trkpt><trkpt lat="44.98211102743479" lon="11.759404759885875"><ele>0.0</ele><time>2026-04-04T16:41:01.931Z</time></trkpt><trkpt lat="44.981934958815955" lon="11.759366694729453"><ele>0.0</ele><time>2026-04-04T16:41:02.931Z</time></trkpt><trkpt lat="44.981759681318486" lon="11.759329275288191"><ele>0.3333333333333333</ele><time>2026-04-04T16:41:03.931Z</time></trkpt><trkpt lat="44.98159627228166" lon="11.759293992213285"><ele>0.6666666666666666</ele><time>2026-04-04T16:41:04.931Z</time></trkpt><trkpt lat="44.98144008441539" lon="11.759260263243155"><ele>1.0</ele><time>2026-04-04T16:41:05.931Z</time></trkpt><trkpt lat="44.98129088098074" lon="11.759226847238569"><ele>1.0</ele><time>2026-04-04T16:41:06.931Z</time></trkpt><trkpt lat="44.98114799575995" lon="11.75919149878934"><ele>1.0</ele><time>2026-04-04T16:41:07.931Z</time></trkpt><trkpt lat="44.98100685709009" lon="11.75915723235605"><ele>1.0</ele><time>2026-04-04T16:41:08.931Z</time></trkpt><trkpt lat="44.98085950558563" lon="11.759123537638956"><ele>1.0</ele><time>2026-04-04T16:41:09.931Z</time></trkpt><trkpt lat="44.98070866772223" lon="11.759090693685936"><ele>1.3333333333333333</ele><time>2026-04-04T16:41:10.93Z</time></trkpt><trkpt lat="44.980555092905185" lon="11.75905815044226"><ele>1.6666666666666665</ele><time>2026-04-04T16:41:11.93Z</time></trkpt><trkpt lat="44.98040129466681" lon="11.759025559877"><ele>2.0</ele><time>2026-04-04T16:41:12.93Z</time></trkpt><trkpt lat="44.98024222402886" lon="11.758992756500314"><ele>2.0</ele><time>2026-04-04T16:41:13.93Z</time></trkpt><trkpt lat="44.98008160222457" lon="11.75896013590611"><ele>2.0</ele><time>2026-04-04T16:41:14.93Z</time></trkpt><trkpt lat="44.979914279297915" lon="11.758926154364483"><ele>2.0</ele><time>2026-04-04T16:41:15.93Z</time></trkpt><trkpt lat="44.979752621750414" lon="11.758893323441978"><ele>1.6666666666666665</ele><time>2026-04-04T16:41:16.93Z</time></trkpt><trkpt lat="44.97959436547775" lon="11.758860010629293"><ele>1.3333333333333333</ele><time>2026-04-04T16:41:17.93Z</time></trkpt><trkpt lat="44.97943263453148" lon="11.758823519698892"><ele>1.0</ele><time>2026-04-04T16:41:18.931Z</time></trkpt><trkpt lat="44.9792661940671" lon="11.758786777723397"><ele>1.0</ele><time>2026-04-04T16:41:19.932Z</time></trkpt><trkpt lat="44.97909969417065" lon="11.75874824039143"><ele>1.0</ele><time>2026-04-04T16:41:20.932Z</time></trkpt><trkpt lat="44.97893292364555" lon="11.758712590529765"><ele>1.0</ele><time>2026-04-04T16:41:21.931Z</time></trkpt><trkpt lat="44.978765875077514" lon="11.758671714357938"><ele>1.0</ele><time>2026-04-04T16:41:22.932Z</time></trkpt><trkpt lat="44.97859713132899" lon="11.758637808979527"><ele>1.0</ele><time>2026-04-04T16:41:23.932Z</time></trkpt><trkpt lat="44.97843431293161" lon="11.75860166693656"><ele>1.0</ele><time>2026-04-04T16:41:24.932Z</time></trkpt><trkpt lat="44.97827401254404" lon="11.75856548229733"><ele>1.3333333333333333</ele><time>2026-04-04T16:41:25.931Z</time></trkpt><trkpt lat="44.97811109775136" lon="11.758537632248473"><ele>1.6666666666666665</ele><time>2026-04-04T16:41:26.931Z</time></trkpt><trkpt lat="44.97795037727349" lon="11.758513413034771"><ele>2.0</ele><time>2026-04-04T16:41:27.932Z</time></trkpt><trkpt lat="44.97778794613401" lon="11.758462346822377"><ele>2.333333333333333</ele><time>2026-04-04T16:41:28.932Z</time></trkpt><trkpt lat="44.97764259067071" lon="11.758355111276352"><ele>2.6666666666666665</ele><time>2026-04-04T16:41:29.932Z</time></trkpt><trkpt lat="44.97748881462619" lon="11.75824858564976"><ele>3.0</ele><time>2026-04-04T16:41:30.931Z</time></trkpt><trkpt lat="44.97732715860041" lon="11.758133423799915"><ele>3.0</ele><time>2026-04-04T16:41:31.932Z</time></trkpt><trkpt lat="44.977160384228206" lon="11.75801176882794"><ele>3.0</ele><time>2026-04-04T16:41:32.932Z</time></trkpt><trkpt lat="44.97699400589572" lon="11.757889232311188"><ele>3.0</ele><time>2026-04-04T16:41:33.932Z</time></trkpt><trkpt lat="44.97682829071494" lon="11.757767184266893"><ele>3.0</ele><time>2026-04-04T16:41:34.932Z</time></trkpt><trkpt lat="44.97666369462779" lon="11.757645960143407"><ele>3.0</ele><time>2026-04-04T16:41:35.932Z</time></trkpt><trkpt lat="44.97650355317007" lon="11.757527763321217"><ele>3.0</ele><time>2026-04-04T16:41:36.932Z</time></trkpt><trkpt lat="44.976350418342065" lon="11.757415295868853"><ele>3.0</ele><time>2026-04-04T16:41:37.932Z</time></trkpt><trkpt lat="44.97619890883768" lon="11.757304633683832"><ele>3.0</ele><time>2026-04-04T16:41:38.932Z</time></trkpt><trkpt lat="44.976035038486714" lon="11.757209638446616"><ele>3.0</ele><time>2026-04-04T16:41:39.932Z</time></trkpt><trkpt lat="44.97588325965497" lon="11.757094232642539"><ele>3.333333333333333</ele><time>2026-04-04T16:41:40.932Z</time></trkpt><trkpt lat="44.97573512921154" lon="11.756982410184161"><ele>3.6666666666666665</ele><time>2026-04-04T16:41:41.932Z</time></trkpt><trkpt lat="44.975590435011966" lon="11.756867608217476"><ele>4.0</ele><time>2026-04-04T16:41:42.932Z</time></trkpt><trkpt lat="44.97543990586196" lon="11.756760330317935"><ele>4.0</ele><time>2026-04-04T16:41:43.931Z</time></trkpt><trkpt lat="44.9752852270393" lon="11.756653528604106"><ele>4.0</ele><time>2026-04-04T16:41:44.931Z</time></trkpt><trkpt lat="44.97513506647817" lon="11.756550355588773"><ele>4.0</ele><time>2026-04-04T16:41:45.931Z</time></trkpt><trkpt lat="44.97498541476362" lon="11.756438574190147"><ele>4.666666666666666</ele><time>2026-04-04T16:41:46.931Z</time></trkpt><trkpt lat="44.97485038047422" lon="11.756281581442567"><ele>5.333333333333333</ele><time>2026-04-04T16:41:47.931Z</time></trkpt><trkpt lat="44.974702156522525" lon="11.75616765018688"><ele>6.0</ele><time>2026-04-04T16:41:48.931Z</time></trkpt><trkpt lat="44.97455239673824" lon="11.756054656043137"><ele>6.0</ele><time>2026-04-04T16:41:49.931Z</time></trkpt><trkpt lat="44.974397878175125" lon="11.75594640742237"><ele>6.0</ele><time>2026-04-04T16:41:50.931Z</time></trkpt><trkpt lat="44.974241393508095" lon="11.755834220382546"><ele>6.0</ele><time>2026-04-04T16:41:51.931Z</time></trkpt><trkpt lat="44.974088900930134" lon="11.755721958474428"><ele>6.0</ele><time>2026-04-04T16:41:52.931Z</time></trkpt><trkpt lat="44.973931394335295" lon="11.755623638504167"><ele>6.0</ele><time>2026-04-04T16:41:53.931Z</time></trkpt><trkpt lat="44.97377129459931" lon="11.755522056745376"><ele>6.0</ele><time>2026-04-04T16:41:54.931Z</time></trkpt><trkpt lat="44.973612970368336" lon="11.755421892724334"><ele>6.0</ele><time>2026-04-04T16:41:55.931Z</time></trkpt><trkpt lat="44.97344420093573" lon="11.75531519627143"><ele>6.0</ele><time>2026-04-04T16:41:56.931Z</time></trkpt><trkpt lat="44.973275697144366" lon="11.755203655523871"><ele>6.0</ele><time>2026-04-04T16:41:57.931Z</time></trkpt><trkpt lat="44.97311579574657" lon="11.75506455929274"><ele>5.0</ele><time>2026-04-04T16:41:58.931Z</time></trkpt><trkpt lat="44.972958385426104" lon="11.754952934221043"><ele>4.0</ele><time>2026-04-04T16:41:59.931Z</time></trkpt><trkpt lat="44.972800133643865" lon="11.754844878358375"><ele>3.0</ele><time>2026-04-04T16:42:00.931Z</time></trkpt><trkpt lat="44.972638872882705" lon="11.754737920784743"><ele>3.0</ele><time>2026-04-04T16:42:01.931Z</time></trkpt><trkpt lat="44.97246927358171" lon="11.754630440083151"><ele>3.0</ele><time>2026-04-04T16:42:02.931Z</time></trkpt><trkpt lat="44.972297102807254" lon="11.754529073416478"><ele>3.0</ele><time>2026-04-04T16:42:03.931Z</time></trkpt><trkpt lat="44.97212236497909" lon="11.754434961693411"><ele>2.6666666666666665</ele><time>2026-04-04T16:42:04.931Z</time></trkpt><trkpt lat="44.9719560131989" lon="11.754346679462632"><ele>2.333333333333333</ele><time>2026-04-04T16:42:05.931Z</time></trkpt><trkpt lat="44.97180817766505" lon="11.754269084918864"><ele>2.0</ele><time>2026-04-04T16:42:06.931Z</time></trkpt><trkpt lat="44.97167412812424" lon="11.754198763230605"><ele>2.5</ele><time>2026-04-04T16:42:07.931Z</time></trkpt><trkpt lat="44.97155475100511" lon="11.754136138602007"><ele>3.0</ele><time>2026-04-04T16:42:08.931Z</time></trkpt><trkpt lat="44.971439062658696" lon="11.7540754490608"><ele>3.5</ele><time>2026-04-04T16:42:09.931Z</time></trkpt><trkpt lat="44.97131918592888" lon="11.75403408891651"><ele>4.0</ele><time>2026-04-04T16:42:10.931Z</time></trkpt><trkpt lat="44.971213582243855" lon="11.753951802344073"><ele>4.0</ele><time>2026-04-04T16:42:11.931Z</time></trkpt><trkpt lat="44.971104521545165" lon="11.753892908730206"><ele>4.0</ele><time>2026-04-04T16:42:12.931Z</time></trkpt><trkpt lat="44.97099729916682" lon="11.753837672878282"><ele>4.0</ele><time>2026-04-04T16:42:13.931Z</time></trkpt><trkpt lat="44.97089485762053" lon="11.753782834243305"><ele>4.0</ele><time>2026-04-04T16:42:14.931Z</time></trkpt><trkpt lat="44.97080021226453" lon="11.753729797273227"><ele>4.0</ele><time>2026-04-04T16:42:15.931Z</time></trkpt><trkpt lat="44.97071986762955" lon="11.753678176299621"><ele>3.8000000000000003</ele><time>2026-04-04T16:42:16.931Z</time></trkpt><trkpt lat="44.97064445783442" lon="11.753634350503985"><ele>3.6000000000000005</ele><time>2026-04-04T16:42:17.931Z</time></trkpt><trkpt lat="44.97057043833356" lon="11.75358550664405"><ele>3.4</ele><time>2026-04-04T16:42:18.931Z</time></trkpt><trkpt lat="44.97049621490538" lon="11.753557335785057"><ele>3.2</ele><time>2026-04-04T16:42:19.931Z</time></trkpt><trkpt lat="44.97043728087364" lon="11.753509958485973"><ele>3.0</ele><time>2026-04-04T16:42:20.931Z</time></trkpt><trkpt lat="44.97026413059092" lon="11.753662909611602"><ele>3.0</ele><time>2026-04-04T16:42:22.931Z</time></trkpt><trkpt lat="44.97017479250522" lon="11.753774355363959"><ele>3.0</ele><time>2026-04-04T16:42:23.931Z</time></trkpt><trkpt lat="44.97006480329592" lon="11.753865251756595"><ele>3.0</ele><time>2026-04-04T16:42:24.931Z</time></trkpt><trkpt lat="44.9699541014839" lon="11.753941440233394"><ele>3.0</ele><time>2026-04-04T16:42:25.931Z</time></trkpt><trkpt lat="44.96984368555542" lon="11.754012084322376"><ele>3.0</ele><time>2026-04-04T16:42:26.931Z</time></trkpt><trkpt lat="44.96972503591211" lon="11.754086189074977"><ele>3.0</ele><time>2026-04-04T16:42:27.931Z</time></trkpt><trkpt lat="44.96958200747903" lon="11.754177046856004"><ele>3.0</ele><time>2026-04-04T16:42:28.931Z</time></trkpt><trkpt lat="44.969423571177195" lon="11.754282175031088"><ele>2.6666666666666665</ele><time>2026-04-04T16:42:29.931Z</time></trkpt><trkpt lat="44.96924990725924" lon="11.754393510482554"><ele>2.333333333333333</ele><time>2026-04-04T16:42:30.931Z</time></trkpt><trkpt lat="44.96907101678253" lon="11.754506125800031"><ele>2.0</ele><time>2026-04-04T16:42:31.931Z</time></trkpt><trkpt lat="44.968879860598804" lon="11.754637732769172"><ele>2.0</ele><time>2026-04-04T16:42:32.931Z</time></trkpt><trkpt lat="44.96868145023719" lon="11.75476213049844"><ele>2.0</ele><time>2026-04-04T16:42:33.93Z</time></trkpt><trkpt lat="44.96848358729165" lon="11.754898264030553"><ele>2.0</ele><time>2026-04-04T16:42:34.93Z</time></trkpt><trkpt lat="44.96829062895411" lon="11.75502882602936"><ele>2.0</ele><time>2026-04-04T16:42:35.93Z</time></trkpt><trkpt lat="44.96809490065881" lon="11.755144831019757"><ele>2.0</ele><time>2026-04-04T16:42:36.93Z</time></trkpt><trkpt lat="44.967907182513976" lon="11.755268049093791"><ele>2.0</ele><time>2026-04-04T16:42:37.93Z</time></trkpt><trkpt lat="44.96772160218053" lon="11.755387402134883"><ele>2.333333333333333</ele><time>2026-04-04T16:42:38.93Z</time></trkpt><trkpt lat="44.9675409610648" lon="11.755491655630808"><ele>2.6666666666666665</ele><time>2026-04-04T16:42:39.93Z</time></trkpt><trkpt lat="44.96736013359311" lon="11.75561987117787"><ele>3.0</ele><time>2026-04-04T16:42:40.93Z</time></trkpt><trkpt lat="44.967204912874514" lon="11.755720263836418"><ele>3.0</ele><time>2026-04-04T16:42:41.93Z</time></trkpt><trkpt lat="44.967057787252024" lon="11.755801704446355"><ele>3.0</ele><time>2026-04-04T16:42:42.93Z</time></trkpt><trkpt lat="44.96690040804548" lon="11.7558737958657"><ele>3.0</ele><time>2026-04-04T16:42:43.93Z</time></trkpt><trkpt lat="44.9667264660371" lon="11.755918744076757"><ele>3.333333333333333</ele><time>2026-04-04T16:42:44.93Z</time></trkpt><trkpt lat="44.96653653405773" lon="11.7559340171797"><ele>3.6666666666666665</ele><time>2026-04-04T16:42:45.93Z</time></trkpt><trkpt lat="44.96633001284773" lon="11.755943269542069"><ele>4.0</ele><time>2026-04-04T16:42:46.93Z</time></trkpt><trkpt lat="44.9661115477489" lon="11.755948277237176"><ele>4.0</ele><time>2026-04-04T16:42:47.93Z</time></trkpt><trkpt lat="44.96587558905274" lon="11.755953327617167"><ele>4.0</ele><time>2026-04-04T16:42:48.93Z</time></trkpt><trkpt lat="44.965629936021536" lon="11.755959241626964"><ele>3.5</ele><time>2026-04-04T16:42:49.93Z</time></trkpt><trkpt lat="44.965378594566694" lon="11.755972816883974"><ele>3.0</ele><time>2026-04-04T16:42:50.93Z</time></trkpt><trkpt lat="44.96510905302233" lon="11.755984755099743"><ele>2.5</ele><time>2026-04-04T16:42:51.93Z</time></trkpt><trkpt lat="44.964836352025586" lon="11.755995366803086"><ele>2.0</ele><time>2026-04-04T16:42:52.93Z</time></trkpt><trkpt lat="44.9645725131147" lon="11.755986995942989"><ele>2.0</ele><time>2026-04-04T16:42:53.93Z</time></trkpt><trkpt lat="44.96433117624963" lon="11.75599658343293"><ele>2.0</ele><time>2026-04-04T16:42:54.93Z</time></trkpt><trkpt lat="44.9641056473416" lon="11.756005542919977"><ele>3.5</ele><time>2026-04-04T16:42:55.93Z</time></trkpt><trkpt lat="44.96388504263623" lon="11.756014572727397"><ele>5.0</ele><time>2026-04-04T16:42:56.93Z</time></trkpt><trkpt lat="44.96365583546211" lon="11.756023840426868"><ele>5.0</ele><time>2026-04-04T16:42:57.93Z</time></trkpt><trkpt lat="44.96342527929801" lon="11.756032588401753"><ele>5.0</ele><time>2026-04-04T16:42:58.93Z</time></trkpt><trkpt lat="44.963225145382864" lon="11.756039956918476"><ele>5.0</ele><time>2026-04-04T16:42:59.93Z</time></trkpt><trkpt lat="44.963052726010424" lon="11.756046903462329"><ele>5.333333333333334</ele><time>2026-04-04T16:43:00.93Z</time></trkpt><trkpt lat="44.96289542026207" lon="11.756053241086452"><ele>5.666666666666667</ele><time>2026-04-04T16:43:01.93Z</time></trkpt><trkpt lat="44.96273144907027" lon="11.756059847274132"><ele>6.0</ele><time>2026-04-04T16:43:02.93Z</time></trkpt><trkpt lat="44.9625508486773" lon="11.756066968766152"><ele>6.333333333333334</ele><time>2026-04-04T16:43:03.93Z</time></trkpt><trkpt lat="44.962358336152754" lon="11.756074357221387"><ele>6.666666666666667</ele><time>2026-04-04T16:43:04.93Z</time></trkpt><trkpt lat="44.9621580824742" lon="11.756082739320902"><ele>7.0</ele><time>2026-04-04T16:43:05.93Z</time></trkpt><trkpt lat="44.961952745802066" lon="11.756091223786386"><ele>7.0</ele><time>2026-04-04T16:43:06.93Z</time></trkpt><trkpt lat="44.961744033140704" lon="11.756099160270969"><ele>7.0</ele><time>2026-04-04T16:43:07.93Z</time></trkpt><trkpt lat="44.961529728276396" lon="11.756107820052671"><ele>7.0</ele><time>2026-04-04T16:43:08.93Z</time></trkpt><trkpt lat="44.96131047270816" lon="11.756117509853512"><ele>7.5</ele><time>2026-04-04T16:43:09.93Z</time></trkpt><trkpt lat="44.96108563499103" lon="11.756127446360761"><ele>8.0</ele><time>2026-04-04T16:43:10.93Z</time></trkpt><trkpt lat="44.9608583412167" lon="11.756138381164881"><ele>6.666666666666666</ele><time>2026-04-04T16:43:11.93Z</time></trkpt><trkpt lat="44.96064117119655" lon="11.756147508954335"><ele>5.333333333333333</ele><time>2026-04-04T16:43:12.93Z</time></trkpt><trkpt lat="44.96042294720133" lon="11.756156323971902"><ele>4.0</ele><time>2026-04-04T16:43:13.93Z</time></trkpt><trkpt lat="44.960202860354535" lon="11.75616521423698"><ele>2.5</ele><time>2026-04-04T16:43:14.93Z</time></trkpt><trkpt lat="44.95997971780926" lon="11.756174227942193"><ele>1.0</ele><time>2026-04-04T16:43:15.93Z</time></trkpt><trkpt lat="44.959742588143826" lon="11.756183808570384"><ele>1.0</ele><time>2026-04-04T16:43:16.93Z</time></trkpt><trkpt lat="44.959496102789124" lon="11.756193764148033"><ele>1.0</ele><time>2026-04-04T16:43:17.93Z</time></trkpt><trkpt lat="44.95925381793966" lon="11.756203026449656"><ele>1.0</ele><time>2026-04-04T16:43:18.93Z</time></trkpt><trkpt lat="44.95901352880871" lon="11.756211983404977"><ele>1.0</ele><time>2026-04-04T16:43:19.93Z</time></trkpt><trkpt lat="44.95877357296547" lon="11.756223176989256"><ele>1.0</ele><time>2026-04-04T16:43:20.93Z</time></trkpt><trkpt lat="44.958535682195446" lon="11.756234274256968"><ele>1.0</ele><time>2026-04-04T16:43:21.93Z</time></trkpt><trkpt lat="44.95829690865889" lon="11.756244941352445"><ele>2.0</ele><time>2026-04-04T16:43:22.929Z</time></trkpt><trkpt lat="44.958054156053926" lon="11.756255065622728"><ele>3.0</ele><time>2026-04-04T16:43:23.929Z</time></trkpt><trkpt lat="44.957809185373456" lon="11.756288384950768"><ele>3.0</ele><time>2026-04-04T16:43:24.93Z</time></trkpt><trkpt lat="44.95755993447006" lon="11.756293542070916"><ele>3.0</ele><time>2026-04-04T16:43:25.93Z</time></trkpt><trkpt lat="44.95730967908045" lon="11.756303229147774"><ele>6.0</ele><time>2026-04-04T16:43:26.93Z</time></trkpt><trkpt lat="44.95706038476815" lon="11.756315466968205"><ele>9.0</ele><time>2026-04-04T16:43:27.93Z</time></trkpt><trkpt lat="44.956808646306314" lon="11.756327481520318"><ele>9.0</ele><time>2026-04-04T16:43:28.93Z</time></trkpt><trkpt lat="44.956553127464474" lon="11.756317253201681"><ele>9.0</ele><time>2026-04-04T16:43:29.93Z</time></trkpt><trkpt lat="44.95629534480962" lon="11.756327815899233"><ele>9.0</ele><time>2026-04-04T16:43:30.93Z</time></trkpt><trkpt lat="44.95603514591836" lon="11.756338542681585"><ele>9.0</ele><time>2026-04-04T16:43:31.93Z</time></trkpt><trkpt lat="44.95577500129255" lon="11.756349267224314"><ele>7.5</ele><time>2026-04-04T16:43:32.93Z</time></trkpt><trkpt lat="44.95551268798661" lon="11.756360081165521"><ele>6.0</ele><time>2026-04-04T16:43:33.93Z</time></trkpt><trkpt lat="44.95525903642732" lon="11.756370538026312"><ele>5.0</ele><time>2026-04-04T16:43:34.93Z</time></trkpt><trkpt lat="44.95503519827611" lon="11.756379725701171"><ele>4.0</ele><time>2026-04-04T16:43:35.93Z</time></trkpt><trkpt lat="44.95483488441871" lon="11.756387511759856"><ele>3.0</ele><time>2026-04-04T16:43:36.931Z</time></trkpt><trkpt lat="44.954646141943634" lon="11.75639494953607"><ele>3.0</ele><time>2026-04-04T16:43:37.931Z</time></trkpt><trkpt lat="44.95446617259746" lon="11.756402278484481"><ele>3.0</ele><time>2026-04-04T16:43:38.931Z</time></trkpt><trkpt lat="44.95428008796486" lon="11.756410063064623"><ele>3.0</ele><time>2026-04-04T16:43:39.931Z</time></trkpt><trkpt lat="44.954083922581155" lon="11.756418269356114"><ele>3.666666666666667</ele><time>2026-04-04T16:43:40.931Z</time></trkpt><trkpt lat="44.953885337679736" lon="11.756426576864511"><ele>4.333333333333334</ele><time>2026-04-04T16:43:41.931Z</time></trkpt><trkpt lat="44.953681765595675" lon="11.756435093003592"><ele>5.0</ele><time>2026-04-04T16:43:42.931Z</time></trkpt><trkpt lat="44.95347443406235" lon="11.756446286966211"><ele>5.0</ele><time>2026-04-04T16:43:43.93Z</time></trkpt><trkpt lat="44.95326541374061" lon="11.756455940550296"><ele>5.0</ele><time>2026-04-04T16:43:44.93Z</time></trkpt><trkpt lat="44.95305059457566" lon="11.756464025358913"><ele>5.0</ele><time>2026-04-04T16:43:45.93Z</time></trkpt><trkpt lat="44.95283051850595" lon="11.756469770508279"><ele>5.0</ele><time>2026-04-04T16:43:46.93Z</time></trkpt><trkpt lat="44.95260374190189" lon="11.756497177346661"><ele>5.0</ele><time>2026-04-04T16:43:47.93Z</time></trkpt><trkpt lat="44.95237059287686" lon="11.756471905893294"><ele>4.5</ele><time>2026-04-04T16:43:48.93Z</time></trkpt><trkpt lat="44.95213519582051" lon="11.756453925353911"><ele>4.0</ele><time>2026-04-04T16:43:49.93Z</time></trkpt><trkpt lat="44.95189803365471" lon="11.756433415363073"><ele>3.5</ele><time>2026-04-04T16:43:50.93Z</time></trkpt><trkpt lat="44.95166375621707" lon="11.756405412671015"><ele>3.0</ele><time>2026-04-04T16:43:51.93Z</time></trkpt><trkpt lat="44.95144524896334" lon="11.756371588530794"><ele>3.0</ele><time>2026-04-04T16:43:52.93Z</time></trkpt><trkpt lat="44.95123667758229" lon="11.756330036741614"><ele>3.0</ele><time>2026-04-04T16:43:53.93Z</time></trkpt><trkpt lat="44.95103066464235" lon="11.756289334460543"><ele>3.0</ele><time>2026-04-04T16:43:54.93Z</time></trkpt><trkpt lat="44.95082545535631" lon="11.756235606052295"><ele>2.6666666666666665</ele><time>2026-04-04T16:43:55.93Z</time></trkpt><trkpt lat="44.95061566494636" lon="11.756182158379058"><ele>2.333333333333333</ele><time>2026-04-04T16:43:56.93Z</time></trkpt><trkpt lat="44.950406604368524" lon="11.756125919850865"><ele>2.0</ele><time>2026-04-04T16:43:57.93Z</time></trkpt><trkpt lat="44.95020122607076" lon="11.756072792333741"><ele>2.333333333333333</ele><time>2026-04-04T16:43:58.93Z</time></trkpt><trkpt lat="44.94999641739629" lon="11.756016327805618"><ele>2.6666666666666665</ele><time>2026-04-04T16:43:59.93Z</time></trkpt><trkpt lat="44.94979016609324" lon="11.755963249790613"><ele>3.0</ele><time>2026-04-04T16:44:00.93Z</time></trkpt><trkpt lat="44.949582661926755" lon="11.755907815206953"><ele>3.0</ele><time>2026-04-04T16:44:01.93Z</time></trkpt><trkpt lat="44.94937995070383" lon="11.75585305751279"><ele>3.0</ele><time>2026-04-04T16:44:02.93Z</time></trkpt><trkpt lat="44.94918888168428" lon="11.755795774918315"><ele>3.0</ele><time>2026-04-04T16:44:03.93Z</time></trkpt><trkpt lat="44.94899912876549" lon="11.755753634231937"><ele>3.666666666666667</ele><time>2026-04-04T16:44:04.93Z</time></trkpt><trkpt lat="44.948808744977086" lon="11.75570644520884"><ele>4.333333333333334</ele><time>2026-04-04T16:44:05.93Z</time></trkpt><trkpt lat="44.94861471515248" lon="11.75565037072249"><ele>5.0</ele><time>2026-04-04T16:44:06.93Z</time></trkpt><trkpt lat="44.94842314452148" lon="11.755583515074033"><ele>5.0</ele><time>2026-04-04T16:44:07.93Z</time></trkpt><trkpt lat="44.94823224317118" lon="11.75553243197573"><ele>5.0</ele><time>2026-04-04T16:44:08.93Z</time></trkpt><trkpt lat="44.948051101335636" lon="11.755483962303256"><ele>5.0</ele><time>2026-04-04T16:44:09.93Z</time></trkpt><trkpt lat="44.947868263641425" lon="11.755435165966981"><ele>5.0</ele><time>2026-04-04T16:44:10.93Z</time></trkpt><trkpt lat="44.947694380059495" lon="11.755388790017209"><ele>5.0</ele><time>2026-04-04T16:44:11.93Z</time></trkpt><trkpt lat="44.94751105471587" lon="11.755339676575025"><ele>5.0</ele><time>2026-04-04T16:44:12.93Z</time></trkpt><trkpt lat="44.94733177709605" lon="11.755310032835357"><ele>4.75</ele><time>2026-04-04T16:44:13.93Z</time></trkpt><trkpt lat="44.94717812172199" lon="11.755258274951604"><ele>4.5</ele><time>2026-04-04T16:44:14.93Z</time></trkpt><trkpt lat="44.94704595991781" lon="11.755220660194922"><ele>4.25</ele><time>2026-04-04T16:44:15.93Z</time></trkpt><trkpt lat="44.9469328103928" lon="11.755192179702782"><ele>4.0</ele><time>2026-04-04T16:44:16.93Z</time></trkpt><trkpt lat="44.946831442781196" lon="11.755156549641177"><ele>3.75</ele><time>2026-04-04T16:44:17.93Z</time></trkpt><trkpt lat="44.94675380528682" lon="11.755135762729987"><ele>3.5</ele><time>2026-04-04T16:44:18.93Z</time></trkpt><trkpt lat="44.946651567740915" lon="11.755295198284221"><ele>3.25</ele><time>2026-04-04T16:44:19.93Z</time></trkpt><trkpt lat="44.94656463225622" lon="11.755413439166226"><ele>3.0</ele><time>2026-04-04T16:44:20.93Z</time></trkpt><trkpt lat="44.94648445578545" lon="11.755505990891338"><ele>3.0</ele><time>2026-04-04T16:44:21.93Z</time></trkpt><trkpt lat="44.94639537678036" lon="11.755604170298527"><ele>3.0</ele><time>2026-04-04T16:44:22.93Z</time></trkpt><trkpt lat="44.94628016358523" lon="11.755703512253662"><ele>3.0</ele><time>2026-04-04T16:44:23.93Z</time></trkpt><trkpt lat="44.94616861891229" lon="11.755803324278153"><ele>3.0</ele><time>2026-04-04T16:44:24.93Z</time></trkpt><trkpt lat="44.94607400896191" lon="11.75589016808409"><ele>3.0</ele><time>2026-04-04T16:44:25.93Z</time></trkpt><trkpt lat="44.94599837648422" lon="11.755961983149081"><ele>3.0</ele><time>2026-04-04T16:44:26.93Z</time></trkpt><trkpt lat="44.945935196200224" lon="11.75601927139379"><ele>3.0</ele><time>2026-04-04T16:44:27.93Z</time></trkpt><trkpt lat="44.94585346469386" lon="11.756056468965522"><ele>3.0</ele><time>2026-04-04T16:44:29.93Z</time></trkpt><trkpt lat="44.945803971528996" lon="11.756116870464403"><ele>3.0</ele><time>2026-04-04T16:44:32.93Z</time></trkpt><trkpt lat="44.94574397865572" lon="11.756212007373746"><ele>3.0</ele><time>2026-04-04T16:44:35.929Z</time></trkpt><trkpt lat="44.945673403639795" lon="11.756231742837667"><ele>3.25</ele><time>2026-04-04T16:44:36.929Z</time></trkpt><trkpt lat="44.94560432213246" lon="11.756303120168182"><ele>3.5</ele><time>2026-04-04T16:44:37.929Z</time></trkpt><trkpt lat="44.94552069080466" lon="11.756376774785746"><ele>3.75</ele><time>2026-04-04T16:44:38.929Z</time></trkpt><trkpt lat="44.94541680840869" lon="11.756473601253228"><ele>4.0</ele><time>2026-04-04T16:44:39.929Z</time></trkpt><trkpt lat="44.94530025368784" lon="11.756612896426448"><ele>4.0</ele><time>2026-04-04T16:44:40.929Z</time></trkpt><trkpt lat="44.94519902358096" lon="11.756771868811462"><ele>4.0</ele><time>2026-04-04T16:44:41.929Z</time></trkpt><trkpt lat="44.94509731825401" lon="11.756925345839463"><ele>4.0</ele><time>2026-04-04T16:44:42.929Z</time></trkpt><trkpt lat="44.94498598332462" lon="11.757104523222024"><ele>3.333333333333333</ele><time>2026-04-04T16:44:43.929Z</time></trkpt><trkpt lat="44.94485043720211" lon="11.757279066686715"><ele>2.6666666666666665</ele><time>2026-04-04T16:44:44.929Z</time></trkpt><trkpt lat="44.944718094009346" lon="11.75747440069143"><ele>2.0</ele><time>2026-04-04T16:44:45.929Z</time></trkpt><trkpt lat="44.94458576555543" lon="11.757669712891227"><ele>2.0</ele><time>2026-04-04T16:44:46.929Z</time></trkpt><trkpt lat="44.94445011024217" lon="11.75786993574276"><ele>2.0</ele><time>2026-04-04T16:44:47.929Z</time></trkpt><trkpt lat="44.94432125164735" lon="11.758061729879248"><ele>2.0</ele><time>2026-04-04T16:44:48.929Z</time></trkpt><trkpt lat="44.944203404011105" lon="11.758239890048271"><ele>2.0</ele><time>2026-04-04T16:44:49.929Z</time></trkpt><trkpt lat="44.94409824712788" lon="11.758409972949774"><ele>2.0</ele><time>2026-04-04T16:44:50.929Z</time></trkpt><trkpt lat="44.94400208785514" lon="11.75859393218508"><ele>2.0</ele><time>2026-04-04T16:44:51.929Z</time></trkpt><trkpt lat="44.94390513538222" lon="11.758791972035645"><ele>2.0</ele><time>2026-04-04T16:44:52.929Z</time></trkpt><trkpt lat="44.94381251471913" lon="11.758989735231639"><ele>2.0</ele><time>2026-04-04T16:44:53.929Z</time></trkpt><trkpt lat="44.94372348442853" lon="11.759180377150273"><ele>2.0</ele><time>2026-04-04T16:44:54.929Z</time></trkpt><trkpt lat="44.94363164308741" lon="11.759377038727786"><ele>2.6666666666666665</ele><time>2026-04-04T16:44:55.929Z</time></trkpt><trkpt lat="44.94355417648529" lon="11.759587560928589"><ele>3.333333333333333</ele><time>2026-04-04T16:44:56.929Z</time></trkpt><trkpt lat="44.943456935131614" lon="11.759791402757582"><ele>4.0</ele><time>2026-04-04T16:44:57.929Z</time></trkpt><trkpt lat="44.943367326786834" lon="11.760003697834714"><ele>4.333333333333333</ele><time>2026-04-04T16:44:58.929Z</time></trkpt><trkpt lat="44.943288872981924" lon="11.760223743239932"><ele>4.666666666666667</ele><time>2026-04-04T16:44:59.929Z</time></trkpt><trkpt lat="44.943224447696714" lon="11.760457757740387"><ele>5.0</ele><time>2026-04-04T16:45:00.929Z</time></trkpt><trkpt lat="44.9431714023081" lon="11.760692737176036"><ele>5.0</ele><time>2026-04-04T16:45:01.929Z</time></trkpt><trkpt lat="44.943113469390944" lon="11.760943881948123"><ele>5.0</ele><time>2026-04-04T16:45:02.929Z</time></trkpt><trkpt lat="44.94305019571374" lon="11.761215492869944"><ele>5.0</ele><time>2026-04-04T16:45:03.929Z</time></trkpt><trkpt lat="44.942980138011954" lon="11.761490867042454"><ele>4.333333333333334</ele><time>2026-04-04T16:45:04.929Z</time></trkpt><trkpt lat="44.94290736097537" lon="11.76177018342129"><ele>3.666666666666667</ele><time>2026-04-04T16:45:05.929Z</time></trkpt><trkpt lat="44.94283084404859" lon="11.762024387963558"><ele>3.0</ele><time>2026-04-04T16:45:06.929Z</time></trkpt><trkpt lat="44.942760650846544" lon="11.762251094924022"><ele>3.0</ele><time>2026-04-04T16:45:07.929Z</time></trkpt><trkpt lat="44.94269144654184" lon="11.762442974575698"><ele>3.0</ele><time>2026-04-04T16:45:08.929Z</time></trkpt><trkpt lat="44.94263035084648" lon="11.76262498259791"><ele>3.0</ele><time>2026-04-04T16:45:09.929Z</time></trkpt><trkpt lat="44.94256420074103" lon="11.762781175090526"><ele>3.0</ele><time>2026-04-04T16:45:10.929Z</time></trkpt><trkpt lat="44.94251042947173" lon="11.76293969024715"><ele>2.75</ele><time>2026-04-04T16:45:11.929Z</time></trkpt><trkpt lat="44.94244526572213" lon="11.76309954211971"><ele>2.5</ele><time>2026-04-04T16:45:12.929Z</time></trkpt><trkpt lat="44.94236136487059" lon="11.763271799850205"><ele>2.25</ele><time>2026-04-04T16:45:13.929Z</time></trkpt><trkpt lat="44.94223842084246" lon="11.763430633380574"><ele>2.0</ele><time>2026-04-04T16:45:14.929Z</time></trkpt><trkpt lat="44.94210492282967" lon="11.763611737259062"><ele>2.0</ele><time>2026-04-04T16:45:15.929Z</time></trkpt><trkpt lat="44.94196491571873" lon="11.763816718602985"><ele>2.0</ele><time>2026-04-04T16:45:16.929Z</time></trkpt><trkpt lat="44.94180945898388" lon="11.763995658500791"><ele>2.0</ele><time>2026-04-04T16:45:17.929Z</time></trkpt><trkpt lat="44.941644394558594" lon="11.764165711796586"><ele>2.333333333333333</ele><time>2026-04-04T16:45:18.929Z</time></trkpt><trkpt lat="44.941449565346964" lon="11.764279237775074"><ele>2.6666666666666665</ele><time>2026-04-04T16:45:19.929Z</time></trkpt><trkpt lat="44.94124752312975" lon="11.764378560060496"><ele>3.0</ele><time>2026-04-04T16:45:20.929Z</time></trkpt><trkpt lat="44.94103531080092" lon="11.764450243448081"><ele>3.0</ele><time>2026-04-04T16:45:21.929Z</time></trkpt><trkpt lat="44.94080815410828" lon="11.764495903208456"><ele>3.0</ele><time>2026-04-04T16:45:22.928Z</time></trkpt><trkpt lat="44.94057085922001" lon="11.76450272740413"><ele>3.0</ele><time>2026-04-04T16:45:23.928Z</time></trkpt><trkpt lat="44.940320214654996" lon="11.764482392879186"><ele>3.0</ele><time>2026-04-04T16:45:24.928Z</time></trkpt><trkpt lat="44.940062588998344" lon="11.764458493284781"><ele>2.0</ele><time>2026-04-04T16:45:25.928Z</time></trkpt><trkpt lat="44.939803683600594" lon="11.764432804601906"><ele>1.0</ele><time>2026-04-04T16:45:26.928Z</time></trkpt><trkpt lat="44.93953526804248" lon="11.764401019368822"><ele>1.0</ele><time>2026-04-04T16:45:27.928Z</time></trkpt><trkpt lat="44.93926031240039" lon="11.764373144250282"><ele>1.0</ele><time>2026-04-04T16:45:28.928Z</time></trkpt><trkpt lat="44.938986823619985" lon="11.764348593568014"><ele>2.0</ele><time>2026-04-04T16:45:29.928Z</time></trkpt><trkpt lat="44.938704728149816" lon="11.764329376167062"><ele>3.0</ele><time>2026-04-04T16:45:30.929Z</time></trkpt><trkpt lat="44.93841787828204" lon="11.764318915466637"><ele>3.0</ele><time>2026-04-04T16:45:31.929Z</time></trkpt><trkpt lat="44.93813117286466" lon="11.764312216704822"><ele>3.0</ele><time>2026-04-04T16:45:32.929Z</time></trkpt><trkpt lat="44.937843426525646" lon="11.764309302819994"><ele>3.0</ele><time>2026-04-04T16:45:33.929Z</time></trkpt><trkpt lat="44.93755636862954" lon="11.764310314556013"><ele>3.0</ele><time>2026-04-04T16:45:34.929Z</time></trkpt><trkpt lat="44.937271823778914" lon="11.76431418136031"><ele>3.0</ele><time>2026-04-04T16:45:35.929Z</time></trkpt><trkpt lat="44.93698959017862" lon="11.76431975882643"><ele>3.0</ele><time>2026-04-04T16:45:36.929Z</time></trkpt><trkpt lat="44.93670129899515" lon="11.764325456004656"><ele>3.0</ele><time>2026-04-04T16:45:37.929Z</time></trkpt><trkpt lat="44.93639686400913" lon="11.764328894671143"><ele>3.0</ele><time>2026-04-04T16:45:38.929Z</time></trkpt><trkpt lat="44.93607655466087" lon="11.764375757120705"><ele>2.5</ele><time>2026-04-04T16:45:39.93Z</time></trkpt><trkpt lat="44.935748103631425" lon="11.76436526274914"><ele>2.0</ele><time>2026-04-04T16:45:40.929Z</time></trkpt><trkpt lat="44.93541942536691" lon="11.76436203445938"><ele>2.0</ele><time>2026-04-04T16:45:41.929Z</time></trkpt><trkpt lat="44.93509381389563" lon="11.764366514445248"><ele>2.0</ele><time>2026-04-04T16:45:42.929Z</time></trkpt><trkpt lat="44.934792108336225" lon="11.764368657756672"><ele>2.0</ele><time>2026-04-04T16:45:43.929Z</time></trkpt><trkpt lat="44.93450900618973" lon="11.764365719481871"><ele>2.0</ele><time>2026-04-04T16:45:44.929Z</time></trkpt><trkpt lat="44.93423766925956" lon="11.764369530583958"><ele>2.0</ele><time>2026-04-04T16:45:45.929Z</time></trkpt><trkpt lat="44.9339716915476" lon="11.76437681574263"><ele>2.0</ele><time>2026-04-04T16:45:46.926Z</time></trkpt><trkpt lat="44.933699893644956" lon="11.764388509934442"><ele>2.0</ele><time>2026-04-04T16:45:47.923Z</time></trkpt><trkpt lat="44.93342758629235" lon="11.764384115688138"><ele>2.0</ele><time>2026-04-04T16:45:48.921Z</time></trkpt><trkpt lat="44.93315633385359" lon="11.764412210213347"><ele>2.0</ele><time>2026-04-04T16:45:49.918Z</time></trkpt><trkpt lat="44.93288511891206" lon="11.76447880332887"><ele>2.0</ele><time>2026-04-04T16:45:50.916Z</time></trkpt><trkpt lat="44.932610065523036" lon="11.764538012475644"><ele>2.0</ele><time>2026-04-04T16:45:51.914Z</time></trkpt><trkpt lat="44.93233852098187" lon="11.764603917399455"><ele>2.0</ele><time>2026-04-04T16:45:52.912Z</time></trkpt><trkpt lat="44.932062177581734" lon="11.76468760997562"><ele>2.0</ele><time>2026-04-04T16:45:53.91Z</time></trkpt><trkpt lat="44.931791237861766" lon="11.76478143128648"><ele>2.0</ele><time>2026-04-04T16:45:54.908Z</time></trkpt><trkpt lat="44.9315186046353" lon="11.764895648297975"><ele>1.5</ele><time>2026-04-04T16:45:55.907Z</time></trkpt><trkpt lat="44.93125559955185" lon="11.76502471011874"><ele>1.0</ele><time>2026-04-04T16:45:56.905Z</time></trkpt><trkpt lat="44.930987184785174" lon="11.765167463380205"><ele>1.5</ele><time>2026-04-04T16:45:57.904Z</time></trkpt><trkpt lat="44.93071782380141" lon="11.76532182137293"><ele>2.0</ele><time>2026-04-04T16:45:58.902Z</time></trkpt><trkpt lat="44.93045217450876" lon="11.765484423855474"><ele>2.0</ele><time>2026-04-04T16:45:59.901Z</time></trkpt><trkpt lat="44.93019416225641" lon="11.765663507452171"><ele>2.0</ele><time>2026-04-04T16:46:00.9Z</time></trkpt><trkpt lat="44.9299466307649" lon="11.765859760405935"><ele>2.5</ele><time>2026-04-04T16:46:01.899Z</time></trkpt><trkpt lat="44.929704766574865" lon="11.76606964966937"><ele>3.0</ele><time>2026-04-04T16:46:02.898Z</time></trkpt><trkpt lat="44.92946241061606" lon="11.766288870807173"><ele>3.0</ele><time>2026-04-04T16:46:03.897Z</time></trkpt><trkpt lat="44.92922083570194" lon="11.766524467665151"><ele>3.0</ele><time>2026-04-04T16:46:04.896Z</time></trkpt><trkpt lat="44.92897543992072" lon="11.766761292016247"><ele>3.0</ele><time>2026-04-04T16:46:05.895Z</time></trkpt><trkpt lat="44.928729253513936" lon="11.767003303311224"><ele>3.0</ele><time>2026-04-04T16:46:06.894Z</time></trkpt><trkpt lat="44.92848115373003" lon="11.76724063541054"><ele>2.5</ele><time>2026-04-04T16:46:07.893Z</time></trkpt><trkpt lat="44.928239050727726" lon="11.767481456132613"><ele>2.0</ele><time>2026-04-04T16:46:08.893Z</time></trkpt><trkpt lat="44.92799338171356" lon="11.767696190829195"><ele>2.0</ele><time>2026-04-04T16:46:09.892Z</time></trkpt><trkpt lat="44.92776036907287" lon="11.767920481191155"><ele>2.0</ele><time>2026-04-04T16:46:10.891Z</time></trkpt><trkpt lat="44.927533952433016" lon="11.768138423781014"><ele>2.0</ele><time>2026-04-04T16:46:11.891Z</time></trkpt><trkpt lat="44.92730552684304" lon="11.768360170077846"><ele>2.0</ele><time>2026-04-04T16:46:12.89Z</time></trkpt><trkpt lat="44.92709505474281" lon="11.768594430115693"><ele>2.0</ele><time>2026-04-04T16:46:13.89Z</time></trkpt><trkpt lat="44.926887922006316" lon="11.768792164931734"><ele>2.0</ele><time>2026-04-04T16:46:14.889Z</time></trkpt><trkpt lat="44.92670095853092" lon="11.768974439867236"><ele>2.0</ele><time>2026-04-04T16:46:15.889Z</time></trkpt><trkpt lat="44.92653053355606" lon="11.769138589276142"><ele>2.0</ele><time>2026-04-04T16:46:16.888Z</time></trkpt><trkpt lat="44.92637110895604" lon="11.769291831389577"><ele>2.0</ele><time>2026-04-04T16:46:17.888Z</time></trkpt><trkpt lat="44.92619690602416" lon="11.769441340553232"><ele>1.5</ele><time>2026-04-04T16:46:18.887Z</time></trkpt><trkpt lat="44.92599773625037" lon="11.769569067795503"><ele>1.0</ele><time>2026-04-04T16:46:19.887Z</time></trkpt><trkpt lat="44.92577468795314" lon="11.769674759375997"><ele>2.0</ele><time>2026-04-04T16:46:20.887Z</time></trkpt><trkpt lat="44.92554190912944" lon="11.769776309855038"><ele>3.0</ele><time>2026-04-04T16:46:21.886Z</time></trkpt><trkpt lat="44.92530523721799" lon="11.769897512136032"><ele>2.5</ele><time>2026-04-04T16:46:22.886Z</time></trkpt><trkpt lat="44.92504316761832" lon="11.770016193370418"><ele>2.0</ele><time>2026-04-04T16:46:23.886Z</time></trkpt><trkpt lat="44.924770994674994" lon="11.770134519819107"><ele>2.0</ele><time>2026-04-04T16:46:24.885Z</time></trkpt><trkpt lat="44.92449219875204" lon="11.770262114386435"><ele>2.0</ele><time>2026-04-04T16:46:25.885Z</time></trkpt><trkpt lat="44.92420000556134" lon="11.770401052704436"><ele>2.0</ele><time>2026-04-04T16:46:26.885Z</time></trkpt><trkpt lat="44.923895043214706" lon="11.77054396872175"><ele>2.0</ele><time>2026-04-04T16:46:27.885Z</time></trkpt><trkpt lat="44.923586214269896" lon="11.770692125545372"><ele>2.0</ele><time>2026-04-04T16:46:28.884Z</time></trkpt><trkpt lat="44.92326853673929" lon="11.770842940905553"><ele>2.0</ele><time>2026-04-04T16:46:29.884Z</time></trkpt><trkpt lat="44.92294002963729" lon="11.77098614668975"><ele>1.5</ele><time>2026-04-04T16:46:30.884Z</time></trkpt><trkpt lat="44.922614751887465" lon="11.771136262613641"><ele>1.0</ele><time>2026-04-04T16:46:31.884Z</time></trkpt><trkpt lat="44.92228834632072" lon="11.771291354199258"><ele>1.0</ele><time>2026-04-04T16:46:32.884Z</time></trkpt><trkpt lat="44.9219601223128" lon="11.771442785805421"><ele>1.0</ele><time>2026-04-04T16:46:33.884Z</time></trkpt><trkpt lat="44.92164194014435" lon="11.77158928470471"><ele>1.0</ele><time>2026-04-04T16:46:34.883Z</time></trkpt><trkpt lat="44.92134468062082" lon="11.771725157485523"><ele>1.0</ele><time>2026-04-04T16:46:35.883Z</time></trkpt><trkpt lat="44.92107539100702" lon="11.771849339315198"><ele>1.0</ele><time>2026-04-04T16:46:36.883Z</time></trkpt><trkpt lat="44.92083808515989" lon="11.771960697640411"><ele>1.0</ele><time>2026-04-04T16:46:37.883Z</time></trkpt><trkpt lat="44.920618252101654" lon="11.772066471645296"><ele>1.0</ele><time>2026-04-04T16:46:38.883Z</time></trkpt><trkpt lat="44.920421105773706" lon="11.772159397444097"><ele>1.0</ele><time>2026-04-04T16:46:39.883Z</time></trkpt><trkpt lat="44.92025510096331" lon="11.77223896294596"><ele>1.0</ele><time>2026-04-04T16:46:40.883Z</time></trkpt><trkpt lat="44.92009067442379" lon="11.772336834860699"><ele>1.0</ele><time>2026-04-04T16:46:41.882Z</time></trkpt><trkpt lat="44.91992314773761" lon="11.772491385728152"><ele>1.0</ele><time>2026-04-04T16:46:42.882Z</time></trkpt><trkpt lat="44.9197353259941" lon="11.772694023931424"><ele>1.0</ele><time>2026-04-04T16:46:43.882Z</time></trkpt><trkpt lat="44.91954595933379" lon="11.772961716745725"><ele>2.0</ele><time>2026-04-04T16:46:44.882Z</time></trkpt><trkpt lat="44.91934604768887" lon="11.773259922298655"><ele>3.0</ele><time>2026-04-04T16:46:45.882Z</time></trkpt><trkpt lat="44.91913747279906" lon="11.773567188662346"><ele>3.0</ele><time>2026-04-04T16:46:46.882Z</time></trkpt><trkpt lat="44.91891347465929" lon="11.773883593746534"><ele>3.0</ele><time>2026-04-04T16:46:47.882Z</time></trkpt><trkpt lat="44.918683607948935" lon="11.774189404043248"><ele>2.0</ele><time>2026-04-04T16:46:48.882Z</time></trkpt><trkpt lat="44.91846135321462" lon="11.774491483976412"><ele>1.0</ele><time>2026-04-04T16:46:49.882Z</time></trkpt><trkpt lat="44.9182267033161" lon="11.774798742428233"><ele>1.0</ele><time>2026-04-04T16:46:50.882Z</time></trkpt><trkpt lat="44.917996420567505" lon="11.775126618241014"><ele>1.0</ele><time>2026-04-04T16:46:51.882Z</time></trkpt><trkpt lat="44.917750053425685" lon="11.775447185236365"><ele>1.5</ele><time>2026-04-04T16:46:52.882Z</time></trkpt><trkpt lat="44.91749701026588" lon="11.77577443597284"><ele>2.0</ele><time>2026-04-04T16:46:53.881Z</time></trkpt><trkpt lat="44.91723165361294" lon="11.776115038602349"><ele>2.5</ele><time>2026-04-04T16:46:54.881Z</time></trkpt><trkpt lat="44.91696763252198" lon="11.776463445963037"><ele>3.0</ele><time>2026-04-04T16:46:55.881Z</time></trkpt><trkpt lat="44.91670521040092" lon="11.776819772970441"><ele>2.5</ele><time>2026-04-04T16:46:56.881Z</time></trkpt><trkpt lat="44.916434077736525" lon="11.777161280752297"><ele>2.0</ele><time>2026-04-04T16:46:57.881Z</time></trkpt><trkpt lat="44.91616502937278" lon="11.777524100849478"><ele>1.5</ele><time>2026-04-04T16:46:58.881Z</time></trkpt><trkpt lat="44.91589800069448" lon="11.777889498193003"><ele>1.0</ele><time>2026-04-04T16:46:59.881Z</time></trkpt><trkpt lat="44.91562357290238" lon="11.77824906992927"><ele>0.5</ele><time>2026-04-04T16:47:00.881Z</time></trkpt><trkpt lat="44.91536914194077" lon="11.778601712408738"><ele>0.0</ele><time>2026-04-04T16:47:01.881Z</time></trkpt><trkpt lat="44.91511081821304" lon="11.778949460034307"><ele>0.5</ele><time>2026-04-04T16:47:02.881Z</time></trkpt><trkpt lat="44.91484741493725" lon="11.779290871257336"><ele>1.0</ele><time>2026-04-04T16:47:03.881Z</time></trkpt><trkpt lat="44.91458984252589" lon="11.779619867058358"><ele>1.0</ele><time>2026-04-04T16:47:04.881Z</time></trkpt><trkpt lat="44.91433090597315" lon="11.779953448654336"><ele>1.0</ele><time>2026-04-04T16:47:05.881Z</time></trkpt><trkpt lat="44.91407533808004" lon="11.780289790087874"><ele>0.5</ele><time>2026-04-04T16:47:06.881Z</time></trkpt><trkpt lat="44.913826036495735" lon="11.78063048927877"><ele>0.0</ele><time>2026-04-04T16:47:07.881Z</time></trkpt><trkpt lat="44.91356866809192" lon="11.780967172377874"><ele>0.5</ele><time>2026-04-04T16:47:08.881Z</time></trkpt><trkpt lat="44.91331277712271" lon="11.78130163119303"><ele>1.0</ele><time>2026-04-04T16:47:09.881Z</time></trkpt><trkpt lat="44.91305983960134" lon="11.781635253980594"><ele>1.0</ele><time>2026-04-04T16:47:10.881Z</time></trkpt><trkpt lat="44.912813629445225" lon="11.781965629138229"><ele>1.0</ele><time>2026-04-04T16:47:11.881Z</time></trkpt><trkpt lat="44.91257772833429" lon="11.782279685311766"><ele>1.5</ele><time>2026-04-04T16:47:12.881Z</time></trkpt><trkpt lat="44.91235114436621" lon="11.782569097544135"><ele>2.0</ele><time>2026-04-04T16:47:13.88Z</time></trkpt><trkpt lat="44.912146299124885" lon="11.78284376053993"><ele>2.0</ele><time>2026-04-04T16:47:14.88Z</time></trkpt><trkpt lat="44.91194661989051" lon="11.78308951655406"><ele>2.0</ele><time>2026-04-04T16:47:15.88Z</time></trkpt><trkpt lat="44.91176014309745" lon="11.78331967176435"><ele>1.3333333333333333</ele><time>2026-04-04T16:47:16.88Z</time></trkpt><trkpt lat="44.91159625397438" lon="11.783541444773983"><ele>0.6666666666666666</ele><time>2026-04-04T16:47:17.88Z</time></trkpt><trkpt lat="44.91144574258896" lon="11.783747216814449"><ele>0.0</ele><time>2026-04-04T16:47:18.88Z</time></trkpt><trkpt lat="44.91128928197428" lon="11.783976156737001"><ele>0.0</ele><time>2026-04-04T16:47:19.88Z</time></trkpt><trkpt lat="44.91114157514315" lon="11.784224917920032"><ele>0.0</ele><time>2026-04-04T16:47:20.88Z</time></trkpt><trkpt lat="44.911010548772225" lon="11.784508191083734"><ele>0.5</ele><time>2026-04-04T16:47:21.88Z</time></trkpt><trkpt lat="44.91089657316029" lon="11.784824826274294"><ele>1.0</ele><time>2026-04-04T16:47:22.88Z</time></trkpt><trkpt lat="44.91080020221091" lon="11.78517043464328"><ele>0.5</ele><time>2026-04-04T16:47:23.88Z</time></trkpt><trkpt lat="44.91072907418796" lon="11.785529989557165"><ele>0.0</ele><time>2026-04-04T16:47:24.88Z</time></trkpt><trkpt lat="44.91067707588556" lon="11.785896962881015"><ele>1.0</ele><time>2026-04-04T16:47:25.88Z</time></trkpt><trkpt lat="44.91064222763466" lon="11.786270613746622"><ele>2.0</ele><time>2026-04-04T16:47:26.88Z</time></trkpt><trkpt lat="44.91064453707396" lon="11.786658849577538"><ele>2.0</ele><time>2026-04-04T16:47:27.88Z</time></trkpt><trkpt lat="44.91067191874109" lon="11.787060006860077"><ele>2.0</ele><time>2026-04-04T16:47:28.88Z</time></trkpt><trkpt lat="44.910716426947445" lon="11.787471379663113"><ele>2.5</ele><time>2026-04-04T16:47:29.88Z</time></trkpt><trkpt lat="44.91077325264463" lon="11.787888641935034"><ele>3.0</ele><time>2026-04-04T16:47:30.88Z</time></trkpt><trkpt lat="44.91082987032445" lon="11.788316457969962"><ele>2.5</ele><time>2026-04-04T16:47:31.88Z</time></trkpt><trkpt lat="44.91088037036494" lon="11.78874013794067"><ele>2.0</ele><time>2026-04-04T16:47:32.88Z</time></trkpt><trkpt lat="44.91092993950019" lon="11.789158074123867"><ele>2.0</ele><time>2026-04-04T16:47:33.88Z</time></trkpt><trkpt lat="44.910976165401884" lon="11.78956516158112"><ele>2.0</ele><time>2026-04-04T16:47:34.88Z</time></trkpt><trkpt lat="44.91102357138319" lon="11.789952257476385"><ele>1.5</ele><time>2026-04-04T16:47:35.88Z</time></trkpt><trkpt lat="44.911066012852544" lon="11.79032167027801"><ele>1.0</ele><time>2026-04-04T16:47:36.881Z</time></trkpt><trkpt lat="44.911095374207704" lon="11.790675066349733"><ele>0.5</ele><time>2026-04-04T16:47:37.881Z</time></trkpt><trkpt lat="44.91110539691548" lon="11.791031413790032"><ele>0.0</ele><time>2026-04-04T16:47:38.881Z</time></trkpt><trkpt lat="44.91109602630174" lon="11.791379801159053"><ele>0.0</ele><time>2026-04-04T16:47:39.881Z</time></trkpt><trkpt lat="44.911061938533024" lon="11.791735867463538"><ele>0.0</ele><time>2026-04-04T16:47:40.88Z</time></trkpt><trkpt lat="44.91100572114713" lon="11.792094523385485"><ele>0.5</ele><time>2026-04-04T16:47:41.88Z</time></trkpt><trkpt lat="44.910918021688126" lon="11.792447008483562"><ele>1.0</ele><time>2026-04-04T16:47:42.881Z</time></trkpt><trkpt lat="44.91080016672306" lon="11.792803433102257"><ele>1.0</ele><time>2026-04-04T16:47:43.881Z</time></trkpt><trkpt lat="44.91066879210061" lon="11.793172887031124"><ele>1.0</ele><time>2026-04-04T16:47:44.881Z</time></trkpt><trkpt lat="44.91053762542285" lon="11.79354517872541"><ele>1.5</ele><time>2026-04-04T16:47:45.881Z</time></trkpt><trkpt lat="44.91041237582861" lon="11.793907577871952"><ele>2.0</ele><time>2026-04-04T16:47:46.881Z</time></trkpt><trkpt lat="44.91029404748838" lon="11.79424676482244"><ele>2.0</ele><time>2026-04-04T16:47:47.881Z</time></trkpt><trkpt lat="44.910180740866274" lon="11.7945674183555"><ele>2.0</ele><time>2026-04-04T16:47:48.881Z</time></trkpt><trkpt lat="44.910070119516796" lon="11.794873770185871"><ele>1.0</ele><time>2026-04-04T16:47:49.88Z</time></trkpt><trkpt lat="44.90995017887838" lon="11.79517426363965"><ele>0.0</ele><time>2026-04-04T16:47:50.88Z</time></trkpt><trkpt lat="44.909814737520946" lon="11.795448182806307"><ele>0.0</ele><time>2026-04-04T16:47:51.88Z</time></trkpt><trkpt lat="44.90965775326323" lon="11.795711343932053"><ele>0.0</ele><time>2026-04-04T16:47:52.88Z</time></trkpt><trkpt lat="44.90948620369977" lon="11.795950760783828"><ele>0.5</ele><time>2026-04-04T16:47:53.88Z</time></trkpt><trkpt lat="44.90929949174201" lon="11.796170424004885"><ele>1.0</ele><time>2026-04-04T16:47:54.88Z</time></trkpt><trkpt lat="44.90909652043378" lon="11.796362573824178"><ele>1.0</ele><time>2026-04-04T16:47:55.88Z</time></trkpt><trkpt lat="44.90887908643751" lon="11.79653257617751"><ele>1.0</ele><time>2026-04-04T16:47:56.88Z</time></trkpt><trkpt lat="44.908650056554386" lon="11.796679876785468"><ele>0.5</ele><time>2026-04-04T16:47:57.88Z</time></trkpt><trkpt lat="44.90840620893266" lon="11.796782497431346"><ele>0.0</ele><time>2026-04-04T16:47:58.88Z</time></trkpt><trkpt lat="44.90814721140058" lon="11.796862791919093"><ele>0.0</ele><time>2026-04-04T16:47:59.88Z</time></trkpt><trkpt lat="44.90787723769291" lon="11.796932641586539"><ele>0.0</ele><time>2026-04-04T16:48:00.88Z</time></trkpt><trkpt lat="44.907601688512315" lon="11.797001697404486"><ele>0.0</ele><time>2026-04-04T16:48:01.88Z</time></trkpt><trkpt lat="44.90734228403436" lon="11.797067246436715"><ele>0.0</ele><time>2026-04-04T16:48:02.88Z</time></trkpt><trkpt lat="44.90710405024305" lon="11.79713405609902"><ele>0.0</ele><time>2026-04-04T16:48:03.88Z</time></trkpt><trkpt lat="44.90688305317886" lon="11.797218070439033"><ele>0.0</ele><time>2026-04-04T16:48:04.88Z</time></trkpt><trkpt lat="44.90667355367601" lon="11.797355517083126"><ele>0.3333333333333333</ele><time>2026-04-04T16:48:05.88Z</time></trkpt><trkpt lat="44.906494057315804" lon="11.797507493753386"><ele>0.6666666666666666</ele><time>2026-04-04T16:48:06.88Z</time></trkpt><trkpt lat="44.906327991356044" lon="11.797703285656125"><ele>1.0</ele><time>2026-04-04T16:48:07.88Z</time></trkpt><trkpt lat="44.90618255564028" lon="11.797940971049094"><ele>1.5</ele><time>2026-04-04T16:48:08.88Z</time></trkpt><trkpt lat="44.906053639995285" lon="11.798214593139186"><ele>2.0</ele><time>2026-04-04T16:48:09.88Z</time></trkpt><trkpt lat="44.90595289312421" lon="11.798506977794892"><ele>2.5</ele><time>2026-04-04T16:48:10.88Z</time></trkpt><trkpt lat="44.90586377787408" lon="11.798801626534894"><ele>3.0</ele><time>2026-04-04T16:48:11.88Z</time></trkpt><trkpt lat="44.90577147321324" lon="11.799106820669838"><ele>3.0</ele><time>2026-04-04T16:48:12.88Z</time></trkpt><trkpt lat="44.90581259443028" lon="11.799526625313801"><ele>3.0</ele><time>2026-04-04T16:48:13.88Z</time></trkpt><trkpt lat="44.90580601112256" lon="11.799935603975117"><ele>2.5</ele><time>2026-04-04T16:48:14.88Z</time></trkpt><trkpt lat="44.905790922150956" lon="11.800357993094888"><ele>2.0</ele><time>2026-04-04T16:48:15.88Z</time></trkpt><trkpt lat="44.90579283246006" lon="11.800786228410301"><ele>1.5</ele><time>2026-04-04T16:48:16.88Z</time></trkpt><trkpt lat="44.905791429664035" lon="11.8011973528308"><ele>1.0</ele><time>2026-04-04T16:48:17.88Z</time></trkpt><trkpt lat="44.90578897014822" lon="11.801588798223905"><ele>1.0</ele><time>2026-04-04T16:48:18.879Z</time></trkpt><trkpt lat="44.90578671182108" lon="11.801940380973443"><ele>1.0</ele><time>2026-04-04T16:48:19.879Z</time></trkpt><trkpt lat="44.90577425109785" lon="11.802254320981842"><ele>1.0</ele><time>2026-04-04T16:48:20.879Z</time></trkpt><trkpt lat="44.90576707700146" lon="11.802525478642986"><ele>1.0</ele><time>2026-04-04T16:48:21.879Z</time></trkpt><trkpt lat="44.905758447300535" lon="11.802773253034264"><ele>1.0</ele><time>2026-04-04T16:48:22.879Z</time></trkpt><trkpt lat="44.90574996840781" lon="11.803014947563037"><ele>1.0</ele><time>2026-04-04T16:48:23.879Z</time></trkpt><trkpt lat="44.90573610901671" lon="11.803267524071138"><ele>1.0</ele><time>2026-04-04T16:48:24.879Z</time></trkpt><trkpt lat="44.90571874386729" lon="11.803519265151424"><ele>1.0</ele><time>2026-04-04T16:48:25.879Z</time></trkpt><trkpt lat="44.90569648579942" lon="11.803773236376754"><ele>1.0</ele><time>2026-04-04T16:48:26.879Z</time></trkpt><trkpt lat="44.90567754725071" lon="11.804031737134487"><ele>1.0</ele><time>2026-04-04T16:48:27.879Z</time></trkpt><trkpt lat="44.905639228452365" lon="11.804304406102332"><ele>1.0</ele><time>2026-04-04T16:48:28.879Z</time></trkpt><trkpt lat="44.90559779145605" lon="11.804574781278154"><ele>1.0</ele><time>2026-04-04T16:48:29.879Z</time></trkpt><trkpt lat="44.9055564263499" lon="11.804844043793011"><ele>1.0</ele><time>2026-04-04T16:48:30.879Z</time></trkpt><trkpt lat="44.905506478443684" lon="11.805093135206842"><ele>1.0</ele><time>2026-04-04T16:48:31.879Z</time></trkpt><trkpt lat="44.90545735140878" lon="11.80532906723658"><ele>1.0</ele><time>2026-04-04T16:48:32.879Z</time></trkpt><trkpt lat="44.905405319682906" lon="11.805577053228905"><ele>1.0</ele><time>2026-04-04T16:48:33.879Z</time></trkpt><trkpt lat="44.90528843309111" lon="11.806130430263375"><ele>1.0</ele><time>2026-04-04T16:48:35.879Z</time></trkpt><trkpt lat="44.905211825437384" lon="11.806419442789565"><ele>1.0</ele><time>2026-04-04T16:48:36.879Z</time></trkpt><trkpt lat="44.905134990643276" lon="11.806710722995337"><ele>1.0</ele><time>2026-04-04T16:48:37.879Z</time></trkpt><trkpt lat="44.905048207522555" lon="11.807003489219465"><ele>1.6666666666666665</ele><time>2026-04-04T16:48:38.879Z</time></trkpt><trkpt lat="44.90496100327605" lon="11.807291197436852"><ele>2.3333333333333335</ele><time>2026-04-04T16:48:39.879Z</time></trkpt><trkpt lat="44.90487330989452" lon="11.807577075292944"><ele>3.0</ele><time>2026-04-04T16:48:40.879Z</time></trkpt><trkpt lat="44.90479343213581" lon="11.807837713209224"><ele>3.0</ele><time>2026-04-04T16:48:41.879Z</time></trkpt><trkpt lat="44.90471518103304" lon="11.80807408506606"><ele>3.0</ele><time>2026-04-04T16:48:42.879Z</time></trkpt><trkpt lat="44.90464477654176" lon="11.808304762693863"><ele>3.0</ele><time>2026-04-04T16:48:43.879Z</time></trkpt><trkpt lat="44.90457276394998" lon="11.80853486716249"><ele>3.666666666666667</ele><time>2026-04-04T16:48:44.879Z</time></trkpt><trkpt lat="44.90450023863973" lon="11.808746992225023"><ele>4.333333333333334</ele><time>2026-04-04T16:48:45.879Z</time></trkpt><trkpt lat="44.9044384306164" lon="11.808935349074812"><ele>5.0</ele><time>2026-04-04T16:48:46.879Z</time></trkpt><trkpt lat="44.90438151221248" lon="11.809114972573362"><ele>5.0</ele><time>2026-04-04T16:48:47.879Z</time></trkpt><trkpt lat="44.90433676460805" lon="11.809272688359881"><ele>5.0</ele><time>2026-04-04T16:48:48.879Z</time></trkpt><trkpt lat="44.90428832207269" lon="11.809425979799933"><ele>5.0</ele><time>2026-04-04T16:48:49.879Z</time></trkpt><trkpt lat="44.90422642982203" lon="11.809577272213488"><ele>5.0</ele><time>2026-04-04T16:48:50.879Z</time></trkpt><trkpt lat="44.904157969925365" lon="11.809719370071662"><ele>4.2</ele><time>2026-04-04T16:48:51.879Z</time></trkpt><trkpt lat="44.90409069276925" lon="11.809857352680647"><ele>3.4</ele><time>2026-04-04T16:48:52.878Z</time></trkpt><trkpt lat="44.90402058192107" lon="11.80998767584628"><ele>2.6</ele><time>2026-04-04T16:48:53.878Z</time></trkpt><trkpt lat="44.90394730374773" lon="11.810109093903867"><ele>1.8</ele><time>2026-04-04T16:48:54.878Z</time></trkpt><trkpt lat="44.90387990580339" lon="11.810191212202135"><ele>1.0</ele><time>2026-04-04T16:48:55.878Z</time></trkpt><trkpt lat="44.90380507162494" lon="11.8102686615775"><ele>1.0</ele><time>2026-04-04T16:48:56.878Z</time></trkpt><trkpt lat="44.9037287362847" lon="11.810340623764159"><ele>1.0</ele><time>2026-04-04T16:48:57.878Z</time></trkpt><trkpt lat="44.90365347996702" lon="11.810425818793275"><ele>1.0</ele><time>2026-04-04T16:48:58.878Z</time></trkpt><trkpt lat="44.903590889775515" lon="11.81053151227068"><ele>1.0</ele><time>2026-04-04T16:48:59.878Z</time></trkpt><trkpt lat="44.90356582197811" lon="11.810658859058982"><ele>1.0</ele><time>2026-04-04T16:49:00.878Z</time></trkpt><trkpt lat="44.903565793440734" lon="11.810806802987686"><ele>1.0</ele><time>2026-04-04T16:49:01.878Z</time></trkpt><trkpt lat="44.903583027331344" lon="11.810959111056953"><ele>1.0</ele><time>2026-04-04T16:49:02.878Z</time></trkpt><trkpt lat="44.90360401931442" lon="11.811122148667422"><ele>1.0</ele><time>2026-04-04T16:49:03.878Z</time></trkpt><trkpt lat="44.9035970898845" lon="11.811292958900742"><ele>1.0</ele><time>2026-04-04T16:49:04.878Z</time></trkpt><trkpt lat="44.90357465690958" lon="11.811477936392523"><ele>1.3333333333333333</ele><time>2026-04-04T16:49:05.878Z</time></trkpt><trkpt lat="44.9035445935638" lon="11.81168948587207"><ele>1.6666666666666665</ele><time>2026-04-04T16:49:06.878Z</time></trkpt><trkpt lat="44.903510134272416" lon="11.811920900988243"><ele>2.0</ele><time>2026-04-04T16:49:07.878Z</time></trkpt><trkpt lat="44.90346919323587" lon="11.81216725061616"><ele>2.0</ele><time>2026-04-04T16:49:08.878Z</time></trkpt><trkpt lat="44.903397635342266" lon="11.81242439962545"><ele>2.0</ele><time>2026-04-04T16:49:09.878Z</time></trkpt><trkpt lat="44.90331337534436" lon="11.812696806550186"><ele>2.0</ele><time>2026-04-04T16:49:10.878Z</time></trkpt><trkpt lat="44.90322867034774" lon="11.812973708752443"><ele>2.0</ele><time>2026-04-04T16:49:11.878Z</time></trkpt><trkpt lat="44.90314711299612" lon="11.813257151388592"><ele>2.0</ele><time>2026-04-04T16:49:12.878Z</time></trkpt><trkpt lat="44.903067837238524" lon="11.81352553364353"><ele>2.0</ele><time>2026-04-04T16:49:13.878Z</time></trkpt><trkpt lat="44.90298567197295" lon="11.813801845137181"><ele>2.0</ele><time>2026-04-04T16:49:14.878Z</time></trkpt><trkpt lat="44.90290286700898" lon="11.814082220690679"><ele>2.0</ele><time>2026-04-04T16:49:15.878Z</time></trkpt><trkpt lat="44.90281834296625" lon="11.814371282324142"><ele>2.0</ele><time>2026-04-04T16:49:16.878Z</time></trkpt><trkpt lat="44.90267463659964" lon="11.814622242248154"><ele>1.5</ele><time>2026-04-04T16:49:17.878Z</time></trkpt><trkpt lat="44.902580674202454" lon="11.814908515051197"><ele>1.0</ele><time>2026-04-04T16:49:18.878Z</time></trkpt><trkpt lat="44.90248061859598" lon="11.81519547298768"><ele>1.0</ele><time>2026-04-04T16:49:19.878Z</time></trkpt><trkpt lat="44.90237864098934" lon="11.815473708483358"><ele>1.0</ele><time>2026-04-04T16:49:20.878Z</time></trkpt><trkpt lat="44.90227121505545" lon="11.815756934101238"><ele>1.0</ele><time>2026-04-04T16:49:21.878Z</time></trkpt><trkpt lat="44.90215618096903" lon="11.816042562026473"><ele>1.0</ele><time>2026-04-04T16:49:22.878Z</time></trkpt><trkpt lat="44.90203715171997" lon="11.816333654464888"><ele>1.0</ele><time>2026-04-04T16:49:23.878Z</time></trkpt><trkpt lat="44.90192330728869" lon="11.816600754855552"><ele>1.0</ele><time>2026-04-04T16:49:24.878Z</time></trkpt><trkpt lat="44.90180784981879" lon="11.81685852754356"><ele>1.0</ele><time>2026-04-04T16:49:25.878Z</time></trkpt><trkpt lat="44.90169110825055" lon="11.817109976893688"><ele>1.0</ele><time>2026-04-04T16:49:26.877Z</time></trkpt><trkpt lat="44.90157288469285" lon="11.817357114447177"><ele>1.0</ele><time>2026-04-04T16:49:27.877Z</time></trkpt><trkpt lat="44.90144956032426" lon="11.817599384297917"><ele>1.0</ele><time>2026-04-04T16:49:28.877Z</time></trkpt><trkpt lat="44.90132051249569" lon="11.817844418909967"><ele>1.0</ele><time>2026-04-04T16:49:29.877Z</time></trkpt><trkpt lat="44.90119657518137" lon="11.818079749799397"><ele>1.0</ele><time>2026-04-04T16:49:30.877Z</time></trkpt><trkpt lat="44.90106202745129" lon="11.8183170575243"><ele>1.0</ele><time>2026-04-04T16:49:31.877Z</time></trkpt><trkpt lat="44.90092244985404" lon="11.818554461897099"><ele>1.0</ele><time>2026-04-04T16:49:32.877Z</time></trkpt><trkpt lat="44.90077673707629" lon="11.818800644964673"><ele>1.5</ele><time>2026-04-04T16:49:33.877Z</time></trkpt><trkpt lat="44.90062441761804" lon="11.819044794316655"><ele>2.0</ele><time>2026-04-04T16:49:34.877Z</time></trkpt><trkpt lat="44.90046593357879" lon="11.819286265763743"><ele>1.5</ele><time>2026-04-04T16:49:35.877Z</time></trkpt><trkpt lat="44.90031838152621" lon="11.819537488375154"><ele>1.0</ele><time>2026-04-04T16:49:36.877Z</time></trkpt><trkpt lat="44.90014549657034" lon="11.819756309269643"><ele>1.0</ele><time>2026-04-04T16:49:37.877Z</time></trkpt><trkpt lat="44.89998491730308" lon="11.819974717592286"><ele>1.0</ele><time>2026-04-04T16:49:38.877Z</time></trkpt><trkpt lat="44.89984080123984" lon="11.82018454001499"><ele>1.0</ele><time>2026-04-04T16:49:39.877Z</time></trkpt><trkpt lat="44.899683412928184" lon="11.820303414269564"><ele>1.0</ele><time>2026-04-04T16:49:40.877Z</time></trkpt><trkpt lat="44.899533716686804" lon="11.820401661059675"><ele>1.0</ele><time>2026-04-04T16:49:41.877Z</time></trkpt><trkpt lat="44.899391797059955" lon="11.820494102234553"><ele>1.0</ele><time>2026-04-04T16:49:42.879Z</time></trkpt><trkpt lat="44.89924478633008" lon="11.82054154330331"><ele>1.0</ele><time>2026-04-04T16:49:43.878Z</time></trkpt><trkpt lat="44.89909923182736" lon="11.820604733824633"><ele>1.0</ele><time>2026-04-04T16:49:44.878Z</time></trkpt><trkpt lat="44.89895014218605" lon="11.82069687874563"><ele>1.0</ele><time>2026-04-04T16:49:45.878Z</time></trkpt><trkpt lat="44.89880596831502" lon="11.820828559106582"><ele>1.0</ele><time>2026-04-04T16:49:46.878Z</time></trkpt><trkpt lat="44.89865542220564" lon="11.820962915964028"><ele>1.0</ele><time>2026-04-04T16:49:47.878Z</time></trkpt><trkpt lat="44.898518253373645" lon="11.82113086731207"><ele>1.0</ele><time>2026-04-04T16:49:48.879Z</time></trkpt><trkpt lat="44.89840074248485" lon="11.821305996626183"><ele>1.5</ele><time>2026-04-04T16:49:49.879Z</time></trkpt><trkpt lat="44.89827209843628" lon="11.8214338443797"><ele>2.0</ele><time>2026-04-04T16:49:50.879Z</time></trkpt><trkpt lat="44.898165291778845" lon="11.821564243537845"><ele>2.5</ele><time>2026-04-04T16:49:51.878Z</time></trkpt><trkpt lat="44.898063679205784" lon="11.821681815742654"><ele>3.0</ele><time>2026-04-04T16:49:52.878Z</time></trkpt><trkpt lat="44.89796307264507" lon="11.821778513747944"><ele>3.5</ele><time>2026-04-04T16:49:53.878Z</time></trkpt><trkpt lat="44.897845385906635" lon="11.82184817452834"><ele>4.0</ele><time>2026-04-04T16:49:54.879Z</time></trkpt><trkpt lat="44.897718954630804" lon="11.821897683452589"><ele>4.5</ele><time>2026-04-04T16:49:55.878Z</time></trkpt><trkpt lat="44.89759105531097" lon="11.82194053527445"><ele>5.0</ele><time>2026-04-04T16:49:56.878Z</time></trkpt><trkpt lat="44.89746798406487" lon="11.82198720139882"><ele>5.0</ele><time>2026-04-04T16:49:57.878Z</time></trkpt><trkpt lat="44.89734573486441" lon="11.822046364766585"><ele>5.0</ele><time>2026-04-04T16:49:58.878Z</time></trkpt><trkpt lat="44.89721683641931" lon="11.822105058405139"><ele>5.0</ele><time>2026-04-04T16:49:59.878Z</time></trkpt><trkpt lat="44.89708668874767" lon="11.822166025254571"><ele>5.0</ele><time>2026-04-04T16:50:00.878Z</time></trkpt><trkpt lat="44.89695389656119" lon="11.822219202576722"><ele>5.0</ele><time>2026-04-04T16:50:01.878Z</time></trkpt><trkpt lat="44.89681947885723" lon="11.82226834864363"><ele>5.0</ele><time>2026-04-04T16:50:02.878Z</time></trkpt><trkpt lat="44.89669480306044" lon="11.822314964313335"><ele>5.0</ele><time>2026-04-04T16:50:03.878Z</time></trkpt><trkpt lat="44.896586811420455" lon="11.82235933505011"><ele>5.0</ele><time>2026-04-04T16:50:04.878Z</time></trkpt><trkpt lat="44.896485711272625" lon="11.822398107774994"><ele>4.833333333333334</ele><time>2026-04-04T16:50:05.878Z</time></trkpt><trkpt lat="44.89639905695632" lon="11.82243835538781"><ele>4.666666666666667</ele><time>2026-04-04T16:50:06.878Z</time></trkpt><trkpt lat="44.896311441936234" lon="11.822453777492182"><ele>4.5</ele><time>2026-04-04T16:50:07.878Z</time></trkpt><trkpt lat="44.89623884251243" lon="11.822477482527207"><ele>4.333333333333333</ele><time>2026-04-04T16:50:08.878Z</time></trkpt><trkpt lat="44.896174571901796" lon="11.822498468086117"><ele>4.166666666666666</ele><time>2026-04-04T16:50:09.878Z</time></trkpt><trkpt lat="44.89607099384909" lon="11.822532900014759"><ele>4.0</ele><time>2026-04-04T16:50:11.878Z</time></trkpt><trkpt lat="44.8959789272862" lon="11.82256434677796"><ele>4.0</ele><time>2026-04-04T16:50:13.878Z</time></trkpt><trkpt lat="44.89587889434105" lon="11.822598514563408"><ele>4.0</ele><time>2026-04-04T16:50:15.878Z</time></trkpt><trkpt lat="44.895866642226366" lon="11.82282557482905"><ele>4.0</ele><time>2026-04-04T16:50:16.878Z</time></trkpt><trkpt lat="44.89588271147124" lon="11.822924739723629"><ele>4.0</ele><time>2026-04-04T16:50:17.878Z</time></trkpt><trkpt lat="44.895899792099165" lon="11.82303014600229"><ele>4.0</ele><time>2026-04-04T16:50:18.878Z</time></trkpt><trkpt lat="44.895919084127605" lon="11.823149198996322"><ele>3.8000000000000003</ele><time>2026-04-04T16:50:19.877Z</time></trkpt><trkpt lat="44.89593833779122" lon="11.823267322490643"><ele>3.6000000000000005</ele><time>2026-04-04T16:50:20.877Z</time></trkpt><trkpt lat="44.895961390590024" lon="11.82340857057859"><ele>3.4</ele><time>2026-04-04T16:50:21.877Z</time></trkpt><trkpt lat="44.89598392557765" lon="11.823546646104234"><ele>3.2</ele><time>2026-04-04T16:50:22.877Z</time></trkpt><trkpt lat="44.89600441658851" lon="11.823671461079938"><ele>3.0</ele><time>2026-04-04T16:50:23.877Z</time></trkpt><trkpt lat="44.89602576648145" lon="11.823801408317541"><ele>3.2</ele><time>2026-04-04T16:50:24.877Z</time></trkpt><trkpt lat="44.89604822146261" lon="11.823938081703085"><ele>3.4</ele><time>2026-04-04T16:50:25.877Z</time></trkpt><trkpt lat="44.89607319130627" lon="11.824090061704876"><ele>3.6000000000000005</ele><time>2026-04-04T16:50:26.877Z</time></trkpt><trkpt lat="44.89609875083574" lon="11.824246376582618"><ele>3.8000000000000003</ele><time>2026-04-04T16:50:27.877Z</time></trkpt><trkpt lat="44.89612379731659" lon="11.824399515371027"><ele>4.0</ele><time>2026-04-04T16:50:28.877Z</time></trkpt><trkpt lat="44.896148598928484" lon="11.824551157003567"><ele>4.0</ele><time>2026-04-04T16:50:29.877Z</time></trkpt><trkpt lat="44.89617331690904" lon="11.824702287274896"><ele>4.0</ele><time>2026-04-04T16:50:30.877Z</time></trkpt><trkpt lat="44.8961972118188" lon="11.824848383612334"><ele>4.0</ele><time>2026-04-04T16:50:31.877Z</time></trkpt><trkpt lat="44.896220096346575" lon="11.82499179045476"><ele>4.0</ele><time>2026-04-04T16:50:32.877Z</time></trkpt><trkpt lat="44.896242094814674" lon="11.825124957268356"><ele>4.0</ele><time>2026-04-04T16:50:33.877Z</time></trkpt><trkpt lat="44.896263183678606" lon="11.82525261784308"><ele>4.0</ele><time>2026-04-04T16:50:34.877Z</time></trkpt><trkpt lat="44.89628136924438" lon="11.825363598812224"><ele>4.0</ele><time>2026-04-04T16:50:35.877Z</time></trkpt><trkpt lat="44.89629659285834" lon="11.825456669979394"><ele>4.0</ele><time>2026-04-04T16:50:36.877Z</time></trkpt><trkpt lat="44.89631684652963" lon="11.82558049307382"><ele>4.0</ele><time>2026-04-04T16:50:38.877Z</time></trkpt><trkpt lat="44.89635652346867" lon="11.825811281832163"><ele>4.0</ele><time>2026-04-04T16:51:17.876Z</time></trkpt><trkpt lat="44.89637270955208" lon="11.82590004058217"><ele>3.833333333333333</ele><time>2026-04-04T16:51:18.876Z</time></trkpt><trkpt lat="44.89638982674014" lon="11.825993904202573"><ele>3.6666666666666665</ele><time>2026-04-04T16:51:19.876Z</time></trkpt><trkpt lat="44.89640848922798" lon="11.826102557441162"><ele>3.5</ele><time>2026-04-04T16:51:20.876Z</time></trkpt><trkpt lat="44.89642876132759" lon="11.826223087325166"><ele>3.333333333333333</ele><time>2026-04-04T16:51:21.876Z</time></trkpt><trkpt lat="44.896449420380975" lon="11.826345917809716"><ele>3.1666666666666665</ele><time>2026-04-04T16:51:22.876Z</time></trkpt><trkpt lat="44.89647132293044" lon="11.826476141651359"><ele>3.0</ele><time>2026-04-04T16:51:23.876Z</time></trkpt><trkpt lat="44.89649096199095" lon="11.82659290772259"><ele>3.0</ele><time>2026-04-04T16:51:24.876Z</time></trkpt><trkpt lat="44.89652887088031" lon="11.826723058529781"><ele>3.0</ele><time>2026-04-04T16:51:25.876Z</time></trkpt><trkpt lat="44.896547438167204" lon="11.826876116992374"><ele>3.0</ele><time>2026-04-04T16:51:26.876Z</time></trkpt><trkpt lat="44.896570009652926" lon="11.827043326013364"><ele>3.0</ele><time>2026-04-04T16:51:27.875Z</time></trkpt><trkpt lat="44.896597772088626" lon="11.827214630232188"><ele>3.25</ele><time>2026-04-04T16:51:28.875Z</time></trkpt><trkpt lat="44.896626503568875" lon="11.827384643391238"><ele>3.5</ele><time>2026-04-04T16:51:29.875Z</time></trkpt><trkpt lat="44.896654994893346" lon="11.82754247175725"><ele>3.75</ele><time>2026-04-04T16:51:30.875Z</time></trkpt><trkpt lat="44.89668226989188" lon="11.82769872445985"><ele>4.0</ele><time>2026-04-04T16:51:31.875Z</time></trkpt><trkpt lat="44.89671035491088" lon="11.827854712846268"><ele>4.2</ele><time>2026-04-04T16:51:32.875Z</time></trkpt><trkpt lat="44.89673838225905" lon="11.828002920200397"><ele>4.4</ele><time>2026-04-04T16:51:33.875Z</time></trkpt><trkpt lat="44.896749597463305" lon="11.828151935259807"><ele>4.6</ele><time>2026-04-04T16:51:34.875Z</time></trkpt><trkpt lat="44.8967709045216" lon="11.828281226504917"><ele>4.8</ele><time>2026-04-04T16:51:35.875Z</time></trkpt><trkpt lat="44.896793295561565" lon="11.828417095420688"><ele>5.0</ele><time>2026-04-04T16:51:36.875Z</time></trkpt><trkpt lat="44.89681628416741" lon="11.828556590359236"><ele>4.8</ele><time>2026-04-04T16:51:37.875Z</time></trkpt><trkpt lat="44.8968389624632" lon="11.828694202311393"><ele>4.6</ele><time>2026-04-04T16:51:38.875Z</time></trkpt><trkpt lat="44.8968631474223" lon="11.828843749359098"><ele>4.4</ele><time>2026-04-04T16:51:39.875Z</time></trkpt><trkpt lat="44.89688869508788" lon="11.828998241717223"><ele>4.2</ele><time>2026-04-04T16:51:40.875Z</time></trkpt><trkpt lat="44.89691516697296" lon="11.829162860405036"><ele>4.0</ele><time>2026-04-04T16:51:41.875Z</time></trkpt><trkpt lat="44.896943316435575" lon="11.829337910555932"><ele>4.0</ele><time>2026-04-04T16:51:42.875Z</time></trkpt><trkpt lat="44.89697260466666" lon="11.829522144247765"><ele>4.0</ele><time>2026-04-04T16:51:43.875Z</time></trkpt><trkpt lat="44.89700029253645" lon="11.82969577201571"><ele>4.0</ele><time>2026-04-04T16:51:44.875Z</time></trkpt><trkpt lat="44.89702765456646" lon="11.829867356350949"><ele>4.0</ele><time>2026-04-04T16:51:45.875Z</time></trkpt><trkpt lat="44.89705534708655" lon="11.830041013182742"><ele>4.0</ele><time>2026-04-04T16:51:46.875Z</time></trkpt><trkpt lat="44.89708342896735" lon="11.830217111664249"><ele>4.0</ele><time>2026-04-04T16:51:47.875Z</time></trkpt><trkpt lat="44.89711235780169" lon="11.830398519280497"><ele>4.0</ele><time>2026-04-04T16:51:48.877Z</time></trkpt><trkpt lat="44.89714079320349" lon="11.830577774259424"><ele>4.0</ele><time>2026-04-04T16:51:49.876Z</time></trkpt><trkpt lat="44.89716844244314" lon="11.83074934399928"><ele>4.0</ele><time>2026-04-04T16:51:50.876Z</time></trkpt><trkpt lat="44.897194297859386" lon="11.83090978254207"><ele>4.0</ele><time>2026-04-04T16:51:51.876Z</time></trkpt><trkpt lat="44.89721861170991" lon="11.831060655317179"><ele>4.0</ele><time>2026-04-04T16:51:52.876Z</time></trkpt><trkpt lat="44.89725746741297" lon="11.831199184619036"><ele>4.0</ele><time>2026-04-04T16:51:53.876Z</time></trkpt><trkpt lat="44.897264019094784" lon="11.831342418035437"><ele>4.0</ele><time>2026-04-04T16:51:54.876Z</time></trkpt><trkpt lat="44.89728684657237" lon="11.831484067511957"><ele>3.8000000000000003</ele><time>2026-04-04T16:51:55.876Z</time></trkpt><trkpt lat="44.89730644114322" lon="11.831605656139597"><ele>3.6000000000000005</ele><time>2026-04-04T16:51:56.876Z</time></trkpt><trkpt lat="44.89732285900883" lon="11.831707532593175"><ele>3.4</ele><time>2026-04-04T16:51:57.877Z</time></trkpt><trkpt lat="44.89736102692765" lon="11.831864203132113"><ele>3.2</ele><time>2026-04-04T16:51:59.877Z</time></trkpt><trkpt lat="44.897314907039686" lon="11.831960877203826"><ele>3.0</ele><time>2026-04-04T16:52:02.876Z</time></trkpt><trkpt lat="44.89722339965477" lon="11.831985819571104"><ele>3.0</ele><time>2026-04-04T16:52:04.876Z</time></trkpt><trkpt lat="44.89711076290577" lon="11.832029336770178"><ele>3.0</ele><time>2026-04-04T16:52:06.876Z</time></trkpt><trkpt lat="44.89700161461565" lon="11.832070656815121"><ele>3.0</ele><time>2026-04-04T16:52:08.876Z</time></trkpt><trkpt lat="44.896893627857324" lon="11.832117015879543"><ele>3.0</ele><time>2026-04-04T16:52:10.876Z</time></trkpt><trkpt lat="44.89680148961188" lon="11.832172476610458"><ele>3.0</ele><time>2026-04-04T16:52:12.876Z</time></trkpt><trkpt lat="44.896726542368796" lon="11.832216026529203"><ele>4.0</ele><time>2026-04-04T16:52:14.876Z</time></trkpt><trkpt lat="44.896649811407194" lon="11.832270946287341"><ele>4.0</ele><time>2026-04-04T16:52:16.875Z</time></trkpt><trkpt lat="44.89657865197944" lon="11.832271684839919"><ele>4.0</ele><time>2026-04-04T16:52:20.875Z</time></trkpt><trkpt lat="44.89651042549867" lon="11.83225445959617"><ele>4.0</ele><time>2026-04-04T16:53:29.873Z</time></trkpt><trkpt lat="44.896520791401564" lon="11.832165824491808"><ele>4.0</ele><time>2026-04-04T16:53:50.873Z</time></trkpt></trkseg></trk></gpx>